﻿<?xml version="1.0" encoding="utf-8"?><gpx creator="Garmin Desktop App" version="1.1" xsi:schemaLocation="http://www.topografix.com/GPX/1/1 http://www.topografix.com/GPX/1/1/gpx.xsd http://www.garmin.com/xmlschemas/WaypointExtension/v1 http://www8.garmin.com/xmlschemas/WaypointExtensionv1.xsd http://www.garmin.com/xmlschemas/TrackPointExtension/v1 http://www.garmin.com/xmlschemas/TrackPointExtensionv1.xsd http://www.garmin.com/xmlschemas/GpxExtensions/v3 http://www8.garmin.com/xmlschemas/GpxExtensionsv3.xsd http://www.garmin.com/xmlschemas/ActivityExtension/v1 http://www8.garmin.com/xmlschemas/ActivityExtensionv1.xsd http://www.garmin.com/xmlschemas/AdventuresExtensions/v1 http://www8.garmin.com/xmlschemas/AdventuresExtensionv1.xsd http://www.garmin.com/xmlschemas/PressureExtension/v1 http://www.garmin.com/xmlschemas/PressureExtensionv1.xsd http://www.garmin.com/xmlschemas/TripExtensions/v1 http://www.garmin.com/xmlschemas/TripExtensionsv1.xsd http://www.garmin.com/xmlschemas/TripMetaDataExtensions/v1 http://www.garmin.com/xmlschemas/TripMetaDataExtensionsv1.xsd http://www.garmin.com/xmlschemas/ViaPointTransportationModeExtensions/v1 http://www.garmin.com/xmlschemas/ViaPointTransportationModeExtensionsv1.xsd http://www.garmin.com/xmlschemas/CreationTimeExtension/v1 http://www.garmin.com/xmlschemas/CreationTimeExtensionsv1.xsd http://www.garmin.com/xmlschemas/AccelerationExtension/v1 http://www.garmin.com/xmlschemas/AccelerationExtensionv1.xsd http://www.garmin.com/xmlschemas/PowerExtension/v1 http://www.garmin.com/xmlschemas/PowerExtensionv1.xsd http://www.garmin.com/xmlschemas/VideoExtension/v1 http://www.garmin.com/xmlschemas/VideoExtensionv1.xsd" xmlns="http://www.topografix.com/GPX/1/1" xmlns:xsi="http://www.w3.org/2001/XMLSchema-instance" xmlns:wptx1="http://www.garmin.com/xmlschemas/WaypointExtension/v1" xmlns:gpxtrx="http://www.garmin.com/xmlschemas/GpxExtensions/v3" xmlns:gpxtpx="http://www.garmin.com/xmlschemas/TrackPointExtension/v1" xmlns:gpxx="http://www.garmin.com/xmlschemas/GpxExtensions/v3" xmlns:trp="http://www.garmin.com/xmlschemas/TripExtensions/v1" xmlns:adv="http://www.garmin.com/xmlschemas/AdventuresExtensions/v1" xmlns:prs="http://www.garmin.com/xmlschemas/PressureExtension/v1" xmlns:tmd="http://www.garmin.com/xmlschemas/TripMetaDataExtensions/v1" xmlns:vptm="http://www.garmin.com/xmlschemas/ViaPointTransportationModeExtensions/v1" xmlns:ctx="http://www.garmin.com/xmlschemas/CreationTimeExtension/v1" xmlns:gpxacc="http://www.garmin.com/xmlschemas/AccelerationExtension/v1" xmlns:gpxpx="http://www.garmin.com/xmlschemas/PowerExtension/v1" xmlns:vidx1="http://www.garmin.com/xmlschemas/VideoExtension/v1">

  <metadata>
    <link href="http://www.garmin.com">
      <text>Garmin International</text>
    </link>
    <time>2021-01-09T14:27:50Z</time>
    <bounds maxlat="42.972551397979259" maxlon="13.292138976976275" minlat="42.777715316042304" minlon="13.033600095659494" />
  </metadata>

  <trk>
    <name>castelluccio2019-06-17</name>
    <extensions>
      <gpxx:TrackExtension>
        <gpxx:DisplayColor>Yellow</gpxx:DisplayColor>
      </gpxx:TrackExtension>
      <gpxtrkx:TrackStatsExtension xmlns:gpxtrkx="http://www.garmin.com/xmlschemas/TrackStatsExtension/v1">
        <gpxtrkx:Distance>17048</gpxtrkx:Distance>
        <gpxtrkx:TotalElapsedTime>21947</gpxtrkx:TotalElapsedTime>
        <gpxtrkx:MovingTime>15021</gpxtrkx:MovingTime>
        <gpxtrkx:StoppedTime>6917</gpxtrkx:StoppedTime>
        <gpxtrkx:MovingSpeed>1</gpxtrkx:MovingSpeed>
        <gpxtrkx:MaxSpeed>2</gpxtrkx:MaxSpeed>
        <gpxtrkx:MaxElevation>1751</gpxtrkx:MaxElevation>
        <gpxtrkx:MinElevation>1270</gpxtrkx:MinElevation>
        <gpxtrkx:Ascent>545</gpxtrkx:Ascent>
        <gpxtrkx:Descent>544</gpxtrkx:Descent>
        <gpxtrkx:AvgAscentRate>0</gpxtrkx:AvgAscentRate>
        <gpxtrkx:MaxAscentRate>0</gpxtrkx:MaxAscentRate>
        <gpxtrkx:AvgDescentRate>0</gpxtrkx:AvgDescentRate>
        <gpxtrkx:MaxDescentRate>-0</gpxtrkx:MaxDescentRate>
      </gpxtrkx:TrackStatsExtension>
    </extensions>
    <trkseg>
      <trkpt lat="42.829112391918898" lon="13.205847116187215">
        <ele>1419.3</ele>
        <time>2019-06-17T07:30:52Z</time>
      </trkpt>
      <trkpt lat="42.829117923974991" lon="13.205842170864344">
        <ele>1419.6300000000001</ele>
        <time>2019-06-17T07:31:12Z</time>
      </trkpt>
      <trkpt lat="42.829122031107545" lon="13.205844098702073">
        <ele>1420.78</ele>
        <time>2019-06-17T07:31:31Z</time>
      </trkpt>
      <trkpt lat="42.829121360555291" lon="13.2058444339782">
        <ele>1420.3900000000001</ele>
        <time>2019-06-17T07:31:44Z</time>
      </trkpt>
      <trkpt lat="42.829114655032754" lon="13.205852564424276">
        <ele>1420.1099999999999</ele>
        <time>2019-06-17T07:32:04Z</time>
      </trkpt>
      <trkpt lat="42.829111469909549" lon="13.205856336280704">
        <ele>1419.6600000000001</ele>
        <time>2019-06-17T07:32:24Z</time>
      </trkpt>
      <trkpt lat="42.829112475737929" lon="13.205859437584877">
        <ele>1419.9000000000001</ele>
        <time>2019-06-17T07:32:43Z</time>
      </trkpt>
      <trkpt lat="42.829108871519566" lon="13.205863125622272">
        <ele>1419.26</ele>
        <time>2019-06-17T07:33:06Z</time>
      </trkpt>
      <trkpt lat="42.82911884598434" lon="13.205817276611924">
        <ele>1419.53</ele>
        <time>2019-06-17T07:33:23Z</time>
      </trkpt>
      <trkpt lat="42.829113062471151" lon="13.205797579139471">
        <ele>1419.4100000000001</ele>
        <time>2019-06-17T07:33:40Z</time>
      </trkpt>
      <trkpt lat="42.829109961166978" lon="13.205791795626283">
        <ele>1419.1800000000001</ele>
        <time>2019-06-17T07:33:53Z</time>
      </trkpt>
      <trkpt lat="42.829100992530584" lon="13.205752987414598">
        <ele>1419.1900000000001</ele>
        <time>2019-06-17T07:34:02Z</time>
      </trkpt>
      <trkpt lat="42.829093700274825" lon="13.205691548064351">
        <ele>1418.8</ele>
        <time>2019-06-17T07:34:14Z</time>
      </trkpt>
      <trkpt lat="42.829087413847446" lon="13.205692050978541">
        <ele>1419.8099999999999</ele>
        <time>2019-06-17T07:34:44Z</time>
      </trkpt>
      <trkpt lat="42.829081630334258" lon="13.205623151734471">
        <ele>1419.95</ele>
        <time>2019-06-17T07:34:58Z</time>
      </trkpt>
      <trkpt lat="42.829063273966312" lon="13.20559867657721">
        <ele>1419.1500000000001</ele>
        <time>2019-06-17T07:35:11Z</time>
      </trkpt>
      <trkpt lat="42.829114235937595" lon="13.205513851717114">
        <ele>1419.4000000000001</ele>
        <time>2019-06-17T07:35:21Z</time>
      </trkpt>
      <trkpt lat="42.829118175432086" lon="13.205421566963196">
        <ele>1420.01</ele>
        <time>2019-06-17T07:35:29Z</time>
      </trkpt>
      <trkpt lat="42.829095628112555" lon="13.205294413492084">
        <ele>1420.23</ele>
        <time>2019-06-17T07:35:40Z</time>
      </trkpt>
      <trkpt lat="42.829082468524575" lon="13.2052590418607">
        <ele>1420.0599999999999</ele>
        <time>2019-06-17T07:35:43Z</time>
      </trkpt>
      <trkpt lat="42.8290846478194" lon="13.205239260569215">
        <ele>1420.72</ele>
        <time>2019-06-17T07:35:54Z</time>
      </trkpt>
      <trkpt lat="42.829058663919568" lon="13.205222580581903">
        <ele>1420.6600000000001</ele>
        <time>2019-06-17T07:35:57Z</time>
      </trkpt>
      <trkpt lat="42.829014826565981" lon="13.205181593075395">
        <ele>1420.51</ele>
        <time>2019-06-17T07:36:02Z</time>
      </trkpt>
      <trkpt lat="42.828963445499539" lon="13.205118980258703">
        <ele>1420.8</ele>
        <time>2019-06-17T07:36:09Z</time>
      </trkpt>
      <trkpt lat="42.828947519883513" lon="13.205091319978237">
        <ele>1420.77</ele>
        <time>2019-06-17T07:36:12Z</time>
      </trkpt>
      <trkpt lat="42.828842913731933" lon="13.20490381680429">
        <ele>1422.6400000000001</ele>
        <time>2019-06-17T07:36:31Z</time>
      </trkpt>
      <trkpt lat="42.828776529058814" lon="13.204711200669408">
        <ele>1424.9000000000001</ele>
        <time>2019-06-17T07:36:49Z</time>
      </trkpt>
      <trkpt lat="42.828714586794376" lon="13.204523446038365">
        <ele>1425.99</ele>
        <time>2019-06-17T07:37:05Z</time>
      </trkpt>
      <trkpt lat="42.828650716692209" lon="13.204349773004651">
        <ele>1426.8599999999999</ele>
        <time>2019-06-17T07:37:21Z</time>
      </trkpt>
      <trkpt lat="42.828660104423761" lon="13.204335607588291">
        <ele>1426.8900000000001</ele>
        <time>2019-06-17T07:37:31Z</time>
      </trkpt>
      <trkpt lat="42.828625068068504" lon="13.204331332817674">
        <ele>1427.3099999999999</ele>
        <time>2019-06-17T07:37:43Z</time>
      </trkpt>
      <trkpt lat="42.8286512196064" lon="13.204315574839711">
        <ele>1427.22</ele>
        <time>2019-06-17T07:37:53Z</time>
      </trkpt>
      <trkpt lat="42.828637305647135" lon="13.204303756356239">
        <ele>1426.8900000000001</ele>
        <time>2019-06-17T07:38:02Z</time>
      </trkpt>
      <trkpt lat="42.82858525402844" lon="13.20420409552753">
        <ele>1427.6199999999999</ele>
        <time>2019-06-17T07:38:16Z</time>
      </trkpt>
      <trkpt lat="42.828589947894216" lon="13.204168556258082">
        <ele>1427.8800000000001</ele>
        <time>2019-06-17T07:38:31Z</time>
      </trkpt>
      <trkpt lat="42.828587852418423" lon="13.204157659783959">
        <ele>1427.8599999999999</ele>
        <time>2019-06-17T07:38:32Z</time>
      </trkpt>
      <trkpt lat="42.828558096662164" lon="13.20396076887846">
        <ele>1430.3499999999999</ele>
        <time>2019-06-17T07:38:50Z</time>
      </trkpt>
      <trkpt lat="42.828517528250813" lon="13.20374920964241">
        <ele>1433.1199999999999</ele>
        <time>2019-06-17T07:39:09Z</time>
      </trkpt>
      <trkpt lat="42.82848802395165" lon="13.203567070886493">
        <ele>1434.55</ele>
        <time>2019-06-17T07:39:25Z</time>
      </trkpt>
      <trkpt lat="42.828484755009413" lon="13.203520886600018">
        <ele>1435.3499999999999</ele>
        <time>2019-06-17T07:39:29Z</time>
      </trkpt>
      <trkpt lat="42.82850369811058" lon="13.203455675393343">
        <ele>1435.8699999999999</ele>
        <time>2019-06-17T07:39:42Z</time>
      </trkpt>
      <trkpt lat="42.82850906252861" lon="13.203450981527567">
        <ele>1436.5699999999999</ele>
        <time>2019-06-17T07:40:11Z</time>
      </trkpt>
      <trkpt lat="42.828510738909245" lon="13.203443353995681">
        <ele>1436.46</ele>
        <time>2019-06-17T07:40:55Z</time>
      </trkpt>
      <trkpt lat="42.828509397804737" lon="13.203449053689837">
        <ele>1437.0799999999999</ele>
        <time>2019-06-17T07:41:16Z</time>
      </trkpt>
      <trkpt lat="42.828510738909245" lon="13.203449388965964">
        <ele>1435.6600000000001</ele>
        <time>2019-06-17T07:41:21Z</time>
      </trkpt>
      <trkpt lat="42.82849196344614" lon="13.203394152224064">
        <ele>1437.1900000000001</ele>
        <time>2019-06-17T07:41:32Z</time>
      </trkpt>
      <trkpt lat="42.828453490510583" lon="13.203221736475825">
        <ele>1438.6700000000001</ele>
        <time>2019-06-17T07:41:48Z</time>
      </trkpt>
      <trkpt lat="42.82841376028955" lon="13.203112604096532">
        <ele>1440.1199999999999</ele>
        <time>2019-06-17T07:42:00Z</time>
      </trkpt>
      <trkpt lat="42.82836003229022" lon="13.202948989346623">
        <ele>1441.4200000000001</ele>
        <time>2019-06-17T07:42:16Z</time>
      </trkpt>
      <trkpt lat="42.828355422243476" lon="13.20291512645781">
        <ele>1441.8099999999999</ele>
        <time>2019-06-17T07:42:26Z</time>
      </trkpt>
      <trkpt lat="42.828364139422774" lon="13.202941445633769">
        <ele>1441.3299999999999</ele>
        <time>2019-06-17T07:42:44Z</time>
      </trkpt>
      <trkpt lat="42.828350560739636" lon="13.20291655138135">
        <ele>1441.72</ele>
        <time>2019-06-17T07:42:47Z</time>
      </trkpt>
      <trkpt lat="42.828273111954331" lon="13.202688060700893">
        <ele>1444.1400000000001</ele>
        <time>2019-06-17T07:43:06Z</time>
      </trkpt>
      <trkpt lat="42.828257856890559" lon="13.2026756554842">
        <ele>1444.55</ele>
        <time>2019-06-17T07:43:19Z</time>
      </trkpt>
      <trkpt lat="42.828264310956001" lon="13.202660903334618">
        <ele>1444.77</ele>
        <time>2019-06-17T07:43:31Z</time>
      </trkpt>
      <trkpt lat="42.828268837183714" lon="13.202660651877522">
        <ele>1443.8399999999999</ele>
        <time>2019-06-17T07:43:43Z</time>
      </trkpt>
      <trkpt lat="42.828244445845485" lon="13.202591584995389">
        <ele>1445.05</ele>
        <time>2019-06-17T07:43:54Z</time>
      </trkpt>
      <trkpt lat="42.828183425590396" lon="13.202427970245481">
        <ele>1446.6700000000001</ele>
        <time>2019-06-17T07:44:10Z</time>
      </trkpt>
      <trkpt lat="42.828129194676876" lon="13.202265109866858">
        <ele>1448.9100000000001</ele>
        <time>2019-06-17T07:44:24Z</time>
      </trkpt>
      <trkpt lat="42.828073622658849" lon="13.202112810686231">
        <ele>1450.6400000000001</ele>
        <time>2019-06-17T07:44:38Z</time>
      </trkpt>
      <trkpt lat="42.828013440594077" lon="13.201937545090914">
        <ele>1452.78</ele>
        <time>2019-06-17T07:44:55Z</time>
      </trkpt>
      <trkpt lat="42.827963903546333" lon="13.20191684179008">
        <ele>1453.6400000000001</ele>
        <time>2019-06-17T07:45:06Z</time>
      </trkpt>
      <trkpt lat="42.827968262135983" lon="13.201903766021132">
        <ele>1453.4000000000001</ele>
        <time>2019-06-17T07:45:25Z</time>
      </trkpt>
      <trkpt lat="42.827963149175048" lon="13.201830508187413">
        <ele>1453.76</ele>
        <time>2019-06-17T07:45:31Z</time>
      </trkpt>
      <trkpt lat="42.827885281294584" lon="13.201627833768725">
        <ele>1456.1700000000001</ele>
        <time>2019-06-17T07:45:48Z</time>
      </trkpt>
      <trkpt lat="42.827805653214455" lon="13.201432451605797">
        <ele>1459.02</ele>
        <time>2019-06-17T07:46:06Z</time>
      </trkpt>
      <trkpt lat="42.827783524990082" lon="13.201387356966734">
        <ele>1459.5999999999999</ele>
        <time>2019-06-17T07:46:19Z</time>
      </trkpt>
      <trkpt lat="42.827786458656192" lon="13.201392134651542">
        <ele>1460.46</ele>
        <time>2019-06-17T07:46:53Z</time>
      </trkpt>
      <trkpt lat="42.827784866094589" lon="13.201391045004129">
        <ele>1460.75</ele>
        <time>2019-06-17T07:47:22Z</time>
      </trkpt>
      <trkpt lat="42.827787045389414" lon="13.201390458270907">
        <ele>1460.76</ele>
        <time>2019-06-17T07:47:49Z</time>
      </trkpt>
      <trkpt lat="42.827799282968044" lon="13.201383920386434">
        <ele>1459.4200000000001</ele>
        <time>2019-06-17T07:48:02Z</time>
      </trkpt>
      <trkpt lat="42.827753014862537" lon="13.201278308406472">
        <ele>1461.48</ele>
        <time>2019-06-17T07:48:12Z</time>
      </trkpt>
      <trkpt lat="42.827696353197098" lon="13.201114861294627">
        <ele>1464.04</ele>
        <time>2019-06-17T07:48:27Z</time>
      </trkpt>
      <trkpt lat="42.82763147726655" lon="13.200931800529361">
        <ele>1465.8599999999999</ele>
        <time>2019-06-17T07:48:44Z</time>
      </trkpt>
      <trkpt lat="42.827567774802446" lon="13.200742453336716">
        <ele>1468.8900000000001</ele>
        <time>2019-06-17T07:49:01Z</time>
      </trkpt>
      <trkpt lat="42.827495019882917" lon="13.200538605451584">
        <ele>1471.72</ele>
        <time>2019-06-17T07:49:21Z</time>
      </trkpt>
      <trkpt lat="42.827422684058547" lon="13.200334254652262">
        <ele>1474.0599999999999</ele>
        <time>2019-06-17T07:49:42Z</time>
      </trkpt>
      <trkpt lat="42.827346660196781" lon="13.200120683759451">
        <ele>1476.95</ele>
        <time>2019-06-17T07:50:03Z</time>
      </trkpt>
      <trkpt lat="42.827292680740356" lon="13.199957404285669">
        <ele>1479.04</ele>
        <time>2019-06-17T07:50:20Z</time>
      </trkpt>
      <trkpt lat="42.827245406806469" lon="13.199797477573156">
        <ele>1481.7</ele>
        <time>2019-06-17T07:50:36Z</time>
      </trkpt>
      <trkpt lat="42.827234258875251" lon="13.199728913605213">
        <ele>1483.1700000000001</ele>
        <time>2019-06-17T07:50:42Z</time>
      </trkpt>
      <trkpt lat="42.827198803424835" lon="13.199547696858644">
        <ele>1485.52</ele>
        <time>2019-06-17T07:51:00Z</time>
      </trkpt>
      <trkpt lat="42.827192768454552" lon="13.199510313570499">
        <ele>1486.26</ele>
        <time>2019-06-17T07:51:04Z</time>
      </trkpt>
      <trkpt lat="42.827124791219831" lon="13.199352733790874">
        <ele>1488.2</ele>
        <time>2019-06-17T07:51:19Z</time>
      </trkpt>
      <trkpt lat="42.827046923339367" lon="13.19915559142828">
        <ele>1491.2</ele>
        <time>2019-06-17T07:51:38Z</time>
      </trkpt>
      <trkpt lat="42.827019430696964" lon="13.199031203985214">
        <ele>1492.6400000000001</ele>
        <time>2019-06-17T07:51:52Z</time>
      </trkpt>
      <trkpt lat="42.826996799558401" lon="13.19896649569273">
        <ele>1493.3399999999999</ele>
        <time>2019-06-17T07:52:08Z</time>
      </trkpt>
      <trkpt lat="42.826979113742709" lon="13.198909414932132">
        <ele>1493.9400000000001</ele>
        <time>2019-06-17T07:52:13Z</time>
      </trkpt>
      <trkpt lat="42.826934857293963" lon="13.198853172361851">
        <ele>1494.78</ele>
        <time>2019-06-17T07:52:29Z</time>
      </trkpt>
      <trkpt lat="42.826932594180107" lon="13.198858620598912">
        <ele>1495.0799999999999</ele>
        <time>2019-06-17T07:52:50Z</time>
      </trkpt>
      <trkpt lat="42.826932677999139" lon="13.198850993067026">
        <ele>1494.76</ele>
        <time>2019-06-17T07:53:09Z</time>
      </trkpt>
      <trkpt lat="42.826939551159739" lon="13.198845041915774">
        <ele>1494.9300000000001</ele>
        <time>2019-06-17T07:53:26Z</time>
      </trkpt>
      <trkpt lat="42.826936366036534" lon="13.198843197897077">
        <ele>1495.26</ele>
        <time>2019-06-17T07:53:45Z</time>
      </trkpt>
      <trkpt lat="42.826934857293963" lon="13.198843197897077">
        <ele>1495.1900000000001</ele>
        <time>2019-06-17T07:53:58Z</time>
      </trkpt>
      <trkpt lat="42.826926810666919" lon="13.198812520131469">
        <ele>1495.98</ele>
        <time>2019-06-17T07:54:13Z</time>
      </trkpt>
      <trkpt lat="42.826899234205484" lon="13.198709925636649">
        <ele>1496.54</ele>
        <time>2019-06-17T07:54:22Z</time>
      </trkpt>
      <trkpt lat="42.826856821775436" lon="13.198577659204602">
        <ele>1497.24</ele>
        <time>2019-06-17T07:54:34Z</time>
      </trkpt>
      <trkpt lat="42.826822372153401" lon="13.19848763756454">
        <ele>1497.8</ele>
        <time>2019-06-17T07:54:42Z</time>
      </trkpt>
      <trkpt lat="42.82675045542419" lon="13.198305834084749">
        <ele>1499.3</ele>
        <time>2019-06-17T07:54:57Z</time>
      </trkpt>
      <trkpt lat="42.826689854264259" lon="13.19814121350646">
        <ele>1499.9400000000001</ele>
        <time>2019-06-17T07:55:12Z</time>
      </trkpt>
      <trkpt lat="42.82668499276042" lon="13.198134005069733">
        <ele>1500.1199999999999</ele>
        <time>2019-06-17T07:55:13Z</time>
      </trkpt>
      <trkpt lat="42.826674347743392" lon="13.198112295940518">
        <ele>1500.4400000000001</ele>
        <time>2019-06-17T07:55:15Z</time>
      </trkpt>
      <trkpt lat="42.826579716056585" lon="13.197909370064735">
        <ele>1501.78</ele>
        <time>2019-06-17T07:55:33Z</time>
      </trkpt>
      <trkpt lat="42.826472679153085" lon="13.197709377855062">
        <ele>1503.4200000000001</ele>
        <time>2019-06-17T07:55:51Z</time>
      </trkpt>
      <trkpt lat="42.826368156820536" lon="13.197542242705822">
        <ele>1504.8599999999999</ele>
        <time>2019-06-17T07:56:07Z</time>
      </trkpt>
      <trkpt lat="42.826300766319036" lon="13.197440654039383">
        <ele>1505.3199999999999</ele>
        <time>2019-06-17T07:56:18Z</time>
      </trkpt>
      <trkpt lat="42.826288696378469" lon="13.197431769222021">
        <ele>1505.98</ele>
        <time>2019-06-17T07:56:29Z</time>
      </trkpt>
      <trkpt lat="42.826259443536401" lon="13.197376197203994">
        <ele>1505.96</ele>
        <time>2019-06-17T07:56:34Z</time>
      </trkpt>
      <trkpt lat="42.826146623119712" lon="13.197199758142233">
        <ele>1506.4400000000001</ele>
        <time>2019-06-17T07:56:51Z</time>
      </trkpt>
      <trkpt lat="42.826066240668297" lon="13.197056762874126">
        <ele>1507.23</ele>
        <time>2019-06-17T07:57:05Z</time>
      </trkpt>
      <trkpt lat="42.82600287348032" lon="13.196932626888156">
        <ele>1508.0899999999999</ele>
        <time>2019-06-17T07:57:20Z</time>
      </trkpt>
      <trkpt lat="42.825997844338417" lon="13.196922903880477">
        <ele>1508.1900000000001</ele>
        <time>2019-06-17T07:57:21Z</time>
      </trkpt>
      <trkpt lat="42.825947972014546" lon="13.196813436225057">
        <ele>1509.1500000000001</ele>
        <time>2019-06-17T07:57:35Z</time>
      </trkpt>
      <trkpt lat="42.825888376682997" lon="13.196656443178654">
        <ele>1510.4100000000001</ele>
        <time>2019-06-17T07:57:51Z</time>
      </trkpt>
      <trkpt lat="42.825838420540094" lon="13.196523003280163">
        <ele>1511.6600000000001</ele>
        <time>2019-06-17T07:58:04Z</time>
      </trkpt>
      <trkpt lat="42.82576004974544" lon="13.196336673572659">
        <ele>1513.29</ele>
        <time>2019-06-17T07:58:22Z</time>
      </trkpt>
      <trkpt lat="42.825653180480003" lon="13.196184039115906">
        <ele>1514.8499999999999</ele>
        <time>2019-06-17T07:58:38Z</time>
      </trkpt>
      <trkpt lat="42.825543964281678" lon="13.196111116558313">
        <ele>1514.8800000000001</ele>
        <time>2019-06-17T07:58:51Z</time>
      </trkpt>
      <trkpt lat="42.825390994548798" lon="13.196059735491872">
        <ele>1515.27</ele>
        <time>2019-06-17T07:59:07Z</time>
      </trkpt>
      <trkpt lat="42.825221680104733" lon="13.19601614959538">
        <ele>1515.8199999999999</ele>
        <time>2019-06-17T07:59:23Z</time>
      </trkpt>
      <trkpt lat="42.825169209390879" lon="13.195989578962326">
        <ele>1515.8299999999999</ele>
        <time>2019-06-17T07:59:32Z</time>
      </trkpt>
      <trkpt lat="42.825161330401897" lon="13.195987651124597">
        <ele>1515.6300000000001</ele>
        <time>2019-06-17T07:59:36Z</time>
      </trkpt>
      <trkpt lat="42.825112044811249" lon="13.195959068834782">
        <ele>1515.9400000000001</ele>
        <time>2019-06-17T07:59:41Z</time>
      </trkpt>
      <trkpt lat="42.824918087571859" lon="13.195766117423773">
        <ele>1516.8</ele>
        <time>2019-06-17T08:00:01Z</time>
      </trkpt>
      <trkpt lat="42.824760843068361" lon="13.19553829729557">
        <ele>1518.1500000000001</ele>
        <time>2019-06-17T08:00:20Z</time>
      </trkpt>
      <trkpt lat="42.824661014601588" lon="13.195335455238819">
        <ele>1520.55</ele>
        <time>2019-06-17T08:00:36Z</time>
      </trkpt>
      <trkpt lat="42.824556576088071" lon="13.195121213793755">
        <ele>1522.9200000000001</ele>
        <time>2019-06-17T08:00:54Z</time>
      </trkpt>
      <trkpt lat="42.824436882510781" lon="13.194941254332662">
        <ele>1525.4300000000001</ele>
        <time>2019-06-17T08:01:11Z</time>
      </trkpt>
      <trkpt lat="42.824263628572226" lon="13.194752745330334">
        <ele>1527.9100000000001</ele>
        <time>2019-06-17T08:01:31Z</time>
      </trkpt>
      <trkpt lat="42.824110994115472" lon="13.194592986255884">
        <ele>1530.55</ele>
        <time>2019-06-17T08:01:48Z</time>
      </trkpt>
      <trkpt lat="42.824004208669066" lon="13.194434903562069">
        <ele>1531.7</ele>
        <time>2019-06-17T08:02:04Z</time>
      </trkpt>
      <trkpt lat="42.823944361880422" lon="13.194255279377103">
        <ele>1533.73</ele>
        <time>2019-06-17T08:02:19Z</time>
      </trkpt>
      <trkpt lat="42.823915695771575" lon="13.194074649363756">
        <ele>1534.8299999999999</ele>
        <time>2019-06-17T08:02:32Z</time>
      </trkpt>
      <trkpt lat="42.823885856196284" lon="13.193841800093651">
        <ele>1536.2</ele>
        <time>2019-06-17T08:02:48Z</time>
      </trkpt>
      <trkpt lat="42.823834558948874" lon="13.193600568920374">
        <ele>1537.03</ele>
        <time>2019-06-17T08:03:04Z</time>
      </trkpt>
      <trkpt lat="42.823772197589278" lon="13.193372245877981">
        <ele>1537.97</ele>
        <time>2019-06-17T08:03:19Z</time>
      </trkpt>
      <trkpt lat="42.823713188990951" lon="13.193161441013217">
        <ele>1538.5699999999999</ele>
        <time>2019-06-17T08:03:34Z</time>
      </trkpt>
      <trkpt lat="42.823710087686777" lon="13.193155322223902">
        <ele>1538.55</ele>
        <time>2019-06-17T08:03:37Z</time>
      </trkpt>
      <trkpt lat="42.823695754632354" lon="13.193114502355456">
        <ele>1538.6300000000001</ele>
        <time>2019-06-17T08:03:40Z</time>
      </trkpt>
      <trkpt lat="42.823558375239372" lon="13.19283370859921">
        <ele>1539.1400000000001</ele>
        <time>2019-06-17T08:04:00Z</time>
      </trkpt>
      <trkpt lat="42.823521411046386" lon="13.192780064418912">
        <ele>1539.24</ele>
        <time>2019-06-17T08:04:13Z</time>
      </trkpt>
      <trkpt lat="42.823523003607988" lon="13.192775286734104">
        <ele>1538.6199999999999</ele>
        <time>2019-06-17T08:04:45Z</time>
      </trkpt>
      <trkpt lat="42.823523255065084" lon="13.19277461618185">
        <ele>1539.3499999999999</ele>
        <time>2019-06-17T08:05:01Z</time>
      </trkpt>
      <trkpt lat="42.823529625311494" lon="13.192771933972836">
        <ele>1538.6400000000001</ele>
        <time>2019-06-17T08:05:21Z</time>
      </trkpt>
      <trkpt lat="42.823522500693798" lon="13.192773023620248">
        <ele>1539.26</ele>
        <time>2019-06-17T08:05:37Z</time>
      </trkpt>
      <trkpt lat="42.823508838191628" lon="13.192735807970166">
        <ele>1539.5999999999999</ele>
        <time>2019-06-17T08:05:51Z</time>
      </trkpt>
      <trkpt lat="42.823508167639375" lon="13.192736394703388">
        <ele>1539.53</ele>
        <time>2019-06-17T08:06:09Z</time>
      </trkpt>
      <trkpt lat="42.823503389954567" lon="13.192729186266661">
        <ele>1538.8900000000001</ele>
        <time>2019-06-17T08:06:27Z</time>
      </trkpt>
      <trkpt lat="42.823496265336871" lon="13.192722061648965">
        <ele>1538.4300000000001</ele>
        <time>2019-06-17T08:06:39Z</time>
      </trkpt>
      <trkpt lat="42.823473885655403" lon="13.192702699452639">
        <ele>1538.74</ele>
        <time>2019-06-17T08:06:42Z</time>
      </trkpt>
      <trkpt lat="42.823351677507162" lon="13.19260404445231">
        <ele>1539.47</ele>
        <time>2019-06-17T08:06:57Z</time>
      </trkpt>
      <trkpt lat="42.823216812685132" lon="13.192522069439292">
        <ele>1540.0699999999999</ele>
        <time>2019-06-17T08:07:12Z</time>
      </trkpt>
      <trkpt lat="42.823016904294491" lon="13.192456774413586">
        <ele>1541.45</ele>
        <time>2019-06-17T08:07:32Z</time>
      </trkpt>
      <trkpt lat="42.822819007560611" lon="13.192432634532452">
        <ele>1543.0699999999999</ele>
        <time>2019-06-17T08:07:51Z</time>
      </trkpt>
      <trkpt lat="42.822633516043425" lon="13.192449063062668">
        <ele>1544.5899999999999</ele>
        <time>2019-06-17T08:08:09Z</time>
      </trkpt>
      <trkpt lat="42.822446012869477" lon="13.192493990063667">
        <ele>1546.6300000000001</ele>
        <time>2019-06-17T08:08:27Z</time>
      </trkpt>
      <trkpt lat="42.822264125570655" lon="13.192532965913415">
        <ele>1548.22</ele>
        <time>2019-06-17T08:08:44Z</time>
      </trkpt>
      <trkpt lat="42.822081232443452" lon="13.192539839074016">
        <ele>1549.8</ele>
        <time>2019-06-17T08:09:01Z</time>
      </trkpt>
      <trkpt lat="42.821905547752976" lon="13.192551825195551">
        <ele>1550.8099999999999</ele>
        <time>2019-06-17T08:09:17Z</time>
      </trkpt>
      <trkpt lat="42.821690971031785" lon="13.192583089694381">
        <ele>1552.1199999999999</ele>
        <time>2019-06-17T08:09:36Z</time>
      </trkpt>
      <trkpt lat="42.821502294391394" lon="13.192617455497384">
        <ele>1553.0699999999999</ele>
        <time>2019-06-17T08:09:52Z</time>
      </trkpt>
      <trkpt lat="42.821260057389736" lon="13.192629357799888">
        <ele>1553.96</ele>
        <time>2019-06-17T08:10:13Z</time>
      </trkpt>
      <trkpt lat="42.821034919470549" lon="13.192613096907735">
        <ele>1554.8699999999999</ele>
        <time>2019-06-17T08:10:32Z</time>
      </trkpt>
      <trkpt lat="42.820801651105285" lon="13.192573701962829">
        <ele>1557.23</ele>
        <time>2019-06-17T08:10:53Z</time>
      </trkpt>
      <trkpt lat="42.82058933749795" lon="13.192539503797889">
        <ele>1558.1400000000001</ele>
        <time>2019-06-17T08:11:12Z</time>
      </trkpt>
      <trkpt lat="42.820424716919661" lon="13.192529529333115">
        <ele>1559.22</ele>
        <time>2019-06-17T08:11:27Z</time>
      </trkpt>
      <trkpt lat="42.820247607305646" lon="13.192452164366841">
        <ele>1560.4000000000001</ele>
        <time>2019-06-17T08:11:44Z</time>
      </trkpt>
      <trkpt lat="42.820058511570096" lon="13.192326603457332">
        <ele>1562.4400000000001</ele>
        <time>2019-06-17T08:12:03Z</time>
      </trkpt>
      <trkpt lat="42.819898668676615" lon="13.192163910716772">
        <ele>1563.49</ele>
        <time>2019-06-17T08:12:22Z</time>
      </trkpt>
      <trkpt lat="42.819810071960092" lon="13.192007588222623">
        <ele>1563.79</ele>
        <time>2019-06-17T08:12:37Z</time>
      </trkpt>
      <trkpt lat="42.819741675630212" lon="13.191867107525468">
        <ele>1565.6400000000001</ele>
        <time>2019-06-17T08:12:49Z</time>
      </trkpt>
      <trkpt lat="42.819676548242569" lon="13.191705923527479">
        <ele>1565.5999999999999</ele>
        <time>2019-06-17T08:13:02Z</time>
      </trkpt>
      <trkpt lat="42.819617707282305" lon="13.191494448110461">
        <ele>1566.27</ele>
        <time>2019-06-17T08:13:17Z</time>
      </trkpt>
      <trkpt lat="42.819561799988151" lon="13.191258748993278">
        <ele>1567.52</ele>
        <time>2019-06-17T08:13:33Z</time>
      </trkpt>
      <trkpt lat="42.819486111402512" lon="13.191011901944876">
        <ele>1568.73</ele>
        <time>2019-06-17T08:13:51Z</time>
      </trkpt>
      <trkpt lat="42.819378990679979" lon="13.190792128443718">
        <ele>1570.23</ele>
        <time>2019-06-17T08:14:09Z</time>
      </trkpt>
      <trkpt lat="42.8192397672683" lon="13.190593058243394">
        <ele>1571.5799999999999</ele>
        <time>2019-06-17T08:14:28Z</time>
      </trkpt>
      <trkpt lat="42.819109931588173" lon="13.190457187592983">
        <ele>1572.8299999999999</ele>
        <time>2019-06-17T08:14:44Z</time>
      </trkpt>
      <trkpt lat="42.818939862772822" lon="13.190320814028382">
        <ele>1574.3199999999999</ele>
        <time>2019-06-17T08:15:03Z</time>
      </trkpt>
      <trkpt lat="42.818782282993197" lon="13.190188715234399">
        <ele>1575.6800000000001</ele>
        <time>2019-06-17T08:15:21Z</time>
      </trkpt>
      <trkpt lat="42.818621015176177" lon="13.190012695267797">
        <ele>1577.54</ele>
        <time>2019-06-17T08:15:40Z</time>
      </trkpt>
      <trkpt lat="42.818471230566502" lon="13.189829466864467">
        <ele>1578.78</ele>
        <time>2019-06-17T08:15:58Z</time>
      </trkpt>
      <trkpt lat="42.818337539210916" lon="13.189638694748282">
        <ele>1580.03</ele>
        <time>2019-06-17T08:16:15Z</time>
      </trkpt>
      <trkpt lat="42.818193873390555" lon="13.189422693103552">
        <ele>1582.02</ele>
        <time>2019-06-17T08:16:34Z</time>
      </trkpt>
      <trkpt lat="42.818069150671363" lon="13.189203171059489">
        <ele>1583.4300000000001</ele>
        <time>2019-06-17T08:16:52Z</time>
      </trkpt>
      <trkpt lat="42.817978793755174" lon="13.189000831916928">
        <ele>1583.9400000000001</ele>
        <time>2019-06-17T08:17:08Z</time>
      </trkpt>
      <trkpt lat="42.817916516214609" lon="13.18886948749423">
        <ele>1584.53</ele>
        <time>2019-06-17T08:17:19Z</time>
      </trkpt>
      <trkpt lat="42.817884664982557" lon="13.188868733122945">
        <ele>1583.3699999999999</ele>
        <time>2019-06-17T08:17:29Z</time>
      </trkpt>
      <trkpt lat="42.817883994430304" lon="13.188844174146652">
        <ele>1584.1600000000001</ele>
        <time>2019-06-17T08:17:42Z</time>
      </trkpt>
      <trkpt lat="42.817778550088406" lon="13.188573438674212">
        <ele>1585.8299999999999</ele>
        <time>2019-06-17T08:18:01Z</time>
      </trkpt>
      <trkpt lat="42.817758182063699" lon="13.188415272161365">
        <ele>1586.0799999999999</ele>
        <time>2019-06-17T08:18:13Z</time>
      </trkpt>
      <trkpt lat="42.817757427692413" lon="13.188411416485906">
        <ele>1585.9200000000001</ele>
        <time>2019-06-17T08:18:20Z</time>
      </trkpt>
      <trkpt lat="42.817742088809609" lon="13.188370345160365">
        <ele>1585.8299999999999</ele>
        <time>2019-06-17T08:18:23Z</time>
      </trkpt>
      <trkpt lat="42.817674865946174" lon="13.188098100945354">
        <ele>1586.47</ele>
        <time>2019-06-17T08:18:41Z</time>
      </trkpt>
      <trkpt lat="42.817634968087077" lon="13.187854187563062">
        <ele>1586.29</ele>
        <time>2019-06-17T08:18:58Z</time>
      </trkpt>
      <trkpt lat="42.817622311413288" lon="13.187637934461236">
        <ele>1586.8900000000001</ele>
        <time>2019-06-17T08:19:13Z</time>
      </trkpt>
      <trkpt lat="42.817621640861034" lon="13.18738890811801">
        <ele>1587.4100000000001</ele>
        <time>2019-06-17T08:19:29Z</time>
      </trkpt>
      <trkpt lat="42.81760479323566" lon="13.187103755772114">
        <ele>1588</ele>
        <time>2019-06-17T08:19:47Z</time>
      </trkpt>
      <trkpt lat="42.817586939781904" lon="13.186940727755427">
        <ele>1588.77</ele>
        <time>2019-06-17T08:20:01Z</time>
      </trkpt>
      <trkpt lat="42.81758526340127" lon="13.186935195699334">
        <ele>1588.73</ele>
        <time>2019-06-17T08:20:11Z</time>
      </trkpt>
      <trkpt lat="42.8175681643188" lon="13.186861937865615">
        <ele>1589.02</ele>
        <time>2019-06-17T08:20:20Z</time>
      </trkpt>
      <trkpt lat="42.817582162097096" lon="13.18687442690134">
        <ele>1588.71</ele>
        <time>2019-06-17T08:20:27Z</time>
      </trkpt>
      <trkpt lat="42.817571684718132" lon="13.186855986714363">
        <ele>1589.46</ele>
        <time>2019-06-17T08:20:47Z</time>
      </trkpt>
      <trkpt lat="42.817522482946515" lon="13.186742328107357">
        <ele>1589.9200000000001</ele>
        <time>2019-06-17T08:21:00Z</time>
      </trkpt>
      <trkpt lat="42.817498007789254" lon="13.1866364646703">
        <ele>1589.96</ele>
        <time>2019-06-17T08:21:11Z</time>
      </trkpt>
      <trkpt lat="42.817494235932827" lon="13.186626490205526">
        <ele>1590.25</ele>
        <time>2019-06-17T08:21:12Z</time>
      </trkpt>
      <trkpt lat="42.817472945898771" lon="13.186563290655613">
        <ele>1589.95</ele>
        <time>2019-06-17T08:21:17Z</time>
      </trkpt>
      <trkpt lat="42.817387618124485" lon="13.186343517154455">
        <ele>1591.25</ele>
        <time>2019-06-17T08:21:34Z</time>
      </trkpt>
      <trkpt lat="42.817274043336511" lon="13.186093317344785">
        <ele>1591.6300000000001</ele>
        <time>2019-06-17T08:21:52Z</time>
      </trkpt>
      <trkpt lat="42.817153092473745" lon="13.185856696218252">
        <ele>1592.71</ele>
        <time>2019-06-17T08:22:10Z</time>
      </trkpt>
      <trkpt lat="42.817051587626338" lon="13.185695093125105">
        <ele>1593.4400000000001</ele>
        <time>2019-06-17T08:22:26Z</time>
      </trkpt>
      <trkpt lat="42.816937929019332" lon="13.18554388359189">
        <ele>1594.1900000000001</ele>
        <time>2019-06-17T08:22:41Z</time>
      </trkpt>
      <trkpt lat="42.816803567111492" lon="13.185395607724786">
        <ele>1594.5</ele>
        <time>2019-06-17T08:22:57Z</time>
      </trkpt>
      <trkpt lat="42.816683370620012" lon="13.185266777873039">
        <ele>1595.23</ele>
        <time>2019-06-17T08:23:11Z</time>
      </trkpt>
      <trkpt lat="42.816517073661089" lon="13.185145324096084">
        <ele>1595.72</ele>
        <time>2019-06-17T08:23:28Z</time>
      </trkpt>
      <trkpt lat="42.816339042037725" lon="13.185101738199592">
        <ele>1596.24</ele>
        <time>2019-06-17T08:23:45Z</time>
      </trkpt>
      <trkpt lat="42.816171823069453" lon="13.185055973008275">
        <ele>1597.21</ele>
        <time>2019-06-17T08:24:01Z</time>
      </trkpt>
      <trkpt lat="42.816021954640746" lon="13.184992354363203">
        <ele>1598.25</ele>
        <time>2019-06-17T08:24:16Z</time>
      </trkpt>
      <trkpt lat="42.81585406512022" lon="13.184889005497098">
        <ele>1599.1300000000001</ele>
        <time>2019-06-17T08:24:33Z</time>
      </trkpt>
      <trkpt lat="42.815702352672815" lon="13.184767132624984">
        <ele>1600.24</ele>
        <time>2019-06-17T08:24:49Z</time>
      </trkpt>
      <trkpt lat="42.815567152574658" lon="13.184611648321152">
        <ele>1600.9300000000001</ele>
        <time>2019-06-17T08:25:04Z</time>
      </trkpt>
      <trkpt lat="42.815409321337938" lon="13.18441023118794">
        <ele>1601.55</ele>
        <time>2019-06-17T08:25:22Z</time>
      </trkpt>
      <trkpt lat="42.815284766256809" lon="13.184235552325845">
        <ele>1601.6700000000001</ele>
        <time>2019-06-17T08:25:37Z</time>
      </trkpt>
      <trkpt lat="42.815271774306893" lon="13.184209484606981">
        <ele>1601.6099999999999</ele>
        <time>2019-06-17T08:25:39Z</time>
      </trkpt>
      <trkpt lat="42.815233133733273" lon="13.184151733294129">
        <ele>1601.55</ele>
        <time>2019-06-17T08:25:44Z</time>
      </trkpt>
      <trkpt lat="42.815106734633446" lon="13.183907903730869">
        <ele>1601.48</ele>
        <time>2019-06-17T08:26:02Z</time>
      </trkpt>
      <trkpt lat="42.814969690516591" lon="13.183659296482801">
        <ele>1601.3800000000001</ele>
        <time>2019-06-17T08:26:20Z</time>
      </trkpt>
      <trkpt lat="42.814831389114261" lon="13.18345251493156">
        <ele>1601.0699999999999</ele>
        <time>2019-06-17T08:26:36Z</time>
      </trkpt>
      <trkpt lat="42.814659476280212" lon="13.183270459994674">
        <ele>1601.8699999999999</ele>
        <time>2019-06-17T08:26:54Z</time>
      </trkpt>
      <trkpt lat="42.814526287838817" lon="13.183111790567636">
        <ele>1603.0699999999999</ele>
        <time>2019-06-17T08:27:10Z</time>
      </trkpt>
      <trkpt lat="42.814385890960693" lon="13.182984134182334">
        <ele>1604.1700000000001</ele>
        <time>2019-06-17T08:27:24Z</time>
      </trkpt>
      <trkpt lat="42.814168212935328" lon="13.182987989857793">
        <ele>1605.2</ele>
        <time>2019-06-17T08:27:42Z</time>
      </trkpt>
      <trkpt lat="42.813979117199779" lon="13.18320432677865">
        <ele>1606.0899999999999</ele>
        <time>2019-06-17T08:28:02Z</time>
      </trkpt>
      <trkpt lat="42.813827488571405" lon="13.18336995318532">
        <ele>1607.6700000000001</ele>
        <time>2019-06-17T08:28:19Z</time>
      </trkpt>
      <trkpt lat="42.813649456948042" lon="13.183412617072463">
        <ele>1609.3099999999999</ele>
        <time>2019-06-17T08:28:35Z</time>
      </trkpt>
      <trkpt lat="42.813460780307651" lon="13.183359643444419">
        <ele>1611.51</ele>
        <time>2019-06-17T08:28:52Z</time>
      </trkpt>
      <trkpt lat="42.813308397307992" lon="13.18330935202539">
        <ele>1612.22</ele>
        <time>2019-06-17T08:29:06Z</time>
      </trkpt>
      <trkpt lat="42.813165988773108" lon="13.18326098844409">
        <ele>1613.5899999999999</ele>
        <time>2019-06-17T08:29:20Z</time>
      </trkpt>
      <trkpt lat="42.813002457842231" lon="13.183216731995344">
        <ele>1614.79</ele>
        <time>2019-06-17T08:29:35Z</time>
      </trkpt>
      <trkpt lat="42.812834987416863" lon="13.183172978460789">
        <ele>1616.6500000000001</ele>
        <time>2019-06-17T08:29:51Z</time>
      </trkpt>
      <trkpt lat="42.812675228342414" lon="13.183141713961959">
        <ele>1617.79</ele>
        <time>2019-06-17T08:30:06Z</time>
      </trkpt>
      <trkpt lat="42.812461908906698" lon="13.183111120015383">
        <ele>1619.2</ele>
        <time>2019-06-17T08:30:25Z</time>
      </trkpt>
      <trkpt lat="42.812283374369144" lon="13.183080945163965">
        <ele>1621.01</ele>
        <time>2019-06-17T08:30:41Z</time>
      </trkpt>
      <trkpt lat="42.812127219513059" lon="13.183081615716219">
        <ele>1622.0999999999999</ele>
        <time>2019-06-17T08:30:55Z</time>
      </trkpt>
      <trkpt lat="42.811939213424921" lon="13.183116065338254">
        <ele>1623.45</ele>
        <time>2019-06-17T08:31:13Z</time>
      </trkpt>
      <trkpt lat="42.811789931729436" lon="13.183149425312877">
        <ele>1625.3199999999999</ele>
        <time>2019-06-17T08:31:28Z</time>
      </trkpt>
      <trkpt lat="42.811675602570176" lon="13.183161914348602">
        <ele>1626.9400000000001</ele>
        <time>2019-06-17T08:31:39Z</time>
      </trkpt>
      <trkpt lat="42.811531769111753" lon="13.183151185512543">
        <ele>1629.4100000000001</ele>
        <time>2019-06-17T08:31:53Z</time>
      </trkpt>
      <trkpt lat="42.811388522386551" lon="13.1830826215446">
        <ele>1631.1800000000001</ele>
        <time>2019-06-17T08:32:08Z</time>
      </trkpt>
      <trkpt lat="42.811272265389562" lon="13.182991007342935">
        <ele>1633.1500000000001</ele>
        <time>2019-06-17T08:32:24Z</time>
      </trkpt>
      <trkpt lat="42.811213843524456" lon="13.182915905490518">
        <ele>1634.3</ele>
        <time>2019-06-17T08:32:37Z</time>
      </trkpt>
      <trkpt lat="42.81115491874516" lon="13.182827895507216">
        <ele>1635.72</ele>
        <time>2019-06-17T08:32:47Z</time>
      </trkpt>
      <trkpt lat="42.811066322028637" lon="13.182684984058142">
        <ele>1637.73</ele>
        <time>2019-06-17T08:33:02Z</time>
      </trkpt>
      <trkpt lat="42.810987951233983" lon="13.182532601058483">
        <ele>1639.8900000000001</ele>
        <time>2019-06-17T08:33:17Z</time>
      </trkpt>
      <trkpt lat="42.810917710885406" lon="13.182384157553315">
        <ele>1641.75</ele>
        <time>2019-06-17T08:33:31Z</time>
      </trkpt>
      <trkpt lat="42.81086809001863" lon="13.182258261367679">
        <ele>1643.46</ele>
        <time>2019-06-17T08:33:44Z</time>
      </trkpt>
      <trkpt lat="42.810846297070384" lon="13.182315425947309">
        <ele>1643.8699999999999</ele>
        <time>2019-06-17T08:33:53Z</time>
      </trkpt>
      <trkpt lat="42.810835400596261" lon="13.182358089834452">
        <ele>1642.95</ele>
        <time>2019-06-17T08:34:06Z</time>
      </trkpt>
      <trkpt lat="42.810860211029649" lon="13.182272678241134">
        <ele>1643.1400000000001</ele>
        <time>2019-06-17T08:34:17Z</time>
      </trkpt>
      <trkpt lat="42.810812350362539" lon="13.182096071541309">
        <ele>1643.6400000000001</ele>
        <time>2019-06-17T08:34:35Z</time>
      </trkpt>
      <trkpt lat="42.810803968459368" lon="13.182072686031461">
        <ele>1645.4400000000001</ele>
        <time>2019-06-17T08:34:37Z</time>
      </trkpt>
      <trkpt lat="42.810727274045348" lon="13.181928349658847">
        <ele>1647.4300000000001</ele>
        <time>2019-06-17T08:34:51Z</time>
      </trkpt>
      <trkpt lat="42.810637587681413" lon="13.181747384369373">
        <ele>1650.0999999999999</ele>
        <time>2019-06-17T08:35:09Z</time>
      </trkpt>
      <trkpt lat="42.810598108917475" lon="13.181670187041163">
        <ele>1651.1500000000001</ele>
        <time>2019-06-17T08:35:22Z</time>
      </trkpt>
      <trkpt lat="42.810537340119481" lon="13.181555438786745">
        <ele>1652.51</ele>
        <time>2019-06-17T08:35:36Z</time>
      </trkpt>
      <trkpt lat="42.810536669567227" lon="13.181532891467214">
        <ele>1653.1099999999999</ele>
        <time>2019-06-17T08:35:47Z</time>
      </trkpt>
      <trkpt lat="42.810537675395608" lon="13.181535070762038">
        <ele>1653.3199999999999</ele>
        <time>2019-06-17T08:36:02Z</time>
      </trkpt>
      <trkpt lat="42.810542117804289" lon="13.181530712172389">
        <ele>1653.5</ele>
        <time>2019-06-17T08:36:39Z</time>
      </trkpt>
      <trkpt lat="42.810519989579916" lon="13.181506237015128">
        <ele>1653.5899999999999</ele>
        <time>2019-06-17T08:36:45Z</time>
      </trkpt>
      <trkpt lat="42.810486294329166" lon="13.181442199274898">
        <ele>1654.6099999999999</ele>
        <time>2019-06-17T08:36:51Z</time>
      </trkpt>
      <trkpt lat="42.810377245768905" lon="13.181224102154374">
        <ele>1656.8399999999999</ele>
        <time>2019-06-17T08:37:10Z</time>
      </trkpt>
      <trkpt lat="42.810295606032014" lon="13.181169116869569">
        <ele>1657.02</ele>
        <time>2019-06-17T08:37:23Z</time>
      </trkpt>
      <trkpt lat="42.810303652659059" lon="13.181155789643526">
        <ele>1657.0999999999999</ele>
        <time>2019-06-17T08:37:41Z</time>
      </trkpt>
      <trkpt lat="42.810305077582598" lon="13.181128967553377">
        <ele>1658.6600000000001</ele>
        <time>2019-06-17T08:37:48Z</time>
      </trkpt>
      <trkpt lat="42.810293007642031" lon="13.181040706112981">
        <ele>1658.9200000000001</ele>
        <time>2019-06-17T08:37:57Z</time>
      </trkpt>
      <trkpt lat="42.810222683474422" lon="13.18094490095973">
        <ele>1660.1199999999999</ele>
        <time>2019-06-17T08:38:07Z</time>
      </trkpt>
      <trkpt lat="42.810129141435027" lon="13.180741472169757">
        <ele>1662.5</ele>
        <time>2019-06-17T08:38:25Z</time>
      </trkpt>
      <trkpt lat="42.810069294646382" lon="13.180545754730701">
        <ele>1664.3099999999999</ele>
        <time>2019-06-17T08:38:41Z</time>
      </trkpt>
      <trkpt lat="42.810038030147552" lon="13.180383564904332">
        <ele>1666.0999999999999</ele>
        <time>2019-06-17T08:38:55Z</time>
      </trkpt>
      <trkpt lat="42.809992348775268" lon="13.180223135277629">
        <ele>1668.1400000000001</ele>
        <time>2019-06-17T08:39:09Z</time>
      </trkpt>
      <trkpt lat="42.809953037649393" lon="13.17999648861587">
        <ele>1670.1700000000001</ele>
        <time>2019-06-17T08:39:27Z</time>
      </trkpt>
      <trkpt lat="42.809928730130196" lon="13.179797502234578">
        <ele>1671.8599999999999</ele>
        <time>2019-06-17T08:39:42Z</time>
      </trkpt>
      <trkpt lat="42.809916576370597" lon="13.179584350436926">
        <ele>1673.98</ele>
        <time>2019-06-17T08:39:58Z</time>
      </trkpt>
      <trkpt lat="42.809918252751231" lon="13.179372791200876">
        <ele>1675.6600000000001</ele>
        <time>2019-06-17T08:40:14Z</time>
      </trkpt>
      <trkpt lat="42.809908781200647" lon="13.179151508957148">
        <ele>1677.9100000000001</ele>
        <time>2019-06-17T08:40:31Z</time>
      </trkpt>
      <trkpt lat="42.809886988252401" lon="13.178932154551148">
        <ele>1679.8199999999999</ele>
        <time>2019-06-17T08:40:48Z</time>
      </trkpt>
      <trkpt lat="42.809853125363588" lon="13.17874607630074">
        <ele>1681.75</ele>
        <time>2019-06-17T08:41:04Z</time>
      </trkpt>
      <trkpt lat="42.809789841994643" lon="13.178562177345157">
        <ele>1683.6700000000001</ele>
        <time>2019-06-17T08:41:19Z</time>
      </trkpt>
      <trkpt lat="42.809746088460088" lon="13.178347768262029">
        <ele>1685.3299999999999</ele>
        <time>2019-06-17T08:41:35Z</time>
      </trkpt>
      <trkpt lat="42.809728905558586" lon="13.178121624514461">
        <ele>1687.29</ele>
        <time>2019-06-17T08:41:52Z</time>
      </trkpt>
      <trkpt lat="42.809718176722527" lon="13.177894726395607">
        <ele>1689.1900000000001</ele>
        <time>2019-06-17T08:42:09Z</time>
      </trkpt>
      <trkpt lat="42.809715326875448" lon="13.177653662860394">
        <ele>1691.3299999999999</ele>
        <time>2019-06-17T08:42:27Z</time>
      </trkpt>
      <trkpt lat="42.809715662151575" lon="13.177416455000639">
        <ele>1693.1900000000001</ele>
        <time>2019-06-17T08:42:45Z</time>
      </trkpt>
      <trkpt lat="42.809714153409004" lon="13.177192490547895">
        <ele>1694.47</ele>
        <time>2019-06-17T08:43:02Z</time>
      </trkpt>
      <trkpt lat="42.809717170894146" lon="13.176957713440061">
        <ele>1696.4300000000001</ele>
        <time>2019-06-17T08:43:19Z</time>
      </trkpt>
      <trkpt lat="42.80972613953054" lon="13.176750261336565">
        <ele>1698.0699999999999</ele>
        <time>2019-06-17T08:43:34Z</time>
      </trkpt>
      <trkpt lat="42.80975254252553" lon="13.176509030163288">
        <ele>1699.22</ele>
        <time>2019-06-17T08:43:51Z</time>
      </trkpt>
      <trkpt lat="42.809797050431371" lon="13.176289759576321">
        <ele>1701.1400000000001</ele>
        <time>2019-06-17T08:44:07Z</time>
      </trkpt>
      <trkpt lat="42.809876846149564" lon="13.17609135992825">
        <ele>1702.3199999999999</ele>
        <time>2019-06-17T08:44:23Z</time>
      </trkpt>
      <trkpt lat="42.809982122853398" lon="13.175914920866489">
        <ele>1703.1600000000001</ele>
        <time>2019-06-17T08:44:39Z</time>
      </trkpt>
      <trkpt lat="42.810083962976933" lon="13.17575566470623">
        <ele>1704.0699999999999</ele>
        <time>2019-06-17T08:44:54Z</time>
      </trkpt>
      <trkpt lat="42.810197370126843" lon="13.175576208159328">
        <ele>1705.1700000000001</ele>
        <time>2019-06-17T08:45:09Z</time>
      </trkpt>
      <trkpt lat="42.810306502506137" lon="13.175381412729621">
        <ele>1706.2</ele>
        <time>2019-06-17T08:45:25Z</time>
      </trkpt>
      <trkpt lat="42.810434158891439" lon="13.175151329487562">
        <ele>1706.8499999999999</ele>
        <time>2019-06-17T08:45:43Z</time>
      </trkpt>
      <trkpt lat="42.810546141117811" lon="13.174937423318624">
        <ele>1708.6900000000001</ele>
        <time>2019-06-17T08:46:00Z</time>
      </trkpt>
      <trkpt lat="42.810656866058707" lon="13.174751596525311">
        <ele>1709.51</ele>
        <time>2019-06-17T08:46:16Z</time>
      </trkpt>
      <trkpt lat="42.810764154419303" lon="13.174614384770393">
        <ele>1710.4100000000001</ele>
        <time>2019-06-17T08:46:30Z</time>
      </trkpt>
      <trkpt lat="42.810907233506441" lon="13.174476502463222">
        <ele>1711.5799999999999</ele>
        <time>2019-06-17T08:46:46Z</time>
      </trkpt>
      <trkpt lat="42.811058694496751" lon="13.174334093928337">
        <ele>1713.05</ele>
        <time>2019-06-17T08:47:03Z</time>
      </trkpt>
      <trkpt lat="42.811188697814941" lon="13.174216914921999">
        <ele>1714.3499999999999</ele>
        <time>2019-06-17T08:47:17Z</time>
      </trkpt>
      <trkpt lat="42.811360778287053" lon="13.174048606306314">
        <ele>1716.26</ele>
        <time>2019-06-17T08:47:37Z</time>
      </trkpt>
      <trkpt lat="42.811499079689384" lon="13.173919524997473">
        <ele>1717.76</ele>
        <time>2019-06-17T08:47:52Z</time>
      </trkpt>
      <trkpt lat="42.811637884005904" lon="13.173807375133038">
        <ele>1718.99</ele>
        <time>2019-06-17T08:48:07Z</time>
      </trkpt>
      <trkpt lat="42.811809461563826" lon="13.173689609393477">
        <ele>1720.0899999999999</ele>
        <time>2019-06-17T08:48:24Z</time>
      </trkpt>
      <trkpt lat="42.811945667490363" lon="13.173571173101664">
        <ele>1720.9400000000001</ele>
        <time>2019-06-17T08:48:39Z</time>
      </trkpt>
      <trkpt lat="42.812088076025248" lon="13.173426585271955">
        <ele>1722.4000000000001</ele>
        <time>2019-06-17T08:48:55Z</time>
      </trkpt>
      <trkpt lat="42.812199052423239" lon="13.173220558091998">
        <ele>1723.55</ele>
        <time>2019-06-17T08:49:11Z</time>
      </trkpt>
      <trkpt lat="42.812286475673318" lon="13.172975219786167">
        <ele>1724.98</ele>
        <time>2019-06-17T08:49:29Z</time>
      </trkpt>
      <trkpt lat="42.812372390180826" lon="13.17277455702424">
        <ele>1726.24</ele>
        <time>2019-06-17T08:49:45Z</time>
      </trkpt>
      <trkpt lat="42.812467021867633" lon="13.172559728845954">
        <ele>1727.53</ele>
        <time>2019-06-17T08:50:03Z</time>
      </trkpt>
      <trkpt lat="42.812589230015874" lon="13.172378344461322">
        <ele>1728.76</ele>
        <time>2019-06-17T08:50:20Z</time>
      </trkpt>
      <trkpt lat="42.812724933028221" lon="13.172217579558492">
        <ele>1729.8</ele>
        <time>2019-06-17T08:50:37Z</time>
      </trkpt>
      <trkpt lat="42.812790982425213" lon="13.172137197107077">
        <ele>1730.79</ele>
        <time>2019-06-17T08:50:47Z</time>
      </trkpt>
      <trkpt lat="42.812818391248584" lon="13.172027645632625">
        <ele>1732.4100000000001</ele>
        <time>2019-06-17T08:50:55Z</time>
      </trkpt>
      <trkpt lat="42.812881087884307" lon="13.171794712543488">
        <ele>1734.5699999999999</ele>
        <time>2019-06-17T08:51:12Z</time>
      </trkpt>
      <trkpt lat="42.812930457293987" lon="13.171556415036321">
        <ele>1736.24</ele>
        <time>2019-06-17T08:51:29Z</time>
      </trkpt>
      <trkpt lat="42.81298385001719" lon="13.171337395906448">
        <ele>1737.52</ele>
        <time>2019-06-17T08:51:45Z</time>
      </trkpt>
      <trkpt lat="42.81304931268096" lon="13.171146456152201">
        <ele>1738.78</ele>
        <time>2019-06-17T08:52:00Z</time>
      </trkpt>
      <trkpt lat="42.813155679032207" lon="13.170921485871077">
        <ele>1740.75</ele>
        <time>2019-06-17T08:52:19Z</time>
      </trkpt>
      <trkpt lat="42.813288364559412" lon="13.170738676562905">
        <ele>1742.1900000000001</ele>
        <time>2019-06-17T08:52:38Z</time>
      </trkpt>
      <trkpt lat="42.813391126692295" lon="13.170635076239705">
        <ele>1742.76</ele>
        <time>2019-06-17T08:52:53Z</time>
      </trkpt>
      <trkpt lat="42.813404286280274" lon="13.170624347403646">
        <ele>1742.4100000000001</ele>
        <time>2019-06-17T08:53:07Z</time>
      </trkpt>
      <trkpt lat="42.813436388969421" lon="13.17058252170682">
        <ele>1743.1099999999999</ele>
        <time>2019-06-17T08:53:12Z</time>
      </trkpt>
      <trkpt lat="42.813528422266245" lon="13.170463163405657">
        <ele>1743.5999999999999</ele>
        <time>2019-06-17T08:53:25Z</time>
      </trkpt>
      <trkpt lat="42.813601093366742" lon="13.170377751812339">
        <ele>1745.0599999999999</ele>
        <time>2019-06-17T08:53:38Z</time>
      </trkpt>
      <trkpt lat="42.813608637079597" lon="13.170370124280453">
        <ele>1745.29</ele>
        <time>2019-06-17T08:53:41Z</time>
      </trkpt>
      <trkpt lat="42.813623221591115" lon="13.17035143263638">
        <ele>1745.46</ele>
        <time>2019-06-17T08:53:43Z</time>
      </trkpt>
      <trkpt lat="42.813784824684262" lon="13.170180022716522">
        <ele>1746.6400000000001</ele>
        <time>2019-06-17T08:54:03Z</time>
      </trkpt>
      <trkpt lat="42.81390493735671" lon="13.170146746560931">
        <ele>1747.8800000000001</ele>
        <time>2019-06-17T08:54:17Z</time>
      </trkpt>
      <trkpt lat="42.813939722254872" lon="13.170156050473452">
        <ele>1748.6099999999999</ele>
        <time>2019-06-17T08:54:30Z</time>
      </trkpt>
      <trkpt lat="42.813955144956708" lon="13.17015890032053">
        <ele>1748.76</ele>
        <time>2019-06-17T08:54:32Z</time>
      </trkpt>
      <trkpt lat="42.813994372263551" lon="13.170161498710513">
        <ele>1748.8699999999999</ele>
        <time>2019-06-17T08:54:36Z</time>
      </trkpt>
      <trkpt lat="42.814112892374396" lon="13.170183962211013">
        <ele>1749.1500000000001</ele>
        <time>2019-06-17T08:54:51Z</time>
      </trkpt>
      <trkpt lat="42.814087243750691" lon="13.170192847028375">
        <ele>1747.8099999999999</ele>
        <time>2019-06-17T08:55:02Z</time>
      </trkpt>
      <trkpt lat="42.81392983160913" lon="13.17011053673923">
        <ele>1747.9400000000001</ele>
        <time>2019-06-17T08:55:18Z</time>
      </trkpt>
      <trkpt lat="42.813858166337013" lon="13.170043900609016">
        <ele>1745.9200000000001</ele>
        <time>2019-06-17T08:55:29Z</time>
      </trkpt>
      <trkpt lat="42.813849365338683" lon="13.170040966942906">
        <ele>1745.9200000000001</ele>
        <time>2019-06-17T08:56:24Z</time>
      </trkpt>
      <trkpt lat="42.813843917101622" lon="13.170047337189317">
        <ele>1746.52</ele>
        <time>2019-06-17T08:57:09Z</time>
      </trkpt>
      <trkpt lat="42.813840229064226" lon="13.170059658586979">
        <ele>1747.4000000000001</ele>
        <time>2019-06-17T08:57:53Z</time>
      </trkpt>
      <trkpt lat="42.813839139416814" lon="13.170053036883473">
        <ele>1748.3499999999999</ele>
        <time>2019-06-17T08:57:57Z</time>
      </trkpt>
      <trkpt lat="42.813837882131338" lon="13.17004356533289">
        <ele>1748.24</ele>
        <time>2019-06-17T08:58:15Z</time>
      </trkpt>
      <trkpt lat="42.813834948465228" lon="13.170043900609016">
        <ele>1748.47</ele>
        <time>2019-06-17T08:58:30Z</time>
      </trkpt>
      <trkpt lat="42.813842240720987" lon="13.170045660808682">
        <ele>1748.3099999999999</ele>
        <time>2019-06-17T08:58:49Z</time>
      </trkpt>
      <trkpt lat="42.813785746693611" lon="13.170037111267447">
        <ele>1748.3299999999999</ele>
        <time>2019-06-17T08:59:00Z</time>
      </trkpt>
      <trkpt lat="42.813763367012143" lon="13.170024370774627">
        <ele>1747.79</ele>
        <time>2019-06-17T08:59:12Z</time>
      </trkpt>
      <trkpt lat="42.813753057271242" lon="13.170073907822371">
        <ele>1746.95</ele>
        <time>2019-06-17T08:59:26Z</time>
      </trkpt>
      <trkpt lat="42.813757164403796" lon="13.170069633051753">
        <ele>1746.71</ele>
        <time>2019-06-17T08:59:43Z</time>
      </trkpt>
      <trkpt lat="42.813755068928003" lon="13.170073907822371">
        <ele>1746.5799999999999</ele>
        <time>2019-06-17T09:00:14Z</time>
      </trkpt>
      <trkpt lat="42.813751213252544" lon="13.170088324695826">
        <ele>1747.03</ele>
        <time>2019-06-17T09:00:39Z</time>
      </trkpt>
      <trkpt lat="42.81375196762383" lon="13.170079188421369">
        <ele>1747.6400000000001</ele>
        <time>2019-06-17T09:01:14Z</time>
      </trkpt>
      <trkpt lat="42.813753141090274" lon="13.170077595859766">
        <ele>1747.5899999999999</ele>
        <time>2019-06-17T09:01:32Z</time>
      </trkpt>
      <trkpt lat="42.813750291243196" lon="13.170083379372954">
        <ele>1747.5899999999999</ele>
        <time>2019-06-17T09:01:53Z</time>
      </trkpt>
      <trkpt lat="42.813754314556718" lon="13.170084720477462">
        <ele>1746.8499999999999</ele>
        <time>2019-06-17T09:02:13Z</time>
      </trkpt>
      <trkpt lat="42.813765211030841" lon="13.170065358281136">
        <ele>1747.74</ele>
        <time>2019-06-17T09:02:35Z</time>
      </trkpt>
      <trkpt lat="42.813763450831175" lon="13.170069046318531">
        <ele>1747.75</ele>
        <time>2019-06-17T09:02:57Z</time>
      </trkpt>
      <trkpt lat="42.813762864097953" lon="13.170069800689816">
        <ele>1748.1099999999999</ele>
        <time>2019-06-17T09:03:24Z</time>
      </trkpt>
      <trkpt lat="42.813761187717319" lon="13.170079188421369">
        <ele>1748.2</ele>
        <time>2019-06-17T09:03:43Z</time>
      </trkpt>
      <trkpt lat="42.813756661489606" lon="13.170080026611686">
        <ele>1748.6300000000001</ele>
        <time>2019-06-17T09:04:06Z</time>
      </trkpt>
      <trkpt lat="42.813760684803128" lon="13.170093940570951">
        <ele>1748.6800000000001</ele>
        <time>2019-06-17T09:04:55Z</time>
      </trkpt>
      <trkpt lat="42.813763283193111" lon="13.170092850923538">
        <ele>1748.3299999999999</ele>
        <time>2019-06-17T09:05:44Z</time>
      </trkpt>
      <trkpt lat="42.813761522993445" lon="13.170088324695826">
        <ele>1748.47</ele>
        <time>2019-06-17T09:06:33Z</time>
      </trkpt>
      <trkpt lat="42.813756661489606" lon="13.170086732134223">
        <ele>1748.27</ele>
        <time>2019-06-17T09:07:19Z</time>
      </trkpt>
      <trkpt lat="42.813744759187102" lon="13.170082289725542">
        <ele>1749.8399999999999</ele>
        <time>2019-06-17T09:07:33Z</time>
      </trkpt>
      <trkpt lat="42.813739143311977" lon="13.170077344402671">
        <ele>1750.3499999999999</ele>
        <time>2019-06-17T09:07:54Z</time>
      </trkpt>
      <trkpt lat="42.813737550750375" lon="13.170078182592988">
        <ele>1750.7</ele>
        <time>2019-06-17T09:08:10Z</time>
      </trkpt>
      <trkpt lat="42.813736377283931" lon="13.170077428221703">
        <ele>1750.74</ele>
        <time>2019-06-17T09:08:29Z</time>
      </trkpt>
      <trkpt lat="42.813738472759724" lon="13.170079607516527">
        <ele>1750.0899999999999</ele>
        <time>2019-06-17T09:08:49Z</time>
      </trkpt>
      <trkpt lat="42.813745932653546" lon="13.170088659971952">
        <ele>1748.4300000000001</ele>
        <time>2019-06-17T09:09:06Z</time>
      </trkpt>
      <trkpt lat="42.813748363405466" lon="13.170095197856426">
        <ele>1749.6500000000001</ele>
        <time>2019-06-17T09:09:27Z</time>
      </trkpt>
      <trkpt lat="42.813739143311977" lon="13.17009000107646">
        <ele>1750.29</ele>
        <time>2019-06-17T09:09:40Z</time>
      </trkpt>
      <trkpt lat="42.813690444454551" lon="13.170046666637063">
        <ele>1748.03</ele>
        <time>2019-06-17T09:09:50Z</time>
      </trkpt>
      <trkpt lat="42.813587766140699" lon="13.169928146526217">
        <ele>1745</ele>
        <time>2019-06-17T09:10:05Z</time>
      </trkpt>
      <trkpt lat="42.813487518578768" lon="13.169819265604019">
        <ele>1741.9200000000001</ele>
        <time>2019-06-17T09:10:19Z</time>
      </trkpt>
      <trkpt lat="42.813465893268585" lon="13.169639054685831">
        <ele>1741.45</ele>
        <time>2019-06-17T09:10:32Z</time>
      </trkpt>
      <trkpt lat="42.813474191352725" lon="13.16957208327949">
        <ele>1741.6099999999999</ele>
        <time>2019-06-17T09:10:37Z</time>
      </trkpt>
      <trkpt lat="42.81345633789897" lon="13.169359769672155">
        <ele>1740.26</ele>
        <time>2019-06-17T09:10:51Z</time>
      </trkpt>
      <trkpt lat="42.813459690660238" lon="13.169218534603715">
        <ele>1739.1500000000001</ele>
        <time>2019-06-17T09:11:01Z</time>
      </trkpt>
      <trkpt lat="42.813461953774095" lon="13.16899741999805">
        <ele>1741.7</ele>
        <time>2019-06-17T09:11:17Z</time>
      </trkpt>
      <trkpt lat="42.813432281836867" lon="13.168783932924271">
        <ele>1739.8900000000001</ele>
        <time>2019-06-17T09:11:32Z</time>
      </trkpt>
      <trkpt lat="42.813373608514667" lon="13.168523171916604">
        <ele>1739.6500000000001</ele>
        <time>2019-06-17T09:11:50Z</time>
      </trkpt>
      <trkpt lat="42.813333040103316" lon="13.168310355395079">
        <ele>1739.95</ele>
        <time>2019-06-17T09:12:06Z</time>
      </trkpt>
      <trkpt lat="42.813329603523016" lon="13.168287724256516">
        <ele>1740.03</ele>
        <time>2019-06-17T09:12:21Z</time>
      </trkpt>
      <trkpt lat="42.813328765332699" lon="13.168275151401758">
        <ele>1739.8699999999999</ele>
        <time>2019-06-17T09:12:22Z</time>
      </trkpt>
      <trkpt lat="42.813290292397141" lon="13.168004918843508">
        <ele>1740.03</ele>
        <time>2019-06-17T09:12:41Z</time>
      </trkpt>
      <trkpt lat="42.813276294618845" lon="13.167723454535007">
        <ele>1740.74</ele>
        <time>2019-06-17T09:12:59Z</time>
      </trkpt>
      <trkpt lat="42.813244359567761" lon="13.167427154257894">
        <ele>1740.8699999999999</ele>
        <time>2019-06-17T09:13:18Z</time>
      </trkpt>
      <trkpt lat="42.813178896903992" lon="13.167175697162747">
        <ele>1739.9000000000001</ele>
        <time>2019-06-17T09:13:35Z</time>
      </trkpt>
      <trkpt lat="42.813087031245232" lon="13.166917534545064">
        <ele>1739.5599999999999</ele>
        <time>2019-06-17T09:13:53Z</time>
      </trkpt>
      <trkpt lat="42.812993405386806" lon="13.166682841256261">
        <ele>1740.0799999999999</ele>
        <time>2019-06-17T09:14:10Z</time>
      </trkpt>
      <trkpt lat="42.812905311584473" lon="13.166456948965788">
        <ele>1741.6099999999999</ele>
        <time>2019-06-17T09:14:27Z</time>
      </trkpt>
      <trkpt lat="42.812832053750753" lon="13.166307834908366">
        <ele>1742.9000000000001</ele>
        <time>2019-06-17T09:14:40Z</time>
      </trkpt>
      <trkpt lat="42.812770279124379" lon="13.166182693094015">
        <ele>1744.3</ele>
        <time>2019-06-17T09:14:52Z</time>
      </trkpt>
      <trkpt lat="42.812752174213529" lon="13.166117398068309">
        <ele>1746.1099999999999</ele>
        <time>2019-06-17T09:14:59Z</time>
      </trkpt>
      <trkpt lat="42.81279232352972" lon="13.166085463017225">
        <ele>1746</ele>
        <time>2019-06-17T09:15:09Z</time>
      </trkpt>
      <trkpt lat="42.812809003517032" lon="13.166084792464972">
        <ele>1742.97</ele>
        <time>2019-06-17T09:15:19Z</time>
      </trkpt>
      <trkpt lat="42.812808165326715" lon="13.166084457188845">
        <ele>1742.8900000000001</ele>
        <time>2019-06-17T09:15:20Z</time>
      </trkpt>
      <trkpt lat="42.812807997688651" lon="13.166086049750447">
        <ele>1744.27</ele>
        <time>2019-06-17T09:15:22Z</time>
      </trkpt>
      <trkpt lat="42.81280942261219" lon="13.166084541007876">
        <ele>1743.3599999999999</ele>
        <time>2019-06-17T09:15:27Z</time>
      </trkpt>
      <trkpt lat="42.812768267467618" lon="13.165989406406879">
        <ele>1742.46</ele>
        <time>2019-06-17T09:15:39Z</time>
      </trkpt>
      <trkpt lat="42.812777403742075" lon="13.165970044210553">
        <ele>1740.74</ele>
        <time>2019-06-17T09:15:53Z</time>
      </trkpt>
      <trkpt lat="42.812773967161775" lon="13.165955040603876">
        <ele>1740.1900000000001</ele>
        <time>2019-06-17T09:16:13Z</time>
      </trkpt>
      <trkpt lat="42.812754521146417" lon="13.165958058089018">
        <ele>1739.72</ele>
        <time>2019-06-17T09:16:27Z</time>
      </trkpt>
      <trkpt lat="42.812752174213529" lon="13.1659537833184">
        <ele>1740.0699999999999</ele>
        <time>2019-06-17T09:16:45Z</time>
      </trkpt>
      <trkpt lat="42.812760723754764" lon="13.165954286232591">
        <ele>1741.0799999999999</ele>
        <time>2019-06-17T09:16:51Z</time>
      </trkpt>
      <trkpt lat="42.81276592053473" lon="13.165956800803542">
        <ele>1740.0899999999999</ele>
        <time>2019-06-17T09:17:06Z</time>
      </trkpt>
      <trkpt lat="42.812762567773461" lon="13.16595965065062">
        <ele>1740.73</ele>
        <time>2019-06-17T09:17:19Z</time>
      </trkpt>
      <trkpt lat="42.81274588778615" lon="13.165959315374494">
        <ele>1741.04</ele>
        <time>2019-06-17T09:17:31Z</time>
      </trkpt>
      <trkpt lat="42.812754856422544" lon="13.165956381708384">
        <ele>1741.23</ele>
        <time>2019-06-17T09:17:48Z</time>
      </trkpt>
      <trkpt lat="42.812758544459939" lon="13.165946658700705">
        <ele>1740.78</ele>
        <time>2019-06-17T09:18:27Z</time>
      </trkpt>
      <trkpt lat="42.812756365165114" lon="13.165944730862975">
        <ele>1740.05</ele>
        <time>2019-06-17T09:18:45Z</time>
      </trkpt>
      <trkpt lat="42.812756532803178" lon="13.165950598195195">
        <ele>1741.3299999999999</ele>
        <time>2019-06-17T09:18:55Z</time>
      </trkpt>
      <trkpt lat="42.81274102628231" lon="13.165899552404881">
        <ele>1741.1700000000001</ele>
        <time>2019-06-17T09:19:12Z</time>
      </trkpt>
      <trkpt lat="42.812714371830225" lon="13.165795700624585">
        <ele>1741.46</ele>
        <time>2019-06-17T09:19:22Z</time>
      </trkpt>
      <trkpt lat="42.812628876417875" lon="13.165617501363158">
        <ele>1741.23</ele>
        <time>2019-06-17T09:19:41Z</time>
      </trkpt>
      <trkpt lat="42.812611693516374" lon="13.165590679273009">
        <ele>1742.4200000000001</ele>
        <time>2019-06-17T09:20:06Z</time>
      </trkpt>
      <trkpt lat="42.812594091519713" lon="13.165544075891376">
        <ele>1741.54</ele>
        <time>2019-06-17T09:20:10Z</time>
      </trkpt>
      <trkpt lat="42.81253919005394" lon="13.165356069803238">
        <ele>1742.47</ele>
        <time>2019-06-17T09:20:27Z</time>
      </trkpt>
      <trkpt lat="42.812534831464291" lon="13.165346933528781">
        <ele>1742.1600000000001</ele>
        <time>2019-06-17T09:20:30Z</time>
      </trkpt>
      <trkpt lat="42.812518989667296" lon="13.165310053154826">
        <ele>1741.6700000000001</ele>
        <time>2019-06-17T09:20:33Z</time>
      </trkpt>
      <trkpt lat="42.81243366189301" lon="13.165068151429296">
        <ele>1741.6199999999999</ele>
        <time>2019-06-17T09:20:52Z</time>
      </trkpt>
      <trkpt lat="42.812363253906369" lon="13.164797248318791">
        <ele>1740.52</ele>
        <time>2019-06-17T09:21:10Z</time>
      </trkpt>
      <trkpt lat="42.812281111255288" lon="13.164576636627316">
        <ele>1740.26</ele>
        <time>2019-06-17T09:21:26Z</time>
      </trkpt>
      <trkpt lat="42.812216989696026" lon="13.164369435980916">
        <ele>1738.51</ele>
        <time>2019-06-17T09:21:40Z</time>
      </trkpt>
      <trkpt lat="42.812213469296694" lon="13.164360132068396">
        <ele>1738.5899999999999</ele>
        <time>2019-06-17T09:21:42Z</time>
      </trkpt>
      <trkpt lat="42.812199555337429" lon="13.164324257522821">
        <ele>1738.3699999999999</ele>
        <time>2019-06-17T09:21:45Z</time>
      </trkpt>
      <trkpt lat="42.812170721590519" lon="13.164240019395947">
        <ele>1738</ele>
        <time>2019-06-17T09:21:51Z</time>
      </trkpt>
      <trkpt lat="42.812075335532427" lon="13.164014797657728">
        <ele>1736.8099999999999</ele>
        <time>2019-06-17T09:22:07Z</time>
      </trkpt>
      <trkpt lat="42.811933513730764" lon="13.163847746327519">
        <ele>1737.45</ele>
        <time>2019-06-17T09:22:23Z</time>
      </trkpt>
      <trkpt lat="42.811777107417583" lon="13.163684299215674">
        <ele>1738.6700000000001</ele>
        <time>2019-06-17T09:22:40Z</time>
      </trkpt>
      <trkpt lat="42.81158734112978" lon="13.163515152409673">
        <ele>1739.02</ele>
        <time>2019-06-17T09:22:58Z</time>
      </trkpt>
      <trkpt lat="42.811386594548821" lon="13.1633669603616">
        <ele>1739.6300000000001</ele>
        <time>2019-06-17T09:23:16Z</time>
      </trkpt>
      <trkpt lat="42.811182579025626" lon="13.163267215713859">
        <ele>1740.02</ele>
        <time>2019-06-17T09:23:34Z</time>
      </trkpt>
      <trkpt lat="42.81095459125936" lon="13.163136625662446">
        <ele>1740.0799999999999</ele>
        <time>2019-06-17T09:23:54Z</time>
      </trkpt>
      <trkpt lat="42.810721406713128" lon="13.163034450262785">
        <ele>1741.48</ele>
        <time>2019-06-17T09:24:14Z</time>
      </trkpt>
      <trkpt lat="42.810561144724488" lon="13.162952307611704">
        <ele>1742.26</ele>
        <time>2019-06-17T09:24:29Z</time>
      </trkpt>
      <trkpt lat="42.810402223840356" lon="13.16286513581872">
        <ele>1742.55</ele>
        <time>2019-06-17T09:24:44Z</time>
      </trkpt>
      <trkpt lat="42.810254450887442" lon="13.162750555202365">
        <ele>1742.9200000000001</ele>
        <time>2019-06-17T09:24:58Z</time>
      </trkpt>
      <trkpt lat="42.810114724561572" lon="13.16261594183743">
        <ele>1742.4000000000001</ele>
        <time>2019-06-17T09:25:14Z</time>
      </trkpt>
      <trkpt lat="42.809994108974934" lon="13.162525333464146">
        <ele>1742.1600000000001</ele>
        <time>2019-06-17T09:25:27Z</time>
      </trkpt>
      <trkpt lat="42.809847509488463" lon="13.162454757839441">
        <ele>1743.3599999999999</ele>
        <time>2019-06-17T09:25:42Z</time>
      </trkpt>
      <trkpt lat="42.80982973985374" lon="13.162464732304215">
        <ele>1744.6800000000001</ele>
        <time>2019-06-17T09:25:54Z</time>
      </trkpt>
      <trkpt lat="42.809814233332872" lon="13.162484932690859">
        <ele>1744.3199999999999</ele>
        <time>2019-06-17T09:26:07Z</time>
      </trkpt>
      <trkpt lat="42.809752374887466" lon="13.162484178319573">
        <ele>1743.3</ele>
        <time>2019-06-17T09:26:13Z</time>
      </trkpt>
      <trkpt lat="42.809593034908175" lon="13.162478813901544">
        <ele>1744.21</ele>
        <time>2019-06-17T09:26:28Z</time>
      </trkpt>
      <trkpt lat="42.809431264176965" lon="13.162424080073833">
        <ele>1744.01</ele>
        <time>2019-06-17T09:26:42Z</time>
      </trkpt>
      <trkpt lat="42.809241330251098" lon="13.162332717329264">
        <ele>1742.5699999999999</ele>
        <time>2019-06-17T09:26:57Z</time>
      </trkpt>
      <trkpt lat="42.809090539813042" lon="13.162212939932942">
        <ele>1741.6700000000001</ele>
        <time>2019-06-17T09:27:10Z</time>
      </trkpt>
      <trkpt lat="42.808889374136925" lon="13.162050079554319">
        <ele>1741.4100000000001</ele>
        <time>2019-06-17T09:27:28Z</time>
      </trkpt>
      <trkpt lat="42.8088060580194" lon="13.162020994350314">
        <ele>1742.03</ele>
        <time>2019-06-17T09:27:41Z</time>
      </trkpt>
      <trkpt lat="42.80878946185112" lon="13.162036752328277">
        <ele>1742.23</ele>
        <time>2019-06-17T09:27:43Z</time>
      </trkpt>
      <trkpt lat="42.808646215125918" lon="13.162003727629781">
        <ele>1741.97</ele>
        <time>2019-06-17T09:27:56Z</time>
      </trkpt>
      <trkpt lat="42.808539681136608" lon="13.161970870569348">
        <ele>1743.96</ele>
        <time>2019-06-17T09:28:09Z</time>
      </trkpt>
      <trkpt lat="42.808488802984357" lon="13.16193675622344">
        <ele>1742.9100000000001</ele>
        <time>2019-06-17T09:28:18Z</time>
      </trkpt>
      <trkpt lat="42.808408420532942" lon="13.161888141185045">
        <ele>1740.6800000000001</ele>
        <time>2019-06-17T09:28:27Z</time>
      </trkpt>
      <trkpt lat="42.808285793289542" lon="13.16182728856802">
        <ele>1738.79</ele>
        <time>2019-06-17T09:28:39Z</time>
      </trkpt>
      <trkpt lat="42.808242626488209" lon="13.161814799532294">
        <ele>1736.9300000000001</ele>
        <time>2019-06-17T09:28:43Z</time>
      </trkpt>
      <trkpt lat="42.80803257599473" lon="13.161735758185387">
        <ele>1735.98</ele>
        <time>2019-06-17T09:29:01Z</time>
      </trkpt>
      <trkpt lat="42.807811293751001" lon="13.161679180338979">
        <ele>1735.4300000000001</ele>
        <time>2019-06-17T09:29:19Z</time>
      </trkpt>
      <trkpt lat="42.807568302378058" lon="13.161617238074541">
        <ele>1734.23</ele>
        <time>2019-06-17T09:29:39Z</time>
      </trkpt>
      <trkpt lat="42.807369399815798" lon="13.161611454561353">
        <ele>1733.5</ele>
        <time>2019-06-17T09:29:55Z</time>
      </trkpt>
      <trkpt lat="42.807118780910969" lon="13.161648586392403">
        <ele>1733.3</ele>
        <time>2019-06-17T09:30:15Z</time>
      </trkpt>
      <trkpt lat="42.806912334635854" lon="13.161651100963354">
        <ele>1731.76</ele>
        <time>2019-06-17T09:30:33Z</time>
      </trkpt>
      <trkpt lat="42.806754419580102" lon="13.16163282841444">
        <ele>1732.9400000000001</ele>
        <time>2019-06-17T09:30:48Z</time>
      </trkpt>
      <trkpt lat="42.806586446240544" lon="13.161603910848498">
        <ele>1734.1700000000001</ele>
        <time>2019-06-17T09:31:04Z</time>
      </trkpt>
      <trkpt lat="42.806451916694641" lon="13.161560157313943">
        <ele>1734.79</ele>
        <time>2019-06-17T09:31:18Z</time>
      </trkpt>
      <trkpt lat="42.80634043738246" lon="13.1615174934268">
        <ele>1736.3199999999999</ele>
        <time>2019-06-17T09:31:31Z</time>
      </trkpt>
      <trkpt lat="42.806211607530713" lon="13.161454880610108">
        <ele>1737.04</ele>
        <time>2019-06-17T09:31:45Z</time>
      </trkpt>
      <trkpt lat="42.806053692474961" lon="13.161326386034489">
        <ele>1738.1099999999999</ele>
        <time>2019-06-17T09:32:02Z</time>
      </trkpt>
      <trkpt lat="42.805899884551764" lon="13.161196885630488">
        <ele>1738.1300000000001</ele>
        <time>2019-06-17T09:32:18Z</time>
      </trkpt>
      <trkpt lat="42.805772395804524" lon="13.161025643348694">
        <ele>1739.5599999999999</ele>
        <time>2019-06-17T09:32:34Z</time>
      </trkpt>
      <trkpt lat="42.805676087737083" lon="13.160848701372743">
        <ele>1740.1800000000001</ele>
        <time>2019-06-17T09:32:48Z</time>
      </trkpt>
      <trkpt lat="42.805556394159794" lon="13.160629598423839">
        <ele>1741.28</ele>
        <time>2019-06-17T09:33:04Z</time>
      </trkpt>
      <trkpt lat="42.80545262619853" lon="13.160356851294637">
        <ele>1741.0899999999999</ele>
        <time>2019-06-17T09:33:21Z</time>
      </trkpt>
      <trkpt lat="42.805320108309388" lon="13.160036997869611">
        <ele>1740.75</ele>
        <time>2019-06-17T09:33:40Z</time>
      </trkpt>
      <trkpt lat="42.805169653147459" lon="13.159823762252927">
        <ele>1739.1400000000001</ele>
        <time>2019-06-17T09:33:57Z</time>
      </trkpt>
      <trkpt lat="42.804992292076349" lon="13.159771710634232">
        <ele>1739.02</ele>
        <time>2019-06-17T09:34:12Z</time>
      </trkpt>
      <trkpt lat="42.804831694811583" lon="13.159668445587158">
        <ele>1740.95</ele>
        <time>2019-06-17T09:34:28Z</time>
      </trkpt>
      <trkpt lat="42.804707307368517" lon="13.159512961283326">
        <ele>1740.9100000000001</ele>
        <time>2019-06-17T09:34:43Z</time>
      </trkpt>
      <trkpt lat="42.804613178595901" lon="13.15934456884861">
        <ele>1740.28</ele>
        <time>2019-06-17T09:34:57Z</time>
      </trkpt>
      <trkpt lat="42.804509242996573" lon="13.159123370423913">
        <ele>1738.8199999999999</ele>
        <time>2019-06-17T09:35:14Z</time>
      </trkpt>
      <trkpt lat="42.804408995434642" lon="13.158927485346794">
        <ele>1735.79</ele>
        <time>2019-06-17T09:35:29Z</time>
      </trkpt>
      <trkpt lat="42.804317213594913" lon="13.158779460936785">
        <ele>1734.0599999999999</ele>
        <time>2019-06-17T09:35:42Z</time>
      </trkpt>
      <trkpt lat="42.804222330451012" lon="13.158624563366175">
        <ele>1731.77</ele>
        <time>2019-06-17T09:35:56Z</time>
      </trkpt>
      <trkpt lat="42.804216714575887" lon="13.158612074330449">
        <ele>1731.96</ele>
        <time>2019-06-17T09:36:04Z</time>
      </trkpt>
      <trkpt lat="42.804186623543501" lon="13.158562872558832">
        <ele>1731.23</ele>
        <time>2019-06-17T09:36:08Z</time>
      </trkpt>
      <trkpt lat="42.804054105654359" lon="13.158337231725454">
        <ele>1729.7</ele>
        <time>2019-06-17T09:36:25Z</time>
      </trkpt>
      <trkpt lat="42.803923096507788" lon="13.158021233975887">
        <ele>1727.4200000000001</ele>
        <time>2019-06-17T09:36:46Z</time>
      </trkpt>
      <trkpt lat="42.803816059604287" lon="13.157754940912127">
        <ele>1725.95</ele>
        <time>2019-06-17T09:37:03Z</time>
      </trkpt>
      <trkpt lat="42.803707262501121" lon="13.157575484365225">
        <ele>1725.4300000000001</ele>
        <time>2019-06-17T09:37:17Z</time>
      </trkpt>
      <trkpt lat="42.803594777360559" lon="13.157367445528507">
        <ele>1724.4400000000001</ele>
        <time>2019-06-17T09:37:33Z</time>
      </trkpt>
      <trkpt lat="42.803541887551546" lon="13.157301563769579">
        <ele>1724.3</ele>
        <time>2019-06-17T09:37:46Z</time>
      </trkpt>
      <trkpt lat="42.80352646484971" lon="13.157290834933519">
        <ele>1724.03</ele>
        <time>2019-06-17T09:37:55Z</time>
      </trkpt>
      <trkpt lat="42.803482795134187" lon="13.157245153561234">
        <ele>1723.9200000000001</ele>
        <time>2019-06-17T09:38:00Z</time>
      </trkpt>
      <trkpt lat="42.803307278081775" lon="13.157097045332193">
        <ele>1722.3199999999999</ele>
        <time>2019-06-17T09:38:18Z</time>
      </trkpt>
      <trkpt lat="42.803247012197971" lon="13.157078940421343">
        <ele>1721.5599999999999</ele>
        <time>2019-06-17T09:38:33Z</time>
      </trkpt>
      <trkpt lat="42.803240474313498" lon="13.157078856602311">
        <ele>1721.27</ele>
        <time>2019-06-17T09:38:35Z</time>
      </trkpt>
      <trkpt lat="42.803094545379281" lon="13.157085897400975">
        <ele>1720.9400000000001</ele>
        <time>2019-06-17T09:38:49Z</time>
      </trkpt>
      <trkpt lat="42.802981976419687" lon="13.157095368951559">
        <ele>1720.8199999999999</ele>
        <time>2019-06-17T09:39:03Z</time>
      </trkpt>
      <trkpt lat="42.802978456020355" lon="13.157115653157234">
        <ele>1720.46</ele>
        <time>2019-06-17T09:39:22Z</time>
      </trkpt>
      <trkpt lat="42.802951047196984" lon="13.157126381993294">
        <ele>1720.3599999999999</ele>
        <time>2019-06-17T09:39:25Z</time>
      </trkpt>
      <trkpt lat="42.802817523479462" lon="13.157138116657734">
        <ele>1719.1600000000001</ele>
        <time>2019-06-17T09:39:38Z</time>
      </trkpt>
      <trkpt lat="42.802701937034726" lon="13.157132668420672">
        <ele>1717.26</ele>
        <time>2019-06-17T09:39:50Z</time>
      </trkpt>
      <trkpt lat="42.802558271214366" lon="13.157153204083443">
        <ele>1714.9300000000001</ele>
        <time>2019-06-17T09:40:04Z</time>
      </trkpt>
      <trkpt lat="42.802390130236745" lon="13.157210871577263">
        <ele>1713.3299999999999</ele>
        <time>2019-06-17T09:40:20Z</time>
      </trkpt>
      <trkpt lat="42.802265742793679" lon="13.157249595969915">
        <ele>1712.1199999999999</ele>
        <time>2019-06-17T09:40:35Z</time>
      </trkpt>
      <trkpt lat="42.802262976765633" lon="13.157260995358229">
        <ele>1712.24</ele>
        <time>2019-06-17T09:40:47Z</time>
      </trkpt>
      <trkpt lat="42.802201453596354" lon="13.157267114147544">
        <ele>1711.1400000000001</ele>
        <time>2019-06-17T09:40:54Z</time>
      </trkpt>
      <trkpt lat="42.80210305005312" lon="13.157300055027008">
        <ele>1710.4400000000001</ele>
        <time>2019-06-17T09:41:05Z</time>
      </trkpt>
      <trkpt lat="42.801962485536933" lon="13.157335007563233">
        <ele>1707.98</ele>
        <time>2019-06-17T09:41:20Z</time>
      </trkpt>
      <trkpt lat="42.801909260451794" lon="13.157350933179259">
        <ele>1707.02</ele>
        <time>2019-06-17T09:41:32Z</time>
      </trkpt>
      <trkpt lat="42.80190615914762" lon="13.157357722520828">
        <ele>1706.95</ele>
        <time>2019-06-17T09:41:37Z</time>
      </trkpt>
      <trkpt lat="42.801755201071501" lon="13.157402565702796">
        <ele>1704.6199999999999</ele>
        <time>2019-06-17T09:41:52Z</time>
      </trkpt>
      <trkpt lat="42.801604997366667" lon="13.157460987567902">
        <ele>1703.21</ele>
        <time>2019-06-17T09:42:07Z</time>
      </trkpt>
      <trkpt lat="42.801456386223435" lon="13.157503064721823">
        <ele>1701.22</ele>
        <time>2019-06-17T09:42:22Z</time>
      </trkpt>
      <trkpt lat="42.801286987960339" lon="13.15755863673985">
        <ele>1698.79</ele>
        <time>2019-06-17T09:42:39Z</time>
      </trkpt>
      <trkpt lat="42.801099736243486" lon="13.157637091353536">
        <ele>1695.78</ele>
        <time>2019-06-17T09:42:58Z</time>
      </trkpt>
      <trkpt lat="42.80093427747488" lon="13.157725436612964">
        <ele>1692.6800000000001</ele>
        <time>2019-06-17T09:43:14Z</time>
      </trkpt>
      <trkpt lat="42.800803184509277" lon="13.157826270908117">
        <ele>1691.3399999999999</ele>
        <time>2019-06-17T09:43:28Z</time>
      </trkpt>
      <trkpt lat="42.80068701133132" lon="13.157897349447012">
        <ele>1689.05</ele>
        <time>2019-06-17T09:43:44Z</time>
      </trkpt>
      <trkpt lat="42.800649628043175" lon="13.157898606732488">
        <ele>1686.52</ele>
        <time>2019-06-17T09:43:58Z</time>
      </trkpt>
      <trkpt lat="42.800578214228153" lon="13.157932385802269">
        <ele>1685.48</ele>
        <time>2019-06-17T09:44:08Z</time>
      </trkpt>
      <trkpt lat="42.800424573943019" lon="13.158095413818955">
        <ele>1685.26</ele>
        <time>2019-06-17T09:44:26Z</time>
      </trkpt>
      <trkpt lat="42.800419628620148" lon="13.158151404932141">
        <ele>1684.96</ele>
        <time>2019-06-17T09:44:30Z</time>
      </trkpt>
      <trkpt lat="42.800404289737344" lon="13.158201528713107">
        <ele>1683.9100000000001</ele>
        <time>2019-06-17T09:44:34Z</time>
      </trkpt>
      <trkpt lat="42.80036355368793" lon="13.158197673037648">
        <ele>1686.01</ele>
        <time>2019-06-17T09:44:40Z</time>
      </trkpt>
      <trkpt lat="42.800361206755042" lon="13.158209826797247">
        <ele>1685.49</ele>
        <time>2019-06-17T09:44:55Z</time>
      </trkpt>
      <trkpt lat="42.800349975004792" lon="13.158265650272369">
        <ele>1683.3800000000001</ele>
        <time>2019-06-17T09:44:59Z</time>
      </trkpt>
      <trkpt lat="42.800308065488935" lon="13.15837268717587">
        <ele>1682.46</ele>
        <time>2019-06-17T09:45:07Z</time>
      </trkpt>
      <trkpt lat="42.800241848453879" lon="13.158540492877364">
        <ele>1680.8699999999999</ele>
        <time>2019-06-17T09:45:19Z</time>
      </trkpt>
      <trkpt lat="42.800167752429843" lon="13.158727241680026">
        <ele>1679.6500000000001</ele>
        <time>2019-06-17T09:45:33Z</time>
      </trkpt>
      <trkpt lat="42.800140511244535" lon="13.158783651888371">
        <ele>1682.04</ele>
        <time>2019-06-17T09:45:39Z</time>
      </trkpt>
      <trkpt lat="42.800111761316657" lon="13.158819023519754">
        <ele>1679.0599999999999</ele>
        <time>2019-06-17T09:45:48Z</time>
      </trkpt>
      <trkpt lat="42.800090136006474" lon="13.158878032118082">
        <ele>1679.3699999999999</ele>
        <time>2019-06-17T09:45:54Z</time>
      </trkpt>
      <trkpt lat="42.800068678334355" lon="13.158920025452971">
        <ele>1676.47</ele>
        <time>2019-06-17T09:45:58Z</time>
      </trkpt>
      <trkpt lat="42.800063397735357" lon="13.158944668248296">
        <ele>1676.46</ele>
        <time>2019-06-17T09:46:10Z</time>
      </trkpt>
      <trkpt lat="42.800053087994456" lon="13.158978614956141">
        <ele>1675.3</ele>
        <time>2019-06-17T09:46:28Z</time>
      </trkpt>
      <trkpt lat="42.800050573423505" lon="13.158988421782851">
        <ele>1674.3900000000001</ele>
        <time>2019-06-17T09:46:29Z</time>
      </trkpt>
      <trkpt lat="42.800029534846544" lon="13.159072576090693">
        <ele>1673.21</ele>
        <time>2019-06-17T09:46:36Z</time>
      </trkpt>
      <trkpt lat="42.800026684999466" lon="13.159084226936102">
        <ele>1672.97</ele>
        <time>2019-06-17T09:46:37Z</time>
      </trkpt>
      <trkpt lat="42.800015453249216" lon="13.159134266898036">
        <ele>1671.2</ele>
        <time>2019-06-17T09:46:41Z</time>
      </trkpt>
      <trkpt lat="42.799970861524343" lon="13.159267706796527">
        <ele>1668.9200000000001</ele>
        <time>2019-06-17T09:46:52Z</time>
      </trkpt>
      <trkpt lat="42.799928029999137" lon="13.159339036792517">
        <ele>1668.21</ele>
        <time>2019-06-17T09:47:00Z</time>
      </trkpt>
      <trkpt lat="42.799909673631191" lon="13.159349011257291">
        <ele>1665.96</ele>
        <time>2019-06-17T09:47:02Z</time>
      </trkpt>
      <trkpt lat="42.799810934811831" lon="13.159455461427569">
        <ele>1664.4000000000001</ele>
        <time>2019-06-17T09:47:18Z</time>
      </trkpt>
      <trkpt lat="42.799774138256907" lon="13.159487647935748">
        <ele>1663.25</ele>
        <time>2019-06-17T09:47:29Z</time>
      </trkpt>
      <trkpt lat="42.799765337258577" lon="13.15949410200119">
        <ele>1662.98</ele>
        <time>2019-06-17T09:47:30Z</time>
      </trkpt>
      <trkpt lat="42.799735832959414" lon="13.159518912434578">
        <ele>1662.9000000000001</ele>
        <time>2019-06-17T09:47:35Z</time>
      </trkpt>
      <trkpt lat="42.799669364467263" lon="13.15957373008132">
        <ele>1663.3299999999999</ele>
        <time>2019-06-17T09:47:49Z</time>
      </trkpt>
      <trkpt lat="42.799665173515677" lon="13.159582195803523">
        <ele>1663.8399999999999</ele>
        <time>2019-06-17T09:47:53Z</time>
      </trkpt>
      <trkpt lat="42.799623934552073" lon="13.159681856632233">
        <ele>1659.71</ele>
        <time>2019-06-17T09:48:04Z</time>
      </trkpt>
      <trkpt lat="42.799586467444897" lon="13.159826695919037">
        <ele>1656.8199999999999</ele>
        <time>2019-06-17T09:48:18Z</time>
      </trkpt>
      <trkpt lat="42.799583617597818" lon="13.159966170787811">
        <ele>1653.96</ele>
        <time>2019-06-17T09:48:31Z</time>
      </trkpt>
      <trkpt lat="42.799566937610507" lon="13.160006068646908">
        <ele>1652.8</ele>
        <time>2019-06-17T09:48:35Z</time>
      </trkpt>
      <trkpt lat="42.799540283158422" lon="13.160055102780461">
        <ele>1651.8599999999999</ele>
        <time>2019-06-17T09:48:40Z</time>
      </trkpt>
      <trkpt lat="42.799470294266939" lon="13.160151243209839">
        <ele>1649.73</ele>
        <time>2019-06-17T09:48:53Z</time>
      </trkpt>
      <trkpt lat="42.799392091110349" lon="13.160241097211838">
        <ele>1646.49</ele>
        <time>2019-06-17T09:49:07Z</time>
      </trkpt>
      <trkpt lat="42.799310032278299" lon="13.160289712250233">
        <ele>1643.3800000000001</ele>
        <time>2019-06-17T09:49:18Z</time>
      </trkpt>
      <trkpt lat="42.799301231279969" lon="13.160286946222186">
        <ele>1642.9000000000001</ele>
        <time>2019-06-17T09:49:19Z</time>
      </trkpt>
      <trkpt lat="42.799263931810856" lon="13.160280659794807">
        <ele>1642.71</ele>
        <time>2019-06-17T09:49:23Z</time>
      </trkpt>
      <trkpt lat="42.799170222133398" lon="13.160326844081283">
        <ele>1639.1300000000001</ele>
        <time>2019-06-17T09:49:33Z</time>
      </trkpt>
      <trkpt lat="42.799099311232567" lon="13.160378560423851">
        <ele>1637.27</ele>
        <time>2019-06-17T09:49:42Z</time>
      </trkpt>
      <trkpt lat="42.799023874104023" lon="13.16046841442585">
        <ele>1633.6099999999999</ele>
        <time>2019-06-17T09:49:53Z</time>
      </trkpt>
      <trkpt lat="42.798934355378151" lon="13.160551730543375">
        <ele>1630.1800000000001</ele>
        <time>2019-06-17T09:50:06Z</time>
      </trkpt>
      <trkpt lat="42.798907281830907" lon="13.160576624795794">
        <ele>1629.53</ele>
        <time>2019-06-17T09:50:10Z</time>
      </trkpt>
      <trkpt lat="42.798835365101695" lon="13.160655749961734">
        <ele>1626.4300000000001</ele>
        <time>2019-06-17T09:50:21Z</time>
      </trkpt>
      <trkpt lat="42.798779373988509" lon="13.160737473517656">
        <ele>1624.97</ele>
        <time>2019-06-17T09:50:33Z</time>
      </trkpt>
      <trkpt lat="42.798784989863634" lon="13.160748118534684">
        <ele>1624.95</ele>
        <time>2019-06-17T09:50:39Z</time>
      </trkpt>
      <trkpt lat="42.79877845197916" lon="13.160784663632512">
        <ele>1624.5799999999999</ele>
        <time>2019-06-17T09:50:42Z</time>
      </trkpt>
      <trkpt lat="42.798750372603536" lon="13.16082757897675">
        <ele>1623.47</ele>
        <time>2019-06-17T09:50:46Z</time>
      </trkpt>
      <trkpt lat="42.798642497509718" lon="13.160986416041851">
        <ele>1622.54</ele>
        <time>2019-06-17T09:51:01Z</time>
      </trkpt>
      <trkpt lat="42.798596983775496" lon="13.161084651947021">
        <ele>1622.53</ele>
        <time>2019-06-17T09:51:13Z</time>
      </trkpt>
      <trkpt lat="42.798578627407551" lon="13.161114491522312">
        <ele>1621.95</ele>
        <time>2019-06-17T09:51:16Z</time>
      </trkpt>
      <trkpt lat="42.798464633524418" lon="13.161278022453189">
        <ele>1620.9100000000001</ele>
        <time>2019-06-17T09:51:32Z</time>
      </trkpt>
      <trkpt lat="42.798456167802215" lon="13.161295875906944">
        <ele>1620.73</ele>
        <time>2019-06-17T09:51:44Z</time>
      </trkpt>
      <trkpt lat="42.798443427309394" lon="13.161302162334323">
        <ele>1619.9100000000001</ele>
        <time>2019-06-17T09:51:55Z</time>
      </trkpt>
      <trkpt lat="42.798409564420581" lon="13.161322362720966">
        <ele>1619.1199999999999</ele>
        <time>2019-06-17T09:52:03Z</time>
      </trkpt>
      <trkpt lat="42.798379389569163" lon="13.161339377984405">
        <ele>1618.3299999999999</ele>
        <time>2019-06-17T09:52:06Z</time>
      </trkpt>
      <trkpt lat="42.798198005184531" lon="13.161416072398424">
        <ele>1615.98</ele>
        <time>2019-06-17T09:52:24Z</time>
      </trkpt>
      <trkpt lat="42.798062218353152" lon="13.161470890045166">
        <ele>1614.05</ele>
        <time>2019-06-17T09:52:37Z</time>
      </trkpt>
      <trkpt lat="42.797896843403578" lon="13.161524785682559">
        <ele>1611.6500000000001</ele>
        <time>2019-06-17T09:52:52Z</time>
      </trkpt>
      <trkpt lat="42.797722415998578" lon="13.161575831472874">
        <ele>1608.46</ele>
        <time>2019-06-17T09:53:08Z</time>
      </trkpt>
      <trkpt lat="42.797532649710774" lon="13.161605754867196">
        <ele>1606.48</ele>
        <time>2019-06-17T09:53:25Z</time>
      </trkpt>
      <trkpt lat="42.797442376613617" lon="13.161637103185058">
        <ele>1605.21</ele>
        <time>2019-06-17T09:53:40Z</time>
      </trkpt>
      <trkpt lat="42.797361072152853" lon="13.161661494523287">
        <ele>1603.98</ele>
        <time>2019-06-17T09:53:53Z</time>
      </trkpt>
      <trkpt lat="42.797304159030318" lon="13.161714803427458">
        <ele>1602.99</ele>
        <time>2019-06-17T09:54:05Z</time>
      </trkpt>
      <trkpt lat="42.797320922836661" lon="13.161723604425788">
        <ele>1602.26</ele>
        <time>2019-06-17T09:54:17Z</time>
      </trkpt>
      <trkpt lat="42.797316731885076" lon="13.161728549748659">
        <ele>1601.8299999999999</ele>
        <time>2019-06-17T09:54:37Z</time>
      </trkpt>
      <trkpt lat="42.797306422144175" lon="13.161733997985721">
        <ele>1602.6900000000001</ele>
        <time>2019-06-17T09:54:46Z</time>
      </trkpt>
      <trkpt lat="42.797317402437329" lon="13.161732321605086">
        <ele>1603.3099999999999</ele>
        <time>2019-06-17T09:55:04Z</time>
      </trkpt>
      <trkpt lat="42.797312457114458" lon="13.161731818690896">
        <ele>1603.03</ele>
        <time>2019-06-17T09:55:15Z</time>
      </trkpt>
      <trkpt lat="42.797308098524809" lon="13.161720251664519">
        <ele>1602.5899999999999</ele>
        <time>2019-06-17T09:55:34Z</time>
      </trkpt>
      <trkpt lat="42.797313882037997" lon="13.161725448444486">
        <ele>1602.1700000000001</ele>
        <time>2019-06-17T09:56:02Z</time>
      </trkpt>
      <trkpt lat="42.797313127666712" lon="13.16172762773931">
        <ele>1602.0999999999999</ele>
        <time>2019-06-17T09:56:18Z</time>
      </trkpt>
      <trkpt lat="42.797311032190919" lon="13.161723017692566">
        <ele>1602.5699999999999</ele>
        <time>2019-06-17T09:56:37Z</time>
      </trkpt>
      <trkpt lat="42.797311367467046" lon="13.161725364625454">
        <ele>1603.1099999999999</ele>
        <time>2019-06-17T09:56:53Z</time>
      </trkpt>
      <trkpt lat="42.797315726056695" lon="13.161726957187057">
        <ele>1601.9400000000001</ele>
        <time>2019-06-17T09:57:08Z</time>
      </trkpt>
      <trkpt lat="42.797282533720136" lon="13.161736680194736">
        <ele>1600.74</ele>
        <time>2019-06-17T09:57:18Z</time>
      </trkpt>
      <trkpt lat="42.797275492921472" lon="13.161739278584719">
        <ele>1600.7</ele>
        <time>2019-06-17T09:57:19Z</time>
      </trkpt>
      <trkpt lat="42.797246156260371" lon="13.161730812862515">
        <ele>1602.3499999999999</ele>
        <time>2019-06-17T09:57:29Z</time>
      </trkpt>
      <trkpt lat="42.797240205109119" lon="13.161723855882883">
        <ele>1602.04</ele>
        <time>2019-06-17T09:57:50Z</time>
      </trkpt>
      <trkpt lat="42.797247329726815" lon="13.161728298291564">
        <ele>1601.8499999999999</ele>
        <time>2019-06-17T09:58:07Z</time>
      </trkpt>
      <trkpt lat="42.797246826812625" lon="13.161728717386723">
        <ele>1601.48</ele>
        <time>2019-06-17T09:58:26Z</time>
      </trkpt>
      <trkpt lat="42.79719871468842" lon="13.161715306341648">
        <ele>1600.71</ele>
        <time>2019-06-17T09:58:41Z</time>
      </trkpt>
      <trkpt lat="42.797109447419643" lon="13.161713797599077">
        <ele>1599.76</ele>
        <time>2019-06-17T09:58:52Z</time>
      </trkpt>
      <trkpt lat="42.796993441879749" lon="13.161719497293234">
        <ele>1596.8900000000001</ele>
        <time>2019-06-17T09:59:06Z</time>
      </trkpt>
      <trkpt lat="42.79697441495955" lon="13.161720084026456">
        <ele>1596.55</ele>
        <time>2019-06-17T09:59:08Z</time>
      </trkpt>
      <trkpt lat="42.796805435791612" lon="13.161741541698575">
        <ele>1593.1500000000001</ele>
        <time>2019-06-17T09:59:24Z</time>
      </trkpt>
      <trkpt lat="42.796662021428347" lon="13.161763083189726">
        <ele>1590.0999999999999</ele>
        <time>2019-06-17T09:59:39Z</time>
      </trkpt>
      <trkpt lat="42.796529503539205" lon="13.161781691014767">
        <ele>1587.47</ele>
        <time>2019-06-17T09:59:52Z</time>
      </trkpt>
      <trkpt lat="42.796385921537876" lon="13.161819577217102">
        <ele>1584.4300000000001</ele>
        <time>2019-06-17T10:00:06Z</time>
      </trkpt>
      <trkpt lat="42.796236723661423" lon="13.161852350458503">
        <ele>1582.6800000000001</ele>
        <time>2019-06-17T10:00:21Z</time>
      </trkpt>
      <trkpt lat="42.796077635139227" lon="13.16189962439239">
        <ele>1580.6800000000001</ele>
        <time>2019-06-17T10:00:36Z</time>
      </trkpt>
      <trkpt lat="42.795892730355263" lon="13.1619509216398">
        <ele>1578.7</ele>
        <time>2019-06-17T10:00:53Z</time>
      </trkpt>
      <trkpt lat="42.79575283639133" lon="13.162000207230449">
        <ele>1577.3399999999999</ele>
        <time>2019-06-17T10:01:06Z</time>
      </trkpt>
      <trkpt lat="42.795629454776645" lon="13.162045637145638">
        <ele>1577.3</ele>
        <time>2019-06-17T10:01:18Z</time>
      </trkpt>
      <trkpt lat="42.795466762036085" lon="13.162110010161996">
        <ele>1576.21</ele>
        <time>2019-06-17T10:01:33Z</time>
      </trkpt>
      <trkpt lat="42.795311864465475" lon="13.162178993225098">
        <ele>1575.26</ele>
        <time>2019-06-17T10:01:48Z</time>
      </trkpt>
      <trkpt lat="42.795112123712897" lon="13.162265243008733">
        <ele>1574.95</ele>
        <time>2019-06-17T10:02:07Z</time>
      </trkpt>
      <trkpt lat="42.794917412102222" lon="13.162350989878178">
        <ele>1575.96</ele>
        <time>2019-06-17T10:02:25Z</time>
      </trkpt>
      <trkpt lat="42.794753629714251" lon="13.162424582988024">
        <ele>1576.1700000000001</ele>
        <time>2019-06-17T10:02:40Z</time>
      </trkpt>
      <trkpt lat="42.794619770720601" lon="13.162476047873497">
        <ele>1575.99</ele>
        <time>2019-06-17T10:02:53Z</time>
      </trkpt>
      <trkpt lat="42.79445699416101" lon="13.162548635154963">
        <ele>1575.9200000000001</ele>
        <time>2019-06-17T10:03:08Z</time>
      </trkpt>
      <trkpt lat="42.794266222044826" lon="13.162562632933259">
        <ele>1575.1800000000001</ele>
        <time>2019-06-17T10:03:25Z</time>
      </trkpt>
      <trkpt lat="42.794071342796087" lon="13.162496499717236">
        <ele>1575.3099999999999</ele>
        <time>2019-06-17T10:03:43Z</time>
      </trkpt>
      <trkpt lat="42.793895993381739" lon="13.162397425621748">
        <ele>1574.45</ele>
        <time>2019-06-17T10:04:00Z</time>
      </trkpt>
      <trkpt lat="42.793729528784752" lon="13.162311594933271">
        <ele>1573.72</ele>
        <time>2019-06-17T10:04:15Z</time>
      </trkpt>
      <trkpt lat="42.793587204068899" lon="13.162253173068166">
        <ele>1572.6700000000001</ele>
        <time>2019-06-17T10:04:28Z</time>
      </trkpt>
      <trkpt lat="42.793417386710644" lon="13.162206737324595">
        <ele>1572.1500000000001</ele>
        <time>2019-06-17T10:04:43Z</time>
      </trkpt>
      <trkpt lat="42.793255029246211" lon="13.16215711645782">
        <ele>1571.0799999999999</ele>
        <time>2019-06-17T10:04:57Z</time>
      </trkpt>
      <trkpt lat="42.793041206896305" lon="13.162101544439793">
        <ele>1570.8199999999999</ele>
        <time>2019-06-17T10:05:16Z</time>
      </trkpt>
      <trkpt lat="42.792869042605162" lon="13.162052258849144">
        <ele>1569.99</ele>
        <time>2019-06-17T10:05:31Z</time>
      </trkpt>
      <trkpt lat="42.792717749252915" lon="13.16203155554831">
        <ele>1569.6099999999999</ele>
        <time>2019-06-17T10:05:44Z</time>
      </trkpt>
      <trkpt lat="42.792561091482639" lon="13.162033231928945">
        <ele>1570.21</ele>
        <time>2019-06-17T10:05:58Z</time>
      </trkpt>
      <trkpt lat="42.792376605793834" lon="13.162046726793051">
        <ele>1570.3599999999999</ele>
        <time>2019-06-17T10:06:14Z</time>
      </trkpt>
      <trkpt lat="42.792181642726064" lon="13.162075476720929">
        <ele>1570.21</ele>
        <time>2019-06-17T10:06:31Z</time>
      </trkpt>
      <trkpt lat="42.791989361867309" lon="13.162129875272512">
        <ele>1569.96</ele>
        <time>2019-06-17T10:06:48Z</time>
      </trkpt>
      <trkpt lat="42.791826082393527" lon="13.162209251895547">
        <ele>1569.9400000000001</ele>
        <time>2019-06-17T10:07:04Z</time>
      </trkpt>
      <trkpt lat="42.791634304448962" lon="13.16230271011591">
        <ele>1569.1800000000001</ele>
        <time>2019-06-17T10:07:21Z</time>
      </trkpt>
      <trkpt lat="42.791438838467002" lon="13.162399604916573">
        <ele>1568.6700000000001</ele>
        <time>2019-06-17T10:07:38Z</time>
      </trkpt>
      <trkpt lat="42.791295675560832" lon="13.162449141964316">
        <ele>1568.1900000000001</ele>
        <time>2019-06-17T10:07:50Z</time>
      </trkpt>
      <trkpt lat="42.791154189035296" lon="13.162555759772658">
        <ele>1567.1099999999999</ele>
        <time>2019-06-17T10:08:02Z</time>
      </trkpt>
      <trkpt lat="42.790962746366858" lon="13.162767235189676">
        <ele>1565.6800000000001</ele>
        <time>2019-06-17T10:08:21Z</time>
      </trkpt>
      <trkpt lat="42.790808100253344" lon="13.162964042276144">
        <ele>1565.74</ele>
        <time>2019-06-17T10:08:38Z</time>
      </trkpt>
      <trkpt lat="42.790668709203601" lon="13.163206111639738">
        <ele>1564.6300000000001</ele>
        <time>2019-06-17T10:08:56Z</time>
      </trkpt>
      <trkpt lat="42.790660997852683" lon="13.163221785798669">
        <ele>1564.8699999999999</ele>
        <time>2019-06-17T10:08:59Z</time>
      </trkpt>
      <trkpt lat="42.790633840486407" lon="13.163267970085144">
        <ele>1564.6199999999999</ele>
        <time>2019-06-17T10:09:03Z</time>
      </trkpt>
      <trkpt lat="42.790489587932825" lon="13.163537867367268">
        <ele>1563.96</ele>
        <time>2019-06-17T10:09:23Z</time>
      </trkpt>
      <trkpt lat="42.790370145812631" lon="13.16376032307744">
        <ele>1563.2</ele>
        <time>2019-06-17T10:09:40Z</time>
      </trkpt>
      <trkpt lat="42.790203848853707" lon="13.163974899798632">
        <ele>1563.72</ele>
        <time>2019-06-17T10:09:58Z</time>
      </trkpt>
      <trkpt lat="42.79000410810113" lon="13.164067938923836">
        <ele>1562.47</ele>
        <time>2019-06-17T10:10:17Z</time>
      </trkpt>
      <trkpt lat="42.789781736209989" lon="13.164171036332846">
        <ele>1561.3099999999999</ele>
        <time>2019-06-17T10:10:36Z</time>
      </trkpt>
      <trkpt lat="42.789553832262754" lon="13.164303470402956">
        <ele>1559.8900000000001</ele>
        <time>2019-06-17T10:10:56Z</time>
      </trkpt>
      <trkpt lat="42.789344703778625" lon="13.164433557540178">
        <ele>1559.2</ele>
        <time>2019-06-17T10:11:14Z</time>
      </trkpt>
      <trkpt lat="42.789144543930888" lon="13.164576049894094">
        <ele>1558.3399999999999</ele>
        <time>2019-06-17T10:11:32Z</time>
      </trkpt>
      <trkpt lat="42.78894673101604" lon="13.164713429287076">
        <ele>1557.8900000000001</ele>
        <time>2019-06-17T10:11:50Z</time>
      </trkpt>
      <trkpt lat="42.788759479299188" lon="13.164873775094748">
        <ele>1556.98</ele>
        <time>2019-06-17T10:12:08Z</time>
      </trkpt>
      <trkpt lat="42.788609946146607" lon="13.165029678493738">
        <ele>1555.6800000000001</ele>
        <time>2019-06-17T10:12:24Z</time>
      </trkpt>
      <trkpt lat="42.788426633924246" lon="13.165206201374531">
        <ele>1554.9400000000001</ele>
        <time>2019-06-17T10:12:43Z</time>
      </trkpt>
      <trkpt lat="42.788235191255808" lon="13.165335534140468">
        <ele>1554.4000000000001</ele>
        <time>2019-06-17T10:13:01Z</time>
      </trkpt>
      <trkpt lat="42.788042491301894" lon="13.165419939905405">
        <ele>1553.3299999999999</ele>
        <time>2019-06-17T10:13:18Z</time>
      </trkpt>
      <trkpt lat="42.787851048633456" lon="13.165433770045638">
        <ele>1553.9000000000001</ele>
        <time>2019-06-17T10:13:35Z</time>
      </trkpt>
      <trkpt lat="42.787683913484216" lon="13.165393956005573">
        <ele>1554.5599999999999</ele>
        <time>2019-06-17T10:13:51Z</time>
      </trkpt>
      <trkpt lat="42.787518789991736" lon="13.165277950465679">
        <ele>1554.73</ele>
        <time>2019-06-17T10:14:08Z</time>
      </trkpt>
      <trkpt lat="42.787376046180725" lon="13.165145935490727">
        <ele>1554.6300000000001</ele>
        <time>2019-06-17T10:14:24Z</time>
      </trkpt>
      <trkpt lat="42.787238331511617" lon="13.165101930499077">
        <ele>1553.9400000000001</ele>
        <time>2019-06-17T10:14:37Z</time>
      </trkpt>
      <trkpt lat="42.787092654034495" lon="13.165095057338476">
        <ele>1553.99</ele>
        <time>2019-06-17T10:14:50Z</time>
      </trkpt>
      <trkpt lat="42.786900624632835" lon="13.165057590231299">
        <ele>1554.2</ele>
        <time>2019-06-17T10:15:07Z</time>
      </trkpt>
      <trkpt lat="42.786708008497953" lon="13.16499849781394">
        <ele>1553.4300000000001</ele>
        <time>2019-06-17T10:15:24Z</time>
      </trkpt>
      <trkpt lat="42.786484211683273" lon="13.164922641590238">
        <ele>1553.6400000000001</ele>
        <time>2019-06-17T10:15:44Z</time>
      </trkpt>
      <trkpt lat="42.786296876147389" lon="13.164842678233981">
        <ele>1553</ele>
        <time>2019-06-17T10:16:01Z</time>
      </trkpt>
      <trkpt lat="42.786088669672608" lon="13.164745615795255">
        <ele>1552.0699999999999</ele>
        <time>2019-06-17T10:16:20Z</time>
      </trkpt>
      <trkpt lat="42.785878367722034" lon="13.164659282192588">
        <ele>1551.2</ele>
        <time>2019-06-17T10:16:39Z</time>
      </trkpt>
      <trkpt lat="42.785699581727386" lon="13.164572948589921">
        <ele>1551.52</ele>
        <time>2019-06-17T10:16:55Z</time>
      </trkpt>
      <trkpt lat="42.785458350554109" lon="13.164483178406954">
        <ele>1551.54</ele>
        <time>2019-06-17T10:17:16Z</time>
      </trkpt>
      <trkpt lat="42.785271937027574" lon="13.164473036304116">
        <ele>1551.75</ele>
        <time>2019-06-17T10:17:32Z</time>
      </trkpt>
      <trkpt lat="42.785081919282675" lon="13.16451134160161">
        <ele>1551.0599999999999</ele>
        <time>2019-06-17T10:17:50Z</time>
      </trkpt>
      <trkpt lat="42.785067334771156" lon="13.164537493139505">
        <ele>1550.95</ele>
        <time>2019-06-17T10:17:55Z</time>
      </trkpt>
      <trkpt lat="42.785038417205215" lon="13.164612511172891">
        <ele>1551.21</ele>
        <time>2019-06-17T10:18:08Z</time>
      </trkpt>
      <trkpt lat="42.785033974796534" lon="13.164627933874726">
        <ele>1551.54</ele>
        <time>2019-06-17T10:18:13Z</time>
      </trkpt>
      <trkpt lat="42.785002123564482" lon="13.164692893624306">
        <ele>1551.0999999999999</ele>
        <time>2019-06-17T10:18:18Z</time>
      </trkpt>
      <trkpt lat="42.784861223772168" lon="13.164854412898421">
        <ele>1550.54</ele>
        <time>2019-06-17T10:18:33Z</time>
      </trkpt>
      <trkpt lat="42.784794084727764" lon="13.164946949109435">
        <ele>1551.24</ele>
        <time>2019-06-17T10:18:44Z</time>
      </trkpt>
      <trkpt lat="42.784775895997882" lon="13.164980979636312">
        <ele>1550.0699999999999</ele>
        <time>2019-06-17T10:18:47Z</time>
      </trkpt>
      <trkpt lat="42.784744380041957" lon="13.165023056790233">
        <ele>1550.6199999999999</ele>
        <time>2019-06-17T10:18:51Z</time>
      </trkpt>
      <trkpt lat="42.784635331481695" lon="13.165171751752496">
        <ele>1549.8199999999999</ele>
        <time>2019-06-17T10:19:05Z</time>
      </trkpt>
      <trkpt lat="42.784508680924773" lon="13.165359422564507">
        <ele>1549.5699999999999</ele>
        <time>2019-06-17T10:19:21Z</time>
      </trkpt>
      <trkpt lat="42.784356968477368" lon="13.165568131953478">
        <ele>1549.9400000000001</ele>
        <time>2019-06-17T10:19:40Z</time>
      </trkpt>
      <trkpt lat="42.784236939623952" lon="13.165745995938778">
        <ele>1547.8900000000001</ele>
        <time>2019-06-17T10:19:55Z</time>
      </trkpt>
      <trkpt lat="42.784046838060021" lon="13.165991250425577">
        <ele>1549.25</ele>
        <time>2019-06-17T10:20:17Z</time>
      </trkpt>
      <trkpt lat="42.783876769244671" lon="13.166199708357453">
        <ele>1548.8099999999999</ele>
        <time>2019-06-17T10:20:35Z</time>
      </trkpt>
      <trkpt lat="42.783701252192259" lon="13.166416548192501">
        <ele>1548.8499999999999</ele>
        <time>2019-06-17T10:20:54Z</time>
      </trkpt>
      <trkpt lat="42.783545013517141" lon="13.166608158499002">
        <ele>1548.1900000000001</ele>
        <time>2019-06-17T10:21:11Z</time>
      </trkpt>
      <trkpt lat="42.783391457051039" lon="13.166793985292315">
        <ele>1548.6300000000001</ele>
        <time>2019-06-17T10:21:28Z</time>
      </trkpt>
      <trkpt lat="42.783193895593286" lon="13.166938070207834">
        <ele>1549.02</ele>
        <time>2019-06-17T10:21:46Z</time>
      </trkpt>
      <trkpt lat="42.782986024394631" lon="13.167092213407159">
        <ele>1548.8199999999999</ele>
        <time>2019-06-17T10:22:05Z</time>
      </trkpt>
      <trkpt lat="42.782758623361588" lon="13.167222971096635">
        <ele>1549.51</ele>
        <time>2019-06-17T10:22:25Z</time>
      </trkpt>
      <trkpt lat="42.782587297260761" lon="13.167323637753725">
        <ele>1550.1500000000001</ele>
        <time>2019-06-17T10:22:40Z</time>
      </trkpt>
      <trkpt lat="42.782392082735896" lon="13.167421454563737">
        <ele>1549.46</ele>
        <time>2019-06-17T10:22:57Z</time>
      </trkpt>
      <trkpt lat="42.782186893746257" lon="13.167497478425503">
        <ele>1551.03</ele>
        <time>2019-06-17T10:23:15Z</time>
      </trkpt>
      <trkpt lat="42.781992852687836" lon="13.167555565014482">
        <ele>1551.8499999999999</ele>
        <time>2019-06-17T10:23:32Z</time>
      </trkpt>
      <trkpt lat="42.78182596899569" lon="13.167592445388436">
        <ele>1553.04</ele>
        <time>2019-06-17T10:23:48Z</time>
      </trkpt>
      <trkpt lat="42.781657660380006" lon="13.167641228064895">
        <ele>1554.3499999999999</ele>
        <time>2019-06-17T10:24:04Z</time>
      </trkpt>
      <trkpt lat="42.781551377847791" lon="13.167665032669902">
        <ele>1554.2</ele>
        <time>2019-06-17T10:24:14Z</time>
      </trkpt>
      <trkpt lat="42.781517850235105" lon="13.167676851153374">
        <ele>1554.3699999999999</ele>
        <time>2019-06-17T10:24:28Z</time>
      </trkpt>
      <trkpt lat="42.781406035646796" lon="13.167737871408463">
        <ele>1554.3599999999999</ele>
        <time>2019-06-17T10:24:40Z</time>
      </trkpt>
      <trkpt lat="42.781259939074516" lon="13.16779101267457">
        <ele>1555.1099999999999</ele>
        <time>2019-06-17T10:24:55Z</time>
      </trkpt>
      <trkpt lat="42.781112669035792" lon="13.167822528630495">
        <ele>1556.1099999999999</ele>
        <time>2019-06-17T10:25:10Z</time>
      </trkpt>
      <trkpt lat="42.780924579128623" lon="13.16784574650228">
        <ele>1557.1600000000001</ele>
        <time>2019-06-17T10:25:29Z</time>
      </trkpt>
      <trkpt lat="42.780797593295574" lon="13.167883967980742">
        <ele>1557.5999999999999</ele>
        <time>2019-06-17T10:25:42Z</time>
      </trkpt>
      <trkpt lat="42.780650993809104" lon="13.167910454794765">
        <ele>1557.8199999999999</ele>
        <time>2019-06-17T10:25:55Z</time>
      </trkpt>
      <trkpt lat="42.780484864488244" lon="13.167899809777737">
        <ele>1558.04</ele>
        <time>2019-06-17T10:26:10Z</time>
      </trkpt>
      <trkpt lat="42.780335079878569" lon="13.167915735393763">
        <ele>1558.98</ele>
        <time>2019-06-17T10:26:24Z</time>
      </trkpt>
      <trkpt lat="42.780141290277243" lon="13.167945155873895">
        <ele>1558.9300000000001</ele>
        <time>2019-06-17T10:26:40Z</time>
      </trkpt>
      <trkpt lat="42.779996115714312" lon="13.167953873053193">
        <ele>1559.6099999999999</ele>
        <time>2019-06-17T10:26:53Z</time>
      </trkpt>
      <trkpt lat="42.779840799048543" lon="13.167984047904611">
        <ele>1559.75</ele>
        <time>2019-06-17T10:27:06Z</time>
      </trkpt>
      <trkpt lat="42.779800733551383" lon="13.168012127280235">
        <ele>1560.03</ele>
        <time>2019-06-17T10:27:16Z</time>
      </trkpt>
      <trkpt lat="42.77958414517343" lon="13.168038530275226">
        <ele>1560.8099999999999</ele>
        <time>2019-06-17T10:27:35Z</time>
      </trkpt>
      <trkpt lat="42.779377698898315" lon="13.168040541931987">
        <ele>1561.6600000000001</ele>
        <time>2019-06-17T10:27:53Z</time>
      </trkpt>
      <trkpt lat="42.77918784879148" lon="13.168019587174058">
        <ele>1562.0799999999999</ele>
        <time>2019-06-17T10:28:09Z</time>
      </trkpt>
      <trkpt lat="42.778973020613194" lon="13.16797373816371">
        <ele>1562.3699999999999</ele>
        <time>2019-06-17T10:28:27Z</time>
      </trkpt>
      <trkpt lat="42.778772357851267" lon="13.167930068448186">
        <ele>1564.0599999999999</ele>
        <time>2019-06-17T10:28:45Z</time>
      </trkpt>
      <trkpt lat="42.778753666207194" lon="13.167922692373395">
        <ele>1563.9300000000001</ele>
        <time>2019-06-17T10:28:50Z</time>
      </trkpt>
      <trkpt lat="42.77855945751071" lon="13.16785597242415">
        <ele>1565.1800000000001</ele>
        <time>2019-06-17T10:29:09Z</time>
      </trkpt>
      <trkpt lat="42.778403721749783" lon="13.167798640206456">
        <ele>1566.1800000000001</ele>
        <time>2019-06-17T10:29:23Z</time>
      </trkpt>
      <trkpt lat="42.778248321264982" lon="13.167706858366728">
        <ele>1566.8099999999999</ele>
        <time>2019-06-17T10:29:39Z</time>
      </trkpt>
      <trkpt lat="42.778091663494706" lon="13.167623123154044">
        <ele>1566.5</ele>
        <time>2019-06-17T10:29:57Z</time>
      </trkpt>
      <trkpt lat="42.777990410104394" lon="13.16763611510396">
        <ele>1565.49</ele>
        <time>2019-06-17T10:30:14Z</time>
      </trkpt>
      <trkpt lat="42.777963252738118" lon="13.167688669636846">
        <ele>1565.1400000000001</ele>
        <time>2019-06-17T10:30:25Z</time>
      </trkpt>
      <trkpt lat="42.777970628812909" lon="13.167717671021819">
        <ele>1565.4000000000001</ele>
        <time>2019-06-17T10:30:38Z</time>
      </trkpt>
      <trkpt lat="42.777955709025264" lon="13.16772454418242">
        <ele>1564.7</ele>
        <time>2019-06-17T10:30:40Z</time>
      </trkpt>
      <trkpt lat="42.777864765375853" lon="13.16766981035471">
        <ele>1565.5899999999999</ele>
        <time>2019-06-17T10:30:52Z</time>
      </trkpt>
      <trkpt lat="42.777821430936456" lon="13.167664362117648">
        <ele>1565.25</ele>
        <time>2019-06-17T10:30:56Z</time>
      </trkpt>
      <trkpt lat="42.777739791199565" lon="13.167649274691939">
        <ele>1565.3800000000001</ele>
        <time>2019-06-17T10:31:09Z</time>
      </trkpt>
      <trkpt lat="42.777735013514757" lon="13.167642652988434">
        <ele>1563.9000000000001</ele>
        <time>2019-06-17T10:31:19Z</time>
      </trkpt>
      <trkpt lat="42.777728727087379" lon="13.167640306055546">
        <ele>1564.45</ele>
        <time>2019-06-17T10:31:38Z</time>
      </trkpt>
      <trkpt lat="42.777733420953155" lon="13.167634019628167">
        <ele>1564.77</ele>
        <time>2019-06-17T10:31:53Z</time>
      </trkpt>
      <trkpt lat="42.777728894725442" lon="13.167634438723326">
        <ele>1564.3599999999999</ele>
        <time>2019-06-17T10:32:22Z</time>
      </trkpt>
      <trkpt lat="42.777729732915759" lon="13.167635863646865">
        <ele>1565.96</ele>
        <time>2019-06-17T10:32:34Z</time>
      </trkpt>
      <trkpt lat="42.777739120647311" lon="13.167634438723326">
        <ele>1564.48</ele>
        <time>2019-06-17T10:33:03Z</time>
      </trkpt>
      <trkpt lat="42.777738785371184" lon="13.167631672695279">
        <ele>1564.48</ele>
        <time>2019-06-17T10:33:16Z</time>
      </trkpt>
      <trkpt lat="42.777730235829949" lon="13.167638462036848">
        <ele>1564.1500000000001</ele>
        <time>2019-06-17T10:33:36Z</time>
      </trkpt>
      <trkpt lat="42.77772000990808" lon="13.167676012963057">
        <ele>1564.49</ele>
        <time>2019-06-17T10:34:21Z</time>
      </trkpt>
      <trkpt lat="42.777779437601566" lon="13.167816074565053">
        <ele>1564.49</ele>
        <time>2019-06-17T10:34:33Z</time>
      </trkpt>
      <trkpt lat="42.77780600823462" lon="13.167845830321312">
        <ele>1562.3099999999999</ele>
        <time>2019-06-17T10:34:36Z</time>
      </trkpt>
      <trkpt lat="42.77790566906333" lon="13.167972480878234">
        <ele>1560.51</ele>
        <time>2019-06-17T10:34:48Z</time>
      </trkpt>
      <trkpt lat="42.777961241081357" lon="13.168112458661199">
        <ele>1559.03</ele>
        <time>2019-06-17T10:34:59Z</time>
      </trkpt>
      <trkpt lat="42.777972724288702" lon="13.168167527765036">
        <ele>1558.72</ele>
        <time>2019-06-17T10:35:03Z</time>
      </trkpt>
      <trkpt lat="42.778013292700052" lon="13.168257046490908">
        <ele>1556.8099999999999</ele>
        <time>2019-06-17T10:35:11Z</time>
      </trkpt>
      <trkpt lat="42.778039108961821" lon="13.168352851644158">
        <ele>1555.1300000000001</ele>
        <time>2019-06-17T10:35:18Z</time>
      </trkpt>
      <trkpt lat="42.778076073154807" lon="13.168382858857512">
        <ele>1555.3499999999999</ele>
        <time>2019-06-17T10:35:23Z</time>
      </trkpt>
      <trkpt lat="42.777996445074677" lon="13.168254448100924">
        <ele>1556.24</ele>
        <time>2019-06-17T10:35:36Z</time>
      </trkpt>
      <trkpt lat="42.777982112020254" lon="13.168195858597755">
        <ele>1556.6600000000001</ele>
        <time>2019-06-17T10:35:40Z</time>
      </trkpt>
      <trkpt lat="42.777944980189204" lon="13.168148165568709">
        <ele>1558.26</ele>
        <time>2019-06-17T10:35:45Z</time>
      </trkpt>
      <trkpt lat="42.777906255796552" lon="13.168041966855526">
        <ele>1559.0799999999999</ele>
        <time>2019-06-17T10:35:53Z</time>
      </trkpt>
      <trkpt lat="42.777895191684365" lon="13.167957812547684">
        <ele>1559.9100000000001</ele>
        <time>2019-06-17T10:35:59Z</time>
      </trkpt>
      <trkpt lat="42.777825035154819" lon="13.167837951332331">
        <ele>1561.77</ele>
        <time>2019-06-17T10:36:11Z</time>
      </trkpt>
      <trkpt lat="42.777785556390882" lon="13.167751701548696">
        <ele>1562.98</ele>
        <time>2019-06-17T10:36:19Z</time>
      </trkpt>
      <trkpt lat="42.777770552784204" lon="13.167729489505291">
        <ele>1563.28</ele>
        <time>2019-06-17T10:36:22Z</time>
      </trkpt>
      <trkpt lat="42.777738953009248" lon="13.167704343795776">
        <ele>1564.3199999999999</ele>
        <time>2019-06-17T10:36:31Z</time>
      </trkpt>
      <trkpt lat="42.77772780507803" lon="13.16766251809895">
        <ele>1564.45</ele>
        <time>2019-06-17T10:36:47Z</time>
      </trkpt>
      <trkpt lat="42.777731325477362" lon="13.16764684394002">
        <ele>1563.28</ele>
        <time>2019-06-17T10:36:53Z</time>
      </trkpt>
      <trkpt lat="42.777730068191886" lon="13.167644497007132">
        <ele>1565.79</ele>
        <time>2019-06-17T10:36:55Z</time>
      </trkpt>
      <trkpt lat="42.777715316042304" lon="13.167657908052206">
        <ele>1563.9400000000001</ele>
        <time>2019-06-17T10:37:13Z</time>
      </trkpt>
      <trkpt lat="42.77772193774581" lon="13.167665200307965">
        <ele>1564.25</ele>
        <time>2019-06-17T10:37:51Z</time>
      </trkpt>
      <trkpt lat="42.77773367241025" lon="13.167663188651204">
        <ele>1564.21</ele>
        <time>2019-06-17T10:38:25Z</time>
      </trkpt>
      <trkpt lat="42.777737192809582" lon="13.167670229449868">
        <ele>1563.98</ele>
        <time>2019-06-17T10:38:57Z</time>
      </trkpt>
      <trkpt lat="42.777735348790884" lon="13.167660506442189">
        <ele>1564.27</ele>
        <time>2019-06-17T10:39:52Z</time>
      </trkpt>
      <trkpt lat="42.777731828391552" lon="13.167660757899284">
        <ele>1564.46</ele>
        <time>2019-06-17T10:40:27Z</time>
      </trkpt>
      <trkpt lat="42.777730571106076" lon="13.167663188651204">
        <ele>1564.25</ele>
        <time>2019-06-17T10:41:24Z</time>
      </trkpt>
      <trkpt lat="42.777729313820601" lon="13.167656483128667">
        <ele>1564.6500000000001</ele>
        <time>2019-06-17T10:42:04Z</time>
      </trkpt>
      <trkpt lat="42.77772830799222" lon="13.167651034891605">
        <ele>1564.3199999999999</ele>
        <time>2019-06-17T10:42:57Z</time>
      </trkpt>
      <trkpt lat="42.777725793421268" lon="13.167659919708967">
        <ele>1564.6800000000001</ele>
        <time>2019-06-17T10:43:51Z</time>
      </trkpt>
      <trkpt lat="42.777725541964173" lon="13.167660338804126">
        <ele>1565.0599999999999</ele>
        <time>2019-06-17T10:44:38Z</time>
      </trkpt>
      <trkpt lat="42.777720177546144" lon="13.167657908052206">
        <ele>1564.4300000000001</ele>
        <time>2019-06-17T10:45:27Z</time>
      </trkpt>
      <trkpt lat="42.777722105383873" lon="13.167663104832172">
        <ele>1564.5799999999999</ele>
        <time>2019-06-17T10:46:08Z</time>
      </trkpt>
      <trkpt lat="42.777717662975192" lon="13.167664278298616">
        <ele>1564.22</ele>
        <time>2019-06-17T10:47:11Z</time>
      </trkpt>
      <trkpt lat="42.777720848098397" lon="13.167657908052206">
        <ele>1565.21</ele>
        <time>2019-06-17T10:48:15Z</time>
      </trkpt>
      <trkpt lat="42.777721015736461" lon="13.167645670473576">
        <ele>1564.5</ele>
        <time>2019-06-17T10:48:31Z</time>
      </trkpt>
      <trkpt lat="42.777731912210584" lon="13.167625805363059">
        <ele>1564.1800000000001</ele>
        <time>2019-06-17T10:49:08Z</time>
      </trkpt>
      <trkpt lat="42.777739455923438" lon="13.167607113718987">
        <ele>1563.3800000000001</ele>
        <time>2019-06-17T10:49:50Z</time>
      </trkpt>
      <trkpt lat="42.777724200859666" lon="13.167639719322324">
        <ele>1563.73</ele>
        <time>2019-06-17T10:50:09Z</time>
      </trkpt>
      <trkpt lat="42.77772487141192" lon="13.167643826454878">
        <ele>1564.0899999999999</ele>
        <time>2019-06-17T10:51:16Z</time>
      </trkpt>
      <trkpt lat="42.777722105383873" lon="13.167646005749702">
        <ele>1563.98</ele>
        <time>2019-06-17T10:52:20Z</time>
      </trkpt>
      <trkpt lat="42.777724452316761" lon="13.167646424844861">
        <ele>1564.3099999999999</ele>
        <time>2019-06-17T10:52:55Z</time>
      </trkpt>
      <trkpt lat="42.777736773714423" lon="13.167620776221156">
        <ele>1563.95</ele>
        <time>2019-06-17T10:53:21Z</time>
      </trkpt>
      <trkpt lat="42.777721267193556" lon="13.167645586654544">
        <ele>1563.8499999999999</ele>
        <time>2019-06-17T10:53:42Z</time>
      </trkpt>
      <trkpt lat="42.777719171717763" lon="13.167651956900954">
        <ele>1563.8299999999999</ele>
        <time>2019-06-17T10:54:39Z</time>
      </trkpt>
      <trkpt lat="42.777721686288714" lon="13.167656902223825">
        <ele>1563.9000000000001</ele>
        <time>2019-06-17T10:55:34Z</time>
      </trkpt>
      <trkpt lat="42.777723865583539" lon="13.167654639109969">
        <ele>1564.0599999999999</ele>
        <time>2019-06-17T10:56:11Z</time>
      </trkpt>
      <trkpt lat="42.777728391811252" lon="13.167645586654544">
        <ele>1563.8900000000001</ele>
        <time>2019-06-17T10:57:16Z</time>
      </trkpt>
      <trkpt lat="42.777728056535125" lon="13.167651537805796">
        <ele>1564.0899999999999</ele>
        <time>2019-06-17T10:58:16Z</time>
      </trkpt>
      <trkpt lat="42.777729313820601" lon="13.167643826454878">
        <ele>1563.96</ele>
        <time>2019-06-17T10:59:18Z</time>
      </trkpt>
      <trkpt lat="42.777736857533455" lon="13.167624631896615">
        <ele>1562.79</ele>
        <time>2019-06-17T10:59:52Z</time>
      </trkpt>
      <trkpt lat="42.777742389589548" lon="13.167606359347701">
        <ele>1562.74</ele>
        <time>2019-06-17T11:00:31Z</time>
      </trkpt>
      <trkpt lat="42.777742641046643" lon="13.167597223073244">
        <ele>1563.75</ele>
        <time>2019-06-17T11:00:50Z</time>
      </trkpt>
      <trkpt lat="42.777730654925108" lon="13.167620189487934">
        <ele>1563.49</ele>
        <time>2019-06-17T11:01:11Z</time>
      </trkpt>
      <trkpt lat="42.777722105383873" lon="13.167644329369068">
        <ele>1564.4200000000001</ele>
        <time>2019-06-17T11:01:51Z</time>
      </trkpt>
      <trkpt lat="42.777720596641302" lon="13.167652459815145">
        <ele>1564.9300000000001</ele>
        <time>2019-06-17T11:03:13Z</time>
      </trkpt>
      <trkpt lat="42.777725122869015" lon="13.167646760120988">
        <ele>1564.71</ele>
        <time>2019-06-17T11:04:14Z</time>
      </trkpt>
      <trkpt lat="42.777720596641302" lon="13.167653381824493">
        <ele>1564.7</ele>
        <time>2019-06-17T11:05:26Z</time>
      </trkpt>
      <trkpt lat="42.777722608298063" lon="13.167652627453208">
        <ele>1564.47</ele>
        <time>2019-06-17T11:06:46Z</time>
      </trkpt>
      <trkpt lat="42.777730235829949" lon="13.167645335197449">
        <ele>1564.3699999999999</ele>
        <time>2019-06-17T11:07:46Z</time>
      </trkpt>
      <trkpt lat="42.777733169496059" lon="13.167637791484594">
        <ele>1563.8499999999999</ele>
        <time>2019-06-17T11:09:02Z</time>
      </trkpt>
      <trkpt lat="42.777731074020267" lon="13.167640222236514">
        <ele>1563.76</ele>
        <time>2019-06-17T11:10:18Z</time>
      </trkpt>
      <trkpt lat="42.777732834219933" lon="13.167631085962057">
        <ele>1563.8599999999999</ele>
        <time>2019-06-17T11:11:40Z</time>
      </trkpt>
      <trkpt lat="42.777727218344808" lon="13.167626056820154">
        <ele>1563.95</ele>
        <time>2019-06-17T11:13:03Z</time>
      </trkpt>
      <trkpt lat="42.777736019343138" lon="13.167622117325664">
        <ele>1563.1500000000001</ele>
        <time>2019-06-17T11:14:17Z</time>
      </trkpt>
      <trkpt lat="42.777731912210584" lon="13.167620021849871">
        <ele>1563.0799999999999</ele>
        <time>2019-06-17T11:15:38Z</time>
      </trkpt>
      <trkpt lat="42.777730990201235" lon="13.167621279135346">
        <ele>1562.8099999999999</ele>
        <time>2019-06-17T11:17:06Z</time>
      </trkpt>
      <trkpt lat="42.777738533914089" lon="13.167615244165063">
        <ele>1562.8099999999999</ele>
        <time>2019-06-17T11:18:09Z</time>
      </trkpt>
      <trkpt lat="42.777736354619265" lon="13.167610047385097">
        <ele>1562.5</ele>
        <time>2019-06-17T11:19:43Z</time>
      </trkpt>
      <trkpt lat="42.777735851705074" lon="13.167610298842192">
        <ele>1562.04</ele>
        <time>2019-06-17T11:21:09Z</time>
      </trkpt>
      <trkpt lat="42.777733504772186" lon="13.167619435116649">
        <ele>1562.1199999999999</ele>
        <time>2019-06-17T11:22:16Z</time>
      </trkpt>
      <trkpt lat="42.777735432609916" lon="13.167620608583093">
        <ele>1561.8499999999999</ele>
        <time>2019-06-17T11:23:36Z</time>
      </trkpt>
      <trkpt lat="42.777729565277696" lon="13.167629074305296">
        <ele>1562.53</ele>
        <time>2019-06-17T11:24:48Z</time>
      </trkpt>
      <trkpt lat="42.777730403468013" lon="13.167623458430171">
        <ele>1562.49</ele>
        <time>2019-06-17T11:25:41Z</time>
      </trkpt>
      <trkpt lat="42.777732750400901" lon="13.167611556127667">
        <ele>1562.0999999999999</ele>
        <time>2019-06-17T11:26:37Z</time>
      </trkpt>
      <trkpt lat="42.777721853926778" lon="13.16762681119144">
        <ele>1562.05</ele>
        <time>2019-06-17T11:27:31Z</time>
      </trkpt>
      <trkpt lat="42.777725709602237" lon="13.16762781701982">
        <ele>1561.9100000000001</ele>
        <time>2019-06-17T11:28:31Z</time>
      </trkpt>
      <trkpt lat="42.777730152010918" lon="13.1676253862679">
        <ele>1562.3599999999999</ele>
        <time>2019-06-17T11:28:58Z</time>
      </trkpt>
      <trkpt lat="42.777730571106076" lon="13.167626978829503">
        <ele>1561.73</ele>
        <time>2019-06-17T11:30:07Z</time>
      </trkpt>
      <trkpt lat="42.777738030999899" lon="13.167624464258552">
        <ele>1562.05</ele>
        <time>2019-06-17T11:31:33Z</time>
      </trkpt>
      <trkpt lat="42.777732163667679" lon="13.167621530592442">
        <ele>1561.8499999999999</ele>
        <time>2019-06-17T11:32:52Z</time>
      </trkpt>
      <trkpt lat="42.777728475630283" lon="13.167615076526999">
        <ele>1562.0599999999999</ele>
        <time>2019-06-17T11:33:42Z</time>
      </trkpt>
      <trkpt lat="42.777727553620934" lon="13.167618848383427">
        <ele>1561.8499999999999</ele>
        <time>2019-06-17T11:35:12Z</time>
      </trkpt>
      <trkpt lat="42.777729146182537" lon="13.167611975222826">
        <ele>1561.3</ele>
        <time>2019-06-17T11:36:38Z</time>
      </trkpt>
      <trkpt lat="42.777726296335459" lon="13.167612394317985">
        <ele>1561.1700000000001</ele>
        <time>2019-06-17T11:38:07Z</time>
      </trkpt>
      <trkpt lat="42.777731325477362" lon="13.167618932202458">
        <ele>1561.78</ele>
        <time>2019-06-17T11:38:31Z</time>
      </trkpt>
      <trkpt lat="42.777736354619265" lon="13.167646257206798">
        <ele>1562.1500000000001</ele>
        <time>2019-06-17T11:38:43Z</time>
      </trkpt>
      <trkpt lat="42.777731157839298" lon="13.16764391027391">
        <ele>1562.1600000000001</ele>
        <time>2019-06-17T11:38:59Z</time>
      </trkpt>
      <trkpt lat="42.777736941352487" lon="13.167644999921322">
        <ele>1561.29</ele>
        <time>2019-06-17T11:39:14Z</time>
      </trkpt>
      <trkpt lat="42.777761584147811" lon="13.16768154501915">
        <ele>1561.8699999999999</ele>
        <time>2019-06-17T11:39:37Z</time>
      </trkpt>
      <trkpt lat="42.777784047648311" lon="13.16779151558876">
        <ele>1561.04</ele>
        <time>2019-06-17T11:39:51Z</time>
      </trkpt>
      <trkpt lat="42.777807516977191" lon="13.167880866676569">
        <ele>1559.9200000000001</ele>
        <time>2019-06-17T11:39:58Z</time>
      </trkpt>
      <trkpt lat="42.777869207784534" lon="13.168003661558032">
        <ele>1558.28</ele>
        <time>2019-06-17T11:40:11Z</time>
      </trkpt>
      <trkpt lat="42.777950763702393" lon="13.168147578835487">
        <ele>1556.27</ele>
        <time>2019-06-17T11:40:25Z</time>
      </trkpt>
      <trkpt lat="42.778017399832606" lon="13.168279174715281">
        <ele>1554.48</ele>
        <time>2019-06-17T11:40:40Z</time>
      </trkpt>
      <trkpt lat="42.778068361803889" lon="13.168329047039151">
        <ele>1553.99</ele>
        <time>2019-06-17T11:40:53Z</time>
      </trkpt>
      <trkpt lat="42.778211776167154" lon="13.168449746444821">
        <ele>1550.52</ele>
        <time>2019-06-17T11:41:11Z</time>
      </trkpt>
      <trkpt lat="42.778387125581503" lon="13.168580420315266">
        <ele>1547.9400000000001</ele>
        <time>2019-06-17T11:41:31Z</time>
      </trkpt>
      <trkpt lat="42.778421826660633" lon="13.168596681207418">
        <ele>1546.6700000000001</ele>
        <time>2019-06-17T11:41:35Z</time>
      </trkpt>
      <trkpt lat="42.778551494702697" lon="13.168690474703908">
        <ele>1544.99</ele>
        <time>2019-06-17T11:41:51Z</time>
      </trkpt>
      <trkpt lat="42.778570605441928" lon="13.168699024245143">
        <ele>1544.3099999999999</ele>
        <time>2019-06-17T11:41:53Z</time>
      </trkpt>
      <trkpt lat="42.778751570731401" lon="13.168752416968346">
        <ele>1541.96</ele>
        <time>2019-06-17T11:42:11Z</time>
      </trkpt>
      <trkpt lat="42.778925830498338" lon="13.168806144967675">
        <ele>1540.0999999999999</ele>
        <time>2019-06-17T11:42:28Z</time>
      </trkpt>
      <trkpt lat="42.779065053910017" lon="13.168861297890544">
        <ele>1538.1099999999999</ele>
        <time>2019-06-17T11:42:43Z</time>
      </trkpt>
      <trkpt lat="42.779216431081295" lon="13.168913098052144">
        <ele>1536.1500000000001</ele>
        <time>2019-06-17T11:42:58Z</time>
      </trkpt>
      <trkpt lat="42.779406951740384" lon="13.168986272066832">
        <ele>1533.78</ele>
        <time>2019-06-17T11:43:18Z</time>
      </trkpt>
      <trkpt lat="42.779585318639874" lon="13.169051315635443">
        <ele>1530.72</ele>
        <time>2019-06-17T11:43:36Z</time>
      </trkpt>
      <trkpt lat="42.779770558699965" lon="13.169125914573669">
        <ele>1528.21</ele>
        <time>2019-06-17T11:43:54Z</time>
      </trkpt>
      <trkpt lat="42.779966024681926" lon="13.169195987284184">
        <ele>1525.3099999999999</ele>
        <time>2019-06-17T11:44:14Z</time>
      </trkpt>
      <trkpt lat="42.780147744342685" lon="13.1692710891366">
        <ele>1523.21</ele>
        <time>2019-06-17T11:44:32Z</time>
      </trkpt>
      <trkpt lat="42.780300714075565" lon="13.169327499344945">
        <ele>1521.76</ele>
        <time>2019-06-17T11:44:47Z</time>
      </trkpt>
      <trkpt lat="42.780487546697259" lon="13.169389441609383">
        <ele>1520.1099999999999</ele>
        <time>2019-06-17T11:45:05Z</time>
      </trkpt>
      <trkpt lat="42.780681168660522" lon="13.169435877352953">
        <ele>1518.4000000000001</ele>
        <time>2019-06-17T11:45:23Z</time>
      </trkpt>
      <trkpt lat="42.780842855572701" lon="13.169453479349613">
        <ele>1516.27</ele>
        <time>2019-06-17T11:45:39Z</time>
      </trkpt>
      <trkpt lat="42.781037399545312" lon="13.169467225670815">
        <ele>1514.4200000000001</ele>
        <time>2019-06-17T11:45:57Z</time>
      </trkpt>
      <trkpt lat="42.78123714029789" lon="13.16948264837265">
        <ele>1512.95</ele>
        <time>2019-06-17T11:46:16Z</time>
      </trkpt>
      <trkpt lat="42.781471749767661" lon="13.169482983648777">
        <ele>1511.25</ele>
        <time>2019-06-17T11:46:38Z</time>
      </trkpt>
      <trkpt lat="42.781635029241443" lon="13.169411905109882">
        <ele>1510.6199999999999</ele>
        <time>2019-06-17T11:46:56Z</time>
      </trkpt>
      <trkpt lat="42.781736953184009" lon="13.169333953410387">
        <ele>1510.3099999999999</ele>
        <time>2019-06-17T11:47:09Z</time>
      </trkpt>
      <trkpt lat="42.7817771025002" lon="13.169299000874162">
        <ele>1510.28</ele>
        <time>2019-06-17T11:47:14Z</time>
      </trkpt>
      <trkpt lat="42.781943399459124" lon="13.169232616201043">
        <ele>1511.21</ele>
        <time>2019-06-17T11:47:31Z</time>
      </trkpt>
      <trkpt lat="42.782103829085827" lon="13.169274274259806">
        <ele>1510.3399999999999</ele>
        <time>2019-06-17T11:47:47Z</time>
      </trkpt>
      <trkpt lat="42.782302647829056" lon="13.169391872361302">
        <ele>1507.21</ele>
        <time>2019-06-17T11:48:07Z</time>
      </trkpt>
      <trkpt lat="42.782447738572955" lon="13.169518774375319">
        <ele>1504.01</ele>
        <time>2019-06-17T11:48:23Z</time>
      </trkpt>
      <trkpt lat="42.782521583139896" lon="13.169546853750944">
        <ele>1502.48</ele>
        <time>2019-06-17T11:48:30Z</time>
      </trkpt>
      <trkpt lat="42.782690729945898" lon="13.169518942013383">
        <ele>1500.25</ele>
        <time>2019-06-17T11:48:46Z</time>
      </trkpt>
      <trkpt lat="42.782830623909831" lon="13.169520450755954">
        <ele>1497.26</ele>
        <time>2019-06-17T11:49:00Z</time>
      </trkpt>
      <trkpt lat="42.782930955290794" lon="13.169503854587674">
        <ele>1494.21</ele>
        <time>2019-06-17T11:49:11Z</time>
      </trkpt>
      <trkpt lat="42.783123571425676" lon="13.169463286176324">
        <ele>1491</ele>
        <time>2019-06-17T11:49:30Z</time>
      </trkpt>
      <trkpt lat="42.783240498974919" lon="13.169450545683503">
        <ele>1488.73</ele>
        <time>2019-06-17T11:49:43Z</time>
      </trkpt>
      <trkpt lat="42.783323479816318" lon="13.169406708329916">
        <ele>1487.51</ele>
        <time>2019-06-17T11:49:52Z</time>
      </trkpt>
      <trkpt lat="42.783371089026332" lon="13.169360691681504">
        <ele>1486.6600000000001</ele>
        <time>2019-06-17T11:50:04Z</time>
      </trkpt>
      <trkpt lat="42.783378465101123" lon="13.16935951821506">
        <ele>1486.5599999999999</ele>
        <time>2019-06-17T11:50:06Z</time>
      </trkpt>
      <trkpt lat="42.783523388206959" lon="13.169331522658467">
        <ele>1483.22</ele>
        <time>2019-06-17T11:50:23Z</time>
      </trkpt>
      <trkpt lat="42.783607793971896" lon="13.169328505173326">
        <ele>1480.02</ele>
        <time>2019-06-17T11:50:34Z</time>
      </trkpt>
      <trkpt lat="42.783682644367218" lon="13.169372761622071">
        <ele>1477.3900000000001</ele>
        <time>2019-06-17T11:50:46Z</time>
      </trkpt>
      <trkpt lat="42.783758919686079" lon="13.169380724430084">
        <ele>1474.4200000000001</ele>
        <time>2019-06-17T11:50:57Z</time>
      </trkpt>
      <trkpt lat="42.783830333501101" lon="13.169340826570988">
        <ele>1471.76</ele>
        <time>2019-06-17T11:51:08Z</time>
      </trkpt>
      <trkpt lat="42.783851874992251" lon="13.169371671974659">
        <ele>1468.4300000000001</ele>
        <time>2019-06-17T11:51:13Z</time>
      </trkpt>
      <trkpt lat="42.783849947154522" lon="13.169409055262804">
        <ele>1469.2</ele>
        <time>2019-06-17T11:51:16Z</time>
      </trkpt>
      <trkpt lat="42.78383226133883" lon="13.169452808797359">
        <ele>1469.23</ele>
        <time>2019-06-17T11:51:20Z</time>
      </trkpt>
      <trkpt lat="42.783729750663042" lon="13.169544003903866">
        <ele>1466</ele>
        <time>2019-06-17T11:51:35Z</time>
      </trkpt>
      <trkpt lat="42.783827567473054" lon="13.169545847922564">
        <ele>1464.3199999999999</ele>
        <time>2019-06-17T11:51:47Z</time>
      </trkpt>
      <trkpt lat="42.783836871385574" lon="13.169544758275151">
        <ele>1463.9000000000001</ele>
        <time>2019-06-17T11:51:48Z</time>
      </trkpt>
      <trkpt lat="42.783903004601598" lon="13.169516930356622">
        <ele>1462.3800000000001</ele>
        <time>2019-06-17T11:51:55Z</time>
      </trkpt>
      <trkpt lat="42.78401548974216" lon="13.16948457621038">
        <ele>1459.54</ele>
        <time>2019-06-17T11:52:09Z</time>
      </trkpt>
      <trkpt lat="42.784131914377213" lon="13.169431602582335">
        <ele>1457.45</ele>
        <time>2019-06-17T11:52:22Z</time>
      </trkpt>
      <trkpt lat="42.784230150282383" lon="13.16946504637599">
        <ele>1454.78</ele>
        <time>2019-06-17T11:52:35Z</time>
      </trkpt>
      <trkpt lat="42.784344982355833" lon="13.169486671686172">
        <ele>1451.6700000000001</ele>
        <time>2019-06-17T11:52:50Z</time>
      </trkpt>
      <trkpt lat="42.784438021481037" lon="13.169529251754284">
        <ele>1448.6900000000001</ele>
        <time>2019-06-17T11:53:03Z</time>
      </trkpt>
      <trkpt lat="42.784505160525441" lon="13.169529587030411">
        <ele>1447.53</ele>
        <time>2019-06-17T11:53:14Z</time>
      </trkpt>
      <trkpt lat="42.78464094735682" lon="13.16957937553525">
        <ele>1444.4400000000001</ele>
        <time>2019-06-17T11:53:30Z</time>
      </trkpt>
      <trkpt lat="42.784791570156813" lon="13.169597312808037">
        <ele>1441.76</ele>
        <time>2019-06-17T11:53:45Z</time>
      </trkpt>
      <trkpt lat="42.78491260483861" lon="13.169638467952609">
        <ele>1438.9300000000001</ele>
        <time>2019-06-17T11:53:59Z</time>
      </trkpt>
      <trkpt lat="42.785034561529756" lon="13.169663278385997">
        <ele>1436.1900000000001</ele>
        <time>2019-06-17T11:54:13Z</time>
      </trkpt>
      <trkpt lat="42.785104718059301" lon="13.169670905917883">
        <ele>1435.1900000000001</ele>
        <time>2019-06-17T11:54:20Z</time>
      </trkpt>
      <trkpt lat="42.785236230120063" lon="13.16967710852623">
        <ele>1431.95</ele>
        <time>2019-06-17T11:54:34Z</time>
      </trkpt>
      <trkpt lat="42.785382745787501" lon="13.169661853462458">
        <ele>1428.55</ele>
        <time>2019-06-17T11:54:50Z</time>
      </trkpt>
      <trkpt lat="42.785493135452271" lon="13.169677946716547">
        <ele>1425.53</ele>
        <time>2019-06-17T11:55:01Z</time>
      </trkpt>
      <trkpt lat="42.78568365611136" lon="13.169677779078484">
        <ele>1422.8399999999999</ele>
        <time>2019-06-17T11:55:20Z</time>
      </trkpt>
      <trkpt lat="42.785894377157092" lon="13.169638384133577">
        <ele>1420.98</ele>
        <time>2019-06-17T11:55:40Z</time>
      </trkpt>
      <trkpt lat="42.786088921129704" lon="13.169569736346602">
        <ele>1420.1900000000001</ele>
        <time>2019-06-17T11:55:59Z</time>
      </trkpt>
      <trkpt lat="42.786242309957743" lon="13.169480720534921">
        <ele>1417.79</ele>
        <time>2019-06-17T11:56:15Z</time>
      </trkpt>
      <trkpt lat="42.786394441500306" lon="13.169362116605043">
        <ele>1415.8099999999999</ele>
        <time>2019-06-17T11:56:32Z</time>
      </trkpt>
      <trkpt lat="42.786511788144708" lon="13.169231358915567">
        <ele>1412.8399999999999</ele>
        <time>2019-06-17T11:56:48Z</time>
      </trkpt>
      <trkpt lat="42.786507681012154" lon="13.169152736663818">
        <ele>1411.01</ele>
        <time>2019-06-17T11:56:56Z</time>
      </trkpt>
      <trkpt lat="42.786554116755724" lon="13.169034300372005">
        <ele>1409.1800000000001</ele>
        <time>2019-06-17T11:57:07Z</time>
      </trkpt>
      <trkpt lat="42.786588063463569" lon="13.169008484110236">
        <ele>1408.7</ele>
        <time>2019-06-17T11:57:11Z</time>
      </trkpt>
      <trkpt lat="42.78661354444921" lon="13.168994821608067">
        <ele>1408.1800000000001</ele>
        <time>2019-06-17T11:57:14Z</time>
      </trkpt>
      <trkpt lat="42.786723263561726" lon="13.169062631204724">
        <ele>1406.1199999999999</ele>
        <time>2019-06-17T11:57:29Z</time>
      </trkpt>
      <trkpt lat="42.786792162805796" lon="13.169165225699544">
        <ele>1404.1099999999999</ele>
        <time>2019-06-17T11:57:43Z</time>
      </trkpt>
      <trkpt lat="42.786819571629167" lon="13.169203447178006">
        <ele>1403.26</ele>
        <time>2019-06-17T11:58:04Z</time>
      </trkpt>
      <trkpt lat="42.786877155303955" lon="13.169291289523244">
        <ele>1400.73</ele>
        <time>2019-06-17T11:58:16Z</time>
      </trkpt>
      <trkpt lat="42.786905821412802" lon="13.169363792985678">
        <ele>1397.9300000000001</ele>
        <time>2019-06-17T11:58:28Z</time>
      </trkpt>
      <trkpt lat="42.7869853656739" lon="13.16945037804544">
        <ele>1395.8499999999999</ele>
        <time>2019-06-17T11:58:41Z</time>
      </trkpt>
      <trkpt lat="42.787012020125985" lon="13.169489270076156">
        <ele>1395.8800000000001</ele>
        <time>2019-06-17T11:58:46Z</time>
      </trkpt>
      <trkpt lat="42.787141520529985" lon="13.169549955055118">
        <ele>1393.8399999999999</ele>
        <time>2019-06-17T11:59:02Z</time>
      </trkpt>
      <trkpt lat="42.78719499707222" lon="13.169570323079824">
        <ele>1392.9000000000001</ele>
        <time>2019-06-17T11:59:08Z</time>
      </trkpt>
      <trkpt lat="42.787343692034483" lon="13.169630169868469">
        <ele>1389.72</ele>
        <time>2019-06-17T11:59:23Z</time>
      </trkpt>
      <trkpt lat="42.787493895739317" lon="13.169637713581324">
        <ele>1386.5799999999999</ele>
        <time>2019-06-17T11:59:37Z</time>
      </trkpt>
      <trkpt lat="42.787634041160345" lon="13.1696458440274">
        <ele>1383.3800000000001</ele>
        <time>2019-06-17T11:59:52Z</time>
      </trkpt>
      <trkpt lat="42.787765553221107" lon="13.16968540661037">
        <ele>1380.23</ele>
        <time>2019-06-17T12:00:07Z</time>
      </trkpt>
      <trkpt lat="42.787929754704237" lon="13.169699320569634">
        <ele>1376.9200000000001</ele>
        <time>2019-06-17T12:00:25Z</time>
      </trkpt>
      <trkpt lat="42.788086831569672" lon="13.169716252014041">
        <ele>1373.8199999999999</ele>
        <time>2019-06-17T12:00:42Z</time>
      </trkpt>
      <trkpt lat="42.788203172385693" lon="13.169740475714207">
        <ele>1371.3699999999999</ele>
        <time>2019-06-17T12:00:57Z</time>
      </trkpt>
      <trkpt lat="42.788326889276505" lon="13.169733351096511">
        <ele>1368.1099999999999</ele>
        <time>2019-06-17T12:01:10Z</time>
      </trkpt>
      <trkpt lat="42.78845127671957" lon="13.169727819040418">
        <ele>1364.99</ele>
        <time>2019-06-17T12:01:23Z</time>
      </trkpt>
      <trkpt lat="42.788620172068477" lon="13.169737290591002">
        <ele>1361.8800000000001</ele>
        <time>2019-06-17T12:01:40Z</time>
      </trkpt>
      <trkpt lat="42.788631655275822" lon="13.169745923951268">
        <ele>1361.72</ele>
        <time>2019-06-17T12:01:57Z</time>
      </trkpt>
      <trkpt lat="42.788663171231747" lon="13.169753635302186">
        <ele>1360.8399999999999</ele>
        <time>2019-06-17T12:02:08Z</time>
      </trkpt>
      <trkpt lat="42.788712624460459" lon="13.16976897418499">
        <ele>1360.04</ele>
        <time>2019-06-17T12:02:18Z</time>
      </trkpt>
      <trkpt lat="42.788721174001694" lon="13.169768722727895">
        <ele>1359.8</ele>
        <time>2019-06-17T12:02:19Z</time>
      </trkpt>
      <trkpt lat="42.788875820115209" lon="13.169756149873137">
        <ele>1357.26</ele>
        <time>2019-06-17T12:02:35Z</time>
      </trkpt>
      <trkpt lat="42.789013534784317" lon="13.169751539826393">
        <ele>1355.05</ele>
        <time>2019-06-17T12:02:48Z</time>
      </trkpt>
      <trkpt lat="42.789071369916201" lon="13.169746175408363">
        <ele>1354.1800000000001</ele>
        <time>2019-06-17T12:02:57Z</time>
      </trkpt>
      <trkpt lat="42.789098527282476" lon="13.16974651068449">
        <ele>1353.9300000000001</ele>
        <time>2019-06-17T12:03:00Z</time>
      </trkpt>
      <trkpt lat="42.789281839504838" lon="13.169740224257112">
        <ele>1351.7</ele>
        <time>2019-06-17T12:03:17Z</time>
      </trkpt>
      <trkpt lat="42.789517790079117" lon="13.169714156538248">
        <ele>1349.1700000000001</ele>
        <time>2019-06-17T12:03:38Z</time>
      </trkpt>
      <trkpt lat="42.78970604762435" lon="13.16968834027648">
        <ele>1347.1800000000001</ele>
        <time>2019-06-17T12:03:55Z</time>
      </trkpt>
      <trkpt lat="42.789871925488114" lon="13.169667804613709">
        <ele>1344.5999999999999</ele>
        <time>2019-06-17T12:04:10Z</time>
      </trkpt>
      <trkpt lat="42.789952307939529" lon="13.169665541499853">
        <ele>1343.1700000000001</ele>
        <time>2019-06-17T12:04:18Z</time>
      </trkpt>
      <trkpt lat="42.790104607120156" lon="13.169706361368299">
        <ele>1340.4300000000001</ele>
        <time>2019-06-17T12:04:34Z</time>
      </trkpt>
      <trkpt lat="42.790297055616975" lon="13.169818930327892">
        <ele>1337.98</ele>
        <time>2019-06-17T12:04:53Z</time>
      </trkpt>
      <trkpt lat="42.790470058098435" lon="13.169891182333231">
        <ele>1335.71</ele>
        <time>2019-06-17T12:05:09Z</time>
      </trkpt>
      <trkpt lat="42.790655717253685" lon="13.169996123760939">
        <ele>1334.6400000000001</ele>
        <time>2019-06-17T12:05:28Z</time>
      </trkpt>
      <trkpt lat="42.790720006451011" lon="13.170021269470453">
        <ele>1334.28</ele>
        <time>2019-06-17T12:05:43Z</time>
      </trkpt>
      <trkpt lat="42.790717910975218" lon="13.170015402138233">
        <ele>1333.6700000000001</ele>
        <time>2019-06-17T12:05:57Z</time>
      </trkpt>
      <trkpt lat="42.790711289271712" lon="13.170060832053423">
        <ele>1333.6300000000001</ele>
        <time>2019-06-17T12:06:09Z</time>
      </trkpt>
      <trkpt lat="42.790709026157856" lon="13.170077344402671">
        <ele>1333.22</ele>
        <time>2019-06-17T12:06:22Z</time>
      </trkpt>
      <trkpt lat="42.79077566228807" lon="13.170066364109516">
        <ele>1333.6900000000001</ele>
        <time>2019-06-17T12:06:41Z</time>
      </trkpt>
      <trkpt lat="42.79079913161695" lon="13.17008170299232">
        <ele>1333.3299999999999</ele>
        <time>2019-06-17T12:06:47Z</time>
      </trkpt>
      <trkpt lat="42.790828049182892" lon="13.170086899772286">
        <ele>1333.1900000000001</ele>
        <time>2019-06-17T12:06:50Z</time>
      </trkpt>
      <trkpt lat="42.790989484637976" lon="13.170089079067111">
        <ele>1332.46</ele>
        <time>2019-06-17T12:07:07Z</time>
      </trkpt>
      <trkpt lat="42.791055450215936" lon="13.170063765719533">
        <ele>1332.1400000000001</ele>
        <time>2019-06-17T12:07:18Z</time>
      </trkpt>
      <trkpt lat="42.791103897616267" lon="13.170054126530886">
        <ele>1331.79</ele>
        <time>2019-06-17T12:07:31Z</time>
      </trkpt>
      <trkpt lat="42.791103143244982" lon="13.170059323310852">
        <ele>1330.77</ele>
        <time>2019-06-17T12:07:42Z</time>
      </trkpt>
      <trkpt lat="42.791110938414931" lon="13.170060999691486">
        <ele>1331.0899999999999</ele>
        <time>2019-06-17T12:07:59Z</time>
      </trkpt>
      <trkpt lat="42.791126696392894" lon="13.170064855366945">
        <ele>1331.3199999999999</ele>
        <time>2019-06-17T12:08:06Z</time>
      </trkpt>
      <trkpt lat="42.79118025675416" lon="13.170058066025376">
        <ele>1330.49</ele>
        <time>2019-06-17T12:08:13Z</time>
      </trkpt>
      <trkpt lat="42.791265668347478" lon="13.170024706050754">
        <ele>1329.6400000000001</ele>
        <time>2019-06-17T12:08:28Z</time>
      </trkpt>
      <trkpt lat="42.791279414668679" lon="13.170023197308183">
        <ele>1329.1600000000001</ele>
        <time>2019-06-17T12:08:38Z</time>
      </trkpt>
      <trkpt lat="42.791337333619595" lon="13.170021688565612">
        <ele>1329.1099999999999</ele>
        <time>2019-06-17T12:08:44Z</time>
      </trkpt>
      <trkpt lat="42.791419727727771" lon="13.170035686343908">
        <ele>1327.77</ele>
        <time>2019-06-17T12:08:57Z</time>
      </trkpt>
      <trkpt lat="42.791413525119424" lon="13.170037530362606">
        <ele>1327.3199999999999</ele>
        <time>2019-06-17T12:09:16Z</time>
      </trkpt>
      <trkpt lat="42.791418554261327" lon="13.170040464028716">
        <ele>1327.3599999999999</ele>
        <time>2019-06-17T12:09:29Z</time>
      </trkpt>
      <trkpt lat="42.791455099359155" lon="13.170024873688817">
        <ele>1327.25</ele>
        <time>2019-06-17T12:09:37Z</time>
      </trkpt>
      <trkpt lat="42.791581247001886" lon="13.170078350231051">
        <ele>1324.2</ele>
        <time>2019-06-17T12:09:52Z</time>
      </trkpt>
      <trkpt lat="42.791634052991867" lon="13.170200055465102">
        <ele>1321.55</ele>
        <time>2019-06-17T12:10:05Z</time>
      </trkpt>
      <trkpt lat="42.791655259206891" lon="13.170280521735549">
        <ele>1320.1400000000001</ele>
        <time>2019-06-17T12:10:18Z</time>
      </trkpt>
      <trkpt lat="42.791645703837276" lon="13.170282784849405">
        <ele>1319.6400000000001</ele>
        <time>2019-06-17T12:10:36Z</time>
      </trkpt>
      <trkpt lat="42.79165567830205" lon="13.1702761631459">
        <ele>1320.0799999999999</ele>
        <time>2019-06-17T12:10:53Z</time>
      </trkpt>
      <trkpt lat="42.791683925315738" lon="13.170292256399989">
        <ele>1319.8099999999999</ele>
        <time>2019-06-17T12:10:58Z</time>
      </trkpt>
      <trkpt lat="42.791732288897038" lon="13.170314552262425">
        <ele>1318.22</ele>
        <time>2019-06-17T12:11:04Z</time>
      </trkpt>
      <trkpt lat="42.791858604177833" lon="13.170372303575277">
        <ele>1315.2</ele>
        <time>2019-06-17T12:11:19Z</time>
      </trkpt>
      <trkpt lat="42.791974693536758" lon="13.170421170070767">
        <ele>1312.0899999999999</ele>
        <time>2019-06-17T12:11:32Z</time>
      </trkpt>
      <trkpt lat="42.792014591395855" lon="13.1704833637923">
        <ele>1310.6600000000001</ele>
        <time>2019-06-17T12:11:39Z</time>
      </trkpt>
      <trkpt lat="42.792120957747102" lon="13.170581934973598">
        <ele>1309.99</ele>
        <time>2019-06-17T12:11:53Z</time>
      </trkpt>
      <trkpt lat="42.792137721553445" lon="13.170598028227687">
        <ele>1309.98</ele>
        <time>2019-06-17T12:11:55Z</time>
      </trkpt>
      <trkpt lat="42.792167225852609" lon="13.17067195661366">
        <ele>1308.8</ele>
        <time>2019-06-17T12:12:02Z</time>
      </trkpt>
      <trkpt lat="42.792156916111708" lon="13.170722499489784">
        <ele>1308.4100000000001</ele>
        <time>2019-06-17T12:12:05Z</time>
      </trkpt>
      <trkpt lat="42.792143085971475" lon="13.170916205272079">
        <ele>1306.6600000000001</ele>
        <time>2019-06-17T12:12:18Z</time>
      </trkpt>
      <trkpt lat="42.792154652997851" lon="13.171012680977583">
        <ele>1306.4400000000001</ele>
        <time>2019-06-17T12:12:28Z</time>
      </trkpt>
      <trkpt lat="42.79214677400887" lon="13.17101058550179">
        <ele>1306.2</ele>
        <time>2019-06-17T12:12:30Z</time>
      </trkpt>
      <trkpt lat="42.792119616642594" lon="13.171023158356547">
        <ele>1305.8699999999999</ele>
        <time>2019-06-17T12:12:33Z</time>
      </trkpt>
      <trkpt lat="42.792075360193849" lon="13.171110665425658">
        <ele>1305.1199999999999</ele>
        <time>2019-06-17T12:12:48Z</time>
      </trkpt>
      <trkpt lat="42.792099919170141" lon="13.171079317107797">
        <ele>1305.5899999999999</ele>
        <time>2019-06-17T12:13:23Z</time>
      </trkpt>
      <trkpt lat="42.792143253609538" lon="13.171020643785596">
        <ele>1306.3</ele>
        <time>2019-06-17T12:13:34Z</time>
      </trkpt>
      <trkpt lat="42.79215456917882" lon="13.171021733433008">
        <ele>1306.3399999999999</ele>
        <time>2019-06-17T12:13:36Z</time>
      </trkpt>
      <trkpt lat="42.792257750406861" lon="13.171197166666389">
        <ele>1305.75</ele>
        <time>2019-06-17T12:13:52Z</time>
      </trkpt>
      <trkpt lat="42.792316507548094" lon="13.171279896050692">
        <ele>1305.55</ele>
        <time>2019-06-17T12:14:00Z</time>
      </trkpt>
      <trkpt lat="42.792449947446585" lon="13.171438397839665">
        <ele>1305.47</ele>
        <time>2019-06-17T12:14:17Z</time>
      </trkpt>
      <trkpt lat="42.792560253292322" lon="13.171538142487407">
        <ele>1304.5699999999999</ele>
        <time>2019-06-17T12:14:30Z</time>
      </trkpt>
      <trkpt lat="42.792704170569777" lon="13.171705109998584">
        <ele>1304.29</ele>
        <time>2019-06-17T12:14:46Z</time>
      </trkpt>
      <trkpt lat="42.792797377333045" lon="13.171884482726455">
        <ele>1303.3499999999999</ele>
        <time>2019-06-17T12:15:00Z</time>
      </trkpt>
      <trkpt lat="42.792833419516683" lon="13.171923290938139">
        <ele>1303.0899999999999</ele>
        <time>2019-06-17T12:15:04Z</time>
      </trkpt>
      <trkpt lat="42.792982868850231" lon="13.172113224864006">
        <ele>1301.53</ele>
        <time>2019-06-17T12:15:22Z</time>
      </trkpt>
      <trkpt lat="42.793099796399474" lon="13.172269379720092">
        <ele>1300.8599999999999</ele>
        <time>2019-06-17T12:15:37Z</time>
      </trkpt>
      <trkpt lat="42.793276822194457" lon="13.172485549002886">
        <ele>1299.6500000000001</ele>
        <time>2019-06-17T12:15:57Z</time>
      </trkpt>
      <trkpt lat="42.793426271528006" lon="13.172684703022242">
        <ele>1299.3399999999999</ele>
        <time>2019-06-17T12:16:15Z</time>
      </trkpt>
      <trkpt lat="42.793579073622823" lon="13.172887125983834">
        <ele>1298.1500000000001</ele>
        <time>2019-06-17T12:16:33Z</time>
      </trkpt>
      <trkpt lat="42.793672615662217" lon="13.173062223941088">
        <ele>1297.46</ele>
        <time>2019-06-17T12:16:48Z</time>
      </trkpt>
      <trkpt lat="42.793772192671895" lon="13.173247715458274">
        <ele>1296.76</ele>
        <time>2019-06-17T12:17:04Z</time>
      </trkpt>
      <trkpt lat="42.793778646737337" lon="13.173259785398841">
        <ele>1296.9000000000001</ele>
        <time>2019-06-17T12:17:15Z</time>
      </trkpt>
      <trkpt lat="42.793795159086585" lon="13.173279315233231">
        <ele>1296.8699999999999</ele>
        <time>2019-06-17T12:17:17Z</time>
      </trkpt>
      <trkpt lat="42.793941926211119" lon="13.173434464260936">
        <ele>1296.49</ele>
        <time>2019-06-17T12:17:33Z</time>
      </trkpt>
      <trkpt lat="42.794077377766371" lon="13.173614339902997">
        <ele>1295.47</ele>
        <time>2019-06-17T12:17:49Z</time>
      </trkpt>
      <trkpt lat="42.794182319194078" lon="13.17375079728663">
        <ele>1295.72</ele>
        <time>2019-06-17T12:18:03Z</time>
      </trkpt>
      <trkpt lat="42.794196484610438" lon="13.173772087320685">
        <ele>1295</ele>
        <time>2019-06-17T12:18:05Z</time>
      </trkpt>
      <trkpt lat="42.794336462393403" lon="13.173976857215166">
        <ele>1294.48</ele>
        <time>2019-06-17T12:18:23Z</time>
      </trkpt>
      <trkpt lat="42.794473338872194" lon="13.174160169437528">
        <ele>1294.26</ele>
        <time>2019-06-17T12:18:41Z</time>
      </trkpt>
      <trkpt lat="42.794555565342307" lon="13.174227979034185">
        <ele>1293.1700000000001</ele>
        <time>2019-06-17T12:18:56Z</time>
      </trkpt>
      <trkpt lat="42.794516002759337" lon="13.174295956268907">
        <ele>1293.77</ele>
        <time>2019-06-17T12:19:11Z</time>
      </trkpt>
      <trkpt lat="42.794517511501908" lon="13.174299392849207">
        <ele>1293.05</ele>
        <time>2019-06-17T12:19:27Z</time>
      </trkpt>
      <trkpt lat="42.79450879432261" lon="13.174291346222162">
        <ele>1293.6099999999999</ele>
        <time>2019-06-17T12:19:41Z</time>
      </trkpt>
      <trkpt lat="42.794534778222442" lon="13.174342140555382">
        <ele>1293.0799999999999</ele>
        <time>2019-06-17T12:19:53Z</time>
      </trkpt>
      <trkpt lat="42.794543243944645" lon="13.174348343163729">
        <ele>1293.53</ele>
        <time>2019-06-17T12:20:11Z</time>
      </trkpt>
      <trkpt lat="42.794549949467182" lon="13.174348259344697">
        <ele>1293.76</ele>
        <time>2019-06-17T12:20:12Z</time>
      </trkpt>
      <trkpt lat="42.794589595869184" lon="13.174355132505298">
        <ele>1293.6199999999999</ele>
        <time>2019-06-17T12:20:16Z</time>
      </trkpt>
      <trkpt lat="42.794685736298561" lon="13.174456721171737">
        <ele>1292.8800000000001</ele>
        <time>2019-06-17T12:20:29Z</time>
      </trkpt>
      <trkpt lat="42.794808112084866" lon="13.174641374498606">
        <ele>1292.52</ele>
        <time>2019-06-17T12:20:46Z</time>
      </trkpt>
      <trkpt lat="42.794914394617081" lon="13.174778586253524">
        <ele>1291.51</ele>
        <time>2019-06-17T12:21:00Z</time>
      </trkpt>
      <trkpt lat="42.795032579451799" lon="13.17495821043849">
        <ele>1291.8099999999999</ele>
        <time>2019-06-17T12:21:17Z</time>
      </trkpt>
      <trkpt lat="42.795112375169992" lon="13.175105648115277">
        <ele>1290.9300000000001</ele>
        <time>2019-06-17T12:21:31Z</time>
      </trkpt>
      <trkpt lat="42.795122181996703" lon="13.175120064988732">
        <ele>1291.25</ele>
        <time>2019-06-17T12:21:52Z</time>
      </trkpt>
      <trkpt lat="42.795256711542606" lon="13.175297677516937">
        <ele>1290.6800000000001</ele>
        <time>2019-06-17T12:22:09Z</time>
      </trkpt>
      <trkpt lat="42.79536978341639" lon="13.175467075780034">
        <ele>1290.4300000000001</ele>
        <time>2019-06-17T12:22:24Z</time>
      </trkpt>
      <trkpt lat="42.79547531157732" lon="13.175640748813748">
        <ele>1289.8800000000001</ele>
        <time>2019-06-17T12:22:39Z</time>
      </trkpt>
      <trkpt lat="42.795609841123223" lon="13.175865635275841">
        <ele>1288.76</ele>
        <time>2019-06-17T12:22:57Z</time>
      </trkpt>
      <trkpt lat="42.795617301017046" lon="13.175883404910564">
        <ele>1289.7</ele>
        <time>2019-06-17T12:22:58Z</time>
      </trkpt>
      <trkpt lat="42.795636998489499" lon="13.175944844260812">
        <ele>1288.98</ele>
        <time>2019-06-17T12:23:02Z</time>
      </trkpt>
      <trkpt lat="42.795762810856104" lon="13.176124049350619">
        <ele>1288.27</ele>
        <time>2019-06-17T12:23:17Z</time>
      </trkpt>
      <trkpt lat="42.795881582424045" lon="13.176305182278156">
        <ele>1288.3</ele>
        <time>2019-06-17T12:23:33Z</time>
      </trkpt>
      <trkpt lat="42.796003455296159" lon="13.176496708765626">
        <ele>1287.3900000000001</ele>
        <time>2019-06-17T12:23:49Z</time>
      </trkpt>
      <trkpt lat="42.796145863831043" lon="13.176721930503845">
        <ele>1287.02</ele>
        <time>2019-06-17T12:24:07Z</time>
      </trkpt>
      <trkpt lat="42.796302018687129" lon="13.177004903554916">
        <ele>1286.45</ele>
        <time>2019-06-17T12:24:28Z</time>
      </trkpt>
      <trkpt lat="42.796460436657071" lon="13.177293660119176">
        <ele>1286.29</ele>
        <time>2019-06-17T12:24:49Z</time>
      </trkpt>
      <trkpt lat="42.796600246801972" lon="13.177547631785274">
        <ele>1285.6500000000001</ele>
        <time>2019-06-17T12:25:09Z</time>
      </trkpt>
      <trkpt lat="42.796734943985939" lon="13.177797915413976">
        <ele>1285.8900000000001</ele>
        <time>2019-06-17T12:25:27Z</time>
      </trkpt>
      <trkpt lat="42.796899564564228" lon="13.178078290075064">
        <ele>1285.0599999999999</ele>
        <time>2019-06-17T12:25:48Z</time>
      </trkpt>
      <trkpt lat="42.797056306153536" lon="13.178327064961195">
        <ele>1284.1700000000001</ele>
        <time>2019-06-17T12:26:07Z</time>
      </trkpt>
      <trkpt lat="42.797232074663043" lon="13.17856821231544">
        <ele>1284.1500000000001</ele>
        <time>2019-06-17T12:26:28Z</time>
      </trkpt>
      <trkpt lat="42.797387475147843" lon="13.17880081012845">
        <ele>1283.52</ele>
        <time>2019-06-17T12:26:47Z</time>
      </trkpt>
      <trkpt lat="42.797570452094078" lon="13.179082693532109">
        <ele>1283.1600000000001</ele>
        <time>2019-06-17T12:27:09Z</time>
      </trkpt>
      <trkpt lat="42.797734485939145" lon="13.17933683283627">
        <ele>1282.3399999999999</ele>
        <time>2019-06-17T12:27:29Z</time>
      </trkpt>
      <trkpt lat="42.797889467328787" lon="13.179567251354456">
        <ele>1281.8599999999999</ele>
        <time>2019-06-17T12:27:48Z</time>
      </trkpt>
      <trkpt lat="42.798022991046309" lon="13.179751569405198">
        <ele>1281.6600000000001</ele>
        <time>2019-06-17T12:28:04Z</time>
      </trkpt>
      <trkpt lat="42.798201693221927" lon="13.180008726194501">
        <ele>1281.3199999999999</ele>
        <time>2019-06-17T12:28:25Z</time>
      </trkpt>
      <trkpt lat="42.798349633812904" lon="13.180251382291317">
        <ele>1280.72</ele>
        <time>2019-06-17T12:28:43Z</time>
      </trkpt>
      <trkpt lat="42.798522803932428" lon="13.180523123592138">
        <ele>1280.9200000000001</ele>
        <time>2019-06-17T12:29:04Z</time>
      </trkpt>
      <trkpt lat="42.79868851415813" lon="13.180790338665247">
        <ele>1280.98</ele>
        <time>2019-06-17T12:29:25Z</time>
      </trkpt>
      <trkpt lat="42.798844752833247" lon="13.181061744689941">
        <ele>1281.6900000000001</ele>
        <time>2019-06-17T12:29:45Z</time>
      </trkpt>
      <trkpt lat="42.798980288207531" lon="13.181280344724655">
        <ele>1282.2</ele>
        <time>2019-06-17T12:30:01Z</time>
      </trkpt>
      <trkpt lat="42.799117919057608" lon="13.181508835405111">
        <ele>1282.1600000000001</ele>
        <time>2019-06-17T12:30:18Z</time>
      </trkpt>
      <trkpt lat="42.799276923760772" lon="13.181755263358355">
        <ele>1282.4300000000001</ele>
        <time>2019-06-17T12:30:37Z</time>
      </trkpt>
      <trkpt lat="42.799422349780798" lon="13.181981071829796">
        <ele>1282.4200000000001</ele>
        <time>2019-06-17T12:30:55Z</time>
      </trkpt>
      <trkpt lat="42.799599040299654" lon="13.182245185598731">
        <ele>1283</ele>
        <time>2019-06-17T12:31:15Z</time>
      </trkpt>
      <trkpt lat="42.799779670313001" lon="13.18251826800406">
        <ele>1282.9400000000001</ele>
        <time>2019-06-17T12:31:36Z</time>
      </trkpt>
      <trkpt lat="42.79995703138411" lon="13.182773580774665">
        <ele>1283.01</ele>
        <time>2019-06-17T12:31:56Z</time>
      </trkpt>
      <trkpt lat="42.800103798508644" lon="13.183042472228408">
        <ele>1282.8900000000001</ele>
        <time>2019-06-17T12:32:15Z</time>
      </trkpt>
      <trkpt lat="42.800264311954379" lon="13.183297533541918">
        <ele>1282.3699999999999</ele>
        <time>2019-06-17T12:32:34Z</time>
      </trkpt>
      <trkpt lat="42.800473691895604" lon="13.183594420552254">
        <ele>1281.96</ele>
        <time>2019-06-17T12:32:56Z</time>
      </trkpt>
      <trkpt lat="42.800650801509619" lon="13.183873873203993">
        <ele>1281.1800000000001</ele>
        <time>2019-06-17T12:33:16Z</time>
      </trkpt>
      <trkpt lat="42.800798658281565" lon="13.184135304763913">
        <ele>1280.4400000000001</ele>
        <time>2019-06-17T12:33:35Z</time>
      </trkpt>
      <trkpt lat="42.800920447334647" lon="13.18434527143836">
        <ele>1280.1500000000001</ele>
        <time>2019-06-17T12:33:51Z</time>
      </trkpt>
      <trkpt lat="42.801057491451502" lon="13.184600584208965">
        <ele>1279.6300000000001</ele>
        <time>2019-06-17T12:34:10Z</time>
      </trkpt>
      <trkpt lat="42.801148351281881" lon="13.184798564761877">
        <ele>1278.4000000000001</ele>
        <time>2019-06-17T12:34:24Z</time>
      </trkpt>
      <trkpt lat="42.801215909421444" lon="13.184907613322139">
        <ele>1278.6900000000001</ele>
        <time>2019-06-17T12:34:32Z</time>
      </trkpt>
      <trkpt lat="42.801259243860841" lon="13.185007022693753">
        <ele>1278.6500000000001</ele>
        <time>2019-06-17T12:34:39Z</time>
      </trkpt>
      <trkpt lat="42.801351863890886" lon="13.185202991589904">
        <ele>1278.1300000000001</ele>
        <time>2019-06-17T12:34:53Z</time>
      </trkpt>
      <trkpt lat="42.801460074260831" lon="13.185431733727455">
        <ele>1277.76</ele>
        <time>2019-06-17T12:35:09Z</time>
      </trkpt>
      <trkpt lat="42.80158462934196" lon="13.185699786990881">
        <ele>1276.79</ele>
        <time>2019-06-17T12:35:27Z</time>
      </trkpt>
      <trkpt lat="42.801689654588699" lon="13.185986531898379">
        <ele>1277.4100000000001</ele>
        <time>2019-06-17T12:35:47Z</time>
      </trkpt>
      <trkpt lat="42.801734078675508" lon="13.186264559626579">
        <ele>1276.46</ele>
        <time>2019-06-17T12:36:05Z</time>
      </trkpt>
      <trkpt lat="42.801865004003048" lon="13.186537306755781">
        <ele>1274.5999999999999</ele>
        <time>2019-06-17T12:36:25Z</time>
      </trkpt>
      <trkpt lat="42.801996516063809" lon="13.186801671981812">
        <ele>1273.51</ele>
        <time>2019-06-17T12:36:44Z</time>
      </trkpt>
      <trkpt lat="42.802069941535592" lon="13.186958162114024">
        <ele>1273.3499999999999</ele>
        <time>2019-06-17T12:36:56Z</time>
      </trkpt>
      <trkpt lat="42.802215032279491" lon="13.187258401885629">
        <ele>1272.6099999999999</ele>
        <time>2019-06-17T12:37:17Z</time>
      </trkpt>
      <trkpt lat="42.802308993414044" lon="13.187434086576104">
        <ele>1272.6700000000001</ele>
        <time>2019-06-17T12:37:30Z</time>
      </trkpt>
      <trkpt lat="42.802456514909863" lon="13.187692668288946">
        <ele>1272.26</ele>
        <time>2019-06-17T12:37:49Z</time>
      </trkpt>
      <trkpt lat="42.802654076367617" lon="13.187977569177747">
        <ele>1272.3800000000001</ele>
        <time>2019-06-17T12:38:12Z</time>
      </trkpt>
      <trkpt lat="42.802843758836389" lon="13.188200946897268">
        <ele>1272.6500000000001</ele>
        <time>2019-06-17T12:38:32Z</time>
      </trkpt>
      <trkpt lat="42.802982730790973" lon="13.18835886195302">
        <ele>1273.0899999999999</ele>
        <time>2019-06-17T12:38:47Z</time>
      </trkpt>
      <trkpt lat="42.803037632256746" lon="13.188430527225137">
        <ele>1269.97</ele>
        <time>2019-06-17T12:38:53Z</time>
      </trkpt>
      <trkpt lat="42.803054144605994" lon="13.188454499468207">
        <ele>1275.0699999999999</ele>
        <time>2019-06-17T12:38:55Z</time>
      </trkpt>
      <trkpt lat="42.803062023594975" lon="13.188466653227806">
        <ele>1274.01</ele>
        <time>2019-06-17T12:38:56Z</time>
      </trkpt>
      <trkpt lat="42.803078535944223" lon="13.188489871099591">
        <ele>1273.1800000000001</ele>
        <time>2019-06-17T12:38:58Z</time>
      </trkpt>
      <trkpt lat="42.803223710507154" lon="13.188708303496242">
        <ele>1273.25</ele>
        <time>2019-06-17T12:39:17Z</time>
      </trkpt>
      <trkpt lat="42.803375422954559" lon="13.188938638195395">
        <ele>1273.96</ele>
        <time>2019-06-17T12:39:36Z</time>
      </trkpt>
      <trkpt lat="42.803511377424002" lon="13.189102336764336">
        <ele>1274.0699999999999</ele>
        <time>2019-06-17T12:39:51Z</time>
      </trkpt>
      <trkpt lat="42.803675578907132" lon="13.189270561560988">
        <ele>1273.54</ele>
        <time>2019-06-17T12:40:08Z</time>
      </trkpt>
      <trkpt lat="42.803825614973903" lon="13.189452784135938">
        <ele>1273.9400000000001</ele>
        <time>2019-06-17T12:40:25Z</time>
      </trkpt>
      <trkpt lat="42.803998282179236" lon="13.189670545980334">
        <ele>1273.8</ele>
        <time>2019-06-17T12:40:45Z</time>
      </trkpt>
      <trkpt lat="42.804143121466041" lon="13.189879925921559">
        <ele>1274.28</ele>
        <time>2019-06-17T12:41:03Z</time>
      </trkpt>
      <trkpt lat="42.804266167804599" lon="13.190074805170298">
        <ele>1275.6199999999999</ele>
        <time>2019-06-17T12:41:20Z</time>
      </trkpt>
      <trkpt lat="42.804377311840653" lon="13.190263984724879">
        <ele>1275.8599999999999</ele>
        <time>2019-06-17T12:41:36Z</time>
      </trkpt>
      <trkpt lat="42.804492814466357" lon="13.190489206463099">
        <ele>1276.48</ele>
        <time>2019-06-17T12:41:54Z</time>
      </trkpt>
      <trkpt lat="42.804586607962847" lon="13.190676374360919">
        <ele>1276.9000000000001</ele>
        <time>2019-06-17T12:42:09Z</time>
      </trkpt>
      <trkpt lat="42.804667744785547" lon="13.190858764573932">
        <ele>1277.1099999999999</ele>
        <time>2019-06-17T12:42:24Z</time>
      </trkpt>
      <trkpt lat="42.804716108366847" lon="13.19096471183002">
        <ele>1277.5599999999999</ele>
        <time>2019-06-17T12:42:37Z</time>
      </trkpt>
      <trkpt lat="42.804717365652323" lon="13.190962532535195">
        <ele>1278.51</ele>
        <time>2019-06-17T12:42:55Z</time>
      </trkpt>
      <trkpt lat="42.804711163043976" lon="13.190954653546214">
        <ele>1276.71</ele>
        <time>2019-06-17T12:43:11Z</time>
      </trkpt>
      <trkpt lat="42.804710492491722" lon="13.19095591083169">
        <ele>1277.6400000000001</ele>
        <time>2019-06-17T12:43:36Z</time>
      </trkpt>
      <trkpt lat="42.804714683443308" lon="13.19095691666007">
        <ele>1277.4000000000001</ele>
        <time>2019-06-17T12:43:50Z</time>
      </trkpt>
      <trkpt lat="42.804777882993221" lon="13.191068731248379">
        <ele>1277.1500000000001</ele>
        <time>2019-06-17T12:44:01Z</time>
      </trkpt>
      <trkpt lat="42.80484770424664" lon="13.191221533343196">
        <ele>1280.8499999999999</ele>
        <time>2019-06-17T12:44:14Z</time>
      </trkpt>
      <trkpt lat="42.804854996502399" lon="13.191233184188604">
        <ele>1279.8699999999999</ele>
        <time>2019-06-17T12:44:15Z</time>
      </trkpt>
      <trkpt lat="42.804867317900062" lon="13.191256318241358">
        <ele>1279.03</ele>
        <time>2019-06-17T12:44:17Z</time>
      </trkpt>
      <trkpt lat="42.804957926273346" lon="13.191462429240346">
        <ele>1279.26</ele>
        <time>2019-06-17T12:44:34Z</time>
      </trkpt>
      <trkpt lat="42.805069908499718" lon="13.191699385643005">
        <ele>1278.04</ele>
        <time>2019-06-17T12:44:52Z</time>
      </trkpt>
      <trkpt lat="42.805085079744458" lon="13.191715143620968">
        <ele>1278.2</ele>
        <time>2019-06-17T12:44:55Z</time>
      </trkpt>
      <trkpt lat="42.805115170776844" lon="13.191762082278728">
        <ele>1278.6600000000001</ele>
        <time>2019-06-17T12:44:59Z</time>
      </trkpt>
      <trkpt lat="42.805145010352135" lon="13.191795358434319">
        <ele>1279.0999999999999</ele>
        <time>2019-06-17T12:45:05Z</time>
      </trkpt>
      <trkpt lat="42.805167390033603" lon="13.191863335669041">
        <ele>1278.98</ele>
        <time>2019-06-17T12:45:10Z</time>
      </trkpt>
      <trkpt lat="42.805312899872661" lon="13.192115882411599">
        <ele>1278.95</ele>
        <time>2019-06-17T12:45:30Z</time>
      </trkpt>
      <trkpt lat="42.805438879877329" lon="13.192316712811589">
        <ele>1279.9300000000001</ele>
        <time>2019-06-17T12:45:47Z</time>
      </trkpt>
      <trkpt lat="42.805566787719727" lon="13.192476136609912">
        <ele>1279.96</ele>
        <time>2019-06-17T12:46:02Z</time>
      </trkpt>
      <trkpt lat="42.805716404691339" lon="13.192646121606231">
        <ele>1280.8199999999999</ele>
        <time>2019-06-17T12:46:19Z</time>
      </trkpt>
      <trkpt lat="42.805794607847929" lon="13.192725414410233">
        <ele>1280.8900000000001</ele>
        <time>2019-06-17T12:46:31Z</time>
      </trkpt>
      <trkpt lat="42.80580441467464" lon="13.192728012800217">
        <ele>1280.9100000000001</ele>
        <time>2019-06-17T12:46:34Z</time>
      </trkpt>
      <trkpt lat="42.805957468226552" lon="13.192796325311065">
        <ele>1281.8599999999999</ele>
        <time>2019-06-17T12:46:49Z</time>
      </trkpt>
      <trkpt lat="42.806122256442904" lon="13.192837396636605">
        <ele>1281.99</ele>
        <time>2019-06-17T12:47:04Z</time>
      </trkpt>
      <trkpt lat="42.806301964446902" lon="13.192812670022249">
        <ele>1282.75</ele>
        <time>2019-06-17T12:47:20Z</time>
      </trkpt>
      <trkpt lat="42.806356782093644" lon="13.192800180986524">
        <ele>1283.0899999999999</ele>
        <time>2019-06-17T12:47:26Z</time>
      </trkpt>
      <trkpt lat="42.80649927444756" lon="13.192919120192528">
        <ele>1284.26</ele>
        <time>2019-06-17T12:47:42Z</time>
      </trkpt>
      <trkpt lat="42.80662240460515" lon="13.193052811548114">
        <ele>1284.6600000000001</ele>
        <time>2019-06-17T12:47:57Z</time>
      </trkpt>
      <trkpt lat="42.80677436850965" lon="13.193127159029245">
        <ele>1284.3900000000001</ele>
        <time>2019-06-17T12:48:14Z</time>
      </trkpt>
      <trkpt lat="42.806793479248881" lon="13.193139899522066">
        <ele>1284.4300000000001</ele>
        <time>2019-06-17T12:48:19Z</time>
      </trkpt>
      <trkpt lat="42.806790294125676" lon="13.193190777674317">
        <ele>1283.8800000000001</ele>
        <time>2019-06-17T12:48:24Z</time>
      </trkpt>
      <trkpt lat="42.806777050718665" lon="13.193242745473981">
        <ele>1283.95</ele>
        <time>2019-06-17T12:48:28Z</time>
      </trkpt>
      <trkpt lat="42.806881070137024" lon="13.19344692863524">
        <ele>1283.1400000000001</ele>
        <time>2019-06-17T12:48:45Z</time>
      </trkpt>
      <trkpt lat="42.806995483115315" lon="13.19359352812171">
        <ele>1282.77</ele>
        <time>2019-06-17T12:48:59Z</time>
      </trkpt>
      <trkpt lat="42.807013839483261" lon="13.193598305806518">
        <ele>1282.05</ele>
        <time>2019-06-17T12:49:01Z</time>
      </trkpt>
      <trkpt lat="42.807062035426497" lon="13.19360769353807">
        <ele>1282.6800000000001</ele>
        <time>2019-06-17T12:49:12Z</time>
      </trkpt>
      <trkpt lat="42.807054910808802" lon="13.193609872832894">
        <ele>1281.24</ele>
        <time>2019-06-17T12:49:18Z</time>
      </trkpt>
      <trkpt lat="42.807057593017817" lon="13.19360475987196">
        <ele>1281.3800000000001</ele>
        <time>2019-06-17T12:49:19Z</time>
      </trkpt>
      <trkpt lat="42.807091288268566" lon="13.193571818992496">
        <ele>1282.5699999999999</ele>
        <time>2019-06-17T12:49:23Z</time>
      </trkpt>
      <trkpt lat="42.807301422581077" lon="13.193464614450932">
        <ele>1283.78</ele>
        <time>2019-06-17T12:49:42Z</time>
      </trkpt>
      <trkpt lat="42.8075160831213" lon="13.193447180092335">
        <ele>1283.3</ele>
        <time>2019-06-17T12:50:00Z</time>
      </trkpt>
      <trkpt lat="42.807738622650504" lon="13.193485653027892">
        <ele>1283.3800000000001</ele>
        <time>2019-06-17T12:50:18Z</time>
      </trkpt>
      <trkpt lat="42.807979602366686" lon="13.193537034094334">
        <ele>1283.55</ele>
        <time>2019-06-17T12:50:38Z</time>
      </trkpt>
      <trkpt lat="42.808247320353985" lon="13.193618841469288">
        <ele>1282.9400000000001</ele>
        <time>2019-06-17T12:51:00Z</time>
      </trkpt>
      <trkpt lat="42.80846893787384" lon="13.193751526996493">
        <ele>1282.48</ele>
        <time>2019-06-17T12:51:19Z</time>
      </trkpt>
      <trkpt lat="42.80866825953126" lon="13.193934336304665">
        <ele>1283.2</ele>
        <time>2019-06-17T12:51:38Z</time>
      </trkpt>
      <trkpt lat="42.808825671672821" lon="13.194127958267927">
        <ele>1283.1400000000001</ele>
        <time>2019-06-17T12:51:56Z</time>
      </trkpt>
      <trkpt lat="42.808973444625735" lon="13.194305067881942">
        <ele>1283.6300000000001</ele>
        <time>2019-06-17T12:52:13Z</time>
      </trkpt>
      <trkpt lat="42.809134377166629" lon="13.194427862763405">
        <ele>1283.9000000000001</ele>
        <time>2019-06-17T12:52:30Z</time>
      </trkpt>
      <trkpt lat="42.809188105165958" lon="13.194418055936694">
        <ele>1284.3699999999999</ele>
        <time>2019-06-17T12:52:37Z</time>
      </trkpt>
      <trkpt lat="42.809217190369964" lon="13.194382097572088">
        <ele>1284.0699999999999</ele>
        <time>2019-06-17T12:52:52Z</time>
      </trkpt>
      <trkpt lat="42.809212747961283" lon="13.194392072036862">
        <ele>1284.1700000000001</ele>
        <time>2019-06-17T12:53:13Z</time>
      </trkpt>
      <trkpt lat="42.809210401028395" lon="13.194401543587446">
        <ele>1284.05</ele>
        <time>2019-06-17T12:53:14Z</time>
      </trkpt>
      <trkpt lat="42.809224063530564" lon="13.194514866918325">
        <ele>1284.6500000000001</ele>
        <time>2019-06-17T12:53:27Z</time>
      </trkpt>
      <trkpt lat="42.809254825115204" lon="13.194544119760394">
        <ele>1284.5799999999999</ele>
        <time>2019-06-17T12:53:31Z</time>
      </trkpt>
      <trkpt lat="42.809396730735898" lon="13.19464897736907">
        <ele>1285.26</ele>
        <time>2019-06-17T12:53:50Z</time>
      </trkpt>
      <trkpt lat="42.809423301368952" lon="13.194669848307967">
        <ele>1285.3900000000001</ele>
        <time>2019-06-17T12:54:04Z</time>
      </trkpt>
      <trkpt lat="42.809430928900838" lon="13.194674961268902">
        <ele>1285.3900000000001</ele>
        <time>2019-06-17T12:54:05Z</time>
      </trkpt>
      <trkpt lat="42.80950334854424" lon="13.194735646247864">
        <ele>1285.48</ele>
        <time>2019-06-17T12:54:13Z</time>
      </trkpt>
      <trkpt lat="42.80961574986577" lon="13.19482633844018">
        <ele>1286.3099999999999</ele>
        <time>2019-06-17T12:54:27Z</time>
      </trkpt>
      <trkpt lat="42.809616588056087" lon="13.194830613210797">
        <ele>1286.26</ele>
        <time>2019-06-17T12:54:28Z</time>
      </trkpt>
      <trkpt lat="42.809631088748574" lon="13.194860285148025">
        <ele>1286.1900000000001</ele>
        <time>2019-06-17T12:54:34Z</time>
      </trkpt>
      <trkpt lat="42.809676267206669" lon="13.194889286532998">
        <ele>1286.5799999999999</ele>
        <time>2019-06-17T12:54:39Z</time>
      </trkpt>
      <trkpt lat="42.80982730910182" lon="13.195030437782407">
        <ele>1287.3699999999999</ele>
        <time>2019-06-17T12:54:56Z</time>
      </trkpt>
      <trkpt lat="42.809961419552565" lon="13.195146191865206">
        <ele>1287.8499999999999</ele>
        <time>2019-06-17T12:55:11Z</time>
      </trkpt>
      <trkpt lat="42.810065019875765" lon="13.195207798853517">
        <ele>1288.45</ele>
        <time>2019-06-17T12:55:26Z</time>
      </trkpt>
      <trkpt lat="42.810078682377934" lon="13.195216432213783">
        <ele>1288.6400000000001</ele>
        <time>2019-06-17T12:55:36Z</time>
      </trkpt>
      <trkpt lat="42.810245230793953" lon="13.195210816338658">
        <ele>1289.3099999999999</ele>
        <time>2019-06-17T12:55:52Z</time>
      </trkpt>
      <trkpt lat="42.810355704277754" lon="13.195179300382733">
        <ele>1289.6600000000001</ele>
        <time>2019-06-17T12:56:05Z</time>
      </trkpt>
      <trkpt lat="42.810420077294111" lon="13.19518256932497">
        <ele>1289.71</ele>
        <time>2019-06-17T12:56:24Z</time>
      </trkpt>
      <trkpt lat="42.810518145561218" lon="13.195148287340999">
        <ele>1290.3199999999999</ele>
        <time>2019-06-17T12:56:36Z</time>
      </trkpt>
      <trkpt lat="42.810543794184923" lon="13.195107216015458">
        <ele>1290.51</ele>
        <time>2019-06-17T12:56:51Z</time>
      </trkpt>
      <trkpt lat="42.810546476393938" lon="13.195142420008779">
        <ele>1290.24</ele>
        <time>2019-06-17T12:57:05Z</time>
      </trkpt>
      <trkpt lat="42.810582686215639" lon="13.195245014503598">
        <ele>1290.4400000000001</ele>
        <time>2019-06-17T12:57:16Z</time>
      </trkpt>
      <trkpt lat="42.810587799176574" lon="13.19525633007288">
        <ele>1290.5599999999999</ele>
        <time>2019-06-17T12:57:32Z</time>
      </trkpt>
      <trkpt lat="42.810608502477407" lon="13.195260940119624">
        <ele>1290.6700000000001</ele>
        <time>2019-06-17T12:57:36Z</time>
      </trkpt>
      <trkpt lat="42.810662481933832" lon="13.195296814665198">
        <ele>1290.75</ele>
        <time>2019-06-17T12:57:42Z</time>
      </trkpt>
      <trkpt lat="42.810810171067715" lon="13.195392535999417">
        <ele>1291.29</ele>
        <time>2019-06-17T12:57:59Z</time>
      </trkpt>
      <trkpt lat="42.810826180502772" lon="13.195401169359684">
        <ele>1291.48</ele>
        <time>2019-06-17T12:58:07Z</time>
      </trkpt>
      <trkpt lat="42.810951238498092" lon="13.195498315617442">
        <ele>1291.3900000000001</ele>
        <time>2019-06-17T12:58:21Z</time>
      </trkpt>
      <trkpt lat="42.811083421111107" lon="13.195596551522613">
        <ele>1292.27</ele>
        <time>2019-06-17T12:58:37Z</time>
      </trkpt>
      <trkpt lat="42.811127342283726" lon="13.195632845163345">
        <ele>1292.3599999999999</ele>
        <time>2019-06-17T12:58:43Z</time>
      </trkpt>
      <trkpt lat="42.811288945376873" lon="13.195722280070186">
        <ele>1293.1800000000001</ele>
        <time>2019-06-17T12:58:59Z</time>
      </trkpt>
      <trkpt lat="42.811473598703742" lon="13.195841973647475">
        <ele>1292.98</ele>
        <time>2019-06-17T12:59:17Z</time>
      </trkpt>
      <trkpt lat="42.811625730246305" lon="13.195944735780358">
        <ele>1293.28</ele>
        <time>2019-06-17T12:59:32Z</time>
      </trkpt>
      <trkpt lat="42.811799570918083" lon="13.196082450449467">
        <ele>1293.26</ele>
        <time>2019-06-17T12:59:51Z</time>
      </trkpt>
      <trkpt lat="42.811929071322083" lon="13.196184793487191">
        <ele>1293.8299999999999</ele>
        <time>2019-06-17T13:00:05Z</time>
      </trkpt>
      <trkpt lat="42.812106516212225" lon="13.196322591975331">
        <ele>1293.77</ele>
        <time>2019-06-17T13:00:23Z</time>
      </trkpt>
      <trkpt lat="42.812223443761468" lon="13.196439184248447">
        <ele>1292.73</ele>
        <time>2019-06-17T13:00:40Z</time>
      </trkpt>
      <trkpt lat="42.812233250588179" lon="13.196423258632421">
        <ele>1292.6900000000001</ele>
        <time>2019-06-17T13:00:56Z</time>
      </trkpt>
      <trkpt lat="42.812272142618895" lon="13.196419738233089">
        <ele>1292.8</ele>
        <time>2019-06-17T13:01:09Z</time>
      </trkpt>
      <trkpt lat="42.812281446531415" lon="13.196434322744608">
        <ele>1292.8399999999999</ele>
        <time>2019-06-17T13:01:11Z</time>
      </trkpt>
      <trkpt lat="42.812424609437585" lon="13.196546053513885">
        <ele>1292.8800000000001</ele>
        <time>2019-06-17T13:01:27Z</time>
      </trkpt>
      <trkpt lat="42.812548074871302" lon="13.196634063497186">
        <ele>1292.3299999999999</ele>
        <time>2019-06-17T13:01:40Z</time>
      </trkpt>
      <trkpt lat="42.812663493677974" lon="13.196744536980987">
        <ele>1292.48</ele>
        <time>2019-06-17T13:01:54Z</time>
      </trkpt>
      <trkpt lat="42.812669947743416" lon="13.196756020188332">
        <ele>1292.29</ele>
        <time>2019-06-17T13:01:55Z</time>
      </trkpt>
      <trkpt lat="42.812836244702339" lon="13.196876887232065">
        <ele>1292.3</ele>
        <time>2019-06-17T13:02:12Z</time>
      </trkpt>
      <trkpt lat="42.812995500862598" lon="13.197015775367618">
        <ele>1291.8699999999999</ele>
        <time>2019-06-17T13:02:29Z</time>
      </trkpt>
      <trkpt lat="42.813043026253581" lon="13.197080316022038">
        <ele>1291.3299999999999</ele>
        <time>2019-06-17T13:02:41Z</time>
      </trkpt>
      <trkpt lat="42.813083091750741" lon="13.197072185575962">
        <ele>1290.9300000000001</ele>
        <time>2019-06-17T13:02:58Z</time>
      </trkpt>
      <trkpt lat="42.813089797273278" lon="13.19708039984107">
        <ele>1291.03</ele>
        <time>2019-06-17T13:03:07Z</time>
      </trkpt>
      <trkpt lat="42.813098095357418" lon="13.197104120627046">
        <ele>1290.72</ele>
        <time>2019-06-17T13:03:09Z</time>
      </trkpt>
      <trkpt lat="42.813266068696976" lon="13.197239320725203">
        <ele>1290.75</ele>
        <time>2019-06-17T13:03:27Z</time>
      </trkpt>
      <trkpt lat="42.813417026773095" lon="13.197345016524196">
        <ele>1290.5</ele>
        <time>2019-06-17T13:03:42Z</time>
      </trkpt>
      <trkpt lat="42.81351643614471" lon="13.197437636554241">
        <ele>1289.8599999999999</ele>
        <time>2019-06-17T13:03:58Z</time>
      </trkpt>
      <trkpt lat="42.813517106696963" lon="13.197435708716512">
        <ele>1289.9300000000001</ele>
        <time>2019-06-17T13:04:17Z</time>
      </trkpt>
      <trkpt lat="42.813513418659568" lon="13.197436043992639">
        <ele>1289.53</ele>
        <time>2019-06-17T13:04:44Z</time>
      </trkpt>
      <trkpt lat="42.813517274335027" lon="13.197426991537213">
        <ele>1289.6600000000001</ele>
        <time>2019-06-17T13:05:09Z</time>
      </trkpt>
      <trkpt lat="42.813517693430185" lon="13.197446018457413">
        <ele>1289.6300000000001</ele>
        <time>2019-06-17T13:05:22Z</time>
      </trkpt>
      <trkpt lat="42.813562955707312" lon="13.197489185258746">
        <ele>1289.27</ele>
        <time>2019-06-17T13:05:40Z</time>
      </trkpt>
      <trkpt lat="42.813573516905308" lon="13.197490107268095">
        <ele>1289.5999999999999</ele>
        <time>2019-06-17T13:05:51Z</time>
      </trkpt>
      <trkpt lat="42.813639147207141" lon="13.197546266019344">
        <ele>1289.6600000000001</ele>
        <time>2019-06-17T13:05:58Z</time>
      </trkpt>
      <trkpt lat="42.813829919323325" lon="13.197713233530521">
        <ele>1288.5799999999999</ele>
        <time>2019-06-17T13:06:18Z</time>
      </trkpt>
      <trkpt lat="42.813893873244524" lon="13.19776595570147">
        <ele>1288.45</ele>
        <time>2019-06-17T13:06:25Z</time>
      </trkpt>
      <trkpt lat="42.81404122710228" lon="13.19788271561265">
        <ele>1288.47</ele>
        <time>2019-06-17T13:06:40Z</time>
      </trkpt>
      <trkpt lat="42.814164692535996" lon="13.197989584878087">
        <ele>1288.26</ele>
        <time>2019-06-17T13:06:53Z</time>
      </trkpt>
      <trkpt lat="42.814341969788074" lon="13.198118163272738">
        <ele>1288.49</ele>
        <time>2019-06-17T13:07:11Z</time>
      </trkpt>
      <trkpt lat="42.814422268420458" lon="13.198185889050364">
        <ele>1288.8800000000001</ele>
        <time>2019-06-17T13:07:26Z</time>
      </trkpt>
      <trkpt lat="42.814462250098586" lon="13.198217656463385">
        <ele>1289.1300000000001</ele>
        <time>2019-06-17T13:07:42Z</time>
      </trkpt>
      <trkpt lat="42.814501896500587" lon="13.198250429704785">
        <ele>1288.9100000000001</ele>
        <time>2019-06-17T13:07:48Z</time>
      </trkpt>
      <trkpt lat="42.814542213454843" lon="13.198265181854367">
        <ele>1288.6800000000001</ele>
        <time>2019-06-17T13:07:52Z</time>
      </trkpt>
      <trkpt lat="42.814613543450832" lon="13.198298877105117">
        <ele>1289.53</ele>
        <time>2019-06-17T13:08:00Z</time>
      </trkpt>
      <trkpt lat="42.814633576199412" lon="13.198324777185917">
        <ele>1289.3699999999999</ele>
        <time>2019-06-17T13:08:03Z</time>
      </trkpt>
      <trkpt lat="42.81477858312428" lon="13.198444386944175">
        <ele>1289.52</ele>
        <time>2019-06-17T13:08:19Z</time>
      </trkpt>
      <trkpt lat="42.814922584220767" lon="13.198571540415287">
        <ele>1289.5999999999999</ele>
        <time>2019-06-17T13:08:35Z</time>
      </trkpt>
      <trkpt lat="42.814990561455488" lon="13.19863080047071">
        <ele>1289.4300000000001</ele>
        <time>2019-06-17T13:08:49Z</time>
      </trkpt>
      <trkpt lat="42.81499600969255" lon="13.198627196252346">
        <ele>1289.48</ele>
        <time>2019-06-17T13:09:16Z</time>
      </trkpt>
      <trkpt lat="42.815026184543967" lon="13.198654521256685">
        <ele>1289.3299999999999</ele>
        <time>2019-06-17T13:09:25Z</time>
      </trkpt>
      <trkpt lat="42.815044540911913" lon="13.198665082454681">
        <ele>1289.3099999999999</ele>
        <time>2019-06-17T13:09:27Z</time>
      </trkpt>
      <trkpt lat="42.815137663856149" lon="13.198747644200921">
        <ele>1289.45</ele>
        <time>2019-06-17T13:09:41Z</time>
      </trkpt>
      <trkpt lat="42.815171526744962" lon="13.198767174035311">
        <ele>1289.73</ele>
        <time>2019-06-17T13:09:45Z</time>
      </trkpt>
      <trkpt lat="42.815304631367326" lon="13.198884436860681">
        <ele>1290.0599999999999</ele>
        <time>2019-06-17T13:10:00Z</time>
      </trkpt>
      <trkpt lat="42.815475203096867" lon="13.19899189285934">
        <ele>1290.54</ele>
        <time>2019-06-17T13:10:17Z</time>
      </trkpt>
      <trkpt lat="42.815669327974319" lon="13.199123488739133">
        <ele>1290.6300000000001</ele>
        <time>2019-06-17T13:10:36Z</time>
      </trkpt>
      <trkpt lat="42.815788937732577" lon="13.199191046878695">
        <ele>1290.1500000000001</ele>
        <time>2019-06-17T13:10:49Z</time>
      </trkpt>
      <trkpt lat="42.815946517512202" lon="13.199293222278357">
        <ele>1290.8099999999999</ele>
        <time>2019-06-17T13:11:06Z</time>
      </trkpt>
      <trkpt lat="42.816073000431061" lon="13.199382992461324">
        <ele>1290.53</ele>
        <time>2019-06-17T13:11:20Z</time>
      </trkpt>
      <trkpt lat="42.816256396472454" lon="13.199506122618914">
        <ele>1290.5899999999999</ele>
        <time>2019-06-17T13:11:38Z</time>
      </trkpt>
      <trkpt lat="42.816403331235051" lon="13.199613494798541">
        <ele>1290.98</ele>
        <time>2019-06-17T13:11:53Z</time>
      </trkpt>
      <trkpt lat="42.816603574901819" lon="13.199780210852623">
        <ele>1291.3499999999999</ele>
        <time>2019-06-17T13:12:13Z</time>
      </trkpt>
      <trkpt lat="42.816779343411326" lon="13.199858078733087">
        <ele>1291.8</ele>
        <time>2019-06-17T13:12:29Z</time>
      </trkpt>
      <trkpt lat="42.816974306479096" lon="13.199921865016222">
        <ele>1291.75</ele>
        <time>2019-06-17T13:12:46Z</time>
      </trkpt>
      <trkpt lat="42.817153679206967" lon="13.199981963261962">
        <ele>1291.24</ele>
        <time>2019-06-17T13:13:02Z</time>
      </trkpt>
      <trkpt lat="42.817377727478743" lon="13.200077349320054">
        <ele>1292.24</ele>
        <time>2019-06-17T13:13:22Z</time>
      </trkpt>
      <trkpt lat="42.817549472674727" lon="13.200147338211536">
        <ele>1292.5899999999999</ele>
        <time>2019-06-17T13:13:38Z</time>
      </trkpt>
      <trkpt lat="42.81770302914083" lon="13.200219003483653">
        <ele>1292.7</ele>
        <time>2019-06-17T13:13:53Z</time>
      </trkpt>
      <trkpt lat="42.817866057157516" lon="13.200269797816873">
        <ele>1292.7</ele>
        <time>2019-06-17T13:14:09Z</time>
      </trkpt>
      <trkpt lat="42.818053895607591" lon="13.200317658483982">
        <ele>1292.7</ele>
        <time>2019-06-17T13:14:26Z</time>
      </trkpt>
      <trkpt lat="42.818238381296396" lon="13.200381109490991">
        <ele>1292.95</ele>
        <time>2019-06-17T13:14:43Z</time>
      </trkpt>
      <trkpt lat="42.818402415141463" lon="13.200439782813191">
        <ele>1293.1300000000001</ele>
        <time>2019-06-17T13:14:58Z</time>
      </trkpt>
      <trkpt lat="42.818612549453974" lon="13.200532486662269">
        <ele>1293.1600000000001</ele>
        <time>2019-06-17T13:15:17Z</time>
      </trkpt>
      <trkpt lat="42.818795274943113" lon="13.200615551322699">
        <ele>1293.03</ele>
        <time>2019-06-17T13:15:34Z</time>
      </trkpt>
      <trkpt lat="42.819023933261633" lon="13.200710350647569">
        <ele>1293.3299999999999</ele>
        <time>2019-06-17T13:15:54Z</time>
      </trkpt>
      <trkpt lat="42.819220656529069" lon="13.200782518833876">
        <ele>1293.6500000000001</ele>
        <time>2019-06-17T13:16:12Z</time>
      </trkpt>
      <trkpt lat="42.819416541606188" lon="13.200834067538381">
        <ele>1293.8599999999999</ele>
        <time>2019-06-17T13:16:29Z</time>
      </trkpt>
      <trkpt lat="42.819577557966113" lon="13.2008589617908">
        <ele>1294.3099999999999</ele>
        <time>2019-06-17T13:16:45Z</time>
      </trkpt>
      <trkpt lat="42.819730276241899" lon="13.200872121378779">
        <ele>1294.4400000000001</ele>
        <time>2019-06-17T13:16:58Z</time>
      </trkpt>
      <trkpt lat="42.819974105805159" lon="13.200886035338044">
        <ele>1294.79</ele>
        <time>2019-06-17T13:17:18Z</time>
      </trkpt>
      <trkpt lat="42.820199998095632" lon="13.200882179662585">
        <ele>1295.1500000000001</ele>
        <time>2019-06-17T13:17:37Z</time>
      </trkpt>
      <trkpt lat="42.820416251197457" lon="13.200842197984457">
        <ele>1295.21</ele>
        <time>2019-06-17T13:17:55Z</time>
      </trkpt>
      <trkpt lat="42.820622697472572" lon="13.200793415307999">
        <ele>1295.3399999999999</ele>
        <time>2019-06-17T13:18:13Z</time>
      </trkpt>
      <trkpt lat="42.820814726874232" lon="13.200739100575447">
        <ele>1295.55</ele>
        <time>2019-06-17T13:18:30Z</time>
      </trkpt>
      <trkpt lat="42.820827048271894" lon="13.200738010928035">
        <ele>1295.49</ele>
        <time>2019-06-17T13:18:32Z</time>
      </trkpt>
      <trkpt lat="42.820841297507286" lon="13.200730634853244">
        <ele>1295.46</ele>
        <time>2019-06-17T13:18:34Z</time>
      </trkpt>
      <trkpt lat="42.821019496768713" lon="13.200682187452912">
        <ele>1295.54</ele>
        <time>2019-06-17T13:18:50Z</time>
      </trkpt>
      <trkpt lat="42.821142878383398" lon="13.200659137219191">
        <ele>1296.02</ele>
        <time>2019-06-17T13:19:02Z</time>
      </trkpt>
      <trkpt lat="42.821295764297247" lon="13.200698951259255">
        <ele>1296.26</ele>
        <time>2019-06-17T13:19:18Z</time>
      </trkpt>
      <trkpt lat="42.821302972733974" lon="13.200697610154748">
        <ele>1296.1700000000001</ele>
        <time>2019-06-17T13:19:20Z</time>
      </trkpt>
      <trkpt lat="42.821323676034808" lon="13.200701717287302">
        <ele>1296.3199999999999</ele>
        <time>2019-06-17T13:19:22Z</time>
      </trkpt>
      <trkpt lat="42.821410428732634" lon="13.200744967907667">
        <ele>1295.9100000000001</ele>
        <time>2019-06-17T13:19:35Z</time>
      </trkpt>
      <trkpt lat="42.821425935253501" lon="13.200743710622191">
        <ele>1296.8</ele>
        <time>2019-06-17T13:19:47Z</time>
      </trkpt>
      <trkpt lat="42.82146692276001" lon="13.20075485855341">
        <ele>1296.6700000000001</ele>
        <time>2019-06-17T13:19:51Z</time>
      </trkpt>
      <trkpt lat="42.821639841422439" lon="13.200789475813508">
        <ele>1297.22</ele>
        <time>2019-06-17T13:20:07Z</time>
      </trkpt>
      <trkpt lat="42.821836564689875" lon="13.200848484411836">
        <ele>1298.05</ele>
        <time>2019-06-17T13:20:25Z</time>
      </trkpt>
      <trkpt lat="42.822049045935273" lon="13.200905565172434">
        <ele>1299.04</ele>
        <time>2019-06-17T13:20:44Z</time>
      </trkpt>
      <trkpt lat="42.82222087495029" lon="13.200953844934702">
        <ele>1299.3099999999999</ele>
        <time>2019-06-17T13:21:00Z</time>
      </trkpt>
      <trkpt lat="42.822387591004372" lon="13.200997011736035">
        <ele>1300.02</ele>
        <time>2019-06-17T13:21:16Z</time>
      </trkpt>
      <trkpt lat="42.822555312886834" lon="13.201021738350391">
        <ele>1300.8900000000001</ele>
        <time>2019-06-17T13:21:32Z</time>
      </trkpt>
      <trkpt lat="42.822721274569631" lon="13.20104462094605">
        <ele>1301.72</ele>
        <time>2019-06-17T13:21:48Z</time>
      </trkpt>
      <trkpt lat="42.822898970916867" lon="13.20108032785356">
        <ele>1303.95</ele>
        <time>2019-06-17T13:22:06Z</time>
      </trkpt>
      <trkpt lat="42.823052443563938" lon="13.201105473563075">
        <ele>1305.48</ele>
        <time>2019-06-17T13:22:22Z</time>
      </trkpt>
      <trkpt lat="42.823202395811677" lon="13.201126679778099">
        <ele>1307.45</ele>
        <time>2019-06-17T13:22:37Z</time>
      </trkpt>
      <trkpt lat="42.823364501819015" lon="13.201151238754392">
        <ele>1309.79</ele>
        <time>2019-06-17T13:22:54Z</time>
      </trkpt>
      <trkpt lat="42.823529206216335" lon="13.201148640364408">
        <ele>1311.23</ele>
        <time>2019-06-17T13:23:11Z</time>
      </trkpt>
      <trkpt lat="42.823702041059732" lon="13.201144114136696">
        <ele>1312.78</ele>
        <time>2019-06-17T13:23:28Z</time>
      </trkpt>
      <trkpt lat="42.823901530355215" lon="13.201135145500302">
        <ele>1313.8199999999999</ele>
        <time>2019-06-17T13:23:46Z</time>
      </trkpt>
      <trkpt lat="42.824094817042351" lon="13.20113749243319">
        <ele>1315.3800000000001</ele>
        <time>2019-06-17T13:24:04Z</time>
      </trkpt>
      <trkpt lat="42.824294893071055" lon="13.201129278168082">
        <ele>1317.6500000000001</ele>
        <time>2019-06-17T13:24:23Z</time>
      </trkpt>
      <trkpt lat="42.824457585811615" lon="13.201135732233524">
        <ele>1319.3099999999999</ele>
        <time>2019-06-17T13:24:39Z</time>
      </trkpt>
      <trkpt lat="42.82462346367538" lon="13.20118929259479">
        <ele>1321.9300000000001</ele>
        <time>2019-06-17T13:24:55Z</time>
      </trkpt>
      <trkpt lat="42.824750114232302" lon="13.201260203495622">
        <ele>1324.0899999999999</ele>
        <time>2019-06-17T13:25:10Z</time>
      </trkpt>
      <trkpt lat="42.824857989326119" lon="13.201333712786436">
        <ele>1325.77</ele>
        <time>2019-06-17T13:25:23Z</time>
      </trkpt>
      <trkpt lat="42.824986819177866" lon="13.201447119936347">
        <ele>1328.03</ele>
        <time>2019-06-17T13:25:39Z</time>
      </trkpt>
      <trkpt lat="42.825111960992217" lon="13.201544266194105">
        <ele>1330.4000000000001</ele>
        <time>2019-06-17T13:25:54Z</time>
      </trkpt>
      <trkpt lat="42.825217405334115" lon="13.201664378866553">
        <ele>1332.78</ele>
        <time>2019-06-17T13:26:09Z</time>
      </trkpt>
      <trkpt lat="42.825343552976847" lon="13.201772840693593">
        <ele>1335.3800000000001</ele>
        <time>2019-06-17T13:26:25Z</time>
      </trkpt>
      <trkpt lat="42.825473472476006" lon="13.201875267550349">
        <ele>1338.53</ele>
        <time>2019-06-17T13:26:41Z</time>
      </trkpt>
      <trkpt lat="42.825613031163812" lon="13.201963780447841">
        <ele>1341.22</ele>
        <time>2019-06-17T13:26:58Z</time>
      </trkpt>
      <trkpt lat="42.825745213776827" lon="13.202051371335983">
        <ele>1343.3399999999999</ele>
        <time>2019-06-17T13:27:14Z</time>
      </trkpt>
      <trkpt lat="42.825860297307372" lon="13.20215187035501">
        <ele>1346.24</ele>
        <time>2019-06-17T13:27:30Z</time>
      </trkpt>
      <trkpt lat="42.825969345867634" lon="13.202243316918612">
        <ele>1348.98</ele>
        <time>2019-06-17T13:27:46Z</time>
      </trkpt>
      <trkpt lat="42.826095158234239" lon="13.202338200062513">
        <ele>1351.9100000000001</ele>
        <time>2019-06-17T13:28:02Z</time>
      </trkpt>
      <trkpt lat="42.826223904266953" lon="13.202427048236132">
        <ele>1354.6900000000001</ele>
        <time>2019-06-17T13:28:17Z</time>
      </trkpt>
      <trkpt lat="42.826353823766112" lon="13.202559566125274">
        <ele>1357.47</ele>
        <time>2019-06-17T13:28:34Z</time>
      </trkpt>
      <trkpt lat="42.826468991115689" lon="13.202657047659159">
        <ele>1360.27</ele>
        <time>2019-06-17T13:28:49Z</time>
      </trkpt>
      <trkpt lat="42.826588852331042" lon="13.202761234715581">
        <ele>1362.6099999999999</ele>
        <time>2019-06-17T13:29:04Z</time>
      </trkpt>
      <trkpt lat="42.826696308329701" lon="13.202895764261484">
        <ele>1364.97</ele>
        <time>2019-06-17T13:29:20Z</time>
      </trkpt>
      <trkpt lat="42.826822204515338" lon="13.203017469495535">
        <ele>1367.7</ele>
        <time>2019-06-17T13:29:38Z</time>
      </trkpt>
      <trkpt lat="42.826933180913329" lon="13.203092068433762">
        <ele>1370.78</ele>
        <time>2019-06-17T13:29:52Z</time>
      </trkpt>
      <trkpt lat="42.827033093199134" lon="13.203228777274489">
        <ele>1373.8</ele>
        <time>2019-06-17T13:30:07Z</time>
      </trkpt>
      <trkpt lat="42.827150858938694" lon="13.203392643481493">
        <ele>1376.1700000000001</ele>
        <time>2019-06-17T13:30:25Z</time>
      </trkpt>
      <trkpt lat="42.827175753191113" lon="13.20343597792089">
        <ele>1376.6800000000001</ele>
        <time>2019-06-17T13:30:29Z</time>
      </trkpt>
      <trkpt lat="42.82727038487792" lon="13.203574195504189">
        <ele>1379.78</ele>
        <time>2019-06-17T13:30:43Z</time>
      </trkpt>
      <trkpt lat="42.82736518420279" lon="13.203710736706853">
        <ele>1382.5899999999999</ele>
        <time>2019-06-17T13:30:58Z</time>
      </trkpt>
      <trkpt lat="42.827481776475906" lon="13.203854151070118">
        <ele>1385.5</ele>
        <time>2019-06-17T13:31:15Z</time>
      </trkpt>
      <trkpt lat="42.827581353485584" lon="13.203967390581965">
        <ele>1388.29</ele>
        <time>2019-06-17T13:31:30Z</time>
      </trkpt>
      <trkpt lat="42.827665256336331" lon="13.204087587073445">
        <ele>1390.9100000000001</ele>
        <time>2019-06-17T13:31:44Z</time>
      </trkpt>
      <trkpt lat="42.827760139480233" lon="13.204217674210668">
        <ele>1394.03</ele>
        <time>2019-06-17T13:31:59Z</time>
      </trkpt>
      <trkpt lat="42.827858794480562" lon="13.204351030290127">
        <ele>1396.71</ele>
        <time>2019-06-17T13:32:15Z</time>
      </trkpt>
      <trkpt lat="42.827961975708604" lon="13.204483799636364">
        <ele>1399.27</ele>
        <time>2019-06-17T13:32:32Z</time>
      </trkpt>
      <trkpt lat="42.828089212998748" lon="13.204619335010648">
        <ele>1402.49</ele>
        <time>2019-06-17T13:32:50Z</time>
      </trkpt>
      <trkpt lat="42.828171690925956" lon="13.204702902585268">
        <ele>1405.5599999999999</ele>
        <time>2019-06-17T13:33:02Z</time>
      </trkpt>
      <trkpt lat="42.828279985114932" lon="13.204790577292442">
        <ele>1408.3199999999999</ele>
        <time>2019-06-17T13:33:18Z</time>
      </trkpt>
      <trkpt lat="42.828392302617431" lon="13.204872719943523">
        <ele>1411.21</ele>
        <time>2019-06-17T13:33:34Z</time>
      </trkpt>
      <trkpt lat="42.828511409461498" lon="13.204934913665056">
        <ele>1413.6800000000001</ele>
        <time>2019-06-17T13:33:50Z</time>
      </trkpt>
      <trkpt lat="42.828598162159324" lon="13.204990737140179">
        <ele>1416.1400000000001</ele>
        <time>2019-06-17T13:34:04Z</time>
      </trkpt>
      <trkpt lat="42.828616686165333" lon="13.205000376328826">
        <ele>1416.6500000000001</ele>
        <time>2019-06-17T13:34:06Z</time>
      </trkpt>
      <trkpt lat="42.828725818544626" lon="13.205093750730157">
        <ele>1416.52</ele>
        <time>2019-06-17T13:34:21Z</time>
      </trkpt>
      <trkpt lat="42.828812319785357" lon="13.205184023827314">
        <ele>1417.8499999999999</ele>
        <time>2019-06-17T13:34:33Z</time>
      </trkpt>
      <trkpt lat="42.828868227079511" lon="13.205320565029979">
        <ele>1418.79</ele>
        <time>2019-06-17T13:34:43Z</time>
      </trkpt>
      <trkpt lat="42.828979706391692" lon="13.205429278314114">
        <ele>1420.3299999999999</ele>
        <time>2019-06-17T13:34:57Z</time>
      </trkpt>
      <trkpt lat="42.829071320593357" lon="13.205525586381555">
        <ele>1421.0899999999999</ele>
        <time>2019-06-17T13:35:09Z</time>
      </trkpt>
      <trkpt lat="42.829142482951283" lon="13.205615356564522">
        <ele>1420.6800000000001</ele>
        <time>2019-06-17T13:35:18Z</time>
      </trkpt>
      <trkpt lat="42.829119181260467" lon="13.205788778141141">
        <ele>1421.0699999999999</ele>
        <time>2019-06-17T13:35:31Z</time>
      </trkpt>
      <trkpt lat="42.829099735245109" lon="13.205804452300072">
        <ele>1421.1700000000001</ele>
        <time>2019-06-17T13:35:40Z</time>
      </trkpt>
      <trkpt lat="42.829091604799032" lon="13.205799339339137">
        <ele>1420.6600000000001</ele>
        <time>2019-06-17T13:35:50Z</time>
      </trkpt>
      <trkpt lat="42.829092526808381" lon="13.205800093710423">
        <ele>1421.1900000000001</ele>
        <time>2019-06-17T13:36:12Z</time>
      </trkpt>
      <trkpt lat="42.829108200967312" lon="13.205802356824279">
        <ele>1421.28</ele>
        <time>2019-06-17T13:36:31Z</time>
      </trkpt>
    </trkseg>
  </trk>

  <trk>
    <name>monte-sibilla2019-06-20</name>
    <extensions>
      <gpxx:TrackExtension>
        <gpxx:DisplayColor>Yellow</gpxx:DisplayColor>
      </gpxx:TrackExtension>
      <gpxtrkx:TrackStatsExtension xmlns:gpxtrkx="http://www.garmin.com/xmlschemas/TrackStatsExtension/v1">
        <gpxtrkx:Distance>11909</gpxtrkx:Distance>
        <gpxtrkx:TotalElapsedTime>21062</gpxtrkx:TotalElapsedTime>
        <gpxtrkx:MovingTime>12832</gpxtrkx:MovingTime>
        <gpxtrkx:StoppedTime>8221</gpxtrkx:StoppedTime>
        <gpxtrkx:MovingSpeed>1</gpxtrkx:MovingSpeed>
        <gpxtrkx:MaxSpeed>2</gpxtrkx:MaxSpeed>
        <gpxtrkx:MaxElevation>2170</gpxtrkx:MaxElevation>
        <gpxtrkx:MinElevation>1530</gpxtrkx:MinElevation>
        <gpxtrkx:Ascent>702</gpxtrkx:Ascent>
        <gpxtrkx:Descent>699</gpxtrkx:Descent>
        <gpxtrkx:AvgAscentRate>0</gpxtrkx:AvgAscentRate>
        <gpxtrkx:MaxAscentRate>0</gpxtrkx:MaxAscentRate>
        <gpxtrkx:AvgDescentRate>0</gpxtrkx:AvgDescentRate>
        <gpxtrkx:MaxDescentRate>-0</gpxtrkx:MaxDescentRate>
      </gpxtrkx:TrackStatsExtension>
    </extensions>
    <trkseg>
      <trkpt lat="42.907883170992136" lon="13.292055996134877">
        <ele>1530.52</ele>
        <time>2019-06-20T07:02:24Z</time>
      </trkpt>
      <trkpt lat="42.907883673906326" lon="13.292056666687131">
        <ele>1530.52</ele>
        <time>2019-06-20T07:02:25Z</time>
      </trkpt>
      <trkpt lat="42.907911166548729" lon="13.292004950344563">
        <ele>1531.04</ele>
        <time>2019-06-20T07:02:39Z</time>
      </trkpt>
      <trkpt lat="42.907920051366091" lon="13.29197452403605">
        <ele>1530.9300000000001</ele>
        <time>2019-06-20T07:02:49Z</time>
      </trkpt>
      <trkpt lat="42.907935809344053" lon="13.291884586215019">
        <ele>1531.1500000000001</ele>
        <time>2019-06-20T07:03:07Z</time>
      </trkpt>
      <trkpt lat="42.907915273681283" lon="13.291822224855423">
        <ele>1532.72</ele>
        <time>2019-06-20T07:03:20Z</time>
      </trkpt>
      <trkpt lat="42.90789213962853" lon="13.291746117174625">
        <ele>1535.0699999999999</ele>
        <time>2019-06-20T07:03:36Z</time>
      </trkpt>
      <trkpt lat="42.907889876514673" lon="13.291667075827718">
        <ele>1537.47</ele>
        <time>2019-06-20T07:03:52Z</time>
      </trkpt>
      <trkpt lat="42.907822066918015" lon="13.291644109413028">
        <ele>1539.9100000000001</ele>
        <time>2019-06-20T07:04:08Z</time>
      </trkpt>
      <trkpt lat="42.907783258706331" lon="13.291566492989659">
        <ele>1541.4400000000001</ele>
        <time>2019-06-20T07:04:22Z</time>
      </trkpt>
      <trkpt lat="42.907752245664597" lon="13.291558614000678">
        <ele>1541.99</ele>
        <time>2019-06-20T07:04:32Z</time>
      </trkpt>
      <trkpt lat="42.907716454938054" lon="13.291520979255438">
        <ele>1542.1300000000001</ele>
        <time>2019-06-20T07:04:48Z</time>
      </trkpt>
      <trkpt lat="42.907634479925036" lon="13.291450403630733">
        <ele>1542.97</ele>
        <time>2019-06-20T07:05:02Z</time>
      </trkpt>
      <trkpt lat="42.907622577622533" lon="13.291328446939588">
        <ele>1543.8699999999999</ele>
        <time>2019-06-20T07:05:16Z</time>
      </trkpt>
      <trkpt lat="42.907653758302331" lon="13.291211351752281">
        <ele>1545.01</ele>
        <time>2019-06-20T07:05:30Z</time>
      </trkpt>
      <trkpt lat="42.907725339755416" lon="13.291172962635756">
        <ele>1548.04</ele>
        <time>2019-06-20T07:05:45Z</time>
      </trkpt>
      <trkpt lat="42.907797005027533" lon="13.29114287160337">
        <ele>1551.0599999999999</ele>
        <time>2019-06-20T07:06:02Z</time>
      </trkpt>
      <trkpt lat="42.907837741076946" lon="13.291108254343271">
        <ele>1553.1300000000001</ele>
        <time>2019-06-20T07:06:16Z</time>
      </trkpt>
      <trkpt lat="42.907881578430533" lon="13.291073637083173">
        <ele>1553.96</ele>
        <time>2019-06-20T07:06:31Z</time>
      </trkpt>
      <trkpt lat="42.907843608409166" lon="13.291061483323574">
        <ele>1554.9200000000001</ele>
        <time>2019-06-20T07:06:43Z</time>
      </trkpt>
      <trkpt lat="42.907869508489966" lon="13.291074894368649">
        <ele>1554.05</ele>
        <time>2019-06-20T07:06:55Z</time>
      </trkpt>
      <trkpt lat="42.907933630049229" lon="13.291086042299867">
        <ele>1554.52</ele>
        <time>2019-06-20T07:07:05Z</time>
      </trkpt>
      <trkpt lat="42.907984089106321" lon="13.29104270786047">
        <ele>1556.49</ele>
        <time>2019-06-20T07:07:22Z</time>
      </trkpt>
      <trkpt lat="42.908012084662914" lon="13.291035918518901">
        <ele>1557.96</ele>
        <time>2019-06-20T07:07:34Z</time>
      </trkpt>
      <trkpt lat="42.908065393567085" lon="13.290997613221407">
        <ele>1561.04</ele>
        <time>2019-06-20T07:07:53Z</time>
      </trkpt>
      <trkpt lat="42.908098585903645" lon="13.290978837758303">
        <ele>1563.1099999999999</ele>
        <time>2019-06-20T07:08:07Z</time>
      </trkpt>
      <trkpt lat="42.908165473490953" lon="13.290933156386018">
        <ele>1564.8</ele>
        <time>2019-06-20T07:08:23Z</time>
      </trkpt>
      <trkpt lat="42.908226158469915" lon="13.29094204120338">
        <ele>1565.29</ele>
        <time>2019-06-20T07:08:31Z</time>
      </trkpt>
      <trkpt lat="42.908373177051544" lon="13.290970036759973">
        <ele>1565.8199999999999</ele>
        <time>2019-06-20T07:08:47Z</time>
      </trkpt>
      <trkpt lat="42.908476525917649" lon="13.290961319580674">
        <ele>1566.24</ele>
        <time>2019-06-20T07:08:59Z</time>
      </trkpt>
      <trkpt lat="42.908581802621484" lon="13.290921086445451">
        <ele>1567.03</ele>
        <time>2019-06-20T07:09:11Z</time>
      </trkpt>
      <trkpt lat="42.908674590289593" lon="13.290869621559978">
        <ele>1569.01</ele>
        <time>2019-06-20T07:09:25Z</time>
      </trkpt>
      <trkpt lat="42.908801743760705" lon="13.290841626003385">
        <ele>1571.04</ele>
        <time>2019-06-20T07:09:41Z</time>
      </trkpt>
      <trkpt lat="42.908926801756024" lon="13.290813881903887">
        <ele>1573.02</ele>
        <time>2019-06-20T07:09:58Z</time>
      </trkpt>
      <trkpt lat="42.90904875844717" lon="13.290798543021083">
        <ele>1575.53</ele>
        <time>2019-06-20T07:10:14Z</time>
      </trkpt>
      <trkpt lat="42.909193597733974" lon="13.290761327371001">
        <ele>1577.04</ele>
        <time>2019-06-20T07:10:31Z</time>
      </trkpt>
      <trkpt lat="42.909296611323953" lon="13.29073634929955">
        <ele>1578.5799999999999</ele>
        <time>2019-06-20T07:10:44Z</time>
      </trkpt>
      <trkpt lat="42.909410689026117" lon="13.290782952681184">
        <ele>1580.9400000000001</ele>
        <time>2019-06-20T07:11:01Z</time>
      </trkpt>
      <trkpt lat="42.909489059820771" lon="13.290829639881849">
        <ele>1582.05</ele>
        <time>2019-06-20T07:11:12Z</time>
      </trkpt>
      <trkpt lat="42.90961260907352" lon="13.29088881611824">
        <ele>1582.8800000000001</ele>
        <time>2019-06-20T07:11:27Z</time>
      </trkpt>
      <trkpt lat="42.90972844697535" lon="13.29094204120338">
        <ele>1584.71</ele>
        <time>2019-06-20T07:11:44Z</time>
      </trkpt>
      <trkpt lat="42.909816792234778" lon="13.291011694818735">
        <ele>1586.72</ele>
        <time>2019-06-20T07:11:58Z</time>
      </trkpt>
      <trkpt lat="42.909880578517914" lon="13.291095346212387">
        <ele>1588.3199999999999</ele>
        <time>2019-06-20T07:12:12Z</time>
      </trkpt>
      <trkpt lat="42.90990287438035" lon="13.291100459173322">
        <ele>1589.28</ele>
        <time>2019-06-20T07:12:24Z</time>
      </trkpt>
      <trkpt lat="42.909966493025422" lon="13.291061902418733">
        <ele>1590.3499999999999</ele>
        <time>2019-06-20T07:12:35Z</time>
      </trkpt>
      <trkpt lat="42.91002550162375" lon="13.291029212996364">
        <ele>1592.5899999999999</ele>
        <time>2019-06-20T07:12:48Z</time>
      </trkpt>
      <trkpt lat="42.910094987601042" lon="13.290973138064146">
        <ele>1595.1800000000001</ele>
        <time>2019-06-20T07:13:04Z</time>
      </trkpt>
      <trkpt lat="42.910124910995364" lon="13.290953021496534">
        <ele>1596.3699999999999</ele>
        <time>2019-06-20T07:13:16Z</time>
      </trkpt>
      <trkpt lat="42.910163132473826" lon="13.29089468345046">
        <ele>1598.01</ele>
        <time>2019-06-20T07:13:29Z</time>
      </trkpt>
      <trkpt lat="42.910194983705878" lon="13.290753196924925">
        <ele>1600.45</ele>
        <time>2019-06-20T07:13:43Z</time>
      </trkpt>
      <trkpt lat="42.910190792754292" lon="13.29059025272727">
        <ele>1602.1199999999999</ele>
        <time>2019-06-20T07:13:58Z</time>
      </trkpt>
      <trkpt lat="42.910143015906215" lon="13.290443066507578">
        <ele>1604.2</ele>
        <time>2019-06-20T07:14:14Z</time>
      </trkpt>
      <trkpt lat="42.910049306228757" lon="13.290330916643143">
        <ele>1605.9100000000001</ele>
        <time>2019-06-20T07:14:29Z</time>
      </trkpt>
      <trkpt lat="42.909933216869831" lon="13.290250785648823">
        <ele>1607.1199999999999</ele>
        <time>2019-06-20T07:14:45Z</time>
      </trkpt>
      <trkpt lat="42.909915363416076" lon="13.290245085954666">
        <ele>1607.25</ele>
        <time>2019-06-20T07:14:47Z</time>
      </trkpt>
      <trkpt lat="42.909816456958652" lon="13.290185825899243">
        <ele>1608.1800000000001</ele>
        <time>2019-06-20T07:15:01Z</time>
      </trkpt>
      <trkpt lat="42.909860629588366" lon="13.290134696289897">
        <ele>1609.6099999999999</ele>
        <time>2019-06-20T07:15:13Z</time>
      </trkpt>
      <trkpt lat="42.90997420437634" lon="13.290132684633136">
        <ele>1610.98</ele>
        <time>2019-06-20T07:15:27Z</time>
      </trkpt>
      <trkpt lat="42.910074200481176" lon="13.290157997980714">
        <ele>1612.45</ele>
        <time>2019-06-20T07:15:40Z</time>
      </trkpt>
      <trkpt lat="42.910190876573324" lon="13.290195129811764">
        <ele>1614.3</ele>
        <time>2019-06-20T07:15:55Z</time>
      </trkpt>
      <trkpt lat="42.910319454967976" lon="13.290249528363347">
        <ele>1615.95</ele>
        <time>2019-06-20T07:16:11Z</time>
      </trkpt>
      <trkpt lat="42.91042473167181" lon="13.290310464799404">
        <ele>1618.3599999999999</ele>
        <time>2019-06-20T07:16:27Z</time>
      </trkpt>
      <trkpt lat="42.910550376400352" lon="13.290380369871855">
        <ele>1620.3199999999999</ele>
        <time>2019-06-20T07:16:45Z</time>
      </trkpt>
      <trkpt lat="42.910654228180647" lon="13.290421944111586">
        <ele>1622.6099999999999</ele>
        <time>2019-06-20T07:17:02Z</time>
      </trkpt>
      <trkpt lat="42.910768892616034" lon="13.290469385683537">
        <ele>1624.76</ele>
        <time>2019-06-20T07:17:18Z</time>
      </trkpt>
      <trkpt lat="42.910871487110853" lon="13.290559323504567">
        <ele>1626.5999999999999</ele>
        <time>2019-06-20T07:17:35Z</time>
      </trkpt>
      <trkpt lat="42.910929657518864" lon="13.290600897744298">
        <ele>1627.52</ele>
        <time>2019-06-20T07:17:43Z</time>
      </trkpt>
      <trkpt lat="42.911083549261093" lon="13.290681280195713">
        <ele>1629.4000000000001</ele>
        <time>2019-06-20T07:18:01Z</time>
      </trkpt>
      <trkpt lat="42.911109114065766" lon="13.290689997375011">
        <ele>1629.96</ele>
        <time>2019-06-20T07:18:13Z</time>
      </trkpt>
      <trkpt lat="42.911153705790639" lon="13.29068404622376">
        <ele>1630.5899999999999</ele>
        <time>2019-06-20T07:18:23Z</time>
      </trkpt>
      <trkpt lat="42.911239033564925" lon="13.290617913007736">
        <ele>1632.52</ele>
        <time>2019-06-20T07:18:38Z</time>
      </trkpt>
      <trkpt lat="42.911207349970937" lon="13.290485478937626">
        <ele>1632.98</ele>
        <time>2019-06-20T07:18:52Z</time>
      </trkpt>
      <trkpt lat="42.911191172897816" lon="13.290425715968013">
        <ele>1634.8900000000001</ele>
        <time>2019-06-20T07:18:58Z</time>
      </trkpt>
      <trkpt lat="42.91116401553154" lon="13.290259251371026">
        <ele>1637.4400000000001</ele>
        <time>2019-06-20T07:19:15Z</time>
      </trkpt>
      <trkpt lat="42.911162925884128" lon="13.29024869017303">
        <ele>1637.3399999999999</ele>
        <time>2019-06-20T07:19:16Z</time>
      </trkpt>
      <trkpt lat="42.911125039681792" lon="13.290116926655173">
        <ele>1638.4300000000001</ele>
        <time>2019-06-20T07:19:30Z</time>
      </trkpt>
      <trkpt lat="42.9110296536237" lon="13.290018858388066">
        <ele>1640.6199999999999</ele>
        <time>2019-06-20T07:19:45Z</time>
      </trkpt>
      <trkpt lat="42.910973578691483" lon="13.289940906688571">
        <ele>1642.6800000000001</ele>
        <time>2019-06-20T07:20:00Z</time>
      </trkpt>
      <trkpt lat="42.911097630858421" lon="13.28990519978106">
        <ele>1644.4000000000001</ele>
        <time>2019-06-20T07:20:15Z</time>
      </trkpt>
      <trkpt lat="42.911207852885127" lon="13.289897572249174">
        <ele>1645.9100000000001</ele>
        <time>2019-06-20T07:20:29Z</time>
      </trkpt>
      <trkpt lat="42.911309693008661" lon="13.289905618876219">
        <ele>1647.9100000000001</ele>
        <time>2019-06-20T07:20:43Z</time>
      </trkpt>
      <trkpt lat="42.911394434049726" lon="13.289864379912615">
        <ele>1650.48</ele>
        <time>2019-06-20T07:21:00Z</time>
      </trkpt>
      <trkpt lat="42.911456963047385" lon="13.289853231981397">
        <ele>1652.3499999999999</ele>
        <time>2019-06-20T07:21:14Z</time>
      </trkpt>
      <trkpt lat="42.91157933883369" lon="13.289877120405436">
        <ele>1655.22</ele>
        <time>2019-06-20T07:21:31Z</time>
      </trkpt>
      <trkpt lat="42.911666845902801" lon="13.289868654683232">
        <ele>1658.21</ele>
        <time>2019-06-20T07:21:47Z</time>
      </trkpt>
      <trkpt lat="42.911745551973581" lon="13.289885083213449">
        <ele>1660.51</ele>
        <time>2019-06-20T07:22:03Z</time>
      </trkpt>
      <trkpt lat="42.911833729594946" lon="13.289883155375719">
        <ele>1663.0599999999999</ele>
        <time>2019-06-20T07:22:20Z</time>
      </trkpt>
      <trkpt lat="42.911891480907798" lon="13.289865050464869">
        <ele>1664.97</ele>
        <time>2019-06-20T07:22:34Z</time>
      </trkpt>
      <trkpt lat="42.911948561668396" lon="13.289852729067206">
        <ele>1667.47</ele>
        <time>2019-06-20T07:22:48Z</time>
      </trkpt>
      <trkpt lat="42.912011761218309" lon="13.28984459862113">
        <ele>1669.7</ele>
        <time>2019-06-20T07:23:04Z</time>
      </trkpt>
      <trkpt lat="42.912020729854703" lon="13.289740746840835">
        <ele>1672.04</ele>
        <time>2019-06-20T07:23:20Z</time>
      </trkpt>
      <trkpt lat="42.912072446197271" lon="13.289706129580736">
        <ele>1674.0799999999999</ele>
        <time>2019-06-20T07:23:34Z</time>
      </trkpt>
      <trkpt lat="42.912131622433662" lon="13.289666986092925">
        <ele>1676.4300000000001</ele>
        <time>2019-06-20T07:23:49Z</time>
      </trkpt>
      <trkpt lat="42.912200018763542" lon="13.289642008021474">
        <ele>1679.53</ele>
        <time>2019-06-20T07:24:06Z</time>
      </trkpt>
      <trkpt lat="42.91228249669075" lon="13.289657179266214">
        <ele>1681.97</ele>
        <time>2019-06-20T07:24:22Z</time>
      </trkpt>
      <trkpt lat="42.912345612421632" lon="13.289645360782743">
        <ele>1684.73</ele>
        <time>2019-06-20T07:24:38Z</time>
      </trkpt>
      <trkpt lat="42.912399927154183" lon="13.2895871065557">
        <ele>1687.23</ele>
        <time>2019-06-20T07:24:54Z</time>
      </trkpt>
      <trkpt lat="42.912456002086401" lon="13.289514016360044">
        <ele>1689.5</ele>
        <time>2019-06-20T07:25:08Z</time>
      </trkpt>
      <trkpt lat="42.912536300718784" lon="13.289464144036174">
        <ele>1691.55</ele>
        <time>2019-06-20T07:25:24Z</time>
      </trkpt>
      <trkpt lat="42.912614084780216" lon="13.289448553696275">
        <ele>1693.8800000000001</ele>
        <time>2019-06-20T07:25:40Z</time>
      </trkpt>
      <trkpt lat="42.912696143612266" lon="13.28941410407424">
        <ele>1696</ele>
        <time>2019-06-20T07:25:57Z</time>
      </trkpt>
      <trkpt lat="42.912782477214932" lon="13.289360208436847">
        <ele>1698.54</ele>
        <time>2019-06-20T07:26:16Z</time>
      </trkpt>
      <trkpt lat="42.912870738655329" lon="13.28928611241281">
        <ele>1701.1800000000001</ele>
        <time>2019-06-20T07:26:34Z</time>
      </trkpt>
      <trkpt lat="42.912946427240968" lon="13.289258787408471">
        <ele>1703.4000000000001</ele>
        <time>2019-06-20T07:26:48Z</time>
      </trkpt>
      <trkpt lat="42.913031922653317" lon="13.289238419383764">
        <ele>1705.55</ele>
        <time>2019-06-20T07:27:02Z</time>
      </trkpt>
      <trkpt lat="42.913116328418255" lon="13.289187205955386">
        <ele>1707.8499999999999</ele>
        <time>2019-06-20T07:27:20Z</time>
      </trkpt>
      <trkpt lat="42.91313610970974" lon="13.289168598130345">
        <ele>1708.6800000000001</ele>
        <time>2019-06-20T07:27:32Z</time>
      </trkpt>
      <trkpt lat="42.913207774981856" lon="13.289094585925341">
        <ele>1711.6099999999999</ele>
        <time>2019-06-20T07:27:46Z</time>
      </trkpt>
      <trkpt lat="42.913244571536779" lon="13.289029207080603">
        <ele>1713.45</ele>
        <time>2019-06-20T07:28:00Z</time>
      </trkpt>
      <trkpt lat="42.913146335631609" lon="13.28895921818912">
        <ele>1715.23</ele>
        <time>2019-06-20T07:28:16Z</time>
      </trkpt>
      <trkpt lat="42.913061762228608" lon="13.288918063044548">
        <ele>1716.1099999999999</ele>
        <time>2019-06-20T07:28:31Z</time>
      </trkpt>
      <trkpt lat="42.913082214072347" lon="13.28882435336709">
        <ele>1716.54</ele>
        <time>2019-06-20T07:28:45Z</time>
      </trkpt>
      <trkpt lat="42.913105012848973" lon="13.288792250677943">
        <ele>1719.5599999999999</ele>
        <time>2019-06-20T07:28:50Z</time>
      </trkpt>
      <trkpt lat="42.913110377267003" lon="13.288784790784121">
        <ele>1719.5599999999999</ele>
        <time>2019-06-20T07:28:51Z</time>
      </trkpt>
      <trkpt lat="42.913159327581525" lon="13.288714466616511">
        <ele>1721.9400000000001</ele>
        <time>2019-06-20T07:29:06Z</time>
      </trkpt>
      <trkpt lat="42.913238620385528" lon="13.288632491603494">
        <ele>1724.5899999999999</ele>
        <time>2019-06-20T07:29:24Z</time>
      </trkpt>
      <trkpt lat="42.913317494094372" lon="13.28856241889298">
        <ele>1727.5699999999999</ele>
        <time>2019-06-20T07:29:41Z</time>
      </trkpt>
      <trkpt lat="42.913383040577173" lon="13.288497375324368">
        <ele>1729.1500000000001</ele>
        <time>2019-06-20T07:29:55Z</time>
      </trkpt>
      <trkpt lat="42.91346887126565" lon="13.288428895175457">
        <ele>1730.77</ele>
        <time>2019-06-20T07:30:09Z</time>
      </trkpt>
      <trkpt lat="42.913553696125746" lon="13.288375334814191">
        <ele>1733.1600000000001</ele>
        <time>2019-06-20T07:30:25Z</time>
      </trkpt>
      <trkpt lat="42.913613207638264" lon="13.288340466096997">
        <ele>1735.1099999999999</ele>
        <time>2019-06-20T07:30:40Z</time>
      </trkpt>
      <trkpt lat="42.913650255650282" lon="13.288277601823211">
        <ele>1737.3199999999999</ele>
        <time>2019-06-20T07:30:54Z</time>
      </trkpt>
      <trkpt lat="42.913689315319061" lon="13.288203505799174">
        <ele>1740.3599999999999</ele>
        <time>2019-06-20T07:31:11Z</time>
      </trkpt>
      <trkpt lat="42.913723513484001" lon="13.288138043135405">
        <ele>1742.79</ele>
        <time>2019-06-20T07:31:26Z</time>
      </trkpt>
      <trkpt lat="42.913744300603867" lon="13.288042992353439">
        <ele>1745.1099999999999</ele>
        <time>2019-06-20T07:31:41Z</time>
      </trkpt>
      <trkpt lat="42.913773385807872" lon="13.28793260268867">
        <ele>1748.1099999999999</ele>
        <time>2019-06-20T07:31:59Z</time>
      </trkpt>
      <trkpt lat="42.913792412728071" lon="13.287865882739425">
        <ele>1749.78</ele>
        <time>2019-06-20T07:32:12Z</time>
      </trkpt>
      <trkpt lat="42.913818983361125" lon="13.287769742310047">
        <ele>1752.6099999999999</ele>
        <time>2019-06-20T07:32:28Z</time>
      </trkpt>
      <trkpt lat="42.913840608671308" lon="13.28765750862658">
        <ele>1755.3</ele>
        <time>2019-06-20T07:32:46Z</time>
      </trkpt>
      <trkpt lat="42.913850834593177" lon="13.287561871111393">
        <ele>1757.52</ele>
        <time>2019-06-20T07:33:02Z</time>
      </trkpt>
      <trkpt lat="42.913858629763126" lon="13.287460282444954">
        <ele>1759.9100000000001</ele>
        <time>2019-06-20T07:33:18Z</time>
      </trkpt>
      <trkpt lat="42.913860473781824" lon="13.287342265248299">
        <ele>1762.3299999999999</ele>
        <time>2019-06-20T07:33:36Z</time>
      </trkpt>
      <trkpt lat="42.913889139890671" lon="13.28726414591074">
        <ele>1765.9400000000001</ele>
        <time>2019-06-20T07:33:51Z</time>
      </trkpt>
      <trkpt lat="42.913906658068299" lon="13.287178985774517">
        <ele>1767.22</ele>
        <time>2019-06-20T07:34:04Z</time>
      </trkpt>
      <trkpt lat="42.913911184296012" lon="13.287075133994222">
        <ele>1769.6800000000001</ele>
        <time>2019-06-20T07:34:20Z</time>
      </trkpt>
      <trkpt lat="42.913910849019885" lon="13.286971114575863">
        <ele>1772.1199999999999</ele>
        <time>2019-06-20T07:34:37Z</time>
      </trkpt>
      <trkpt lat="42.91389299556613" lon="13.286884361878037">
        <ele>1774.3800000000001</ele>
        <time>2019-06-20T07:34:53Z</time>
      </trkpt>
      <trkpt lat="42.913898024708033" lon="13.286881679669023">
        <ele>1774.3399999999999</ele>
        <time>2019-06-20T07:35:06Z</time>
      </trkpt>
      <trkpt lat="42.913899114355445" lon="13.286878913640976">
        <ele>1774.4100000000001</ele>
        <time>2019-06-20T07:35:27Z</time>
      </trkpt>
      <trkpt lat="42.913860557600856" lon="13.286801548674703">
        <ele>1776.1500000000001</ele>
        <time>2019-06-20T07:35:41Z</time>
      </trkpt>
      <trkpt lat="42.913836082443595" lon="13.286737678572536">
        <ele>1778.0699999999999</ele>
        <time>2019-06-20T07:35:53Z</time>
      </trkpt>
      <trkpt lat="42.913833232596517" lon="13.286715801805258">
        <ele>1778.6800000000001</ele>
        <time>2019-06-20T07:36:09Z</time>
      </trkpt>
      <trkpt lat="42.913785288110375" lon="13.286747401580215">
        <ele>1778.8099999999999</ele>
        <time>2019-06-20T07:36:20Z</time>
      </trkpt>
      <trkpt lat="42.913785455748439" lon="13.28676869161427">
        <ele>1779.0899999999999</ele>
        <time>2019-06-20T07:36:34Z</time>
      </trkpt>
      <trkpt lat="42.913759220391512" lon="13.286816636100411">
        <ele>1778.9300000000001</ele>
        <time>2019-06-20T07:36:44Z</time>
      </trkpt>
      <trkpt lat="42.913758382201195" lon="13.286813870072365">
        <ele>1777.8199999999999</ele>
        <time>2019-06-20T07:36:55Z</time>
      </trkpt>
      <trkpt lat="42.91375963948667" lon="13.286817809566855">
        <ele>1778.4200000000001</ele>
        <time>2019-06-20T07:37:10Z</time>
      </trkpt>
      <trkpt lat="42.913759052753448" lon="13.286828706040978">
        <ele>1778.4000000000001</ele>
        <time>2019-06-20T07:37:41Z</time>
      </trkpt>
      <trkpt lat="42.913760310038924" lon="13.286837758496404">
        <ele>1779.3900000000001</ele>
        <time>2019-06-20T07:38:49Z</time>
      </trkpt>
      <trkpt lat="42.913761315867305" lon="13.286837171763182">
        <ele>1778.8800000000001</ele>
        <time>2019-06-20T07:39:52Z</time>
      </trkpt>
      <trkpt lat="42.913762489333749" lon="13.286844296380877">
        <ele>1779.3699999999999</ele>
        <time>2019-06-20T07:41:01Z</time>
      </trkpt>
      <trkpt lat="42.913765674456954" lon="13.286839602515101">
        <ele>1779.28</ele>
        <time>2019-06-20T07:42:02Z</time>
      </trkpt>
      <trkpt lat="42.91376693174243" lon="13.286848152056336">
        <ele>1779.96</ele>
        <time>2019-06-20T07:43:04Z</time>
      </trkpt>
      <trkpt lat="42.913762237876654" lon="13.286841362714767">
        <ele>1779.9100000000001</ele>
        <time>2019-06-20T07:44:08Z</time>
      </trkpt>
      <trkpt lat="42.913768859580159" lon="13.286848738789558">
        <ele>1780.01</ele>
        <time>2019-06-20T07:45:07Z</time>
      </trkpt>
      <trkpt lat="42.913760896772146" lon="13.286837758496404">
        <ele>1779.8699999999999</ele>
        <time>2019-06-20T07:46:07Z</time>
      </trkpt>
      <trkpt lat="42.9137650039047" lon="13.286842284724116">
        <ele>1779.8</ele>
        <time>2019-06-20T07:47:09Z</time>
      </trkpt>
      <trkpt lat="42.913762321695685" lon="13.286841111257672">
        <ele>1779.8499999999999</ele>
        <time>2019-06-20T07:48:20Z</time>
      </trkpt>
      <trkpt lat="42.913759220391512" lon="13.286843625828624">
        <ele>1780.3800000000001</ele>
        <time>2019-06-20T07:48:58Z</time>
      </trkpt>
      <trkpt lat="42.913755867630243" lon="13.286832394078374">
        <ele>1780.8</ele>
        <time>2019-06-20T07:49:13Z</time>
      </trkpt>
      <trkpt lat="42.913750251755118" lon="13.286831472069025">
        <ele>1780.4300000000001</ele>
        <time>2019-06-20T07:49:32Z</time>
      </trkpt>
      <trkpt lat="42.913690572604537" lon="13.286848487332463">
        <ele>1781.48</ele>
        <time>2019-06-20T07:49:47Z</time>
      </trkpt>
      <trkpt lat="42.913594264537096" lon="13.286933898925781">
        <ele>1782.5699999999999</ele>
        <time>2019-06-20T07:50:02Z</time>
      </trkpt>
      <trkpt lat="42.913520839065313" lon="13.286984609439969">
        <ele>1783.6600000000001</ele>
        <time>2019-06-20T07:50:14Z</time>
      </trkpt>
      <trkpt lat="42.913426626473665" lon="13.287000954151154">
        <ele>1783.8599999999999</ele>
        <time>2019-06-20T07:50:26Z</time>
      </trkpt>
      <trkpt lat="42.913281954824924" lon="13.287044707685709">
        <ele>1782.95</ele>
        <time>2019-06-20T07:50:42Z</time>
      </trkpt>
      <trkpt lat="42.913141055032611" lon="13.287105057388544">
        <ele>1780.6500000000001</ele>
        <time>2019-06-20T07:50:57Z</time>
      </trkpt>
      <trkpt lat="42.913078526034951" lon="13.28711025416851">
        <ele>1780.6900000000001</ele>
        <time>2019-06-20T07:51:12Z</time>
      </trkpt>
      <trkpt lat="42.913075340911746" lon="13.287109415978193">
        <ele>1780.5999999999999</ele>
        <time>2019-06-20T07:51:39Z</time>
      </trkpt>
      <trkpt lat="42.913076682016253" lon="13.287112014368176">
        <ele>1780.4400000000001</ele>
        <time>2019-06-20T07:52:10Z</time>
      </trkpt>
      <trkpt lat="42.913078358396888" lon="13.287108577787876">
        <ele>1780.2</ele>
        <time>2019-06-20T07:52:38Z</time>
      </trkpt>
      <trkpt lat="42.91307701729238" lon="13.287110673263669">
        <ele>1780.4300000000001</ele>
        <time>2019-06-20T07:53:07Z</time>
      </trkpt>
      <trkpt lat="42.913066539913416" lon="13.287107823416591">
        <ele>1780.5999999999999</ele>
        <time>2019-06-20T07:53:09Z</time>
      </trkpt>
      <trkpt lat="42.912921197712421" lon="13.287113606929779">
        <ele>1779.21</ele>
        <time>2019-06-20T07:53:25Z</time>
      </trkpt>
      <trkpt lat="42.912871828302741" lon="13.287124671041965">
        <ele>1778.8099999999999</ele>
        <time>2019-06-20T07:53:36Z</time>
      </trkpt>
      <trkpt lat="42.912787590175867" lon="13.287150571122766">
        <ele>1777.27</ele>
        <time>2019-06-20T07:53:49Z</time>
      </trkpt>
      <trkpt lat="42.912665046751499" lon="13.287150822579861">
        <ele>1775.74</ele>
        <time>2019-06-20T07:54:03Z</time>
      </trkpt>
      <trkpt lat="42.912478046491742" lon="13.287113858386874">
        <ele>1775.98</ele>
        <time>2019-06-20T07:54:20Z</time>
      </trkpt>
      <trkpt lat="42.91244812309742" lon="13.287105392664671">
        <ele>1775.6199999999999</ele>
        <time>2019-06-20T07:54:24Z</time>
      </trkpt>
      <trkpt lat="42.912418115884066" lon="13.287103129550815">
        <ele>1775.47</ele>
        <time>2019-06-20T07:54:27Z</time>
      </trkpt>
      <trkpt lat="42.912249974906445" lon="13.287080079317093">
        <ele>1774.9200000000001</ele>
        <time>2019-06-20T07:54:43Z</time>
      </trkpt>
      <trkpt lat="42.912073452025652" lon="13.287035655230284">
        <ele>1774.4200000000001</ele>
        <time>2019-06-20T07:55:00Z</time>
      </trkpt>
      <trkpt lat="42.911953506991267" lon="13.287002462893724">
        <ele>1773.97</ele>
        <time>2019-06-20T07:55:12Z</time>
      </trkpt>
      <trkpt lat="42.911796849220991" lon="13.286970863118768">
        <ele>1774.6700000000001</ele>
        <time>2019-06-20T07:55:28Z</time>
      </trkpt>
      <trkpt lat="42.911603646352887" lon="13.286942448467016">
        <ele>1773.4300000000001</ele>
        <time>2019-06-20T07:55:48Z</time>
      </trkpt>
      <trkpt lat="42.911563832312822" lon="13.286951165646315">
        <ele>1773.3099999999999</ele>
        <time>2019-06-20T07:55:54Z</time>
      </trkpt>
      <trkpt lat="42.911525191739202" lon="13.286947645246983">
        <ele>1772.8</ele>
        <time>2019-06-20T07:55:58Z</time>
      </trkpt>
      <trkpt lat="42.911383872851729" lon="13.286913363263011">
        <ele>1772.6800000000001</ele>
        <time>2019-06-20T07:56:13Z</time>
      </trkpt>
      <trkpt lat="42.911254959180951" lon="13.286874387413263">
        <ele>1772.27</ele>
        <time>2019-06-20T07:56:27Z</time>
      </trkpt>
      <trkpt lat="42.911118753254414" lon="13.286832645535469">
        <ele>1770.54</ele>
        <time>2019-06-20T07:56:41Z</time>
      </trkpt>
      <trkpt lat="42.910990761592984" lon="13.286768775433302">
        <ele>1770.26</ele>
        <time>2019-06-20T07:56:56Z</time>
      </trkpt>
      <trkpt lat="42.910872241482139" lon="13.286728039383888">
        <ele>1770.78</ele>
        <time>2019-06-20T07:57:10Z</time>
      </trkpt>
      <trkpt lat="42.910750368610024" lon="13.286688644438982">
        <ele>1770.53</ele>
        <time>2019-06-20T07:57:25Z</time>
      </trkpt>
      <trkpt lat="42.910719020292163" lon="13.286662744358182">
        <ele>1770.77</ele>
        <time>2019-06-20T07:57:30Z</time>
      </trkpt>
      <trkpt lat="42.910585580393672" lon="13.286569286137819">
        <ele>1770.8199999999999</ele>
        <time>2019-06-20T07:57:46Z</time>
      </trkpt>
      <trkpt lat="42.910486003383994" lon="13.286485886201262">
        <ele>1770.8800000000001</ele>
        <time>2019-06-20T07:58:00Z</time>
      </trkpt>
      <trkpt lat="42.910455241799355" lon="13.286459818482399">
        <ele>1770.77</ele>
        <time>2019-06-20T07:58:05Z</time>
      </trkpt>
      <trkpt lat="42.91040469892323" lon="13.286406677216291">
        <ele>1770.6900000000001</ele>
        <time>2019-06-20T07:58:12Z</time>
      </trkpt>
      <trkpt lat="42.910263044759631" lon="13.286319253966212">
        <ele>1772.48</ele>
        <time>2019-06-20T07:58:31Z</time>
      </trkpt>
      <trkpt lat="42.91021266952157" lon="13.28625856898725">
        <ele>1773.6700000000001</ele>
        <time>2019-06-20T07:58:44Z</time>
      </trkpt>
      <trkpt lat="42.910178722813725" lon="13.286169385537505">
        <ele>1772.1199999999999</ele>
        <time>2019-06-20T07:58:54Z</time>
      </trkpt>
      <trkpt lat="42.910164892673492" lon="13.286106269806623">
        <ele>1772.1099999999999</ele>
        <time>2019-06-20T07:59:01Z</time>
      </trkpt>
      <trkpt lat="42.91008023545146" lon="13.285996383056045">
        <ele>1772.6900000000001</ele>
        <time>2019-06-20T07:59:15Z</time>
      </trkpt>
      <trkpt lat="42.91003086604178" lon="13.285946594551206">
        <ele>1773.6800000000001</ele>
        <time>2019-06-20T07:59:29Z</time>
      </trkpt>
      <trkpt lat="42.910024411976337" lon="13.285940643399954">
        <ele>1773.71</ele>
        <time>2019-06-20T07:59:30Z</time>
      </trkpt>
      <trkpt lat="42.90990337729454" lon="13.285854728892446">
        <ele>1776.23</ele>
        <time>2019-06-20T07:59:47Z</time>
      </trkpt>
      <trkpt lat="42.90981100872159" lon="13.28582757152617">
        <ele>1779.3099999999999</ele>
        <time>2019-06-20T08:00:04Z</time>
      </trkpt>
      <trkpt lat="42.909680921584368" lon="13.285798067227006">
        <ele>1781.29</ele>
        <time>2019-06-20T08:00:22Z</time>
      </trkpt>
      <trkpt lat="42.909573297947645" lon="13.285741740837693">
        <ele>1784.48</ele>
        <time>2019-06-20T08:00:37Z</time>
      </trkpt>
      <trkpt lat="42.909476403146982" lon="13.285646606236696">
        <ele>1787.23</ele>
        <time>2019-06-20T08:00:54Z</time>
      </trkpt>
      <trkpt lat="42.909347489476204" lon="13.285577623173594">
        <ele>1788.6900000000001</ele>
        <time>2019-06-20T08:01:11Z</time>
      </trkpt>
      <trkpt lat="42.909234501421452" lon="13.285500006750226">
        <ele>1791.04</ele>
        <time>2019-06-20T08:01:28Z</time>
      </trkpt>
      <trkpt lat="42.909208098426461" lon="13.285489529371262">
        <ele>1791.1199999999999</ele>
        <time>2019-06-20T08:01:31Z</time>
      </trkpt>
      <trkpt lat="42.909057140350342" lon="13.285445021465421">
        <ele>1792.26</ele>
        <time>2019-06-20T08:01:48Z</time>
      </trkpt>
      <trkpt lat="42.908914145082235" lon="13.285440411418676">
        <ele>1793.3699999999999</ele>
        <time>2019-06-20T08:02:03Z</time>
      </trkpt>
      <trkpt lat="42.908769892528653" lon="13.28544594347477">
        <ele>1794.51</ele>
        <time>2019-06-20T08:02:19Z</time>
      </trkpt>
      <trkpt lat="42.908673333004117" lon="13.285445356741548">
        <ele>1794.98</ele>
        <time>2019-06-20T08:02:31Z</time>
      </trkpt>
      <trkpt lat="42.908641984686255" lon="13.285438818857074">
        <ele>1795.5899999999999</ele>
        <time>2019-06-20T08:02:36Z</time>
      </trkpt>
      <trkpt lat="42.908620778471231" lon="13.285438483580947">
        <ele>1795.47</ele>
        <time>2019-06-20T08:02:38Z</time>
      </trkpt>
      <trkpt lat="42.908471329137683" lon="13.285387773066759">
        <ele>1795.6400000000001</ele>
        <time>2019-06-20T08:02:54Z</time>
      </trkpt>
      <trkpt lat="42.908335123211145" lon="13.285298338159919">
        <ele>1796.75</ele>
        <time>2019-06-20T08:03:11Z</time>
      </trkpt>
      <trkpt lat="42.908195983618498" lon="13.285201443359256">
        <ele>1796.5999999999999</ele>
        <time>2019-06-20T08:03:27Z</time>
      </trkpt>
      <trkpt lat="42.90808760561049" lon="13.285078648477793">
        <ele>1798.3499999999999</ele>
        <time>2019-06-20T08:03:44Z</time>
      </trkpt>
      <trkpt lat="42.907981239259243" lon="13.284939676523209">
        <ele>1800.7</ele>
        <time>2019-06-20T08:04:02Z</time>
      </trkpt>
      <trkpt lat="42.907888200134039" lon="13.284805063158274">
        <ele>1803.3099999999999</ele>
        <time>2019-06-20T08:04:19Z</time>
      </trkpt>
      <trkpt lat="42.907776972278953" lon="13.284691907465458">
        <ele>1805.6800000000001</ele>
        <time>2019-06-20T08:04:37Z</time>
      </trkpt>
      <trkpt lat="42.907651998102665" lon="13.284617308527231">
        <ele>1808.29</ele>
        <time>2019-06-20T08:04:55Z</time>
      </trkpt>
      <trkpt lat="42.907517552375793" lon="13.284587552770972">
        <ele>1810.24</ele>
        <time>2019-06-20T08:05:13Z</time>
      </trkpt>
      <trkpt lat="42.907382100820541" lon="13.284557461738586">
        <ele>1811.95</ele>
        <time>2019-06-20T08:05:32Z</time>
      </trkpt>
      <trkpt lat="42.907253941521049" lon="13.28451219946146">
        <ele>1814.23</ele>
        <time>2019-06-20T08:05:49Z</time>
      </trkpt>
      <trkpt lat="42.907146234065294" lon="13.284470960497856">
        <ele>1816.1600000000001</ele>
        <time>2019-06-20T08:06:05Z</time>
      </trkpt>
      <trkpt lat="42.907059229910374" lon="13.284430224448442">
        <ele>1817.9000000000001</ele>
        <time>2019-06-20T08:06:18Z</time>
      </trkpt>
      <trkpt lat="42.906925538554788" lon="13.284326205030084">
        <ele>1820.8199999999999</ele>
        <time>2019-06-20T08:06:38Z</time>
      </trkpt>
      <trkpt lat="42.906807353720069" lon="13.284251941367984">
        <ele>1823.23</ele>
        <time>2019-06-20T08:06:58Z</time>
      </trkpt>
      <trkpt lat="42.906700568273664" lon="13.284197710454464">
        <ele>1824.8900000000001</ele>
        <time>2019-06-20T08:07:15Z</time>
      </trkpt>
      <trkpt lat="42.906617168337107" lon="13.284155884757638">
        <ele>1826.25</ele>
        <time>2019-06-20T08:07:30Z</time>
      </trkpt>
      <trkpt lat="42.906515495851636" lon="13.284093691036105">
        <ele>1828.0899999999999</ele>
        <time>2019-06-20T08:07:47Z</time>
      </trkpt>
      <trkpt lat="42.906427653506398" lon="13.284035185351968">
        <ele>1830.0999999999999</ele>
        <time>2019-06-20T08:08:03Z</time>
      </trkpt>
      <trkpt lat="42.906334362924099" lon="13.28399520367384">
        <ele>1831.8199999999999</ele>
        <time>2019-06-20T08:08:19Z</time>
      </trkpt>
      <trkpt lat="42.906244676560163" lon="13.283922700211406">
        <ele>1833.04</ele>
        <time>2019-06-20T08:08:37Z</time>
      </trkpt>
      <trkpt lat="42.906176280230284" lon="13.283857824280858">
        <ele>1835.51</ele>
        <time>2019-06-20T08:08:52Z</time>
      </trkpt>
      <trkpt lat="42.906105704605579" lon="13.28376947902143">
        <ele>1836.97</ele>
        <time>2019-06-20T08:09:08Z</time>
      </trkpt>
      <trkpt lat="42.906043594703078" lon="13.283683648332953">
        <ele>1838.97</ele>
        <time>2019-06-20T08:09:24Z</time>
      </trkpt>
      <trkpt lat="42.905999002978206" lon="13.283605026081204">
        <ele>1840.3699999999999</ele>
        <time>2019-06-20T08:09:36Z</time>
      </trkpt>
      <trkpt lat="42.905944939702749" lon="13.283507628366351">
        <ele>1841.9200000000001</ele>
        <time>2019-06-20T08:09:51Z</time>
      </trkpt>
      <trkpt lat="42.905881907790899" lon="13.28340201638639">
        <ele>1843.8099999999999</ele>
        <time>2019-06-20T08:10:07Z</time>
      </trkpt>
      <trkpt lat="42.905827509239316" lon="13.283292381092906">
        <ele>1845.4300000000001</ele>
        <time>2019-06-20T08:10:23Z</time>
      </trkpt>
      <trkpt lat="42.905767159536481" lon="13.283157851547003">
        <ele>1846.9100000000001</ele>
        <time>2019-06-20T08:10:41Z</time>
      </trkpt>
      <trkpt lat="42.905720891430974" lon="13.283048132434487">
        <ele>1848.1300000000001</ele>
        <time>2019-06-20T08:10:55Z</time>
      </trkpt>
      <trkpt lat="42.905668336898088" lon="13.282937575131655">
        <ele>1849.05</ele>
        <time>2019-06-20T08:11:10Z</time>
      </trkpt>
      <trkpt lat="42.905606813728809" lon="13.28278929926455">
        <ele>1851.1400000000001</ele>
        <time>2019-06-20T08:11:28Z</time>
      </trkpt>
      <trkpt lat="42.905566999688745" lon="13.282670192420483">
        <ele>1852.46</ele>
        <time>2019-06-20T08:11:43Z</time>
      </trkpt>
      <trkpt lat="42.905512852594256" lon="13.282552845776081">
        <ele>1853.8699999999999</ele>
        <time>2019-06-20T08:11:59Z</time>
      </trkpt>
      <trkpt lat="42.905480498448014" lon="13.282474977895617">
        <ele>1854.8499999999999</ele>
        <time>2019-06-20T08:12:09Z</time>
      </trkpt>
      <trkpt lat="42.905426854267716" lon="13.282348243519664">
        <ele>1856.3299999999999</ele>
        <time>2019-06-20T08:12:25Z</time>
      </trkpt>
      <trkpt lat="42.905375305563211" lon="13.282202901318669">
        <ele>1857.98</ele>
        <time>2019-06-20T08:12:43Z</time>
      </trkpt>
      <trkpt lat="42.905327612534165" lon="13.282092260196805">
        <ele>1859.3299999999999</ele>
        <time>2019-06-20T08:12:57Z</time>
      </trkpt>
      <trkpt lat="42.905279081314802" lon="13.281956305727363">
        <ele>1861</ele>
        <time>2019-06-20T08:13:12Z</time>
      </trkpt>
      <trkpt lat="42.905231639742851" lon="13.281818507239223">
        <ele>1861.98</ele>
        <time>2019-06-20T08:13:28Z</time>
      </trkpt>
      <trkpt lat="42.905192580074072" lon="13.281648438423872">
        <ele>1863.5999999999999</ele>
        <time>2019-06-20T08:13:46Z</time>
      </trkpt>
      <trkpt lat="42.90511236526072" lon="13.281542742624879">
        <ele>1864.6800000000001</ele>
        <time>2019-06-20T08:14:03Z</time>
      </trkpt>
      <trkpt lat="42.90501513518393" lon="13.281433694064617">
        <ele>1866.21</ele>
        <time>2019-06-20T08:14:22Z</time>
      </trkpt>
      <trkpt lat="42.904970878735185" lon="13.281326070427895">
        <ele>1867.23</ele>
        <time>2019-06-20T08:14:36Z</time>
      </trkpt>
      <trkpt lat="42.904942966997623" lon="13.281156420707703">
        <ele>1868.8299999999999</ele>
        <time>2019-06-20T08:14:54Z</time>
      </trkpt>
      <trkpt lat="42.904910948127508" lon="13.280969420447946">
        <ele>1870.6500000000001</ele>
        <time>2019-06-20T08:15:13Z</time>
      </trkpt>
      <trkpt lat="42.904896698892117" lon="13.280918458476663">
        <ele>1871.4300000000001</ele>
        <time>2019-06-20T08:15:26Z</time>
      </trkpt>
      <trkpt lat="42.904832493513823" lon="13.280787700787187">
        <ele>1872.3099999999999</ele>
        <time>2019-06-20T08:15:41Z</time>
      </trkpt>
      <trkpt lat="42.904741633683443" lon="13.280632384121418">
        <ele>1873.6199999999999</ele>
        <time>2019-06-20T08:15:58Z</time>
      </trkpt>
      <trkpt lat="42.904666531831026" lon="13.280497938394547">
        <ele>1875.45</ele>
        <time>2019-06-20T08:16:15Z</time>
      </trkpt>
      <trkpt lat="42.90462370030582" lon="13.280343627557158">
        <ele>1878.1500000000001</ele>
        <time>2019-06-20T08:16:33Z</time>
      </trkpt>
      <trkpt lat="42.904637865722179" lon="13.280325857922435">
        <ele>1878.5699999999999</ele>
        <time>2019-06-20T08:16:43Z</time>
      </trkpt>
      <trkpt lat="42.904628729447722" lon="13.280207170173526">
        <ele>1879.3199999999999</ele>
        <time>2019-06-20T08:16:57Z</time>
      </trkpt>
      <trkpt lat="42.904616072773933" lon="13.280072389170527">
        <ele>1880.9400000000001</ele>
        <time>2019-06-20T08:17:12Z</time>
      </trkpt>
      <trkpt lat="42.904600985348225" lon="13.279916234314442">
        <ele>1883.0899999999999</ele>
        <time>2019-06-20T08:17:29Z</time>
      </trkpt>
      <trkpt lat="42.904580198228359" lon="13.279761923477054">
        <ele>1885.77</ele>
        <time>2019-06-20T08:17:47Z</time>
      </trkpt>
      <trkpt lat="42.904555555433035" lon="13.27961171977222">
        <ele>1888.6800000000001</ele>
        <time>2019-06-20T08:18:04Z</time>
      </trkpt>
      <trkpt lat="42.904531080275774" lon="13.279464449733496">
        <ele>1891.6800000000001</ele>
        <time>2019-06-20T08:18:21Z</time>
      </trkpt>
      <trkpt lat="42.904489170759916" lon="13.279320867732167">
        <ele>1893.1600000000001</ele>
        <time>2019-06-20T08:18:38Z</time>
      </trkpt>
      <trkpt lat="42.904435023665428" lon="13.27916462905705">
        <ele>1894.1199999999999</ele>
        <time>2019-06-20T08:18:55Z</time>
      </trkpt>
      <trkpt lat="42.904399987310171" lon="13.279030183330178">
        <ele>1895.45</ele>
        <time>2019-06-20T08:19:10Z</time>
      </trkpt>
      <trkpt lat="42.904348354786634" lon="13.278886349871755">
        <ele>1897.4100000000001</ele>
        <time>2019-06-20T08:19:27Z</time>
      </trkpt>
      <trkpt lat="42.904317174106836" lon="13.278751568868756">
        <ele>1899.98</ele>
        <time>2019-06-20T08:19:43Z</time>
      </trkpt>
      <trkpt lat="42.90430267341435" lon="13.278685435652733">
        <ele>1900.6700000000001</ele>
        <time>2019-06-20T08:19:57Z</time>
      </trkpt>
      <trkpt lat="42.904289178550243" lon="13.278606981039047">
        <ele>1901.3699999999999</ele>
        <time>2019-06-20T08:20:12Z</time>
      </trkpt>
      <trkpt lat="42.904231594875455" lon="13.278478989377618">
        <ele>1902.5999999999999</ele>
        <time>2019-06-20T08:20:28Z</time>
      </trkpt>
      <trkpt lat="42.904202593490481" lon="13.27832861803472">
        <ele>1905.6500000000001</ele>
        <time>2019-06-20T08:20:46Z</time>
      </trkpt>
      <trkpt lat="42.904176525771618" lon="13.278233148157597">
        <ele>1908.01</ele>
        <time>2019-06-20T08:21:00Z</time>
      </trkpt>
      <trkpt lat="42.904153475537896" lon="13.278200123459101">
        <ele>1908.4000000000001</ele>
        <time>2019-06-20T08:21:13Z</time>
      </trkpt>
      <trkpt lat="42.904104609042406" lon="13.278120411559939">
        <ele>1909.52</ele>
        <time>2019-06-20T08:21:25Z</time>
      </trkpt>
      <trkpt lat="42.904052473604679" lon="13.278047908097506">
        <ele>1910.25</ele>
        <time>2019-06-20T08:21:37Z</time>
      </trkpt>
      <trkpt lat="42.903979467228055" lon="13.277905331924558">
        <ele>1912.3699999999999</ele>
        <time>2019-06-20T08:21:53Z</time>
      </trkpt>
      <trkpt lat="42.903926661238074" lon="13.277774155139923">
        <ele>1915.3800000000001</ele>
        <time>2019-06-20T08:22:10Z</time>
      </trkpt>
      <trkpt lat="42.903897827491164" lon="13.277652952820063">
        <ele>1918.46</ele>
        <time>2019-06-20T08:22:26Z</time>
      </trkpt>
      <trkpt lat="42.903856253251433" lon="13.2775370310992">
        <ele>1921.21</ele>
        <time>2019-06-20T08:22:42Z</time>
      </trkpt>
      <trkpt lat="42.903795400634408" lon="13.277403758838773">
        <ele>1923.51</ele>
        <time>2019-06-20T08:22:59Z</time>
      </trkpt>
      <trkpt lat="42.903755670413375" lon="13.277275767177343">
        <ele>1926.1500000000001</ele>
        <time>2019-06-20T08:23:16Z</time>
      </trkpt>
      <trkpt lat="42.90371049195528" lon="13.277142662554979">
        <ele>1928.6900000000001</ele>
        <time>2019-06-20T08:23:34Z</time>
      </trkpt>
      <trkpt lat="42.903682747855783" lon="13.277079546824098">
        <ele>1929.3399999999999</ele>
        <time>2019-06-20T08:23:47Z</time>
      </trkpt>
      <trkpt lat="42.903678389266133" lon="13.27707870863378">
        <ele>1929.0699999999999</ele>
        <time>2019-06-20T08:24:09Z</time>
      </trkpt>
      <trkpt lat="42.903650226071477" lon="13.277013329789042">
        <ele>1929.0899999999999</ele>
        <time>2019-06-20T08:24:34Z</time>
      </trkpt>
      <trkpt lat="42.903577135875821" lon="13.276868406683207">
        <ele>1929.21</ele>
        <time>2019-06-20T08:24:48Z</time>
      </trkpt>
      <trkpt lat="42.903498681262136" lon="13.276728596538305">
        <ele>1929.95</ele>
        <time>2019-06-20T08:25:03Z</time>
      </trkpt>
      <trkpt lat="42.903466578572989" lon="13.276619464159012">
        <ele>1930.5999999999999</ele>
        <time>2019-06-20T08:25:13Z</time>
      </trkpt>
      <trkpt lat="42.903425171971321" lon="13.276433972641826">
        <ele>1932.1099999999999</ele>
        <time>2019-06-20T08:25:31Z</time>
      </trkpt>
      <trkpt lat="42.903412012383342" lon="13.276310842484236">
        <ele>1933.0899999999999</ele>
        <time>2019-06-20T08:25:47Z</time>
      </trkpt>
      <trkpt lat="42.90340069681406" lon="13.27625434845686">
        <ele>1933.6500000000001</ele>
        <time>2019-06-20T08:25:59Z</time>
      </trkpt>
      <trkpt lat="42.903379574418068" lon="13.276106156408787">
        <ele>1935.03</ele>
        <time>2019-06-20T08:26:15Z</time>
      </trkpt>
      <trkpt lat="42.903346801176667" lon="13.275887724012136">
        <ele>1936.9300000000001</ele>
        <time>2019-06-20T08:26:35Z</time>
      </trkpt>
      <trkpt lat="42.903325175866485" lon="13.275742800906301">
        <ele>1937.8699999999999</ele>
        <time>2019-06-20T08:26:50Z</time>
      </trkpt>
      <trkpt lat="42.903310256078839" lon="13.275646828114986">
        <ele>1939.1600000000001</ele>
        <time>2019-06-20T08:27:02Z</time>
      </trkpt>
      <trkpt lat="42.903313105925918" lon="13.275644145905972">
        <ele>1939.0699999999999</ele>
        <time>2019-06-20T08:27:27Z</time>
      </trkpt>
      <trkpt lat="42.903311094269156" lon="13.275638949126005">
        <ele>1939.71</ele>
        <time>2019-06-20T08:27:43Z</time>
      </trkpt>
      <trkpt lat="42.903302796185017" lon="13.275595866143703">
        <ele>1939.8199999999999</ele>
        <time>2019-06-20T08:28:02Z</time>
      </trkpt>
      <trkpt lat="42.903302628546953" lon="13.275597039610147">
        <ele>1939.8699999999999</ele>
        <time>2019-06-20T08:28:22Z</time>
      </trkpt>
      <trkpt lat="42.903305562213063" lon="13.275597877800465">
        <ele>1940.1199999999999</ele>
        <time>2019-06-20T08:28:42Z</time>
      </trkpt>
      <trkpt lat="42.903306316584349" lon="13.275530403479934">
        <ele>1940.1800000000001</ele>
        <time>2019-06-20T08:29:10Z</time>
      </trkpt>
      <trkpt lat="42.903286535292864" lon="13.275385983288288">
        <ele>1941.73</ele>
        <time>2019-06-20T08:29:24Z</time>
      </trkpt>
      <trkpt lat="42.903274884447455" lon="13.275311719626188">
        <ele>1941.96</ele>
        <time>2019-06-20T08:29:36Z</time>
      </trkpt>
      <trkpt lat="42.903237584978342" lon="13.275143997743726">
        <ele>1943.28</ele>
        <time>2019-06-20T08:29:51Z</time>
      </trkpt>
      <trkpt lat="42.903217133134604" lon="13.274939144030213">
        <ele>1943.72</ele>
        <time>2019-06-20T08:30:08Z</time>
      </trkpt>
      <trkpt lat="42.903179246932268" lon="13.274716436862946">
        <ele>1944.5599999999999</ele>
        <time>2019-06-20T08:30:26Z</time>
      </trkpt>
      <trkpt lat="42.903176061809063" lon="13.274704283103347">
        <ele>1944.8800000000001</ele>
        <time>2019-06-20T08:30:42Z</time>
      </trkpt>
      <trkpt lat="42.903177486732602" lon="13.274710150435567">
        <ele>1944.97</ele>
        <time>2019-06-20T08:31:03Z</time>
      </trkpt>
      <trkpt lat="42.903168769553304" lon="13.274728674441576">
        <ele>1944.52</ele>
        <time>2019-06-20T08:31:22Z</time>
      </trkpt>
      <trkpt lat="42.903171703219414" lon="13.274724148213863">
        <ele>1945.76</ele>
        <time>2019-06-20T08:31:27Z</time>
      </trkpt>
      <trkpt lat="42.903161393478513" lon="13.274612165987492">
        <ele>1945.48</ele>
        <time>2019-06-20T08:31:44Z</time>
      </trkpt>
      <trkpt lat="42.903144042938948" lon="13.274448718875647">
        <ele>1947.0999999999999</ele>
        <time>2019-06-20T08:31:59Z</time>
      </trkpt>
      <trkpt lat="42.903115963563323" lon="13.274231040850282">
        <ele>1948.55</ele>
        <time>2019-06-20T08:32:18Z</time>
      </trkpt>
      <trkpt lat="42.903098948299885" lon="13.274041442200541">
        <ele>1950.3199999999999</ele>
        <time>2019-06-20T08:32:34Z</time>
      </trkpt>
      <trkpt lat="42.903076987713575" lon="13.273821752518415">
        <ele>1951.6099999999999</ele>
        <time>2019-06-20T08:32:53Z</time>
      </trkpt>
      <trkpt lat="42.903050500899553" lon="13.273610277101398">
        <ele>1953.4200000000001</ele>
        <time>2019-06-20T08:33:12Z</time>
      </trkpt>
      <trkpt lat="42.903015380725265" lon="13.273410871624947">
        <ele>1956.3299999999999</ele>
        <time>2019-06-20T08:33:29Z</time>
      </trkpt>
      <trkpt lat="42.903014123439789" lon="13.273273659870028">
        <ele>1959.5799999999999</ele>
        <time>2019-06-20T08:33:42Z</time>
      </trkpt>
      <trkpt lat="42.90301663801074" lon="13.273100992664695">
        <ele>1962.4400000000001</ele>
        <time>2019-06-20T08:33:59Z</time>
      </trkpt>
      <trkpt lat="42.902996186167002" lon="13.27291558496654">
        <ele>1965.22</ele>
        <time>2019-06-20T08:34:18Z</time>
      </trkpt>
      <trkpt lat="42.902974812313914" lon="13.272772338241339">
        <ele>1967.75</ele>
        <time>2019-06-20T08:34:35Z</time>
      </trkpt>
      <trkpt lat="42.902973387390375" lon="13.27261752448976">
        <ele>1970.8499999999999</ele>
        <time>2019-06-20T08:34:53Z</time>
      </trkpt>
      <trkpt lat="42.902976153418422" lon="13.272557677701116">
        <ele>1971.9400000000001</ele>
        <time>2019-06-20T08:35:06Z</time>
      </trkpt>
      <trkpt lat="42.902961233630776" lon="13.272459777072072">
        <ele>1973.03</ele>
        <time>2019-06-20T08:35:18Z</time>
      </trkpt>
      <trkpt lat="42.902941787615418" lon="13.272310914471745">
        <ele>1975.27</ele>
        <time>2019-06-20T08:35:34Z</time>
      </trkpt>
      <trkpt lat="42.902952013537288" lon="13.272201111540198">
        <ele>1977.6900000000001</ele>
        <time>2019-06-20T08:35:49Z</time>
      </trkpt>
      <trkpt lat="42.902947319671512" lon="13.27207412570715">
        <ele>1980.28</ele>
        <time>2019-06-20T08:36:04Z</time>
      </trkpt>
      <trkpt lat="42.902914211153984" lon="13.27192266471684">
        <ele>1982.5899999999999</ele>
        <time>2019-06-20T08:36:21Z</time>
      </trkpt>
      <trkpt lat="42.902896357700229" lon="13.271753937005997">
        <ele>1985.6400000000001</ele>
        <time>2019-06-20T08:36:39Z</time>
      </trkpt>
      <trkpt lat="42.902857046574354" lon="13.271621083840728">
        <ele>1987.5599999999999</ele>
        <time>2019-06-20T08:36:55Z</time>
      </trkpt>
      <trkpt lat="42.902845144271851" lon="13.271503401920199">
        <ele>1990.6800000000001</ele>
        <time>2019-06-20T08:37:09Z</time>
      </trkpt>
      <trkpt lat="42.902811449021101" lon="13.271357975900173">
        <ele>1993</ele>
        <time>2019-06-20T08:37:26Z</time>
      </trkpt>
      <trkpt lat="42.90278454311192" lon="13.271282538771629">
        <ele>1993.4200000000001</ele>
        <time>2019-06-20T08:37:41Z</time>
      </trkpt>
      <trkpt lat="42.902769623324275" lon="13.2712615840137">
        <ele>1993.3199999999999</ele>
        <time>2019-06-20T08:37:43Z</time>
      </trkpt>
      <trkpt lat="42.902653953060508" lon="13.271148595958948">
        <ele>1991.3299999999999</ele>
        <time>2019-06-20T08:37:58Z</time>
      </trkpt>
      <trkpt lat="42.902571558952332" lon="13.271053209900856">
        <ele>1988.6400000000001</ele>
        <time>2019-06-20T08:38:08Z</time>
      </trkpt>
      <trkpt lat="42.902480866760015" lon="13.270841399207711">
        <ele>1986.3</ele>
        <time>2019-06-20T08:38:23Z</time>
      </trkpt>
      <trkpt lat="42.902426971122622" lon="13.270633528009057">
        <ele>1987.76</ele>
        <time>2019-06-20T08:38:38Z</time>
      </trkpt>
      <trkpt lat="42.902372069656849" lon="13.27048609033227">
        <ele>1988.9400000000001</ele>
        <time>2019-06-20T08:38:52Z</time>
      </trkpt>
      <trkpt lat="42.902371063828468" lon="13.270490365102887">
        <ele>1989.6400000000001</ele>
        <time>2019-06-20T08:39:03Z</time>
      </trkpt>
      <trkpt lat="42.902366202324629" lon="13.270481145009398">
        <ele>1989.8499999999999</ele>
        <time>2019-06-20T08:39:05Z</time>
      </trkpt>
      <trkpt lat="42.902309289202094" lon="13.270347034558654">
        <ele>1990.74</ele>
        <time>2019-06-20T08:39:22Z</time>
      </trkpt>
      <trkpt lat="42.902306271716952" lon="13.270312752574682">
        <ele>1990.9100000000001</ele>
        <time>2019-06-20T08:39:47Z</time>
      </trkpt>
      <trkpt lat="42.90228758007288" lon="13.270281236618757">
        <ele>1991.6099999999999</ele>
        <time>2019-06-20T08:40:00Z</time>
      </trkpt>
      <trkpt lat="42.902279198169708" lon="13.270277213305235">
        <ele>1991.47</ele>
        <time>2019-06-20T08:40:16Z</time>
      </trkpt>
      <trkpt lat="42.902256483212113" lon="13.270234800875187">
        <ele>1992.45</ele>
        <time>2019-06-20T08:40:27Z</time>
      </trkpt>
      <trkpt lat="42.902254471555352" lon="13.27023446559906">
        <ele>1992.27</ele>
        <time>2019-06-20T08:40:39Z</time>
      </trkpt>
      <trkpt lat="42.902241814881563" lon="13.270190376788378">
        <ele>1993.25</ele>
        <time>2019-06-20T08:40:54Z</time>
      </trkpt>
      <trkpt lat="42.902241060510278" lon="13.270186353474855">
        <ele>1993.1800000000001</ele>
        <time>2019-06-20T08:41:06Z</time>
      </trkpt>
      <trkpt lat="42.902218513190746" lon="13.270144443958998">
        <ele>1993.53</ele>
        <time>2019-06-20T08:41:28Z</time>
      </trkpt>
      <trkpt lat="42.902196384966373" lon="13.270097756758332">
        <ele>1993.95</ele>
        <time>2019-06-20T08:41:45Z</time>
      </trkpt>
      <trkpt lat="42.902199234813452" lon="13.270098594948649">
        <ele>1994.1600000000001</ele>
        <time>2019-06-20T08:42:07Z</time>
      </trkpt>
      <trkpt lat="42.902194205671549" lon="13.270055931061506">
        <ele>1994.6900000000001</ele>
        <time>2019-06-20T08:42:22Z</time>
      </trkpt>
      <trkpt lat="42.902183812111616" lon="13.270049309358001">
        <ele>1994.71</ele>
        <time>2019-06-20T08:42:43Z</time>
      </trkpt>
      <trkpt lat="42.902168054133654" lon="13.27002776786685">
        <ele>1994.8299999999999</ele>
        <time>2019-06-20T08:42:55Z</time>
      </trkpt>
      <trkpt lat="42.902176771312952" lon="13.270058026537299">
        <ele>1994.6400000000001</ele>
        <time>2019-06-20T08:43:12Z</time>
      </trkpt>
      <trkpt lat="42.902217088267207" lon="13.27014310285449">
        <ele>1993.95</ele>
        <time>2019-06-20T08:43:24Z</time>
      </trkpt>
      <trkpt lat="42.902223793789744" lon="13.27014310285449">
        <ele>1994.1300000000001</ele>
        <time>2019-06-20T08:43:27Z</time>
      </trkpt>
      <trkpt lat="42.902238545939326" lon="13.27023739926517">
        <ele>1992.77</ele>
        <time>2019-06-20T08:43:39Z</time>
      </trkpt>
      <trkpt lat="42.902241479605436" lon="13.27027402818203">
        <ele>1992.04</ele>
        <time>2019-06-20T08:43:43Z</time>
      </trkpt>
      <trkpt lat="42.902272995561361" lon="13.270327840000391">
        <ele>1991.26</ele>
        <time>2019-06-20T08:43:57Z</time>
      </trkpt>
      <trkpt lat="42.902250532060862" lon="13.270273189991713">
        <ele>1991.6900000000001</ele>
        <time>2019-06-20T08:44:18Z</time>
      </trkpt>
      <trkpt lat="42.902242401614785" lon="13.270172271877527">
        <ele>1994.0999999999999</ele>
        <time>2019-06-20T08:44:29Z</time>
      </trkpt>
      <trkpt lat="42.902241814881563" lon="13.270131703466177">
        <ele>1994.6300000000001</ele>
        <time>2019-06-20T08:44:41Z</time>
      </trkpt>
      <trkpt lat="42.902240389958024" lon="13.270120387896895">
        <ele>1993.8900000000001</ele>
        <time>2019-06-20T08:44:51Z</time>
      </trkpt>
      <trkpt lat="42.902239803224802" lon="13.27011619694531">
        <ele>1994.3099999999999</ele>
        <time>2019-06-20T08:45:12Z</time>
      </trkpt>
      <trkpt lat="42.902237540110946" lon="13.270107312127948">
        <ele>1994.3399999999999</ele>
        <time>2019-06-20T08:45:53Z</time>
      </trkpt>
      <trkpt lat="42.902241060510278" lon="13.270107144489884">
        <ele>1993.8199999999999</ele>
        <time>2019-06-20T08:46:35Z</time>
      </trkpt>
      <trkpt lat="42.902243910357356" lon="13.270106306299567">
        <ele>1994.1500000000001</ele>
        <time>2019-06-20T08:47:20Z</time>
      </trkpt>
      <trkpt lat="42.902245922014117" lon="13.27011183835566">
        <ele>1994.0799999999999</ele>
        <time>2019-06-20T08:48:11Z</time>
      </trkpt>
      <trkpt lat="42.902247430756688" lon="13.270115526393056">
        <ele>1995.1600000000001</ele>
        <time>2019-06-20T08:48:52Z</time>
      </trkpt>
      <trkpt lat="42.902240138500929" lon="13.270112341269851">
        <ele>1995.1400000000001</ele>
        <time>2019-06-20T08:49:24Z</time>
      </trkpt>
      <trkpt lat="42.902227314189076" lon="13.270115694031119">
        <ele>1995.3800000000001</ele>
        <time>2019-06-20T08:49:56Z</time>
      </trkpt>
      <trkpt lat="42.902228571474552" lon="13.270109239965677">
        <ele>1995.4200000000001</ele>
        <time>2019-06-20T08:50:24Z</time>
      </trkpt>
      <trkpt lat="42.902228906750679" lon="13.270114101469517">
        <ele>1995.55</ele>
        <time>2019-06-20T08:51:09Z</time>
      </trkpt>
      <trkpt lat="42.902233516797423" lon="13.270114520564675">
        <ele>1995.8399999999999</ele>
        <time>2019-06-20T08:51:45Z</time>
      </trkpt>
      <trkpt lat="42.902241060510278" lon="13.270124495029449">
        <ele>1996.54</ele>
        <time>2019-06-20T08:52:13Z</time>
      </trkpt>
      <trkpt lat="42.902242233976722" lon="13.270120052620769">
        <ele>1997.1900000000001</ele>
        <time>2019-06-20T08:52:32Z</time>
      </trkpt>
      <trkpt lat="42.902246508747339" lon="13.270113011822104">
        <ele>1996.46</ele>
        <time>2019-06-20T08:52:46Z</time>
      </trkpt>
      <trkpt lat="42.902247766032815" lon="13.27011133544147">
        <ele>1996.3399999999999</ele>
        <time>2019-06-20T08:53:37Z</time>
      </trkpt>
      <trkpt lat="42.902247430756688" lon="13.270106809213758">
        <ele>1996.72</ele>
        <time>2019-06-20T08:54:30Z</time>
      </trkpt>
      <trkpt lat="42.902235612273216" lon="13.270114855840802">
        <ele>1997.74</ele>
        <time>2019-06-20T08:54:41Z</time>
      </trkpt>
      <trkpt lat="42.902240222319961" lon="13.270121142268181">
        <ele>1997.8299999999999</ele>
        <time>2019-06-20T08:54:58Z</time>
      </trkpt>
      <trkpt lat="42.902244497090578" lon="13.270131535828114">
        <ele>1997.1300000000001</ele>
        <time>2019-06-20T08:55:21Z</time>
      </trkpt>
      <trkpt lat="42.902247263118625" lon="13.270133882761002">
        <ele>1997.25</ele>
        <time>2019-06-20T08:55:39Z</time>
      </trkpt>
      <trkpt lat="42.902244161814451" lon="13.270126925781369">
        <ele>1997.46</ele>
        <time>2019-06-20T08:56:06Z</time>
      </trkpt>
      <trkpt lat="42.90222211740911" lon="13.27009717002511">
        <ele>1997.55</ele>
        <time>2019-06-20T08:56:17Z</time>
      </trkpt>
      <trkpt lat="42.902166126295924" lon="13.269993653520942">
        <ele>1998.3099999999999</ele>
        <time>2019-06-20T08:56:30Z</time>
      </trkpt>
      <trkpt lat="42.902089934796095" lon="13.269863734021783">
        <ele>1999.3800000000001</ele>
        <time>2019-06-20T08:56:43Z</time>
      </trkpt>
      <trkpt lat="42.9020378831774" lon="13.269732724875212">
        <ele>2001.0999999999999</ele>
        <time>2019-06-20T08:56:57Z</time>
      </trkpt>
      <trkpt lat="42.902022125199437" lon="13.269718643277884">
        <ele>2000.8299999999999</ele>
        <time>2019-06-20T08:57:21Z</time>
      </trkpt>
      <trkpt lat="42.902014413848519" lon="13.269644128158689">
        <ele>2002.45</ele>
        <time>2019-06-20T08:57:38Z</time>
      </trkpt>
      <trkpt lat="42.901966134086251" lon="13.269585371017456">
        <ele>2003.76</ele>
        <time>2019-06-20T08:57:49Z</time>
      </trkpt>
      <trkpt lat="42.901936545968056" lon="13.269500378519297">
        <ele>2005.9100000000001</ele>
        <time>2019-06-20T08:58:02Z</time>
      </trkpt>
      <trkpt lat="42.90194165892899" lon="13.269456708803773">
        <ele>2007.6400000000001</ele>
        <time>2019-06-20T08:58:13Z</time>
      </trkpt>
      <trkpt lat="42.901974599808455" lon="13.269453439861536">
        <ele>2008.0999999999999</ele>
        <time>2019-06-20T08:58:28Z</time>
      </trkpt>
      <trkpt lat="42.901962865144014" lon="13.26935637742281">
        <ele>2010.4300000000001</ele>
        <time>2019-06-20T08:58:41Z</time>
      </trkpt>
      <trkpt lat="42.901958925649524" lon="13.269262667745352">
        <ele>2010.3699999999999</ele>
        <time>2019-06-20T08:58:54Z</time>
      </trkpt>
      <trkpt lat="42.901951130479574" lon="13.269243724644184">
        <ele>2010.47</ele>
        <time>2019-06-20T08:59:04Z</time>
      </trkpt>
      <trkpt lat="42.90193579159677" lon="13.26932611875236">
        <ele>2011.55</ele>
        <time>2019-06-20T08:59:14Z</time>
      </trkpt>
      <trkpt lat="42.90192942135036" lon="13.269329220056534">
        <ele>2012.6800000000001</ele>
        <time>2019-06-20T08:59:24Z</time>
      </trkpt>
      <trkpt lat="42.901902180165052" lon="13.269263170659542">
        <ele>2014.3299999999999</ele>
        <time>2019-06-20T08:59:37Z</time>
      </trkpt>
      <trkpt lat="42.901880219578743" lon="13.269204329699278">
        <ele>2016.24</ele>
        <time>2019-06-20T08:59:49Z</time>
      </trkpt>
      <trkpt lat="42.90183269418776" lon="13.269148673862219">
        <ele>2018.0999999999999</ele>
        <time>2019-06-20T09:00:02Z</time>
      </trkpt>
      <trkpt lat="42.901807213202119" lon="13.269062926992774">
        <ele>2021.1400000000001</ele>
        <time>2019-06-20T09:00:16Z</time>
      </trkpt>
      <trkpt lat="42.901754071936011" lon="13.268960416316986">
        <ele>2023.6600000000001</ele>
        <time>2019-06-20T09:00:31Z</time>
      </trkpt>
      <trkpt lat="42.90175256319344" lon="13.268887745216489">
        <ele>2025.9100000000001</ele>
        <time>2019-06-20T09:00:42Z</time>
      </trkpt>
      <trkpt lat="42.901714676991105" lon="13.268773499876261">
        <ele>2028.3800000000001</ele>
        <time>2019-06-20T09:00:58Z</time>
      </trkpt>
      <trkpt lat="42.901678718626499" lon="13.268659422174096">
        <ele>2031.1099999999999</ele>
        <time>2019-06-20T09:01:17Z</time>
      </trkpt>
      <trkpt lat="42.901646867394447" lon="13.26858926564455">
        <ele>2033.6400000000001</ele>
        <time>2019-06-20T09:01:32Z</time>
      </trkpt>
      <trkpt lat="42.901641922071576" lon="13.268523467704654">
        <ele>2036</ele>
        <time>2019-06-20T09:01:46Z</time>
      </trkpt>
      <trkpt lat="42.901605879887938" lon="13.268442582339048">
        <ele>2038.3800000000001</ele>
        <time>2019-06-20T09:02:02Z</time>
      </trkpt>
      <trkpt lat="42.901612920686603" lon="13.268401930108666">
        <ele>2040.1600000000001</ele>
        <time>2019-06-20T09:02:14Z</time>
      </trkpt>
      <trkpt lat="42.9016147647053" lon="13.268356081098318">
        <ele>2041.78</ele>
        <time>2019-06-20T09:02:26Z</time>
      </trkpt>
      <trkpt lat="42.901613004505634" lon="13.268354404717684">
        <ele>2041.8</ele>
        <time>2019-06-20T09:02:43Z</time>
      </trkpt>
      <trkpt lat="42.901610741391778" lon="13.268349627032876">
        <ele>2041.97</ele>
        <time>2019-06-20T09:02:54Z</time>
      </trkpt>
      <trkpt lat="42.90160839445889" lon="13.268358344212174">
        <ele>2041.8199999999999</ele>
        <time>2019-06-20T09:03:16Z</time>
      </trkpt>
      <trkpt lat="42.90160596370697" lon="13.268362283706665">
        <ele>2041.9200000000001</ele>
        <time>2019-06-20T09:03:39Z</time>
      </trkpt>
      <trkpt lat="42.901607640087605" lon="13.268364714458585">
        <ele>2041.8900000000001</ele>
        <time>2019-06-20T09:04:01Z</time>
      </trkpt>
      <trkpt lat="42.901608478277922" lon="13.268367731943727">
        <ele>2041.8199999999999</ele>
        <time>2019-06-20T09:04:29Z</time>
      </trkpt>
      <trkpt lat="42.901604203507304" lon="13.268369911238551">
        <ele>2041.9200000000001</ele>
        <time>2019-06-20T09:04:45Z</time>
      </trkpt>
      <trkpt lat="42.901606634259224" lon="13.268368151038885">
        <ele>2041.77</ele>
        <time>2019-06-20T09:04:58Z</time>
      </trkpt>
      <trkpt lat="42.901602946221828" lon="13.268355745822191">
        <ele>2043.05</ele>
        <time>2019-06-20T09:05:17Z</time>
      </trkpt>
      <trkpt lat="42.901602694764733" lon="13.268353147432208">
        <ele>2042.29</ele>
        <time>2019-06-20T09:05:28Z</time>
      </trkpt>
      <trkpt lat="42.90161669254303" lon="13.268353566527367">
        <ele>2042.3199999999999</ele>
        <time>2019-06-20T09:05:40Z</time>
      </trkpt>
      <trkpt lat="42.901610154658556" lon="13.268351471051574">
        <ele>2043.1199999999999</ele>
        <time>2019-06-20T09:05:56Z</time>
      </trkpt>
      <trkpt lat="42.901607304811478" lon="13.268358511850238">
        <ele>2042.23</ele>
        <time>2019-06-20T09:06:11Z</time>
      </trkpt>
      <trkpt lat="42.901602443307638" lon="13.26836303807795">
        <ele>2042.48</ele>
        <time>2019-06-20T09:06:26Z</time>
      </trkpt>
      <trkpt lat="42.901611076667905" lon="13.268362702801824">
        <ele>2042.75</ele>
        <time>2019-06-20T09:06:39Z</time>
      </trkpt>
      <trkpt lat="42.901605796068907" lon="13.26835717074573">
        <ele>2042.98</ele>
        <time>2019-06-20T09:06:52Z</time>
      </trkpt>
      <trkpt lat="42.901600180193782" lon="13.268345855176449">
        <ele>2043.48</ele>
        <time>2019-06-20T09:07:11Z</time>
      </trkpt>
      <trkpt lat="42.901608981192112" lon="13.268352979794145">
        <ele>2042.6400000000001</ele>
        <time>2019-06-20T09:07:28Z</time>
      </trkpt>
      <trkpt lat="42.901596911251545" lon="13.268348956480622">
        <ele>2042.8</ele>
        <time>2019-06-20T09:07:43Z</time>
      </trkpt>
      <trkpt lat="42.901591546833515" lon="13.268348788842559">
        <ele>2043.6800000000001</ele>
        <time>2019-06-20T09:07:57Z</time>
      </trkpt>
      <trkpt lat="42.901583416387439" lon="13.26833663508296">
        <ele>2045.45</ele>
        <time>2019-06-20T09:08:09Z</time>
      </trkpt>
      <trkpt lat="42.901574363932014" lon="13.268325906246901">
        <ele>2045.76</ele>
        <time>2019-06-20T09:08:25Z</time>
      </trkpt>
      <trkpt lat="42.901574447751045" lon="13.268312327563763">
        <ele>2046.8199999999999</ele>
        <time>2019-06-20T09:08:42Z</time>
      </trkpt>
      <trkpt lat="42.901577549055219" lon="13.268288690596819">
        <ele>2048.7399999999998</ele>
        <time>2019-06-20T09:08:57Z</time>
      </trkpt>
      <trkpt lat="42.901574112474918" lon="13.268244182690978">
        <ele>2051.23</ele>
        <time>2019-06-20T09:09:10Z</time>
      </trkpt>
      <trkpt lat="42.901541339233518" lon="13.268180983141065">
        <ele>2053.29</ele>
        <time>2019-06-20T09:09:23Z</time>
      </trkpt>
      <trkpt lat="42.901531280949712" lon="13.268109234049916">
        <ele>2055.2600000000002</ele>
        <time>2019-06-20T09:09:39Z</time>
      </trkpt>
      <trkpt lat="42.901529353111982" lon="13.268102612346411">
        <ele>2054.6500000000001</ele>
        <time>2019-06-20T09:09:55Z</time>
      </trkpt>
      <trkpt lat="42.901520384475589" lon="13.268058858811855">
        <ele>2056.3600000000001</ele>
        <time>2019-06-20T09:10:13Z</time>
      </trkpt>
      <trkpt lat="42.901506638154387" lon="13.2679633051157">
        <ele>2059.4400000000001</ele>
        <time>2019-06-20T09:10:26Z</time>
      </trkpt>
      <trkpt lat="42.901509571820498" lon="13.267877390608191">
        <ele>2061.7399999999998</ele>
        <time>2019-06-20T09:10:40Z</time>
      </trkpt>
      <trkpt lat="42.901489371433854" lon="13.267808491364121">
        <ele>2063.8499999999999</ele>
        <time>2019-06-20T09:10:53Z</time>
      </trkpt>
      <trkpt lat="42.90147059597075" lon="13.267735568806529">
        <ele>2066.8699999999999</ele>
        <time>2019-06-20T09:11:10Z</time>
      </trkpt>
      <trkpt lat="42.901469087228179" lon="13.26770531013608">
        <ele>2068.1399999999999</ele>
        <time>2019-06-20T09:11:25Z</time>
      </trkpt>
      <trkpt lat="42.901456262916327" lon="13.267666585743427">
        <ele>2070.27</ele>
        <time>2019-06-20T09:11:35Z</time>
      </trkpt>
      <trkpt lat="42.901421561837196" lon="13.267586454749107">
        <ele>2073.1999999999998</ele>
        <time>2019-06-20T09:11:51Z</time>
      </trkpt>
      <trkpt lat="42.901403205469251" lon="13.267504647374153">
        <ele>2074.9099999999999</ele>
        <time>2019-06-20T09:12:05Z</time>
      </trkpt>
      <trkpt lat="42.901388118043542" lon="13.267419906333089">
        <ele>2077.0100000000002</ele>
        <time>2019-06-20T09:12:21Z</time>
      </trkpt>
      <trkpt lat="42.901343945413828" lon="13.267307672649622">
        <ele>2079.46</ele>
        <time>2019-06-20T09:12:40Z</time>
      </trkpt>
      <trkpt lat="42.901322320103645" lon="13.267229720950127">
        <ele>2081.6300000000001</ele>
        <time>2019-06-20T09:12:56Z</time>
      </trkpt>
      <trkpt lat="42.901310417801142" lon="13.267186051234603">
        <ele>2083.1599999999999</ele>
        <time>2019-06-20T09:13:09Z</time>
      </trkpt>
      <trkpt lat="42.901302874088287" lon="13.267172640189528">
        <ele>2082.9200000000001</ele>
        <time>2019-06-20T09:13:31Z</time>
      </trkpt>
      <trkpt lat="42.901242356747389" lon="13.267080103978515">
        <ele>2084.5300000000002</ele>
        <time>2019-06-20T09:13:44Z</time>
      </trkpt>
      <trkpt lat="42.901218552142382" lon="13.267042050138116">
        <ele>2085.1100000000001</ele>
        <time>2019-06-20T09:13:48Z</time>
      </trkpt>
      <trkpt lat="42.901161136105657" lon="13.266954123973846">
        <ele>2086.9699999999998</ele>
        <time>2019-06-20T09:14:03Z</time>
      </trkpt>
      <trkpt lat="42.901100115850568" lon="13.266839291900396">
        <ele>2088.9400000000001</ele>
        <time>2019-06-20T09:14:15Z</time>
      </trkpt>
      <trkpt lat="42.901040939614177" lon="13.266712138429284">
        <ele>2090.96</ele>
        <time>2019-06-20T09:14:27Z</time>
      </trkpt>
      <trkpt lat="42.900966005399823" lon="13.266603173688054">
        <ele>2093.0900000000001</ele>
        <time>2019-06-20T09:14:43Z</time>
      </trkpt>
      <trkpt lat="42.900898195803165" lon="13.266523042693734">
        <ele>2094.2600000000002</ele>
        <time>2019-06-20T09:14:56Z</time>
      </trkpt>
      <trkpt lat="42.900824267417192" lon="13.266437463462353">
        <ele>2095.4000000000001</ele>
        <time>2019-06-20T09:15:11Z</time>
      </trkpt>
      <trkpt lat="42.900765342637897" lon="13.266354482620955">
        <ele>2096.8699999999999</ele>
        <time>2019-06-20T09:15:24Z</time>
      </trkpt>
      <trkpt lat="42.900692168623209" lon="13.266248619183898">
        <ele>2098.48</ele>
        <time>2019-06-20T09:15:41Z</time>
      </trkpt>
      <trkpt lat="42.90062427520752" lon="13.266152227297425">
        <ele>2099.8499999999999</ele>
        <time>2019-06-20T09:15:57Z</time>
      </trkpt>
      <trkpt lat="42.900571217760444" lon="13.266084166243672">
        <ele>2101.4899999999998</ele>
        <time>2019-06-20T09:16:12Z</time>
      </trkpt>
      <trkpt lat="42.900502569973469" lon="13.266007890924811">
        <ele>2102.6700000000001</ele>
        <time>2019-06-20T09:16:25Z</time>
      </trkpt>
      <trkpt lat="42.900422355160117" lon="13.26593161560595">
        <ele>2103.46</ele>
        <time>2019-06-20T09:16:39Z</time>
      </trkpt>
      <trkpt lat="42.900369549170136" lon="13.265899932011962">
        <ele>2103.9200000000001</ele>
        <time>2019-06-20T09:16:51Z</time>
      </trkpt>
      <trkpt lat="42.900366531684995" lon="13.265887275338173">
        <ele>2104.4699999999998</ele>
        <time>2019-06-20T09:17:21Z</time>
      </trkpt>
      <trkpt lat="42.900303835049272" lon="13.265840420499444">
        <ele>2105.0799999999999</ele>
        <time>2019-06-20T09:17:32Z</time>
      </trkpt>
      <trkpt lat="42.900204258039594" lon="13.265747968107462">
        <ele>2107.27</ele>
        <time>2019-06-20T09:17:47Z</time>
      </trkpt>
      <trkpt lat="42.900198642164469" lon="13.265684265643358">
        <ele>2108.1999999999998</ele>
        <time>2019-06-20T09:17:58Z</time>
      </trkpt>
      <trkpt lat="42.900173161178827" lon="13.265624418854713">
        <ele>2109.7600000000002</ele>
        <time>2019-06-20T09:18:11Z</time>
      </trkpt>
      <trkpt lat="42.900187913328409" lon="13.265606900677085">
        <ele>2109.5999999999999</ele>
        <time>2019-06-20T09:18:27Z</time>
      </trkpt>
      <trkpt lat="42.900207694619894" lon="13.265604302287102">
        <ele>2109.77</ele>
        <time>2019-06-20T09:18:49Z</time>
      </trkpt>
      <trkpt lat="42.900173161178827" lon="13.265551077201962">
        <ele>2111.4899999999998</ele>
        <time>2019-06-20T09:19:01Z</time>
      </trkpt>
      <trkpt lat="42.900137454271317" lon="13.265504222363234">
        <ele>2113.0999999999999</ele>
        <time>2019-06-20T09:19:13Z</time>
      </trkpt>
      <trkpt lat="42.900056568905711" lon="13.265445800498128">
        <ele>2115.1900000000001</ele>
        <time>2019-06-20T09:19:26Z</time>
      </trkpt>
      <trkpt lat="42.900049611926079" lon="13.265447895973921">
        <ele>2115.0700000000002</ele>
        <time>2019-06-20T09:19:37Z</time>
      </trkpt>
      <trkpt lat="42.900057155638933" lon="13.265399029478431">
        <ele>2115.75</ele>
        <time>2019-06-20T09:19:52Z</time>
      </trkpt>
      <trkpt lat="42.900059418752789" lon="13.265409339219332">
        <ele>2116.0300000000002</ele>
        <time>2019-06-20T09:20:15Z</time>
      </trkpt>
      <trkpt lat="42.900064447894692" lon="13.265406908467412">
        <ele>2115.6799999999998</ele>
        <time>2019-06-20T09:20:28Z</time>
      </trkpt>
      <trkpt lat="42.900052629411221" lon="13.265402046963573">
        <ele>2116.0100000000002</ele>
        <time>2019-06-20T09:20:55Z</time>
      </trkpt>
      <trkpt lat="42.900093281641603" lon="13.265371369197965">
        <ele>2116.8600000000001</ele>
        <time>2019-06-20T09:21:12Z</time>
      </trkpt>
      <trkpt lat="42.90012538433075" lon="13.265327448025346">
        <ele>2118.1100000000001</ele>
        <time>2019-06-20T09:21:23Z</time>
      </trkpt>
      <trkpt lat="42.90017718449235" lon="13.265195013955235">
        <ele>2120.8499999999999</ele>
        <time>2019-06-20T09:21:41Z</time>
      </trkpt>
      <trkpt lat="42.900218674913049" lon="13.265057215467095">
        <ele>2123.3000000000002</ele>
        <time>2019-06-20T09:21:58Z</time>
      </trkpt>
      <trkpt lat="42.90023191832006" lon="13.264915477484465">
        <ele>2126.3000000000002</ele>
        <time>2019-06-20T09:22:14Z</time>
      </trkpt>
      <trkpt lat="42.900259578600526" lon="13.264785306528211">
        <ele>2129.3800000000001</ele>
        <time>2019-06-20T09:22:30Z</time>
      </trkpt>
      <trkpt lat="42.900295034050941" lon="13.264628229662776">
        <ele>2132.3400000000001</ele>
        <time>2019-06-20T09:22:48Z</time>
      </trkpt>
      <trkpt lat="42.900322442874312" lon="13.264494119212031">
        <ele>2135.4499999999998</ele>
        <time>2019-06-20T09:23:05Z</time>
      </trkpt>
      <trkpt lat="42.900331411510706" lon="13.264373000711203">
        <ele>2138.25</ele>
        <time>2019-06-20T09:23:21Z</time>
      </trkpt>
      <trkpt lat="42.900298051536083" lon="13.264277027919888">
        <ele>2140.4299999999998</ele>
        <time>2019-06-20T09:23:37Z</time>
      </trkpt>
      <trkpt lat="42.900297800078988" lon="13.264215253293514">
        <ele>2141.5</ele>
        <time>2019-06-20T09:23:50Z</time>
      </trkpt>
      <trkpt lat="42.90025195106864" lon="13.264028169214725">
        <ele>2144.5700000000002</ele>
        <time>2019-06-20T09:24:10Z</time>
      </trkpt>
      <trkpt lat="42.900242647156119" lon="13.263892885297537">
        <ele>2147.6500000000001</ele>
        <time>2019-06-20T09:24:25Z</time>
      </trkpt>
      <trkpt lat="42.900262093171477" lon="13.263758104294538">
        <ele>2150.3499999999999</ele>
        <time>2019-06-20T09:24:40Z</time>
      </trkpt>
      <trkpt lat="42.900261338800192" lon="13.263607732951641">
        <ele>2153.1799999999998</ele>
        <time>2019-06-20T09:24:58Z</time>
      </trkpt>
      <trkpt lat="42.900261841714382" lon="13.263480076566339">
        <ele>2155.8499999999999</ele>
        <time>2019-06-20T09:25:14Z</time>
      </trkpt>
      <trkpt lat="42.900242060422897" lon="13.263372620567679">
        <ele>2158.3699999999999</ele>
        <time>2019-06-20T09:25:29Z</time>
      </trkpt>
      <trkpt lat="42.900270558893681" lon="13.263266254216433">
        <ele>2160.6199999999999</ele>
        <time>2019-06-20T09:25:44Z</time>
      </trkpt>
      <trkpt lat="42.900269720703363" lon="13.26324756257236">
        <ele>2161.0100000000002</ele>
        <time>2019-06-20T09:25:59Z</time>
      </trkpt>
      <trkpt lat="42.900249939411879" lon="13.263220740482211">
        <ele>2161.6599999999999</ele>
        <time>2019-06-20T09:26:12Z</time>
      </trkpt>
      <trkpt lat="42.900235271081328" lon="13.263143124058843">
        <ele>2163.3200000000002</ele>
        <time>2019-06-20T09:26:23Z</time>
      </trkpt>
      <trkpt lat="42.900240970775485" lon="13.263079756870866">
        <ele>2164.3499999999999</ele>
        <time>2019-06-20T09:26:35Z</time>
      </trkpt>
      <trkpt lat="42.900222027674317" lon="13.263067938387394">
        <ele>2164.6300000000001</ele>
        <time>2019-06-20T09:26:45Z</time>
      </trkpt>
      <trkpt lat="42.900232085958123" lon="13.263050671666861">
        <ele>2165.0799999999999</ele>
        <time>2019-06-20T09:26:57Z</time>
      </trkpt>
      <trkpt lat="42.90021138265729" lon="13.26290650293231">
        <ele>2165.0999999999999</ele>
        <time>2019-06-20T09:27:12Z</time>
      </trkpt>
      <trkpt lat="42.900209203362465" lon="13.262835089117289">
        <ele>2164.4699999999998</ele>
        <time>2019-06-20T09:27:25Z</time>
      </trkpt>
      <trkpt lat="42.900202414020896" lon="13.262789575383067">
        <ele>2163.5599999999999</ele>
        <time>2019-06-20T09:27:35Z</time>
      </trkpt>
      <trkpt lat="42.900182213634253" lon="13.262750096619129">
        <ele>2162.6100000000001</ele>
        <time>2019-06-20T09:27:48Z</time>
      </trkpt>
      <trkpt lat="42.900167712941766" lon="13.262751772999763">
        <ele>2161.3899999999999</ele>
        <time>2019-06-20T09:28:04Z</time>
      </trkpt>
      <trkpt lat="42.900191433727741" lon="13.262747749686241">
        <ele>2163.1700000000001</ele>
        <time>2019-06-20T09:28:19Z</time>
      </trkpt>
      <trkpt lat="42.900209287181497" lon="13.262811452150345">
        <ele>2164.5</ele>
        <time>2019-06-20T09:28:32Z</time>
      </trkpt>
      <trkpt lat="42.900212053209543" lon="13.262863922864199">
        <ele>2164.79</ele>
        <time>2019-06-20T09:28:42Z</time>
      </trkpt>
      <trkpt lat="42.900236947461963" lon="13.262985879555345">
        <ele>2166.1399999999999</ele>
        <time>2019-06-20T09:28:59Z</time>
      </trkpt>
      <trkpt lat="42.900239042937756" lon="13.263021502643824">
        <ele>2165.8800000000001</ele>
        <time>2019-06-20T09:29:12Z</time>
      </trkpt>
      <trkpt lat="42.900254800915718" lon="13.26306039467454">
        <ele>2165.3299999999999</ele>
        <time>2019-06-20T09:29:31Z</time>
      </trkpt>
      <trkpt lat="42.90026175789535" lon="13.263115212321281">
        <ele>2163.9499999999998</ele>
        <time>2019-06-20T09:29:43Z</time>
      </trkpt>
      <trkpt lat="42.900258908048272" lon="13.26303793117404">
        <ele>2165.5799999999999</ele>
        <time>2019-06-20T09:29:55Z</time>
      </trkpt>
      <trkpt lat="42.900264272466302" lon="13.263025023043156">
        <ele>2165.71</ele>
        <time>2019-06-20T09:30:07Z</time>
      </trkpt>
      <trkpt lat="42.900244407355785" lon="13.263142704963684">
        <ele>2163.8800000000001</ele>
        <time>2019-06-20T09:30:21Z</time>
      </trkpt>
      <trkpt lat="42.900233678519726" lon="13.263169024139643">
        <ele>2163.3600000000001</ele>
        <time>2019-06-20T09:30:32Z</time>
      </trkpt>
      <trkpt lat="42.900232840329409" lon="13.263149578124285">
        <ele>2162.48</ele>
        <time>2019-06-20T09:30:44Z</time>
      </trkpt>
      <trkpt lat="42.900232588872313" lon="13.263143207877874">
        <ele>2162.0799999999999</ele>
        <time>2019-06-20T09:31:18Z</time>
      </trkpt>
      <trkpt lat="42.900226721540093" lon="13.263139938935637">
        <ele>2162.4899999999998</ele>
        <time>2019-06-20T09:31:46Z</time>
      </trkpt>
      <trkpt lat="42.900229152292013" lon="13.263137340545654">
        <ele>2162.5700000000002</ele>
        <time>2019-06-20T09:32:12Z</time>
      </trkpt>
      <trkpt lat="42.900239042937756" lon="13.263142537325621">
        <ele>2162.5900000000001</ele>
        <time>2019-06-20T09:32:19Z</time>
      </trkpt>
      <trkpt lat="42.900230912491679" lon="13.263132562860847">
        <ele>2162.6399999999999</ele>
        <time>2019-06-20T09:32:42Z</time>
      </trkpt>
      <trkpt lat="42.900227475911379" lon="13.263132059946656">
        <ele>2162.6900000000001</ele>
        <time>2019-06-20T09:32:56Z</time>
      </trkpt>
      <trkpt lat="42.900240048766136" lon="13.263145219534636">
        <ele>2162.75</ele>
        <time>2019-06-20T09:33:20Z</time>
      </trkpt>
      <trkpt lat="42.900241892784834" lon="13.263151925057173">
        <ele>2162.8899999999999</ele>
        <time>2019-06-20T09:33:50Z</time>
      </trkpt>
      <trkpt lat="42.900243988260627" lon="13.263149242848158">
        <ele>2163.4099999999999</ele>
        <time>2019-06-20T09:34:30Z</time>
      </trkpt>
      <trkpt lat="42.900245329365134" lon="13.263148237019777">
        <ele>2163.5799999999999</ele>
        <time>2019-06-20T09:35:10Z</time>
      </trkpt>
      <trkpt lat="42.900243904441595" lon="13.263146225363016">
        <ele>2163.98</ele>
        <time>2019-06-20T09:35:50Z</time>
      </trkpt>
      <trkpt lat="42.90024415589869" lon="13.26314153149724">
        <ele>2163.9899999999998</ele>
        <time>2019-06-20T09:36:34Z</time>
      </trkpt>
      <trkpt lat="42.900246670469642" lon="13.263138430193067">
        <ele>2163.8600000000001</ele>
        <time>2019-06-20T09:37:04Z</time>
      </trkpt>
      <trkpt lat="42.900250861421227" lon="13.263144046068192">
        <ele>2163.6700000000001</ele>
        <time>2019-06-20T09:37:36Z</time>
      </trkpt>
      <trkpt lat="42.900241389870644" lon="13.263144297525287">
        <ele>2163.5700000000002</ele>
        <time>2019-06-20T09:38:00Z</time>
      </trkpt>
      <trkpt lat="42.900236779823899" lon="13.26314153149724">
        <ele>2163.8899999999999</ele>
        <time>2019-06-20T09:39:04Z</time>
      </trkpt>
      <trkpt lat="42.900236947461963" lon="13.263139436021447">
        <ele>2163.8000000000002</ele>
        <time>2019-06-20T09:40:09Z</time>
      </trkpt>
      <trkpt lat="42.900238372385502" lon="13.263136586174369">
        <ele>2164.2399999999998</ele>
        <time>2019-06-20T09:40:47Z</time>
      </trkpt>
      <trkpt lat="42.900238120928407" lon="13.263148404657841">
        <ele>2163.8899999999999</ele>
        <time>2019-06-20T09:41:40Z</time>
      </trkpt>
      <trkpt lat="42.900235690176487" lon="13.263148572295904">
        <ele>2165.0900000000001</ele>
        <time>2019-06-20T09:42:03Z</time>
      </trkpt>
      <trkpt lat="42.900233510881662" lon="13.263140190392733">
        <ele>2163.8000000000002</ele>
        <time>2019-06-20T09:42:54Z</time>
      </trkpt>
      <trkpt lat="42.900232169777155" lon="13.263135831803083">
        <ele>2163.46</ele>
        <time>2019-06-20T09:43:47Z</time>
      </trkpt>
      <trkpt lat="42.900232169777155" lon="13.263128455728292">
        <ele>2163.23</ele>
        <time>2019-06-20T09:44:44Z</time>
      </trkpt>
      <trkpt lat="42.900236528366804" lon="13.263129629194736">
        <ele>2163.0999999999999</ele>
        <time>2019-06-20T09:45:30Z</time>
      </trkpt>
      <trkpt lat="42.90024415589869" lon="13.263127282261848">
        <ele>2163.1900000000001</ele>
        <time>2019-06-20T09:46:29Z</time>
      </trkpt>
      <trkpt lat="42.900247927755117" lon="13.26312342658639">
        <ele>2163.5900000000001</ele>
        <time>2019-06-20T09:47:32Z</time>
      </trkpt>
      <trkpt lat="42.900246335193515" lon="13.263118648901582">
        <ele>2163.6399999999999</ele>
        <time>2019-06-20T09:48:30Z</time>
      </trkpt>
      <trkpt lat="42.900246754288673" lon="13.263120325282216">
        <ele>2163.4400000000001</ele>
        <time>2019-06-20T09:49:24Z</time>
      </trkpt>
      <trkpt lat="42.900242395699024" lon="13.263120409101248">
        <ele>2163.3099999999999</ele>
        <time>2019-06-20T09:50:16Z</time>
      </trkpt>
      <trkpt lat="42.90023485198617" lon="13.263119906187057">
        <ele>2163.25</ele>
        <time>2019-06-20T09:51:17Z</time>
      </trkpt>
      <trkpt lat="42.900235187262297" lon="13.263122504577041">
        <ele>2162.4099999999999</ele>
        <time>2019-06-20T09:52:13Z</time>
      </trkpt>
      <trkpt lat="42.90023585781455" lon="13.263126192614436">
        <ele>2162.2600000000002</ele>
        <time>2019-06-20T09:53:15Z</time>
      </trkpt>
      <trkpt lat="42.90022362023592" lon="13.263143124058843">
        <ele>2162.1599999999999</ele>
        <time>2019-06-20T09:54:00Z</time>
      </trkpt>
      <trkpt lat="42.900236779823899" lon="13.263113368302584">
        <ele>2162.1700000000001</ele>
        <time>2019-06-20T09:55:09Z</time>
      </trkpt>
      <trkpt lat="42.900237953290343" lon="13.263109428808093">
        <ele>2162.3499999999999</ele>
        <time>2019-06-20T09:56:11Z</time>
      </trkpt>
      <trkpt lat="42.9002436529845" lon="13.263106662780046">
        <ele>2162.3699999999999</ele>
        <time>2019-06-20T09:57:02Z</time>
      </trkpt>
      <trkpt lat="42.900249604135752" lon="13.263106159865856">
        <ele>2162.3400000000001</ele>
        <time>2019-06-20T09:57:26Z</time>
      </trkpt>
      <trkpt lat="42.900240300223231" lon="13.263113033026457">
        <ele>2163.0599999999999</ele>
        <time>2019-06-20T09:58:19Z</time>
      </trkpt>
      <trkpt lat="42.900238372385502" lon="13.263109428808093">
        <ele>2163.6999999999998</ele>
        <time>2019-06-20T09:59:13Z</time>
      </trkpt>
      <trkpt lat="42.900234181433916" lon="13.263113619759679">
        <ele>2163.79</ele>
        <time>2019-06-20T10:00:09Z</time>
      </trkpt>
      <trkpt lat="42.900224877521396" lon="13.263113452121615">
        <ele>2163.7800000000002</ele>
        <time>2019-06-20T10:01:05Z</time>
      </trkpt>
      <trkpt lat="42.90022068656981" lon="13.263122085481882">
        <ele>2163.3099999999999</ele>
        <time>2019-06-20T10:02:00Z</time>
      </trkpt>
      <trkpt lat="42.900221776217222" lon="13.263118229806423">
        <ele>2163.5100000000002</ele>
        <time>2019-06-20T10:02:53Z</time>
      </trkpt>
      <trkpt lat="42.900215573608875" lon="13.263129880651832">
        <ele>2163.3200000000002</ele>
        <time>2019-06-20T10:03:50Z</time>
      </trkpt>
      <trkpt lat="42.900215573608875" lon="13.263122169300914">
        <ele>2163.3400000000001</ele>
        <time>2019-06-20T10:04:35Z</time>
      </trkpt>
      <trkpt lat="42.900221440941095" lon="13.263118481263518">
        <ele>2163.8200000000002</ele>
        <time>2019-06-20T10:05:30Z</time>
      </trkpt>
      <trkpt lat="42.900222614407539" lon="13.263125689700246">
        <ele>2163.25</ele>
        <time>2019-06-20T10:06:29Z</time>
      </trkpt>
      <trkpt lat="42.900223284959793" lon="13.263128707185388">
        <ele>2163.5300000000002</ele>
        <time>2019-06-20T10:07:21Z</time>
      </trkpt>
      <trkpt lat="42.900226972997189" lon="13.263127617537975">
        <ele>2163.79</ele>
        <time>2019-06-20T10:08:07Z</time>
      </trkpt>
      <trkpt lat="42.900223787873983" lon="13.263132311403751">
        <ele>2163.9200000000001</ele>
        <time>2019-06-20T10:08:55Z</time>
      </trkpt>
      <trkpt lat="42.900221524760127" lon="13.263127617537975">
        <ele>2164.21</ele>
        <time>2019-06-20T10:09:40Z</time>
      </trkpt>
      <trkpt lat="42.900222446769476" lon="13.263121834024787">
        <ele>2163.98</ele>
        <time>2019-06-20T10:10:24Z</time>
      </trkpt>
      <trkpt lat="42.900226470082998" lon="13.263101382181048">
        <ele>2164.1500000000001</ele>
        <time>2019-06-20T10:11:01Z</time>
      </trkpt>
      <trkpt lat="42.900230409577489" lon="13.263090820983052">
        <ele>2164.1399999999999</ele>
        <time>2019-06-20T10:11:44Z</time>
      </trkpt>
      <trkpt lat="42.900228817015886" lon="13.263088390231133">
        <ele>2164.0599999999999</ele>
        <time>2019-06-20T10:12:33Z</time>
      </trkpt>
      <trkpt lat="42.900231750681996" lon="13.263088138774037">
        <ele>2163.5700000000002</ele>
        <time>2019-06-20T10:13:17Z</time>
      </trkpt>
      <trkpt lat="42.900233762338758" lon="13.263080511242151">
        <ele>2163.2800000000002</ele>
        <time>2019-06-20T10:14:09Z</time>
      </trkpt>
      <trkpt lat="42.900230996310711" lon="13.263071458786726">
        <ele>2162.9299999999998</ele>
        <time>2019-06-20T10:14:52Z</time>
      </trkpt>
      <trkpt lat="42.900227475911379" lon="13.263085037469864">
        <ele>2163.5300000000002</ele>
        <time>2019-06-20T10:15:30Z</time>
      </trkpt>
      <trkpt lat="42.900214986875653" lon="13.263106914237142">
        <ele>2163.5999999999999</ele>
        <time>2019-06-20T10:16:20Z</time>
      </trkpt>
      <trkpt lat="42.900210879743099" lon="13.263114374130964">
        <ele>2163.8499999999999</ele>
        <time>2019-06-20T10:17:09Z</time>
      </trkpt>
      <trkpt lat="42.900206102058291" lon="13.263125941157341">
        <ele>2163.6799999999998</ele>
        <time>2019-06-20T10:17:57Z</time>
      </trkpt>
      <trkpt lat="42.900205766782165" lon="13.263124683871865">
        <ele>2163.5100000000002</ele>
        <time>2019-06-20T10:18:42Z</time>
      </trkpt>
      <trkpt lat="42.900205096229911" lon="13.263125102967024">
        <ele>2163.4400000000001</ele>
        <time>2019-06-20T10:19:33Z</time>
      </trkpt>
      <trkpt lat="42.900204593315721" lon="13.263125773519278">
        <ele>2163.8400000000001</ele>
        <time>2019-06-20T10:20:22Z</time>
      </trkpt>
      <trkpt lat="42.900203000754118" lon="13.263130718842149">
        <ele>2164</ele>
        <time>2019-06-20T10:21:12Z</time>
      </trkpt>
      <trkpt lat="42.900204844772816" lon="13.263145890086889">
        <ele>2163.8400000000001</ele>
        <time>2019-06-20T10:21:25Z</time>
      </trkpt>
      <trkpt lat="42.900209538638592" lon="13.26315326616168">
        <ele>2164.54</ele>
        <time>2019-06-20T10:21:47Z</time>
      </trkpt>
      <trkpt lat="42.900207526981831" lon="13.263148907572031">
        <ele>2164.6100000000001</ele>
        <time>2019-06-20T10:22:07Z</time>
      </trkpt>
      <trkpt lat="42.900212137028575" lon="13.263155361637473">
        <ele>2164.2800000000002</ele>
        <time>2019-06-20T10:22:33Z</time>
      </trkpt>
      <trkpt lat="42.900212807580829" lon="13.263156702741981">
        <ele>2164.1599999999999</ele>
        <time>2019-06-20T10:22:53Z</time>
      </trkpt>
      <trkpt lat="42.900212723761797" lon="13.263153769075871">
        <ele>2164.6799999999998</ele>
        <time>2019-06-20T10:23:10Z</time>
      </trkpt>
      <trkpt lat="42.90021289139986" lon="13.263154104351997">
        <ele>2161.98</ele>
        <time>2019-06-20T10:23:21Z</time>
      </trkpt>
      <trkpt lat="42.900213142856956" lon="13.263154691085219">
        <ele>2165.0599999999999</ele>
        <time>2019-06-20T10:23:23Z</time>
      </trkpt>
      <trkpt lat="42.900213645771146" lon="13.263157038018107">
        <ele>2166.2199999999998</ele>
        <time>2019-06-20T10:23:25Z</time>
      </trkpt>
      <trkpt lat="42.900222446769476" lon="13.263160306960344">
        <ele>2164.6700000000001</ele>
        <time>2019-06-20T10:23:51Z</time>
      </trkpt>
      <trkpt lat="42.900215992704034" lon="13.263163575902581">
        <ele>2164.79</ele>
        <time>2019-06-20T10:24:22Z</time>
      </trkpt>
      <trkpt lat="42.900223201140761" lon="13.263157624751329">
        <ele>2164.5999999999999</ele>
        <time>2019-06-20T10:25:05Z</time>
      </trkpt>
      <trkpt lat="42.900217082351446" lon="13.263158211484551">
        <ele>2164.6900000000001</ele>
        <time>2019-06-20T10:25:38Z</time>
      </trkpt>
      <trkpt lat="42.900220518931746" lon="13.263158211484551">
        <ele>2164.5700000000002</ele>
        <time>2019-06-20T10:26:10Z</time>
      </trkpt>
      <trkpt lat="42.900208029896021" lon="13.263165168464184">
        <ele>2164.75</ele>
        <time>2019-06-20T10:26:40Z</time>
      </trkpt>
      <trkpt lat="42.900199145078659" lon="13.263168688863516">
        <ele>2164.8000000000002</ele>
        <time>2019-06-20T10:27:15Z</time>
      </trkpt>
      <trkpt lat="42.900216998532414" lon="13.263168102130294">
        <ele>2164.6300000000001</ele>
        <time>2019-06-20T10:27:54Z</time>
      </trkpt>
      <trkpt lat="42.900219596922398" lon="13.263158211484551">
        <ele>2164.8499999999999</ele>
        <time>2019-06-20T10:28:26Z</time>
      </trkpt>
      <trkpt lat="42.900212807580829" lon="13.263168185949326">
        <ele>2165.79</ele>
        <time>2019-06-20T10:28:53Z</time>
      </trkpt>
      <trkpt lat="42.900218591094017" lon="13.263163072988391">
        <ele>2166.1700000000001</ele>
        <time>2019-06-20T10:29:20Z</time>
      </trkpt>
      <trkpt lat="42.900207610800862" lon="13.263153182342649">
        <ele>2166.3800000000001</ele>
        <time>2019-06-20T10:29:34Z</time>
      </trkpt>
      <trkpt lat="42.900203922763467" lon="13.263103812932968">
        <ele>2166.79</ele>
        <time>2019-06-20T10:29:50Z</time>
      </trkpt>
      <trkpt lat="42.900209287181497" lon="13.263005828484893">
        <ele>2168.9499999999998</ele>
        <time>2019-06-20T10:30:03Z</time>
      </trkpt>
      <trkpt lat="42.900197636336088" lon="13.262919578701258">
        <ele>2168.75</ele>
        <time>2019-06-20T10:30:11Z</time>
      </trkpt>
      <trkpt lat="42.900187829509377" lon="13.262848667800426">
        <ele>2168.0999999999999</ele>
        <time>2019-06-20T10:30:16Z</time>
      </trkpt>
      <trkpt lat="42.900176011025906" lon="13.262766189873219">
        <ele>2167.1300000000001</ele>
        <time>2019-06-20T10:30:26Z</time>
      </trkpt>
      <trkpt lat="42.900163270533085" lon="13.262726292014122">
        <ele>2165.8200000000002</ele>
        <time>2019-06-20T10:30:38Z</time>
      </trkpt>
      <trkpt lat="42.90014399215579" lon="13.262695446610451">
        <ele>2164.73</ele>
        <time>2019-06-20T10:30:51Z</time>
      </trkpt>
      <trkpt lat="42.900142483413219" lon="13.262686561793089">
        <ele>2164.5999999999999</ele>
        <time>2019-06-20T10:31:05Z</time>
      </trkpt>
      <trkpt lat="42.900137873366475" lon="13.262672899290919">
        <ele>2164.3899999999999</ele>
        <time>2019-06-20T10:31:18Z</time>
      </trkpt>
      <trkpt lat="42.90013125166297" lon="13.262648256495595">
        <ele>2163.8499999999999</ele>
        <time>2019-06-20T10:31:34Z</time>
      </trkpt>
      <trkpt lat="42.900130162015557" lon="13.262647083029151">
        <ele>2163.5500000000002</ele>
        <time>2019-06-20T10:31:48Z</time>
      </trkpt>
      <trkpt lat="42.900122031569481" lon="13.262638784945011">
        <ele>2162.8600000000001</ele>
        <time>2019-06-20T10:32:01Z</time>
      </trkpt>
      <trkpt lat="42.900116583332419" lon="13.262641802430153">
        <ele>2162.23</ele>
        <time>2019-06-20T10:32:12Z</time>
      </trkpt>
      <trkpt lat="42.900117505341768" lon="13.262640377506614">
        <ele>2161.9699999999998</ele>
        <time>2019-06-20T10:32:32Z</time>
      </trkpt>
      <trkpt lat="42.900120606645942" lon="13.262640545144677">
        <ele>2162.2600000000002</ele>
        <time>2019-06-20T10:32:47Z</time>
      </trkpt>
      <trkpt lat="42.900123205035925" lon="13.262637611478567">
        <ele>2162.1999999999998</ele>
        <time>2019-06-20T10:33:02Z</time>
      </trkpt>
      <trkpt lat="42.900119433179498" lon="13.262637108564377">
        <ele>2162.6100000000001</ele>
        <time>2019-06-20T10:33:16Z</time>
      </trkpt>
      <trkpt lat="42.900125132873654" lon="13.262629481032491">
        <ele>2161.79</ele>
        <time>2019-06-20T10:33:33Z</time>
      </trkpt>
      <trkpt lat="42.900127898901701" lon="13.262623613700271">
        <ele>2161.6100000000001</ele>
        <time>2019-06-20T10:33:50Z</time>
      </trkpt>
      <trkpt lat="42.900133430957794" lon="13.262620009481907">
        <ele>2162.1100000000001</ele>
        <time>2019-06-20T10:34:07Z</time>
      </trkpt>
      <trkpt lat="42.900135274976492" lon="13.262624032795429">
        <ele>2162.1399999999999</ele>
        <time>2019-06-20T10:34:21Z</time>
      </trkpt>
      <trkpt lat="42.900127563625574" lon="13.262626463547349">
        <ele>2162.04</ele>
        <time>2019-06-20T10:34:39Z</time>
      </trkpt>
      <trkpt lat="42.900127228349447" lon="13.262628642842174">
        <ele>2161.79</ele>
        <time>2019-06-20T10:34:57Z</time>
      </trkpt>
      <trkpt lat="42.900126138702035" lon="13.262574328109622">
        <ele>2161.79</ele>
        <time>2019-06-20T10:35:07Z</time>
      </trkpt>
      <trkpt lat="42.900108201429248" lon="13.262489000335336">
        <ele>2160.7399999999998</ele>
        <time>2019-06-20T10:35:19Z</time>
      </trkpt>
      <trkpt lat="42.900101076811552" lon="13.262477098032832">
        <ele>2159.8899999999999</ele>
        <time>2019-06-20T10:35:46Z</time>
      </trkpt>
      <trkpt lat="42.900089090690017" lon="13.262446504086256">
        <ele>2159.6799999999998</ele>
        <time>2019-06-20T10:35:49Z</time>
      </trkpt>
      <trkpt lat="42.900056652724743" lon="13.262248439714313">
        <ele>2160.5799999999999</ele>
        <time>2019-06-20T10:36:07Z</time>
      </trkpt>
      <trkpt lat="42.900049528107047" lon="13.262157496064901">
        <ele>2162.9000000000001</ele>
        <time>2019-06-20T10:36:20Z</time>
      </trkpt>
      <trkpt lat="42.900048857554793" lon="13.26208608224988">
        <ele>2164.8899999999999</ele>
        <time>2019-06-20T10:36:32Z</time>
      </trkpt>
      <trkpt lat="42.900049276649952" lon="13.262071162462234">
        <ele>2165.79</ele>
        <time>2019-06-20T10:36:46Z</time>
      </trkpt>
      <trkpt lat="42.900055143982172" lon="13.262027073651552">
        <ele>2166.9899999999998</ele>
        <time>2019-06-20T10:37:06Z</time>
      </trkpt>
      <trkpt lat="42.900061765685678" lon="13.261978793889284">
        <ele>2169.2399999999998</ele>
        <time>2019-06-20T10:37:19Z</time>
      </trkpt>
      <trkpt lat="42.900066375732422" lon="13.26197954826057">
        <ele>2168.4699999999998</ele>
        <time>2019-06-20T10:37:31Z</time>
      </trkpt>
      <trkpt lat="42.900079786777496" lon="13.261983655393124">
        <ele>2168.3699999999999</ele>
        <time>2019-06-20T10:38:02Z</time>
      </trkpt>
      <trkpt lat="42.900082971900702" lon="13.261978793889284">
        <ele>2169.29</ele>
        <time>2019-06-20T10:38:37Z</time>
      </trkpt>
      <trkpt lat="42.900082468986511" lon="13.261969909071922">
        <ele>2169.3600000000001</ele>
        <time>2019-06-20T10:38:51Z</time>
      </trkpt>
      <trkpt lat="42.900064783170819" lon="13.261930849403143">
        <ele>2168.2199999999998</ele>
        <time>2019-06-20T10:39:07Z</time>
      </trkpt>
      <trkpt lat="42.900044415146112" lon="13.261871254071593">
        <ele>2167.4899999999998</ele>
        <time>2019-06-20T10:39:21Z</time>
      </trkpt>
      <trkpt lat="42.900036200881004" lon="13.261840660125017">
        <ele>2166.1700000000001</ele>
        <time>2019-06-20T10:39:31Z</time>
      </trkpt>
      <trkpt lat="42.899999404326081" lon="13.261678805574775">
        <ele>2162.75</ele>
        <time>2019-06-20T10:39:43Z</time>
      </trkpt>
      <trkpt lat="42.900015329942107" lon="13.261505300179124">
        <ele>2162.4299999999998</ele>
        <time>2019-06-20T10:39:55Z</time>
      </trkpt>
      <trkpt lat="42.899998314678669" lon="13.261405471712351">
        <ele>2160.23</ele>
        <time>2019-06-20T10:40:08Z</time>
      </trkpt>
      <trkpt lat="42.899973588064313" lon="13.261377057060599">
        <ele>2158.1900000000001</ele>
        <time>2019-06-20T10:40:19Z</time>
      </trkpt>
      <trkpt lat="42.899944754317403" lon="13.26135853305459">
        <ele>2156.4000000000001</ele>
        <time>2019-06-20T10:40:30Z</time>
      </trkpt>
      <trkpt lat="42.899936875328422" lon="13.261319389566779">
        <ele>2155.0599999999999</ele>
        <time>2019-06-20T10:40:43Z</time>
      </trkpt>
      <trkpt lat="42.899949364364147" lon="13.261288460344076">
        <ele>2154.25</ele>
        <time>2019-06-20T10:40:54Z</time>
      </trkpt>
      <trkpt lat="42.899928912520409" lon="13.261240348219872">
        <ele>2152.8200000000002</ele>
        <time>2019-06-20T10:41:08Z</time>
      </trkpt>
      <trkpt lat="42.89992555975914" lon="13.261122079566121">
        <ele>2152.2199999999998</ele>
        <time>2019-06-20T10:41:19Z</time>
      </trkpt>
      <trkpt lat="42.899925308302045" lon="13.261095341295004">
        <ele>2151.5100000000002</ele>
        <time>2019-06-20T10:41:31Z</time>
      </trkpt>
      <trkpt lat="42.899927822872996" lon="13.261033650487661">
        <ele>2151.3499999999999</ele>
        <time>2019-06-20T10:41:43Z</time>
      </trkpt>
      <trkpt lat="42.89993335492909" lon="13.260961147025228">
        <ele>2149.6300000000001</ele>
        <time>2019-06-20T10:41:56Z</time>
      </trkpt>
      <trkpt lat="42.89993092417717" lon="13.260901886969805">
        <ele>2148.0100000000002</ele>
        <time>2019-06-20T10:42:06Z</time>
      </trkpt>
      <trkpt lat="42.899921201169491" lon="13.260850254446268">
        <ele>2146.1900000000001</ele>
        <time>2019-06-20T10:42:19Z</time>
      </trkpt>
      <trkpt lat="42.899905191734433" lon="13.260763585567474">
        <ele>2144.23</ele>
        <time>2019-06-20T10:42:30Z</time>
      </trkpt>
      <trkpt lat="42.899895804002881" lon="13.260634001344442">
        <ele>2142.0900000000001</ele>
        <time>2019-06-20T10:42:43Z</time>
      </trkpt>
      <trkpt lat="42.899895804002881" lon="13.26062117703259">
        <ele>2141.9400000000001</ele>
        <time>2019-06-20T10:42:44Z</time>
      </trkpt>
      <trkpt lat="42.899871412664652" lon="13.260356560349464">
        <ele>2140.6199999999999</ele>
        <time>2019-06-20T10:43:02Z</time>
      </trkpt>
      <trkpt lat="42.899866048246622" lon="13.260218007490039">
        <ele>2140.7199999999998</ele>
        <time>2019-06-20T10:43:18Z</time>
      </trkpt>
      <trkpt lat="42.899865629151464" lon="13.260084735229611">
        <ele>2140.2600000000002</ele>
        <time>2019-06-20T10:43:30Z</time>
      </trkpt>
      <trkpt lat="42.899863533675671" lon="13.260031342506409">
        <ele>2138.6599999999999</ele>
        <time>2019-06-20T10:43:37Z</time>
      </trkpt>
      <trkpt lat="42.899857498705387" lon="13.259942997246981">
        <ele>2137.4699999999998</ele>
        <time>2019-06-20T10:43:43Z</time>
      </trkpt>
      <trkpt lat="42.899838639423251" lon="13.259817771613598">
        <ele>2135.8699999999999</ele>
        <time>2019-06-20T10:43:56Z</time>
      </trkpt>
      <trkpt lat="42.899808380752802" lon="13.259735545143485">
        <ele>2133.8299999999999</ele>
        <time>2019-06-20T10:44:07Z</time>
      </trkpt>
      <trkpt lat="42.899817517027259" lon="13.259667651727796">
        <ele>2132.3899999999999</ele>
        <time>2019-06-20T10:44:18Z</time>
      </trkpt>
      <trkpt lat="42.899807877838612" lon="13.259656839072704">
        <ele>2132.0700000000002</ele>
        <time>2019-06-20T10:44:25Z</time>
      </trkpt>
      <trkpt lat="42.899791365489364" lon="13.25957695953548">
        <ele>2130.7199999999998</ele>
        <time>2019-06-20T10:44:32Z</time>
      </trkpt>
      <trkpt lat="42.899789102375507" lon="13.259483836591244">
        <ele>2129.04</ele>
        <time>2019-06-20T10:44:44Z</time>
      </trkpt>
      <trkpt lat="42.899804273620248" lon="13.2594895362854">
        <ele>2128.79</ele>
        <time>2019-06-20T10:44:58Z</time>
      </trkpt>
      <trkpt lat="42.89980242960155" lon="13.259449219331145">
        <ele>2129.48</ele>
        <time>2019-06-20T10:45:16Z</time>
      </trkpt>
      <trkpt lat="42.899788348004222" lon="13.259356264024973">
        <ele>2128.7199999999998</ele>
        <time>2019-06-20T10:45:25Z</time>
      </trkpt>
      <trkpt lat="42.899772925302386" lon="13.259214609861374">
        <ele>2127.4699999999998</ele>
        <time>2019-06-20T10:45:36Z</time>
      </trkpt>
      <trkpt lat="42.89975649677217" lon="13.259008917957544">
        <ele>2125.25</ele>
        <time>2019-06-20T10:45:51Z</time>
      </trkpt>
      <trkpt lat="42.899758508428931" lon="13.258966170251369">
        <ele>2125.1500000000001</ele>
        <time>2019-06-20T10:45:54Z</time>
      </trkpt>
      <trkpt lat="42.899725986644626" lon="13.258705576881766">
        <ele>2123.0999999999999</ele>
        <time>2019-06-20T10:46:11Z</time>
      </trkpt>
      <trkpt lat="42.89970763027668" lon="13.258498040959239">
        <ele>2120.1199999999999</ele>
        <time>2019-06-20T10:46:26Z</time>
      </trkpt>
      <trkpt lat="42.899703271687031" lon="13.258430566638708">
        <ele>2120.1700000000001</ele>
        <time>2019-06-20T10:46:32Z</time>
      </trkpt>
      <trkpt lat="42.899667900055647" lon="13.258194280788302">
        <ele>2117.8400000000001</ele>
        <time>2019-06-20T10:46:45Z</time>
      </trkpt>
      <trkpt lat="42.899643005803227" lon="13.257949277758598">
        <ele>2116.1500000000001</ele>
        <time>2019-06-20T10:47:00Z</time>
      </trkpt>
      <trkpt lat="42.899625822901726" lon="13.257755488157272">
        <ele>2117.7399999999998</ele>
        <time>2019-06-20T10:47:16Z</time>
      </trkpt>
      <trkpt lat="42.899624481797218" lon="13.257695725187659">
        <ele>2118</ele>
        <time>2019-06-20T10:47:29Z</time>
      </trkpt>
      <trkpt lat="42.89963286370039" lon="13.257694719359279">
        <ele>2119.8699999999999</ele>
        <time>2019-06-20T10:47:45Z</time>
      </trkpt>
      <trkpt lat="42.899639066308737" lon="13.257694886997342">
        <ele>2118.0300000000002</ele>
        <time>2019-06-20T10:48:05Z</time>
      </trkpt>
      <trkpt lat="42.899637222290039" lon="13.257691031321883">
        <ele>2118.0700000000002</ele>
        <time>2019-06-20T10:48:22Z</time>
      </trkpt>
      <trkpt lat="42.899635378271341" lon="13.257688600569963">
        <ele>2118.1199999999999</ele>
        <time>2019-06-20T10:48:42Z</time>
      </trkpt>
      <trkpt lat="42.899624900892377" lon="13.257589275017381">
        <ele>2117.9099999999999</ele>
        <time>2019-06-20T10:49:02Z</time>
      </trkpt>
      <trkpt lat="42.899585505947471" lon="13.257382325828075">
        <ele>2117.8200000000002</ele>
        <time>2019-06-20T10:49:18Z</time>
      </trkpt>
      <trkpt lat="42.899537310004234" lon="13.257207395508885">
        <ele>2117.25</ele>
        <time>2019-06-20T10:49:32Z</time>
      </trkpt>
      <trkpt lat="42.89949900470674" lon="13.257064064964652">
        <ele>2114.8800000000001</ele>
        <time>2019-06-20T10:49:44Z</time>
      </trkpt>
      <trkpt lat="42.899474026635289" lon="13.256902042776346">
        <ele>2112.6799999999998</ele>
        <time>2019-06-20T10:49:56Z</time>
      </trkpt>
      <trkpt lat="42.89946380071342" lon="13.256744211539626">
        <ele>2111.9699999999998</ele>
        <time>2019-06-20T10:50:07Z</time>
      </trkpt>
      <trkpt lat="42.899442845955491" lon="13.256556373089552">
        <ele>2111.8299999999999</ele>
        <time>2019-06-20T10:50:20Z</time>
      </trkpt>
      <trkpt lat="42.899430859833956" lon="13.25636082328856">
        <ele>2111.98</ele>
        <time>2019-06-20T10:50:34Z</time>
      </trkpt>
      <trkpt lat="42.899429351091385" lon="13.256170470267534">
        <ele>2112.5799999999999</ele>
        <time>2019-06-20T10:50:47Z</time>
      </trkpt>
      <trkpt lat="42.899421639740467" lon="13.256028229370713">
        <ele>2110.75</ele>
        <time>2019-06-20T10:51:02Z</time>
      </trkpt>
      <trkpt lat="42.899515014141798" lon="13.25589319691062">
        <ele>2108.3099999999999</ele>
        <time>2019-06-20T10:51:14Z</time>
      </trkpt>
      <trkpt lat="42.899543009698391" lon="13.255872745066881">
        <ele>2109.4499999999998</ele>
        <time>2019-06-20T10:51:25Z</time>
      </trkpt>
      <trkpt lat="42.899500094354153" lon="13.25579303316772">
        <ele>2110.0100000000002</ele>
        <time>2019-06-20T10:51:36Z</time>
      </trkpt>
      <trkpt lat="42.899434212595224" lon="13.255756320431828">
        <ele>2108.3400000000001</ele>
        <time>2019-06-20T10:51:45Z</time>
      </trkpt>
      <trkpt lat="42.899362379685044" lon="13.255767971277237">
        <ele>2106.8000000000002</ele>
        <time>2019-06-20T10:51:57Z</time>
      </trkpt>
      <trkpt lat="42.899342766031623" lon="13.255765456706285">
        <ele>2106.6999999999998</ele>
        <time>2019-06-20T10:52:06Z</time>
      </trkpt>
      <trkpt lat="42.899285601451993" lon="13.255742071196437">
        <ele>2106.52</ele>
        <time>2019-06-20T10:52:12Z</time>
      </trkpt>
      <trkpt lat="42.899269424378872" lon="13.255726313218474">
        <ele>2106.48</ele>
        <time>2019-06-20T10:52:14Z</time>
      </trkpt>
      <trkpt lat="42.899223659187555" lon="13.255540067330003">
        <ele>2106.3699999999999</ele>
        <time>2019-06-20T10:52:29Z</time>
      </trkpt>
      <trkpt lat="42.899223240092397" lon="13.255541827529669">
        <ele>2106.3200000000002</ele>
        <time>2019-06-20T10:52:43Z</time>
      </trkpt>
      <trkpt lat="42.899215025827289" lon="13.2554901111871">
        <ele>2105.9299999999998</ele>
        <time>2019-06-20T10:52:54Z</time>
      </trkpt>
      <trkpt lat="42.899221479892731" lon="13.255499498918653">
        <ele>2104.6799999999998</ele>
        <time>2019-06-20T10:53:06Z</time>
      </trkpt>
      <trkpt lat="42.899224162101746" lon="13.255479801446199">
        <ele>2104.1799999999998</ele>
        <time>2019-06-20T10:53:53Z</time>
      </trkpt>
      <trkpt lat="42.899225000292063" lon="13.255468150600791">
        <ele>2104</ele>
        <time>2019-06-20T10:54:41Z</time>
      </trkpt>
      <trkpt lat="42.89922097697854" lon="13.255476783961058">
        <ele>2104.48</ele>
        <time>2019-06-20T10:55:30Z</time>
      </trkpt>
      <trkpt lat="42.899227598682046" lon="13.255468234419823">
        <ele>2104.6199999999999</ele>
        <time>2019-06-20T10:56:26Z</time>
      </trkpt>
      <trkpt lat="42.899228436872363" lon="13.255464881658554">
        <ele>2105.5500000000002</ele>
        <time>2019-06-20T10:56:33Z</time>
      </trkpt>
      <trkpt lat="42.899220809340477" lon="13.255452644079924">
        <ele>2105.46</ele>
        <time>2019-06-20T10:56:38Z</time>
      </trkpt>
      <trkpt lat="42.899202452972531" lon="13.25541827827692">
        <ele>2104.6999999999998</ele>
        <time>2019-06-20T10:56:41Z</time>
      </trkpt>
      <trkpt lat="42.899187449365854" lon="13.255226165056229">
        <ele>2105.8299999999999</ele>
        <time>2019-06-20T10:56:57Z</time>
      </trkpt>
      <trkpt lat="42.899183761328459" lon="13.255119631066918">
        <ele>2107.0100000000002</ele>
        <time>2019-06-20T10:57:06Z</time>
      </trkpt>
      <trkpt lat="42.899147719144821" lon="13.25495945289731">
        <ele>2106.6799999999998</ele>
        <time>2019-06-20T10:57:19Z</time>
      </trkpt>
      <trkpt lat="42.899165907874703" lon="13.254790976643562">
        <ele>2105.8400000000001</ele>
        <time>2019-06-20T10:57:31Z</time>
      </trkpt>
      <trkpt lat="42.899160962551832" lon="13.254705145955086">
        <ele>2104.3899999999999</ele>
        <time>2019-06-20T10:57:37Z</time>
      </trkpt>
      <trkpt lat="42.899139923974872" lon="13.254514625295997">
        <ele>2104.8200000000002</ele>
        <time>2019-06-20T10:57:50Z</time>
      </trkpt>
      <trkpt lat="42.899112850427628" lon="13.254346987232566">
        <ele>2105.1900000000001</ele>
        <time>2019-06-20T10:58:03Z</time>
      </trkpt>
      <trkpt lat="42.899110084399581" lon="13.254167195409536">
        <ele>2105.3400000000001</ele>
        <time>2019-06-20T10:58:17Z</time>
      </trkpt>
      <trkpt lat="42.89908854290843" lon="13.253945410251617">
        <ele>2106.2399999999998</ele>
        <time>2019-06-20T10:58:33Z</time>
      </trkpt>
      <trkpt lat="42.899070018902421" lon="13.25374910607934">
        <ele>2107.6100000000001</ele>
        <time>2019-06-20T10:58:47Z</time>
      </trkpt>
      <trkpt lat="42.899044035002589" lon="13.253560932353139">
        <ele>2108.3299999999999</ele>
        <time>2019-06-20T10:59:00Z</time>
      </trkpt>
      <trkpt lat="42.899019978940487" lon="13.253355994820595">
        <ele>2109.73</ele>
        <time>2019-06-20T10:59:14Z</time>
      </trkpt>
      <trkpt lat="42.898992905393243" lon="13.253137981519103">
        <ele>2110.3899999999999</ele>
        <time>2019-06-20T10:59:28Z</time>
      </trkpt>
      <trkpt lat="42.899004220962524" lon="13.252972019836307">
        <ele>2112.7399999999998</ele>
        <time>2019-06-20T10:59:42Z</time>
      </trkpt>
      <trkpt lat="42.899003718048334" lon="13.25287101790309">
        <ele>2115.0700000000002</ele>
        <time>2019-06-20T10:59:53Z</time>
      </trkpt>
      <trkpt lat="42.898979661986232" lon="13.252821732312441">
        <ele>2115.5799999999999</ele>
        <time>2019-06-20T10:59:57Z</time>
      </trkpt>
      <trkpt lat="42.898891819640994" lon="13.252606652677059">
        <ele>2113.1399999999999</ele>
        <time>2019-06-20T11:00:13Z</time>
      </trkpt>
      <trkpt lat="42.898815460503101" lon="13.252369193360209">
        <ele>2112.1799999999998</ele>
        <time>2019-06-20T11:00:28Z</time>
      </trkpt>
      <trkpt lat="42.898725271224976" lon="13.252139780670404">
        <ele>2113.3699999999999</ele>
        <time>2019-06-20T11:00:45Z</time>
      </trkpt>
      <trkpt lat="42.898632232099771" lon="13.251934675499797">
        <ele>2113.4899999999998</ele>
        <time>2019-06-20T11:01:00Z</time>
      </trkpt>
      <trkpt lat="42.898540031164885" lon="13.251706771552563">
        <ele>2113.8400000000001</ele>
        <time>2019-06-20T11:01:16Z</time>
      </trkpt>
      <trkpt lat="42.89843475446105" lon="13.251486998051405">
        <ele>2114.3499999999999</ele>
        <time>2019-06-20T11:01:33Z</time>
      </trkpt>
      <trkpt lat="42.89836585521698" lon="13.251310726627707">
        <ele>2115.04</ele>
        <time>2019-06-20T11:01:47Z</time>
      </trkpt>
      <trkpt lat="42.898260746151209" lon="13.251070417463779">
        <ele>2115.4400000000001</ele>
        <time>2019-06-20T11:02:05Z</time>
      </trkpt>
      <trkpt lat="42.898176591843367" lon="13.250920716673136">
        <ele>2115.1900000000001</ele>
        <time>2019-06-20T11:02:19Z</time>
      </trkpt>
      <trkpt lat="42.898171646520495" lon="13.250900264829397">
        <ele>2115.5100000000002</ele>
        <time>2019-06-20T11:02:31Z</time>
      </trkpt>
      <trkpt lat="42.89813912473619" lon="13.250832622870803">
        <ele>2115.2800000000002</ele>
        <time>2019-06-20T11:02:42Z</time>
      </trkpt>
      <trkpt lat="42.898104339838028" lon="13.250732375308871">
        <ele>2115.8499999999999</ele>
        <time>2019-06-20T11:02:53Z</time>
      </trkpt>
      <trkpt lat="42.89807659573853" lon="13.250676635652781">
        <ele>2115.4699999999998</ele>
        <time>2019-06-20T11:02:58Z</time>
      </trkpt>
      <trkpt lat="42.898043319582939" lon="13.250616369768977">
        <ele>2114.5700000000002</ele>
        <time>2019-06-20T11:03:03Z</time>
      </trkpt>
      <trkpt lat="42.897943826392293" lon="13.250463483855128">
        <ele>2117.4400000000001</ele>
        <time>2019-06-20T11:03:20Z</time>
      </trkpt>
      <trkpt lat="42.897910801693797" lon="13.250389639288187">
        <ele>2120.46</ele>
        <time>2019-06-20T11:03:31Z</time>
      </trkpt>
      <trkpt lat="42.897860845550895" lon="13.250284781679511">
        <ele>2122.6500000000001</ele>
        <time>2019-06-20T11:03:43Z</time>
      </trkpt>
      <trkpt lat="42.897787168622017" lon="13.250093339011073">
        <ele>2123.1900000000001</ele>
        <time>2019-06-20T11:03:58Z</time>
      </trkpt>
      <trkpt lat="42.897719526663423" lon="13.249917738139629">
        <ele>2124.8099999999999</ele>
        <time>2019-06-20T11:04:13Z</time>
      </trkpt>
      <trkpt lat="42.897627744823694" lon="13.249734090641141">
        <ele>2123.0999999999999</ele>
        <time>2019-06-20T11:04:31Z</time>
      </trkpt>
      <trkpt lat="42.897613998502493" lon="13.249724870547652">
        <ele>2122.0599999999999</ele>
        <time>2019-06-20T11:04:33Z</time>
      </trkpt>
      <trkpt lat="42.897596647962928" lon="13.249713135883212">
        <ele>2121.46</ele>
        <time>2019-06-20T11:04:35Z</time>
      </trkpt>
      <trkpt lat="42.897555157542229" lon="13.249662509188056">
        <ele>2119.6599999999999</ele>
        <time>2019-06-20T11:04:41Z</time>
      </trkpt>
      <trkpt lat="42.89745700545609" lon="13.249567290768027">
        <ele>2115.9099999999999</ele>
        <time>2019-06-20T11:04:52Z</time>
      </trkpt>
      <trkpt lat="42.897275034338236" lon="13.249437790364027">
        <ele>2112.8400000000001</ele>
        <time>2019-06-20T11:05:08Z</time>
      </trkpt>
      <trkpt lat="42.897106977179646" lon="13.249442400410771">
        <ele>2111.4699999999998</ele>
        <time>2019-06-20T11:05:23Z</time>
      </trkpt>
      <trkpt lat="42.89704998023808" lon="13.24949998408556">
        <ele>2110.8099999999999</ele>
        <time>2019-06-20T11:05:33Z</time>
      </trkpt>
      <trkpt lat="42.897024331614375" lon="13.249527812004089">
        <ele>2110.4899999999998</ele>
        <time>2019-06-20T11:05:37Z</time>
      </trkpt>
      <trkpt lat="42.896983176469803" lon="13.249536445364356">
        <ele>2110.6700000000001</ele>
        <time>2019-06-20T11:05:45Z</time>
      </trkpt>
      <trkpt lat="42.896937495097518" lon="13.249579612165689">
        <ele>2110.5300000000002</ele>
        <time>2019-06-20T11:05:57Z</time>
      </trkpt>
      <trkpt lat="42.8969556838274" lon="13.249572822824121">
        <ele>2110.9299999999998</ele>
        <time>2019-06-20T11:06:23Z</time>
      </trkpt>
      <trkpt lat="42.896958449855447" lon="13.249573409557343">
        <ele>2110.8699999999999</ele>
        <time>2019-06-20T11:06:35Z</time>
      </trkpt>
      <trkpt lat="42.896982003003359" lon="13.249580031260848">
        <ele>2110.2800000000002</ele>
        <time>2019-06-20T11:06:45Z</time>
      </trkpt>
      <trkpt lat="42.897017039358616" lon="13.249602746218443">
        <ele>2110.3699999999999</ele>
        <time>2019-06-20T11:06:55Z</time>
      </trkpt>
      <trkpt lat="42.897009328007698" lon="13.249622443690896">
        <ele>2109.9200000000001</ele>
        <time>2019-06-20T11:07:11Z</time>
      </trkpt>
      <trkpt lat="42.89701284840703" lon="13.249660413712263">
        <ele>2109.5599999999999</ele>
        <time>2019-06-20T11:07:23Z</time>
      </trkpt>
      <trkpt lat="42.897007986903191" lon="13.249653037637472">
        <ele>2109.1700000000001</ele>
        <time>2019-06-20T11:07:35Z</time>
      </trkpt>
      <trkpt lat="42.896998096257448" lon="13.249657228589058">
        <ele>2108.8299999999999</ele>
        <time>2019-06-20T11:07:58Z</time>
      </trkpt>
      <trkpt lat="42.897003963589668" lon="13.249661754816771">
        <ele>2109.52</ele>
        <time>2019-06-20T11:08:07Z</time>
      </trkpt>
      <trkpt lat="42.897008825093508" lon="13.249662676826119">
        <ele>2109.9299999999998</ele>
        <time>2019-06-20T11:08:20Z</time>
      </trkpt>
      <trkpt lat="42.897005639970303" lon="13.249660162255168">
        <ele>2110.04</ele>
        <time>2019-06-20T11:08:35Z</time>
      </trkpt>
      <trkpt lat="42.896999521180987" lon="13.249665275216103">
        <ele>2110</ele>
        <time>2019-06-20T11:08:57Z</time>
      </trkpt>
      <trkpt lat="42.896995330229402" lon="13.249669130891562">
        <ele>2109.54</ele>
        <time>2019-06-20T11:09:21Z</time>
      </trkpt>
      <trkpt lat="42.896994994953275" lon="13.249673070386052">
        <ele>2110.0900000000001</ele>
        <time>2019-06-20T11:09:40Z</time>
      </trkpt>
      <trkpt lat="42.896998934447765" lon="13.24966904707253">
        <ele>2109.8899999999999</ele>
        <time>2019-06-20T11:10:03Z</time>
      </trkpt>
      <trkpt lat="42.897004131227732" lon="13.249669298529625">
        <ele>2109.3000000000002</ele>
        <time>2019-06-20T11:10:26Z</time>
      </trkpt>
      <trkpt lat="42.897014189511538" lon="13.249668208882213">
        <ele>2109.5500000000002</ele>
        <time>2019-06-20T11:10:41Z</time>
      </trkpt>
      <trkpt lat="42.897066995501518" lon="13.249707771465182">
        <ele>2108.4200000000001</ele>
        <time>2019-06-20T11:10:52Z</time>
      </trkpt>
      <trkpt lat="42.897126087918878" lon="13.249810198321939">
        <ele>2107.8299999999999</ele>
        <time>2019-06-20T11:11:05Z</time>
      </trkpt>
      <trkpt lat="42.897184593603015" lon="13.24992754496634">
        <ele>2106.8899999999999</ele>
        <time>2019-06-20T11:11:17Z</time>
      </trkpt>
      <trkpt lat="42.897238489240408" lon="13.249991834163666">
        <ele>2106.1500000000001</ele>
        <time>2019-06-20T11:11:28Z</time>
      </trkpt>
      <trkpt lat="42.89727327413857" lon="13.25005947612226">
        <ele>2105.4899999999998</ele>
        <time>2019-06-20T11:11:34Z</time>
      </trkpt>
      <trkpt lat="42.897369749844074" lon="13.250266425311565">
        <ele>2103.46</ele>
        <time>2019-06-20T11:11:51Z</time>
      </trkpt>
      <trkpt lat="42.897453401237726" lon="13.250440517440438">
        <ele>2101.25</ele>
        <time>2019-06-20T11:12:06Z</time>
      </trkpt>
      <trkpt lat="42.89755959995091" lon="13.25063313357532">
        <ele>2099.9200000000001</ele>
        <time>2019-06-20T11:12:23Z</time>
      </trkpt>
      <trkpt lat="42.89764853194356" lon="13.250782834365964">
        <ele>2098.25</ele>
        <time>2019-06-20T11:12:36Z</time>
      </trkpt>
      <trkpt lat="42.897747186943889" lon="13.25096589513123">
        <ele>2097.1500000000001</ele>
        <time>2019-06-20T11:12:52Z</time>
      </trkpt>
      <trkpt lat="42.897782558575273" lon="13.251030351966619">
        <ele>2095.5300000000002</ele>
        <time>2019-06-20T11:13:05Z</time>
      </trkpt>
      <trkpt lat="42.897826647385955" lon="13.251107716932893">
        <ele>2095.54</ele>
        <time>2019-06-20T11:13:22Z</time>
      </trkpt>
      <trkpt lat="42.897844417020679" lon="13.251142920926213">
        <ele>2095.54</ele>
        <time>2019-06-20T11:13:38Z</time>
      </trkpt>
      <trkpt lat="42.897899737581611" lon="13.251220537349582">
        <ele>2093.4899999999998</ele>
        <time>2019-06-20T11:13:47Z</time>
      </trkpt>
      <trkpt lat="42.897951370105147" lon="13.251313995569944">
        <ele>2092.46</ele>
        <time>2019-06-20T11:13:56Z</time>
      </trkpt>
      <trkpt lat="42.898016916587949" lon="13.251463947817683">
        <ele>2090.8600000000001</ele>
        <time>2019-06-20T11:14:08Z</time>
      </trkpt>
      <trkpt lat="42.89808732457459" lon="13.25165337882936">
        <ele>2089.79</ele>
        <time>2019-06-20T11:14:23Z</time>
      </trkpt>
      <trkpt lat="42.898139543831348" lon="13.251820765435696">
        <ele>2088.8899999999999</ele>
        <time>2019-06-20T11:14:36Z</time>
      </trkpt>
      <trkpt lat="42.898190841078758" lon="13.25195387005806">
        <ele>2087.3600000000001</ele>
        <time>2019-06-20T11:14:49Z</time>
      </trkpt>
      <trkpt lat="42.898222859948874" lon="13.25207456946373">
        <ele>2086.6900000000001</ele>
        <time>2019-06-20T11:15:02Z</time>
      </trkpt>
      <trkpt lat="42.89827692322433" lon="13.252210607752204">
        <ele>2085.3299999999999</ele>
        <time>2019-06-20T11:15:15Z</time>
      </trkpt>
      <trkpt lat="42.898277929052711" lon="13.252223180606961">
        <ele>2085.1900000000001</ele>
        <time>2019-06-20T11:15:16Z</time>
      </trkpt>
      <trkpt lat="42.898294273763895" lon="13.252343544736505">
        <ele>2084.48</ele>
        <time>2019-06-20T11:15:24Z</time>
      </trkpt>
      <trkpt lat="42.898310115560889" lon="13.252400793135166">
        <ele>2083.8200000000002</ele>
        <time>2019-06-20T11:15:28Z</time>
      </trkpt>
      <trkpt lat="42.898350013419986" lon="13.252583853900433">
        <ele>2082.1199999999999</ele>
        <time>2019-06-20T11:15:42Z</time>
      </trkpt>
      <trkpt lat="42.898364346474409" lon="13.252628613263369">
        <ele>2081.7199999999998</ele>
        <time>2019-06-20T11:15:51Z</time>
      </trkpt>
      <trkpt lat="42.898395108059049" lon="13.252823743969202">
        <ele>2080.5300000000002</ele>
        <time>2019-06-20T11:16:08Z</time>
      </trkpt>
      <trkpt lat="42.89842251688242" lon="13.252922398969531">
        <ele>2080.3200000000002</ele>
        <time>2019-06-20T11:16:17Z</time>
      </trkpt>
      <trkpt lat="42.898425785824656" lon="13.252947963774204">
        <ele>2079.8000000000002</ele>
        <time>2019-06-20T11:16:19Z</time>
      </trkpt>
      <trkpt lat="42.898431066423655" lon="13.253000937402248">
        <ele>2079.29</ele>
        <time>2019-06-20T11:16:31Z</time>
      </trkpt>
      <trkpt lat="42.898445902392268" lon="13.253074446693063">
        <ele>2079.1399999999999</ele>
        <time>2019-06-20T11:16:43Z</time>
      </trkpt>
      <trkpt lat="42.898456463590264" lon="13.253116188570857">
        <ele>2078.71</ele>
        <time>2019-06-20T11:16:46Z</time>
      </trkpt>
      <trkpt lat="42.898478340357542" lon="13.253346187993884">
        <ele>2077.46</ele>
        <time>2019-06-20T11:17:02Z</time>
      </trkpt>
      <trkpt lat="42.898485716432333" lon="13.253551879897714">
        <ele>2075.8099999999999</ele>
        <time>2019-06-20T11:17:17Z</time>
      </trkpt>
      <trkpt lat="42.898486806079745" lon="13.25359077192843">
        <ele>2075.6100000000001</ele>
        <time>2019-06-20T11:17:24Z</time>
      </trkpt>
      <trkpt lat="42.898487476631999" lon="13.253653887659311">
        <ele>2075.3099999999999</ele>
        <time>2019-06-20T11:17:29Z</time>
      </trkpt>
      <trkpt lat="42.898488063365221" lon="13.253849186003208">
        <ele>2074.0300000000002</ele>
        <time>2019-06-20T11:17:43Z</time>
      </trkpt>
      <trkpt lat="42.89847238920629" lon="13.254076838493347">
        <ele>2072.6700000000001</ele>
        <time>2019-06-20T11:17:58Z</time>
      </trkpt>
      <trkpt lat="42.898481525480747" lon="13.254321338608861">
        <ele>2071.4099999999999</ele>
        <time>2019-06-20T11:18:15Z</time>
      </trkpt>
      <trkpt lat="42.898495187982917" lon="13.254546727985144">
        <ele>2068.9200000000001</ele>
        <time>2019-06-20T11:18:30Z</time>
      </trkpt>
      <trkpt lat="42.89850558154285" lon="13.254784606397152">
        <ele>2067.52</ele>
        <time>2019-06-20T11:18:46Z</time>
      </trkpt>
      <trkpt lat="42.898514131084085" lon="13.255073949694633">
        <ele>2065.54</ele>
        <time>2019-06-20T11:19:05Z</time>
      </trkpt>
      <trkpt lat="42.898524692282081" lon="13.255302356556058">
        <ele>2063.9699999999998</ele>
        <time>2019-06-20T11:19:21Z</time>
      </trkpt>
      <trkpt lat="42.898533409461379" lon="13.255588933825493">
        <ele>2061.4299999999998</ele>
        <time>2019-06-20T11:19:40Z</time>
      </trkpt>
      <trkpt lat="42.898542042821646" lon="13.25585950165987">
        <ele>2059.25</ele>
        <time>2019-06-20T11:19:58Z</time>
      </trkpt>
      <trkpt lat="42.898546317592263" lon="13.256138786673546">
        <ele>2057.2399999999998</ele>
        <time>2019-06-20T11:20:16Z</time>
      </trkpt>
      <trkpt lat="42.898558303713799" lon="13.256411114707589">
        <ele>2055.54</ele>
        <time>2019-06-20T11:20:34Z</time>
      </trkpt>
      <trkpt lat="42.898570625111461" lon="13.256639773026109">
        <ele>2053.4099999999999</ele>
        <time>2019-06-20T11:20:49Z</time>
      </trkpt>
      <trkpt lat="42.898577246814966" lon="13.256914112716913">
        <ele>2051.48</ele>
        <time>2019-06-20T11:21:07Z</time>
      </trkpt>
      <trkpt lat="42.898579929023981" lon="13.256985191255808">
        <ele>2050.8000000000002</ele>
        <time>2019-06-20T11:21:13Z</time>
      </trkpt>
      <trkpt lat="42.898609852418303" lon="13.257249472662807">
        <ele>2049.3299999999999</ele>
        <time>2019-06-20T11:21:31Z</time>
      </trkpt>
      <trkpt lat="42.898602476343513" lon="13.257530685514212">
        <ele>2047.6500000000001</ele>
        <time>2019-06-20T11:21:48Z</time>
      </trkpt>
      <trkpt lat="42.898594262078404" lon="13.257792871445417">
        <ele>2045.97</ele>
        <time>2019-06-20T11:22:04Z</time>
      </trkpt>
      <trkpt lat="42.898585125803947" lon="13.258067294955254">
        <ele>2044.0899999999999</ele>
        <time>2019-06-20T11:22:21Z</time>
      </trkpt>
      <trkpt lat="42.898575151339173" lon="13.25831581838429">
        <ele>2042.1199999999999</ele>
        <time>2019-06-20T11:22:37Z</time>
      </trkpt>
      <trkpt lat="42.898562410846353" lon="13.258546823635697">
        <ele>2040.5699999999999</ele>
        <time>2019-06-20T11:22:53Z</time>
      </trkpt>
      <trkpt lat="42.898548077791929" lon="13.258750336244702">
        <ele>2038.5999999999999</ele>
        <time>2019-06-20T11:23:08Z</time>
      </trkpt>
      <trkpt lat="42.898547071963549" lon="13.258778331801295">
        <ele>2040.28</ele>
        <time>2019-06-20T11:23:10Z</time>
      </trkpt>
      <trkpt lat="42.898529972881079" lon="13.258973211050034">
        <ele>2037.6600000000001</ele>
        <time>2019-06-20T11:23:24Z</time>
      </trkpt>
      <trkpt lat="42.898508347570896" lon="13.259188709780574">
        <ele>2036.0999999999999</ele>
        <time>2019-06-20T11:23:39Z</time>
      </trkpt>
      <trkpt lat="42.89848554879427" lon="13.25943379662931">
        <ele>2034.4300000000001</ele>
        <time>2019-06-20T11:23:56Z</time>
      </trkpt>
      <trkpt lat="42.898464342579246" lon="13.259668154641986">
        <ele>2032.3800000000001</ele>
        <time>2019-06-20T11:24:12Z</time>
      </trkpt>
      <trkpt lat="42.898446321487427" lon="13.259854316711426">
        <ele>2030.99</ele>
        <time>2019-06-20T11:24:25Z</time>
      </trkpt>
      <trkpt lat="42.898425115272403" lon="13.260085489600897">
        <ele>2029.0799999999999</ele>
        <time>2019-06-20T11:24:41Z</time>
      </trkpt>
      <trkpt lat="42.898410949856043" lon="13.260341053828597">
        <ele>2027.0799999999999</ele>
        <time>2019-06-20T11:24:59Z</time>
      </trkpt>
      <trkpt lat="42.898400137200952" lon="13.260584129020572">
        <ele>2024.6500000000001</ele>
        <time>2019-06-20T11:25:16Z</time>
      </trkpt>
      <trkpt lat="42.8983717225492" lon="13.260754030197859">
        <ele>2023</ele>
        <time>2019-06-20T11:25:31Z</time>
      </trkpt>
      <trkpt lat="42.898341631516814" lon="13.26077557168901">
        <ele>2023.1400000000001</ele>
        <time>2019-06-20T11:25:46Z</time>
      </trkpt>
      <trkpt lat="42.898332998156548" lon="13.260724609717727">
        <ele>2022.8399999999999</ele>
        <time>2019-06-20T11:25:59Z</time>
      </trkpt>
      <trkpt lat="42.898320341482759" lon="13.260692087933421">
        <ele>2022.6900000000001</ele>
        <time>2019-06-20T11:26:02Z</time>
      </trkpt>
      <trkpt lat="42.8983199223876" lon="13.260571723803878">
        <ele>2022.1700000000001</ele>
        <time>2019-06-20T11:26:10Z</time>
      </trkpt>
      <trkpt lat="42.898283461108804" lon="13.260294366627932">
        <ele>2020.45</ele>
        <time>2019-06-20T11:26:28Z</time>
      </trkpt>
      <trkpt lat="42.898262590169907" lon="13.260069647803903">
        <ele>2019.22</ele>
        <time>2019-06-20T11:26:42Z</time>
      </trkpt>
      <trkpt lat="42.898243144154549" lon="13.259754488244653">
        <ele>2017.1700000000001</ele>
        <time>2019-06-20T11:27:01Z</time>
      </trkpt>
      <trkpt lat="42.898223027586937" lon="13.259504958987236">
        <ele>2015.45</ele>
        <time>2019-06-20T11:27:17Z</time>
      </trkpt>
      <trkpt lat="42.898214478045702" lon="13.25942943803966">
        <ele>2015.03</ele>
        <time>2019-06-20T11:27:22Z</time>
      </trkpt>
      <trkpt lat="42.898175669834018" lon="13.259169431403279">
        <ele>2013.6400000000001</ele>
        <time>2019-06-20T11:27:39Z</time>
      </trkpt>
      <trkpt lat="42.898147674277425" lon="13.258893415331841">
        <ele>2011.54</ele>
        <time>2019-06-20T11:27:56Z</time>
      </trkpt>
      <trkpt lat="42.898125965148211" lon="13.258610274642706">
        <ele>2009.4000000000001</ele>
        <time>2019-06-20T11:28:14Z</time>
      </trkpt>
      <trkpt lat="42.898102412000299" lon="13.258373821154237">
        <ele>2007.55</ele>
        <time>2019-06-20T11:28:30Z</time>
      </trkpt>
      <trkpt lat="42.898056982085109" lon="13.258083052933216">
        <ele>2005.97</ele>
        <time>2019-06-20T11:28:49Z</time>
      </trkpt>
      <trkpt lat="42.898018257692456" lon="13.257809048518538">
        <ele>2004.3</ele>
        <time>2019-06-20T11:29:07Z</time>
      </trkpt>
      <trkpt lat="42.897971821948886" lon="13.257514089345932">
        <ele>2002.1900000000001</ele>
        <time>2019-06-20T11:29:26Z</time>
      </trkpt>
      <trkpt lat="42.897890266031027" lon="13.257270678877831">
        <ele>2000.3800000000001</ele>
        <time>2019-06-20T11:29:43Z</time>
      </trkpt>
      <trkpt lat="42.89782740175724" lon="13.25704931281507">
        <ele>1998.4200000000001</ele>
        <time>2019-06-20T11:29:59Z</time>
      </trkpt>
      <trkpt lat="42.89779219776392" lon="13.256936157122254">
        <ele>1997.8199999999999</ele>
        <time>2019-06-20T11:30:07Z</time>
      </trkpt>
      <trkpt lat="42.897693626582623" lon="13.25666525401175">
        <ele>1995.77</ele>
        <time>2019-06-20T11:30:26Z</time>
      </trkpt>
      <trkpt lat="42.897610478103161" lon="13.25638085603714">
        <ele>1993.3199999999999</ele>
        <time>2019-06-20T11:30:46Z</time>
      </trkpt>
      <trkpt lat="42.89751810953021" lon="13.256100565195084">
        <ele>1991.1900000000001</ele>
        <time>2019-06-20T11:31:05Z</time>
      </trkpt>
      <trkpt lat="42.897435380145907" lon="13.255811221897602">
        <ele>1988.45</ele>
        <time>2019-06-20T11:31:24Z</time>
      </trkpt>
      <trkpt lat="42.897342089563608" lon="13.255524979904294">
        <ele>1985.5699999999999</ele>
        <time>2019-06-20T11:31:44Z</time>
      </trkpt>
      <trkpt lat="42.897276543080807" lon="13.255256004631519">
        <ele>1983.5</ele>
        <time>2019-06-20T11:32:02Z</time>
      </trkpt>
      <trkpt lat="42.897244608029723" lon="13.255058443173766">
        <ele>1981.8299999999999</ele>
        <time>2019-06-20T11:32:15Z</time>
      </trkpt>
      <trkpt lat="42.897210158407688" lon="13.254864821210504">
        <ele>1980.6300000000001</ele>
        <time>2019-06-20T11:32:27Z</time>
      </trkpt>
      <trkpt lat="42.897108234465122" lon="13.254641192033887">
        <ele>1979.74</ele>
        <time>2019-06-20T11:32:45Z</time>
      </trkpt>
      <trkpt lat="42.897080155089498" lon="13.254627110436559">
        <ele>1979.8399999999999</ele>
        <time>2019-06-20T11:32:58Z</time>
      </trkpt>
      <trkpt lat="42.897078981623054" lon="13.254658877849579">
        <ele>1979.48</ele>
        <time>2019-06-20T11:33:07Z</time>
      </trkpt>
      <trkpt lat="42.8970851842314" lon="13.254718808457255">
        <ele>1978.8800000000001</ele>
        <time>2019-06-20T11:33:11Z</time>
      </trkpt>
      <trkpt lat="42.897112844511867" lon="13.254966745153069">
        <ele>1977.3099999999999</ele>
        <time>2019-06-20T11:33:27Z</time>
      </trkpt>
      <trkpt lat="42.897149305790663" lon="13.255170090124011">
        <ele>1975.99</ele>
        <time>2019-06-20T11:33:40Z</time>
      </trkpt>
      <trkpt lat="42.897171098738909" lon="13.255423558875918">
        <ele>1974.8699999999999</ele>
        <time>2019-06-20T11:33:56Z</time>
      </trkpt>
      <trkpt lat="42.897185264155269" lon="13.255654815584421">
        <ele>1973.3399999999999</ele>
        <time>2019-06-20T11:34:10Z</time>
      </trkpt>
      <trkpt lat="42.897203536704183" lon="13.255924042314291">
        <ele>1971.6199999999999</ele>
        <time>2019-06-20T11:34:27Z</time>
      </trkpt>
      <trkpt lat="42.89721367880702" lon="13.256165524944663">
        <ele>1970.0899999999999</ele>
        <time>2019-06-20T11:34:42Z</time>
      </trkpt>
      <trkpt lat="42.897239495068789" lon="13.256396614015102">
        <ele>1968.3900000000001</ele>
        <time>2019-06-20T11:34:57Z</time>
      </trkpt>
      <trkpt lat="42.897268915548921" lon="13.256629714742303">
        <ele>1966.3</ele>
        <time>2019-06-20T11:35:13Z</time>
      </trkpt>
      <trkpt lat="42.897293725982308" lon="13.256865413859487">
        <ele>1964.3699999999999</ele>
        <time>2019-06-20T11:35:29Z</time>
      </trkpt>
      <trkpt lat="42.897308981046081" lon="13.25698678381741">
        <ele>1963.49</ele>
        <time>2019-06-20T11:35:37Z</time>
      </trkpt>
      <trkpt lat="42.897313004359603" lon="13.257009582594037">
        <ele>1963.27</ele>
        <time>2019-06-20T11:35:43Z</time>
      </trkpt>
      <trkpt lat="42.897315854206681" lon="13.257056521251798">
        <ele>1962.98</ele>
        <time>2019-06-20T11:35:46Z</time>
      </trkpt>
      <trkpt lat="42.897330522537231" lon="13.257287442684174">
        <ele>1962.1600000000001</ele>
        <time>2019-06-20T11:36:00Z</time>
      </trkpt>
      <trkpt lat="42.897339826449752" lon="13.257427755743265">
        <ele>1959.96</ele>
        <time>2019-06-20T11:36:09Z</time>
      </trkpt>
      <trkpt lat="42.897345861420035" lon="13.257491122931242">
        <ele>1959.99</ele>
        <time>2019-06-20T11:36:20Z</time>
      </trkpt>
      <trkpt lat="42.89736807346344" lon="13.257715506479144">
        <ele>1957.72</ele>
        <time>2019-06-20T11:36:34Z</time>
      </trkpt>
      <trkpt lat="42.897376120090485" lon="13.257765881717205">
        <ele>1957.3699999999999</ele>
        <time>2019-06-20T11:36:37Z</time>
      </trkpt>
      <trkpt lat="42.897366648539901" lon="13.258000575006008">
        <ele>1955.51</ele>
        <time>2019-06-20T11:36:51Z</time>
      </trkpt>
      <trkpt lat="42.897357763722539" lon="13.258264437317848">
        <ele>1953.6700000000001</ele>
        <time>2019-06-20T11:37:07Z</time>
      </trkpt>
      <trkpt lat="42.897344687953591" lon="13.258513798937201">
        <ele>1951.74</ele>
        <time>2019-06-20T11:37:22Z</time>
      </trkpt>
      <trkpt lat="42.897320380434394" lon="13.258730387315154">
        <ele>1950.49</ele>
        <time>2019-06-20T11:37:35Z</time>
      </trkpt>
      <trkpt lat="42.897279560565948" lon="13.258966756984591">
        <ele>1948.54</ele>
        <time>2019-06-20T11:37:50Z</time>
      </trkpt>
      <trkpt lat="42.897248798981309" lon="13.259218465536833">
        <ele>1946.4100000000001</ele>
        <time>2019-06-20T11:38:07Z</time>
      </trkpt>
      <trkpt lat="42.897218875586987" lon="13.259442262351513">
        <ele>1944.5999999999999</ele>
        <time>2019-06-20T11:38:22Z</time>
      </trkpt>
      <trkpt lat="42.897186521440744" lon="13.259577210992575">
        <ele>1943.6300000000001</ele>
        <time>2019-06-20T11:38:31Z</time>
      </trkpt>
      <trkpt lat="42.897153999656439" lon="13.259837552905083">
        <ele>1941.0599999999999</ele>
        <time>2019-06-20T11:38:48Z</time>
      </trkpt>
      <trkpt lat="42.897112425416708" lon="13.260053722187877">
        <ele>1939.4400000000001</ele>
        <time>2019-06-20T11:39:02Z</time>
      </trkpt>
      <trkpt lat="42.897099684923887" lon="13.260279949754477">
        <ele>1937.5799999999999</ele>
        <time>2019-06-20T11:39:16Z</time>
      </trkpt>
      <trkpt lat="42.897114856168628" lon="13.260612627491355">
        <ele>1934.79</ele>
        <time>2019-06-20T11:39:36Z</time>
      </trkpt>
      <trkpt lat="42.897144025191665" lon="13.260924937203526">
        <ele>1931.9200000000001</ele>
        <time>2019-06-20T11:39:55Z</time>
      </trkpt>
      <trkpt lat="42.897178390994668" lon="13.2611767295748">
        <ele>1930.02</ele>
        <time>2019-06-20T11:40:11Z</time>
      </trkpt>
      <trkpt lat="42.89721267297864" lon="13.261358449235559">
        <ele>1928.8199999999999</ele>
        <time>2019-06-20T11:40:23Z</time>
      </trkpt>
      <trkpt lat="42.89725718088448" lon="13.261640081182122">
        <ele>1926.78</ele>
        <time>2019-06-20T11:40:40Z</time>
      </trkpt>
      <trkpt lat="42.897312585264444" lon="13.261849796399474">
        <ele>1925.53</ele>
        <time>2019-06-20T11:40:54Z</time>
      </trkpt>
      <trkpt lat="42.897363547235727" lon="13.262073593214154">
        <ele>1922.71</ele>
        <time>2019-06-20T11:41:09Z</time>
      </trkpt>
      <trkpt lat="42.897356422618032" lon="13.262334186583757">
        <ele>1921.9100000000001</ele>
        <time>2019-06-20T11:41:25Z</time>
      </trkpt>
      <trkpt lat="42.897320799529552" lon="13.26261724345386">
        <ele>1920.47</ele>
        <time>2019-06-20T11:41:42Z</time>
      </trkpt>
      <trkpt lat="42.897325493395329" lon="13.262860821560025">
        <ele>1917.9400000000001</ele>
        <time>2019-06-20T11:41:56Z</time>
      </trkpt>
      <trkpt lat="42.897323565557599" lon="13.2631004601717">
        <ele>1916.3299999999999</ele>
        <time>2019-06-20T11:42:11Z</time>
      </trkpt>
      <trkpt lat="42.897359943017364" lon="13.263390474021435">
        <ele>1914.24</ele>
        <time>2019-06-20T11:42:30Z</time>
      </trkpt>
      <trkpt lat="42.897421382367611" lon="13.263675626367331">
        <ele>1911.6800000000001</ele>
        <time>2019-06-20T11:42:48Z</time>
      </trkpt>
      <trkpt lat="42.897458765655756" lon="13.263925993815064">
        <ele>1910.0799999999999</ele>
        <time>2019-06-20T11:43:04Z</time>
      </trkpt>
      <trkpt lat="42.897529592737556" lon="13.264206117019057">
        <ele>1908.1900000000001</ele>
        <time>2019-06-20T11:43:22Z</time>
      </trkpt>
      <trkpt lat="42.897595977410674" lon="13.264469979330897">
        <ele>1906.7</ele>
        <time>2019-06-20T11:43:39Z</time>
      </trkpt>
      <trkpt lat="42.897683316841722" lon="13.264681119471788">
        <ele>1905.0699999999999</ele>
        <time>2019-06-20T11:43:55Z</time>
      </trkpt>
      <trkpt lat="42.897776020690799" lon="13.264869125559926">
        <ele>1903.78</ele>
        <time>2019-06-20T11:44:10Z</time>
      </trkpt>
      <trkpt lat="42.897803094238043" lon="13.265073476359248">
        <ele>1902.21</ele>
        <time>2019-06-20T11:44:23Z</time>
      </trkpt>
      <trkpt lat="42.897760178893805" lon="13.26528076082468">
        <ele>1900.3900000000001</ele>
        <time>2019-06-20T11:44:37Z</time>
      </trkpt>
      <trkpt lat="42.897683316841722" lon="13.265423001721501">
        <ele>1899.6400000000001</ele>
        <time>2019-06-20T11:44:48Z</time>
      </trkpt>
      <trkpt lat="42.897617435082793" lon="13.265683008357882">
        <ele>1897.75</ele>
        <time>2019-06-20T11:45:05Z</time>
      </trkpt>
      <trkpt lat="42.89760603569448" lon="13.265904374420643">
        <ele>1896.24</ele>
        <time>2019-06-20T11:45:19Z</time>
      </trkpt>
      <trkpt lat="42.897530179470778" lon="13.266086345538497">
        <ele>1894.77</ele>
        <time>2019-06-20T11:45:33Z</time>
      </trkpt>
      <trkpt lat="42.897405959665775" lon="13.266251552850008">
        <ele>1892.8800000000001</ele>
        <time>2019-06-20T11:45:48Z</time>
      </trkpt>
      <trkpt lat="42.897363295778632" lon="13.266511727124453">
        <ele>1890.9200000000001</ele>
        <time>2019-06-20T11:46:05Z</time>
      </trkpt>
      <trkpt lat="42.897343933582306" lon="13.266739463433623">
        <ele>1889.28</ele>
        <time>2019-06-20T11:46:19Z</time>
      </trkpt>
      <trkpt lat="42.897341335192323" lon="13.267050096765161">
        <ele>1886.8</ele>
        <time>2019-06-20T11:46:38Z</time>
      </trkpt>
      <trkpt lat="42.897343933582306" lon="13.267324436455965">
        <ele>1884.46</ele>
        <time>2019-06-20T11:46:55Z</time>
      </trkpt>
      <trkpt lat="42.89729431271553" lon="13.267562063410878">
        <ele>1881.78</ele>
        <time>2019-06-20T11:47:10Z</time>
      </trkpt>
      <trkpt lat="42.897234382107854" lon="13.267830032855272">
        <ele>1879.97</ele>
        <time>2019-06-20T11:47:27Z</time>
      </trkpt>
      <trkpt lat="42.897221054881811" lon="13.267933046445251">
        <ele>1878.0599999999999</ele>
        <time>2019-06-20T11:47:34Z</time>
      </trkpt>
      <trkpt lat="42.897220971062779" lon="13.268026169389486">
        <ele>1878.02</ele>
        <time>2019-06-20T11:47:49Z</time>
      </trkpt>
      <trkpt lat="42.897243518382311" lon="13.268143432214856">
        <ele>1876.8800000000001</ele>
        <time>2019-06-20T11:48:08Z</time>
      </trkpt>
      <trkpt lat="42.897350220009685" lon="13.268296737223864">
        <ele>1876.22</ele>
        <time>2019-06-20T11:48:23Z</time>
      </trkpt>
      <trkpt lat="42.897475864738226" lon="13.268436379730701">
        <ele>1874.4400000000001</ele>
        <time>2019-06-20T11:48:38Z</time>
      </trkpt>
      <trkpt lat="42.897623470053077" lon="13.268477199599147">
        <ele>1872.6800000000001</ele>
        <time>2019-06-20T11:48:55Z</time>
      </trkpt>
      <trkpt lat="42.897632941603661" lon="13.268476948142052">
        <ele>1872.6099999999999</ele>
        <time>2019-06-20T11:49:04Z</time>
      </trkpt>
      <trkpt lat="42.897722460329533" lon="13.268497483804822">
        <ele>1872.55</ele>
        <time>2019-06-20T11:49:12Z</time>
      </trkpt>
      <trkpt lat="42.897757412865758" lon="13.268496310338378">
        <ele>1870.6400000000001</ele>
        <time>2019-06-20T11:49:15Z</time>
      </trkpt>
      <trkpt lat="42.897887416183949" lon="13.268621619790792">
        <ele>1869.21</ele>
        <time>2019-06-20T11:49:29Z</time>
      </trkpt>
      <trkpt lat="42.897900072857738" lon="13.268643580377102">
        <ele>1868.6800000000001</ele>
        <time>2019-06-20T11:49:31Z</time>
      </trkpt>
      <trkpt lat="42.898042229935527" lon="13.268795376643538">
        <ele>1866.3599999999999</ele>
        <time>2019-06-20T11:49:47Z</time>
      </trkpt>
      <trkpt lat="42.898164940997958" lon="13.268900904804468">
        <ele>1864.6400000000001</ele>
        <time>2019-06-20T11:50:00Z</time>
      </trkpt>
      <trkpt lat="42.898300141096115" lon="13.269001739099622">
        <ele>1863.03</ele>
        <time>2019-06-20T11:50:15Z</time>
      </trkpt>
      <trkpt lat="42.898354455828667" lon="13.269065609201789">
        <ele>1862.3099999999999</ele>
        <time>2019-06-20T11:50:25Z</time>
      </trkpt>
      <trkpt lat="42.898385720327497" lon="13.269065776839852">
        <ele>1862.8199999999999</ele>
        <time>2019-06-20T11:50:40Z</time>
      </trkpt>
      <trkpt lat="42.898379098623991" lon="13.26906418427825">
        <ele>1861.8499999999999</ele>
        <time>2019-06-20T11:50:53Z</time>
      </trkpt>
      <trkpt lat="42.898371471092105" lon="13.269063178449869">
        <ele>1861.3</ele>
        <time>2019-06-20T11:51:08Z</time>
      </trkpt>
      <trkpt lat="42.898355880752206" lon="13.269103495404124">
        <ele>1859.1500000000001</ele>
        <time>2019-06-20T11:51:21Z</time>
      </trkpt>
      <trkpt lat="42.898302488029003" lon="13.269104417413473">
        <ele>1857.25</ele>
        <time>2019-06-20T11:51:35Z</time>
      </trkpt>
      <trkpt lat="42.898292010650039" lon="13.269109362736344">
        <ele>1856.75</ele>
        <time>2019-06-20T11:51:49Z</time>
      </trkpt>
      <trkpt lat="42.898292345926166" lon="13.269111374393106">
        <ele>1856.8900000000001</ele>
        <time>2019-06-20T11:52:00Z</time>
      </trkpt>
      <trkpt lat="42.898295866325498" lon="13.269131658598781">
        <ele>1856.3399999999999</ele>
        <time>2019-06-20T11:52:12Z</time>
      </trkpt>
      <trkpt lat="42.898331740871072" lon="13.26919661834836">
        <ele>1853.2</ele>
        <time>2019-06-20T11:52:28Z</time>
      </trkpt>
      <trkpt lat="42.898315312340856" lon="13.269203491508961">
        <ele>1852.1400000000001</ele>
        <time>2019-06-20T11:52:38Z</time>
      </trkpt>
      <trkpt lat="42.898268122226" lon="13.269203407689929">
        <ele>1850.4200000000001</ele>
        <time>2019-06-20T11:52:51Z</time>
      </trkpt>
      <trkpt lat="42.898194193840027" lon="13.269196450710297">
        <ele>1848.1600000000001</ele>
        <time>2019-06-20T11:53:06Z</time>
      </trkpt>
      <trkpt lat="42.898188242688775" lon="13.269207011908293">
        <ele>1848.4200000000001</ele>
        <time>2019-06-20T11:53:26Z</time>
      </trkpt>
      <trkpt lat="42.898183548822999" lon="13.269204581156373">
        <ele>1848.02</ele>
        <time>2019-06-20T11:53:49Z</time>
      </trkpt>
      <trkpt lat="42.898180950433016" lon="13.269210532307625">
        <ele>1848.1900000000001</ele>
        <time>2019-06-20T11:54:13Z</time>
      </trkpt>
      <trkpt lat="42.898229314014316" lon="13.269199216738343">
        <ele>1849.02</ele>
        <time>2019-06-20T11:54:31Z</time>
      </trkpt>
      <trkpt lat="42.898256974294782" lon="13.26920592226088">
        <ele>1849.8399999999999</ele>
        <time>2019-06-20T11:54:42Z</time>
      </trkpt>
      <trkpt lat="42.898257309570909" lon="13.269204664975405">
        <ele>1849.96</ele>
        <time>2019-06-20T11:54:53Z</time>
      </trkpt>
      <trkpt lat="42.89824616163969" lon="13.269207933917642">
        <ele>1849.6400000000001</ele>
        <time>2019-06-20T11:55:04Z</time>
      </trkpt>
      <trkpt lat="42.898245407268405" lon="13.269199803471565">
        <ele>1849.6800000000001</ele>
        <time>2019-06-20T11:55:22Z</time>
      </trkpt>
      <trkpt lat="42.898250604048371" lon="13.269193768501282">
        <ele>1849.9000000000001</ele>
        <time>2019-06-20T11:55:38Z</time>
      </trkpt>
      <trkpt lat="42.898246748372912" lon="13.269195863977075">
        <ele>1850.1099999999999</ele>
        <time>2019-06-20T11:56:02Z</time>
      </trkpt>
      <trkpt lat="42.898249765858054" lon="13.269199384376407">
        <ele>1849.5799999999999</ele>
        <time>2019-06-20T11:56:18Z</time>
      </trkpt>
      <trkpt lat="42.89821146056056" lon="13.269198378548026">
        <ele>1847.76</ele>
        <time>2019-06-20T11:56:31Z</time>
      </trkpt>
      <trkpt lat="42.898195032030344" lon="13.26919955201447">
        <ele>1847.4100000000001</ele>
        <time>2019-06-20T11:56:43Z</time>
      </trkpt>
      <trkpt lat="42.898202743381262" lon="13.269233331084251">
        <ele>1846.26</ele>
        <time>2019-06-20T11:56:57Z</time>
      </trkpt>
      <trkpt lat="42.898206682875752" lon="13.26924841850996">
        <ele>1845.6199999999999</ele>
        <time>2019-06-20T11:57:08Z</time>
      </trkpt>
      <trkpt lat="42.898214142769575" lon="13.269262164831161">
        <ele>1845.3900000000001</ele>
        <time>2019-06-20T11:57:27Z</time>
      </trkpt>
      <trkpt lat="42.898221937939525" lon="13.269298961386085">
        <ele>1844.04</ele>
        <time>2019-06-20T11:57:39Z</time>
      </trkpt>
      <trkpt lat="42.898249262943864" lon="13.269371213391423">
        <ele>1841.48</ele>
        <time>2019-06-20T11:57:52Z</time>
      </trkpt>
      <trkpt lat="42.898254040628672" lon="13.269419828429818">
        <ele>1840.5599999999999</ele>
        <time>2019-06-20T11:58:05Z</time>
      </trkpt>
      <trkpt lat="42.898268122226" lon="13.269458971917629">
        <ele>1838.5999999999999</ele>
        <time>2019-06-20T11:58:16Z</time>
      </trkpt>
      <trkpt lat="42.898276755586267" lon="13.269488057121634">
        <ele>1837.4000000000001</ele>
        <time>2019-06-20T11:58:32Z</time>
      </trkpt>
      <trkpt lat="42.898292848840356" lon="13.269514124840498">
        <ele>1836.1400000000001</ele>
        <time>2019-06-20T11:58:48Z</time>
      </trkpt>
      <trkpt lat="42.898292262107134" lon="13.269528793171048">
        <ele>1835.4200000000001</ele>
        <time>2019-06-20T11:59:01Z</time>
      </trkpt>
      <trkpt lat="42.898301314562559" lon="13.269551591947675">
        <ele>1834.8699999999999</ele>
        <time>2019-06-20T11:59:16Z</time>
      </trkpt>
      <trkpt lat="42.898292681202292" lon="13.269585287198424">
        <ele>1833.1400000000001</ele>
        <time>2019-06-20T11:59:32Z</time>
      </trkpt>
      <trkpt lat="42.898278431966901" lon="13.269617222249508">
        <ele>1831.9000000000001</ele>
        <time>2019-06-20T11:59:46Z</time>
      </trkpt>
      <trkpt lat="42.898244569078088" lon="13.269669357687235">
        <ele>1829.1900000000001</ele>
        <time>2019-06-20T11:59:56Z</time>
      </trkpt>
      <trkpt lat="42.898207604885101" lon="13.269727947190404">
        <ele>1826.1199999999999</ele>
        <time>2019-06-20T12:00:04Z</time>
      </trkpt>
      <trkpt lat="42.898166952654719" lon="13.269758792594075">
        <ele>1823.8299999999999</ele>
        <time>2019-06-20T12:00:12Z</time>
      </trkpt>
      <trkpt lat="42.898031584918499" lon="13.269739346578717">
        <ele>1821.77</ele>
        <time>2019-06-20T12:00:24Z</time>
      </trkpt>
      <trkpt lat="42.897951202467084" lon="13.269714284688234">
        <ele>1820.9000000000001</ele>
        <time>2019-06-20T12:00:33Z</time>
      </trkpt>
      <trkpt lat="42.897931756451726" lon="13.269713195040822">
        <ele>1820.8399999999999</ele>
        <time>2019-06-20T12:00:35Z</time>
      </trkpt>
      <trkpt lat="42.897762106731534" lon="13.269656617194414">
        <ele>1819.1900000000001</ele>
        <time>2019-06-20T12:00:52Z</time>
      </trkpt>
      <trkpt lat="42.897577537223697" lon="13.269625939428806">
        <ele>1816.4000000000001</ele>
        <time>2019-06-20T12:01:08Z</time>
      </trkpt>
      <trkpt lat="42.897388190031052" lon="13.26962904073298">
        <ele>1814.03</ele>
        <time>2019-06-20T12:01:23Z</time>
      </trkpt>
      <trkpt lat="42.897187359631062" lon="13.269681176170707">
        <ele>1811.8299999999999</ele>
        <time>2019-06-20T12:01:39Z</time>
      </trkpt>
      <trkpt lat="42.89696884341538" lon="13.269729875028133">
        <ele>1809.97</ele>
        <time>2019-06-20T12:01:56Z</time>
      </trkpt>
      <trkpt lat="42.896767258644104" lon="13.269663574174047">
        <ele>1806.9200000000001</ele>
        <time>2019-06-20T12:02:12Z</time>
      </trkpt>
      <trkpt lat="42.896538516506553" lon="13.269532816484571">
        <ele>1804.3599999999999</ele>
        <time>2019-06-20T12:02:31Z</time>
      </trkpt>
      <trkpt lat="42.896362077444792" lon="13.269408429041505">
        <ele>1802.52</ele>
        <time>2019-06-20T12:02:47Z</time>
      </trkpt>
      <trkpt lat="42.896244479343295" lon="13.269287561997771">
        <ele>1801.4400000000001</ele>
        <time>2019-06-20T12:03:00Z</time>
      </trkpt>
      <trkpt lat="42.896138783544302" lon="13.26915068551898">
        <ele>1799.4200000000001</ele>
        <time>2019-06-20T12:03:14Z</time>
      </trkpt>
      <trkpt lat="42.89610642939806" lon="13.269116068258882">
        <ele>1798.74</ele>
        <time>2019-06-20T12:03:18Z</time>
      </trkpt>
      <trkpt lat="42.895948849618435" lon="13.268911885097623">
        <ele>1795.96</ele>
        <time>2019-06-20T12:03:38Z</time>
      </trkpt>
      <trkpt lat="42.89584063924849" lon="13.268753215670586">
        <ele>1793.71</ele>
        <time>2019-06-20T12:03:52Z</time>
      </trkpt>
      <trkpt lat="42.895735865458846" lon="13.268587337806821">
        <ele>1791.8</ele>
        <time>2019-06-20T12:04:06Z</time>
      </trkpt>
      <trkpt lat="42.895595720037818" lon="13.268496226519346">
        <ele>1790.28</ele>
        <time>2019-06-20T12:04:20Z</time>
      </trkpt>
      <trkpt lat="42.895536627620459" lon="13.268678365275264">
        <ele>1788.71</ele>
        <time>2019-06-20T12:04:33Z</time>
      </trkpt>
      <trkpt lat="42.895633103325963" lon="13.268956979736686">
        <ele>1786.6800000000001</ele>
        <time>2019-06-20T12:04:52Z</time>
      </trkpt>
      <trkpt lat="42.895639054477215" lon="13.268982041627169">
        <ele>1786.2</ele>
        <time>2019-06-20T12:05:03Z</time>
      </trkpt>
      <trkpt lat="42.895654058083892" lon="13.268991596996784">
        <ele>1786.6199999999999</ele>
        <time>2019-06-20T12:05:23Z</time>
      </trkpt>
      <trkpt lat="42.895673085004091" lon="13.269013222306967">
        <ele>1786.5</ele>
        <time>2019-06-20T12:05:26Z</time>
      </trkpt>
      <trkpt lat="42.89575120434165" lon="13.269188739359379">
        <ele>1785.1500000000001</ele>
        <time>2019-06-20T12:05:41Z</time>
      </trkpt>
      <trkpt lat="42.895771656185389" lon="13.269262248650193">
        <ele>1784.49</ele>
        <time>2019-06-20T12:05:53Z</time>
      </trkpt>
      <trkpt lat="42.8957658726722" lon="13.269254369661212">
        <ele>1784.3499999999999</ele>
        <time>2019-06-20T12:06:16Z</time>
      </trkpt>
      <trkpt lat="42.895760424435139" lon="13.269253866747022">
        <ele>1783.79</ele>
        <time>2019-06-20T12:06:33Z</time>
      </trkpt>
      <trkpt lat="42.895755227655172" lon="13.269254118204117">
        <ele>1783.6900000000001</ele>
        <time>2019-06-20T12:06:54Z</time>
      </trkpt>
      <trkpt lat="42.895746259018779" lon="13.269244814291596">
        <ele>1783.8399999999999</ele>
        <time>2019-06-20T12:07:15Z</time>
      </trkpt>
      <trkpt lat="42.895747600123286" lon="13.269243221729994">
        <ele>1783.48</ele>
        <time>2019-06-20T12:07:30Z</time>
      </trkpt>
      <trkpt lat="42.895755982026458" lon="13.269242383539677">
        <ele>1784.3299999999999</ele>
        <time>2019-06-20T12:07:46Z</time>
      </trkpt>
      <trkpt lat="42.895759167149663" lon="13.269238360226154">
        <ele>1783.6099999999999</ele>
        <time>2019-06-20T12:08:05Z</time>
      </trkpt>
      <trkpt lat="42.895761514082551" lon="13.26923668384552">
        <ele>1783.3499999999999</ele>
        <time>2019-06-20T12:08:25Z</time>
      </trkpt>
      <trkpt lat="42.895761094987392" lon="13.269240288063884">
        <ele>1781.8</ele>
        <time>2019-06-20T12:08:43Z</time>
      </trkpt>
      <trkpt lat="42.895763358101249" lon="13.26923131942749">
        <ele>1782.3599999999999</ele>
        <time>2019-06-20T12:09:06Z</time>
      </trkpt>
      <trkpt lat="42.895763944834471" lon="13.269233666360378">
        <ele>1783.8099999999999</ele>
        <time>2019-06-20T12:09:17Z</time>
      </trkpt>
      <trkpt lat="42.895768471062183" lon="13.269234504550695">
        <ele>1782.9300000000001</ele>
        <time>2019-06-20T12:09:39Z</time>
      </trkpt>
      <trkpt lat="42.89576880633831" lon="13.269235258921981">
        <ele>1782.8699999999999</ele>
        <time>2019-06-20T12:09:58Z</time>
      </trkpt>
      <trkpt lat="42.895763525739312" lon="13.269234588369727">
        <ele>1782.6500000000001</ele>
        <time>2019-06-20T12:10:23Z</time>
      </trkpt>
      <trkpt lat="42.89576293900609" lon="13.269240623340011">
        <ele>1783.1600000000001</ele>
        <time>2019-06-20T12:10:44Z</time>
      </trkpt>
      <trkpt lat="42.895776936784387" lon="13.269240371882915">
        <ele>1783.01</ele>
        <time>2019-06-20T12:11:01Z</time>
      </trkpt>
      <trkpt lat="42.895812392234802" lon="13.269320670515299">
        <ele>1782.53</ele>
        <time>2019-06-20T12:11:08Z</time>
      </trkpt>
      <trkpt lat="42.895832844078541" lon="13.269379427656531">
        <ele>1782.4000000000001</ele>
        <time>2019-06-20T12:11:12Z</time>
      </trkpt>
      <trkpt lat="42.895927391946316" lon="13.269615881145">
        <ele>1780.8499999999999</ele>
        <time>2019-06-20T12:11:28Z</time>
      </trkpt>
      <trkpt lat="42.896008361130953" lon="13.269787961617112">
        <ele>1779.22</ele>
        <time>2019-06-20T12:11:40Z</time>
      </trkpt>
      <trkpt lat="42.896088324487209" lon="13.269948307424784">
        <ele>1777.48</ele>
        <time>2019-06-20T12:11:52Z</time>
      </trkpt>
      <trkpt lat="42.896194774657488" lon="13.270131452009082">
        <ele>1775.6099999999999</ele>
        <time>2019-06-20T12:12:07Z</time>
      </trkpt>
      <trkpt lat="42.896276917308569" lon="13.270250475034118">
        <ele>1774.29</ele>
        <time>2019-06-20T12:12:18Z</time>
      </trkpt>
      <trkpt lat="42.896415553987026" lon="13.270444180816412">
        <ele>1772.1400000000001</ele>
        <time>2019-06-20T12:12:34Z</time>
      </trkpt>
      <trkpt lat="42.896522171795368" lon="13.270598659291863">
        <ele>1772.1099999999999</ele>
        <time>2019-06-20T12:12:50Z</time>
      </trkpt>
      <trkpt lat="42.896586712449789" lon="13.27068205922842">
        <ele>1770.1800000000001</ele>
        <time>2019-06-20T12:12:59Z</time>
      </trkpt>
      <trkpt lat="42.896653432399035" lon="13.270764369517565">
        <ele>1768.26</ele>
        <time>2019-06-20T12:13:08Z</time>
      </trkpt>
      <trkpt lat="42.896799361333251" lon="13.270862102508545">
        <ele>1766.6800000000001</ele>
        <time>2019-06-20T12:13:23Z</time>
      </trkpt>
      <trkpt lat="42.897004801779985" lon="13.270949693396688">
        <ele>1764.8</ele>
        <time>2019-06-20T12:13:41Z</time>
      </trkpt>
      <trkpt lat="42.897223317995667" lon="13.270983640104532">
        <ele>1762.99</ele>
        <time>2019-06-20T12:13:59Z</time>
      </trkpt>
      <trkpt lat="42.897427333518863" lon="13.271017922088504">
        <ele>1760.8699999999999</ele>
        <time>2019-06-20T12:14:16Z</time>
      </trkpt>
      <trkpt lat="42.897610142827034" lon="13.271054215729237">
        <ele>1758.8800000000001</ele>
        <time>2019-06-20T12:14:31Z</time>
      </trkpt>
      <trkpt lat="42.897831676527858" lon="13.271115487441421">
        <ele>1756.77</ele>
        <time>2019-06-20T12:14:50Z</time>
      </trkpt>
      <trkpt lat="42.898010043427348" lon="13.271239288151264">
        <ele>1754.9200000000001</ele>
        <time>2019-06-20T12:15:07Z</time>
      </trkpt>
      <trkpt lat="42.898166449740529" lon="13.271404411643744">
        <ele>1752.9300000000001</ele>
        <time>2019-06-20T12:15:24Z</time>
      </trkpt>
      <trkpt lat="42.898330818861723" lon="13.271564925089478">
        <ele>1750.8199999999999</ele>
        <time>2019-06-20T12:15:41Z</time>
      </trkpt>
      <trkpt lat="42.898432156071067" lon="13.271681098267436">
        <ele>1750.8399999999999</ele>
        <time>2019-06-20T12:15:52Z</time>
      </trkpt>
      <trkpt lat="42.898458810523152" lon="13.271712781861424">
        <ele>1749.26</ele>
        <time>2019-06-20T12:15:55Z</time>
      </trkpt>
      <trkpt lat="42.898586550727487" lon="13.271858207881451">
        <ele>1747.6199999999999</ele>
        <time>2019-06-20T12:16:09Z</time>
      </trkpt>
      <trkpt lat="42.898691575974226" lon="13.272015871480107">
        <ele>1746.1800000000001</ele>
        <time>2019-06-20T12:16:22Z</time>
      </trkpt>
      <trkpt lat="42.89881294593215" lon="13.272227263078094">
        <ele>1743.6700000000001</ele>
        <time>2019-06-20T12:16:39Z</time>
      </trkpt>
      <trkpt lat="42.898929538205266" lon="13.272469667717814">
        <ele>1742.0899999999999</ele>
        <time>2019-06-20T12:16:57Z</time>
      </trkpt>
      <trkpt lat="42.899008831009269" lon="13.272675946354866">
        <ele>1740.8900000000001</ele>
        <time>2019-06-20T12:17:11Z</time>
      </trkpt>
      <trkpt lat="42.899082591757178" lon="13.272864874452353">
        <ele>1739.45</ele>
        <time>2019-06-20T12:17:24Z</time>
      </trkpt>
      <trkpt lat="42.899172361940145" lon="13.273117421194911">
        <ele>1737.25</ele>
        <time>2019-06-20T12:17:41Z</time>
      </trkpt>
      <trkpt lat="42.899236567318439" lon="13.273347839713097">
        <ele>1735.8599999999999</ele>
        <time>2019-06-20T12:17:56Z</time>
      </trkpt>
      <trkpt lat="42.899278225377202" lon="13.273629639297724">
        <ele>1734.1500000000001</ele>
        <time>2019-06-20T12:18:14Z</time>
      </trkpt>
      <trkpt lat="42.8993128426373" lon="13.273896519094706">
        <ele>1732.1199999999999</ele>
        <time>2019-06-20T12:18:31Z</time>
      </trkpt>
      <trkpt lat="42.899353578686714" lon="13.27416842803359">
        <ele>1730.1400000000001</ele>
        <time>2019-06-20T12:18:48Z</time>
      </trkpt>
      <trkpt lat="42.899383585900068" lon="13.274466991424561">
        <ele>1728.27</ele>
        <time>2019-06-20T12:19:06Z</time>
      </trkpt>
      <trkpt lat="42.899412084370852" lon="13.274720376357436">
        <ele>1726.5999999999999</ele>
        <time>2019-06-20T12:19:22Z</time>
      </trkpt>
      <trkpt lat="42.899433290585876" lon="13.274970576167107">
        <ele>1725.1199999999999</ele>
        <time>2019-06-20T12:19:37Z</time>
      </trkpt>
      <trkpt lat="42.89943739771843" lon="13.275221614167094">
        <ele>1723.3900000000001</ele>
        <time>2019-06-20T12:19:53Z</time>
      </trkpt>
      <trkpt lat="42.899437816813588" lon="13.275378188118339">
        <ele>1722.1300000000001</ele>
        <time>2019-06-20T12:20:03Z</time>
      </trkpt>
      <trkpt lat="42.899437649175525" lon="13.275611121207476">
        <ele>1720.8099999999999</ele>
        <time>2019-06-20T12:20:17Z</time>
      </trkpt>
      <trkpt lat="42.899429854005575" lon="13.27592795714736">
        <ele>1718.8900000000001</ele>
        <time>2019-06-20T12:20:36Z</time>
      </trkpt>
      <trkpt lat="42.899458687752485" lon="13.276205398142338">
        <ele>1716.3299999999999</ele>
        <time>2019-06-20T12:20:53Z</time>
      </trkpt>
      <trkpt lat="42.899488611146808" lon="13.276443108916283">
        <ele>1714.9300000000001</ele>
        <time>2019-06-20T12:21:08Z</time>
      </trkpt>
      <trkpt lat="42.899484587833285" lon="13.276700433343649">
        <ele>1713.3299999999999</ele>
        <time>2019-06-20T12:21:24Z</time>
      </trkpt>
      <trkpt lat="42.899399762973189" lon="13.277024142444134">
        <ele>1711.4400000000001</ele>
        <time>2019-06-20T12:21:45Z</time>
      </trkpt>
      <trkpt lat="42.899294318631291" lon="13.277331842109561">
        <ele>1709.52</ele>
        <time>2019-06-20T12:22:06Z</time>
      </trkpt>
      <trkpt lat="42.899280739948153" lon="13.277587741613388">
        <ele>1708.2</ele>
        <time>2019-06-20T12:22:22Z</time>
      </trkpt>
      <trkpt lat="42.899322733283043" lon="13.277831403538585">
        <ele>1706.4400000000001</ele>
        <time>2019-06-20T12:22:39Z</time>
      </trkpt>
      <trkpt lat="42.899341508746147" lon="13.277986804023385">
        <ele>1704.95</ele>
        <time>2019-06-20T12:22:54Z</time>
      </trkpt>
      <trkpt lat="42.899359362199903" lon="13.278132816776633">
        <ele>1704.3800000000001</ele>
        <time>2019-06-20T12:23:06Z</time>
      </trkpt>
      <trkpt lat="42.89937243796885" lon="13.27829928137362">
        <ele>1703.1400000000001</ele>
        <time>2019-06-20T12:23:20Z</time>
      </trkpt>
      <trkpt lat="42.899377131834626" lon="13.278507487848401">
        <ele>1702.3299999999999</ele>
        <time>2019-06-20T12:23:37Z</time>
      </trkpt>
      <trkpt lat="42.899382747709751" lon="13.2786716055125">
        <ele>1701.02</ele>
        <time>2019-06-20T12:23:51Z</time>
      </trkpt>
      <trkpt lat="42.899423567578197" lon="13.278847960755229">
        <ele>1700.05</ele>
        <time>2019-06-20T12:24:08Z</time>
      </trkpt>
      <trkpt lat="42.899462040513754" lon="13.279056586325169">
        <ele>1698.46</ele>
        <time>2019-06-20T12:24:23Z</time>
      </trkpt>
      <trkpt lat="42.899501686915755" lon="13.279163790866733">
        <ele>1696.8099999999999</ele>
        <time>2019-06-20T12:24:34Z</time>
      </trkpt>
      <trkpt lat="42.899506129324436" lon="13.279187679290771">
        <ele>1696.8</ele>
        <time>2019-06-20T12:24:36Z</time>
      </trkpt>
      <trkpt lat="42.899523731321096" lon="13.27936839312315">
        <ele>1695.24</ele>
        <time>2019-06-20T12:24:50Z</time>
      </trkpt>
      <trkpt lat="42.899551223963499" lon="13.279555225744843">
        <ele>1694.5799999999999</ele>
        <time>2019-06-20T12:25:05Z</time>
      </trkpt>
      <trkpt lat="42.899558516219258" lon="13.279611049219966">
        <ele>1695.05</ele>
        <time>2019-06-20T12:25:14Z</time>
      </trkpt>
      <trkpt lat="42.899598414078355" lon="13.279776675626636">
        <ele>1696.0799999999999</ele>
        <time>2019-06-20T12:25:28Z</time>
      </trkpt>
      <trkpt lat="42.899621464312077" lon="13.27992687933147">
        <ele>1696.9100000000001</ele>
        <time>2019-06-20T12:25:40Z</time>
      </trkpt>
      <trkpt lat="42.899624649435282" lon="13.279966022819281">
        <ele>1697.1700000000001</ele>
        <time>2019-06-20T12:25:45Z</time>
      </trkpt>
      <trkpt lat="42.899636132642627" lon="13.280018493533134">
        <ele>1697.27</ele>
        <time>2019-06-20T12:25:49Z</time>
      </trkpt>
      <trkpt lat="42.89964945986867" lon="13.280116897076368">
        <ele>1696.46</ele>
        <time>2019-06-20T12:25:59Z</time>
      </trkpt>
      <trkpt lat="42.899669157341123" lon="13.280249917879701">
        <ele>1695.9000000000001</ele>
        <time>2019-06-20T12:26:12Z</time>
      </trkpt>
      <trkpt lat="42.899683825671673" lon="13.280434152111411">
        <ele>1692.9100000000001</ele>
        <time>2019-06-20T12:26:26Z</time>
      </trkpt>
      <trkpt lat="42.899689776822925" lon="13.280617212876678">
        <ele>1689.73</ele>
        <time>2019-06-20T12:26:40Z</time>
      </trkpt>
      <trkpt lat="42.899676281958818" lon="13.280732966959476">
        <ele>1688.6400000000001</ele>
        <time>2019-06-20T12:26:54Z</time>
      </trkpt>
      <trkpt lat="42.899678964167833" lon="13.280743276700377">
        <ele>1688.78</ele>
        <time>2019-06-20T12:26:57Z</time>
      </trkpt>
      <trkpt lat="42.899683658033609" lon="13.280784599483013">
        <ele>1688.6500000000001</ele>
        <time>2019-06-20T12:27:00Z</time>
      </trkpt>
      <trkpt lat="42.899679131805897" lon="13.28083723783493">
        <ele>1688.01</ele>
        <time>2019-06-20T12:27:04Z</time>
      </trkpt>
      <trkpt lat="42.899666307494044" lon="13.280886439606547">
        <ele>1687.5</ele>
        <time>2019-06-20T12:27:15Z</time>
      </trkpt>
      <trkpt lat="42.899672845378518" lon="13.280904460698366">
        <ele>1687.3199999999999</ele>
        <time>2019-06-20T12:27:19Z</time>
      </trkpt>
      <trkpt lat="42.899691453203559" lon="13.280958943068981">
        <ele>1686.9000000000001</ele>
        <time>2019-06-20T12:27:23Z</time>
      </trkpt>
      <trkpt lat="42.899741157889366" lon="13.281179554760456">
        <ele>1685.8299999999999</ele>
        <time>2019-06-20T12:27:39Z</time>
      </trkpt>
      <trkpt lat="42.899743588641286" lon="13.281173519790173">
        <ele>1685.8</ele>
        <time>2019-06-20T12:27:52Z</time>
      </trkpt>
      <trkpt lat="42.899748533964157" lon="13.281179890036583">
        <ele>1685.74</ele>
        <time>2019-06-20T12:28:05Z</time>
      </trkpt>
      <trkpt lat="42.89976823143661" lon="13.28121786005795">
        <ele>1685.4400000000001</ele>
        <time>2019-06-20T12:28:18Z</time>
      </trkpt>
      <trkpt lat="42.899752557277679" lon="13.281220458447933">
        <ele>1685.3800000000001</ele>
        <time>2019-06-20T12:28:31Z</time>
      </trkpt>
      <trkpt lat="42.899758089333773" lon="13.281220039352775">
        <ele>1685.6800000000001</ele>
        <time>2019-06-20T12:28:39Z</time>
      </trkpt>
      <trkpt lat="42.899783905595541" lon="13.281265972182155">
        <ele>1685.24</ele>
        <time>2019-06-20T12:28:43Z</time>
      </trkpt>
      <trkpt lat="42.899860767647624" lon="13.281503347679973">
        <ele>1683.6600000000001</ele>
        <time>2019-06-20T12:29:01Z</time>
      </trkpt>
      <trkpt lat="42.89992606267333" lon="13.281709123402834">
        <ele>1682</ele>
        <time>2019-06-20T12:29:17Z</time>
      </trkpt>
      <trkpt lat="42.899929163977504" lon="13.281712476164103">
        <ele>1681.96</ele>
        <time>2019-06-20T12:29:19Z</time>
      </trkpt>
      <trkpt lat="42.899967636913061" lon="13.281808868050575">
        <ele>1681.3699999999999</ele>
        <time>2019-06-20T12:29:26Z</time>
      </trkpt>
      <trkpt lat="42.900068052113056" lon="13.282084800302982">
        <ele>1679.96</ele>
        <time>2019-06-20T12:29:45Z</time>
      </trkpt>
      <trkpt lat="42.900175591930747" lon="13.282338939607143">
        <ele>1678.49</ele>
        <time>2019-06-20T12:30:03Z</time>
      </trkpt>
      <trkpt lat="42.900265362113714" lon="13.282560640946031">
        <ele>1677.28</ele>
        <time>2019-06-20T12:30:19Z</time>
      </trkpt>
      <trkpt lat="42.900361754000187" lon="13.282775972038507">
        <ele>1675.5599999999999</ele>
        <time>2019-06-20T12:30:36Z</time>
      </trkpt>
      <trkpt lat="42.900470299646258" lon="13.282967498525977">
        <ele>1674.0699999999999</ele>
        <time>2019-06-20T12:30:52Z</time>
      </trkpt>
      <trkpt lat="42.900557974353433" lon="13.283107727766037">
        <ele>1672.96</ele>
        <time>2019-06-20T12:31:04Z</time>
      </trkpt>
      <trkpt lat="42.900695186108351" lon="13.283318784087896">
        <ele>1671.01</ele>
        <time>2019-06-20T12:31:23Z</time>
      </trkpt>
      <trkpt lat="42.900694599375129" lon="13.283334961161017">
        <ele>1671.03</ele>
        <time>2019-06-20T12:31:33Z</time>
      </trkpt>
      <trkpt lat="42.900707758963108" lon="13.283336637541652">
        <ele>1671.52</ele>
        <time>2019-06-20T12:31:47Z</time>
      </trkpt>
      <trkpt lat="42.900744471698999" lon="13.283371841534972">
        <ele>1670.9100000000001</ele>
        <time>2019-06-20T12:31:51Z</time>
      </trkpt>
      <trkpt lat="42.900908421725035" lon="13.283598320558667">
        <ele>1668.6900000000001</ele>
        <time>2019-06-20T12:32:11Z</time>
      </trkpt>
      <trkpt lat="42.901060804724693" lon="13.283813484013081">
        <ele>1666.71</ele>
        <time>2019-06-20T12:32:29Z</time>
      </trkpt>
      <trkpt lat="42.901169853284955" lon="13.283975590020418">
        <ele>1665.46</ele>
        <time>2019-06-20T12:32:43Z</time>
      </trkpt>
      <trkpt lat="42.901236489415169" lon="13.284095283597708">
        <ele>1663.8099999999999</ele>
        <time>2019-06-20T12:32:57Z</time>
      </trkpt>
      <trkpt lat="42.901227939873934" lon="13.284084219485521">
        <ele>1663.3599999999999</ele>
        <time>2019-06-20T12:33:13Z</time>
      </trkpt>
      <trkpt lat="42.901235986500978" lon="13.284090254455805">
        <ele>1663.1400000000001</ele>
        <time>2019-06-20T12:33:26Z</time>
      </trkpt>
      <trkpt lat="42.901242021471262" lon="13.284095786511898">
        <ele>1663.51</ele>
        <time>2019-06-20T12:33:43Z</time>
      </trkpt>
      <trkpt lat="42.90125610306859" lon="13.284116657450795">
        <ele>1663.3900000000001</ele>
        <time>2019-06-20T12:33:45Z</time>
      </trkpt>
      <trkpt lat="42.901409491896629" lon="13.284337436780334">
        <ele>1661.55</ele>
        <time>2019-06-20T12:34:05Z</time>
      </trkpt>
      <trkpt lat="42.901532538235188" lon="13.284509684890509">
        <ele>1660.49</ele>
        <time>2019-06-20T12:34:21Z</time>
      </trkpt>
      <trkpt lat="42.901664301753044" lon="13.284686878323555">
        <ele>1659.0999999999999</ele>
        <time>2019-06-20T12:34:37Z</time>
      </trkpt>
      <trkpt lat="42.901833700016141" lon="13.284905226901174">
        <ele>1657.4000000000001</ele>
        <time>2019-06-20T12:34:57Z</time>
      </trkpt>
      <trkpt lat="42.90196755900979" lon="13.285081749781966">
        <ele>1655.7</ele>
        <time>2019-06-20T12:35:13Z</time>
      </trkpt>
      <trkpt lat="42.902110554277897" lon="13.285261206328869">
        <ele>1653.8900000000001</ele>
        <time>2019-06-20T12:35:30Z</time>
      </trkpt>
      <trkpt lat="42.902265284210443" lon="13.28545181080699">
        <ele>1651.72</ele>
        <time>2019-06-20T12:35:48Z</time>
      </trkpt>
      <trkpt lat="42.902402076870203" lon="13.285606289282441">
        <ele>1650.3699999999999</ele>
        <time>2019-06-20T12:36:04Z</time>
      </trkpt>
      <trkpt lat="42.90255730971694" lon="13.285768982023001">
        <ele>1649</ele>
        <time>2019-06-20T12:36:21Z</time>
      </trkpt>
      <trkpt lat="42.902726707980037" lon="13.285919269546866">
        <ele>1647.74</ele>
        <time>2019-06-20T12:36:38Z</time>
      </trkpt>
      <trkpt lat="42.902893926948309" lon="13.286068886518478">
        <ele>1645.5799999999999</ele>
        <time>2019-06-20T12:36:55Z</time>
      </trkpt>
      <trkpt lat="42.903069695457816" lon="13.286244152113795">
        <ele>1643.3499999999999</ele>
        <time>2019-06-20T12:37:14Z</time>
      </trkpt>
      <trkpt lat="42.903157956898212" lon="13.286363510414958">
        <ele>1641.53</ele>
        <time>2019-06-20T12:37:25Z</time>
      </trkpt>
      <trkpt lat="42.903188467025757" lon="13.286409024149179">
        <ele>1641.1300000000001</ele>
        <time>2019-06-20T12:37:29Z</time>
      </trkpt>
      <trkpt lat="42.903238506987691" lon="13.286489825695753">
        <ele>1641.1400000000001</ele>
        <time>2019-06-20T12:37:40Z</time>
      </trkpt>
      <trkpt lat="42.903317045420408" lon="13.286596192047">
        <ele>1639.3099999999999</ele>
        <time>2019-06-20T12:37:50Z</time>
      </trkpt>
      <trkpt lat="42.903421316295862" lon="13.286755280569196">
        <ele>1636.1199999999999</ele>
        <time>2019-06-20T12:38:03Z</time>
      </trkpt>
      <trkpt lat="42.903552912175655" lon="13.286950327455997">
        <ele>1634</ele>
        <time>2019-06-20T12:38:20Z</time>
      </trkpt>
      <trkpt lat="42.903682664036751" lon="13.28714101575315">
        <ele>1631.9300000000001</ele>
        <time>2019-06-20T12:38:37Z</time>
      </trkpt>
      <trkpt lat="42.903687693178654" lon="13.287165155634284">
        <ele>1631.5</ele>
        <time>2019-06-20T12:38:41Z</time>
      </trkpt>
      <trkpt lat="42.903741588816047" lon="13.287226762622595">
        <ele>1630.6199999999999</ele>
        <time>2019-06-20T12:38:47Z</time>
      </trkpt>
      <trkpt lat="42.903897995129228" lon="13.287436980754137">
        <ele>1628.3099999999999</ele>
        <time>2019-06-20T12:39:05Z</time>
      </trkpt>
      <trkpt lat="42.904056329280138" lon="13.287627249956131">
        <ele>1626.24</ele>
        <time>2019-06-20T12:39:23Z</time>
      </trkpt>
      <trkpt lat="42.904248023405671" lon="13.287829421460629">
        <ele>1623.4300000000001</ele>
        <time>2019-06-20T12:39:43Z</time>
      </trkpt>
      <trkpt lat="42.904424462467432" lon="13.287989180535078">
        <ele>1620.79</ele>
        <time>2019-06-20T12:40:01Z</time>
      </trkpt>
      <trkpt lat="42.904620263725519" lon="13.288117675110698">
        <ele>1618.3499999999999</ele>
        <time>2019-06-20T12:40:19Z</time>
      </trkpt>
      <trkpt lat="42.904800390824676" lon="13.288231501355767">
        <ele>1615.8699999999999</ele>
        <time>2019-06-20T12:40:36Z</time>
      </trkpt>
      <trkpt lat="42.904886305332184" lon="13.288285564631224">
        <ele>1614.5699999999999</ele>
        <time>2019-06-20T12:40:44Z</time>
      </trkpt>
      <trkpt lat="42.90493056178093" lon="13.288305932655931">
        <ele>1614.54</ele>
        <time>2019-06-20T12:40:48Z</time>
      </trkpt>
      <trkpt lat="42.90510892868042" lon="13.288424955680966">
        <ele>1611.9400000000001</ele>
        <time>2019-06-20T12:41:05Z</time>
      </trkpt>
      <trkpt lat="42.905281009152532" lon="13.288568705320358">
        <ele>1609.5799999999999</ele>
        <time>2019-06-20T12:41:22Z</time>
      </trkpt>
      <trkpt lat="42.905442109331489" lon="13.288700049743056">
        <ele>1607.49</ele>
        <time>2019-06-20T12:41:38Z</time>
      </trkpt>
      <trkpt lat="42.905470104888082" lon="13.288731649518013">
        <ele>1607.02</ele>
        <time>2019-06-20T12:41:43Z</time>
      </trkpt>
      <trkpt lat="42.905503464862704" lon="13.288743300363421">
        <ele>1606.5</ele>
        <time>2019-06-20T12:41:57Z</time>
      </trkpt>
      <trkpt lat="42.905506733804941" lon="13.288761908188462">
        <ele>1606.3399999999999</ele>
        <time>2019-06-20T12:42:19Z</time>
      </trkpt>
      <trkpt lat="42.905655428767204" lon="13.288937928155065">
        <ele>1603.6099999999999</ele>
        <time>2019-06-20T12:42:36Z</time>
      </trkpt>
      <trkpt lat="42.905778475105762" lon="13.289088970050216">
        <ele>1601.55</ele>
        <time>2019-06-20T12:42:50Z</time>
      </trkpt>
      <trkpt lat="42.905939323827624" lon="13.289284352213144">
        <ele>1599.27</ele>
        <time>2019-06-20T12:43:08Z</time>
      </trkpt>
      <trkpt lat="42.906116936355829" lon="13.289477806538343">
        <ele>1596.51</ele>
        <time>2019-06-20T12:43:27Z</time>
      </trkpt>
      <trkpt lat="42.906262613832951" lon="13.289632201194763">
        <ele>1594.75</ele>
        <time>2019-06-20T12:43:42Z</time>
      </trkpt>
      <trkpt lat="42.906429581344128" lon="13.289789278060198">
        <ele>1592.6800000000001</ele>
        <time>2019-06-20T12:43:59Z</time>
      </trkpt>
      <trkpt lat="42.906636446714401" lon="13.28995113261044">
        <ele>1590.1700000000001</ele>
        <time>2019-06-20T12:44:18Z</time>
      </trkpt>
      <trkpt lat="42.90683769620955" lon="13.290092116221786">
        <ele>1588.28</ele>
        <time>2019-06-20T12:44:36Z</time>
      </trkpt>
      <trkpt lat="42.90703852660954" lon="13.290218599140644">
        <ele>1585.9200000000001</ele>
        <time>2019-06-20T12:44:54Z</time>
      </trkpt>
      <trkpt lat="42.907246900722384" lon="13.290328653529286">
        <ele>1583.8299999999999</ele>
        <time>2019-06-20T12:45:13Z</time>
      </trkpt>
      <trkpt lat="42.907465668395162" lon="13.290488915517926">
        <ele>1581.7</ele>
        <time>2019-06-20T12:45:33Z</time>
      </trkpt>
      <trkpt lat="42.907644454389811" lon="13.290604837238789">
        <ele>1580.3800000000001</ele>
        <time>2019-06-20T12:45:49Z</time>
      </trkpt>
      <trkpt lat="42.907887445762753" lon="13.290639370679855">
        <ele>1579.03</ele>
        <time>2019-06-20T12:46:09Z</time>
      </trkpt>
      <trkpt lat="42.908021388575435" lon="13.290648087859154">
        <ele>1578.02</ele>
        <time>2019-06-20T12:46:20Z</time>
      </trkpt>
      <trkpt lat="42.908067740499973" lon="13.290650518611073">
        <ele>1577.26</ele>
        <time>2019-06-20T12:46:24Z</time>
      </trkpt>
      <trkpt lat="42.908234456554055" lon="13.290673736482859">
        <ele>1576.45</ele>
        <time>2019-06-20T12:46:38Z</time>
      </trkpt>
      <trkpt lat="42.908348953351378" lon="13.290703576058149">
        <ele>1575.27</ele>
        <time>2019-06-20T12:46:47Z</time>
      </trkpt>
      <trkpt lat="42.908552968874574" lon="13.29080231487751">
        <ele>1573.9400000000001</ele>
        <time>2019-06-20T12:47:05Z</time>
      </trkpt>
      <trkpt lat="42.908583143725991" lon="13.290854366496205">
        <ele>1573.8499999999999</ele>
        <time>2019-06-20T12:47:09Z</time>
      </trkpt>
      <trkpt lat="42.908480046316981" lon="13.290981352329254">
        <ele>1573.3900000000001</ele>
        <time>2019-06-20T12:47:21Z</time>
      </trkpt>
      <trkpt lat="42.908363454043865" lon="13.290985291823745">
        <ele>1572.8499999999999</ele>
        <time>2019-06-20T12:47:35Z</time>
      </trkpt>
      <trkpt lat="42.908357754349709" lon="13.290984621271491">
        <ele>1572.75</ele>
        <time>2019-06-20T12:47:36Z</time>
      </trkpt>
      <trkpt lat="42.908335793763399" lon="13.290975652635098">
        <ele>1572.01</ele>
        <time>2019-06-20T12:47:38Z</time>
      </trkpt>
      <trkpt lat="42.908145943656564" lon="13.290967270731926">
        <ele>1569.8</ele>
        <time>2019-06-20T12:47:55Z</time>
      </trkpt>
      <trkpt lat="42.908092299476266" lon="13.291019825264812">
        <ele>1566.55</ele>
        <time>2019-06-20T12:48:06Z</time>
      </trkpt>
      <trkpt lat="42.908022897318006" lon="13.291058214381337">
        <ele>1562.9100000000001</ele>
        <time>2019-06-20T12:48:17Z</time>
      </trkpt>
      <trkpt lat="42.908002864569426" lon="13.291093586012721">
        <ele>1561.8199999999999</ele>
        <time>2019-06-20T12:48:24Z</time>
      </trkpt>
      <trkpt lat="42.907953076064587" lon="13.291113032028079">
        <ele>1560.3499999999999</ele>
        <time>2019-06-20T12:48:29Z</time>
      </trkpt>
      <trkpt lat="42.907909657806158" lon="13.291119234636426">
        <ele>1559.6199999999999</ele>
        <time>2019-06-20T12:48:39Z</time>
      </trkpt>
      <trkpt lat="42.907913848757744" lon="13.291115881875157">
        <ele>1558.7</ele>
        <time>2019-06-20T12:48:51Z</time>
      </trkpt>
      <trkpt lat="42.907901611179113" lon="13.291110433638096">
        <ele>1559.0699999999999</ele>
        <time>2019-06-20T12:49:25Z</time>
      </trkpt>
      <trkpt lat="42.907869592308998" lon="13.291116133332253">
        <ele>1559.0899999999999</ele>
        <time>2019-06-20T12:49:35Z</time>
      </trkpt>
      <trkpt lat="42.907814690843225" lon="13.291190061718225">
        <ele>1556.3800000000001</ele>
        <time>2019-06-20T12:49:46Z</time>
      </trkpt>
      <trkpt lat="42.907756688073277" lon="13.291214620694518">
        <ele>1553.49</ele>
        <time>2019-06-20T12:49:56Z</time>
      </trkpt>
      <trkpt lat="42.907714694738388" lon="13.291236916556954">
        <ele>1551.8399999999999</ele>
        <time>2019-06-20T12:50:01Z</time>
      </trkpt>
      <trkpt lat="42.90770597755909" lon="13.291241023689508">
        <ele>1551.7</ele>
        <time>2019-06-20T12:50:02Z</time>
      </trkpt>
      <trkpt lat="42.907665492966771" lon="13.291263990104198">
        <ele>1550.2</ele>
        <time>2019-06-20T12:50:06Z</time>
      </trkpt>
      <trkpt lat="42.907649064436555" lon="13.291369266808033">
        <ele>1549.3299999999999</ele>
        <time>2019-06-20T12:50:15Z</time>
      </trkpt>
      <trkpt lat="42.907661134377122" lon="13.291489714756608">
        <ele>1548.24</ele>
        <time>2019-06-20T12:50:26Z</time>
      </trkpt>
      <trkpt lat="42.907665409147739" lon="13.29150103032589">
        <ele>1548.3</ele>
        <time>2019-06-20T12:50:27Z</time>
      </trkpt>
      <trkpt lat="42.907715532928705" lon="13.291540341451764">
        <ele>1548.02</ele>
        <time>2019-06-20T12:50:32Z</time>
      </trkpt>
      <trkpt lat="42.907852157950401" lon="13.291650144383311">
        <ele>1545.9400000000001</ele>
        <time>2019-06-20T12:50:48Z</time>
      </trkpt>
      <trkpt lat="42.907950477674603" lon="13.291712338104844">
        <ele>1542.7</ele>
        <time>2019-06-20T12:51:01Z</time>
      </trkpt>
      <trkpt lat="42.907946957275271" lon="13.291752571240067">
        <ele>1540.8299999999999</ele>
        <time>2019-06-20T12:51:09Z</time>
      </trkpt>
      <trkpt lat="42.907950980588794" lon="13.291761372238398">
        <ele>1540.6500000000001</ele>
        <time>2019-06-20T12:51:10Z</time>
      </trkpt>
      <trkpt lat="42.908002696931362" lon="13.291898583993316">
        <ele>1537.5799999999999</ele>
        <time>2019-06-20T12:51:23Z</time>
      </trkpt>
      <trkpt lat="42.907993476837873" lon="13.291991371661425">
        <ele>1536.5799999999999</ele>
        <time>2019-06-20T12:51:30Z</time>
      </trkpt>
      <trkpt lat="42.908133370801806" lon="13.292116764932871">
        <ele>1533.8800000000001</ele>
        <time>2019-06-20T12:51:47Z</time>
      </trkpt>
      <trkpt lat="42.908139489591122" lon="13.292114920914173">
        <ele>1533.0899999999999</ele>
        <time>2019-06-20T12:51:58Z</time>
      </trkpt>
      <trkpt lat="42.908123731613159" lon="13.292122799903154">
        <ele>1533.7</ele>
        <time>2019-06-20T12:52:16Z</time>
      </trkpt>
      <trkpt lat="42.908111410215497" lon="13.292130595073104">
        <ele>1533.24</ele>
        <time>2019-06-20T12:52:45Z</time>
      </trkpt>
      <trkpt lat="42.908124821260571" lon="13.292138976976275">
        <ele>1533.1900000000001</ele>
        <time>2019-06-20T12:53:01Z</time>
      </trkpt>
      <trkpt lat="42.908129766583443" lon="13.292137384414673">
        <ele>1533.6800000000001</ele>
        <time>2019-06-20T12:53:17Z</time>
      </trkpt>
    </trkseg>
  </trk>

  <trk>
    <name>monte-vettore2019-06-18</name>
    <extensions>
      <gpxx:TrackExtension>
        <gpxx:DisplayColor>Yellow</gpxx:DisplayColor>
      </gpxx:TrackExtension>
      <gpxtrkx:TrackStatsExtension xmlns:gpxtrkx="http://www.garmin.com/xmlschemas/TrackStatsExtension/v1">
        <gpxtrkx:Distance>10308</gpxtrkx:Distance>
        <gpxtrkx:TotalElapsedTime>18977</gpxtrkx:TotalElapsedTime>
        <gpxtrkx:MovingTime>11940</gpxtrkx:MovingTime>
        <gpxtrkx:StoppedTime>7030</gpxtrkx:StoppedTime>
        <gpxtrkx:MovingSpeed>1</gpxtrkx:MovingSpeed>
        <gpxtrkx:MaxSpeed>2</gpxtrkx:MaxSpeed>
        <gpxtrkx:MaxElevation>2474</gpxtrkx:MaxElevation>
        <gpxtrkx:MinElevation>1535</gpxtrkx:MinElevation>
        <gpxtrkx:Ascent>951</gpxtrkx:Ascent>
        <gpxtrkx:Descent>941</gpxtrkx:Descent>
        <gpxtrkx:AvgAscentRate>0</gpxtrkx:AvgAscentRate>
        <gpxtrkx:MaxAscentRate>0</gpxtrkx:MaxAscentRate>
        <gpxtrkx:AvgDescentRate>0</gpxtrkx:AvgDescentRate>
        <gpxtrkx:MaxDescentRate>-0</gpxtrkx:MaxDescentRate>
      </gpxtrkx:TrackStatsExtension>
    </extensions>
    <trkseg>
      <trkpt lat="42.790024392306805" lon="13.260590834543109">
        <ele>1536.3900000000001</ele>
        <time>2019-06-18T07:57:54Z</time>
      </trkpt>
      <trkpt lat="42.790041826665401" lon="13.260569125413895">
        <ele>1535.78</ele>
        <time>2019-06-18T07:58:23Z</time>
      </trkpt>
      <trkpt lat="42.79003637842834" lon="13.260565102100372">
        <ele>1535.74</ele>
        <time>2019-06-18T07:58:39Z</time>
      </trkpt>
      <trkpt lat="42.790030343458056" lon="13.260567029938102">
        <ele>1535.53</ele>
        <time>2019-06-18T07:58:58Z</time>
      </trkpt>
      <trkpt lat="42.790040317922831" lon="13.260566610842943">
        <ele>1535.6700000000001</ele>
        <time>2019-06-18T07:59:11Z</time>
      </trkpt>
      <trkpt lat="42.79003981500864" lon="13.260562252253294">
        <ele>1535.78</ele>
        <time>2019-06-18T07:59:28Z</time>
      </trkpt>
      <trkpt lat="42.790044257417321" lon="13.260555630549788">
        <ele>1535.51</ele>
        <time>2019-06-18T08:00:01Z</time>
      </trkpt>
      <trkpt lat="42.790047358721495" lon="13.260556552559137">
        <ele>1535.7</ele>
        <time>2019-06-18T08:00:25Z</time>
      </trkpt>
      <trkpt lat="42.790050208568573" lon="13.260559653863311">
        <ele>1535.73</ele>
        <time>2019-06-18T08:00:44Z</time>
      </trkpt>
      <trkpt lat="42.790051298215985" lon="13.260567700490355">
        <ele>1536.4400000000001</ele>
        <time>2019-06-18T08:01:17Z</time>
      </trkpt>
      <trkpt lat="42.790049957111478" lon="13.260571220889688">
        <ele>1536.3</ele>
        <time>2019-06-18T08:01:44Z</time>
      </trkpt>
      <trkpt lat="42.790046185255051" lon="13.260565269738436">
        <ele>1536.45</ele>
        <time>2019-06-18T08:02:04Z</time>
      </trkpt>
      <trkpt lat="42.790046688169241" lon="13.260560240596533">
        <ele>1536.51</ele>
        <time>2019-06-18T08:02:18Z</time>
      </trkpt>
      <trkpt lat="42.790088094770908" lon="13.260593265295029">
        <ele>1537.4200000000001</ele>
        <time>2019-06-18T08:02:29Z</time>
      </trkpt>
      <trkpt lat="42.790175434201956" lon="13.260616734623909">
        <ele>1540.48</ele>
        <time>2019-06-18T08:02:44Z</time>
      </trkpt>
      <trkpt lat="42.790278112515807" lon="13.26065487228334">
        <ele>1542.71</ele>
        <time>2019-06-18T08:02:59Z</time>
      </trkpt>
      <trkpt lat="42.790391435846686" lon="13.260622853413224">
        <ele>1544.79</ele>
        <time>2019-06-18T08:03:16Z</time>
      </trkpt>
      <trkpt lat="42.790511716157198" lon="13.260499555617571">
        <ele>1546.96</ele>
        <time>2019-06-18T08:03:35Z</time>
      </trkpt>
      <trkpt lat="42.790622524917126" lon="13.26038614846766">
        <ele>1549.8900000000001</ele>
        <time>2019-06-18T08:03:54Z</time>
      </trkpt>
      <trkpt lat="42.790724113583565" lon="13.260253462940454">
        <ele>1552.8099999999999</ele>
        <time>2019-06-18T08:04:14Z</time>
      </trkpt>
      <trkpt lat="42.790791252627969" lon="13.2601198554039">
        <ele>1555.4100000000001</ele>
        <time>2019-06-18T08:04:30Z</time>
      </trkpt>
      <trkpt lat="42.790854284539819" lon="13.25999672524631">
        <ele>1557.1700000000001</ele>
        <time>2019-06-18T08:04:44Z</time>
      </trkpt>
      <trkpt lat="42.790931481868029" lon="13.259880216792226">
        <ele>1559.29</ele>
        <time>2019-06-18T08:05:00Z</time>
      </trkpt>
      <trkpt lat="42.791012870147824" lon="13.259761445224285">
        <ele>1561.4100000000001</ele>
        <time>2019-06-18T08:05:16Z</time>
      </trkpt>
      <trkpt lat="42.791101466864347" lon="13.259640578180552">
        <ele>1563.2</ele>
        <time>2019-06-18T08:05:31Z</time>
      </trkpt>
      <trkpt lat="42.791186459362507" lon="13.25952960178256">
        <ele>1565.1099999999999</ele>
        <time>2019-06-18T08:05:48Z</time>
      </trkpt>
      <trkpt lat="42.791290143504739" lon="13.259439496323466">
        <ele>1568.0899999999999</ele>
        <time>2019-06-18T08:06:06Z</time>
      </trkpt>
      <trkpt lat="42.791385613381863" lon="13.259374955669045">
        <ele>1571.02</ele>
        <time>2019-06-18T08:06:22Z</time>
      </trkpt>
      <trkpt lat="42.791486699134111" lon="13.259315276518464">
        <ele>1573.8299999999999</ele>
        <time>2019-06-18T08:06:39Z</time>
      </trkpt>
      <trkpt lat="42.791579822078347" lon="13.259270852431655">
        <ele>1576.72</ele>
        <time>2019-06-18T08:06:55Z</time>
      </trkpt>
      <trkpt lat="42.791676046326756" lon="13.25924570672214">
        <ele>1578.8800000000001</ele>
        <time>2019-06-18T08:07:11Z</time>
      </trkpt>
      <trkpt lat="42.791740586981177" lon="13.259215028956532">
        <ele>1580.99</ele>
        <time>2019-06-18T08:07:23Z</time>
      </trkpt>
      <trkpt lat="42.791843684390187" lon="13.259174292907119">
        <ele>1582.8599999999999</ele>
        <time>2019-06-18T08:07:38Z</time>
      </trkpt>
      <trkpt lat="42.791948290541768" lon="13.259171107783914">
        <ele>1584.9300000000001</ele>
        <time>2019-06-18T08:07:54Z</time>
      </trkpt>
      <trkpt lat="42.792054153978825" lon="13.259190805256367">
        <ele>1587.0599999999999</ele>
        <time>2019-06-18T08:08:08Z</time>
      </trkpt>
      <trkpt lat="42.792080724611878" lon="13.259184854105115">
        <ele>1587.21</ele>
        <time>2019-06-18T08:08:11Z</time>
      </trkpt>
      <trkpt lat="42.79212087392807" lon="13.25916750356555">
        <ele>1587.52</ele>
        <time>2019-06-18T08:08:26Z</time>
      </trkpt>
      <trkpt lat="42.79217166826129" lon="13.25920857489109">
        <ele>1588.46</ele>
        <time>2019-06-18T08:08:43Z</time>
      </trkpt>
      <trkpt lat="42.792253978550434" lon="13.259312091395259">
        <ele>1590.4200000000001</ele>
        <time>2019-06-18T08:08:58Z</time>
      </trkpt>
      <trkpt lat="42.792374761775136" lon="13.259354503825307">
        <ele>1592.95</ele>
        <time>2019-06-18T08:09:16Z</time>
      </trkpt>
      <trkpt lat="42.792365793138742" lon="13.259382247924805">
        <ele>1592.6099999999999</ele>
        <time>2019-06-18T08:09:26Z</time>
      </trkpt>
      <trkpt lat="42.792376773431897" lon="13.25937076471746">
        <ele>1593.5899999999999</ele>
        <time>2019-06-18T08:09:37Z</time>
      </trkpt>
      <trkpt lat="42.792420610785484" lon="13.259327011182904">
        <ele>1594.25</ele>
        <time>2019-06-18T08:09:49Z</time>
      </trkpt>
      <trkpt lat="42.792507195845246" lon="13.259290549904108">
        <ele>1595.99</ele>
        <time>2019-06-18T08:10:01Z</time>
      </trkpt>
      <trkpt lat="42.792602581903338" lon="13.259204551577568">
        <ele>1599.0699999999999</ele>
        <time>2019-06-18T08:10:16Z</time>
      </trkpt>
      <trkpt lat="42.792664188891649" lon="13.259184267371893">
        <ele>1600.53</ele>
        <time>2019-06-18T08:10:30Z</time>
      </trkpt>
      <trkpt lat="42.792683383449912" lon="13.259168677031994">
        <ele>1601.3099999999999</ele>
        <time>2019-06-18T08:10:47Z</time>
      </trkpt>
      <trkpt lat="42.792791426181793" lon="13.259114613756537">
        <ele>1604.4400000000001</ele>
        <time>2019-06-18T08:11:04Z</time>
      </trkpt>
      <trkpt lat="42.792892092838883" lon="13.259079828858376">
        <ele>1607.55</ele>
        <time>2019-06-18T08:11:21Z</time>
      </trkpt>
      <trkpt lat="42.792975995689631" lon="13.259026939049363">
        <ele>1610.55</ele>
        <time>2019-06-18T08:11:36Z</time>
      </trkpt>
      <trkpt lat="42.793043805286288" lon="13.258965415880084">
        <ele>1612.8699999999999</ele>
        <time>2019-06-18T08:11:50Z</time>
      </trkpt>
      <trkpt lat="42.793129719793797" lon="13.258909257128835">
        <ele>1615.1700000000001</ele>
        <time>2019-06-18T08:12:07Z</time>
      </trkpt>
      <trkpt lat="42.793208761140704" lon="13.258883357048035">
        <ele>1617.6199999999999</ele>
        <time>2019-06-18T08:12:23Z</time>
      </trkpt>
      <trkpt lat="42.793275732547045" lon="13.258882854133844">
        <ele>1619.8800000000001</ele>
        <time>2019-06-18T08:12:39Z</time>
      </trkpt>
      <trkpt lat="42.793283108621836" lon="13.258876986801624">
        <ele>1620.0999999999999</ele>
        <time>2019-06-18T08:12:58Z</time>
      </trkpt>
      <trkpt lat="42.793343374505639" lon="13.258834322914481">
        <ele>1622.28</ele>
        <time>2019-06-18T08:13:12Z</time>
      </trkpt>
      <trkpt lat="42.79342015273869" lon="13.258822923526168">
        <ele>1624.97</ele>
        <time>2019-06-18T08:13:27Z</time>
      </trkpt>
      <trkpt lat="42.79350321739912" lon="13.258796352893114">
        <ele>1627.97</ele>
        <time>2019-06-18T08:13:44Z</time>
      </trkpt>
      <trkpt lat="42.793596172705293" lon="13.25875804759562">
        <ele>1631.0699999999999</ele>
        <time>2019-06-18T08:14:02Z</time>
      </trkpt>
      <trkpt lat="42.793677058070898" lon="13.25873700901866">
        <ele>1633.8299999999999</ele>
        <time>2019-06-18T08:14:18Z</time>
      </trkpt>
      <trkpt lat="42.79375190846622" lon="13.258716473355889">
        <ele>1636.5899999999999</ele>
        <time>2019-06-18T08:14:33Z</time>
      </trkpt>
      <trkpt lat="42.793824831023812" lon="13.258698619902134">
        <ele>1639.29</ele>
        <time>2019-06-18T08:14:48Z</time>
      </trkpt>
      <trkpt lat="42.793902112171054" lon="13.258685627952218">
        <ele>1642.1500000000001</ele>
        <time>2019-06-18T08:15:03Z</time>
      </trkpt>
      <trkpt lat="42.793974280357361" lon="13.258637934923172">
        <ele>1644.76</ele>
        <time>2019-06-18T08:15:18Z</time>
      </trkpt>
      <trkpt lat="42.794044520705938" lon="13.258607676252723">
        <ele>1647.95</ele>
        <time>2019-06-18T08:15:31Z</time>
      </trkpt>
      <trkpt lat="42.794131608679891" lon="13.258583787828684">
        <ele>1648.9200000000001</ele>
        <time>2019-06-18T08:15:46Z</time>
      </trkpt>
      <trkpt lat="42.794215008616447" lon="13.25855134986341">
        <ele>1651.2</ele>
        <time>2019-06-18T08:16:01Z</time>
      </trkpt>
      <trkpt lat="42.794231604784727" lon="13.258611531928182">
        <ele>1652.76</ele>
        <time>2019-06-18T08:16:11Z</time>
      </trkpt>
      <trkpt lat="42.794191790744662" lon="13.258736087009311">
        <ele>1655.6099999999999</ele>
        <time>2019-06-18T08:16:28Z</time>
      </trkpt>
      <trkpt lat="42.79424300417304" lon="13.258777493610978">
        <ele>1657.74</ele>
        <time>2019-06-18T08:16:40Z</time>
      </trkpt>
      <trkpt lat="42.794329756870866" lon="13.25870675034821">
        <ele>1659.3199999999999</ele>
        <time>2019-06-18T08:16:56Z</time>
      </trkpt>
      <trkpt lat="42.794432938098907" lon="13.258715467527509">
        <ele>1661.71</ele>
        <time>2019-06-18T08:17:15Z</time>
      </trkpt>
      <trkpt lat="42.794537208974361" lon="13.258652100339532">
        <ele>1664.8299999999999</ele>
        <time>2019-06-18T08:17:30Z</time>
      </trkpt>
      <trkpt lat="42.794637540355325" lon="13.258588397875428">
        <ele>1666.5899999999999</ele>
        <time>2019-06-18T08:17:45Z</time>
      </trkpt>
      <trkpt lat="42.794748600572348" lon="13.258527796715498">
        <ele>1668.75</ele>
        <time>2019-06-18T08:18:01Z</time>
      </trkpt>
      <trkpt lat="42.794869299978018" lon="13.258476667106152">
        <ele>1670.73</ele>
        <time>2019-06-18T08:18:18Z</time>
      </trkpt>
      <trkpt lat="42.794978599995375" lon="13.258464094251394">
        <ele>1673.8299999999999</ele>
        <time>2019-06-18T08:18:34Z</time>
      </trkpt>
      <trkpt lat="42.79509318061173" lon="13.258463172242045">
        <ele>1676.04</ele>
        <time>2019-06-18T08:18:51Z</time>
      </trkpt>
      <trkpt lat="42.79523097909987" lon="13.258472895249724">
        <ele>1679.1300000000001</ele>
        <time>2019-06-18T08:19:10Z</time>
      </trkpt>
      <trkpt lat="42.79533407650888" lon="13.258508518338203">
        <ele>1681.3900000000001</ele>
        <time>2019-06-18T08:19:23Z</time>
      </trkpt>
      <trkpt lat="42.795475060120225" lon="13.258589990437031">
        <ele>1682.02</ele>
        <time>2019-06-18T08:19:39Z</time>
      </trkpt>
      <trkpt lat="42.795578828081489" lon="13.258673222735524">
        <ele>1684.6400000000001</ele>
        <time>2019-06-18T08:19:51Z</time>
      </trkpt>
      <trkpt lat="42.795722829177976" lon="13.258772883564234">
        <ele>1685.48</ele>
        <time>2019-06-18T08:20:08Z</time>
      </trkpt>
      <trkpt lat="42.795879319310188" lon="13.258794089779258">
        <ele>1687.54</ele>
        <time>2019-06-18T08:20:25Z</time>
      </trkpt>
      <trkpt lat="42.796033713966608" lon="13.258819906041026">
        <ele>1690.03</ele>
        <time>2019-06-18T08:20:42Z</time>
      </trkpt>
      <trkpt lat="42.796181738376617" lon="13.258850416168571">
        <ele>1691.6099999999999</ele>
        <time>2019-06-18T08:20:58Z</time>
      </trkpt>
      <trkpt lat="42.796311322599649" lon="13.2588523440063">
        <ele>1693.0599999999999</ele>
        <time>2019-06-18T08:21:13Z</time>
      </trkpt>
      <trkpt lat="42.796470494940877" lon="13.258820660412312">
        <ele>1695.1199999999999</ele>
        <time>2019-06-18T08:21:29Z</time>
      </trkpt>
      <trkpt lat="42.796619106084108" lon="13.258790569379926">
        <ele>1696.8</ele>
        <time>2019-06-18T08:21:44Z</time>
      </trkpt>
      <trkpt lat="42.796763190999627" lon="13.258817810565233">
        <ele>1698.8900000000001</ele>
        <time>2019-06-18T08:22:00Z</time>
      </trkpt>
      <trkpt lat="42.79692848213017" lon="13.258879333734512">
        <ele>1700.5699999999999</ele>
        <time>2019-06-18T08:22:20Z</time>
      </trkpt>
      <trkpt lat="42.797076338902116" lon="13.25894177891314">
        <ele>1702.5999999999999</ele>
        <time>2019-06-18T08:22:37Z</time>
      </trkpt>
      <trkpt lat="42.797236936166883" lon="13.259021993726492">
        <ele>1703.98</ele>
        <time>2019-06-18T08:22:56Z</time>
      </trkpt>
      <trkpt lat="42.797379931434989" lon="13.259097263216972">
        <ele>1705.55</ele>
        <time>2019-06-18T08:23:12Z</time>
      </trkpt>
      <trkpt lat="42.797539355233312" lon="13.259119223803282">
        <ele>1707.2</ele>
        <time>2019-06-18T08:23:29Z</time>
      </trkpt>
      <trkpt lat="42.797590401023626" lon="13.259137580171227">
        <ele>1708.6900000000001</ele>
        <time>2019-06-18T08:23:41Z</time>
      </trkpt>
      <trkpt lat="42.797614959999919" lon="13.259140513837337">
        <ele>1708.2</ele>
        <time>2019-06-18T08:23:48Z</time>
      </trkpt>
      <trkpt lat="42.797633735463023" lon="13.259145291522145">
        <ele>1708.8599999999999</ele>
        <time>2019-06-18T08:23:50Z</time>
      </trkpt>
      <trkpt lat="42.797819981351495" lon="13.259258698672056">
        <ele>1711</ele>
        <time>2019-06-18T08:24:08Z</time>
      </trkpt>
      <trkpt lat="42.797932382673025" lon="13.259392390027642">
        <ele>1713.52</ele>
        <time>2019-06-18T08:24:23Z</time>
      </trkpt>
      <trkpt lat="42.798010502010584" lon="13.259479980915785">
        <ele>1715.6600000000001</ele>
        <time>2019-06-18T08:24:36Z</time>
      </trkpt>
      <trkpt lat="42.798140589147806" lon="13.259522309526801">
        <ele>1717.8399999999999</ele>
        <time>2019-06-18T08:24:53Z</time>
      </trkpt>
      <trkpt lat="42.798246871680021" lon="13.259438322857022">
        <ele>1719.6500000000001</ele>
        <time>2019-06-18T08:25:08Z</time>
      </trkpt>
      <trkpt lat="42.79833379201591" lon="13.25932240113616">
        <ele>1721.55</ele>
        <time>2019-06-18T08:25:23Z</time>
      </trkpt>
      <trkpt lat="42.798407301306725" lon="13.259225506335497">
        <ele>1724.5899999999999</ele>
        <time>2019-06-18T08:25:36Z</time>
      </trkpt>
      <trkpt lat="42.798490785062313" lon="13.259103884920478">
        <ele>1726.72</ele>
        <time>2019-06-18T08:25:52Z</time>
      </trkpt>
      <trkpt lat="42.798587093129754" lon="13.25899357907474">
        <ele>1728.76</ele>
        <time>2019-06-18T08:26:09Z</time>
      </trkpt>
      <trkpt lat="42.798676276579499" lon="13.258878579363227">
        <ele>1730.8800000000001</ele>
        <time>2019-06-18T08:26:25Z</time>
      </trkpt>
      <trkpt lat="42.798756826668978" lon="13.25880934484303">
        <ele>1733.26</ele>
        <time>2019-06-18T08:26:40Z</time>
      </trkpt>
      <trkpt lat="42.798835281282663" lon="13.258832478895783">
        <ele>1736.3599999999999</ele>
        <time>2019-06-18T08:26:56Z</time>
      </trkpt>
      <trkpt lat="42.798903677612543" lon="13.258876483887434">
        <ele>1738.4300000000001</ele>
        <time>2019-06-18T08:27:11Z</time>
      </trkpt>
      <trkpt lat="42.798920189961791" lon="13.25893834233284">
        <ele>1739.0699999999999</ele>
        <time>2019-06-18T08:27:24Z</time>
      </trkpt>
      <trkpt lat="42.798970229923725" lon="13.259081337600946">
        <ele>1741.1800000000001</ele>
        <time>2019-06-18T08:27:40Z</time>
      </trkpt>
      <trkpt lat="42.799030244350433" lon="13.259260961785913">
        <ele>1743.96</ele>
        <time>2019-06-18T08:27:57Z</time>
      </trkpt>
      <trkpt lat="42.799106184393167" lon="13.259447710588574">
        <ele>1747.0899999999999</ele>
        <time>2019-06-18T08:28:14Z</time>
      </trkpt>
      <trkpt lat="42.799168881028891" lon="13.259618114680052">
        <ele>1749.6300000000001</ele>
        <time>2019-06-18T08:28:30Z</time>
      </trkpt>
      <trkpt lat="42.799242474138737" lon="13.2597641274333">
        <ele>1750.8599999999999</ele>
        <time>2019-06-18T08:28:47Z</time>
      </trkpt>
      <trkpt lat="42.799295783042908" lon="13.259843001142144">
        <ele>1753.3</ele>
        <time>2019-06-18T08:28:57Z</time>
      </trkpt>
      <trkpt lat="42.799421595409513" lon="13.259893376380205">
        <ele>1754.72</ele>
        <time>2019-06-18T08:29:13Z</time>
      </trkpt>
      <trkpt lat="42.799465013667941" lon="13.259899159893394">
        <ele>1754.6600000000001</ele>
        <time>2019-06-18T08:29:18Z</time>
      </trkpt>
      <trkpt lat="42.7995949331671" lon="13.259908631443977">
        <ele>1754.8099999999999</ele>
        <time>2019-06-18T08:29:32Z</time>
      </trkpt>
      <trkpt lat="42.799729378893971" lon="13.259895723313093">
        <ele>1757.0699999999999</ele>
        <time>2019-06-18T08:29:47Z</time>
      </trkpt>
      <trkpt lat="42.799899615347385" lon="13.259852891787887">
        <ele>1759.9300000000001</ele>
        <time>2019-06-18T08:30:06Z</time>
      </trkpt>
      <trkpt lat="42.80005032196641" lon="13.259834283962846">
        <ele>1763.1500000000001</ele>
        <time>2019-06-18T08:30:24Z</time>
      </trkpt>
      <trkpt lat="42.800162807106972" lon="13.25984719209373">
        <ele>1766.54</ele>
        <time>2019-06-18T08:30:39Z</time>
      </trkpt>
      <trkpt lat="42.800266239792109" lon="13.259758008643985">
        <ele>1769.1900000000001</ele>
        <time>2019-06-18T08:30:56Z</time>
      </trkpt>
      <trkpt lat="42.80037185177207" lon="13.259669411927462">
        <ele>1770.99</ele>
        <time>2019-06-18T08:31:12Z</time>
      </trkpt>
      <trkpt lat="42.800466315820813" lon="13.259615264832973">
        <ele>1774.1400000000001</ele>
        <time>2019-06-18T08:31:27Z</time>
      </trkpt>
      <trkpt lat="42.800534376874566" lon="13.259508311748505">
        <ele>1777.3499999999999</ele>
        <time>2019-06-18T08:31:44Z</time>
      </trkpt>
      <trkpt lat="42.800632696598768" lon="13.259462881833315">
        <ele>1779.5599999999999</ele>
        <time>2019-06-18T08:31:59Z</time>
      </trkpt>
      <trkpt lat="42.800736045464873" lon="13.259402699768543">
        <ele>1782.8699999999999</ele>
        <time>2019-06-18T08:32:15Z</time>
      </trkpt>
      <trkpt lat="42.800807459279895" lon="13.259262973442674">
        <ele>1784.21</ele>
        <time>2019-06-18T08:32:31Z</time>
      </trkpt>
      <trkpt lat="42.800884740427136" lon="13.259134814143181">
        <ele>1786.98</ele>
        <time>2019-06-18T08:32:48Z</time>
      </trkpt>
      <trkpt lat="42.800948526710272" lon="13.259010091423988">
        <ele>1789.4400000000001</ele>
        <time>2019-06-18T08:33:05Z</time>
      </trkpt>
      <trkpt lat="42.80101491138339" lon="13.258910682052374">
        <ele>1791.8800000000001</ele>
        <time>2019-06-18T08:33:21Z</time>
      </trkpt>
      <trkpt lat="42.801069393754005" lon="13.258810853585601">
        <ele>1794.7</ele>
        <time>2019-06-18T08:33:37Z</time>
      </trkpt>
      <trkpt lat="42.801118260249496" lon="13.25873164460063">
        <ele>1795.4100000000001</ele>
        <time>2019-06-18T08:33:50Z</time>
      </trkpt>
      <trkpt lat="42.801136532798409" lon="13.2586779166013">
        <ele>1798.73</ele>
        <time>2019-06-18T08:33:58Z</time>
      </trkpt>
      <trkpt lat="42.801153799518943" lon="13.258650507777929">
        <ele>1799.22</ele>
        <time>2019-06-18T08:34:12Z</time>
      </trkpt>
      <trkpt lat="42.801236780360341" lon="13.258547326549888">
        <ele>1802.46</ele>
        <time>2019-06-18T08:34:28Z</time>
      </trkpt>
      <trkpt lat="42.80130953527987" lon="13.258428554981947">
        <ele>1805.0599999999999</ele>
        <time>2019-06-18T08:34:42Z</time>
      </trkpt>
      <trkpt lat="42.801398215815425" lon="13.258298970758915">
        <ele>1807.8399999999999</ele>
        <time>2019-06-18T08:34:58Z</time>
      </trkpt>
      <trkpt lat="42.801496954634786" lon="13.258225964382291">
        <ele>1810.4400000000001</ele>
        <time>2019-06-18T08:35:13Z</time>
      </trkpt>
      <trkpt lat="42.801606925204396" lon="13.258189838379622">
        <ele>1812.73</ele>
        <time>2019-06-18T08:35:29Z</time>
      </trkpt>
      <trkpt lat="42.801721002906561" lon="13.258178941905499">
        <ele>1815.73</ele>
        <time>2019-06-18T08:35:45Z</time>
      </trkpt>
      <trkpt lat="42.801818735897541" lon="13.258175421506166">
        <ele>1818.27</ele>
        <time>2019-06-18T08:35:59Z</time>
      </trkpt>
      <trkpt lat="42.801952846348286" lon="13.258160501718521">
        <ele>1821.3599999999999</ele>
        <time>2019-06-18T08:36:18Z</time>
      </trkpt>
      <trkpt lat="42.80206885188818" lon="13.25815605930984">
        <ele>1824.46</ele>
        <time>2019-06-18T08:36:36Z</time>
      </trkpt>
      <trkpt lat="42.802159041166306" lon="13.258159914985299">
        <ele>1826.51</ele>
        <time>2019-06-18T08:36:50Z</time>
      </trkpt>
      <trkpt lat="42.802243027836084" lon="13.258201740682125">
        <ele>1828.99</ele>
        <time>2019-06-18T08:37:06Z</time>
      </trkpt>
      <trkpt lat="42.802223414182663" lon="13.258329480886459">
        <ele>1831.0799999999999</ele>
        <time>2019-06-18T08:37:20Z</time>
      </trkpt>
      <trkpt lat="42.802198771387339" lon="13.258457388728857">
        <ele>1834.21</ele>
        <time>2019-06-18T08:37:37Z</time>
      </trkpt>
      <trkpt lat="42.802275801077485" lon="13.258478343486786">
        <ele>1835.6300000000001</ele>
        <time>2019-06-18T08:37:51Z</time>
      </trkpt>
      <trkpt lat="42.80237378552556" lon="13.258495442569256">
        <ele>1837.96</ele>
        <time>2019-06-18T08:38:06Z</time>
      </trkpt>
      <trkpt lat="42.80237277969718" lon="13.25862661935389">
        <ele>1839.8800000000001</ele>
        <time>2019-06-18T08:38:21Z</time>
      </trkpt>
      <trkpt lat="42.802359536290169" lon="13.258750420063734">
        <ele>1842.99</ele>
        <time>2019-06-18T08:38:36Z</time>
      </trkpt>
      <trkpt lat="42.802356937900186" lon="13.258877657353878">
        <ele>1845.2</ele>
        <time>2019-06-18T08:38:51Z</time>
      </trkpt>
      <trkpt lat="42.802390465512872" lon="13.258993495255709">
        <ele>1847.9100000000001</ele>
        <time>2019-06-18T08:39:05Z</time>
      </trkpt>
      <trkpt lat="42.802432794123888" lon="13.259104639291763">
        <ele>1848.8</ele>
        <time>2019-06-18T08:39:20Z</time>
      </trkpt>
      <trkpt lat="42.802423154935241" lon="13.259189883247018">
        <ele>1850.9300000000001</ele>
        <time>2019-06-18T08:39:33Z</time>
      </trkpt>
      <trkpt lat="42.802434386685491" lon="13.259192565456033">
        <ele>1849.77</ele>
        <time>2019-06-18T08:39:47Z</time>
      </trkpt>
      <trkpt lat="42.802438829094172" lon="13.259191643446684">
        <ele>1849.6400000000001</ele>
        <time>2019-06-18T08:40:14Z</time>
      </trkpt>
      <trkpt lat="42.802438912913203" lon="13.259196924045682">
        <ele>1849.48</ele>
        <time>2019-06-18T08:40:45Z</time>
      </trkpt>
      <trkpt lat="42.802439834922552" lon="13.259202875196934">
        <ele>1850.1700000000001</ele>
        <time>2019-06-18T08:41:36Z</time>
      </trkpt>
      <trkpt lat="42.802445283159614" lon="13.259210251271725">
        <ele>1850.4000000000001</ele>
        <time>2019-06-18T08:42:31Z</time>
      </trkpt>
      <trkpt lat="42.802455089986324" lon="13.259204216301441">
        <ele>1850.5699999999999</ele>
        <time>2019-06-18T08:43:24Z</time>
      </trkpt>
      <trkpt lat="42.80245391651988" lon="13.259205222129822">
        <ele>1850.72</ele>
        <time>2019-06-18T08:44:14Z</time>
      </trkpt>
      <trkpt lat="42.802462968975306" lon="13.259206814691424">
        <ele>1851.25</ele>
        <time>2019-06-18T08:44:58Z</time>
      </trkpt>
      <trkpt lat="42.802463807165623" lon="13.259204719215631">
        <ele>1852.5599999999999</ele>
        <time>2019-06-18T08:45:44Z</time>
      </trkpt>
      <trkpt lat="42.802461292594671" lon="13.259209832176566">
        <ele>1852.24</ele>
        <time>2019-06-18T08:46:49Z</time>
      </trkpt>
      <trkpt lat="42.802458442747593" lon="13.259208993986249">
        <ele>1851.9100000000001</ele>
        <time>2019-06-18T08:47:39Z</time>
      </trkpt>
      <trkpt lat="42.802458107471466" lon="13.259203964844346">
        <ele>1851.8199999999999</ele>
        <time>2019-06-18T08:48:26Z</time>
      </trkpt>
      <trkpt lat="42.802450144663453" lon="13.259203126654029">
        <ele>1852.5</ele>
        <time>2019-06-18T08:49:18Z</time>
      </trkpt>
      <trkpt lat="42.802437823265791" lon="13.259193152189255">
        <ele>1853.51</ele>
        <time>2019-06-18T08:49:31Z</time>
      </trkpt>
      <trkpt lat="42.802434302866459" lon="13.259185273200274">
        <ele>1853.6300000000001</ele>
        <time>2019-06-18T08:49:45Z</time>
      </trkpt>
      <trkpt lat="42.802433632314205" lon="13.259184015914798">
        <ele>1853.76</ele>
        <time>2019-06-18T08:49:59Z</time>
      </trkpt>
      <trkpt lat="42.802433967590332" lon="13.259186614304781">
        <ele>1854.3699999999999</ele>
        <time>2019-06-18T08:50:17Z</time>
      </trkpt>
      <trkpt lat="42.80243975110352" lon="13.259189128875732">
        <ele>1853.78</ele>
        <time>2019-06-18T08:50:32Z</time>
      </trkpt>
      <trkpt lat="42.80243824236095" lon="13.259189296513796">
        <ele>1853.6400000000001</ele>
        <time>2019-06-18T08:50:57Z</time>
      </trkpt>
      <trkpt lat="42.802444277331233" lon="13.259197175502777">
        <ele>1853.03</ele>
        <time>2019-06-18T08:51:21Z</time>
      </trkpt>
      <trkpt lat="42.80244117602706" lon="13.259193068370223">
        <ele>1853.3900000000001</ele>
        <time>2019-06-18T08:51:44Z</time>
      </trkpt>
      <trkpt lat="42.802435392513871" lon="13.259189128875732">
        <ele>1853.1700000000001</ele>
        <time>2019-06-18T08:52:05Z</time>
      </trkpt>
      <trkpt lat="42.802431788295507" lon="13.259194660931826">
        <ele>1854.23</ele>
        <time>2019-06-18T08:52:16Z</time>
      </trkpt>
      <trkpt lat="42.80244117602706" lon="13.259203294292092">
        <ele>1855.27</ele>
        <time>2019-06-18T08:52:28Z</time>
      </trkpt>
      <trkpt lat="42.802446288987994" lon="13.259227098897099">
        <ele>1855.8099999999999</ele>
        <time>2019-06-18T08:52:39Z</time>
      </trkpt>
      <trkpt lat="42.802449138835073" lon="13.25922274030745">
        <ele>1854.96</ele>
        <time>2019-06-18T08:52:56Z</time>
      </trkpt>
      <trkpt lat="42.802449138835073" lon="13.259226679801941">
        <ele>1855.02</ele>
        <time>2019-06-18T08:53:15Z</time>
      </trkpt>
      <trkpt lat="42.80244461260736" lon="13.259222907945514">
        <ele>1854.98</ele>
        <time>2019-06-18T08:53:32Z</time>
      </trkpt>
      <trkpt lat="42.802446205168962" lon="13.259222907945514">
        <ele>1854.8</ele>
        <time>2019-06-18T08:53:48Z</time>
      </trkpt>
      <trkpt lat="42.80245341360569" lon="13.259225422516465">
        <ele>1854.3699999999999</ele>
        <time>2019-06-18T08:54:12Z</time>
      </trkpt>
      <trkpt lat="42.802450060844421" lon="13.259227769449353">
        <ele>1854.75</ele>
        <time>2019-06-18T08:54:38Z</time>
      </trkpt>
      <trkpt lat="42.802461376413703" lon="13.259223578497767">
        <ele>1854.76</ele>
        <time>2019-06-18T08:54:58Z</time>
      </trkpt>
      <trkpt lat="42.802514852955937" lon="13.259224584326148">
        <ele>1854.24</ele>
        <time>2019-06-18T08:55:12Z</time>
      </trkpt>
      <trkpt lat="42.802591798827052" lon="13.259296165779233">
        <ele>1856</ele>
        <time>2019-06-18T08:55:23Z</time>
      </trkpt>
      <trkpt lat="42.802698668092489" lon="13.259422900155187">
        <ele>1859.21</ele>
        <time>2019-06-18T08:55:40Z</time>
      </trkpt>
      <trkpt lat="42.802753150463104" lon="13.259541671723127">
        <ele>1861.1800000000001</ele>
        <time>2019-06-18T08:55:52Z</time>
      </trkpt>
      <trkpt lat="42.802868485450745" lon="13.25969472527504">
        <ele>1863.28</ele>
        <time>2019-06-18T08:56:10Z</time>
      </trkpt>
      <trkpt lat="42.802974516525865" lon="13.259797906503081">
        <ele>1865.21</ele>
        <time>2019-06-18T08:56:24Z</time>
      </trkpt>
      <trkpt lat="42.803053222596645" lon="13.259905027225614">
        <ele>1866.52</ele>
        <time>2019-06-18T08:56:36Z</time>
      </trkpt>
      <trkpt lat="42.803157325834036" lon="13.260088842362165">
        <ele>1867.8299999999999</ele>
        <time>2019-06-18T08:56:54Z</time>
      </trkpt>
      <trkpt lat="42.803187500685453" lon="13.260148772969842">
        <ele>1868.72</ele>
        <time>2019-06-18T08:57:00Z</time>
      </trkpt>
      <trkpt lat="42.803253550082445" lon="13.26023661531508">
        <ele>1869.4200000000001</ele>
        <time>2019-06-18T08:57:11Z</time>
      </trkpt>
      <trkpt lat="42.80333393253386" lon="13.260399727150798">
        <ele>1871.76</ele>
        <time>2019-06-18T08:57:28Z</time>
      </trkpt>
      <trkpt lat="42.803410207852721" lon="13.26053224503994">
        <ele>1873.55</ele>
        <time>2019-06-18T08:57:44Z</time>
      </trkpt>
      <trkpt lat="42.803515819832683" lon="13.260665517300367">
        <ele>1875.3800000000001</ele>
        <time>2019-06-18T08:58:01Z</time>
      </trkpt>
      <trkpt lat="42.803639452904463" lon="13.260779930278659">
        <ele>1877.6800000000001</ele>
        <time>2019-06-18T08:58:18Z</time>
      </trkpt>
      <trkpt lat="42.803783873096108" lon="13.260897360742092">
        <ele>1879.52</ele>
        <time>2019-06-18T08:58:36Z</time>
      </trkpt>
      <trkpt lat="42.803923850879073" lon="13.261011941358447">
        <ele>1881.22</ele>
        <time>2019-06-18T08:58:52Z</time>
      </trkpt>
      <trkpt lat="42.804083609953523" lon="13.261116463690996">
        <ele>1883.4200000000001</ele>
        <time>2019-06-18T08:59:10Z</time>
      </trkpt>
      <trkpt lat="42.804233394563198" lon="13.261162647977471">
        <ele>1884.5899999999999</ele>
        <time>2019-06-18T08:59:26Z</time>
      </trkpt>
      <trkpt lat="42.804402457550168" lon="13.261221908032894">
        <ele>1885.96</ele>
        <time>2019-06-18T08:59:44Z</time>
      </trkpt>
      <trkpt lat="42.804550146684051" lon="13.261285023763776">
        <ele>1887.71</ele>
        <time>2019-06-18T09:00:00Z</time>
      </trkpt>
      <trkpt lat="42.804701020941138" lon="13.261371944099665">
        <ele>1889.8900000000001</ele>
        <time>2019-06-18T09:00:17Z</time>
      </trkpt>
      <trkpt lat="42.804859271273017" lon="13.261447213590145">
        <ele>1890.8499999999999</ele>
        <time>2019-06-18T09:00:34Z</time>
      </trkpt>
      <trkpt lat="42.805008888244629" lon="13.261531619355083">
        <ele>1892.55</ele>
        <time>2019-06-18T09:00:51Z</time>
      </trkpt>
      <trkpt lat="42.80514576472342" lon="13.261642763391137">
        <ele>1894.4300000000001</ele>
        <time>2019-06-18T09:01:08Z</time>
      </trkpt>
      <trkpt lat="42.805283311754465" lon="13.261752314865589">
        <ele>1895.98</ele>
        <time>2019-06-18T09:01:25Z</time>
      </trkpt>
      <trkpt lat="42.805416835471988" lon="13.261914253234863">
        <ele>1897.02</ele>
        <time>2019-06-18T09:01:42Z</time>
      </trkpt>
      <trkpt lat="42.805550526827574" lon="13.262021290138364">
        <ele>1898.9400000000001</ele>
        <time>2019-06-18T09:01:58Z</time>
      </trkpt>
      <trkpt lat="42.805696958675981" lon="13.262151796370745">
        <ele>1899.75</ele>
        <time>2019-06-18T09:02:16Z</time>
      </trkpt>
      <trkpt lat="42.80580491758883" lon="13.262258162721992">
        <ele>1902.9200000000001</ele>
        <time>2019-06-18T09:02:31Z</time>
      </trkpt>
      <trkpt lat="42.805960066616535" lon="13.262386657297611">
        <ele>1904.28</ele>
        <time>2019-06-18T09:02:49Z</time>
      </trkpt>
      <trkpt lat="42.806122004985809" lon="13.262456143274903">
        <ele>1907</ele>
        <time>2019-06-18T09:03:05Z</time>
      </trkpt>
      <trkpt lat="42.806247565895319" lon="13.262489167973399">
        <ele>1910.1300000000001</ele>
        <time>2019-06-18T09:03:18Z</time>
      </trkpt>
      <trkpt lat="42.806396428495646" lon="13.262538705021143">
        <ele>1912.9100000000001</ele>
        <time>2019-06-18T09:03:34Z</time>
      </trkpt>
      <trkpt lat="42.806525761261582" lon="13.262618836015463">
        <ele>1912.4100000000001</ele>
        <time>2019-06-18T09:03:48Z</time>
      </trkpt>
      <trkpt lat="42.806704631075263" lon="13.26269050128758">
        <ele>1914.1800000000001</ele>
        <time>2019-06-18T09:04:06Z</time>
      </trkpt>
      <trkpt lat="42.806837735697627" lon="13.262760238721967">
        <ele>1915.3499999999999</ele>
        <time>2019-06-18T09:04:21Z</time>
      </trkpt>
      <trkpt lat="42.80696053057909" lon="13.262812625616789">
        <ele>1918.4000000000001</ele>
        <time>2019-06-18T09:04:37Z</time>
      </trkpt>
      <trkpt lat="42.807060861960053" lon="13.262906419113278">
        <ele>1920.8099999999999</ele>
        <time>2019-06-18T09:04:54Z</time>
      </trkpt>
      <trkpt lat="42.807118780910969" lon="13.263025945052505">
        <ele>1923.8599999999999</ele>
        <time>2019-06-18T09:05:09Z</time>
      </trkpt>
      <trkpt lat="42.807194637134671" lon="13.263091240078211">
        <ele>1926.5</ele>
        <time>2019-06-18T09:05:24Z</time>
      </trkpt>
      <trkpt lat="42.807295303791761" lon="13.263116888701916">
        <ele>1929.1400000000001</ele>
        <time>2019-06-18T09:05:39Z</time>
      </trkpt>
      <trkpt lat="42.807378703728318" lon="13.263139855116606">
        <ele>1932.1600000000001</ele>
        <time>2019-06-18T09:05:54Z</time>
      </trkpt>
      <trkpt lat="42.807446764782071" lon="13.263184111565351">
        <ele>1934.3</ele>
        <time>2019-06-18T09:06:09Z</time>
      </trkpt>
      <trkpt lat="42.807542737573385" lon="13.263184111565351">
        <ele>1937.6099999999999</ele>
        <time>2019-06-18T09:06:27Z</time>
      </trkpt>
      <trkpt lat="42.807621778920293" lon="13.263189643621445">
        <ele>1940.6500000000001</ele>
        <time>2019-06-18T09:06:42Z</time>
      </trkpt>
      <trkpt lat="42.807677770033479" lon="13.263193666934967">
        <ele>1943.75</ele>
        <time>2019-06-18T09:06:54Z</time>
      </trkpt>
      <trkpt lat="42.807766366750002" lon="13.26319282874465">
        <ele>1946.8199999999999</ele>
        <time>2019-06-18T09:07:11Z</time>
      </trkpt>
      <trkpt lat="42.80784641392529" lon="13.263157289475203">
        <ele>1949.98</ele>
        <time>2019-06-18T09:07:23Z</time>
      </trkpt>
      <trkpt lat="42.808005586266518" lon="13.263097777962685">
        <ele>1951.46</ele>
        <time>2019-06-18T09:07:45Z</time>
      </trkpt>
      <trkpt lat="42.808107594028115" lon="13.263088893145323">
        <ele>1953.6099999999999</ele>
        <time>2019-06-18T09:08:02Z</time>
      </trkpt>
      <trkpt lat="42.808215552940965" lon="13.263080259785056">
        <ele>1956.6199999999999</ele>
        <time>2019-06-18T09:08:18Z</time>
      </trkpt>
      <trkpt lat="42.808328540995717" lon="13.263054611161351">
        <ele>1959.8199999999999</ele>
        <time>2019-06-18T09:08:36Z</time>
      </trkpt>
      <trkpt lat="42.808425519615412" lon="13.263033153489232">
        <ele>1962.6500000000001</ele>
        <time>2019-06-18T09:08:52Z</time>
      </trkpt>
      <trkpt lat="42.80851143412292" lon="13.263021167367697">
        <ele>1964.8</ele>
        <time>2019-06-18T09:09:09Z</time>
      </trkpt>
      <trkpt lat="42.808567089959979" lon="13.263024939224124">
        <ele>1966.8099999999999</ele>
        <time>2019-06-18T09:09:21Z</time>
      </trkpt>
      <trkpt lat="42.808632720261812" lon="13.26302913017571">
        <ele>1969.9000000000001</ele>
        <time>2019-06-18T09:09:34Z</time>
      </trkpt>
      <trkpt lat="42.80869466252625" lon="13.263043379411101">
        <ele>1973.1500000000001</ele>
        <time>2019-06-18T09:09:49Z</time>
      </trkpt>
      <trkpt lat="42.808747133240104" lon="13.263065339997411">
        <ele>1975.22</ele>
        <time>2019-06-18T09:10:02Z</time>
      </trkpt>
      <trkpt lat="42.808860205113888" lon="13.263028459623456">
        <ele>1978.25</ele>
        <time>2019-06-18T09:10:20Z</time>
      </trkpt>
      <trkpt lat="42.808962799608707" lon="13.263033321127295">
        <ele>1981.6199999999999</ele>
        <time>2019-06-18T09:10:37Z</time>
      </trkpt>
      <trkpt lat="42.809061789885163" lon="13.26305016875267">
        <ele>1983.9400000000001</ele>
        <time>2019-06-18T09:10:55Z</time>
      </trkpt>
      <trkpt lat="42.809116942808032" lon="13.263087887316942">
        <ele>1986.71</ele>
        <time>2019-06-18T09:11:09Z</time>
      </trkpt>
      <trkpt lat="42.809201097115874" lon="13.263105740770698">
        <ele>1989.3900000000001</ele>
        <time>2019-06-18T09:11:24Z</time>
      </trkpt>
      <trkpt lat="42.809287514537573" lon="13.263154607266188">
        <ele>1992.52</ele>
        <time>2019-06-18T09:11:41Z</time>
      </trkpt>
      <trkpt lat="42.809385750442743" lon="13.26319919899106">
        <ele>1995.54</ele>
        <time>2019-06-18T09:11:57Z</time>
      </trkpt>
      <trkpt lat="42.809489350765944" lon="13.263260219246149">
        <ele>1997.9100000000001</ele>
        <time>2019-06-18T09:12:14Z</time>
      </trkpt>
      <trkpt lat="42.809594040736556" lon="13.263316880911589">
        <ele>2000.4400000000001</ele>
        <time>2019-06-18T09:12:30Z</time>
      </trkpt>
      <trkpt lat="42.809677440673113" lon="13.263427019119263">
        <ele>2003.52</ele>
        <time>2019-06-18T09:12:47Z</time>
      </trkpt>
      <trkpt lat="42.809762516990304" lon="13.263510670512915">
        <ele>2006.55</ele>
        <time>2019-06-18T09:13:04Z</time>
      </trkpt>
      <trkpt lat="42.809842145070434" lon="13.263584598898888">
        <ele>2009.7</ele>
        <time>2019-06-18T09:13:19Z</time>
      </trkpt>
      <trkpt lat="42.809930071234703" lon="13.263681242242455">
        <ele>2011.52</ele>
        <time>2019-06-18T09:13:36Z</time>
      </trkpt>
      <trkpt lat="42.809978937730193" lon="13.263766318559647">
        <ele>2011.54</ele>
        <time>2019-06-18T09:13:48Z</time>
      </trkpt>
      <trkpt lat="42.810002323240042" lon="13.263810742646456">
        <ele>2014.8499999999999</ele>
        <time>2019-06-18T09:13:55Z</time>
      </trkpt>
      <trkpt lat="42.810010956600308" lon="13.2638153526932">
        <ele>2014.98</ele>
        <time>2019-06-18T09:13:56Z</time>
      </trkpt>
      <trkpt lat="42.810084130614996" lon="13.263881066814065">
        <ele>2017.3199999999999</ele>
        <time>2019-06-18T09:14:10Z</time>
      </trkpt>
      <trkpt lat="42.810171050950885" lon="13.263961113989353">
        <ele>2019.77</ele>
        <time>2019-06-18T09:14:26Z</time>
      </trkpt>
      <trkpt lat="42.81017666682601" lon="13.263964634388685">
        <ele>2019.96</ele>
        <time>2019-06-18T09:14:27Z</time>
      </trkpt>
      <trkpt lat="42.810287894681096" lon="13.26402154751122">
        <ele>2023.3099999999999</ele>
        <time>2019-06-18T09:14:42Z</time>
      </trkpt>
      <trkpt lat="42.81039216555655" lon="13.26408214867115">
        <ele>2025.0599999999999</ele>
        <time>2019-06-18T09:14:55Z</time>
      </trkpt>
      <trkpt lat="42.81048889271915" lon="13.26419941149652">
        <ele>2027.52</ele>
        <time>2019-06-18T09:15:13Z</time>
      </trkpt>
      <trkpt lat="42.81049040146172" lon="13.264204356819391">
        <ele>2026.7</ele>
        <time>2019-06-18T09:15:26Z</time>
      </trkpt>
      <trkpt lat="42.810503728687763" lon="13.264192370697856">
        <ele>2026.9200000000001</ele>
        <time>2019-06-18T09:15:39Z</time>
      </trkpt>
      <trkpt lat="42.81054169870913" lon="13.264244673773646">
        <ele>2027.1900000000001</ele>
        <time>2019-06-18T09:15:50Z</time>
      </trkpt>
      <trkpt lat="42.81061596237123" lon="13.264344669878483">
        <ele>2030.29</ele>
        <time>2019-06-18T09:16:04Z</time>
      </trkpt>
      <trkpt lat="42.810688046738505" lon="13.264411641284823">
        <ele>2033.3800000000001</ele>
        <time>2019-06-18T09:16:15Z</time>
      </trkpt>
      <trkpt lat="42.810768513008952" lon="13.264478361234069">
        <ele>2036.47</ele>
        <time>2019-06-18T09:16:29Z</time>
      </trkpt>
      <trkpt lat="42.810843950137496" lon="13.264554720371962">
        <ele>2039.52</ele>
        <time>2019-06-18T09:16:45Z</time>
      </trkpt>
      <trkpt lat="42.810921566560864" lon="13.264689166098833">
        <ele>2041.9100000000001</ele>
        <time>2019-06-18T09:17:03Z</time>
      </trkpt>
      <trkpt lat="42.81101955100894" lon="13.264821348711848">
        <ele>2045.0699999999999</ele>
        <time>2019-06-18T09:17:22Z</time>
      </trkpt>
      <trkpt lat="42.811137065291405" lon="13.264918578788638">
        <ele>2047.9000000000001</ele>
        <time>2019-06-18T09:17:41Z</time>
      </trkpt>
      <trkpt lat="42.811253992840648" lon="13.26496409252286">
        <ele>2050.2199999999998</ele>
        <time>2019-06-18T09:17:58Z</time>
      </trkpt>
      <trkpt lat="42.811312582343817" lon="13.264968367293477">
        <ele>2050.5799999999999</ele>
        <time>2019-06-18T09:18:15Z</time>
      </trkpt>
      <trkpt lat="42.811325574293733" lon="13.264953531324863">
        <ele>2050.8099999999999</ele>
        <time>2019-06-18T09:18:40Z</time>
      </trkpt>
      <trkpt lat="42.811405956745148" lon="13.264939785003662">
        <ele>2051.7600000000002</ele>
        <time>2019-06-18T09:18:52Z</time>
      </trkpt>
      <trkpt lat="42.811440825462341" lon="13.264935677871108">
        <ele>2052.1900000000001</ele>
        <time>2019-06-18T09:18:56Z</time>
      </trkpt>
      <trkpt lat="42.811504360288382" lon="13.264954034239054">
        <ele>2052.7800000000002</ele>
        <time>2019-06-18T09:19:08Z</time>
      </trkpt>
      <trkpt lat="42.811612067744136" lon="13.264979515224695">
        <ele>2054.54</ele>
        <time>2019-06-18T09:19:21Z</time>
      </trkpt>
      <trkpt lat="42.811721451580524" lon="13.265020418912172">
        <ele>2055.6700000000001</ele>
        <time>2019-06-18T09:19:35Z</time>
      </trkpt>
      <trkpt lat="42.811810132116079" lon="13.265053443610668">
        <ele>2057.0799999999999</ele>
        <time>2019-06-18T09:19:46Z</time>
      </trkpt>
      <trkpt lat="42.811899231746793" lon="13.265122007578611">
        <ele>2059.1500000000001</ele>
        <time>2019-06-18T09:20:01Z</time>
      </trkpt>
      <trkpt lat="42.811944074928761" lon="13.265140196308494">
        <ele>2060</ele>
        <time>2019-06-18T09:20:14Z</time>
      </trkpt>
      <trkpt lat="42.812036862596869" lon="13.265203144401312">
        <ele>2062.4499999999998</ele>
        <time>2019-06-18T09:20:30Z</time>
      </trkpt>
      <trkpt lat="42.81214046292007" lon="13.265277072787285">
        <ele>2064.6999999999998</ele>
        <time>2019-06-18T09:20:48Z</time>
      </trkpt>
      <trkpt lat="42.812231322750449" lon="13.265335327014327">
        <ele>2066.5599999999999</ele>
        <time>2019-06-18T09:21:03Z</time>
      </trkpt>
      <trkpt lat="42.812302736565471" lon="13.265364747494459">
        <ele>2067.4299999999998</ele>
        <time>2019-06-18T09:21:19Z</time>
      </trkpt>
      <trkpt lat="42.812305418774486" lon="13.265359131619334">
        <ele>2067.0500000000002</ele>
        <time>2019-06-18T09:21:36Z</time>
      </trkpt>
      <trkpt lat="42.812314555048943" lon="13.26535259373486">
        <ele>2067.9000000000001</ele>
        <time>2019-06-18T09:21:47Z</time>
      </trkpt>
      <trkpt lat="42.812316231429577" lon="13.265371033921838">
        <ele>2068.5500000000002</ele>
        <time>2019-06-18T09:22:06Z</time>
      </trkpt>
      <trkpt lat="42.812367277219892" lon="13.265411267057061">
        <ele>2069.0100000000002</ele>
        <time>2019-06-18T09:22:16Z</time>
      </trkpt>
      <trkpt lat="42.812489988282323" lon="13.265477567911148">
        <ele>2071.5999999999999</ele>
        <time>2019-06-18T09:22:32Z</time>
      </trkpt>
      <trkpt lat="42.812613537535071" lon="13.26554361730814">
        <ele>2074.0500000000002</ele>
        <time>2019-06-18T09:22:48Z</time>
      </trkpt>
      <trkpt lat="42.81273415312171" lon="13.265623580664396">
        <ele>2077.1500000000001</ele>
        <time>2019-06-18T09:23:05Z</time>
      </trkpt>
      <trkpt lat="42.812841692939401" lon="13.265695497393608">
        <ele>2079.54</ele>
        <time>2019-06-18T09:23:21Z</time>
      </trkpt>
      <trkpt lat="42.812962476164103" lon="13.265774371102452">
        <ele>2081.25</ele>
        <time>2019-06-18T09:23:38Z</time>
      </trkpt>
      <trkpt lat="42.813083678483963" lon="13.265806809067726">
        <ele>2083.5900000000001</ele>
        <time>2019-06-18T09:23:56Z</time>
      </trkpt>
      <trkpt lat="42.813174286857247" lon="13.265849137678742">
        <ele>2085.71</ele>
        <time>2019-06-18T09:24:10Z</time>
      </trkpt>
      <trkpt lat="42.813280066475272" lon="13.265908816829324">
        <ele>2088.0300000000002</ele>
        <time>2019-06-18T09:24:26Z</time>
      </trkpt>
      <trkpt lat="42.813376877456903" lon="13.265948463231325">
        <ele>2089.8099999999999</ele>
        <time>2019-06-18T09:24:41Z</time>
      </trkpt>
      <trkpt lat="42.81347343698144" lon="13.265990540385246">
        <ele>2092.4000000000001</ele>
        <time>2019-06-18T09:24:57Z</time>
      </trkpt>
      <trkpt lat="42.813572594895959" lon="13.266041921451688">
        <ele>2094.75</ele>
        <time>2019-06-18T09:25:13Z</time>
      </trkpt>
      <trkpt lat="42.813687175512314" lon="13.266072180122137">
        <ele>2096.8600000000001</ele>
        <time>2019-06-18T09:25:31Z</time>
      </trkpt>
      <trkpt lat="42.81380083411932" lon="13.266116185113788">
        <ele>2099.4699999999998</ele>
        <time>2019-06-18T09:25:49Z</time>
      </trkpt>
      <trkpt lat="42.813927484676242" lon="13.266120376065373">
        <ele>2101.9299999999998</ele>
        <time>2019-06-18T09:26:09Z</time>
      </trkpt>
      <trkpt lat="42.814042400568724" lon="13.266150634735823">
        <ele>2104.0999999999999</ele>
        <time>2019-06-18T09:26:25Z</time>
      </trkpt>
      <trkpt lat="42.814124207943678" lon="13.266170416027308">
        <ele>2105.3299999999999</ele>
        <time>2019-06-18T09:26:37Z</time>
      </trkpt>
      <trkpt lat="42.814225377514958" lon="13.266210984438658">
        <ele>2107.6300000000001</ele>
        <time>2019-06-18T09:26:53Z</time>
      </trkpt>
      <trkpt lat="42.814320009201765" lon="13.266254402697086">
        <ele>2109.79</ele>
        <time>2019-06-18T09:27:08Z</time>
      </trkpt>
      <trkpt lat="42.814414473250508" lon="13.266288097947836">
        <ele>2112.5300000000002</ele>
        <time>2019-06-18T09:27:23Z</time>
      </trkpt>
      <trkpt lat="42.814528215676546" lon="13.266367893666029">
        <ele>2115.6199999999999</ele>
        <time>2019-06-18T09:27:41Z</time>
      </trkpt>
      <trkpt lat="42.814608514308929" lon="13.266396643593907">
        <ele>2117.46</ele>
        <time>2019-06-18T09:27:55Z</time>
      </trkpt>
      <trkpt lat="42.814671462401748" lon="13.266431428492069">
        <ele>2119.8499999999999</ele>
        <time>2019-06-18T09:28:08Z</time>
      </trkpt>
      <trkpt lat="42.814747486263514" lon="13.266458250582218">
        <ele>2121.7800000000002</ele>
        <time>2019-06-18T09:28:24Z</time>
      </trkpt>
      <trkpt lat="42.814826862886548" lon="13.266499908640981">
        <ele>2124.6399999999999</ele>
        <time>2019-06-18T09:28:42Z</time>
      </trkpt>
      <trkpt lat="42.814892996102571" lon="13.26653947122395">
        <ele>2126.8800000000001</ele>
        <time>2019-06-18T09:28:57Z</time>
      </trkpt>
      <trkpt lat="42.814947562292218" lon="13.266588170081377">
        <ele>2129.1500000000001</ele>
        <time>2019-06-18T09:29:11Z</time>
      </trkpt>
      <trkpt lat="42.815009923651814" lon="13.266647346317768">
        <ele>2131.2199999999998</ele>
        <time>2019-06-18T09:29:25Z</time>
      </trkpt>
      <trkpt lat="42.815082343295217" lon="13.266721023246646">
        <ele>2133.75</ele>
        <time>2019-06-18T09:29:41Z</time>
      </trkpt>
      <trkpt lat="42.815138502046466" lon="13.266808614134789">
        <ele>2136.2199999999998</ele>
        <time>2019-06-18T09:29:58Z</time>
      </trkpt>
      <trkpt lat="42.815184686332941" lon="13.266875082626939">
        <ele>2138.6100000000001</ele>
        <time>2019-06-18T09:30:14Z</time>
      </trkpt>
      <trkpt lat="42.815230786800385" lon="13.266938617452979">
        <ele>2140.6900000000001</ele>
        <time>2019-06-18T09:30:29Z</time>
      </trkpt>
      <trkpt lat="42.815282251685858" lon="13.266977509483695">
        <ele>2142.27</ele>
        <time>2019-06-18T09:30:43Z</time>
      </trkpt>
      <trkpt lat="42.815337404608727" lon="13.267013719305396">
        <ele>2144.4200000000001</ele>
        <time>2019-06-18T09:30:57Z</time>
      </trkpt>
      <trkpt lat="42.815378727391362" lon="13.267040373757482">
        <ele>2146.3699999999999</ele>
        <time>2019-06-18T09:31:10Z</time>
      </trkpt>
      <trkpt lat="42.815409991890192" lon="13.267051856964827">
        <ele>2148.5900000000001</ele>
        <time>2019-06-18T09:31:24Z</time>
      </trkpt>
      <trkpt lat="42.815451398491859" lon="13.267069207504392">
        <ele>2150.3000000000002</ele>
        <time>2019-06-18T09:31:36Z</time>
      </trkpt>
      <trkpt lat="42.815501354634762" lon="13.267081277444959">
        <ele>2152.02</ele>
        <time>2019-06-18T09:31:50Z</time>
      </trkpt>
      <trkpt lat="42.815543096512556" lon="13.267076080664992">
        <ele>2153.6999999999998</ele>
        <time>2019-06-18T09:32:01Z</time>
      </trkpt>
      <trkpt lat="42.815576456487179" lon="13.267103070393205">
        <ele>2156.02</ele>
        <time>2019-06-18T09:32:13Z</time>
      </trkpt>
      <trkpt lat="42.815592549741268" lon="13.267117738723755">
        <ele>2157.52</ele>
        <time>2019-06-18T09:32:22Z</time>
      </trkpt>
      <trkpt lat="42.815612498670816" lon="13.26714875176549">
        <ele>2160.2399999999998</ele>
        <time>2019-06-18T09:32:33Z</time>
      </trkpt>
      <trkpt lat="42.815653150901198" lon="13.267177417874336">
        <ele>2163.0300000000002</ele>
        <time>2019-06-18T09:32:44Z</time>
      </trkpt>
      <trkpt lat="42.815694138407707" lon="13.267181105911732">
        <ele>2165.1599999999999</ele>
        <time>2019-06-18T09:32:56Z</time>
      </trkpt>
      <trkpt lat="42.815745938569307" lon="13.267212621867657">
        <ele>2167.8499999999999</ele>
        <time>2019-06-18T09:33:09Z</time>
      </trkpt>
      <trkpt lat="42.815801510587335" lon="13.267237516120076">
        <ele>2169.5999999999999</ele>
        <time>2019-06-18T09:33:23Z</time>
      </trkpt>
      <trkpt lat="42.815868649631739" lon="13.267253944650292">
        <ele>2171.1900000000001</ele>
        <time>2019-06-18T09:33:38Z</time>
      </trkpt>
      <trkpt lat="42.815934028476477" lon="13.267234247177839">
        <ele>2173.3099999999999</ele>
        <time>2019-06-18T09:33:50Z</time>
      </trkpt>
      <trkpt lat="42.816007453948259" lon="13.267245311290026">
        <ele>2175.5</ele>
        <time>2019-06-18T09:34:04Z</time>
      </trkpt>
      <trkpt lat="42.816067971289158" lon="13.267265176400542">
        <ele>2178.3000000000002</ele>
        <time>2019-06-18T09:34:18Z</time>
      </trkpt>
      <trkpt lat="42.816121112555265" lon="13.267323598265648">
        <ele>2180.8400000000001</ele>
        <time>2019-06-18T09:34:31Z</time>
      </trkpt>
      <trkpt lat="42.816189173609018" lon="13.267417307943106">
        <ele>2183.96</ele>
        <time>2019-06-18T09:34:46Z</time>
      </trkpt>
      <trkpt lat="42.816275004297495" lon="13.267509844154119">
        <ele>2187.0100000000002</ele>
        <time>2019-06-18T09:35:04Z</time>
      </trkpt>
      <trkpt lat="42.816352872177958" lon="13.267584275454283">
        <ele>2190.1199999999999</ele>
        <time>2019-06-18T09:35:19Z</time>
      </trkpt>
      <trkpt lat="42.816431159153581" lon="13.267667759209871">
        <ele>2193.1100000000001</ele>
        <time>2019-06-18T09:35:36Z</time>
      </trkpt>
      <trkpt lat="42.816494526341558" lon="13.267735820263624">
        <ele>2195.6999999999998</ele>
        <time>2019-06-18T09:35:50Z</time>
      </trkpt>
      <trkpt lat="42.816581446677446" lon="13.267842270433903">
        <ele>2197.8200000000002</ele>
        <time>2019-06-18T09:36:06Z</time>
      </trkpt>
      <trkpt lat="42.816675659269094" lon="13.267956599593163">
        <ele>2200.8200000000002</ele>
        <time>2019-06-18T09:36:22Z</time>
      </trkpt>
      <trkpt lat="42.816778924316168" lon="13.26806640252471">
        <ele>2203.4099999999999</ele>
        <time>2019-06-18T09:36:40Z</time>
      </trkpt>
      <trkpt lat="42.816861234605312" lon="13.268160363659263">
        <ele>2206.1900000000001</ele>
        <time>2019-06-18T09:36:56Z</time>
      </trkpt>
      <trkpt lat="42.816934073343873" lon="13.268198752775788">
        <ele>2208.5100000000002</ele>
        <time>2019-06-18T09:37:09Z</time>
      </trkpt>
      <trkpt lat="42.816995931789279" lon="13.268240746110678">
        <ele>2211.5900000000001</ele>
        <time>2019-06-18T09:37:22Z</time>
      </trkpt>
      <trkpt lat="42.817043038085103" lon="13.268275195732713">
        <ele>2213.6799999999998</ele>
        <time>2019-06-18T09:37:33Z</time>
      </trkpt>
      <trkpt lat="42.817098693922162" lon="13.268333282321692">
        <ele>2216.3400000000001</ele>
        <time>2019-06-18T09:37:45Z</time>
      </trkpt>
      <trkpt lat="42.817169269546866" lon="13.268425734713674">
        <ele>2219.52</ele>
        <time>2019-06-18T09:38:01Z</time>
      </trkpt>
      <trkpt lat="42.8172417730093" lon="13.268498321995139">
        <ele>2221.8299999999999</ele>
        <time>2019-06-18T09:38:17Z</time>
      </trkpt>
      <trkpt lat="42.817298686131835" lon="13.268565041944385">
        <ele>2224.2600000000002</ele>
        <time>2019-06-18T09:38:32Z</time>
      </trkpt>
      <trkpt lat="42.817358281463385" lon="13.268627822399139">
        <ele>2227.4299999999998</ele>
        <time>2019-06-18T09:38:47Z</time>
      </trkpt>
      <trkpt lat="42.817406812682748" lon="13.268652884289622">
        <ele>2229.46</ele>
        <time>2019-06-18T09:39:00Z</time>
      </trkpt>
      <trkpt lat="42.81741326674819" lon="13.26859513297677">
        <ele>2231.8600000000001</ele>
        <time>2019-06-18T09:39:13Z</time>
      </trkpt>
      <trkpt lat="42.817454505711794" lon="13.268564287573099">
        <ele>2233.6300000000001</ele>
        <time>2019-06-18T09:39:24Z</time>
      </trkpt>
      <trkpt lat="42.817488200962543" lon="13.268504776060581">
        <ele>2234.46</ele>
        <time>2019-06-18T09:39:36Z</time>
      </trkpt>
      <trkpt lat="42.817492056638002" lon="13.268470074981451">
        <ele>2235.1799999999998</ele>
        <time>2019-06-18T09:39:49Z</time>
      </trkpt>
      <trkpt lat="42.817491302266717" lon="13.268467392772436">
        <ele>2235.1900000000001</ele>
        <time>2019-06-18T09:40:01Z</time>
      </trkpt>
      <trkpt lat="42.817502869293094" lon="13.268471332266927">
        <ele>2236.2199999999998</ele>
        <time>2019-06-18T09:40:17Z</time>
      </trkpt>
      <trkpt lat="42.817593729123473" lon="13.268421376124024">
        <ele>2239.0900000000001</ele>
        <time>2019-06-18T09:40:34Z</time>
      </trkpt>
      <trkpt lat="42.817650390788913" lon="13.268320290371776">
        <ele>2240</ele>
        <time>2019-06-18T09:40:45Z</time>
      </trkpt>
      <trkpt lat="42.817699005827308" lon="13.268287517130375">
        <ele>2241.79</ele>
        <time>2019-06-18T09:40:54Z</time>
      </trkpt>
      <trkpt lat="42.817677464336157" lon="13.268331522122025">
        <ele>2240.6599999999999</ele>
        <time>2019-06-18T09:41:17Z</time>
      </trkpt>
      <trkpt lat="42.817673943936825" lon="13.26834007166326">
        <ele>2240.8699999999999</ele>
        <time>2019-06-18T09:41:18Z</time>
      </trkpt>
      <trkpt lat="42.817591968923807" lon="13.268392374739051">
        <ele>2240.48</ele>
        <time>2019-06-18T09:41:30Z</time>
      </trkpt>
      <trkpt lat="42.81753052957356" lon="13.26847342774272">
        <ele>2239.6900000000001</ele>
        <time>2019-06-18T09:41:44Z</time>
      </trkpt>
      <trkpt lat="42.817541426047683" lon="13.268509218469262">
        <ele>2239.0300000000002</ele>
        <time>2019-06-18T09:41:53Z</time>
      </trkpt>
      <trkpt lat="42.817578557878733" lon="13.268675515428185">
        <ele>2237.5100000000002</ele>
        <time>2019-06-18T09:42:08Z</time>
      </trkpt>
      <trkpt lat="42.817591382190585" lon="13.268707869574428">
        <ele>2237.23</ele>
        <time>2019-06-18T09:42:20Z</time>
      </trkpt>
      <trkpt lat="42.817594148218632" lon="13.268716670572758">
        <ele>2236.5999999999999</ele>
        <time>2019-06-18T09:42:22Z</time>
      </trkpt>
      <trkpt lat="42.817610325291753" lon="13.268706277012825">
        <ele>2234.8899999999999</ele>
        <time>2019-06-18T09:42:32Z</time>
      </trkpt>
      <trkpt lat="42.817610995844007" lon="13.268701583147049">
        <ele>2235.1700000000001</ele>
        <time>2019-06-18T09:43:06Z</time>
      </trkpt>
      <trkpt lat="42.817605044692755" lon="13.268691943958402">
        <ele>2235.4499999999998</ele>
        <time>2019-06-18T09:43:21Z</time>
      </trkpt>
      <trkpt lat="42.817608900368214" lon="13.268703678622842">
        <ele>2236.8299999999999</ele>
        <time>2019-06-18T09:43:55Z</time>
      </trkpt>
      <trkpt lat="42.817594651132822" lon="13.26869823038578">
        <ele>2235.1999999999998</ele>
        <time>2019-06-18T09:44:21Z</time>
      </trkpt>
      <trkpt lat="42.817585598677397" lon="13.268687585368752">
        <ele>2235.77</ele>
        <time>2019-06-18T09:44:52Z</time>
      </trkpt>
      <trkpt lat="42.817591549828649" lon="13.268685406073928">
        <ele>2234.8800000000001</ele>
        <time>2019-06-18T09:45:24Z</time>
      </trkpt>
      <trkpt lat="42.817591885104775" lon="13.268685908988118">
        <ele>2234.5799999999999</ele>
        <time>2019-06-18T09:45:43Z</time>
      </trkpt>
      <trkpt lat="42.817585179582238" lon="13.268693787977099">
        <ele>2235.0300000000002</ele>
        <time>2019-06-18T09:46:06Z</time>
      </trkpt>
      <trkpt lat="42.817588448524475" lon="13.268691021949053">
        <ele>2235.6300000000001</ele>
        <time>2019-06-18T09:46:32Z</time>
      </trkpt>
      <trkpt lat="42.8175940643996" lon="13.2687006611377">
        <ele>2236.4200000000001</ele>
        <time>2019-06-18T09:47:03Z</time>
      </trkpt>
      <trkpt lat="42.817592471837997" lon="13.268703846260905">
        <ele>2236.8200000000002</ele>
        <time>2019-06-18T09:47:53Z</time>
      </trkpt>
      <trkpt lat="42.81758626922965" lon="13.268696554005146">
        <ele>2236.7399999999998</ele>
        <time>2019-06-18T09:48:47Z</time>
      </trkpt>
      <trkpt lat="42.817585347220302" lon="13.268694542348385">
        <ele>2237.0500000000002</ele>
        <time>2019-06-18T09:49:42Z</time>
      </trkpt>
      <trkpt lat="42.81758626922965" lon="13.268695548176765">
        <ele>2237.1700000000001</ele>
        <time>2019-06-18T09:50:22Z</time>
      </trkpt>
      <trkpt lat="42.817583670839667" lon="13.268693117424846">
        <ele>2237.5799999999999</ele>
        <time>2019-06-18T09:51:10Z</time>
      </trkpt>
      <trkpt lat="42.817584089934826" lon="13.268688255921006">
        <ele>2237.6500000000001</ele>
        <time>2019-06-18T09:52:01Z</time>
      </trkpt>
      <trkpt lat="42.817583167925477" lon="13.268686160445213">
        <ele>2237.5900000000001</ele>
        <time>2019-06-18T09:52:53Z</time>
      </trkpt>
      <trkpt lat="42.817580737173557" lon="13.268692698329687">
        <ele>2238.6300000000001</ele>
        <time>2019-06-18T09:53:49Z</time>
      </trkpt>
      <trkpt lat="42.817579312250018" lon="13.268696302548051">
        <ele>2239.3600000000001</ele>
        <time>2019-06-18T09:54:40Z</time>
      </trkpt>
      <trkpt lat="42.81757989898324" lon="13.268702253699303">
        <ele>2239.6700000000001</ele>
        <time>2019-06-18T09:55:34Z</time>
      </trkpt>
      <trkpt lat="42.817579144611955" lon="13.268694709986448">
        <ele>2240.1599999999999</ele>
        <time>2019-06-18T09:56:06Z</time>
      </trkpt>
      <trkpt lat="42.817567242309451" lon="13.268681718036532">
        <ele>2239.9099999999999</ele>
        <time>2019-06-18T09:56:31Z</time>
      </trkpt>
      <trkpt lat="42.817564895376563" lon="13.2686781976372">
        <ele>2239.5900000000001</ele>
        <time>2019-06-18T09:57:02Z</time>
      </trkpt>
      <trkpt lat="42.817566739395261" lon="13.268682137131691">
        <ele>2239.4499999999998</ele>
        <time>2019-06-18T09:57:34Z</time>
      </trkpt>
      <trkpt lat="42.817565565928817" lon="13.268673587590456">
        <ele>2239.1399999999999</ele>
        <time>2019-06-18T09:58:04Z</time>
      </trkpt>
      <trkpt lat="42.817567409947515" lon="13.268676605075598">
        <ele>2239.4899999999998</ele>
        <time>2019-06-18T09:58:30Z</time>
      </trkpt>
      <trkpt lat="42.8175716008991" lon="13.268674425780773">
        <ele>2239.29</ele>
        <time>2019-06-18T09:59:03Z</time>
      </trkpt>
      <trkpt lat="42.817560285329819" lon="13.268673839047551">
        <ele>2239.02</ele>
        <time>2019-06-18T09:59:35Z</time>
      </trkpt>
      <trkpt lat="42.817575708031654" lon="13.268689764663577">
        <ele>2239.3800000000001</ele>
        <time>2019-06-18T10:00:00Z</time>
      </trkpt>
      <trkpt lat="42.817576881498098" lon="13.268696134909987">
        <ele>2240.1199999999999</ele>
        <time>2019-06-18T10:00:09Z</time>
      </trkpt>
      <trkpt lat="42.817569253966212" lon="13.268700493499637">
        <ele>2240.5599999999999</ele>
        <time>2019-06-18T10:00:24Z</time>
      </trkpt>
      <trkpt lat="42.817573947831988" lon="13.268705690279603">
        <ele>2241.7399999999998</ele>
        <time>2019-06-18T10:00:45Z</time>
      </trkpt>
      <trkpt lat="42.8175681643188" lon="13.26870845630765">
        <ele>2241.0500000000002</ele>
        <time>2019-06-18T10:01:01Z</time>
      </trkpt>
      <trkpt lat="42.817572019994259" lon="13.268719436600804">
        <ele>2240.3000000000002</ele>
        <time>2019-06-18T10:01:19Z</time>
      </trkpt>
      <trkpt lat="42.817581743001938" lon="13.268714491277933">
        <ele>2241.9400000000001</ele>
        <time>2019-06-18T10:01:36Z</time>
      </trkpt>
      <trkpt lat="42.817594818770885" lon="13.268732009455562">
        <ele>2241.46</ele>
        <time>2019-06-18T10:01:57Z</time>
      </trkpt>
      <trkpt lat="42.817624742165208" lon="13.268770314753056">
        <ele>2241.8000000000002</ele>
        <time>2019-06-18T10:02:03Z</time>
      </trkpt>
      <trkpt lat="42.817637398838997" lon="13.268778277561069">
        <ele>2242.27</ele>
        <time>2019-06-18T10:02:15Z</time>
      </trkpt>
      <trkpt lat="42.8176493011415" lon="13.268789174035192">
        <ele>2242.9099999999999</ele>
        <time>2019-06-18T10:02:28Z</time>
      </trkpt>
      <trkpt lat="42.817669669166207" lon="13.26882915571332">
        <ele>2242.1900000000001</ele>
        <time>2019-06-18T10:02:38Z</time>
      </trkpt>
      <trkpt lat="42.817727839574218" lon="13.268993692472577">
        <ele>2242.1300000000001</ele>
        <time>2019-06-18T10:02:52Z</time>
      </trkpt>
      <trkpt lat="42.817788356915116" lon="13.269179267808795">
        <ele>2242.3200000000002</ele>
        <time>2019-06-18T10:03:07Z</time>
      </trkpt>
      <trkpt lat="42.817795816808939" lon="13.269217405468225">
        <ele>2245.0500000000002</ele>
        <time>2019-06-18T10:03:10Z</time>
      </trkpt>
      <trkpt lat="42.817846275866032" lon="13.269398622214794">
        <ele>2244.2800000000002</ele>
        <time>2019-06-18T10:03:24Z</time>
      </trkpt>
      <trkpt lat="42.817892879247665" lon="13.26951714232564">
        <ele>2245.4099999999999</ele>
        <time>2019-06-18T10:03:38Z</time>
      </trkpt>
      <trkpt lat="42.817905368283391" lon="13.269522590562701">
        <ele>2245.5700000000002</ele>
        <time>2019-06-18T10:03:42Z</time>
      </trkpt>
      <trkpt lat="42.817924646660686" lon="13.269574055448174">
        <ele>2245.0100000000002</ele>
        <time>2019-06-18T10:03:46Z</time>
      </trkpt>
      <trkpt lat="42.817968400195241" lon="13.2697868719697">
        <ele>2244.1700000000001</ele>
        <time>2019-06-18T10:04:01Z</time>
      </trkpt>
      <trkpt lat="42.818016009405255" lon="13.269991558045149">
        <ele>2244.1399999999999</ele>
        <time>2019-06-18T10:04:16Z</time>
      </trkpt>
      <trkpt lat="42.818050961941481" lon="13.270160118117929">
        <ele>2246.9899999999998</ele>
        <time>2019-06-18T10:04:31Z</time>
      </trkpt>
      <trkpt lat="42.818090189248323" lon="13.270287103950977">
        <ele>2245.46</ele>
        <time>2019-06-18T10:04:45Z</time>
      </trkpt>
      <trkpt lat="42.818089602515101" lon="13.27028819359839">
        <ele>2245.1700000000001</ele>
        <time>2019-06-18T10:04:46Z</time>
      </trkpt>
      <trkpt lat="42.818094631657004" lon="13.270312501117587">
        <ele>2246.8800000000001</ele>
        <time>2019-06-18T10:04:57Z</time>
      </trkpt>
      <trkpt lat="42.818149533122778" lon="13.270475948229432">
        <ele>2247.5599999999999</ele>
        <time>2019-06-18T10:05:13Z</time>
      </trkpt>
      <trkpt lat="42.818166045472026" lon="13.270554067566991">
        <ele>2248.4899999999998</ele>
        <time>2019-06-18T10:05:26Z</time>
      </trkpt>
      <trkpt lat="42.818207116797566" lon="13.27068499289453">
        <ele>2250.0500000000002</ele>
        <time>2019-06-18T10:05:39Z</time>
      </trkpt>
      <trkpt lat="42.818273920565844" lon="13.270877189934254">
        <ele>2252.1599999999999</ele>
        <time>2019-06-18T10:05:57Z</time>
      </trkpt>
      <trkpt lat="42.818323457613587" lon="13.271072572097182">
        <ele>2254.1700000000001</ele>
        <time>2019-06-18T10:06:14Z</time>
      </trkpt>
      <trkpt lat="42.818376598879695" lon="13.27126108109951">
        <ele>2255.5599999999999</ele>
        <time>2019-06-18T10:06:32Z</time>
      </trkpt>
      <trkpt lat="42.818423537537456" lon="13.271421510726213">
        <ele>2257.3099999999999</ele>
        <time>2019-06-18T10:06:47Z</time>
      </trkpt>
      <trkpt lat="42.818460753187537" lon="13.271577078849077">
        <ele>2259.4000000000001</ele>
        <time>2019-06-18T10:07:00Z</time>
      </trkpt>
      <trkpt lat="42.818481624126434" lon="13.271783441305161">
        <ele>2259.8600000000001</ele>
        <time>2019-06-18T10:07:16Z</time>
      </trkpt>
      <trkpt lat="42.818485731258988" lon="13.271966753527522">
        <ele>2258.8899999999999</ele>
        <time>2019-06-18T10:07:29Z</time>
      </trkpt>
      <trkpt lat="42.818481372669339" lon="13.27206046320498">
        <ele>2257.4099999999999</ele>
        <time>2019-06-18T10:07:39Z</time>
      </trkpt>
      <trkpt lat="42.81848288141191" lon="13.27205752953887">
        <ele>2257.1100000000001</ele>
        <time>2019-06-18T10:07:49Z</time>
      </trkpt>
      <trkpt lat="42.818480366840959" lon="13.272053170949221">
        <ele>2256.75</ele>
        <time>2019-06-18T10:08:13Z</time>
      </trkpt>
      <trkpt lat="42.818496795371175" lon="13.272111173719168">
        <ele>2256.77</ele>
        <time>2019-06-18T10:08:26Z</time>
      </trkpt>
      <trkpt lat="42.818536274135113" lon="13.272259114310145">
        <ele>2256.6999999999998</ele>
        <time>2019-06-18T10:08:40Z</time>
      </trkpt>
      <trkpt lat="42.818569717928767" lon="13.272329773753881">
        <ele>2257.0100000000002</ele>
        <time>2019-06-18T10:08:56Z</time>
      </trkpt>
      <trkpt lat="42.818634593859315" lon="13.272495483979583">
        <ele>2257.71</ele>
        <time>2019-06-18T10:09:11Z</time>
      </trkpt>
      <trkpt lat="42.818697625771165" lon="13.27264778316021">
        <ele>2259.1700000000001</ele>
        <time>2019-06-18T10:09:27Z</time>
      </trkpt>
      <trkpt lat="42.818759400397539" lon="13.272770578041673">
        <ele>2261.6799999999998</ele>
        <time>2019-06-18T10:09:42Z</time>
      </trkpt>
      <trkpt lat="42.818820336833596" lon="13.272837549448013">
        <ele>2262.79</ele>
        <time>2019-06-18T10:09:53Z</time>
      </trkpt>
      <trkpt lat="42.818913795053959" lon="13.272932767868042">
        <ele>2264.8000000000002</ele>
        <time>2019-06-18T10:10:10Z</time>
      </trkpt>
      <trkpt lat="42.818916561082006" lon="13.272901838645339">
        <ele>2265</ele>
        <time>2019-06-18T10:10:23Z</time>
      </trkpt>
      <trkpt lat="42.818916896358132" lon="13.27289748005569">
        <ele>2264.2399999999998</ele>
        <time>2019-06-18T10:10:38Z</time>
      </trkpt>
      <trkpt lat="42.81893877312541" lon="13.272921284660697">
        <ele>2267.3099999999999</ele>
        <time>2019-06-18T10:10:54Z</time>
      </trkpt>
      <trkpt lat="42.819011192768812" lon="13.27300937846303">
        <ele>2267.8400000000001</ele>
        <time>2019-06-18T10:11:08Z</time>
      </trkpt>
      <trkpt lat="42.819100962951779" lon="13.273037876933813">
        <ele>2270.6900000000001</ele>
        <time>2019-06-18T10:11:23Z</time>
      </trkpt>
      <trkpt lat="42.819178327918053" lon="13.27309294603765">
        <ele>2273.6300000000001</ele>
        <time>2019-06-18T10:11:38Z</time>
      </trkpt>
      <trkpt lat="42.819275809451938" lon="13.273124042898417">
        <ele>2275.8600000000001</ele>
        <time>2019-06-18T10:11:53Z</time>
      </trkpt>
      <trkpt lat="42.81930229626596" lon="13.273136029019952">
        <ele>2277.8600000000001</ele>
        <time>2019-06-18T10:11:58Z</time>
      </trkpt>
      <trkpt lat="42.819368932396173" lon="13.273207359015942">
        <ele>2279.7199999999998</ele>
        <time>2019-06-18T10:12:12Z</time>
      </trkpt>
      <trkpt lat="42.819472784176469" lon="13.273237366229296">
        <ele>2281.7199999999998</ele>
        <time>2019-06-18T10:12:29Z</time>
      </trkpt>
      <trkpt lat="42.819543024525046" lon="13.273256979882717">
        <ele>2285.6799999999998</ele>
        <time>2019-06-18T10:12:42Z</time>
      </trkpt>
      <trkpt lat="42.819548640400171" lon="13.273257063701749">
        <ele>2284.9899999999998</ele>
        <time>2019-06-18T10:12:43Z</time>
      </trkpt>
      <trkpt lat="42.819558698683977" lon="13.273260667920113">
        <ele>2284.2800000000002</ele>
        <time>2019-06-18T10:12:45Z</time>
      </trkpt>
      <trkpt lat="42.819619132205844" lon="13.273291094228625">
        <ele>2286.5</ele>
        <time>2019-06-18T10:13:00Z</time>
      </trkpt>
      <trkpt lat="42.81968099065125" lon="13.273315150290728">
        <ele>2288.5500000000002</ele>
        <time>2019-06-18T10:13:14Z</time>
      </trkpt>
      <trkpt lat="42.819733461365104" lon="13.273369297385216">
        <ele>2290.79</ele>
        <time>2019-06-18T10:13:27Z</time>
      </trkpt>
      <trkpt lat="42.819804456084967" lon="13.273385474458337">
        <ele>2293.1100000000001</ele>
        <time>2019-06-18T10:13:41Z</time>
      </trkpt>
      <trkpt lat="42.819862123578787" lon="13.273429814726114">
        <ele>2295.8099999999999</ele>
        <time>2019-06-18T10:13:55Z</time>
      </trkpt>
      <trkpt lat="42.819926161319017" lon="13.273469461128116">
        <ele>2298.9400000000001</ele>
        <time>2019-06-18T10:14:10Z</time>
      </trkpt>
      <trkpt lat="42.81999715603888" lon="13.273488404229283">
        <ele>2300.8899999999999</ele>
        <time>2019-06-18T10:14:25Z</time>
      </trkpt>
      <trkpt lat="42.820066977292299" lon="13.273510448634624">
        <ele>2303.9200000000001</ele>
        <time>2019-06-18T10:14:39Z</time>
      </trkpt>
      <trkpt lat="42.820143084973097" lon="13.27354640699923">
        <ele>2305.5500000000002</ele>
        <time>2019-06-18T10:14:53Z</time>
      </trkpt>
      <trkpt lat="42.820224389433861" lon="13.273593513295054">
        <ele>2308.6199999999999</ele>
        <time>2019-06-18T10:15:10Z</time>
      </trkpt>
      <trkpt lat="42.820292869582772" lon="13.273626202717423">
        <ele>2310.25</ele>
        <time>2019-06-18T10:15:24Z</time>
      </trkpt>
      <trkpt lat="42.820364199578762" lon="13.27366903424263">
        <ele>2313.3400000000001</ele>
        <time>2019-06-18T10:15:40Z</time>
      </trkpt>
      <trkpt lat="42.820445587858558" lon="13.273703651502728">
        <ele>2315.5100000000002</ele>
        <time>2019-06-18T10:15:57Z</time>
      </trkpt>
      <trkpt lat="42.820507446303964" lon="13.273730389773846">
        <ele>2318.6900000000001</ele>
        <time>2019-06-18T10:16:12Z</time>
      </trkpt>
      <trkpt lat="42.820575591176748" lon="13.273773640394211">
        <ele>2320.1100000000001</ele>
        <time>2019-06-18T10:16:27Z</time>
      </trkpt>
      <trkpt lat="42.820648765191436" lon="13.273793421685696">
        <ele>2323.3200000000002</ele>
        <time>2019-06-18T10:16:42Z</time>
      </trkpt>
      <trkpt lat="42.820710707455873" lon="13.273833990097046">
        <ele>2326.1900000000001</ele>
        <time>2019-06-18T10:16:56Z</time>
      </trkpt>
      <trkpt lat="42.820761250331998" lon="13.273868942633271">
        <ele>2327.5900000000001</ele>
        <time>2019-06-18T10:17:07Z</time>
      </trkpt>
      <trkpt lat="42.820819420740008" lon="13.27389920130372">
        <ele>2330.54</ele>
        <time>2019-06-18T10:17:20Z</time>
      </trkpt>
      <trkpt lat="42.820892259478569" lon="13.273924933746457">
        <ele>2333.27</ele>
        <time>2019-06-18T10:17:36Z</time>
      </trkpt>
      <trkpt lat="42.82096560113132" lon="13.273967346176505">
        <ele>2336.04</ele>
        <time>2019-06-18T10:17:51Z</time>
      </trkpt>
      <trkpt lat="42.82103936187923" lon="13.274001879617572">
        <ele>2339.0500000000002</ele>
        <time>2019-06-18T10:18:06Z</time>
      </trkpt>
      <trkpt lat="42.821117229759693" lon="13.274061055853963">
        <ele>2342.04</ele>
        <time>2019-06-18T10:18:23Z</time>
      </trkpt>
      <trkpt lat="42.821187134832144" lon="13.274092907086015">
        <ele>2343.5100000000002</ele>
        <time>2019-06-18T10:18:36Z</time>
      </trkpt>
      <trkpt lat="42.82126416452229" lon="13.274140181019902">
        <ele>2346.1500000000001</ele>
        <time>2019-06-18T10:18:52Z</time>
      </trkpt>
      <trkpt lat="42.821265254169703" lon="13.274188293144107">
        <ele>2338.9899999999998</ele>
        <time>2019-06-18T10:18:59Z</time>
      </trkpt>
      <trkpt lat="42.821263242512941" lon="13.274196172133088">
        <ele>2349</ele>
        <time>2019-06-18T10:19:00Z</time>
      </trkpt>
      <trkpt lat="42.821259638294578" lon="13.274220395833254">
        <ele>2347.52</ele>
        <time>2019-06-18T10:19:03Z</time>
      </trkpt>
      <trkpt lat="42.821296686306596" lon="13.274285942316055">
        <ele>2349.6199999999999</ele>
        <time>2019-06-18T10:19:17Z</time>
      </trkpt>
      <trkpt lat="42.82132082618773" lon="13.274280242621899">
        <ele>2350.0999999999999</ele>
        <time>2019-06-18T10:19:30Z</time>
      </trkpt>
      <trkpt lat="42.82138679176569" lon="13.274292564019561">
        <ele>2351.6799999999998</ele>
        <time>2019-06-18T10:19:42Z</time>
      </trkpt>
      <trkpt lat="42.821424677968025" lon="13.274360876530409">
        <ele>2354.6399999999999</ele>
        <time>2019-06-18T10:19:56Z</time>
      </trkpt>
      <trkpt lat="42.821456529200077" lon="13.274443689733744">
        <ele>2356.98</ele>
        <time>2019-06-18T10:20:12Z</time>
      </trkpt>
      <trkpt lat="42.821465162560344" lon="13.274515941739082">
        <ele>2359.29</ele>
        <time>2019-06-18T10:20:25Z</time>
      </trkpt>
      <trkpt lat="42.821465162560344" lon="13.274527173489332">
        <ele>2359.0599999999999</ele>
        <time>2019-06-18T10:20:37Z</time>
      </trkpt>
      <trkpt lat="42.821466838940978" lon="13.274528263136744">
        <ele>2358.48</ele>
        <time>2019-06-18T10:21:02Z</time>
      </trkpt>
      <trkpt lat="42.82147672958672" lon="13.274526838213205">
        <ele>2359.4899999999998</ele>
        <time>2019-06-18T10:21:09Z</time>
      </trkpt>
      <trkpt lat="42.821471951901913" lon="13.274527257308364">
        <ele>2359.8899999999999</ele>
        <time>2019-06-18T10:21:25Z</time>
      </trkpt>
      <trkpt lat="42.821501288563013" lon="13.274551816284657">
        <ele>2360.8099999999999</ele>
        <time>2019-06-18T10:21:38Z</time>
      </trkpt>
      <trkpt lat="42.8215969260782" lon="13.274549301713705">
        <ele>2363.2199999999998</ele>
        <time>2019-06-18T10:21:51Z</time>
      </trkpt>
      <trkpt lat="42.821682505309582" lon="13.274555336683989">
        <ele>2365.6900000000001</ele>
        <time>2019-06-18T10:22:07Z</time>
      </trkpt>
      <trkpt lat="42.82171712256968" lon="13.274605292826891">
        <ele>2367.8099999999999</ele>
        <time>2019-06-18T10:22:19Z</time>
      </trkpt>
      <trkpt lat="42.821782333776355" lon="13.274665893986821">
        <ele>2370.1799999999998</ele>
        <time>2019-06-18T10:22:33Z</time>
      </trkpt>
      <trkpt lat="42.821856932714581" lon="13.27472448348999">
        <ele>2372.3699999999999</ele>
        <time>2019-06-18T10:22:45Z</time>
      </trkpt>
      <trkpt lat="42.821956509724259" lon="13.274785755202174">
        <ele>2374.7800000000002</ele>
        <time>2019-06-18T10:23:00Z</time>
      </trkpt>
      <trkpt lat="42.822042005136609" lon="13.274841327220201">
        <ele>2376.1399999999999</ele>
        <time>2019-06-18T10:23:16Z</time>
      </trkpt>
      <trkpt lat="42.821986768394709" lon="13.274865550920367">
        <ele>2378.1199999999999</ele>
        <time>2019-06-18T10:23:25Z</time>
      </trkpt>
      <trkpt lat="42.82195994630456" lon="13.274871502071619">
        <ele>2378.5799999999999</ele>
        <time>2019-06-18T10:23:28Z</time>
      </trkpt>
      <trkpt lat="42.821824578568339" lon="13.274896815419197">
        <ele>2379.75</ele>
        <time>2019-06-18T10:23:42Z</time>
      </trkpt>
      <trkpt lat="42.821739921346307" lon="13.274982562288642">
        <ele>2381.98</ele>
        <time>2019-06-18T10:23:58Z</time>
      </trkpt>
      <trkpt lat="42.821816364303231" lon="13.275063866749406">
        <ele>2384.6500000000001</ele>
        <time>2019-06-18T10:24:13Z</time>
      </trkpt>
      <trkpt lat="42.821920551359653" lon="13.275131257250905">
        <ele>2387.3000000000002</ele>
        <time>2019-06-18T10:24:29Z</time>
      </trkpt>
      <trkpt lat="42.822040328755975" lon="13.275181129574776">
        <ele>2388.8800000000001</ele>
        <time>2019-06-18T10:24:45Z</time>
      </trkpt>
      <trkpt lat="42.822149880230427" lon="13.275229660794139">
        <ele>2390.6700000000001</ele>
        <time>2019-06-18T10:25:01Z</time>
      </trkpt>
      <trkpt lat="42.822257084771991" lon="13.275196719914675">
        <ele>2392.73</ele>
        <time>2019-06-18T10:25:17Z</time>
      </trkpt>
      <trkpt lat="42.822332018986344" lon="13.275167131796479">
        <ele>2394.6599999999999</ele>
        <time>2019-06-18T10:25:29Z</time>
      </trkpt>
      <trkpt lat="42.822332689538598" lon="13.27525656670332">
        <ele>2396.9200000000001</ele>
        <time>2019-06-18T10:25:40Z</time>
      </trkpt>
      <trkpt lat="42.822355655953288" lon="13.275362849235535">
        <ele>2399.98</ele>
        <time>2019-06-18T10:25:53Z</time>
      </trkpt>
      <trkpt lat="42.822365798056126" lon="13.275476591661572">
        <ele>2402.1900000000001</ele>
        <time>2019-06-18T10:26:09Z</time>
      </trkpt>
      <trkpt lat="42.822387842461467" lon="13.275606762617826">
        <ele>2405.2399999999998</ele>
        <time>2019-06-18T10:26:26Z</time>
      </trkpt>
      <trkpt lat="42.822391027584672" lon="13.275699215009809">
        <ele>2407.3600000000001</ele>
        <time>2019-06-18T10:26:41Z</time>
      </trkpt>
      <trkpt lat="42.822396224364638" lon="13.275798624381423">
        <ele>2410.04</ele>
        <time>2019-06-18T10:26:56Z</time>
      </trkpt>
      <trkpt lat="42.822464872151613" lon="13.275788817554712">
        <ele>2411.5999999999999</ele>
        <time>2019-06-18T10:27:09Z</time>
      </trkpt>
      <trkpt lat="42.822572076693177" lon="13.275725031271577">
        <ele>2414.3600000000001</ele>
        <time>2019-06-18T10:27:27Z</time>
      </trkpt>
      <trkpt lat="42.822655225172639" lon="13.275667866691947">
        <ele>2416.3600000000001</ele>
        <time>2019-06-18T10:27:42Z</time>
      </trkpt>
      <trkpt lat="42.822741223499179" lon="13.275580946356058">
        <ele>2419.1999999999998</ele>
        <time>2019-06-18T10:27:59Z</time>
      </trkpt>
      <trkpt lat="42.82281506806612" lon="13.275509029626846">
        <ele>2420.9699999999998</ele>
        <time>2019-06-18T10:28:13Z</time>
      </trkpt>
      <trkpt lat="42.822905508801341" lon="13.275415990501642">
        <ele>2423.1900000000001</ele>
        <time>2019-06-18T10:28:29Z</time>
      </trkpt>
      <trkpt lat="42.822988070547581" lon="13.275351449847221">
        <ele>2425.75</ele>
        <time>2019-06-18T10:28:44Z</time>
      </trkpt>
      <trkpt lat="42.823074236512184" lon="13.27532647177577">
        <ele>2429.0700000000002</ele>
        <time>2019-06-18T10:28:58Z</time>
      </trkpt>
      <trkpt lat="42.823125869035721" lon="13.275315742939711">
        <ele>2432.1799999999998</ele>
        <time>2019-06-18T10:29:07Z</time>
      </trkpt>
      <trkpt lat="42.8232357557863" lon="13.275293949991465">
        <ele>2434.5799999999999</ele>
        <time>2019-06-18T10:29:27Z</time>
      </trkpt>
      <trkpt lat="42.823298703879118" lon="13.275435520336032">
        <ele>2436.98</ele>
        <time>2019-06-18T10:29:44Z</time>
      </trkpt>
      <trkpt lat="42.823363998904824" lon="13.27558153308928">
        <ele>2440.0999999999999</ele>
        <time>2019-06-18T10:30:03Z</time>
      </trkpt>
      <trkpt lat="42.823429964482784" lon="13.275709692388773">
        <ele>2442.4099999999999</ele>
        <time>2019-06-18T10:30:20Z</time>
      </trkpt>
      <trkpt lat="42.823520991951227" lon="13.275685720145702">
        <ele>2445</ele>
        <time>2019-06-18T10:30:37Z</time>
      </trkpt>
      <trkpt lat="42.823554435744882" lon="13.275654623284936">
        <ele>2448.3699999999999</ele>
        <time>2019-06-18T10:30:43Z</time>
      </trkpt>
      <trkpt lat="42.823559967800975" lon="13.275648755952716">
        <ele>2447.5999999999999</ele>
        <time>2019-06-18T10:30:44Z</time>
      </trkpt>
      <trkpt lat="42.823571283370256" lon="13.27563526108861">
        <ele>2446.04</ele>
        <time>2019-06-18T10:30:46Z</time>
      </trkpt>
      <trkpt lat="42.823663484305143" lon="13.275574240833521">
        <ele>2448.5999999999999</ele>
        <time>2019-06-18T10:31:02Z</time>
      </trkpt>
      <trkpt lat="42.823756774887443" lon="13.275525206699967">
        <ele>2450.8800000000001</ele>
        <time>2019-06-18T10:31:17Z</time>
      </trkpt>
      <trkpt lat="42.823862303048372" lon="13.275507856160402">
        <ele>2453.6799999999998</ele>
        <time>2019-06-18T10:31:33Z</time>
      </trkpt>
      <trkpt lat="42.823947463184595" lon="13.275418505072594">
        <ele>2455.9000000000001</ele>
        <time>2019-06-18T10:31:49Z</time>
      </trkpt>
      <trkpt lat="42.824082160368562" lon="13.275409201160073">
        <ele>2458.3699999999999</ele>
        <time>2019-06-18T10:32:08Z</time>
      </trkpt>
      <trkpt lat="42.824154999107122" lon="13.275362094864249">
        <ele>2460</ele>
        <time>2019-06-18T10:32:20Z</time>
      </trkpt>
      <trkpt lat="42.824237141758204" lon="13.275283304974437">
        <ele>2462.3600000000001</ele>
        <time>2019-06-18T10:32:36Z</time>
      </trkpt>
      <trkpt lat="42.824318613857031" lon="13.275223290547729">
        <ele>2464.5500000000002</ele>
        <time>2019-06-18T10:32:51Z</time>
      </trkpt>
      <trkpt lat="42.824397487565875" lon="13.275140980258584">
        <ele>2466.0999999999999</ele>
        <time>2019-06-18T10:33:05Z</time>
      </trkpt>
      <trkpt lat="42.82447200268507" lon="13.275070236995816">
        <ele>2468.1700000000001</ele>
        <time>2019-06-18T10:33:21Z</time>
      </trkpt>
      <trkpt lat="42.824478708207607" lon="13.275024890899658">
        <ele>2468.1700000000001</ele>
        <time>2019-06-18T10:33:31Z</time>
      </trkpt>
      <trkpt lat="42.82448910176754" lon="13.275001924484968">
        <ele>2468.4200000000001</ele>
        <time>2019-06-18T10:33:42Z</time>
      </trkpt>
      <trkpt lat="42.82452673651278" lon="13.274989686906338">
        <ele>2468.5100000000002</ele>
        <time>2019-06-18T10:33:52Z</time>
      </trkpt>
      <trkpt lat="42.824487509205937" lon="13.275020364671946">
        <ele>2468.7600000000002</ele>
        <time>2019-06-18T10:34:02Z</time>
      </trkpt>
      <trkpt lat="42.824488431215286" lon="13.275031847879291">
        <ele>2468.8000000000002</ele>
        <time>2019-06-18T10:34:14Z</time>
      </trkpt>
      <trkpt lat="42.824496561661363" lon="13.275064034387469">
        <ele>2468.7600000000002</ele>
        <time>2019-06-18T10:34:30Z</time>
      </trkpt>
      <trkpt lat="42.824502261355519" lon="13.27505623921752">
        <ele>2468.9400000000001</ele>
        <time>2019-06-18T10:34:47Z</time>
      </trkpt>
      <trkpt lat="42.824510810896754" lon="13.275064118206501">
        <ele>2467.9400000000001</ele>
        <time>2019-06-18T10:35:06Z</time>
      </trkpt>
      <trkpt lat="42.824510978534818" lon="13.275051210075617">
        <ele>2467.4699999999998</ele>
        <time>2019-06-18T10:35:30Z</time>
      </trkpt>
      <trkpt lat="42.82450276426971" lon="13.27506747096777">
        <ele>2468.0900000000001</ele>
        <time>2019-06-18T10:35:49Z</time>
      </trkpt>
      <trkpt lat="42.824504189193249" lon="13.275068644434214">
        <ele>2467.3200000000002</ele>
        <time>2019-06-18T10:36:14Z</time>
      </trkpt>
      <trkpt lat="42.824501674622297" lon="13.275046348571777">
        <ele>2467.6100000000001</ele>
        <time>2019-06-18T10:37:04Z</time>
      </trkpt>
      <trkpt lat="42.824496729299426" lon="13.275046767666936">
        <ele>2468.1799999999998</ele>
        <time>2019-06-18T10:38:08Z</time>
      </trkpt>
      <trkpt lat="42.82447493635118" lon="13.275048779323697">
        <ele>2467.8000000000002</ele>
        <time>2019-06-18T10:38:28Z</time>
      </trkpt>
      <trkpt lat="42.824483066797256" lon="13.275057496502995">
        <ele>2467.98</ele>
        <time>2019-06-18T10:39:02Z</time>
      </trkpt>
      <trkpt lat="42.824490861967206" lon="13.27506747096777">
        <ele>2467.9200000000001</ele>
        <time>2019-06-18T10:39:27Z</time>
      </trkpt>
      <trkpt lat="42.824493125081062" lon="13.275068812072277">
        <ele>2467.8600000000001</ele>
        <time>2019-06-18T10:40:15Z</time>
      </trkpt>
      <trkpt lat="42.824492622166872" lon="13.275065878406167">
        <ele>2468.23</ele>
        <time>2019-06-18T10:41:07Z</time>
      </trkpt>
      <trkpt lat="42.824491197243333" lon="13.275070572271943">
        <ele>2468.29</ele>
        <time>2019-06-18T10:41:45Z</time>
      </trkpt>
      <trkpt lat="42.824492622166872" lon="13.275080462917686">
        <ele>2468.0700000000002</ele>
        <time>2019-06-18T10:42:20Z</time>
      </trkpt>
      <trkpt lat="42.824490107595921" lon="13.275080295279622">
        <ele>2468.1100000000001</ele>
        <time>2019-06-18T10:42:47Z</time>
      </trkpt>
      <trkpt lat="42.824502512812614" lon="13.275071745738387">
        <ele>2467.96</ele>
        <time>2019-06-18T10:43:10Z</time>
      </trkpt>
      <trkpt lat="42.824487593024969" lon="13.275060849264264">
        <ele>2468.3400000000001</ele>
        <time>2019-06-18T10:43:43Z</time>
      </trkpt>
      <trkpt lat="42.824482396245003" lon="13.275055903941393">
        <ele>2468.4499999999998</ele>
        <time>2019-06-18T10:44:31Z</time>
      </trkpt>
      <trkpt lat="42.824484826996922" lon="13.275040984153748">
        <ele>2468.6100000000001</ele>
        <time>2019-06-18T10:45:25Z</time>
      </trkpt>
      <trkpt lat="42.824483318254352" lon="13.275036877021194">
        <ele>2468.73</ele>
        <time>2019-06-18T10:46:22Z</time>
      </trkpt>
      <trkpt lat="42.824482312425971" lon="13.275038553401828">
        <ele>2468.54</ele>
        <time>2019-06-18T10:47:31Z</time>
      </trkpt>
      <trkpt lat="42.824481055140495" lon="13.275044839829206">
        <ele>2471.6100000000001</ele>
        <time>2019-06-18T10:48:26Z</time>
      </trkpt>
      <trkpt lat="42.824479630216956" lon="13.27504551038146">
        <ele>2471.5700000000002</ele>
        <time>2019-06-18T10:48:27Z</time>
      </trkpt>
      <trkpt lat="42.824486503377557" lon="13.275053137913346">
        <ele>2469.79</ele>
        <time>2019-06-18T10:48:30Z</time>
      </trkpt>
      <trkpt lat="42.824500920251012" lon="13.275044923648238">
        <ele>2468.7600000000002</ele>
        <time>2019-06-18T10:48:51Z</time>
      </trkpt>
      <trkpt lat="42.824492789804935" lon="13.275057915598154">
        <ele>2469.3200000000002</ele>
        <time>2019-06-18T10:49:16Z</time>
      </trkpt>
      <trkpt lat="42.824491951614618" lon="13.275065459311008">
        <ele>2469.21</ele>
        <time>2019-06-18T10:49:33Z</time>
      </trkpt>
      <trkpt lat="42.824483988806605" lon="13.275068057700992">
        <ele>2468.8299999999999</ele>
        <time>2019-06-18T10:50:06Z</time>
      </trkpt>
      <trkpt lat="42.824462531134486" lon="13.27505623921752">
        <ele>2469.25</ele>
        <time>2019-06-18T10:50:33Z</time>
      </trkpt>
      <trkpt lat="42.824459346011281" lon="13.275047605857253">
        <ele>2469.6399999999999</ele>
        <time>2019-06-18T10:51:20Z</time>
      </trkpt>
      <trkpt lat="42.824465129524469" lon="13.275053137913346">
        <ele>2469.46</ele>
        <time>2019-06-18T10:51:50Z</time>
      </trkpt>
      <trkpt lat="42.824475942179561" lon="13.275051712989807">
        <ele>2469.54</ele>
        <time>2019-06-18T10:52:21Z</time>
      </trkpt>
      <trkpt lat="42.824481893330812" lon="13.275055149570107">
        <ele>2469.4099999999999</ele>
        <time>2019-06-18T10:52:53Z</time>
      </trkpt>
      <trkpt lat="42.824474601075053" lon="13.275069734081626">
        <ele>2469.3400000000001</ele>
        <time>2019-06-18T10:53:33Z</time>
      </trkpt>
      <trkpt lat="42.824472254142165" lon="13.275076188147068">
        <ele>2469.6599999999999</ele>
        <time>2019-06-18T10:54:15Z</time>
      </trkpt>
      <trkpt lat="42.824465883895755" lon="13.275077780708671">
        <ele>2469.6799999999998</ele>
        <time>2019-06-18T10:55:01Z</time>
      </trkpt>
      <trkpt lat="42.824468063190579" lon="13.275076942518353">
        <ele>2470</ele>
        <time>2019-06-18T10:55:49Z</time>
      </trkpt>
      <trkpt lat="42.824467392638326" lon="13.275075517594814">
        <ele>2469.98</ele>
        <time>2019-06-18T10:56:39Z</time>
      </trkpt>
      <trkpt lat="42.82447149977088" lon="13.275070991367102">
        <ele>2470.1300000000001</ele>
        <time>2019-06-18T10:57:17Z</time>
      </trkpt>
      <trkpt lat="42.824469823390245" lon="13.275067387148738">
        <ele>2470.1999999999998</ele>
        <time>2019-06-18T10:58:04Z</time>
      </trkpt>
      <trkpt lat="42.824470745399594" lon="13.275061016902328">
        <ele>2469.9400000000001</ele>
        <time>2019-06-18T10:58:56Z</time>
      </trkpt>
      <trkpt lat="42.824469907209277" lon="13.275061352178454">
        <ele>2469.8699999999999</ele>
        <time>2019-06-18T10:59:38Z</time>
      </trkpt>
      <trkpt lat="42.824464710429311" lon="13.275055987760425">
        <ele>2470.4499999999998</ele>
        <time>2019-06-18T11:00:29Z</time>
      </trkpt>
      <trkpt lat="42.824461692944169" lon="13.275057496502995">
        <ele>2470.29</ele>
        <time>2019-06-18T11:01:20Z</time>
      </trkpt>
      <trkpt lat="42.824463536962867" lon="13.275062777101994">
        <ele>2470.2399999999998</ele>
        <time>2019-06-18T11:01:47Z</time>
      </trkpt>
      <trkpt lat="42.824479630216956" lon="13.27506604604423">
        <ele>2466.8000000000002</ele>
        <time>2019-06-18T11:02:04Z</time>
      </trkpt>
      <trkpt lat="42.824477283284068" lon="13.275064118206501">
        <ele>2472.0500000000002</ele>
        <time>2019-06-18T11:02:05Z</time>
      </trkpt>
      <trkpt lat="42.82447837293148" lon="13.275066381320357">
        <ele>2470.5900000000001</ele>
        <time>2019-06-18T11:02:08Z</time>
      </trkpt>
      <trkpt lat="42.824495388194919" lon="13.275073757395148">
        <ele>2470.4200000000001</ele>
        <time>2019-06-18T11:02:40Z</time>
      </trkpt>
      <trkpt lat="42.824505362659693" lon="13.275086246430874">
        <ele>2470.3400000000001</ele>
        <time>2019-06-18T11:03:26Z</time>
      </trkpt>
      <trkpt lat="42.82451793551445" lon="13.275095885619521">
        <ele>2470.5300000000002</ele>
        <time>2019-06-18T11:03:57Z</time>
      </trkpt>
      <trkpt lat="42.824518019333482" lon="13.27508850954473">
        <ele>2470.75</ele>
        <time>2019-06-18T11:04:26Z</time>
      </trkpt>
      <trkpt lat="42.824518773704767" lon="13.275079792365432">
        <ele>2470.8899999999999</ele>
        <time>2019-06-18T11:05:04Z</time>
      </trkpt>
      <trkpt lat="42.824517767876387" lon="13.275088844820857">
        <ele>2470.5900000000001</ele>
        <time>2019-06-18T11:05:39Z</time>
      </trkpt>
      <trkpt lat="42.824518773704767" lon="13.275088174268603">
        <ele>2471.8099999999999</ele>
        <time>2019-06-18T11:06:12Z</time>
      </trkpt>
      <trkpt lat="42.824523048475385" lon="13.275084234774113">
        <ele>2471.6799999999998</ele>
        <time>2019-06-18T11:06:43Z</time>
      </trkpt>
      <trkpt lat="42.824537381529808" lon="13.275087755173445">
        <ele>2471.4400000000001</ele>
        <time>2019-06-18T11:07:19Z</time>
      </trkpt>
      <trkpt lat="42.824525982141495" lon="13.275094628334045">
        <ele>2471.0100000000002</ele>
        <time>2019-06-18T11:07:56Z</time>
      </trkpt>
      <trkpt lat="42.824526485055685" lon="13.275091359391809">
        <ele>2470.8600000000001</ele>
        <time>2019-06-18T11:08:25Z</time>
      </trkpt>
      <trkpt lat="42.824529083445668" lon="13.27508264221251">
        <ele>2470.3899999999999</ele>
        <time>2019-06-18T11:08:57Z</time>
      </trkpt>
      <trkpt lat="42.824526987969875" lon="13.275082055479288">
        <ele>2470.8800000000001</ele>
        <time>2019-06-18T11:09:29Z</time>
      </trkpt>
      <trkpt lat="42.824522880837321" lon="13.275084653869271">
        <ele>2470.98</ele>
        <time>2019-06-18T11:10:00Z</time>
      </trkpt>
      <trkpt lat="42.824529502540827" lon="13.275084905326366">
        <ele>2470.8499999999999</ele>
        <time>2019-06-18T11:10:36Z</time>
      </trkpt>
      <trkpt lat="42.824531765654683" lon="13.275061100721359">
        <ele>2471.0599999999999</ele>
        <time>2019-06-18T11:11:26Z</time>
      </trkpt>
      <trkpt lat="42.824522545561194" lon="13.275066716596484">
        <ele>2471.02</ele>
        <time>2019-06-18T11:12:00Z</time>
      </trkpt>
      <trkpt lat="42.824520450085402" lon="13.275063615292311">
        <ele>2471.1199999999999</ele>
        <time>2019-06-18T11:12:34Z</time>
      </trkpt>
      <trkpt lat="42.824513325467706" lon="13.275081384927034">
        <ele>2471.2199999999998</ele>
        <time>2019-06-18T11:13:05Z</time>
      </trkpt>
      <trkpt lat="42.824511229991913" lon="13.275086916983128">
        <ele>2471.1900000000001</ele>
        <time>2019-06-18T11:13:38Z</time>
      </trkpt>
      <trkpt lat="42.824502596631646" lon="13.275087671354413">
        <ele>2471.0599999999999</ele>
        <time>2019-06-18T11:14:12Z</time>
      </trkpt>
      <trkpt lat="42.824494633823633" lon="13.275087922811508">
        <ele>2471.5599999999999</ele>
        <time>2019-06-18T11:14:44Z</time>
      </trkpt>
      <trkpt lat="42.824498657137156" lon="13.27508607879281">
        <ele>2471.4499999999998</ele>
        <time>2019-06-18T11:15:29Z</time>
      </trkpt>
      <trkpt lat="42.824504608288407" lon="13.275070656090975">
        <ele>2471.6700000000001</ele>
        <time>2019-06-18T11:16:09Z</time>
      </trkpt>
      <trkpt lat="42.824502680450678" lon="13.275069650262594">
        <ele>2471.71</ele>
        <time>2019-06-18T11:17:21Z</time>
      </trkpt>
      <trkpt lat="42.82450427301228" lon="13.275071075186133">
        <ele>2471.6199999999999</ele>
        <time>2019-06-18T11:18:34Z</time>
      </trkpt>
      <trkpt lat="42.824506368488073" lon="13.275068560615182">
        <ele>2472.0700000000002</ele>
        <time>2019-06-18T11:19:52Z</time>
      </trkpt>
      <trkpt lat="42.824508463963866" lon="13.275067722424865">
        <ele>2472.4200000000001</ele>
        <time>2019-06-18T11:21:04Z</time>
      </trkpt>
      <trkpt lat="42.824514750391245" lon="13.275056323036551">
        <ele>2471.96</ele>
        <time>2019-06-18T11:21:24Z</time>
      </trkpt>
      <trkpt lat="42.824510307982564" lon="13.275050120428205">
        <ele>2472.0799999999999</ele>
        <time>2019-06-18T11:21:59Z</time>
      </trkpt>
      <trkpt lat="42.824516342952847" lon="13.275044420734048">
        <ele>2472.0500000000002</ele>
        <time>2019-06-18T11:22:57Z</time>
      </trkpt>
      <trkpt lat="42.824517851695418" lon="13.275034362450242">
        <ele>2471.98</ele>
        <time>2019-06-18T11:24:00Z</time>
      </trkpt>
      <trkpt lat="42.824510643258691" lon="13.275050707161427">
        <ele>2472.3200000000002</ele>
        <time>2019-06-18T11:24:08Z</time>
      </trkpt>
      <trkpt lat="42.82451257109642" lon="13.275037882849574">
        <ele>2473.0700000000002</ele>
        <time>2019-06-18T11:24:23Z</time>
      </trkpt>
      <trkpt lat="42.824514666572213" lon="13.275037966668606">
        <ele>2473.4200000000001</ele>
        <time>2019-06-18T11:24:45Z</time>
      </trkpt>
      <trkpt lat="42.824510643258691" lon="13.275047102943063">
        <ele>2472.7600000000002</ele>
        <time>2019-06-18T11:25:03Z</time>
      </trkpt>
      <trkpt lat="42.824509302154183" lon="13.275040984153748">
        <ele>2472.6799999999998</ele>
        <time>2019-06-18T11:25:16Z</time>
      </trkpt>
      <trkpt lat="42.824526987969875" lon="13.274999912828207">
        <ele>2472.9000000000001</ele>
        <time>2019-06-18T11:25:26Z</time>
      </trkpt>
      <trkpt lat="42.824544757604599" lon="13.27497317455709">
        <ele>2473.4400000000001</ele>
        <time>2019-06-18T11:25:40Z</time>
      </trkpt>
      <trkpt lat="42.824538890272379" lon="13.27497904188931">
        <ele>2473.3699999999999</ele>
        <time>2019-06-18T11:26:07Z</time>
      </trkpt>
      <trkpt lat="42.824491281062365" lon="13.274979963898659">
        <ele>2473.3099999999999</ele>
        <time>2019-06-18T11:26:17Z</time>
      </trkpt>
      <trkpt lat="42.824479043483734" lon="13.275002092123032">
        <ele>2473.75</ele>
        <time>2019-06-18T11:26:33Z</time>
      </trkpt>
      <trkpt lat="42.824462028220296" lon="13.27500443905592">
        <ele>2473.48</ele>
        <time>2019-06-18T11:26:47Z</time>
      </trkpt>
      <trkpt lat="42.824460603296757" lon="13.275010390207171">
        <ele>2473.4699999999998</ele>
        <time>2019-06-18T11:27:02Z</time>
      </trkpt>
      <trkpt lat="42.82445683144033" lon="13.275003852322698">
        <ele>2473.7600000000002</ele>
        <time>2019-06-18T11:27:27Z</time>
      </trkpt>
      <trkpt lat="42.824446689337492" lon="13.275011479854584">
        <ele>2473.1199999999999</ele>
        <time>2019-06-18T11:27:46Z</time>
      </trkpt>
      <trkpt lat="42.824364295229316" lon="13.275005528703332">
        <ele>2471.3899999999999</ele>
        <time>2019-06-18T11:27:59Z</time>
      </trkpt>
      <trkpt lat="42.824258515611291" lon="13.275023968890309">
        <ele>2469.23</ele>
        <time>2019-06-18T11:28:13Z</time>
      </trkpt>
      <trkpt lat="42.824154663830996" lon="13.275044923648238">
        <ele>2467.0700000000002</ele>
        <time>2019-06-18T11:28:27Z</time>
      </trkpt>
      <trkpt lat="42.824041424319148" lon="13.275050036609173">
        <ele>2465.6100000000001</ele>
        <time>2019-06-18T11:28:42Z</time>
      </trkpt>
      <trkpt lat="42.823951737955213" lon="13.275166628882289">
        <ele>2463.2399999999998</ele>
        <time>2019-06-18T11:28:57Z</time>
      </trkpt>
      <trkpt lat="42.823939668014646" lon="13.275181883946061">
        <ele>2462.9699999999998</ele>
        <time>2019-06-18T11:28:59Z</time>
      </trkpt>
      <trkpt lat="42.823882754892111" lon="13.27530006878078">
        <ele>2461.3200000000002</ele>
        <time>2019-06-18T11:29:12Z</time>
      </trkpt>
      <trkpt lat="42.823825003579259" lon="13.275398388504982">
        <ele>2459.3299999999999</ele>
        <time>2019-06-18T11:29:26Z</time>
      </trkpt>
      <trkpt lat="42.823817459866405" lon="13.275425713509321">
        <ele>2459.0100000000002</ele>
        <time>2019-06-18T11:29:30Z</time>
      </trkpt>
      <trkpt lat="42.823727773502469" lon="13.275511544197798">
        <ele>2456.1300000000001</ele>
        <time>2019-06-18T11:29:44Z</time>
      </trkpt>
      <trkpt lat="42.823620568960905" lon="13.275574492290616">
        <ele>2453.9499999999998</ele>
        <time>2019-06-18T11:30:00Z</time>
      </trkpt>
      <trkpt lat="42.823523338884115" lon="13.2756616640836">
        <ele>2451.9699999999998</ele>
        <time>2019-06-18T11:30:15Z</time>
      </trkpt>
      <trkpt lat="42.823445303365588" lon="13.275699801743031">
        <ele>2450.0300000000002</ele>
        <time>2019-06-18T11:30:28Z</time>
      </trkpt>
      <trkpt lat="42.823398364707828" lon="13.275637608021498">
        <ele>2448.3400000000001</ele>
        <time>2019-06-18T11:30:44Z</time>
      </trkpt>
      <trkpt lat="42.823336757719517" lon="13.27549897134304">
        <ele>2445.2600000000002</ele>
        <time>2019-06-18T11:30:58Z</time>
      </trkpt>
      <trkpt lat="42.823260230943561" lon="13.275311468169093">
        <ele>2442.3499999999999</ele>
        <time>2019-06-18T11:31:15Z</time>
      </trkpt>
      <trkpt lat="42.823206251487136" lon="13.275289172306657">
        <ele>2440.1799999999998</ele>
        <time>2019-06-18T11:31:27Z</time>
      </trkpt>
      <trkpt lat="42.823142884299159" lon="13.275303337723017">
        <ele>2437.6700000000001</ele>
        <time>2019-06-18T11:31:48Z</time>
      </trkpt>
      <trkpt lat="42.823051186278462" lon="13.27532546594739">
        <ele>2434.6500000000001</ele>
        <time>2019-06-18T11:32:01Z</time>
      </trkpt>
      <trkpt lat="42.822960494086146" lon="13.275403333827853">
        <ele>2431.71</ele>
        <time>2019-06-18T11:32:16Z</time>
      </trkpt>
      <trkpt lat="42.822872903198004" lon="13.275478687137365">
        <ele>2429.4299999999998</ele>
        <time>2019-06-18T11:32:30Z</time>
      </trkpt>
      <trkpt lat="42.822785396128893" lon="13.275556052103639">
        <ele>2427.4699999999998</ele>
        <time>2019-06-18T11:32:43Z</time>
      </trkpt>
      <trkpt lat="42.822709456086159" lon="13.275629561394453">
        <ele>2425.4000000000001</ele>
        <time>2019-06-18T11:32:55Z</time>
      </trkpt>
      <trkpt lat="42.822614405304193" lon="13.275696700438857">
        <ele>2422.9699999999998</ele>
        <time>2019-06-18T11:33:09Z</time>
      </trkpt>
      <trkpt lat="42.822500914335251" lon="13.275763755664229">
        <ele>2420.4899999999998</ele>
        <time>2019-06-18T11:33:24Z</time>
      </trkpt>
      <trkpt lat="42.822363702580333" lon="13.275806838646531">
        <ele>2417.6399999999999</ele>
        <time>2019-06-18T11:33:41Z</time>
      </trkpt>
      <trkpt lat="42.822374179959297" lon="13.275780351832509">
        <ele>2416.7600000000002</ele>
        <time>2019-06-18T11:33:50Z</time>
      </trkpt>
      <trkpt lat="42.822371749207377" lon="13.275792421773076">
        <ele>2415.2800000000002</ele>
        <time>2019-06-18T11:34:01Z</time>
      </trkpt>
      <trkpt lat="42.822376526892185" lon="13.275796948000789">
        <ele>2414.9499999999998</ele>
        <time>2019-06-18T11:34:29Z</time>
      </trkpt>
      <trkpt lat="42.822375437244773" lon="13.27578823082149">
        <ele>2415.8200000000002</ele>
        <time>2019-06-18T11:34:36Z</time>
      </trkpt>
      <trkpt lat="42.822374850511551" lon="13.275789823383093">
        <ele>2415.8800000000001</ele>
        <time>2019-06-18T11:34:50Z</time>
      </trkpt>
      <trkpt lat="42.82237627543509" lon="13.275788063183427">
        <ele>2415.71</ele>
        <time>2019-06-18T11:35:10Z</time>
      </trkpt>
      <trkpt lat="42.82237971201539" lon="13.275790242478251">
        <ele>2415.54</ele>
        <time>2019-06-18T11:35:32Z</time>
      </trkpt>
      <trkpt lat="42.822380466386676" lon="13.275781525298953">
        <ele>2415.5599999999999</ele>
        <time>2019-06-18T11:35:47Z</time>
      </trkpt>
      <trkpt lat="42.822380969300866" lon="13.275785632431507">
        <ele>2415.4299999999998</ele>
        <time>2019-06-18T11:36:10Z</time>
      </trkpt>
      <trkpt lat="42.822405444458127" lon="13.275709860026836">
        <ele>2414.3299999999999</ele>
        <time>2019-06-18T11:36:28Z</time>
      </trkpt>
      <trkpt lat="42.822398655116558" lon="13.275581113994122">
        <ele>2411.8099999999999</ele>
        <time>2019-06-18T11:36:41Z</time>
      </trkpt>
      <trkpt lat="42.822372587397695" lon="13.275451948866248">
        <ele>2408.6300000000001</ele>
        <time>2019-06-18T11:36:54Z</time>
      </trkpt>
      <trkpt lat="42.822351381182671" lon="13.275305936113">
        <ele>2405.3299999999999</ele>
        <time>2019-06-18T11:37:08Z</time>
      </trkpt>
      <trkpt lat="42.822343418374658" lon="13.27516520395875">
        <ele>2402.2800000000002</ele>
        <time>2019-06-18T11:37:24Z</time>
      </trkpt>
      <trkpt lat="42.822305113077164" lon="13.275180961936712">
        <ele>2401.1799999999998</ele>
        <time>2019-06-18T11:37:34Z</time>
      </trkpt>
      <trkpt lat="42.822169242426753" lon="13.275234857574105">
        <ele>2398.3600000000001</ele>
        <time>2019-06-18T11:37:51Z</time>
      </trkpt>
      <trkpt lat="42.822057008743286" lon="13.275189930573106">
        <ele>2396.8299999999999</ele>
        <time>2019-06-18T11:38:05Z</time>
      </trkpt>
      <trkpt lat="42.821903703734279" lon="13.27511147595942">
        <ele>2394.3000000000002</ele>
        <time>2019-06-18T11:38:24Z</time>
      </trkpt>
      <trkpt lat="42.821798007935286" lon="13.275035535916686">
        <ele>2391.9299999999998</ele>
        <time>2019-06-18T11:38:39Z</time>
      </trkpt>
      <trkpt lat="42.821740424260497" lon="13.274962697178125">
        <ele>2389.6500000000001</ele>
        <time>2019-06-18T11:38:51Z</time>
      </trkpt>
      <trkpt lat="42.821850646287203" lon="13.274906286969781">
        <ele>2386.8299999999999</ele>
        <time>2019-06-18T11:39:06Z</time>
      </trkpt>
      <trkpt lat="42.821867074817419" lon="13.27490134164691">
        <ele>2386.6199999999999</ele>
        <time>2019-06-18T11:39:08Z</time>
      </trkpt>
      <trkpt lat="42.822005711495876" lon="13.274891786277294">
        <ele>2385.9400000000001</ele>
        <time>2019-06-18T11:39:23Z</time>
      </trkpt>
      <trkpt lat="42.822013339027762" lon="13.274832861497998">
        <ele>2383.2399999999998</ele>
        <time>2019-06-18T11:39:37Z</time>
      </trkpt>
      <trkpt lat="42.82186514697969" lon="13.27474107965827">
        <ele>2380.5700000000002</ele>
        <time>2019-06-18T11:39:55Z</time>
      </trkpt>
      <trkpt lat="42.821744279935956" lon="13.274646447971463">
        <ele>2377.5300000000002</ele>
        <time>2019-06-18T11:40:12Z</time>
      </trkpt>
      <trkpt lat="42.821675632148981" lon="13.274571681395173">
        <ele>2374.6799999999998</ele>
        <time>2019-06-18T11:40:26Z</time>
      </trkpt>
      <trkpt lat="42.821600278839469" lon="13.274561036378145">
        <ele>2371.6100000000001</ele>
        <time>2019-06-18T11:40:36Z</time>
      </trkpt>
      <trkpt lat="42.821481255814433" lon="13.274535639211535">
        <ele>2368.2399999999998</ele>
        <time>2019-06-18T11:40:52Z</time>
      </trkpt>
      <trkpt lat="42.82145619392395" lon="13.274467159062624">
        <ele>2366.4099999999999</ele>
        <time>2019-06-18T11:41:05Z</time>
      </trkpt>
      <trkpt lat="42.821451835334301" lon="13.274407060816884">
        <ele>2363.9099999999999</ele>
        <time>2019-06-18T11:41:17Z</time>
      </trkpt>
      <trkpt lat="42.821399196982384" lon="13.27433112077415">
        <ele>2361.02</ele>
        <time>2019-06-18T11:41:30Z</time>
      </trkpt>
      <trkpt lat="42.821361310780048" lon="13.27428761869669">
        <ele>2360.0799999999999</ele>
        <time>2019-06-18T11:41:40Z</time>
      </trkpt>
      <trkpt lat="42.821340439841151" lon="13.274285607039928">
        <ele>2358.73</ele>
        <time>2019-06-18T11:41:43Z</time>
      </trkpt>
      <trkpt lat="42.821277994662523" lon="13.274297844618559">
        <ele>2357.1500000000001</ele>
        <time>2019-06-18T11:41:56Z</time>
      </trkpt>
      <trkpt lat="42.821235749870539" lon="13.274328857660294">
        <ele>2357.1399999999999</ele>
        <time>2019-06-18T11:42:09Z</time>
      </trkpt>
      <trkpt lat="42.821237929165363" lon="13.274287283420563">
        <ele>2356.8099999999999</ele>
        <time>2019-06-18T11:42:25Z</time>
      </trkpt>
      <trkpt lat="42.821266930550337" lon="13.274145713075995">
        <ele>2354.4499999999998</ele>
        <time>2019-06-18T11:42:40Z</time>
      </trkpt>
      <trkpt lat="42.82125880010426" lon="13.274126518517733">
        <ele>2353.6999999999998</ele>
        <time>2019-06-18T11:42:42Z</time>
      </trkpt>
      <trkpt lat="42.821191241964698" lon="13.274058541283011">
        <ele>2350.98</ele>
        <time>2019-06-18T11:42:53Z</time>
      </trkpt>
      <trkpt lat="42.821080768480897" lon="13.273993832990527">
        <ele>2347.8600000000001</ele>
        <time>2019-06-18T11:43:10Z</time>
      </trkpt>
      <trkpt lat="42.821014886721969" lon="13.273936249315739">
        <ele>2345.6900000000001</ele>
        <time>2019-06-18T11:43:22Z</time>
      </trkpt>
      <trkpt lat="42.821000386029482" lon="13.273930298164487">
        <ele>2344.1199999999999</ele>
        <time>2019-06-18T11:43:24Z</time>
      </trkpt>
      <trkpt lat="42.820914052426815" lon="13.273886628448963">
        <ele>2341.5900000000001</ele>
        <time>2019-06-18T11:43:36Z</time>
      </trkpt>
      <trkpt lat="42.820837860926986" lon="13.273887382820249">
        <ele>2338.8899999999999</ele>
        <time>2019-06-18T11:43:47Z</time>
      </trkpt>
      <trkpt lat="42.820766530930996" lon="13.273830721154809">
        <ele>2337.3600000000001</ele>
        <time>2019-06-18T11:44:01Z</time>
      </trkpt>
      <trkpt lat="42.820692015811801" lon="13.273775652050972">
        <ele>2334.3499999999999</ele>
        <time>2019-06-18T11:44:15Z</time>
      </trkpt>
      <trkpt lat="42.820618003606796" lon="13.273753188550472">
        <ele>2331.9499999999998</ele>
        <time>2019-06-18T11:44:28Z</time>
      </trkpt>
      <trkpt lat="42.820562599226832" lon="13.273738017305732">
        <ele>2329.1999999999998</ele>
        <time>2019-06-18T11:44:39Z</time>
      </trkpt>
      <trkpt lat="42.820499818772078" lon="13.273693341761827">
        <ele>2326.9200000000001</ele>
        <time>2019-06-18T11:44:50Z</time>
      </trkpt>
      <trkpt lat="42.820407114923" lon="13.273653276264668">
        <ele>2324.3899999999999</ele>
        <time>2019-06-18T11:45:05Z</time>
      </trkpt>
      <trkpt lat="42.82032547518611" lon="13.273625280708075">
        <ele>2321.4400000000001</ele>
        <time>2019-06-18T11:45:19Z</time>
      </trkpt>
      <trkpt lat="42.820313489064574" lon="13.273610025644302">
        <ele>2320.8899999999999</ele>
        <time>2019-06-18T11:45:31Z</time>
      </trkpt>
      <trkpt lat="42.820221874862909" lon="13.273594351485372">
        <ele>2318.0799999999999</ele>
        <time>2019-06-18T11:45:44Z</time>
      </trkpt>
      <trkpt lat="42.820140905678272" lon="13.273542886599898">
        <ele>2315.04</ele>
        <time>2019-06-18T11:45:56Z</time>
      </trkpt>
      <trkpt lat="42.820083489641547" lon="13.273508604615927">
        <ele>2312.79</ele>
        <time>2019-06-18T11:46:04Z</time>
      </trkpt>
      <trkpt lat="42.819998916238546" lon="13.27346577309072">
        <ele>2310.5799999999999</ele>
        <time>2019-06-18T11:46:17Z</time>
      </trkpt>
      <trkpt lat="42.819934710860252" lon="13.273413805291057">
        <ele>2308.0599999999999</ele>
        <time>2019-06-18T11:46:28Z</time>
      </trkpt>
      <trkpt lat="42.819849718362093" lon="13.27339050360024">
        <ele>2305.21</ele>
        <time>2019-06-18T11:46:41Z</time>
      </trkpt>
      <trkpt lat="42.819807473570108" lon="13.273360496386886">
        <ele>2304.6300000000001</ele>
        <time>2019-06-18T11:46:53Z</time>
      </trkpt>
      <trkpt lat="42.819785429164767" lon="13.273357143625617">
        <ele>2303.0300000000002</ele>
        <time>2019-06-18T11:47:11Z</time>
      </trkpt>
      <trkpt lat="42.81970932148397" lon="13.273343564942479">
        <ele>2302.0799999999999</ele>
        <time>2019-06-18T11:47:24Z</time>
      </trkpt>
      <trkpt lat="42.819685097783804" lon="13.273307187482715">
        <ele>2299.5999999999999</ele>
        <time>2019-06-18T11:47:30Z</time>
      </trkpt>
      <trkpt lat="42.819651989266276" lon="13.273286484181881">
        <ele>2297.9200000000001</ele>
        <time>2019-06-18T11:47:36Z</time>
      </trkpt>
      <trkpt lat="42.819576971232891" lon="13.273278689011931">
        <ele>2295.0900000000001</ele>
        <time>2019-06-18T11:47:49Z</time>
      </trkpt>
      <trkpt lat="42.819548388943076" lon="13.273247424513102">
        <ele>2293.3200000000002</ele>
        <time>2019-06-18T11:47:55Z</time>
      </trkpt>
      <trkpt lat="42.81944110058248" lon="13.273198893293738">
        <ele>2291.3800000000001</ele>
        <time>2019-06-18T11:48:11Z</time>
      </trkpt>
      <trkpt lat="42.819348480552435" lon="13.273163605481386">
        <ele>2288.3200000000002</ele>
        <time>2019-06-18T11:48:26Z</time>
      </trkpt>
      <trkpt lat="42.8192656673491" lon="13.273113900795579">
        <ele>2286.0900000000001</ele>
        <time>2019-06-18T11:48:39Z</time>
      </trkpt>
      <trkpt lat="42.819175980985165" lon="13.273078612983227">
        <ele>2283.1300000000001</ele>
        <time>2019-06-18T11:48:52Z</time>
      </trkpt>
      <trkpt lat="42.819074392318726" lon="13.273020274937153">
        <ele>2281.6900000000001</ele>
        <time>2019-06-18T11:49:06Z</time>
      </trkpt>
      <trkpt lat="42.819045726209879" lon="13.273014491423965">
        <ele>2280.3200000000002</ele>
        <time>2019-06-18T11:49:10Z</time>
      </trkpt>
      <trkpt lat="42.818966852501035" lon="13.272996554151177">
        <ele>2277.3099999999999</ele>
        <time>2019-06-18T11:49:22Z</time>
      </trkpt>
      <trkpt lat="42.818878507241607" lon="13.272926984354854">
        <ele>2274.5100000000002</ele>
        <time>2019-06-18T11:49:34Z</time>
      </trkpt>
      <trkpt lat="42.818795191124082" lon="13.27284081839025">
        <ele>2273.0700000000002</ele>
        <time>2019-06-18T11:49:48Z</time>
      </trkpt>
      <trkpt lat="42.818686561658978" lon="13.272692542523146">
        <ele>2269.5599999999999</ele>
        <time>2019-06-18T11:50:05Z</time>
      </trkpt>
      <trkpt lat="42.818609615787864" lon="13.272518198937178">
        <ele>2268.6700000000001</ele>
        <time>2019-06-18T11:50:21Z</time>
      </trkpt>
      <trkpt lat="42.818528395146132" lon="13.272314099594951">
        <ele>2268.79</ele>
        <time>2019-06-18T11:50:38Z</time>
      </trkpt>
      <trkpt lat="42.818469051271677" lon="13.272115951403975">
        <ele>2269.6900000000001</ele>
        <time>2019-06-18T11:50:55Z</time>
      </trkpt>
      <trkpt lat="42.818438373506069" lon="13.271920317783952">
        <ele>2270.2399999999998</ele>
        <time>2019-06-18T11:51:12Z</time>
      </trkpt>
      <trkpt lat="42.818434098735452" lon="13.271744130179286">
        <ele>2270.75</ele>
        <time>2019-06-18T11:51:27Z</time>
      </trkpt>
      <trkpt lat="42.818415155634284" lon="13.271525278687477">
        <ele>2270.73</ele>
        <time>2019-06-18T11:51:44Z</time>
      </trkpt>
      <trkpt lat="42.818371150642633" lon="13.271294608712196">
        <ele>2268.5900000000001</ele>
        <time>2019-06-18T11:52:02Z</time>
      </trkpt>
      <trkpt lat="42.818285906687379" lon="13.27108564786613">
        <ele>2266.6399999999999</ele>
        <time>2019-06-18T11:52:20Z</time>
      </trkpt>
      <trkpt lat="42.818278698250651" lon="13.271062513813376">
        <ele>2266.4899999999998</ele>
        <time>2019-06-18T11:52:22Z</time>
      </trkpt>
      <trkpt lat="42.818226981908083" lon="13.270869981497526">
        <ele>2264.1100000000001</ele>
        <time>2019-06-18T11:52:37Z</time>
      </trkpt>
      <trkpt lat="42.818167805671692" lon="13.270693542435765">
        <ele>2261.7399999999998</ele>
        <time>2019-06-18T11:52:52Z</time>
      </trkpt>
      <trkpt lat="42.818106450140476" lon="13.270480055361986">
        <ele>2260.3000000000002</ele>
        <time>2019-06-18T11:53:09Z</time>
      </trkpt>
      <trkpt lat="42.818041406571865" lon="13.270281739532948">
        <ele>2258.0599999999999</ele>
        <time>2019-06-18T11:53:24Z</time>
      </trkpt>
      <trkpt lat="42.818023888394237" lon="13.27020806260407">
        <ele>2258.0500000000002</ele>
        <time>2019-06-18T11:53:34Z</time>
      </trkpt>
      <trkpt lat="42.818006370216608" lon="13.27015969902277">
        <ele>2257.6700000000001</ele>
        <time>2019-06-18T11:53:43Z</time>
      </trkpt>
      <trkpt lat="42.817941913381219" lon="13.269980242475867">
        <ele>2255.75</ele>
        <time>2019-06-18T11:53:58Z</time>
      </trkpt>
      <trkpt lat="42.817929927259684" lon="13.26983087696135">
        <ele>2255.1100000000001</ele>
        <time>2019-06-18T11:54:09Z</time>
      </trkpt>
      <trkpt lat="42.817878881469369" lon="13.269648738205433">
        <ele>2254.6199999999999</ele>
        <time>2019-06-18T11:54:24Z</time>
      </trkpt>
      <trkpt lat="42.817827835679054" lon="13.269492667168379">
        <ele>2254.23</ele>
        <time>2019-06-18T11:54:37Z</time>
      </trkpt>
      <trkpt lat="42.817770754918456" lon="13.269309187307954">
        <ele>2253.29</ele>
        <time>2019-06-18T11:54:52Z</time>
      </trkpt>
      <trkpt lat="42.817705208435655" lon="13.269101735204458">
        <ele>2252.2600000000002</ele>
        <time>2019-06-18T11:55:09Z</time>
      </trkpt>
      <trkpt lat="42.817688779905438" lon="13.269069381058216">
        <ele>2252.21</ele>
        <time>2019-06-18T11:55:12Z</time>
      </trkpt>
      <trkpt lat="42.817658102139831" lon="13.268902916461229">
        <ele>2252.27</ele>
        <time>2019-06-18T11:55:25Z</time>
      </trkpt>
      <trkpt lat="42.817643852904439" lon="13.268857821822166">
        <ele>2252.4299999999998</ele>
        <time>2019-06-18T11:55:39Z</time>
      </trkpt>
      <trkpt lat="42.817644104361534" lon="13.268847512081265">
        <ele>2251.8400000000001</ele>
        <time>2019-06-18T11:56:06Z</time>
      </trkpt>
      <trkpt lat="42.817614935338497" lon="13.268819684162736">
        <ele>2250.7800000000002</ele>
        <time>2019-06-18T11:56:11Z</time>
      </trkpt>
      <trkpt lat="42.817498007789254" lon="13.268731087446213">
        <ele>2250.2800000000002</ele>
        <time>2019-06-18T11:56:24Z</time>
      </trkpt>
      <trkpt lat="42.817432545125484" lon="13.268576860427856">
        <ele>2251.5100000000002</ele>
        <time>2019-06-18T11:56:39Z</time>
      </trkpt>
      <trkpt lat="42.817438244819641" lon="13.268491951748729">
        <ele>2252.6199999999999</ele>
        <time>2019-06-18T11:56:50Z</time>
      </trkpt>
      <trkpt lat="42.817436400800943" lon="13.268438475206494">
        <ele>2252.6700000000001</ele>
        <time>2019-06-18T11:57:01Z</time>
      </trkpt>
      <trkpt lat="42.817422654479742" lon="13.268337640911341">
        <ele>2254.0500000000002</ele>
        <time>2019-06-18T11:57:13Z</time>
      </trkpt>
      <trkpt lat="42.817412680014968" lon="13.268323391675949">
        <ele>2252.6900000000001</ele>
        <time>2019-06-18T11:57:16Z</time>
      </trkpt>
      <trkpt lat="42.817413937300444" lon="13.268310567364097">
        <ele>2254.5599999999999</ele>
        <time>2019-06-18T11:57:26Z</time>
      </trkpt>
      <trkpt lat="42.817423827946186" lon="13.268340574577451">
        <ele>2254.0300000000002</ele>
        <time>2019-06-18T11:57:42Z</time>
      </trkpt>
      <trkpt lat="42.817422403022647" lon="13.268385836854577">
        <ele>2251.98</ele>
        <time>2019-06-18T11:57:53Z</time>
      </trkpt>
      <trkpt lat="42.817398766055703" lon="13.268380220979452">
        <ele>2250.5</ele>
        <time>2019-06-18T11:58:03Z</time>
      </trkpt>
      <trkpt lat="42.817404046654701" lon="13.268382735550404">
        <ele>2249.9400000000001</ele>
        <time>2019-06-18T11:58:13Z</time>
      </trkpt>
      <trkpt lat="42.817399520426989" lon="13.268390782177448">
        <ele>2249.9099999999999</ele>
        <time>2019-06-18T11:58:43Z</time>
      </trkpt>
      <trkpt lat="42.817400107160211" lon="13.268386339768767">
        <ele>2249.6999999999998</ele>
        <time>2019-06-18T11:59:26Z</time>
      </trkpt>
      <trkpt lat="42.817396502941847" lon="13.268386675044894">
        <ele>2249.4699999999998</ele>
        <time>2019-06-18T12:00:32Z</time>
      </trkpt>
      <trkpt lat="42.817397257313132" lon="13.268383741378784">
        <ele>2249.1900000000001</ele>
        <time>2019-06-18T12:01:41Z</time>
      </trkpt>
      <trkpt lat="42.817396335303783" lon="13.26837720349431">
        <ele>2248.5999999999999</ele>
        <time>2019-06-18T12:02:43Z</time>
      </trkpt>
      <trkpt lat="42.817389043048024" lon="13.268369743600488">
        <ele>2248.3099999999999</ele>
        <time>2019-06-18T12:03:44Z</time>
      </trkpt>
      <trkpt lat="42.817388456314802" lon="13.268369575962424">
        <ele>2248.1700000000001</ele>
        <time>2019-06-18T12:04:46Z</time>
      </trkpt>
      <trkpt lat="42.817386360839009" lon="13.268371419981122">
        <ele>2248.25</ele>
        <time>2019-06-18T12:05:38Z</time>
      </trkpt>
      <trkpt lat="42.81739080324769" lon="13.268366977572441">
        <ele>2248.77</ele>
        <time>2019-06-18T12:06:40Z</time>
      </trkpt>
      <trkpt lat="42.817390216514468" lon="13.268364882096648">
        <ele>2248.3099999999999</ele>
        <time>2019-06-18T12:07:40Z</time>
      </trkpt>
      <trkpt lat="42.8173868637532" lon="13.268355578184128">
        <ele>2248.5500000000002</ele>
        <time>2019-06-18T12:08:00Z</time>
      </trkpt>
      <trkpt lat="42.817383259534836" lon="13.26842506416142">
        <ele>2248.46</ele>
        <time>2019-06-18T12:08:11Z</time>
      </trkpt>
      <trkpt lat="42.817395078018308" lon="13.268437637016177">
        <ele>2247.7399999999998</ele>
        <time>2019-06-18T12:08:22Z</time>
      </trkpt>
      <trkpt lat="42.817394575104117" lon="13.268436379730701">
        <ele>2247.3200000000002</ele>
        <time>2019-06-18T12:08:49Z</time>
      </trkpt>
      <trkpt lat="42.817389043048024" lon="13.268435290083289">
        <ele>2247.2600000000002</ele>
        <time>2019-06-18T12:09:16Z</time>
      </trkpt>
      <trkpt lat="42.81738250516355" lon="13.268434703350067">
        <ele>2247.0500000000002</ele>
        <time>2019-06-18T12:09:53Z</time>
      </trkpt>
      <trkpt lat="42.817379320040345" lon="13.26844903640449">
        <ele>2247.6599999999999</ele>
        <time>2019-06-18T12:10:15Z</time>
      </trkpt>
      <trkpt lat="42.817372111603618" lon="13.268443671986461">
        <ele>2247.4499999999998</ele>
        <time>2019-06-18T12:10:30Z</time>
      </trkpt>
      <trkpt lat="42.817353587597609" lon="13.268450796604156">
        <ele>2247.3899999999999</ele>
        <time>2019-06-18T12:10:38Z</time>
      </trkpt>
      <trkpt lat="42.817335231229663" lon="13.268494382500648">
        <ele>2246.7199999999998</ele>
        <time>2019-06-18T12:10:49Z</time>
      </trkpt>
      <trkpt lat="42.817349145188928" lon="13.268553977832198">
        <ele>2246.8000000000002</ele>
        <time>2019-06-18T12:11:03Z</time>
      </trkpt>
      <trkpt lat="42.817363394424319" lon="13.268580548465252">
        <ele>2246.3600000000001</ele>
        <time>2019-06-18T12:11:15Z</time>
      </trkpt>
      <trkpt lat="42.817371021956205" lon="13.268670067191124">
        <ele>2245.0300000000002</ele>
        <time>2019-06-18T12:11:28Z</time>
      </trkpt>
      <trkpt lat="42.817289214581251" lon="13.268630420789123">
        <ele>2241.9299999999998</ele>
        <time>2019-06-18T12:11:41Z</time>
      </trkpt>
      <trkpt lat="42.817223500460386" lon="13.268559845164418">
        <ele>2238.7199999999998</ele>
        <time>2019-06-18T12:11:52Z</time>
      </trkpt>
      <trkpt lat="42.81716164201498" lon="13.268485832959414">
        <ele>2236.1300000000001</ele>
        <time>2019-06-18T12:12:06Z</time>
      </trkpt>
      <trkpt lat="42.817095844075084" lon="13.268424812704325">
        <ele>2233.0700000000002</ele>
        <time>2019-06-18T12:12:19Z</time>
      </trkpt>
      <trkpt lat="42.817038930952549" lon="13.268347112461925">
        <ele>2231.0700000000002</ele>
        <time>2019-06-18T12:12:31Z</time>
      </trkpt>
      <trkpt lat="42.816967349499464" lon="13.268268657848239">
        <ele>2228.7199999999998</ele>
        <time>2019-06-18T12:12:46Z</time>
      </trkpt>
      <trkpt lat="42.816907586529851" lon="13.268216690048575">
        <ele>2226.1100000000001</ele>
        <time>2019-06-18T12:12:59Z</time>
      </trkpt>
      <trkpt lat="42.816853187978268" lon="13.268188275396824">
        <ele>2222.98</ele>
        <time>2019-06-18T12:13:11Z</time>
      </trkpt>
      <trkpt lat="42.81679954379797" lon="13.268151478841901">
        <ele>2221.9299999999998</ele>
        <time>2019-06-18T12:13:20Z</time>
      </trkpt>
      <trkpt lat="42.816796693950891" lon="13.268149886280298">
        <ele>2222.1199999999999</ele>
        <time>2019-06-18T12:13:21Z</time>
      </trkpt>
      <trkpt lat="42.816730057820678" lon="13.268078807741404">
        <ele>2219.3600000000001</ele>
        <time>2019-06-18T12:13:33Z</time>
      </trkpt>
      <trkpt lat="42.816634671762586" lon="13.267966574057937">
        <ele>2216.3000000000002</ele>
        <time>2019-06-18T12:13:51Z</time>
      </trkpt>
      <trkpt lat="42.816623440012336" lon="13.267947714775801">
        <ele>2216</ele>
        <time>2019-06-18T12:13:54Z</time>
      </trkpt>
      <trkpt lat="42.816530065611005" lon="13.267832212150097">
        <ele>2213.8400000000001</ele>
        <time>2019-06-18T12:14:09Z</time>
      </trkpt>
      <trkpt lat="42.816465608775616" lon="13.267767922952771">
        <ele>2212.2600000000002</ele>
        <time>2019-06-18T12:14:18Z</time>
      </trkpt>
      <trkpt lat="42.816400313749909" lon="13.26768628321588">
        <ele>2209.0300000000002</ele>
        <time>2019-06-18T12:14:30Z</time>
      </trkpt>
      <trkpt lat="42.816305095329881" lon="13.267602128908038">
        <ele>2205.9899999999998</ele>
        <time>2019-06-18T12:14:47Z</time>
      </trkpt>
      <trkpt lat="42.816211134195328" lon="13.267495427280664">
        <ele>2202.6700000000001</ele>
        <time>2019-06-18T12:15:00Z</time>
      </trkpt>
      <trkpt lat="42.816127734258771" lon="13.267406495288014">
        <ele>2199.6300000000001</ele>
        <time>2019-06-18T12:15:10Z</time>
      </trkpt>
      <trkpt lat="42.816057493910193" lon="13.267318736761808">
        <ele>2196.4899999999998</ele>
        <time>2019-06-18T12:15:19Z</time>
      </trkpt>
      <trkpt lat="42.815984822809696" lon="13.267252268269658">
        <ele>2193.21</ele>
        <time>2019-06-18T12:15:29Z</time>
      </trkpt>
      <trkpt lat="42.815969735383987" lon="13.267244389280677">
        <ele>2192.52</ele>
        <time>2019-06-18T12:15:31Z</time>
      </trkpt>
      <trkpt lat="42.815921707078815" lon="13.2672328222543">
        <ele>2191.0599999999999</ele>
        <time>2019-06-18T12:15:37Z</time>
      </trkpt>
      <trkpt lat="42.815870242193341" lon="13.267224188894033">
        <ele>2188.8499999999999</ele>
        <time>2019-06-18T12:15:43Z</time>
      </trkpt>
      <trkpt lat="42.815854987129569" lon="13.267238438129425">
        <ele>2188.6700000000001</ele>
        <time>2019-06-18T12:15:45Z</time>
      </trkpt>
      <trkpt lat="42.815818944945931" lon="13.267239527776837">
        <ele>2187.0700000000002</ele>
        <time>2019-06-18T12:15:49Z</time>
      </trkpt>
      <trkpt lat="42.815688606351614" lon="13.267216729000211">
        <ele>2184.0100000000002</ele>
        <time>2019-06-18T12:16:03Z</time>
      </trkpt>
      <trkpt lat="42.815625322982669" lon="13.267154702916741">
        <ele>2181.46</ele>
        <time>2019-06-18T12:16:15Z</time>
      </trkpt>
      <trkpt lat="42.81557897105813" lon="13.267164928838611">
        <ele>2178.3099999999999</ele>
        <time>2019-06-18T12:16:27Z</time>
      </trkpt>
      <trkpt lat="42.815541755408049" lon="13.267114469781518">
        <ele>2176.2600000000002</ele>
        <time>2019-06-18T12:16:38Z</time>
      </trkpt>
      <trkpt lat="42.815508646890521" lon="13.267091251909733">
        <ele>2173.7399999999998</ele>
        <time>2019-06-18T12:16:49Z</time>
      </trkpt>
      <trkpt lat="42.815482243895531" lon="13.26706375926733">
        <ele>2171.5999999999999</ele>
        <time>2019-06-18T12:17:00Z</time>
      </trkpt>
      <trkpt lat="42.815423486754298" lon="13.267028890550137">
        <ele>2169.1599999999999</ele>
        <time>2019-06-18T12:17:13Z</time>
      </trkpt>
      <trkpt lat="42.815386103466153" lon="13.26702956110239">
        <ele>2165.6300000000001</ele>
        <time>2019-06-18T12:17:22Z</time>
      </trkpt>
      <trkpt lat="42.815367747098207" lon="13.267025118693709">
        <ele>2165.98</ele>
        <time>2019-06-18T12:17:26Z</time>
      </trkpt>
      <trkpt lat="42.815313013270497" lon="13.266995865851641">
        <ele>2163.6599999999999</ele>
        <time>2019-06-18T12:17:36Z</time>
      </trkpt>
      <trkpt lat="42.815251993015409" lon="13.266975916922092">
        <ele>2160.8600000000001</ele>
        <time>2019-06-18T12:17:49Z</time>
      </trkpt>
      <trkpt lat="42.815188793465495" lon="13.266925793141127">
        <ele>2158.3800000000001</ele>
        <time>2019-06-18T12:18:01Z</time>
      </trkpt>
      <trkpt lat="42.815113943070173" lon="13.266833424568176">
        <ele>2155.3899999999999</ele>
        <time>2019-06-18T12:18:14Z</time>
      </trkpt>
      <trkpt lat="42.815058538690209" lon="13.266774415969849">
        <ele>2153.2600000000002</ele>
        <time>2019-06-18T12:18:23Z</time>
      </trkpt>
      <trkpt lat="42.81497354619205" lon="13.266663355752826">
        <ele>2149.77</ele>
        <time>2019-06-18T12:18:36Z</time>
      </trkpt>
      <trkpt lat="42.814895175397396" lon="13.266587164252996">
        <ele>2146.6599999999999</ele>
        <time>2019-06-18T12:18:47Z</time>
      </trkpt>
      <trkpt lat="42.814854271709919" lon="13.26654190197587">
        <ele>2145.5700000000002</ele>
        <time>2019-06-18T12:18:53Z</time>
      </trkpt>
      <trkpt lat="42.814742792397738" lon="13.266477445140481">
        <ele>2142.0999999999999</ele>
        <time>2019-06-18T12:19:06Z</time>
      </trkpt>
      <trkpt lat="42.814661068841815" lon="13.266431512311101">
        <ele>2139.02</ele>
        <time>2019-06-18T12:19:14Z</time>
      </trkpt>
      <trkpt lat="42.814635504037142" lon="13.266418604180217">
        <ele>2138.0799999999999</ele>
        <time>2019-06-18T12:19:17Z</time>
      </trkpt>
      <trkpt lat="42.814523102715611" lon="13.266374096274376">
        <ele>2134.6900000000001</ele>
        <time>2019-06-18T12:19:29Z</time>
      </trkpt>
      <trkpt lat="42.814403157681227" lon="13.266312908381224">
        <ele>2131.6599999999999</ele>
        <time>2019-06-18T12:19:41Z</time>
      </trkpt>
      <trkpt lat="42.814278686419129" lon="13.266235878691077">
        <ele>2128.5799999999999</ele>
        <time>2019-06-18T12:19:55Z</time>
      </trkpt>
      <trkpt lat="42.814146419987082" lon="13.266190448775887">
        <ele>2125.3099999999999</ele>
        <time>2019-06-18T12:20:09Z</time>
      </trkpt>
      <trkpt lat="42.814016500487924" lon="13.266137894243002">
        <ele>2122.0100000000002</ele>
        <time>2019-06-18T12:20:22Z</time>
      </trkpt>
      <trkpt lat="42.813854226842523" lon="13.266096906736493">
        <ele>2119.6199999999999</ele>
        <time>2019-06-18T12:20:37Z</time>
      </trkpt>
      <trkpt lat="42.813710812479258" lon="13.266066564247012">
        <ele>2116.9499999999998</ele>
        <time>2019-06-18T12:20:51Z</time>
      </trkpt>
      <trkpt lat="42.813573013991117" lon="13.266023229807615">
        <ele>2113.8600000000001</ele>
        <time>2019-06-18T12:21:05Z</time>
      </trkpt>
      <trkpt lat="42.813453990966082" lon="13.265981739386916">
        <ele>2110.8299999999999</ele>
        <time>2019-06-18T12:21:17Z</time>
      </trkpt>
      <trkpt lat="42.813301188871264" lon="13.265920802950859">
        <ele>2107.7199999999998</ele>
        <time>2019-06-18T12:21:32Z</time>
      </trkpt>
      <trkpt lat="42.81315241008997" lon="13.265838157385588">
        <ele>2104.5500000000002</ele>
        <time>2019-06-18T12:21:47Z</time>
      </trkpt>
      <trkpt lat="42.812998602166772" lon="13.265760038048029">
        <ele>2101.5100000000002</ele>
        <time>2019-06-18T12:22:02Z</time>
      </trkpt>
      <trkpt lat="42.81285242177546" lon="13.265699772164226">
        <ele>2098.4400000000001</ele>
        <time>2019-06-18T12:22:16Z</time>
      </trkpt>
      <trkpt lat="42.812694339081645" lon="13.265590807422996">
        <ele>2095.7199999999998</ele>
        <time>2019-06-18T12:22:32Z</time>
      </trkpt>
      <trkpt lat="42.812555786222219" lon="13.265500701963902">
        <ele>2092.9000000000001</ele>
        <time>2019-06-18T12:22:47Z</time>
      </trkpt>
      <trkpt lat="42.812398541718721" lon="13.265406992286444">
        <ele>2089.7399999999998</ele>
        <time>2019-06-18T12:23:03Z</time>
      </trkpt>
      <trkpt lat="42.812278009951115" lon="13.265359047800303">
        <ele>2086.73</ele>
        <time>2019-06-18T12:23:15Z</time>
      </trkpt>
      <trkpt lat="42.812132500112057" lon="13.265279084444046">
        <ele>2083.9099999999999</ele>
        <time>2019-06-18T12:23:29Z</time>
      </trkpt>
      <trkpt lat="42.812001071870327" lon="13.265177747234702">
        <ele>2080.6700000000001</ele>
        <time>2019-06-18T12:23:43Z</time>
      </trkpt>
      <trkpt lat="42.811859082430601" lon="13.265074398368597">
        <ele>2077.4099999999999</ele>
        <time>2019-06-18T12:23:58Z</time>
      </trkpt>
      <trkpt lat="42.81178037635982" lon="13.265017066150904">
        <ele>2075.8099999999999</ele>
        <time>2019-06-18T12:24:06Z</time>
      </trkpt>
      <trkpt lat="42.811738969758153" lon="13.264992339536548">
        <ele>2074.98</ele>
        <time>2019-06-18T12:24:10Z</time>
      </trkpt>
      <trkpt lat="42.811556663364172" lon="13.264942551031709">
        <ele>2071.8899999999999</ele>
        <time>2019-06-18T12:24:25Z</time>
      </trkpt>
      <trkpt lat="42.811480890959501" lon="13.264921009540558">
        <ele>2070.9899999999998</ele>
        <time>2019-06-18T12:24:37Z</time>
      </trkpt>
      <trkpt lat="42.811465132981539" lon="13.264914471656084">
        <ele>2070.8000000000002</ele>
        <time>2019-06-18T12:24:41Z</time>
      </trkpt>
      <trkpt lat="42.811231445521116" lon="13.264943053945899">
        <ele>2067.96</ele>
        <time>2019-06-18T12:25:00Z</time>
      </trkpt>
      <trkpt lat="42.811093227937818" lon="13.264908855780959">
        <ele>2064.8899999999999</ele>
        <time>2019-06-18T12:25:12Z</time>
      </trkpt>
      <trkpt lat="42.810966493561864" lon="13.264825288206339">
        <ele>2061.5799999999999</ele>
        <time>2019-06-18T12:25:24Z</time>
      </trkpt>
      <trkpt lat="42.810862474143505" lon="13.264691680669785">
        <ele>2058.5</ele>
        <time>2019-06-18T12:25:37Z</time>
      </trkpt>
      <trkpt lat="42.810756862163544" lon="13.264650274068117">
        <ele>2055.4699999999998</ele>
        <time>2019-06-18T12:25:48Z</time>
      </trkpt>
      <trkpt lat="42.810657871887088" lon="13.264490012079477">
        <ele>2052.1900000000001</ele>
        <time>2019-06-18T12:26:02Z</time>
      </trkpt>
      <trkpt lat="42.810594169422984" lon="13.264372413977981">
        <ele>2049.8400000000001</ele>
        <time>2019-06-18T12:26:12Z</time>
      </trkpt>
      <trkpt lat="42.810560809448361" lon="13.264330253005028">
        <ele>2048.75</ele>
        <time>2019-06-18T12:26:16Z</time>
      </trkpt>
      <trkpt lat="42.810491742566228" lon="13.264216426759958">
        <ele>2045.54</ele>
        <time>2019-06-18T12:26:26Z</time>
      </trkpt>
      <trkpt lat="42.810384789481759" lon="13.264108216390014">
        <ele>2042.5</ele>
        <time>2019-06-18T12:26:39Z</time>
      </trkpt>
      <trkpt lat="42.810248080641031" lon="13.264005118981004">
        <ele>2039.47</ele>
        <time>2019-06-18T12:26:54Z</time>
      </trkpt>
      <trkpt lat="42.810105672106147" lon="13.263915935531259">
        <ele>2036.28</ele>
        <time>2019-06-18T12:27:09Z</time>
      </trkpt>
      <trkpt lat="42.810002407059073" lon="13.263809652999043">
        <ele>2033.23</ele>
        <time>2019-06-18T12:27:23Z</time>
      </trkpt>
      <trkpt lat="42.809932669624686" lon="13.263718876987696">
        <ele>2030.2</ele>
        <time>2019-06-18T12:27:34Z</time>
      </trkpt>
      <trkpt lat="42.809913642704487" lon="13.263686019927263">
        <ele>2029.45</ele>
        <time>2019-06-18T12:27:43Z</time>
      </trkpt>
      <trkpt lat="42.809851113706827" lon="13.263613600283861">
        <ele>2027.79</ele>
        <time>2019-06-18T12:27:54Z</time>
      </trkpt>
      <trkpt lat="42.809751117601991" lon="13.263507485389709">
        <ele>2024.6099999999999</ele>
        <time>2019-06-18T12:28:08Z</time>
      </trkpt>
      <trkpt lat="42.809644918888807" lon="13.263416374102235">
        <ele>2021.52</ele>
        <time>2019-06-18T12:28:23Z</time>
      </trkpt>
      <trkpt lat="42.809573002159595" lon="13.263326603919268">
        <ele>2018.5</ele>
        <time>2019-06-18T12:28:34Z</time>
      </trkpt>
      <trkpt lat="42.809541402384639" lon="13.263299614191055">
        <ele>2017.8399999999999</ele>
        <time>2019-06-18T12:28:38Z</time>
      </trkpt>
      <trkpt lat="42.809403939172626" lon="13.263216549530625">
        <ele>2014.5599999999999</ele>
        <time>2019-06-18T12:28:54Z</time>
      </trkpt>
      <trkpt lat="42.809277456253767" lon="13.263165755197406">
        <ele>2011.29</ele>
        <time>2019-06-18T12:29:09Z</time>
      </trkpt>
      <trkpt lat="42.809189697727561" lon="13.263115212321281">
        <ele>2008.05</ele>
        <time>2019-06-18T12:29:20Z</time>
      </trkpt>
      <trkpt lat="42.809094144031405" lon="13.263076152652502">
        <ele>2004.6900000000001</ele>
        <time>2019-06-18T12:29:32Z</time>
      </trkpt>
      <trkpt lat="42.809035135433078" lon="13.263043379411101">
        <ele>2002.47</ele>
        <time>2019-06-18T12:29:41Z</time>
      </trkpt>
      <trkpt lat="42.808946203440428" lon="13.263013623654842">
        <ele>1999.3499999999999</ele>
        <time>2019-06-18T12:29:51Z</time>
      </trkpt>
      <trkpt lat="42.808838412165642" lon="13.263002056628466">
        <ele>1996.5799999999999</ele>
        <time>2019-06-18T12:30:04Z</time>
      </trkpt>
      <trkpt lat="42.808725005015731" lon="13.263027705252171">
        <ele>1993.5699999999999</ele>
        <time>2019-06-18T12:30:18Z</time>
      </trkpt>
      <trkpt lat="42.808603635057807" lon="13.263049246743321">
        <ele>1990.4100000000001</ele>
        <time>2019-06-18T12:30:29Z</time>
      </trkpt>
      <trkpt lat="42.808501375839114" lon="13.263068860396743">
        <ele>1987.3399999999999</ele>
        <time>2019-06-18T12:30:40Z</time>
      </trkpt>
      <trkpt lat="42.808418311178684" lon="13.263070788234472">
        <ele>1984.23</ele>
        <time>2019-06-18T12:30:52Z</time>
      </trkpt>
      <trkpt lat="42.808358632028103" lon="13.263062573969364">
        <ele>1981.6400000000001</ele>
        <time>2019-06-18T12:31:04Z</time>
      </trkpt>
      <trkpt lat="42.808315884321928" lon="13.263055784627795">
        <ele>1979.9200000000001</ele>
        <time>2019-06-18T12:31:10Z</time>
      </trkpt>
      <trkpt lat="42.808228796347976" lon="13.263033907860518">
        <ele>1976.77</ele>
        <time>2019-06-18T12:31:19Z</time>
      </trkpt>
      <trkpt lat="42.808129219338298" lon="13.263048995286226">
        <ele>1973.51</ele>
        <time>2019-06-18T12:31:31Z</time>
      </trkpt>
      <trkpt lat="42.808027630671859" lon="13.263051426038146">
        <ele>1970.1500000000001</ele>
        <time>2019-06-18T12:31:43Z</time>
      </trkpt>
      <trkpt lat="42.807968622073531" lon="13.263059556484222">
        <ele>1968.52</ele>
        <time>2019-06-18T12:31:49Z</time>
      </trkpt>
      <trkpt lat="42.807922689244151" lon="13.263062657788396">
        <ele>1967.53</ele>
        <time>2019-06-18T12:31:54Z</time>
      </trkpt>
      <trkpt lat="42.807764522731304" lon="13.263127449899912">
        <ele>1964.73</ele>
        <time>2019-06-18T12:32:10Z</time>
      </trkpt>
      <trkpt lat="42.807661928236485" lon="13.263130383566022">
        <ele>1961.6900000000001</ele>
        <time>2019-06-18T12:32:23Z</time>
      </trkpt>
      <trkpt lat="42.807631669566035" lon="13.26313516125083">
        <ele>1960.02</ele>
        <time>2019-06-18T12:32:27Z</time>
      </trkpt>
      <trkpt lat="42.807597555220127" lon="13.263141447678208">
        <ele>1958.4100000000001</ele>
        <time>2019-06-18T12:32:33Z</time>
      </trkpt>
      <trkpt lat="42.807544833049178" lon="13.263142202049494">
        <ele>1956.75</ele>
        <time>2019-06-18T12:32:38Z</time>
      </trkpt>
      <trkpt lat="42.807444334030151" lon="13.263143543154001">
        <ele>1953.21</ele>
        <time>2019-06-18T12:32:49Z</time>
      </trkpt>
      <trkpt lat="42.807354396209121" lon="13.263144129887223">
        <ele>1950.3099999999999</ele>
        <time>2019-06-18T12:33:01Z</time>
      </trkpt>
      <trkpt lat="42.807338386774063" lon="13.263138430193067">
        <ele>1949.96</ele>
        <time>2019-06-18T12:33:03Z</time>
      </trkpt>
      <trkpt lat="42.807255238294601" lon="13.263110769912601">
        <ele>1946.53</ele>
        <time>2019-06-18T12:33:13Z</time>
      </trkpt>
      <trkpt lat="42.807228164747357" lon="13.263104148209095">
        <ele>1945.1600000000001</ele>
        <time>2019-06-18T12:33:16Z</time>
      </trkpt>
      <trkpt lat="42.807176196947694" lon="13.263088138774037">
        <ele>1943</ele>
        <time>2019-06-18T12:33:22Z</time>
      </trkpt>
      <trkpt lat="42.807088019326329" lon="13.263015886768699">
        <ele>1939.8699999999999</ele>
        <time>2019-06-18T12:33:33Z</time>
      </trkpt>
      <trkpt lat="42.807041332125664" lon="13.26288990676403">
        <ele>1936.8099999999999</ele>
        <time>2019-06-18T12:33:44Z</time>
      </trkpt>
      <trkpt lat="42.806994644924998" lon="13.26280876994133">
        <ele>1934.8699999999999</ele>
        <time>2019-06-18T12:33:52Z</time>
      </trkpt>
      <trkpt lat="42.806856008246541" lon="13.262744648382068">
        <ele>1931.4300000000001</ele>
        <time>2019-06-18T12:34:06Z</time>
      </trkpt>
      <trkpt lat="42.806799430400133" lon="13.262733668088913">
        <ele>1930.5899999999999</ele>
        <time>2019-06-18T12:34:11Z</time>
      </trkpt>
      <trkpt lat="42.806796245276928" lon="13.262716988101602">
        <ele>1930.99</ele>
        <time>2019-06-18T12:34:19Z</time>
      </trkpt>
      <trkpt lat="42.806734051555395" lon="13.262706426903605">
        <ele>1929.8099999999999</ele>
        <time>2019-06-18T12:34:25Z</time>
      </trkpt>
      <trkpt lat="42.806487958878279" lon="13.262582877650857">
        <ele>1927.25</ele>
        <time>2019-06-18T12:34:46Z</time>
      </trkpt>
      <trkpt lat="42.806322919204831" lon="13.262468129396439">
        <ele>1925.21</ele>
        <time>2019-06-18T12:35:01Z</time>
      </trkpt>
      <trkpt lat="42.806171625852585" lon="13.262434853240848">
        <ele>1922.8099999999999</ele>
        <time>2019-06-18T12:35:14Z</time>
      </trkpt>
      <trkpt lat="42.805952522903681" lon="13.262338796630502">
        <ele>1920.0899999999999</ele>
        <time>2019-06-18T12:35:33Z</time>
      </trkpt>
      <trkpt lat="42.805789159610868" lon="13.262200076133013">
        <ele>1917.3599999999999</ele>
        <time>2019-06-18T12:35:49Z</time>
      </trkpt>
      <trkpt lat="42.805606266483665" lon="13.262018524110317">
        <ele>1915.3599999999999</ele>
        <time>2019-06-18T12:36:07Z</time>
      </trkpt>
      <trkpt lat="42.805422032251954" lon="13.2618622854352">
        <ele>1913.26</ele>
        <time>2019-06-18T12:36:25Z</time>
      </trkpt>
      <trkpt lat="42.805310133844614" lon="13.261725241318345">
        <ele>1912.3399999999999</ele>
        <time>2019-06-18T12:36:38Z</time>
      </trkpt>
      <trkpt lat="42.805119277909398" lon="13.261562464758754">
        <ele>1909.79</ele>
        <time>2019-06-18T12:36:57Z</time>
      </trkpt>
      <trkpt lat="42.804955411702394" lon="13.261462636291981">
        <ele>1907.27</ele>
        <time>2019-06-18T12:37:12Z</time>
      </trkpt>
      <trkpt lat="42.804777882993221" lon="13.261362053453922">
        <ele>1905.79</ele>
        <time>2019-06-18T12:37:28Z</time>
      </trkpt>
      <trkpt lat="42.804619884118438" lon="13.261288208886981">
        <ele>1904.04</ele>
        <time>2019-06-18T12:37:42Z</time>
      </trkpt>
      <trkpt lat="42.804550733417273" lon="13.261247389018536">
        <ele>1902.9000000000001</ele>
        <time>2019-06-18T12:37:52Z</time>
      </trkpt>
      <trkpt lat="42.804541178047657" lon="13.261241689324379">
        <ele>1903.3399999999999</ele>
        <time>2019-06-18T12:37:55Z</time>
      </trkpt>
      <trkpt lat="42.804357782006264" lon="13.261166336014867">
        <ele>1900.9100000000001</ele>
        <time>2019-06-18T12:38:11Z</time>
      </trkpt>
      <trkpt lat="42.804192574694753" lon="13.261096933856606">
        <ele>1899.27</ele>
        <time>2019-06-18T12:38:25Z</time>
      </trkpt>
      <trkpt lat="42.804003395140171" lon="13.261006325483322">
        <ele>1897.0599999999999</ele>
        <time>2019-06-18T12:38:41Z</time>
      </trkpt>
      <trkpt lat="42.803830895572901" lon="13.260881351307034">
        <ele>1894.9300000000001</ele>
        <time>2019-06-18T12:38:58Z</time>
      </trkpt>
      <trkpt lat="42.803639201447368" lon="13.260736260563135">
        <ele>1891.97</ele>
        <time>2019-06-18T12:39:16Z</time>
      </trkpt>
      <trkpt lat="42.803498050197959" lon="13.260596198961139">
        <ele>1889.1600000000001</ele>
        <time>2019-06-18T12:39:31Z</time>
      </trkpt>
      <trkpt lat="42.803364358842373" lon="13.260427722707391">
        <ele>1886.55</ele>
        <time>2019-06-18T12:39:47Z</time>
      </trkpt>
      <trkpt lat="42.803261261433363" lon="13.260241812095046">
        <ele>1884.1500000000001</ele>
        <time>2019-06-18T12:40:02Z</time>
      </trkpt>
      <trkpt lat="42.803147854283452" lon="13.260021116584539">
        <ele>1881.55</ele>
        <time>2019-06-18T12:40:19Z</time>
      </trkpt>
      <trkpt lat="42.803062191233039" lon="13.259856328368187">
        <ele>1879.6300000000001</ele>
        <time>2019-06-18T12:40:32Z</time>
      </trkpt>
      <trkpt lat="42.803059006109834" lon="13.25984769500792">
        <ele>1879.4000000000001</ele>
        <time>2019-06-18T12:40:36Z</time>
      </trkpt>
      <trkpt lat="42.803039392456412" lon="13.259818945080042">
        <ele>1879.3699999999999</ele>
        <time>2019-06-18T12:40:39Z</time>
      </trkpt>
      <trkpt lat="42.802850212901831" lon="13.259650385007262">
        <ele>1876.5599999999999</ele>
        <time>2019-06-18T12:40:58Z</time>
      </trkpt>
      <trkpt lat="42.802737476304173" lon="13.259507725015283">
        <ele>1874.8900000000001</ele>
        <time>2019-06-18T12:41:12Z</time>
      </trkpt>
      <trkpt lat="42.802648209035397" lon="13.259348887950182">
        <ele>1871.78</ele>
        <time>2019-06-18T12:41:27Z</time>
      </trkpt>
      <trkpt lat="42.802589451894164" lon="13.2593082357198">
        <ele>1869.8599999999999</ele>
        <time>2019-06-18T12:41:37Z</time>
      </trkpt>
      <trkpt lat="42.802550224587321" lon="13.259269595146179">
        <ele>1869.6099999999999</ele>
        <time>2019-06-18T12:41:52Z</time>
      </trkpt>
      <trkpt lat="42.802535472437739" lon="13.259179070591927">
        <ele>1868.1400000000001</ele>
        <time>2019-06-18T12:42:02Z</time>
      </trkpt>
      <trkpt lat="42.802503956481814" lon="13.259102459996939">
        <ele>1867.3499999999999</ele>
        <time>2019-06-18T12:42:13Z</time>
      </trkpt>
      <trkpt lat="42.802473865449429" lon="13.259047474712133">
        <ele>1866.27</ele>
        <time>2019-06-18T12:42:26Z</time>
      </trkpt>
      <trkpt lat="42.802461292594671" lon="13.259058371186256">
        <ele>1866.04</ele>
        <time>2019-06-18T12:42:35Z</time>
      </trkpt>
      <trkpt lat="42.80240404419601" lon="13.259101873263717">
        <ele>1865.73</ele>
        <time>2019-06-18T12:42:41Z</time>
      </trkpt>
      <trkpt lat="42.802324499934912" lon="13.259146464988589">
        <ele>1866.1800000000001</ele>
        <time>2019-06-18T12:42:54Z</time>
      </trkpt>
      <trkpt lat="42.802317710593343" lon="13.259151661768556">
        <ele>1866.04</ele>
        <time>2019-06-18T12:43:29Z</time>
      </trkpt>
      <trkpt lat="42.802346041426063" lon="13.259056694805622">
        <ele>1865.04</ele>
        <time>2019-06-18T12:43:40Z</time>
      </trkpt>
      <trkpt lat="42.802342940121889" lon="13.25904244557023">
        <ele>1864.6800000000001</ele>
        <time>2019-06-18T12:43:57Z</time>
      </trkpt>
      <trkpt lat="42.802348304539919" lon="13.259046971797943">
        <ele>1864.3199999999999</ele>
        <time>2019-06-18T12:44:18Z</time>
      </trkpt>
      <trkpt lat="42.802359871566296" lon="13.259030291810632">
        <ele>1864.04</ele>
        <time>2019-06-18T12:44:38Z</time>
      </trkpt>
      <trkpt lat="42.802359871566296" lon="13.259030627086759">
        <ele>1864.1500000000001</ele>
        <time>2019-06-18T12:44:59Z</time>
      </trkpt>
      <trkpt lat="42.802365403622389" lon="13.259032806381583">
        <ele>1864</ele>
        <time>2019-06-18T12:45:18Z</time>
      </trkpt>
      <trkpt lat="42.802371438592672" lon="13.259031465277076">
        <ele>1863.8</ele>
        <time>2019-06-18T12:45:35Z</time>
      </trkpt>
      <trkpt lat="42.802371438592672" lon="13.2590302079916">
        <ele>1863.6900000000001</ele>
        <time>2019-06-18T12:45:53Z</time>
      </trkpt>
      <trkpt lat="42.802375042811036" lon="13.259027106687427">
        <ele>1863.71</ele>
        <time>2019-06-18T12:46:08Z</time>
      </trkpt>
      <trkpt lat="42.802375378087163" lon="13.259026603773236">
        <ele>1863.51</ele>
        <time>2019-06-18T12:46:21Z</time>
      </trkpt>
      <trkpt lat="42.802383340895176" lon="13.25903607532382">
        <ele>1863.3800000000001</ele>
        <time>2019-06-18T12:46:44Z</time>
      </trkpt>
      <trkpt lat="42.802356770262122" lon="13.259021239355206">
        <ele>1863.03</ele>
        <time>2019-06-18T12:46:51Z</time>
      </trkpt>
      <trkpt lat="42.802320560440421" lon="13.259017467498779">
        <ele>1862.52</ele>
        <time>2019-06-18T12:46:55Z</time>
      </trkpt>
      <trkpt lat="42.802231963723898" lon="13.259066333994269">
        <ele>1863.23</ele>
        <time>2019-06-18T12:47:10Z</time>
      </trkpt>
      <trkpt lat="42.802245961502194" lon="13.259060131385922">
        <ele>1863.23</ele>
        <time>2019-06-18T12:47:22Z</time>
      </trkpt>
      <trkpt lat="42.802260210737586" lon="13.259042277932167">
        <ele>1863.21</ele>
        <time>2019-06-18T12:47:24Z</time>
      </trkpt>
      <trkpt lat="42.802349394187331" lon="13.258893834426999">
        <ele>1861.04</ele>
        <time>2019-06-18T12:47:39Z</time>
      </trkpt>
      <trkpt lat="42.80235568061471" lon="13.258790401741862">
        <ele>1859.0599999999999</ele>
        <time>2019-06-18T12:47:48Z</time>
      </trkpt>
      <trkpt lat="42.802361967042089" lon="13.258633743971586">
        <ele>1855.72</ele>
        <time>2019-06-18T12:48:01Z</time>
      </trkpt>
      <trkpt lat="42.802357776090503" lon="13.258593929931521">
        <ele>1854.8800000000001</ele>
        <time>2019-06-18T12:48:04Z</time>
      </trkpt>
      <trkpt lat="42.802386190742254" lon="13.258540872484446">
        <ele>1853.8699999999999</ele>
        <time>2019-06-18T12:48:09Z</time>
      </trkpt>
      <trkpt lat="42.802366157993674" lon="13.258463256061077">
        <ele>1852.6199999999999</ele>
        <time>2019-06-18T12:48:16Z</time>
      </trkpt>
      <trkpt lat="42.802324667572975" lon="13.258462585508823">
        <ele>1851.6600000000001</ele>
        <time>2019-06-18T12:48:20Z</time>
      </trkpt>
      <trkpt lat="42.802190305665135" lon="13.258433165028691">
        <ele>1848.25</ele>
        <time>2019-06-18T12:48:33Z</time>
      </trkpt>
      <trkpt lat="42.802169099450111" lon="13.258388908579946">
        <ele>1847.6099999999999</ele>
        <time>2019-06-18T12:48:38Z</time>
      </trkpt>
      <trkpt lat="42.802226096391678" lon="13.258215235546231">
        <ele>1844.04</ele>
        <time>2019-06-18T12:48:53Z</time>
      </trkpt>
      <trkpt lat="42.802234478294849" lon="13.258128818124533">
        <ele>1842.1300000000001</ele>
        <time>2019-06-18T12:49:01Z</time>
      </trkpt>
      <trkpt lat="42.802133895456791" lon="13.258145665749907">
        <ele>1840.3900000000001</ele>
        <time>2019-06-18T12:49:10Z</time>
      </trkpt>
      <trkpt lat="42.802102547138929" lon="13.258138708770275">
        <ele>1839.48</ele>
        <time>2019-06-18T12:49:13Z</time>
      </trkpt>
      <trkpt lat="42.802037419751287" lon="13.258132841438055">
        <ele>1837.96</ele>
        <time>2019-06-18T12:49:19Z</time>
      </trkpt>
      <trkpt lat="42.801923677325249" lon="13.258130913600326">
        <ele>1834.3499999999999</ele>
        <time>2019-06-18T12:49:30Z</time>
      </trkpt>
      <trkpt lat="42.80191445723176" lon="13.258130829781294">
        <ele>1834.05</ele>
        <time>2019-06-18T12:49:31Z</time>
      </trkpt>
      <trkpt lat="42.801766935735941" lon="13.258147845044732">
        <ele>1830.73</ele>
        <time>2019-06-18T12:49:46Z</time>
      </trkpt>
      <trkpt lat="42.801636848598719" lon="13.258173409849405">
        <ele>1827.53</ele>
        <time>2019-06-18T12:49:59Z</time>
      </trkpt>
      <trkpt lat="42.801501899957657" lon="13.258239794522524">
        <ele>1824.25</ele>
        <time>2019-06-18T12:50:12Z</time>
      </trkpt>
      <trkpt lat="42.801387822255492" lon="13.258338114246726">
        <ele>1821.1099999999999</ele>
        <time>2019-06-18T12:50:25Z</time>
      </trkpt>
      <trkpt lat="42.801337279379368" lon="13.258394189178944">
        <ele>1819.3399999999999</ele>
        <time>2019-06-18T12:50:32Z</time>
      </trkpt>
      <trkpt lat="42.801319593563676" lon="13.258403996005654">
        <ele>1818.76</ele>
        <time>2019-06-18T12:50:34Z</time>
      </trkpt>
      <trkpt lat="42.801248682662845" lon="13.258505081757903">
        <ele>1816.45</ele>
        <time>2019-06-18T12:50:44Z</time>
      </trkpt>
      <trkpt lat="42.801173496991396" lon="13.258620416745543">
        <ele>1813.54</ele>
        <time>2019-06-18T12:50:56Z</time>
      </trkpt>
      <trkpt lat="42.801097724586725" lon="13.258762573823333">
        <ele>1810.1900000000001</ele>
        <time>2019-06-18T12:51:09Z</time>
      </trkpt>
      <trkpt lat="42.801085570827127" lon="13.25878344476223">
        <ele>1809.3599999999999</ele>
        <time>2019-06-18T12:51:11Z</time>
      </trkpt>
      <trkpt lat="42.801010217517614" lon="13.258918393403292">
        <ele>1806.1300000000001</ele>
        <time>2019-06-18T12:51:24Z</time>
      </trkpt>
      <trkpt lat="42.800921285524964" lon="13.259068680927157">
        <ele>1802.99</ele>
        <time>2019-06-18T12:51:38Z</time>
      </trkpt>
      <trkpt lat="42.800849452614784" lon="13.259211843833327">
        <ele>1799.9100000000001</ele>
        <time>2019-06-18T12:51:50Z</time>
      </trkpt>
      <trkpt lat="42.800765633583069" lon="13.259383169934154">
        <ele>1796.8800000000001</ele>
        <time>2019-06-18T12:52:04Z</time>
      </trkpt>
      <trkpt lat="42.800649628043175" lon="13.259470257908106">
        <ele>1794.1900000000001</ele>
        <time>2019-06-18T12:52:17Z</time>
      </trkpt>
      <trkpt lat="42.800531443208456" lon="13.259539576247334">
        <ele>1790.8099999999999</ele>
        <time>2019-06-18T12:52:30Z</time>
      </trkpt>
      <trkpt lat="42.800514595583081" lon="13.259552987292409">
        <ele>1790.3699999999999</ele>
        <time>2019-06-18T12:52:32Z</time>
      </trkpt>
      <trkpt lat="42.800463130697608" lon="13.259632615372539">
        <ele>1787.6500000000001</ele>
        <time>2019-06-18T12:52:40Z</time>
      </trkpt>
      <trkpt lat="42.800436811521649" lon="13.259643008932471">
        <ele>1787.03</ele>
        <time>2019-06-18T12:52:43Z</time>
      </trkpt>
      <trkpt lat="42.800276968628168" lon="13.25972942635417">
        <ele>1783.55</ele>
        <time>2019-06-18T12:52:59Z</time>
      </trkpt>
      <trkpt lat="42.800201615318656" lon="13.259756583720446">
        <ele>1781.8099999999999</ele>
        <time>2019-06-18T12:53:07Z</time>
      </trkpt>
      <trkpt lat="42.800173703581095" lon="13.259792709723115">
        <ele>1780.5799999999999</ele>
        <time>2019-06-18T12:53:11Z</time>
      </trkpt>
      <trkpt lat="42.800076808780432" lon="13.259823638945818">
        <ele>1776.6500000000001</ele>
        <time>2019-06-18T12:53:21Z</time>
      </trkpt>
      <trkpt lat="42.800001036375761" lon="13.259835625067353">
        <ele>1775.6900000000001</ele>
        <time>2019-06-18T12:53:28Z</time>
      </trkpt>
      <trkpt lat="42.799980584532022" lon="13.259836044162512">
        <ele>1775.4200000000001</ele>
        <time>2019-06-18T12:53:30Z</time>
      </trkpt>
      <trkpt lat="42.799933310598135" lon="13.259842162951827">
        <ele>1774.99</ele>
        <time>2019-06-18T12:53:34Z</time>
      </trkpt>
      <trkpt lat="42.799733653664589" lon="13.259882647544146">
        <ele>1771.4400000000001</ele>
        <time>2019-06-18T12:53:50Z</time>
      </trkpt>
      <trkpt lat="42.799524357542396" lon="13.259887089952826">
        <ele>1768.9100000000001</ele>
        <time>2019-06-18T12:54:07Z</time>
      </trkpt>
      <trkpt lat="42.799321766942739" lon="13.259833361953497">
        <ele>1767.1199999999999</ele>
        <time>2019-06-18T12:54:24Z</time>
      </trkpt>
      <trkpt lat="42.799194781109691" lon="13.25964099727571">
        <ele>1764.2</ele>
        <time>2019-06-18T12:54:40Z</time>
      </trkpt>
      <trkpt lat="42.79910777695477" lon="13.259417787194252">
        <ele>1761.3800000000001</ele>
        <time>2019-06-18T12:54:56Z</time>
      </trkpt>
      <trkpt lat="42.799026304855943" lon="13.259210418909788">
        <ele>1758.78</ele>
        <time>2019-06-18T12:55:11Z</time>
      </trkpt>
      <trkpt lat="42.798977605998516" lon="13.259056359529495">
        <ele>1755.73</ele>
        <time>2019-06-18T12:55:22Z</time>
      </trkpt>
      <trkpt lat="42.798909293487668" lon="13.258867766708136">
        <ele>1752.95</ele>
        <time>2019-06-18T12:55:37Z</time>
      </trkpt>
      <trkpt lat="42.798857660964131" lon="13.258665930479765">
        <ele>1749.96</ele>
        <time>2019-06-18T12:55:51Z</time>
      </trkpt>
      <trkpt lat="42.79884047806263" lon="13.258648831397295">
        <ele>1749.3399999999999</ele>
        <time>2019-06-18T12:55:53Z</time>
      </trkpt>
      <trkpt lat="42.798821534961462" lon="13.258648160845041">
        <ele>1748.8699999999999</ele>
        <time>2019-06-18T12:55:55Z</time>
      </trkpt>
      <trkpt lat="42.798684909939766" lon="13.258807752281427">
        <ele>1745.3499999999999</ele>
        <time>2019-06-18T12:56:11Z</time>
      </trkpt>
      <trkpt lat="42.798575693741441" lon="13.258960554376245">
        <ele>1742.1300000000001</ele>
        <time>2019-06-18T12:56:24Z</time>
      </trkpt>
      <trkpt lat="42.798559265211225" lon="13.258986622095108">
        <ele>1741.4400000000001</ele>
        <time>2019-06-18T12:56:26Z</time>
      </trkpt>
      <trkpt lat="42.798513667657971" lon="13.259046385064721">
        <ele>1740.5699999999999</ele>
        <time>2019-06-18T12:56:32Z</time>
      </trkpt>
      <trkpt lat="42.798476032912731" lon="13.259067088365555">
        <ele>1740.6700000000001</ele>
        <time>2019-06-18T12:56:36Z</time>
      </trkpt>
      <trkpt lat="42.798409564420581" lon="13.259161803871393">
        <ele>1737.96</ele>
        <time>2019-06-18T12:56:45Z</time>
      </trkpt>
      <trkpt lat="42.798402523621917" lon="13.259172197431326">
        <ele>1737.6500000000001</ele>
        <time>2019-06-18T12:56:46Z</time>
      </trkpt>
      <trkpt lat="42.798302778974175" lon="13.259378476068377">
        <ele>1735.1700000000001</ele>
        <time>2019-06-18T12:57:02Z</time>
      </trkpt>
      <trkpt lat="42.79820529744029" lon="13.259497666731477">
        <ele>1731.9200000000001</ele>
        <time>2019-06-18T12:57:13Z</time>
      </trkpt>
      <trkpt lat="42.798136565834284" lon="13.25951392762363">
        <ele>1731.6600000000001</ele>
        <time>2019-06-18T12:57:19Z</time>
      </trkpt>
      <trkpt lat="42.798003209754825" lon="13.259438658133149">
        <ele>1728.5</ele>
        <time>2019-06-18T12:57:31Z</time>
      </trkpt>
      <trkpt lat="42.797942357137799" lon="13.259356180205941">
        <ele>1727</ele>
        <time>2019-06-18T12:57:38Z</time>
      </trkpt>
      <trkpt lat="42.797821490094066" lon="13.259224249050021">
        <ele>1724.4000000000001</ele>
        <time>2019-06-18T12:57:51Z</time>
      </trkpt>
      <trkpt lat="42.797615043818951" lon="13.259092904627323">
        <ele>1721.5799999999999</ele>
        <time>2019-06-18T12:58:09Z</time>
      </trkpt>
      <trkpt lat="42.797391833737493" lon="13.259080331772566">
        <ele>1718.8800000000001</ele>
        <time>2019-06-18T12:58:27Z</time>
      </trkpt>
      <trkpt lat="42.797188321128488" lon="13.258952591568232">
        <ele>1716.29</ele>
        <time>2019-06-18T12:58:45Z</time>
      </trkpt>
      <trkpt lat="42.796952202916145" lon="13.258868269622326">
        <ele>1713.8699999999999</ele>
        <time>2019-06-18T12:59:05Z</time>
      </trkpt>
      <trkpt lat="42.796742068603635" lon="13.258803309872746">
        <ele>1710.76</ele>
        <time>2019-06-18T12:59:23Z</time>
      </trkpt>
      <trkpt lat="42.79654098674655" lon="13.258794341236353">
        <ele>1708.71</ele>
        <time>2019-06-18T12:59:40Z</time>
      </trkpt>
      <trkpt lat="42.796347700059414" lon="13.258848404511809">
        <ele>1706.8099999999999</ele>
        <time>2019-06-18T12:59:56Z</time>
      </trkpt>
      <trkpt lat="42.796134045347571" lon="13.258826108649373">
        <ele>1703.7</ele>
        <time>2019-06-18T13:00:13Z</time>
      </trkpt>
      <trkpt lat="42.795939920470119" lon="13.258784785866737">
        <ele>1701.26</ele>
        <time>2019-06-18T13:00:29Z</time>
      </trkpt>
      <trkpt lat="42.795758955180645" lon="13.258774224668741">
        <ele>1698.3099999999999</ele>
        <time>2019-06-18T13:00:44Z</time>
      </trkpt>
      <trkpt lat="42.795583521947265" lon="13.258638186380267">
        <ele>1696.3699999999999</ele>
        <time>2019-06-18T13:01:00Z</time>
      </trkpt>
      <trkpt lat="42.79538344591856" lon="13.258495274931192">
        <ele>1693.24</ele>
        <time>2019-06-18T13:01:18Z</time>
      </trkpt>
      <trkpt lat="42.795201558619738" lon="13.258429393172264">
        <ele>1689.96</ele>
        <time>2019-06-18T13:01:34Z</time>
      </trkpt>
      <trkpt lat="42.795066190883517" lon="13.258410701528192">
        <ele>1686.96</ele>
        <time>2019-06-18T13:01:47Z</time>
      </trkpt>
      <trkpt lat="42.794922273606062" lon="13.2584189157933">
        <ele>1683.78</ele>
        <time>2019-06-18T13:02:00Z</time>
      </trkpt>
      <trkpt lat="42.79475212097168" lon="13.25851614587009">
        <ele>1681.01</ele>
        <time>2019-06-18T13:02:17Z</time>
      </trkpt>
      <trkpt lat="42.794595211744308" lon="13.258627876639366">
        <ele>1677.8800000000001</ele>
        <time>2019-06-18T13:02:33Z</time>
      </trkpt>
      <trkpt lat="42.794443918392062" lon="13.258718652650714">
        <ele>1674.8199999999999</ele>
        <time>2019-06-18T13:02:49Z</time>
      </trkpt>
      <trkpt lat="42.794355237856507" lon="13.258695099502802">
        <ele>1671.9300000000001</ele>
        <time>2019-06-18T13:03:00Z</time>
      </trkpt>
      <trkpt lat="42.794252140447497" lon="13.258751342073083">
        <ele>1669.8</ele>
        <time>2019-06-18T13:03:12Z</time>
      </trkpt>
      <trkpt lat="42.794195227324963" lon="13.258714880794287">
        <ele>1667.5</ele>
        <time>2019-06-18T13:03:21Z</time>
      </trkpt>
      <trkpt lat="42.794205788522959" lon="13.258659057319164">
        <ele>1667</ele>
        <time>2019-06-18T13:03:25Z</time>
      </trkpt>
      <trkpt lat="42.794224983081222" lon="13.258614968508482">
        <ele>1665.8599999999999</ele>
        <time>2019-06-18T13:03:29Z</time>
      </trkpt>
      <trkpt lat="42.79421417042613" lon="13.258522348478436">
        <ele>1663.3399999999999</ele>
        <time>2019-06-18T13:03:40Z</time>
      </trkpt>
      <trkpt lat="42.794107971712947" lon="13.258539699018002">
        <ele>1660.1400000000001</ele>
        <time>2019-06-18T13:03:52Z</time>
      </trkpt>
      <trkpt lat="42.793997414410114" lon="13.258585631847382">
        <ele>1657.73</ele>
        <time>2019-06-18T13:04:06Z</time>
      </trkpt>
      <trkpt lat="42.793909572064877" lon="13.258635001257062">
        <ele>1654.4200000000001</ele>
        <time>2019-06-18T13:04:18Z</time>
      </trkpt>
      <trkpt lat="42.793848300352693" lon="13.258642293512821">
        <ele>1652.0599999999999</ele>
        <time>2019-06-18T13:04:27Z</time>
      </trkpt>
      <trkpt lat="42.793786861002445" lon="13.258664170280099">
        <ele>1649.9200000000001</ele>
        <time>2019-06-18T13:04:34Z</time>
      </trkpt>
      <trkpt lat="42.793692983686924" lon="13.258690489456058">
        <ele>1646.5699999999999</ele>
        <time>2019-06-18T13:04:44Z</time>
      </trkpt>
      <trkpt lat="42.793611008673906" lon="13.258715802803636">
        <ele>1643.48</ele>
        <time>2019-06-18T13:04:54Z</time>
      </trkpt>
      <trkpt lat="42.79352568089962" lon="13.258756706491113">
        <ele>1640.47</ele>
        <time>2019-06-18T13:05:06Z</time>
      </trkpt>
      <trkpt lat="42.793433228507638" lon="13.258775984868407">
        <ele>1637.6900000000001</ele>
        <time>2019-06-18T13:05:17Z</time>
      </trkpt>
      <trkpt lat="42.79337908141315" lon="13.258793083950877">
        <ele>1635.52</ele>
        <time>2019-06-18T13:05:24Z</time>
      </trkpt>
      <trkpt lat="42.793305069208145" lon="13.258812613785267">
        <ele>1632.0999999999999</ele>
        <time>2019-06-18T13:05:33Z</time>
      </trkpt>
      <trkpt lat="42.793216807767749" lon="13.258827701210976">
        <ele>1628.5</ele>
        <time>2019-06-18T13:05:44Z</time>
      </trkpt>
      <trkpt lat="42.793199876323342" lon="13.258832730352879">
        <ele>1628.1099999999999</ele>
        <time>2019-06-18T13:05:46Z</time>
      </trkpt>
      <trkpt lat="42.793091749772429" lon="13.258894421160221">
        <ele>1624.6300000000001</ele>
        <time>2019-06-18T13:05:58Z</time>
      </trkpt>
      <trkpt lat="42.793013546615839" lon="13.258958291262388">
        <ele>1621.3900000000001</ele>
        <time>2019-06-18T13:06:08Z</time>
      </trkpt>
      <trkpt lat="42.792951185256243" lon="13.259001122787595">
        <ele>1619.6700000000001</ele>
        <time>2019-06-18T13:06:17Z</time>
      </trkpt>
      <trkpt lat="42.792847082018852" lon="13.259055186063051">
        <ele>1616.4100000000001</ele>
        <time>2019-06-18T13:06:29Z</time>
      </trkpt>
      <trkpt lat="42.792748929932714" lon="13.259091060608625">
        <ele>1613.51</ele>
        <time>2019-06-18T13:06:43Z</time>
      </trkpt>
      <trkpt lat="42.792656728997827" lon="13.259166330099106">
        <ele>1611.02</ele>
        <time>2019-06-18T13:06:57Z</time>
      </trkpt>
      <trkpt lat="42.792588667944074" lon="13.259218968451023">
        <ele>1608.5</ele>
        <time>2019-06-18T13:07:07Z</time>
      </trkpt>
      <trkpt lat="42.792573748156428" lon="13.259234055876732">
        <ele>1608.4100000000001</ele>
        <time>2019-06-18T13:07:09Z</time>
      </trkpt>
      <trkpt lat="42.792455479502678" lon="13.259346624836326">
        <ele>1605.29</ele>
        <time>2019-06-18T13:07:25Z</time>
      </trkpt>
      <trkpt lat="42.792447181418538" lon="13.259350899606943">
        <ele>1605.0899999999999</ele>
        <time>2019-06-18T13:07:26Z</time>
      </trkpt>
      <trkpt lat="42.79242773540318" lon="13.259350899606943">
        <ele>1604.78</ele>
        <time>2019-06-18T13:07:28Z</time>
      </trkpt>
      <trkpt lat="42.792407535016537" lon="13.259351151064038">
        <ele>1604.48</ele>
        <time>2019-06-18T13:07:30Z</time>
      </trkpt>
      <trkpt lat="42.792282393202186" lon="13.259299099445343">
        <ele>1601.2</ele>
        <time>2019-06-18T13:07:43Z</time>
      </trkpt>
      <trkpt lat="42.792194718495011" lon="13.259203042834997">
        <ele>1598.97</ele>
        <time>2019-06-18T13:07:57Z</time>
      </trkpt>
      <trkpt lat="42.792159598320723" lon="13.259197259321809">
        <ele>1598.03</ele>
        <time>2019-06-18T13:08:01Z</time>
      </trkpt>
      <trkpt lat="42.791997659951448" lon="13.259156104177237">
        <ele>1595.3800000000001</ele>
        <time>2019-06-18T13:08:17Z</time>
      </trkpt>
      <trkpt lat="42.791950972750783" lon="13.259161133319139">
        <ele>1594.71</ele>
        <time>2019-06-18T13:08:23Z</time>
      </trkpt>
      <trkpt lat="42.791923647746444" lon="13.259162977337837">
        <ele>1594.1500000000001</ele>
        <time>2019-06-18T13:08:26Z</time>
      </trkpt>
      <trkpt lat="42.79177931137383" lon="13.259203126654029">
        <ele>1591.6300000000001</ele>
        <time>2019-06-18T13:08:42Z</time>
      </trkpt>
      <trkpt lat="42.791718542575836" lon="13.259220141917467">
        <ele>1589.79</ele>
        <time>2019-06-18T13:08:53Z</time>
      </trkpt>
      <trkpt lat="42.791670262813568" lon="13.259229194372892">
        <ele>1587.8</ele>
        <time>2019-06-18T13:09:08Z</time>
      </trkpt>
      <trkpt lat="42.791606727987528" lon="13.259253082796931">
        <ele>1585.53</ele>
        <time>2019-06-18T13:09:19Z</time>
      </trkpt>
      <trkpt lat="42.791488207876682" lon="13.25931360013783">
        <ele>1582.3599999999999</ele>
        <time>2019-06-18T13:09:34Z</time>
      </trkpt>
      <trkpt lat="42.79138594865799" lon="13.25938543304801">
        <ele>1580</ele>
        <time>2019-06-18T13:09:48Z</time>
      </trkpt>
      <trkpt lat="42.791336830705404" lon="13.259430443868041">
        <ele>1578.1300000000001</ele>
        <time>2019-06-18T13:09:57Z</time>
      </trkpt>
      <trkpt lat="42.791189812123775" lon="13.259557681158185">
        <ele>1574.4300000000001</ele>
        <time>2019-06-18T13:10:13Z</time>
      </trkpt>
      <trkpt lat="42.791176736354828" lon="13.259565895423293">
        <ele>1574.28</ele>
        <time>2019-06-18T13:10:23Z</time>
      </trkpt>
      <trkpt lat="42.791106328368187" lon="13.259668238461018">
        <ele>1572.3599999999999</ele>
        <time>2019-06-18T13:10:34Z</time>
      </trkpt>
      <trkpt lat="42.790985712781549" lon="13.259837217628956">
        <ele>1569.5699999999999</ele>
        <time>2019-06-18T13:10:50Z</time>
      </trkpt>
      <trkpt lat="42.790882447734475" lon="13.260001502931118">
        <ele>1566.5599999999999</ele>
        <time>2019-06-18T13:11:04Z</time>
      </trkpt>
      <trkpt lat="42.790783708915114" lon="13.260194873437285">
        <ele>1563.8099999999999</ele>
        <time>2019-06-18T13:11:19Z</time>
      </trkpt>
      <trkpt lat="42.790683293715119" lon="13.260358823463321">
        <ele>1560.6500000000001</ele>
        <time>2019-06-18T13:11:34Z</time>
      </trkpt>
      <trkpt lat="42.790576172992587" lon="13.260462172329426">
        <ele>1557.75</ele>
        <time>2019-06-18T13:11:47Z</time>
      </trkpt>
      <trkpt lat="42.790447343140841" lon="13.260608771815896">
        <ele>1554.71</ele>
        <time>2019-06-18T13:12:02Z</time>
      </trkpt>
      <trkpt lat="42.790316082537174" lon="13.260668618604541">
        <ele>1552.3299999999999</ele>
        <time>2019-06-18T13:12:15Z</time>
      </trkpt>
      <trkpt lat="42.790197394788265" lon="13.260612208396196">
        <ele>1549.3299999999999</ele>
        <time>2019-06-18T13:12:27Z</time>
      </trkpt>
      <trkpt lat="42.790094884112477" lon="13.260575076565146">
        <ele>1546.5899999999999</ele>
        <time>2019-06-18T13:12:38Z</time>
      </trkpt>
      <trkpt lat="42.790055489167571" lon="13.260582117363811">
        <ele>1545.76</ele>
        <time>2019-06-18T13:12:42Z</time>
      </trkpt>
      <trkpt lat="42.789885168895125" lon="13.260673731565475">
        <ele>1544.8900000000001</ele>
        <time>2019-06-18T13:12:59Z</time>
      </trkpt>
      <trkpt lat="42.789763798937201" lon="13.260719496756792">
        <ele>1545.0999999999999</ele>
        <time>2019-06-18T13:13:14Z</time>
      </trkpt>
      <trkpt lat="42.789760613813996" lon="13.260719832032919">
        <ele>1545.04</ele>
        <time>2019-06-18T13:13:23Z</time>
      </trkpt>
      <trkpt lat="42.789756758138537" lon="13.260721759870648">
        <ele>1544.3900000000001</ele>
        <time>2019-06-18T13:13:32Z</time>
      </trkpt>
      <trkpt lat="42.789752064272761" lon="13.260708684101701">
        <ele>1544.28</ele>
        <time>2019-06-18T13:13:46Z</time>
      </trkpt>
      <trkpt lat="42.789754411205649" lon="13.260696614161134">
        <ele>1543.8800000000001</ele>
        <time>2019-06-18T13:14:11Z</time>
      </trkpt>
    </trkseg>
  </trk>

  <trk>
    <name>palazzo-borghese2019-06-21</name>
    <extensions>
      <gpxx:TrackExtension>
        <gpxx:DisplayColor>Yellow</gpxx:DisplayColor>
      </gpxx:TrackExtension>
      <gpxtrkx:TrackStatsExtension xmlns:gpxtrkx="http://www.garmin.com/xmlschemas/TrackStatsExtension/v1">
        <gpxtrkx:Distance>13440</gpxtrkx:Distance>
        <gpxtrkx:TotalElapsedTime>24643</gpxtrkx:TotalElapsedTime>
        <gpxtrkx:MovingTime>16946</gpxtrkx:MovingTime>
        <gpxtrkx:StoppedTime>7597</gpxtrkx:StoppedTime>
        <gpxtrkx:MovingSpeed>1</gpxtrkx:MovingSpeed>
        <gpxtrkx:MaxSpeed>3</gpxtrkx:MaxSpeed>
        <gpxtrkx:MaxElevation>1814</gpxtrkx:MaxElevation>
        <gpxtrkx:MinElevation>936</gpxtrkx:MinElevation>
        <gpxtrkx:Ascent>1029</gpxtrkx:Ascent>
        <gpxtrkx:Descent>1028</gpxtrkx:Descent>
        <gpxtrkx:AvgAscentRate>0</gpxtrkx:AvgAscentRate>
        <gpxtrkx:MaxAscentRate>1</gpxtrkx:MaxAscentRate>
        <gpxtrkx:AvgDescentRate>0</gpxtrkx:AvgDescentRate>
        <gpxtrkx:MaxDescentRate>-0</gpxtrkx:MaxDescentRate>
      </gpxtrkx:TrackStatsExtension>
    </extensions>
    <trkseg>
      <trkpt lat="42.876349864527583" lon="13.270157687366009">
        <ele>941.17999999999995</ele>
        <time>2019-06-21T06:07:41Z</time>
      </trkpt>
      <trkpt lat="42.876357324421406" lon="13.27015676535666">
        <ele>941.17999999999995</ele>
        <time>2019-06-21T06:07:42Z</time>
      </trkpt>
      <trkpt lat="42.87649042904377" lon="13.27015383169055">
        <ele>940.75999999999999</ele>
        <time>2019-06-21T06:07:57Z</time>
      </trkpt>
      <trkpt lat="42.876569973304868" lon="13.27017336152494">
        <ele>940.63999999999999</ele>
        <time>2019-06-21T06:08:06Z</time>
      </trkpt>
      <trkpt lat="42.876683548092842" lon="13.270193478092551">
        <ele>940.61000000000001</ele>
        <time>2019-06-21T06:08:19Z</time>
      </trkpt>
      <trkpt lat="42.87682319059968" lon="13.270230023190379">
        <ele>940.21000000000004</ele>
        <time>2019-06-21T06:08:35Z</time>
      </trkpt>
      <trkpt lat="42.876994013786316" lon="13.270287187770009">
        <ele>940.35000000000002</ele>
        <time>2019-06-21T06:08:53Z</time>
      </trkpt>
      <trkpt lat="42.877161484211683" lon="13.270328678190708">
        <ele>940.67999999999995</ele>
        <time>2019-06-21T06:09:08Z</time>
      </trkpt>
      <trkpt lat="42.877331636846066" lon="13.270330689847469">
        <ele>940.87</ele>
        <time>2019-06-21T06:09:23Z</time>
      </trkpt>
      <trkpt lat="42.877429788932204" lon="13.270297162234783">
        <ele>940.62</ele>
        <time>2019-06-21T06:09:33Z</time>
      </trkpt>
      <trkpt lat="42.877444289624691" lon="13.270285176113248">
        <ele>940.60000000000002</ele>
        <time>2019-06-21T06:09:35Z</time>
      </trkpt>
      <trkpt lat="42.877480583265424" lon="13.270253911614418">
        <ele>940.80999999999995</ele>
        <time>2019-06-21T06:09:39Z</time>
      </trkpt>
      <trkpt lat="42.877605557441711" lon="13.270124243572354">
        <ele>940.22000000000003</ele>
        <time>2019-06-21T06:09:54Z</time>
      </trkpt>
      <trkpt lat="42.877754168584943" lon="13.269973201677203">
        <ele>939.48000000000002</ele>
        <time>2019-06-21T06:10:12Z</time>
      </trkpt>
      <trkpt lat="42.877903366461396" lon="13.269831463694572">
        <ele>938.86000000000001</ele>
        <time>2019-06-21T06:10:29Z</time>
      </trkpt>
      <trkpt lat="42.878035213798285" lon="13.269734233617783">
        <ele>938.73000000000002</ele>
        <time>2019-06-21T06:10:43Z</time>
      </trkpt>
      <trkpt lat="42.878163959830999" lon="13.269658125936985">
        <ele>938.33000000000004</ele>
        <time>2019-06-21T06:10:56Z</time>
      </trkpt>
      <trkpt lat="42.878193045035005" lon="13.269641865044832">
        <ele>938.28999999999996</ele>
        <time>2019-06-21T06:10:59Z</time>
      </trkpt>
      <trkpt lat="42.87836872972548" lon="13.269586795940995">
        <ele>938.89999999999998</ele>
        <time>2019-06-21T06:11:15Z</time>
      </trkpt>
      <trkpt lat="42.878514910116792" lon="13.269536001607776">
        <ele>937.84000000000003</ele>
        <time>2019-06-21T06:11:28Z</time>
      </trkpt>
      <trkpt lat="42.878660000860691" lon="13.269439525902271">
        <ele>937.37</ele>
        <time>2019-06-21T06:11:42Z</time>
      </trkpt>
      <trkpt lat="42.878783633932471" lon="13.269263505935669">
        <ele>936.38999999999999</ele>
        <time>2019-06-21T06:11:58Z</time>
      </trkpt>
      <trkpt lat="42.878791764378548" lon="13.269156385213137">
        <ele>936.25999999999999</ele>
        <time>2019-06-21T06:12:10Z</time>
      </trkpt>
      <trkpt lat="42.878775838762522" lon="13.269049599766731">
        <ele>937.59000000000003</ele>
        <time>2019-06-21T06:12:28Z</time>
      </trkpt>
      <trkpt lat="42.878763936460018" lon="13.269014479592443">
        <ele>938.11000000000001</ele>
        <time>2019-06-21T06:12:42Z</time>
      </trkpt>
      <trkpt lat="42.878758069127798" lon="13.269034763798118">
        <ele>937.82000000000005</ele>
        <time>2019-06-21T06:13:01Z</time>
      </trkpt>
      <trkpt lat="42.878722278401256" lon="13.269013809040189">
        <ele>938.78999999999996</ele>
        <time>2019-06-21T06:13:13Z</time>
      </trkpt>
      <trkpt lat="42.878734013065696" lon="13.269004253670573">
        <ele>938.71000000000004</ele>
        <time>2019-06-21T06:13:28Z</time>
      </trkpt>
      <trkpt lat="42.878753794357181" lon="13.269004840403795">
        <ele>935.67999999999995</ele>
        <time>2019-06-21T06:13:39Z</time>
      </trkpt>
      <trkpt lat="42.878758739680052" lon="13.269008193165064">
        <ele>937.80999999999995</ele>
        <time>2019-06-21T06:13:41Z</time>
      </trkpt>
      <trkpt lat="42.878761924803257" lon="13.269004840403795">
        <ele>938.20000000000005</ele>
        <time>2019-06-21T06:13:57Z</time>
      </trkpt>
      <trkpt lat="42.878756728023291" lon="13.269021017476916">
        <ele>938.25</ele>
        <time>2019-06-21T06:14:11Z</time>
      </trkpt>
      <trkpt lat="42.878750441595912" lon="13.269020263105631">
        <ele>939.44000000000005</ele>
        <time>2019-06-21T06:14:33Z</time>
      </trkpt>
      <trkpt lat="42.878749603405595" lon="13.269021101295948">
        <ele>938.49000000000001</ele>
        <time>2019-06-21T06:14:35Z</time>
      </trkpt>
      <trkpt lat="42.878750273957849" lon="13.269028225913644">
        <ele>938.13</ele>
        <time>2019-06-21T06:14:58Z</time>
      </trkpt>
      <trkpt lat="42.878755973652005" lon="13.269039038568735">
        <ele>938.27999999999997</ele>
        <time>2019-06-21T06:15:21Z</time>
      </trkpt>
      <trkpt lat="42.878674669191241" lon="13.268959997221828">
        <ele>939.63</ele>
        <time>2019-06-21T06:15:36Z</time>
      </trkpt>
      <trkpt lat="42.878557993099093" lon="13.268856480717659">
        <ele>941.90999999999997</ele>
        <time>2019-06-21T06:15:54Z</time>
      </trkpt>
      <trkpt lat="42.878465289250016" lon="13.26877542771399">
        <ele>941.95000000000005</ele>
        <time>2019-06-21T06:16:08Z</time>
      </trkpt>
      <trkpt lat="42.878417680040002" lon="13.268783474341035">
        <ele>942.19000000000005</ele>
        <time>2019-06-21T06:16:19Z</time>
      </trkpt>
      <trkpt lat="42.878384906798601" lon="13.26876712962985">
        <ele>943.02999999999997</ele>
        <time>2019-06-21T06:16:35Z</time>
      </trkpt>
      <trkpt lat="42.878310307860374" lon="13.268687501549721">
        <ele>944.38999999999999</ele>
        <time>2019-06-21T06:16:50Z</time>
      </trkpt>
      <trkpt lat="42.878243420273066" lon="13.268639724701643">
        <ele>947.04999999999995</ele>
        <time>2019-06-21T06:17:04Z</time>
      </trkpt>
      <trkpt lat="42.87819136865437" lon="13.268577950075269">
        <ele>949.30999999999995</ele>
        <time>2019-06-21T06:17:18Z</time>
      </trkpt>
      <trkpt lat="42.878147447481751" lon="13.26847979798913">
        <ele>951.89999999999998</ele>
        <time>2019-06-21T06:17:35Z</time>
      </trkpt>
      <trkpt lat="42.878145519644022" lon="13.268394554033875">
        <ele>954.12</ele>
        <time>2019-06-21T06:17:47Z</time>
      </trkpt>
      <trkpt lat="42.878147950395942" lon="13.268259605392814">
        <ele>956.29999999999995</ele>
        <time>2019-06-21T06:18:03Z</time>
      </trkpt>
      <trkpt lat="42.878114087507129" lon="13.268165057525039">
        <ele>958.25999999999999</ele>
        <time>2019-06-21T06:18:17Z</time>
      </trkpt>
      <trkpt lat="42.878080224618316" lon="13.268072605133057">
        <ele>960.11000000000001</ele>
        <time>2019-06-21T06:18:32Z</time>
      </trkpt>
      <trkpt lat="42.878052396699786" lon="13.267941847443581">
        <ele>962.5</ele>
        <time>2019-06-21T06:18:50Z</time>
      </trkpt>
      <trkpt lat="42.878010403364897" lon="13.267849395051599">
        <ele>964.62</ele>
        <time>2019-06-21T06:19:03Z</time>
      </trkpt>
      <trkpt lat="42.877957178279757" lon="13.267762809991837">
        <ele>966.55999999999995</ele>
        <time>2019-06-21T06:19:18Z</time>
      </trkpt>
      <trkpt lat="42.87790747359395" lon="13.26766868121922">
        <ele>968.52999999999997</ele>
        <time>2019-06-21T06:19:32Z</time>
      </trkpt>
      <trkpt lat="42.877868246287107" lon="13.26758611947298">
        <ele>970.24000000000001</ele>
        <time>2019-06-21T06:19:46Z</time>
      </trkpt>
      <trkpt lat="42.877832036465406" lon="13.267492409795523">
        <ele>972.22000000000003</ele>
        <time>2019-06-21T06:19:58Z</time>
      </trkpt>
      <trkpt lat="42.877757269889116" lon="13.2673847861588">
        <ele>974.20000000000005</ele>
        <time>2019-06-21T06:20:15Z</time>
      </trkpt>
      <trkpt lat="42.877684347331524" lon="13.26726115308702">
        <ele>975.80999999999995</ele>
        <time>2019-06-21T06:20:32Z</time>
      </trkpt>
      <trkpt lat="42.8775854408741" lon="13.267191248014569">
        <ele>977.83000000000004</ele>
        <time>2019-06-21T06:20:49Z</time>
      </trkpt>
      <trkpt lat="42.877517212182283" lon="13.267133999615908">
        <ele>979.50999999999999</ele>
        <time>2019-06-21T06:21:01Z</time>
      </trkpt>
      <trkpt lat="42.877433309331536" lon="13.267096197232604">
        <ele>981.08000000000004</ele>
        <time>2019-06-21T06:21:15Z</time>
      </trkpt>
      <trkpt lat="42.877355189993978" lon="13.267026040703058">
        <ele>983.15999999999997</ele>
        <time>2019-06-21T06:21:31Z</time>
      </trkpt>
      <trkpt lat="42.877294840291142" lon="13.266971139237285">
        <ele>985.09000000000003</ele>
        <time>2019-06-21T06:21:43Z</time>
      </trkpt>
      <trkpt lat="42.877218397334218" lon="13.266903078183532">
        <ele>987.20000000000005</ele>
        <time>2019-06-21T06:21:57Z</time>
      </trkpt>
      <trkpt lat="42.877177745103836" lon="13.266841219738126">
        <ele>989.25</ele>
        <time>2019-06-21T06:22:12Z</time>
      </trkpt>
      <trkpt lat="42.877164836972952" lon="13.266711384057999">
        <ele>990.82000000000005</ele>
        <time>2019-06-21T06:22:30Z</time>
      </trkpt>
      <trkpt lat="42.87708168849349" lon="13.266629409044981">
        <ele>993.50999999999999</ele>
        <time>2019-06-21T06:22:47Z</time>
      </trkpt>
      <trkpt lat="42.876984206959605" lon="13.26658976264298">
        <ele>995.11000000000001</ele>
        <time>2019-06-21T06:23:02Z</time>
      </trkpt>
      <trkpt lat="42.87682025693357" lon="13.266534861177206">
        <ele>997.13</ele>
        <time>2019-06-21T06:23:18Z</time>
      </trkpt>
      <trkpt lat="42.876681033521891" lon="13.266503177583218">
        <ele>999.09000000000003</ele>
        <time>2019-06-21T06:23:36Z</time>
      </trkpt>
      <trkpt lat="42.876669801771641" lon="13.266499657183886">
        <ele>999.38999999999999</ele>
        <time>2019-06-21T06:23:38Z</time>
      </trkpt>
      <trkpt lat="42.876590006053448" lon="13.266393290832639">
        <ele>1001.14</ele>
        <time>2019-06-21T06:23:54Z</time>
      </trkpt>
      <trkpt lat="42.876522364094853" lon="13.266263036057353">
        <ele>1003.6</ele>
        <time>2019-06-21T06:24:12Z</time>
      </trkpt>
      <trkpt lat="42.876437623053789" lon="13.266153568401933">
        <ele>1005.63</ele>
        <time>2019-06-21T06:24:29Z</time>
      </trkpt>
      <trkpt lat="42.876365790143609" lon="13.266032030805945">
        <ele>1008.14</ele>
        <time>2019-06-21T06:24:48Z</time>
      </trkpt>
      <trkpt lat="42.876284485682845" lon="13.265925412997603">
        <ele>1010.14</ele>
        <time>2019-06-21T06:25:04Z</time>
      </trkpt>
      <trkpt lat="42.876212233677506" lon="13.265858860686421">
        <ele>1011.8099999999999</ele>
        <time>2019-06-21T06:25:21Z</time>
      </trkpt>
      <trkpt lat="42.876165965572" lon="13.265731288120151">
        <ele>1013.6</ele>
        <time>2019-06-21T06:25:37Z</time>
      </trkpt>
      <trkpt lat="42.876099832355976" lon="13.265642942860723">
        <ele>1015.61</ele>
        <time>2019-06-21T06:25:52Z</time>
      </trkpt>
      <trkpt lat="42.876087343320251" lon="13.265617713332176">
        <ele>1016.41</ele>
        <time>2019-06-21T06:25:57Z</time>
      </trkpt>
      <trkpt lat="42.875994555652142" lon="13.265528110787272">
        <ele>1018.51</ele>
        <time>2019-06-21T06:26:15Z</time>
      </trkpt>
      <trkpt lat="42.875913754105568" lon="13.265397269278765">
        <ele>1020.75</ele>
        <time>2019-06-21T06:26:34Z</time>
      </trkpt>
      <trkpt lat="42.875850722193718" lon="13.265258381143212">
        <ele>1022.55</ele>
        <time>2019-06-21T06:26:53Z</time>
      </trkpt>
      <trkpt lat="42.875834880396724" lon="13.265166683122516">
        <ele>1023.89</ele>
        <time>2019-06-21T06:27:09Z</time>
      </trkpt>
      <trkpt lat="42.875829180702567" lon="13.265022011473775">
        <ele>1025.75</ele>
        <time>2019-06-21T06:27:27Z</time>
      </trkpt>
      <trkpt lat="42.87581954151392" lon="13.264993177726865">
        <ele>1026.2</ele>
        <time>2019-06-21T06:27:32Z</time>
      </trkpt>
      <trkpt lat="42.875744439661503" lon="13.26487029902637">
        <ele>1028.0599999999999</ele>
        <time>2019-06-21T06:27:53Z</time>
      </trkpt>
      <trkpt lat="42.875732285901904" lon="13.264777511358261">
        <ele>1029.96</ele>
        <time>2019-06-21T06:28:09Z</time>
      </trkpt>
      <trkpt lat="42.875712420791388" lon="13.264689082279801">
        <ele>1031.4300000000001</ele>
        <time>2019-06-21T06:28:24Z</time>
      </trkpt>
      <trkpt lat="42.875694902613759" lon="13.264617584645748">
        <ele>1032.5899999999999</ele>
        <time>2019-06-21T06:28:37Z</time>
      </trkpt>
      <trkpt lat="42.87568861618638" lon="13.264525970444083">
        <ele>1034.2</ele>
        <time>2019-06-21T06:28:54Z</time>
      </trkpt>
      <trkpt lat="42.875672020018101" lon="13.264473918825388">
        <ele>1035.8099999999999</ele>
        <time>2019-06-21T06:29:06Z</time>
      </trkpt>
      <trkpt lat="42.875695405527949" lon="13.264397643506527">
        <ele>1036.8599999999999</ele>
        <time>2019-06-21T06:29:21Z</time>
      </trkpt>
      <trkpt lat="42.875722898170352" lon="13.264311980456114">
        <ele>1038.6900000000001</ele>
        <time>2019-06-21T06:29:37Z</time>
      </trkpt>
      <trkpt lat="42.875710744410753" lon="13.264291612431407">
        <ele>1038.3900000000001</ele>
        <time>2019-06-21T06:29:45Z</time>
      </trkpt>
      <trkpt lat="42.875626422464848" lon="13.264259425923228">
        <ele>1038.01</ele>
        <time>2019-06-21T06:30:00Z</time>
      </trkpt>
      <trkpt lat="42.875580405816436" lon="13.264231011271477">
        <ele>1039.4300000000001</ele>
        <time>2019-06-21T06:30:14Z</time>
      </trkpt>
      <trkpt lat="42.875553919002414" lon="13.264162614941597">
        <ele>1041.0799999999999</ele>
        <time>2019-06-21T06:30:29Z</time>
      </trkpt>
      <trkpt lat="42.875537239015102" lon="13.264162531122565">
        <ele>1041.28</ele>
        <time>2019-06-21T06:30:30Z</time>
      </trkpt>
      <trkpt lat="42.875525504350662" lon="13.264157082885504">
        <ele>1041.54</ele>
        <time>2019-06-21T06:30:32Z</time>
      </trkpt>
      <trkpt lat="42.875511506572366" lon="13.264092961326241">
        <ele>1043.22</ele>
        <time>2019-06-21T06:30:48Z</time>
      </trkpt>
      <trkpt lat="42.875509578734636" lon="13.263976452872157">
        <ele>1044.5999999999999</ele>
        <time>2019-06-21T06:31:07Z</time>
      </trkpt>
      <trkpt lat="42.875425256788731" lon="13.263961784541607">
        <ele>1046.51</ele>
        <time>2019-06-21T06:31:23Z</time>
      </trkpt>
      <trkpt lat="42.875400530174375" lon="13.2638671528548">
        <ele>1046.4400000000001</ele>
        <time>2019-06-21T06:31:37Z</time>
      </trkpt>
      <trkpt lat="42.875391310080886" lon="13.263850221410394">
        <ele>1046.3900000000001</ele>
        <time>2019-06-21T06:31:39Z</time>
      </trkpt>
      <trkpt lat="42.875425005331635" lon="13.263746872544289">
        <ele>1048.2</ele>
        <time>2019-06-21T06:31:53Z</time>
      </trkpt>
      <trkpt lat="42.875464735552669" lon="13.263714350759983">
        <ele>1048.8800000000001</ele>
        <time>2019-06-21T06:32:00Z</time>
      </trkpt>
      <trkpt lat="42.875632708892226" lon="13.263700688257813">
        <ele>1049.6900000000001</ele>
        <time>2019-06-21T06:32:06Z</time>
      </trkpt>
      <trkpt lat="42.875685598701239" lon="13.263728097081184">
        <ele>1050.0899999999999</ele>
        <time>2019-06-21T06:32:09Z</time>
      </trkpt>
      <trkpt lat="42.875765478238463" lon="13.263723067939281">
        <ele>1051.6099999999999</ele>
        <time>2019-06-21T06:32:18Z</time>
      </trkpt>
      <trkpt lat="42.875889362767339" lon="13.263666825369">
        <ele>1053.24</ele>
        <time>2019-06-21T06:32:29Z</time>
      </trkpt>
      <trkpt lat="42.875977037474513" lon="13.263572864234447">
        <ele>1054.3900000000001</ele>
        <time>2019-06-21T06:32:41Z</time>
      </trkpt>
      <trkpt lat="42.876074183732271" lon="13.263526009395719">
        <ele>1055.73</ele>
        <time>2019-06-21T06:32:53Z</time>
      </trkpt>
      <trkpt lat="42.876106034964323" lon="13.263538833707571">
        <ele>1058.1800000000001</ele>
        <time>2019-06-21T06:33:09Z</time>
      </trkpt>
      <trkpt lat="42.876031268388033" lon="13.263471191748977">
        <ele>1060.71</ele>
        <time>2019-06-21T06:33:26Z</time>
      </trkpt>
      <trkpt lat="42.875993717461824" lon="13.263380415737629">
        <ele>1063.27</ele>
        <time>2019-06-21T06:33:43Z</time>
      </trkpt>
      <trkpt lat="42.87593781016767" lon="13.263307744637132">
        <ele>1065.5899999999999</ele>
        <time>2019-06-21T06:34:01Z</time>
      </trkpt>
      <trkpt lat="42.875914592295885" lon="13.263202635571361">
        <ele>1068.5</ele>
        <time>2019-06-21T06:34:19Z</time>
      </trkpt>
      <trkpt lat="42.875904282554984" lon="13.263095179572701">
        <ele>1071.25</ele>
        <time>2019-06-21T06:34:35Z</time>
      </trkpt>
      <trkpt lat="42.87590017542243" lon="13.263064166530967">
        <ele>1071.9400000000001</ele>
        <time>2019-06-21T06:34:40Z</time>
      </trkpt>
      <trkpt lat="42.875838065519929" lon="13.262960566207767">
        <ele>1074.24</ele>
        <time>2019-06-21T06:34:58Z</time>
      </trkpt>
      <trkpt lat="42.875874862074852" lon="13.262874484062195">
        <ele>1076.0599999999999</ele>
        <time>2019-06-21T06:35:10Z</time>
      </trkpt>
      <trkpt lat="42.87593387067318" lon="13.262813799083233">
        <ele>1078.48</ele>
        <time>2019-06-21T06:35:27Z</time>
      </trkpt>
      <trkpt lat="42.875877963379025" lon="13.26270030811429">
        <ele>1081.0799999999999</ele>
        <time>2019-06-21T06:35:45Z</time>
      </trkpt>
      <trkpt lat="42.87584007717669" lon="13.26264850795269">
        <ele>1083.3900000000001</ele>
        <time>2019-06-21T06:36:01Z</time>
      </trkpt>
      <trkpt lat="42.875832617282867" lon="13.262612968683243">
        <ele>1084.01</ele>
        <time>2019-06-21T06:36:06Z</time>
      </trkpt>
      <trkpt lat="42.875764137133956" lon="13.26271497644484">
        <ele>1086.6400000000001</ele>
        <time>2019-06-21T06:36:24Z</time>
      </trkpt>
      <trkpt lat="42.875726837664843" lon="13.262648843228817">
        <ele>1088.6199999999999</ele>
        <time>2019-06-21T06:36:41Z</time>
      </trkpt>
      <trkpt lat="42.875702362507582" lon="13.262666193768382">
        <ele>1089.75</ele>
        <time>2019-06-21T06:36:50Z</time>
      </trkpt>
      <trkpt lat="42.875564228743315" lon="13.262720759958029">
        <ele>1092.4400000000001</ele>
        <time>2019-06-21T06:37:08Z</time>
      </trkpt>
      <trkpt lat="42.8755390830338" lon="13.262691674754024">
        <ele>1093.4300000000001</ele>
        <time>2019-06-21T06:37:15Z</time>
      </trkpt>
      <trkpt lat="42.875439086928964" lon="13.262700056657195">
        <ele>1096.02</ele>
        <time>2019-06-21T06:37:32Z</time>
      </trkpt>
      <trkpt lat="42.875459790229797" lon="13.262683125212789">
        <ele>1096.5899999999999</ele>
        <time>2019-06-21T06:37:39Z</time>
      </trkpt>
      <trkpt lat="42.875452749431133" lon="13.262639874592423">
        <ele>1097.4200000000001</ele>
        <time>2019-06-21T06:37:56Z</time>
      </trkpt>
      <trkpt lat="42.875408995896578" lon="13.262585224583745">
        <ele>1099.77</ele>
        <time>2019-06-21T06:38:11Z</time>
      </trkpt>
      <trkpt lat="42.875371193513274" lon="13.262591594830155">
        <ele>1100.72</ele>
        <time>2019-06-21T06:38:18Z</time>
      </trkpt>
      <trkpt lat="42.87529181689024" lon="13.262576926499605">
        <ele>1102.8099999999999</ele>
        <time>2019-06-21T06:38:35Z</time>
      </trkpt>
      <trkpt lat="42.875249153003097" lon="13.262490341439843">
        <ele>1104.1199999999999</ele>
        <time>2019-06-21T06:38:54Z</time>
      </trkpt>
      <trkpt lat="42.875231215730309" lon="13.262508781626821">
        <ele>1106.77</ele>
        <time>2019-06-21T06:39:09Z</time>
      </trkpt>
      <trkpt lat="42.875212607905269" lon="13.262338461354375">
        <ele>1109.6500000000001</ele>
        <time>2019-06-21T06:39:27Z</time>
      </trkpt>
      <trkpt lat="42.875123172998428" lon="13.262385232374072">
        <ele>1112.0699999999999</ele>
        <time>2019-06-21T06:39:43Z</time>
      </trkpt>
      <trkpt lat="42.875084029510617" lon="13.262358158826828">
        <ele>1114.8099999999999</ele>
        <time>2019-06-21T06:39:59Z</time>
      </trkpt>
      <trkpt lat="42.875082101672888" lon="13.262226143851876">
        <ele>1116.9100000000001</ele>
        <time>2019-06-21T06:40:13Z</time>
      </trkpt>
      <trkpt lat="42.875141110271215" lon="13.262124052271247">
        <ele>1118.0599999999999</ele>
        <time>2019-06-21T06:40:30Z</time>
      </trkpt>
      <trkpt lat="42.87509199231863" lon="13.262011064216495">
        <ele>1121.48</ele>
        <time>2019-06-21T06:40:46Z</time>
      </trkpt>
      <trkpt lat="42.875092662870884" lon="13.261996731162071">
        <ele>1121.76</ele>
        <time>2019-06-21T06:40:48Z</time>
      </trkpt>
      <trkpt lat="42.875058129429817" lon="13.26190578751266">
        <ele>1124.8699999999999</ele>
        <time>2019-06-21T06:41:04Z</time>
      </trkpt>
      <trkpt lat="42.875051088631153" lon="13.261801181361079">
        <ele>1126.6700000000001</ele>
        <time>2019-06-21T06:41:19Z</time>
      </trkpt>
      <trkpt lat="42.875058548524976" lon="13.261720379814506">
        <ele>1128.3299999999999</ele>
        <time>2019-06-21T06:41:37Z</time>
      </trkpt>
      <trkpt lat="42.875016471371055" lon="13.261608649045229">
        <ele>1131.04</ele>
        <time>2019-06-21T06:41:53Z</time>
      </trkpt>
      <trkpt lat="42.875030720606446" lon="13.261516951024532">
        <ele>1133.8900000000001</ele>
        <time>2019-06-21T06:42:09Z</time>
      </trkpt>
      <trkpt lat="42.874912368133664" lon="13.261514771729708">
        <ele>1136.24</ele>
        <time>2019-06-21T06:42:26Z</time>
      </trkpt>
      <trkpt lat="42.874873727560043" lon="13.261514855548739">
        <ele>1137.5899999999999</ele>
        <time>2019-06-21T06:42:42Z</time>
      </trkpt>
      <trkpt lat="42.874870961531997" lon="13.261469257995486">
        <ele>1139.3599999999999</ele>
        <time>2019-06-21T06:43:01Z</time>
      </trkpt>
      <trkpt lat="42.874925695359707" lon="13.261337829753757">
        <ele>1140.8699999999999</ele>
        <time>2019-06-21T06:43:14Z</time>
      </trkpt>
      <trkpt lat="42.874861573800445" lon="13.261270439252257">
        <ele>1143.99</ele>
        <time>2019-06-21T06:43:33Z</time>
      </trkpt>
      <trkpt lat="42.87481295876205" lon="13.261216459795833">
        <ele>1146.96</ele>
        <time>2019-06-21T06:43:49Z</time>
      </trkpt>
      <trkpt lat="42.874756045639515" lon="13.261219644919038">
        <ele>1149.0899999999999</ele>
        <time>2019-06-21T06:44:05Z</time>
      </trkpt>
      <trkpt lat="42.874730648472905" lon="13.261178573593497">
        <ele>1151.0599999999999</ele>
        <time>2019-06-21T06:44:21Z</time>
      </trkpt>
      <trkpt lat="42.874718997627497" lon="13.261077990755439">
        <ele>1152.3399999999999</ele>
        <time>2019-06-21T06:44:37Z</time>
      </trkpt>
      <trkpt lat="42.874711453914642" lon="13.260956201702356">
        <ele>1155.4200000000001</ele>
        <time>2019-06-21T06:44:54Z</time>
      </trkpt>
      <trkpt lat="42.874719751998782" lon="13.260878836736083">
        <ele>1157.72</ele>
        <time>2019-06-21T06:45:11Z</time>
      </trkpt>
      <trkpt lat="42.874745316803455" lon="13.260811865329742">
        <ele>1159.54</ele>
        <time>2019-06-21T06:45:23Z</time>
      </trkpt>
      <trkpt lat="42.874726373702288" lon="13.260788815096021">
        <ele>1159.8199999999999</ele>
        <time>2019-06-21T06:45:25Z</time>
      </trkpt>
      <trkpt lat="42.874707598239183" lon="13.260740870609879">
        <ele>1161.97</ele>
        <time>2019-06-21T06:45:40Z</time>
      </trkpt>
      <trkpt lat="42.874683374539018" lon="13.2607052475214">
        <ele>1164.04</ele>
        <time>2019-06-21T06:45:53Z</time>
      </trkpt>
      <trkpt lat="42.874704580754042" lon="13.260636599734426">
        <ele>1165.8299999999999</ele>
        <time>2019-06-21T06:46:06Z</time>
      </trkpt>
      <trkpt lat="42.874704245477915" lon="13.260542638599873">
        <ele>1168.1400000000001</ele>
        <time>2019-06-21T06:46:22Z</time>
      </trkpt>
      <trkpt lat="42.874695528298616" lon="13.2605273835361">
        <ele>1168.54</ele>
        <time>2019-06-21T06:46:24Z</time>
      </trkpt>
      <trkpt lat="42.874682368710637" lon="13.260505339130759">
        <ele>1169.05</ele>
        <time>2019-06-21T06:46:27Z</time>
      </trkpt>
      <trkpt lat="42.874656552448869" lon="13.260470051318407">
        <ele>1170.54</ele>
        <time>2019-06-21T06:46:42Z</time>
      </trkpt>
      <trkpt lat="42.874655798077583" lon="13.260420598089695">
        <ele>1172.5999999999999</ele>
        <time>2019-06-21T06:46:56Z</time>
      </trkpt>
      <trkpt lat="42.874624282121658" lon="13.260351028293371">
        <ele>1175</ele>
        <time>2019-06-21T06:47:11Z</time>
      </trkpt>
      <trkpt lat="42.874611793085933" lon="13.260326469317079">
        <ele>1177.22</ele>
        <time>2019-06-21T06:47:26Z</time>
      </trkpt>
      <trkpt lat="42.874611709266901" lon="13.260283470153809">
        <ele>1178.74</ele>
        <time>2019-06-21T06:47:39Z</time>
      </trkpt>
      <trkpt lat="42.874591425061226" lon="13.260261844843626">
        <ele>1180.1600000000001</ele>
        <time>2019-06-21T06:47:47Z</time>
      </trkpt>
      <trkpt lat="42.874556723982096" lon="13.260143911466002">
        <ele>1183.4400000000001</ele>
        <time>2019-06-21T06:48:06Z</time>
      </trkpt>
      <trkpt lat="42.874651942402124" lon="13.26004852540791">
        <ele>1185.73</ele>
        <time>2019-06-21T06:48:23Z</time>
      </trkpt>
      <trkpt lat="42.874692846089602" lon="13.259981386363506">
        <ele>1188.3299999999999</ele>
        <time>2019-06-21T06:48:40Z</time>
      </trkpt>
      <trkpt lat="42.874615397304296" lon="13.259935118257999">
        <ele>1189.55</ele>
        <time>2019-06-21T06:48:53Z</time>
      </trkpt>
      <trkpt lat="42.874567368999124" lon="13.259924054145813">
        <ele>1191.6500000000001</ele>
        <time>2019-06-21T06:49:10Z</time>
      </trkpt>
      <trkpt lat="42.874544402584434" lon="13.259888598695397">
        <ele>1193.1300000000001</ele>
        <time>2019-06-21T06:49:27Z</time>
      </trkpt>
      <trkpt lat="42.874552616849542" lon="13.259793883189559">
        <ele>1195</ele>
        <time>2019-06-21T06:49:38Z</time>
      </trkpt>
      <trkpt lat="42.874628053978086" lon="13.259682068601251">
        <ele>1196.9300000000001</ele>
        <time>2019-06-21T06:49:52Z</time>
      </trkpt>
      <trkpt lat="42.874673986807466" lon="13.259626496583223">
        <ele>1197.5799999999999</ele>
        <time>2019-06-21T06:50:02Z</time>
      </trkpt>
      <trkpt lat="42.874748921021819" lon="13.259575115516782">
        <ele>1200.8099999999999</ele>
        <time>2019-06-21T06:50:14Z</time>
      </trkpt>
      <trkpt lat="42.874749004840851" lon="13.259566398337483">
        <ele>1200.46</ele>
        <time>2019-06-21T06:50:15Z</time>
      </trkpt>
      <trkpt lat="42.874752189964056" lon="13.259524405002594">
        <ele>1200.8699999999999</ele>
        <time>2019-06-21T06:50:21Z</time>
      </trkpt>
      <trkpt lat="42.874735845252872" lon="13.259463720023632">
        <ele>1202.1700000000001</ele>
        <time>2019-06-21T06:50:31Z</time>
      </trkpt>
      <trkpt lat="42.874637190252542" lon="13.259367328137159">
        <ele>1204.79</ele>
        <time>2019-06-21T06:50:45Z</time>
      </trkpt>
      <trkpt lat="42.874568877741694" lon="13.259366489946842">
        <ele>1207.49</ele>
        <time>2019-06-21T06:51:03Z</time>
      </trkpt>
      <trkpt lat="42.874510791152716" lon="13.259317707270384">
        <ele>1209.4400000000001</ele>
        <time>2019-06-21T06:51:20Z</time>
      </trkpt>
      <trkpt lat="42.87450953386724" lon="13.259213520213962">
        <ele>1210.5699999999999</ele>
        <time>2019-06-21T06:51:37Z</time>
      </trkpt>
      <trkpt lat="42.874510707333684" lon="13.259208155795932">
        <ele>1210.3800000000001</ele>
        <time>2019-06-21T06:51:54Z</time>
      </trkpt>
      <trkpt lat="42.874462092295289" lon="13.259147219359875">
        <ele>1212.53</ele>
        <time>2019-06-21T06:52:07Z</time>
      </trkpt>
      <trkpt lat="42.874518921598792" lon="13.259087204933167">
        <ele>1215.6600000000001</ele>
        <time>2019-06-21T06:52:24Z</time>
      </trkpt>
      <trkpt lat="42.874466953799129" lon="13.259008750319481">
        <ele>1218.51</ele>
        <time>2019-06-21T06:52:40Z</time>
      </trkpt>
      <trkpt lat="42.874475419521332" lon="13.258935157209635">
        <ele>1219.8800000000001</ele>
        <time>2019-06-21T06:52:55Z</time>
      </trkpt>
      <trkpt lat="42.874507186934352" lon="13.258892074227333">
        <ele>1221.8399999999999</ele>
        <time>2019-06-21T06:53:15Z</time>
      </trkpt>
      <trkpt lat="42.874518921598792" lon="13.258828036487103">
        <ele>1223.0599999999999</ele>
        <time>2019-06-21T06:53:34Z</time>
      </trkpt>
      <trkpt lat="42.874536355957389" lon="13.258813871070743">
        <ele>1223.29</ele>
        <time>2019-06-21T06:53:42Z</time>
      </trkpt>
      <trkpt lat="42.874542977660894" lon="13.258794005960226">
        <ele>1223.1800000000001</ele>
        <time>2019-06-21T06:54:02Z</time>
      </trkpt>
      <trkpt lat="42.874543396756053" lon="13.258828707039356">
        <ele>1223.46</ele>
        <time>2019-06-21T06:54:22Z</time>
      </trkpt>
      <trkpt lat="42.874568961560726" lon="13.258826779201627">
        <ele>1223.45</ele>
        <time>2019-06-21T06:54:41Z</time>
      </trkpt>
      <trkpt lat="42.874596789479256" lon="13.258768441155553">
        <ele>1225.77</ele>
        <time>2019-06-21T06:54:53Z</time>
      </trkpt>
      <trkpt lat="42.874594023451209" lon="13.258701805025339">
        <ele>1228.1199999999999</ele>
        <time>2019-06-21T06:55:08Z</time>
      </trkpt>
      <trkpt lat="42.874593436717987" lon="13.258713120594621">
        <ele>1227.8699999999999</ele>
        <time>2019-06-21T06:55:30Z</time>
      </trkpt>
      <trkpt lat="42.874569464474916" lon="13.258669367060065">
        <ele>1229.4200000000001</ele>
        <time>2019-06-21T06:55:47Z</time>
      </trkpt>
      <trkpt lat="42.874562172219157" lon="13.258587643504143">
        <ele>1232.3199999999999</ele>
        <time>2019-06-21T06:56:03Z</time>
      </trkpt>
      <trkpt lat="42.87462092936039" lon="13.258519247174263">
        <ele>1234.6300000000001</ele>
        <time>2019-06-21T06:56:17Z</time>
      </trkpt>
      <trkpt lat="42.874656552448869" lon="13.258464513346553">
        <ele>1237.3599999999999</ele>
        <time>2019-06-21T06:56:33Z</time>
      </trkpt>
      <trkpt lat="42.87460969761014" lon="13.258424866944551">
        <ele>1239.3699999999999</ele>
        <time>2019-06-21T06:56:50Z</time>
      </trkpt>
      <trkpt lat="42.874602824449539" lon="13.258362337946892">
        <ele>1241.3900000000001</ele>
        <time>2019-06-21T06:57:06Z</time>
      </trkpt>
      <trkpt lat="42.874525040388107" lon="13.258247673511505">
        <ele>1243.28</ele>
        <time>2019-06-21T06:57:18Z</time>
      </trkpt>
      <trkpt lat="42.874439964070916" lon="13.258213894441724">
        <ele>1245.8599999999999</ele>
        <time>2019-06-21T06:57:36Z</time>
      </trkpt>
      <trkpt lat="42.87443183362484" lon="13.258188413456082">
        <ele>1246.1400000000001</ele>
        <time>2019-06-21T06:57:53Z</time>
      </trkpt>
      <trkpt lat="42.874431582167745" lon="13.2581477612257">
        <ele>1247.0799999999999</ele>
        <time>2019-06-21T06:58:15Z</time>
      </trkpt>
      <trkpt lat="42.874482292681932" lon="13.258116161450744">
        <ele>1246.76</ele>
        <time>2019-06-21T06:58:30Z</time>
      </trkpt>
      <trkpt lat="42.874519592151046" lon="13.258128901943564">
        <ele>1247.05</ele>
        <time>2019-06-21T06:58:46Z</time>
      </trkpt>
      <trkpt lat="42.874523866921663" lon="13.258068636059761">
        <ele>1250.1900000000001</ele>
        <time>2019-06-21T06:59:01Z</time>
      </trkpt>
      <trkpt lat="42.874570051208138" lon="13.25801239348948">
        <ele>1251.3299999999999</ele>
        <time>2019-06-21T06:59:18Z</time>
      </trkpt>
      <trkpt lat="42.874652361497283" lon="13.257925137877464">
        <ele>1253.4100000000001</ele>
        <time>2019-06-21T06:59:33Z</time>
      </trkpt>
      <trkpt lat="42.874676752835512" lon="13.257874259725213">
        <ele>1256.52</ele>
        <time>2019-06-21T06:59:46Z</time>
      </trkpt>
      <trkpt lat="42.874664682894945" lon="13.257853807881474">
        <ele>1257.8599999999999</ele>
        <time>2019-06-21T06:59:52Z</time>
      </trkpt>
      <trkpt lat="42.874651271849871" lon="13.25778566300869">
        <ele>1260.72</ele>
        <time>2019-06-21T07:00:07Z</time>
      </trkpt>
      <trkpt lat="42.874637274071574" lon="13.257718356326222">
        <ele>1263.95</ele>
        <time>2019-06-21T07:00:22Z</time>
      </trkpt>
      <trkpt lat="42.874637106433511" lon="13.257714919745922">
        <ele>1264.21</ele>
        <time>2019-06-21T07:00:23Z</time>
      </trkpt>
      <trkpt lat="42.874643309041858" lon="13.257606960833073">
        <ele>1266.5899999999999</ele>
        <time>2019-06-21T07:00:41Z</time>
      </trkpt>
      <trkpt lat="42.874665688723326" lon="13.257539235055447">
        <ele>1269.1400000000001</ele>
        <time>2019-06-21T07:00:57Z</time>
      </trkpt>
      <trkpt lat="42.874683374539018" lon="13.257515011355281">
        <ele>1269.73</ele>
        <time>2019-06-21T07:01:02Z</time>
      </trkpt>
      <trkpt lat="42.874711537733674" lon="13.257408058270812">
        <ele>1273.1099999999999</ele>
        <time>2019-06-21T07:01:21Z</time>
      </trkpt>
      <trkpt lat="42.874710028991103" lon="13.257338907569647">
        <ele>1273.53</ele>
        <time>2019-06-21T07:01:40Z</time>
      </trkpt>
      <trkpt lat="42.874702401459217" lon="13.257327927276492">
        <ele>1276.5699999999999</ele>
        <time>2019-06-21T07:01:44Z</time>
      </trkpt>
      <trkpt lat="42.87464682944119" lon="13.257225500419736">
        <ele>1278.6099999999999</ele>
        <time>2019-06-21T07:01:58Z</time>
      </trkpt>
      <trkpt lat="42.874660156667233" lon="13.257100693881512">
        <ele>1281.1700000000001</ele>
        <time>2019-06-21T07:02:14Z</time>
      </trkpt>
      <trkpt lat="42.87472209893167" lon="13.257031962275505">
        <ele>1284.6500000000001</ele>
        <time>2019-06-21T07:02:32Z</time>
      </trkpt>
      <trkpt lat="42.874743221327662" lon="13.256988124921918">
        <ele>1286.99</ele>
        <time>2019-06-21T07:02:47Z</time>
      </trkpt>
      <trkpt lat="42.87474213168025" lon="13.256921321153641">
        <ele>1290.03</ele>
        <time>2019-06-21T07:03:04Z</time>
      </trkpt>
      <trkpt lat="42.874737605452538" lon="13.256910676136613">
        <ele>1290.3699999999999</ele>
        <time>2019-06-21T07:03:06Z</time>
      </trkpt>
      <trkpt lat="42.874694606289268" lon="13.256828365847468">
        <ele>1293.29</ele>
        <time>2019-06-21T07:03:21Z</time>
      </trkpt>
      <trkpt lat="42.874727295711637" lon="13.256749492138624">
        <ele>1296.1900000000001</ele>
        <time>2019-06-21T07:03:39Z</time>
      </trkpt>
      <trkpt lat="42.874731905758381" lon="13.256743289530277">
        <ele>1296.6600000000001</ele>
        <time>2019-06-21T07:03:41Z</time>
      </trkpt>
      <trkpt lat="42.874704832211137" lon="13.256614292040467">
        <ele>1299.71</ele>
        <time>2019-06-21T07:03:57Z</time>
      </trkpt>
      <trkpt lat="42.874596705660224" lon="13.256474062800407">
        <ele>1302.23</ele>
        <time>2019-06-21T07:04:12Z</time>
      </trkpt>
      <trkpt lat="42.874596873298287" lon="13.25639309361577">
        <ele>1304.4200000000001</ele>
        <time>2019-06-21T07:04:27Z</time>
      </trkpt>
      <trkpt lat="42.874594107270241" lon="13.256307514384389">
        <ele>1307.1800000000001</ele>
        <time>2019-06-21T07:04:43Z</time>
      </trkpt>
      <trkpt lat="42.874495452269912" lon="13.256127806380391">
        <ele>1309.8099999999999</ele>
        <time>2019-06-21T07:04:59Z</time>
      </trkpt>
      <trkpt lat="42.87446997128427" lon="13.256093943491578">
        <ele>1310.4400000000001</ele>
        <time>2019-06-21T07:05:11Z</time>
      </trkpt>
      <trkpt lat="42.874454716220498" lon="13.256139541044831">
        <ele>1310</ele>
        <time>2019-06-21T07:05:28Z</time>
      </trkpt>
      <trkpt lat="42.874455722048879" lon="13.256155634298921">
        <ele>1303.75</ele>
        <time>2019-06-21T07:05:51Z</time>
      </trkpt>
      <trkpt lat="42.874456727877259" lon="13.256155969575047">
        <ele>1309.8699999999999</ele>
        <time>2019-06-21T07:05:52Z</time>
      </trkpt>
      <trkpt lat="42.874454967677593" lon="13.256101068109274">
        <ele>1311.03</ele>
        <time>2019-06-21T07:06:10Z</time>
      </trkpt>
      <trkpt lat="42.874451698735356" lon="13.256101906299591">
        <ele>1310.9100000000001</ele>
        <time>2019-06-21T07:06:31Z</time>
      </trkpt>
      <trkpt lat="42.874444825574756" lon="13.256101738661528">
        <ele>1311.48</ele>
        <time>2019-06-21T07:06:51Z</time>
      </trkpt>
      <trkpt lat="42.874412890523672" lon="13.256130237132311">
        <ele>1311.6700000000001</ele>
        <time>2019-06-21T07:07:22Z</time>
      </trkpt>
      <trkpt lat="42.874397970736027" lon="13.256140127778053">
        <ele>1311.8699999999999</ele>
        <time>2019-06-21T07:07:46Z</time>
      </trkpt>
      <trkpt lat="42.874419176951051" lon="13.256161920726299">
        <ele>1312.1199999999999</ele>
        <time>2019-06-21T07:08:08Z</time>
      </trkpt>
      <trkpt lat="42.874390175566077" lon="13.256151862442493">
        <ele>1312.22</ele>
        <time>2019-06-21T07:08:30Z</time>
      </trkpt>
      <trkpt lat="42.874381374567747" lon="13.25613459572196">
        <ele>1312.21</ele>
        <time>2019-06-21T07:08:35Z</time>
      </trkpt>
      <trkpt lat="42.874379362910986" lon="13.256061254069209">
        <ele>1312.48</ele>
        <time>2019-06-21T07:08:58Z</time>
      </trkpt>
      <trkpt lat="42.874400988221169" lon="13.256105426698923">
        <ele>1312.8699999999999</ele>
        <time>2019-06-21T07:09:15Z</time>
      </trkpt>
      <trkpt lat="42.874409286305308" lon="13.256130320951343">
        <ele>1313.04</ele>
        <time>2019-06-21T07:09:38Z</time>
      </trkpt>
      <trkpt lat="42.874430073425174" lon="13.256106181070209">
        <ele>1314.1700000000001</ele>
        <time>2019-06-21T07:09:50Z</time>
      </trkpt>
      <trkpt lat="42.874441556632519" lon="13.256127219647169">
        <ele>1314.47</ele>
        <time>2019-06-21T07:09:58Z</time>
      </trkpt>
      <trkpt lat="42.874489417299628" lon="13.256167117506266">
        <ele>1314.4100000000001</ele>
        <time>2019-06-21T07:10:20Z</time>
      </trkpt>
      <trkpt lat="42.874478856101632" lon="13.256187736988068">
        <ele>1314.8199999999999</ele>
        <time>2019-06-21T07:10:39Z</time>
      </trkpt>
      <trkpt lat="42.874489752575755" lon="13.256199890747666">
        <ele>1315.05</ele>
        <time>2019-06-21T07:10:58Z</time>
      </trkpt>
      <trkpt lat="42.874526465311646" lon="13.256182204931974">
        <ele>1315.1400000000001</ele>
        <time>2019-06-21T07:11:20Z</time>
      </trkpt>
      <trkpt lat="42.874510204419494" lon="13.256123280152678">
        <ele>1317.4400000000001</ele>
        <time>2019-06-21T07:11:35Z</time>
      </trkpt>
      <trkpt lat="42.874549767002463" lon="13.256078353151679">
        <ele>1318.8699999999999</ele>
        <time>2019-06-21T07:11:53Z</time>
      </trkpt>
      <trkpt lat="42.874500397592783" lon="13.256045831367373">
        <ele>1321.96</ele>
        <time>2019-06-21T07:12:07Z</time>
      </trkpt>
      <trkpt lat="42.874507354572415" lon="13.255969388410449">
        <ele>1324.49</ele>
        <time>2019-06-21T07:12:22Z</time>
      </trkpt>
      <trkpt lat="42.874546833336353" lon="13.255893448367715">
        <ele>1327.0999999999999</ele>
        <time>2019-06-21T07:12:37Z</time>
      </trkpt>
      <trkpt lat="42.874505594372749" lon="13.255806276574731">
        <ele>1330.23</ele>
        <time>2019-06-21T07:12:53Z</time>
      </trkpt>
      <trkpt lat="42.874552700668573" lon="13.255720613524318">
        <ele>1332.98</ele>
        <time>2019-06-21T07:13:09Z</time>
      </trkpt>
      <trkpt lat="42.874494697898626" lon="13.255664790049195">
        <ele>1336.02</ele>
        <time>2019-06-21T07:13:25Z</time>
      </trkpt>
      <trkpt lat="42.874453626573086" lon="13.255618438124657">
        <ele>1338.9100000000001</ele>
        <time>2019-06-21T07:13:40Z</time>
      </trkpt>
      <trkpt lat="42.874521184712648" lon="13.255530511960387">
        <ele>1341.5</ele>
        <time>2019-06-21T07:13:55Z</time>
      </trkpt>
      <trkpt lat="42.874612715095282" lon="13.255484998226166">
        <ele>1343.8399999999999</ele>
        <time>2019-06-21T07:14:12Z</time>
      </trkpt>
      <trkpt lat="42.874752273783088" lon="13.255515927448869">
        <ele>1346.25</ele>
        <time>2019-06-21T07:14:29Z</time>
      </trkpt>
      <trkpt lat="42.874740874394774" lon="13.255481226369739">
        <ele>1348.1800000000001</ele>
        <time>2019-06-21T07:14:39Z</time>
      </trkpt>
      <trkpt lat="42.874716650694609" lon="13.255449961870909">
        <ele>1349.4100000000001</ele>
        <time>2019-06-21T07:14:46Z</time>
      </trkpt>
      <trkpt lat="42.874682117253542" lon="13.255381733179092">
        <ele>1352.3800000000001</ele>
        <time>2019-06-21T07:15:01Z</time>
      </trkpt>
      <trkpt lat="42.874649679288268" lon="13.255289616063237">
        <ele>1355.6500000000001</ele>
        <time>2019-06-21T07:15:16Z</time>
      </trkpt>
      <trkpt lat="42.874579103663564" lon="13.255156930536032">
        <ele>1358.6600000000001</ele>
        <time>2019-06-21T07:15:34Z</time>
      </trkpt>
      <trkpt lat="42.874551359564066" lon="13.255045786499977">
        <ele>1361.4100000000001</ele>
        <time>2019-06-21T07:15:51Z</time>
      </trkpt>
      <trkpt lat="42.874592179432511" lon="13.254980910569429">
        <ele>1363.8599999999999</ele>
        <time>2019-06-21T07:16:06Z</time>
      </trkpt>
      <trkpt lat="42.874589078128338" lon="13.254895582795143">
        <ele>1366.27</ele>
        <time>2019-06-21T07:16:22Z</time>
      </trkpt>
      <trkpt lat="42.874587988480926" lon="13.25484168715775">
        <ele>1368.22</ele>
        <time>2019-06-21T07:16:42Z</time>
      </trkpt>
      <trkpt lat="42.874571308493614" lon="13.254803046584129">
        <ele>1367.8399999999999</ele>
        <time>2019-06-21T07:17:03Z</time>
      </trkpt>
      <trkpt lat="42.87458916194737" lon="13.254785779863596">
        <ele>1368.0899999999999</ele>
        <time>2019-06-21T07:17:05Z</time>
      </trkpt>
      <trkpt lat="42.874631742015481" lon="13.254716880619526">
        <ele>1371.2</ele>
        <time>2019-06-21T07:17:20Z</time>
      </trkpt>
      <trkpt lat="42.874630987644196" lon="13.254591738805175">
        <ele>1374.2</ele>
        <time>2019-06-21T07:17:36Z</time>
      </trkpt>
      <trkpt lat="42.874554125592113" lon="13.254417311400175">
        <ele>1376.49</ele>
        <time>2019-06-21T07:17:50Z</time>
      </trkpt>
      <trkpt lat="42.874597711488605" lon="13.254373306408525">
        <ele>1378.02</ele>
        <time>2019-06-21T07:18:04Z</time>
      </trkpt>
      <trkpt lat="42.87459360435605" lon="13.254216145724058">
        <ele>1381.1300000000001</ele>
        <time>2019-06-21T07:18:22Z</time>
      </trkpt>
      <trkpt lat="42.874570386484265" lon="13.254144983366132">
        <ele>1382.48</ele>
        <time>2019-06-21T07:18:32Z</time>
      </trkpt>
      <trkpt lat="42.874545240774751" lon="13.254021601751447">
        <ele>1385.01</ele>
        <time>2019-06-21T07:18:48Z</time>
      </trkpt>
      <trkpt lat="42.874550521373749" lon="13.253856981173158">
        <ele>1388.05</ele>
        <time>2019-06-21T07:19:05Z</time>
      </trkpt>
      <trkpt lat="42.874536355957389" lon="13.253760756924748">
        <ele>1390.03</ele>
        <time>2019-06-21T07:19:19Z</time>
      </trkpt>
      <trkpt lat="42.874530237168074" lon="13.25359077192843">
        <ele>1391.97</ele>
        <time>2019-06-21T07:19:37Z</time>
      </trkpt>
      <trkpt lat="42.874512048438191" lon="13.25351893901825">
        <ele>1393.1199999999999</ele>
        <time>2019-06-21T07:19:45Z</time>
      </trkpt>
      <trkpt lat="42.874496709555387" lon="13.253475772216916">
        <ele>1394.26</ele>
        <time>2019-06-21T07:19:51Z</time>
      </trkpt>
      <trkpt lat="42.874471480026841" lon="13.253312576562166">
        <ele>1396.51</ele>
        <time>2019-06-21T07:20:09Z</time>
      </trkpt>
      <trkpt lat="42.87442060187459" lon="13.253189278766513">
        <ele>1398.0699999999999</ele>
        <time>2019-06-21T07:20:27Z</time>
      </trkpt>
      <trkpt lat="42.874483801424503" lon="13.25313588604331">
        <ele>1401.1600000000001</ele>
        <time>2019-06-21T07:20:46Z</time>
      </trkpt>
      <trkpt lat="42.874469300732017" lon="13.2530068885535">
        <ele>1403.5699999999999</ele>
        <time>2019-06-21T07:21:03Z</time>
      </trkpt>
      <trkpt lat="42.874477431178093" lon="13.252895912155509">
        <ele>1406.48</ele>
        <time>2019-06-21T07:21:20Z</time>
      </trkpt>
      <trkpt lat="42.874498637393117" lon="13.252862552180886">
        <ele>1406.78</ele>
        <time>2019-06-21T07:21:37Z</time>
      </trkpt>
      <trkpt lat="42.874510539695621" lon="13.252789713442326">
        <ele>1407.8199999999999</ele>
        <time>2019-06-21T07:21:54Z</time>
      </trkpt>
      <trkpt lat="42.874459577724338" lon="13.252704134210944">
        <ele>1410.1099999999999</ele>
        <time>2019-06-21T07:22:10Z</time>
      </trkpt>
      <trkpt lat="42.874439042061567" lon="13.25259005650878">
        <ele>1413.03</ele>
        <time>2019-06-21T07:22:25Z</time>
      </trkpt>
      <trkpt lat="42.874381542205811" lon="13.252490730956197">
        <ele>1416.0799999999999</ele>
        <time>2019-06-21T07:22:39Z</time>
      </trkpt>
      <trkpt lat="42.874365532770753" lon="13.252374306321144">
        <ele>1419.1500000000001</ele>
        <time>2019-06-21T07:22:56Z</time>
      </trkpt>
      <trkpt lat="42.874344578012824" lon="13.252274310216308">
        <ele>1420.79</ele>
        <time>2019-06-21T07:23:10Z</time>
      </trkpt>
      <trkpt lat="42.874310882762074" lon="13.252191664651036">
        <ele>1422.8199999999999</ele>
        <time>2019-06-21T07:23:23Z</time>
      </trkpt>
      <trkpt lat="42.874214323237538" lon="13.252082448452711">
        <ele>1424.97</ele>
        <time>2019-06-21T07:23:42Z</time>
      </trkpt>
      <trkpt lat="42.874240139499307" lon="13.252008352428675">
        <ele>1427.02</ele>
        <time>2019-06-21T07:23:57Z</time>
      </trkpt>
      <trkpt lat="42.874244078993797" lon="13.251959234476089">
        <ele>1427.96</ele>
        <time>2019-06-21T07:24:10Z</time>
      </trkpt>
      <trkpt lat="42.874234272167087" lon="13.251858819276094">
        <ele>1430.9100000000001</ele>
        <time>2019-06-21T07:24:26Z</time>
      </trkpt>
      <trkpt lat="42.874138047918677" lon="13.251768713817">
        <ele>1433.23</ele>
        <time>2019-06-21T07:24:42Z</time>
      </trkpt>
      <trkpt lat="42.874083146452904" lon="13.251652289181948">
        <ele>1432.9300000000001</ele>
        <time>2019-06-21T07:24:54Z</time>
      </trkpt>
      <trkpt lat="42.873994717374444" lon="13.251529075205326">
        <ele>1433.78</ele>
        <time>2019-06-21T07:25:07Z</time>
      </trkpt>
      <trkpt lat="42.873936295509338" lon="13.251422876492143">
        <ele>1436.03</ele>
        <time>2019-06-21T07:25:22Z</time>
      </trkpt>
      <trkpt lat="42.873952807858586" lon="13.251361940056086">
        <ele>1437.8599999999999</ele>
        <time>2019-06-21T07:25:34Z</time>
      </trkpt>
      <trkpt lat="42.873936211690307" lon="13.251266470178962">
        <ele>1439.96</ele>
        <time>2019-06-21T07:25:49Z</time>
      </trkpt>
      <trkpt lat="42.873933613300323" lon="13.251184327527881">
        <ele>1441.8599999999999</ele>
        <time>2019-06-21T07:26:03Z</time>
      </trkpt>
      <trkpt lat="42.873934870585799" lon="13.2511539850384">
        <ele>1443.29</ele>
        <time>2019-06-21T07:26:19Z</time>
      </trkpt>
      <trkpt lat="42.873964123427868" lon="13.251121547073126">
        <ele>1444.04</ele>
        <time>2019-06-21T07:26:41Z</time>
      </trkpt>
      <trkpt lat="42.873964542523026" lon="13.251034710556269">
        <ele>1446.8599999999999</ele>
        <time>2019-06-21T07:26:56Z</time>
      </trkpt>
      <trkpt lat="42.873986167833209" lon="13.250964973121881">
        <ele>1449.9300000000001</ele>
        <time>2019-06-21T07:27:10Z</time>
      </trkpt>
      <trkpt lat="42.873982647433877" lon="13.250873778015375">
        <ele>1452.5899999999999</ele>
        <time>2019-06-21T07:27:25Z</time>
      </trkpt>
      <trkpt lat="42.874006619676948" lon="13.250793563202024">
        <ele>1454.6900000000001</ele>
        <time>2019-06-21T07:27:38Z</time>
      </trkpt>
      <trkpt lat="42.873980551958084" lon="13.250718042254448">
        <ele>1455.6099999999999</ele>
        <time>2019-06-21T07:27:48Z</time>
      </trkpt>
      <trkpt lat="42.873940402641892" lon="13.250613687559962">
        <ele>1456.8900000000001</ele>
        <time>2019-06-21T07:28:00Z</time>
      </trkpt>
      <trkpt lat="42.87389388307929" lon="13.250523917376995">
        <ele>1459.24</ele>
        <time>2019-06-21T07:28:17Z</time>
      </trkpt>
      <trkpt lat="42.873845687136054" lon="13.250453090295196">
        <ele>1460.47</ele>
        <time>2019-06-21T07:28:36Z</time>
      </trkpt>
      <trkpt lat="42.873823391273618" lon="13.250338174402714">
        <ele>1462.75</ele>
        <time>2019-06-21T07:28:52Z</time>
      </trkpt>
      <trkpt lat="42.87377611733973" lon="13.250230299308896">
        <ele>1465.96</ele>
        <time>2019-06-21T07:29:07Z</time>
      </trkpt>
      <trkpt lat="42.873771507292986" lon="13.250164669007063">
        <ele>1469.01</ele>
        <time>2019-06-21T07:29:24Z</time>
      </trkpt>
      <trkpt lat="42.873705709353089" lon="13.250072216615081">
        <ele>1470.52</ele>
        <time>2019-06-21T07:29:37Z</time>
      </trkpt>
      <trkpt lat="42.873699339106679" lon="13.249978926032782">
        <ele>1472.8699999999999</ele>
        <time>2019-06-21T07:29:56Z</time>
      </trkpt>
      <trkpt lat="42.8737189527601" lon="13.249904746189713">
        <ele>1475.5</ele>
        <time>2019-06-21T07:30:13Z</time>
      </trkpt>
      <trkpt lat="42.873713588342071" lon="13.249803995713592">
        <ele>1477.52</ele>
        <time>2019-06-21T07:30:28Z</time>
      </trkpt>
      <trkpt lat="42.873738901689649" lon="13.249726630747318">
        <ele>1479.8599999999999</ele>
        <time>2019-06-21T07:30:43Z</time>
      </trkpt>
      <trkpt lat="42.873765304684639" lon="13.249666448682547">
        <ele>1481.6500000000001</ele>
        <time>2019-06-21T07:30:56Z</time>
      </trkpt>
      <trkpt lat="42.873797742649913" lon="13.249611128121614">
        <ele>1484.1199999999999</ele>
        <time>2019-06-21T07:31:17Z</time>
      </trkpt>
      <trkpt lat="42.873790031298995" lon="13.24950878508389">
        <ele>1487.05</ele>
        <time>2019-06-21T07:31:34Z</time>
      </trkpt>
      <trkpt lat="42.873780811205506" lon="13.249465115368366">
        <ele>1488.9300000000001</ele>
        <time>2019-06-21T07:31:48Z</time>
      </trkpt>
      <trkpt lat="42.873806292191148" lon="13.249413399025798">
        <ele>1489.8800000000001</ele>
        <time>2019-06-21T07:32:05Z</time>
      </trkpt>
      <trkpt lat="42.87380151450634" lon="13.249308541417122">
        <ele>1492.3099999999999</ele>
        <time>2019-06-21T07:32:21Z</time>
      </trkpt>
      <trkpt lat="42.873814338818192" lon="13.249236959964037">
        <ele>1494.9300000000001</ele>
        <time>2019-06-21T07:32:35Z</time>
      </trkpt>
      <trkpt lat="42.873830683529377" lon="13.249202175065875">
        <ele>1496.5799999999999</ele>
        <time>2019-06-21T07:32:47Z</time>
      </trkpt>
      <trkpt lat="42.873817021027207" lon="13.2491076271981">
        <ele>1498.5599999999999</ele>
        <time>2019-06-21T07:33:03Z</time>
      </trkpt>
      <trkpt lat="42.873800173401833" lon="13.249016851186752">
        <ele>1500.3699999999999</ele>
        <time>2019-06-21T07:33:18Z</time>
      </trkpt>
      <trkpt lat="42.873757928609848" lon="13.248908054083586">
        <ele>1502.97</ele>
        <time>2019-06-21T07:33:34Z</time>
      </trkpt>
      <trkpt lat="42.873709732666612" lon="13.2487777993083">
        <ele>1504.99</ele>
        <time>2019-06-21T07:33:50Z</time>
      </trkpt>
      <trkpt lat="42.873694142326713" lon="13.248674869537354">
        <ele>1506.1400000000001</ele>
        <time>2019-06-21T07:34:05Z</time>
      </trkpt>
      <trkpt lat="42.873681569471955" lon="13.248655507341027">
        <ele>1506.6199999999999</ele>
        <time>2019-06-21T07:34:21Z</time>
      </trkpt>
      <trkpt lat="42.87366321310401" lon="13.248583758249879">
        <ele>1508.48</ele>
        <time>2019-06-21T07:34:37Z</time>
      </trkpt>
      <trkpt lat="42.873663632199168" lon="13.248576382175088">
        <ele>1509.1700000000001</ele>
        <time>2019-06-21T07:34:53Z</time>
      </trkpt>
      <trkpt lat="42.87365005351603" lon="13.24853346683085">
        <ele>1510.51</ele>
        <time>2019-06-21T07:35:07Z</time>
      </trkpt>
      <trkpt lat="42.873654998838902" lon="13.248528689146042">
        <ele>1511.0599999999999</ele>
        <time>2019-06-21T07:35:24Z</time>
      </trkpt>
      <trkpt lat="42.87368081510067" lon="13.248488120734692">
        <ele>1514.1099999999999</ele>
        <time>2019-06-21T07:35:37Z</time>
      </trkpt>
      <trkpt lat="42.873645024374127" lon="13.248450821265578">
        <ele>1516.1300000000001</ele>
        <time>2019-06-21T07:35:49Z</time>
      </trkpt>
      <trkpt lat="42.87363295443356" lon="13.248366918414831">
        <ele>1519.05</ele>
        <time>2019-06-21T07:36:05Z</time>
      </trkpt>
      <trkpt lat="42.873608060181141" lon="13.248277651146054">
        <ele>1521.3900000000001</ele>
        <time>2019-06-21T07:36:19Z</time>
      </trkpt>
      <trkpt lat="42.873573778197169" lon="13.248258205130696">
        <ele>1522.8299999999999</ele>
        <time>2019-06-21T07:36:31Z</time>
      </trkpt>
      <trkpt lat="42.873597079887986" lon="13.248260971158743">
        <ele>1523.6500000000001</ele>
        <time>2019-06-21T07:36:54Z</time>
      </trkpt>
      <trkpt lat="42.873559445142746" lon="13.248158376663923">
        <ele>1525.75</ele>
        <time>2019-06-21T07:37:09Z</time>
      </trkpt>
      <trkpt lat="42.873502699658275" lon="13.248328780755401">
        <ele>1514.3199999999999</ele>
        <time>2019-06-21T07:38:09Z</time>
      </trkpt>
      <trkpt lat="42.873494988307357" lon="13.248323751613498">
        <ele>1514.3599999999999</ele>
        <time>2019-06-21T07:38:10Z</time>
      </trkpt>
      <trkpt lat="42.873599594458938" lon="13.248157287016511">
        <ele>1517.49</ele>
        <time>2019-06-21T07:38:26Z</time>
      </trkpt>
      <trkpt lat="42.87360948510468" lon="13.248156616464257">
        <ele>1517.6099999999999</ele>
        <time>2019-06-21T07:38:27Z</time>
      </trkpt>
      <trkpt lat="42.873589284718037" lon="13.248149072751403">
        <ele>1521.49</ele>
        <time>2019-06-21T07:38:30Z</time>
      </trkpt>
      <trkpt lat="42.873579394072294" lon="13.248148569837213">
        <ele>1525.04</ele>
        <time>2019-06-21T07:38:33Z</time>
      </trkpt>
      <trkpt lat="42.873556260019541" lon="13.248169021680951">
        <ele>1527.0899999999999</ele>
        <time>2019-06-21T07:38:36Z</time>
      </trkpt>
      <trkpt lat="42.873556846752763" lon="13.248179499059916">
        <ele>1530.25</ele>
        <time>2019-06-21T07:38:42Z</time>
      </trkpt>
      <trkpt lat="42.873555086553097" lon="13.248159466311336">
        <ele>1533.46</ele>
        <time>2019-06-21T07:38:46Z</time>
      </trkpt>
      <trkpt lat="42.873561624437571" lon="13.248154604807496">
        <ele>1536.72</ele>
        <time>2019-06-21T07:38:51Z</time>
      </trkpt>
      <trkpt lat="42.873561540618539" lon="13.24815477244556">
        <ele>1540.24</ele>
        <time>2019-06-21T07:38:56Z</time>
      </trkpt>
      <trkpt lat="42.873561792075634" lon="13.24815628118813">
        <ele>1540.5</ele>
        <time>2019-06-21T07:38:57Z</time>
      </trkpt>
      <trkpt lat="42.87355525419116" lon="13.2481440436095">
        <ele>1543.9000000000001</ele>
        <time>2019-06-21T07:39:03Z</time>
      </trkpt>
      <trkpt lat="42.873539244756103" lon="13.24809274636209">
        <ele>1547.0799999999999</ele>
        <time>2019-06-21T07:39:09Z</time>
      </trkpt>
      <trkpt lat="42.873535556718707" lon="13.248082771897316">
        <ele>1547.3499999999999</ele>
        <time>2019-06-21T07:39:10Z</time>
      </trkpt>
      <trkpt lat="42.8735117521137" lon="13.248025523498654">
        <ele>1549.6300000000001</ele>
        <time>2019-06-21T07:39:16Z</time>
      </trkpt>
      <trkpt lat="42.873499346897006" lon="13.248003059998155">
        <ele>1550.8499999999999</ele>
        <time>2019-06-21T07:39:19Z</time>
      </trkpt>
      <trkpt lat="42.873489037156105" lon="13.247953858226538">
        <ele>1553.9400000000001</ele>
        <time>2019-06-21T07:39:28Z</time>
      </trkpt>
      <trkpt lat="42.873441092669964" lon="13.247847072780132">
        <ele>1556.97</ele>
        <time>2019-06-21T07:39:42Z</time>
      </trkpt>
      <trkpt lat="42.873400188982487" lon="13.247724529355764">
        <ele>1559.0699999999999</ele>
        <time>2019-06-21T07:39:59Z</time>
      </trkpt>
      <trkpt lat="42.873418880626559" lon="13.247674070298672">
        <ele>1561.1400000000001</ele>
        <time>2019-06-21T07:40:13Z</time>
      </trkpt>
      <trkpt lat="42.873435476794839" lon="13.247618079185486">
        <ele>1562.8499999999999</ele>
        <time>2019-06-21T07:40:29Z</time>
      </trkpt>
      <trkpt lat="42.873424580320716" lon="13.247593939304352">
        <ele>1563.3699999999999</ele>
        <time>2019-06-21T07:40:39Z</time>
      </trkpt>
      <trkpt lat="42.873408319428563" lon="13.247490925714374">
        <ele>1565.48</ele>
        <time>2019-06-21T07:40:55Z</time>
      </trkpt>
      <trkpt lat="42.873401446267962" lon="13.247420936822891">
        <ele>1567.5899999999999</ele>
        <time>2019-06-21T07:41:09Z</time>
      </trkpt>
      <trkpt lat="42.873390549793839" lon="13.247356899082661">
        <ele>1568.9400000000001</ele>
        <time>2019-06-21T07:41:25Z</time>
      </trkpt>
      <trkpt lat="42.873365320265293" lon="13.247251538559794">
        <ele>1571.3800000000001</ele>
        <time>2019-06-21T07:41:41Z</time>
      </trkpt>
      <trkpt lat="42.873311676084995" lon="13.247197056189179">
        <ele>1573.9100000000001</ele>
        <time>2019-06-21T07:41:55Z</time>
      </trkpt>
      <trkpt lat="42.873261133208871" lon="13.24715849943459">
        <ele>1576.3099999999999</ele>
        <time>2019-06-21T07:42:08Z</time>
      </trkpt>
      <trkpt lat="42.873187623918056" lon="13.247114829719067">
        <ele>1578.1300000000001</ele>
        <time>2019-06-21T07:42:21Z</time>
      </trkpt>
      <trkpt lat="42.87314529530704" lon="13.247059257701039">
        <ele>1580.1500000000001</ele>
        <time>2019-06-21T07:42:36Z</time>
      </trkpt>
      <trkpt lat="42.873162645846605" lon="13.24705196544528">
        <ele>1580.3199999999999</ele>
        <time>2019-06-21T07:42:48Z</time>
      </trkpt>
      <trkpt lat="42.873173290863633" lon="13.247056156396866">
        <ele>1580.51</ele>
        <time>2019-06-21T07:42:57Z</time>
      </trkpt>
      <trkpt lat="42.873175218701363" lon="13.247045008465648">
        <ele>1580.1500000000001</ele>
        <time>2019-06-21T07:43:09Z</time>
      </trkpt>
      <trkpt lat="42.873181337490678" lon="13.24705540202558">
        <ele>1579.95</ele>
        <time>2019-06-21T07:43:30Z</time>
      </trkpt>
      <trkpt lat="42.873186198994517" lon="13.247037716209888">
        <ele>1579.4000000000001</ele>
        <time>2019-06-21T07:43:52Z</time>
      </trkpt>
      <trkpt lat="42.87318586371839" lon="13.247046265751123">
        <ele>1579.51</ele>
        <time>2019-06-21T07:44:48Z</time>
      </trkpt>
      <trkpt lat="42.873180415481329" lon="13.247039811685681">
        <ele>1579.0599999999999</ele>
        <time>2019-06-21T07:45:42Z</time>
      </trkpt>
      <trkpt lat="42.873172871768475" lon="13.24705489911139">
        <ele>1579.04</ele>
        <time>2019-06-21T07:46:40Z</time>
      </trkpt>
      <trkpt lat="42.873171363025904" lon="13.24707250110805">
        <ele>1579.1500000000001</ele>
        <time>2019-06-21T07:47:44Z</time>
      </trkpt>
      <trkpt lat="42.873172704130411" lon="13.247072249650955">
        <ele>1578.8199999999999</ele>
        <time>2019-06-21T07:48:35Z</time>
      </trkpt>
      <trkpt lat="42.873175302520394" lon="13.247058419510722">
        <ele>1580</ele>
        <time>2019-06-21T07:49:30Z</time>
      </trkpt>
      <trkpt lat="42.873177984729409" lon="13.247054563835263">
        <ele>1579.54</ele>
        <time>2019-06-21T07:50:27Z</time>
      </trkpt>
      <trkpt lat="42.873178822919726" lon="13.247056240215898">
        <ele>1579.6600000000001</ele>
        <time>2019-06-21T07:51:21Z</time>
      </trkpt>
      <trkpt lat="42.873173542320728" lon="13.24705833569169">
        <ele>1579.28</ele>
        <time>2019-06-21T07:52:26Z</time>
      </trkpt>
      <trkpt lat="42.873162226751447" lon="13.247061101719737">
        <ele>1579.1600000000001</ele>
        <time>2019-06-21T07:53:04Z</time>
      </trkpt>
      <trkpt lat="42.873179325833917" lon="13.247061520814896">
        <ele>1579.6800000000001</ele>
        <time>2019-06-21T07:53:50Z</time>
      </trkpt>
      <trkpt lat="42.873190809041262" lon="13.247067639604211">
        <ele>1579.28</ele>
        <time>2019-06-21T07:54:44Z</time>
      </trkpt>
      <trkpt lat="42.873184774070978" lon="13.247076440602541">
        <ele>1579.3699999999999</ele>
        <time>2019-06-21T07:55:30Z</time>
      </trkpt>
      <trkpt lat="42.873175051063299" lon="13.24707392603159">
        <ele>1579.24</ele>
        <time>2019-06-21T07:56:19Z</time>
      </trkpt>
      <trkpt lat="42.873179242014885" lon="13.24706370010972">
        <ele>1579.6199999999999</ele>
        <time>2019-06-21T07:57:03Z</time>
      </trkpt>
      <trkpt lat="42.873177314177155" lon="13.247073004022241">
        <ele>1579.4300000000001</ele>
        <time>2019-06-21T07:57:49Z</time>
      </trkpt>
      <trkpt lat="42.873179661110044" lon="13.247072920203209">
        <ele>1579.5699999999999</ele>
        <time>2019-06-21T07:58:37Z</time>
      </trkpt>
      <trkpt lat="42.873171446844935" lon="13.247086498886347">
        <ele>1580.1400000000001</ele>
        <time>2019-06-21T07:59:12Z</time>
      </trkpt>
      <trkpt lat="42.873170441016555" lon="13.247093120589852">
        <ele>1580.02</ele>
        <time>2019-06-21T07:59:56Z</time>
      </trkpt>
      <trkpt lat="42.873142613098025" lon="13.247094545513391">
        <ele>1580.73</ele>
        <time>2019-06-21T08:00:11Z</time>
      </trkpt>
      <trkpt lat="42.873143786564469" lon="13.247080463916063">
        <ele>1581.24</ele>
        <time>2019-06-21T08:00:29Z</time>
      </trkpt>
      <trkpt lat="42.87312232889235" lon="13.247076524421573">
        <ele>1580.8</ele>
        <time>2019-06-21T08:00:42Z</time>
      </trkpt>
      <trkpt lat="42.873128112405539" lon="13.247073842212558">
        <ele>1580.8299999999999</ele>
        <time>2019-06-21T08:01:03Z</time>
      </trkpt>
      <trkpt lat="42.873128280043602" lon="13.247070237994194">
        <ele>1580.6400000000001</ele>
        <time>2019-06-21T08:01:28Z</time>
      </trkpt>
      <trkpt lat="42.87312283180654" lon="13.247057078406215">
        <ele>1580.52</ele>
        <time>2019-06-21T08:01:49Z</time>
      </trkpt>
      <trkpt lat="42.873119981959462" lon="13.247065376490355">
        <ele>1580.52</ele>
        <time>2019-06-21T08:02:19Z</time>
      </trkpt>
      <trkpt lat="42.873124843463302" lon="13.247062861919403">
        <ele>1580.4200000000001</ele>
        <time>2019-06-21T08:02:51Z</time>
      </trkpt>
      <trkpt lat="42.87311889231205" lon="13.247059090062976">
        <ele>1580.51</ele>
        <time>2019-06-21T08:03:17Z</time>
      </trkpt>
      <trkpt lat="42.873063655570149" lon="13.247027155011892">
        <ele>1581.25</ele>
        <time>2019-06-21T08:03:30Z</time>
      </trkpt>
      <trkpt lat="42.873031133785844" lon="13.246998907998204">
        <ele>1582.8699999999999</ele>
        <time>2019-06-21T08:03:42Z</time>
      </trkpt>
      <trkpt lat="42.873003976419568" lon="13.246978037059307">
        <ele>1584.45</ele>
        <time>2019-06-21T08:03:55Z</time>
      </trkpt>
      <trkpt lat="42.872970951721072" lon="13.246936211362481">
        <ele>1586.3499999999999</ele>
        <time>2019-06-21T08:04:10Z</time>
      </trkpt>
      <trkpt lat="42.872952176257968" lon="13.246895056217909">
        <ele>1587.8900000000001</ele>
        <time>2019-06-21T08:04:21Z</time>
      </trkpt>
      <trkpt lat="42.872918481007218" lon="13.246829761192203">
        <ele>1590.24</ele>
        <time>2019-06-21T08:04:38Z</time>
      </trkpt>
      <trkpt lat="42.872934741899371" lon="13.246807381510735">
        <ele>1591.52</ele>
        <time>2019-06-21T08:04:50Z</time>
      </trkpt>
      <trkpt lat="42.872937927022576" lon="13.246764466166496">
        <ele>1593.45</ele>
        <time>2019-06-21T08:05:04Z</time>
      </trkpt>
      <trkpt lat="42.87292342633009" lon="13.246746864169836">
        <ele>1593.1400000000001</ele>
        <time>2019-06-21T08:05:21Z</time>
      </trkpt>
      <trkpt lat="42.872933568432927" lon="13.246707385405898">
        <ele>1595.0799999999999</ele>
        <time>2019-06-21T08:05:35Z</time>
      </trkpt>
      <trkpt lat="42.872919822111726" lon="13.246628595516086">
        <ele>1597.47</ele>
        <time>2019-06-21T08:05:50Z</time>
      </trkpt>
      <trkpt lat="42.872914876788855" lon="13.246590876951814">
        <ele>1598.8699999999999</ele>
        <time>2019-06-21T08:06:01Z</time>
      </trkpt>
      <trkpt lat="42.872901214286685" lon="13.246532790362835">
        <ele>1600.6500000000001</ele>
        <time>2019-06-21T08:06:15Z</time>
      </trkpt>
      <trkpt lat="42.872882187366486" lon="13.246490629389882">
        <ele>1602.0899999999999</ele>
        <time>2019-06-21T08:06:27Z</time>
      </trkpt>
      <trkpt lat="42.872845223173499" lon="13.246424496173859">
        <ele>1604.6400000000001</ele>
        <time>2019-06-21T08:06:44Z</time>
      </trkpt>
      <trkpt lat="42.872832482680678" lon="13.246419886127114">
        <ele>1605.3299999999999</ele>
        <time>2019-06-21T08:06:57Z</time>
      </trkpt>
      <trkpt lat="42.87278076633811" lon="13.246362553909421">
        <ele>1607.3599999999999</ele>
        <time>2019-06-21T08:07:14Z</time>
      </trkpt>
      <trkpt lat="42.872735587880015" lon="13.246318968012929">
        <ele>1609.8</ele>
        <time>2019-06-21T08:07:29Z</time>
      </trkpt>
      <trkpt lat="42.872680686414242" lon="13.246277058497071">
        <ele>1612.29</ele>
        <time>2019-06-21T08:07:44Z</time>
      </trkpt>
      <trkpt lat="42.872633580118418" lon="13.24623104184866">
        <ele>1614.5599999999999</ele>
        <time>2019-06-21T08:07:58Z</time>
      </trkpt>
      <trkpt lat="42.872619582340121" lon="13.246215535327792">
        <ele>1615.05</ele>
        <time>2019-06-21T08:08:10Z</time>
      </trkpt>
      <trkpt lat="42.872581612318754" lon="13.246144708245993">
        <ele>1616.9100000000001</ele>
        <time>2019-06-21T08:08:28Z</time>
      </trkpt>
      <trkpt lat="42.872542133554816" lon="13.246057452633977">
        <ele>1618.9000000000001</ele>
        <time>2019-06-21T08:08:45Z</time>
      </trkpt>
      <trkpt lat="42.872514221817255" lon="13.24598578736186">
        <ele>1620.0799999999999</ele>
        <time>2019-06-21T08:08:58Z</time>
      </trkpt>
      <trkpt lat="42.872494524344802" lon="13.245891574770212">
        <ele>1623.0899999999999</ele>
        <time>2019-06-21T08:09:14Z</time>
      </trkpt>
      <trkpt lat="42.87249737419188" lon="13.245849581435323">
        <ele>1623.95</ele>
        <time>2019-06-21T08:09:28Z</time>
      </trkpt>
      <trkpt lat="42.872486729174852" lon="13.245791327208281">
        <ele>1624.3599999999999</ele>
        <time>2019-06-21T08:09:46Z</time>
      </trkpt>
      <trkpt lat="42.872452782467008" lon="13.245686050504446">
        <ele>1627.49</ele>
        <time>2019-06-21T08:10:02Z</time>
      </trkpt>
      <trkpt lat="42.872416907921433" lon="13.245576499029994">
        <ele>1629.1300000000001</ele>
        <time>2019-06-21T08:10:18Z</time>
      </trkpt>
      <trkpt lat="42.872411962598562" lon="13.245510449633002">
        <ele>1631.54</ele>
        <time>2019-06-21T08:10:33Z</time>
      </trkpt>
      <trkpt lat="42.87241137586534" lon="13.245456889271736">
        <ele>1633.0899999999999</ele>
        <time>2019-06-21T08:10:46Z</time>
      </trkpt>
      <trkpt lat="42.872399725019932" lon="13.245434006676078">
        <ele>1634.3</ele>
        <time>2019-06-21T08:10:58Z</time>
      </trkpt>
      <trkpt lat="42.872375166043639" lon="13.2453827932477">
        <ele>1635.75</ele>
        <time>2019-06-21T08:11:13Z</time>
      </trkpt>
      <trkpt lat="42.872340213507414" lon="13.245315402746201">
        <ele>1637.8399999999999</ele>
        <time>2019-06-21T08:11:28Z</time>
      </trkpt>
      <trkpt lat="42.872354462742805" lon="13.245296543464065">
        <ele>1639.25</ele>
        <time>2019-06-21T08:11:40Z</time>
      </trkpt>
      <trkpt lat="42.872364185750484" lon="13.245265949517488">
        <ele>1640.8699999999999</ele>
        <time>2019-06-21T08:11:52Z</time>
      </trkpt>
      <trkpt lat="42.872342560440302" lon="13.24521423317492">
        <ele>1643.1099999999999</ele>
        <time>2019-06-21T08:12:07Z</time>
      </trkpt>
      <trkpt lat="42.872334346175194" lon="13.245204677805305">
        <ele>1642.4000000000001</ele>
        <time>2019-06-21T08:12:20Z</time>
      </trkpt>
      <trkpt lat="42.872325964272022" lon="13.245211131870747">
        <ele>1642.1800000000001</ele>
        <time>2019-06-21T08:12:41Z</time>
      </trkpt>
      <trkpt lat="42.872316408902407" lon="13.245206521824002">
        <ele>1642.3499999999999</ele>
        <time>2019-06-21T08:13:15Z</time>
      </trkpt>
      <trkpt lat="42.872263770550489" lon="13.24512823484838">
        <ele>1643.49</ele>
        <time>2019-06-21T08:13:26Z</time>
      </trkpt>
      <trkpt lat="42.872204342857003" lon="13.245025388896465">
        <ele>1644.51</ele>
        <time>2019-06-21T08:13:41Z</time>
      </trkpt>
      <trkpt lat="42.872160589322448" lon="13.245063191279769">
        <ele>1646.27</ele>
        <time>2019-06-21T08:13:53Z</time>
      </trkpt>
      <trkpt lat="42.872124714776874" lon="13.245189506560564">
        <ele>1649.02</ele>
        <time>2019-06-21T08:14:12Z</time>
      </trkpt>
      <trkpt lat="42.872091354802251" lon="13.245166875422001">
        <ele>1651.5699999999999</ele>
        <time>2019-06-21T08:14:25Z</time>
      </trkpt>
      <trkpt lat="42.872053384780884" lon="13.24507693760097">
        <ele>1654.5999999999999</ele>
        <time>2019-06-21T08:14:42Z</time>
      </trkpt>
      <trkpt lat="42.872001836076379" lon="13.244975684210658">
        <ele>1657.55</ele>
        <time>2019-06-21T08:15:01Z</time>
      </trkpt>
      <trkpt lat="42.871933523565531" lon="13.24488440528512">
        <ele>1660.05</ele>
        <time>2019-06-21T08:15:19Z</time>
      </trkpt>
      <trkpt lat="42.871909718960524" lon="13.244786504656076">
        <ele>1662.1500000000001</ele>
        <time>2019-06-21T08:15:33Z</time>
      </trkpt>
      <trkpt lat="42.871850710362196" lon="13.244680389761925">
        <ele>1664.8499999999999</ele>
        <time>2019-06-21T08:15:50Z</time>
      </trkpt>
      <trkpt lat="42.871783319860697" lon="13.244599755853415">
        <ele>1667</ele>
        <time>2019-06-21T08:16:05Z</time>
      </trkpt>
      <trkpt lat="42.871714420616627" lon="13.244517613202333">
        <ele>1669.1199999999999</ele>
        <time>2019-06-21T08:16:21Z</time>
      </trkpt>
      <trkpt lat="42.871651975437999" lon="13.244446953758597">
        <ele>1671.6199999999999</ele>
        <time>2019-06-21T08:16:36Z</time>
      </trkpt>
      <trkpt lat="42.871610652655363" lon="13.24438601732254">
        <ele>1674.1700000000001</ele>
        <time>2019-06-21T08:16:50Z</time>
      </trkpt>
      <trkpt lat="42.871547704562545" lon="13.244374869391322">
        <ele>1676.7</ele>
        <time>2019-06-21T08:17:05Z</time>
      </trkpt>
      <trkpt lat="42.871540999040008" lon="13.244362631812692">
        <ele>1677.01</ele>
        <time>2019-06-21T08:17:21Z</time>
      </trkpt>
      <trkpt lat="42.871543429791927" lon="13.244359027594328">
        <ele>1677.03</ele>
        <time>2019-06-21T08:17:42Z</time>
      </trkpt>
      <trkpt lat="42.871510488912463" lon="13.244277220219374">
        <ele>1678.6900000000001</ele>
        <time>2019-06-21T08:18:00Z</time>
      </trkpt>
      <trkpt lat="42.871431699022651" lon="13.244162471964955">
        <ele>1680.6800000000001</ele>
        <time>2019-06-21T08:18:14Z</time>
      </trkpt>
      <trkpt lat="42.871313095092773" lon="13.24411385692656">
        <ele>1683.3099999999999</ele>
        <time>2019-06-21T08:18:30Z</time>
      </trkpt>
      <trkpt lat="42.871216870844364" lon="13.244054261595011">
        <ele>1686.1700000000001</ele>
        <time>2019-06-21T08:18:46Z</time>
      </trkpt>
      <trkpt lat="42.871104637160897" lon="13.243978237733245">
        <ele>1688.9300000000001</ele>
        <time>2019-06-21T08:19:03Z</time>
      </trkpt>
      <trkpt lat="42.871083179488778" lon="13.243937250226736">
        <ele>1689.1900000000001</ele>
        <time>2019-06-21T08:19:07Z</time>
      </trkpt>
      <trkpt lat="42.870989888906479" lon="13.243799032643437">
        <ele>1691.47</ele>
        <time>2019-06-21T08:19:23Z</time>
      </trkpt>
      <trkpt lat="42.870924677699804" lon="13.24376055970788">
        <ele>1693.53</ele>
        <time>2019-06-21T08:19:36Z</time>
      </trkpt>
      <trkpt lat="42.870817976072431" lon="13.243668526411057">
        <ele>1695.0899999999999</ele>
        <time>2019-06-21T08:19:51Z</time>
      </trkpt>
      <trkpt lat="42.870753183960915" lon="13.243592167273164">
        <ele>1697.26</ele>
        <time>2019-06-21T08:20:05Z</time>
      </trkpt>
      <trkpt lat="42.870671460404992" lon="13.243505833670497">
        <ele>1699.8900000000001</ele>
        <time>2019-06-21T08:20:21Z</time>
      </trkpt>
      <trkpt lat="42.870582947507501" lon="13.243449172005057">
        <ele>1701.52</ele>
        <time>2019-06-21T08:20:35Z</time>
      </trkpt>
      <trkpt lat="42.870501391589642" lon="13.243380524218082">
        <ele>1702.9200000000001</ele>
        <time>2019-06-21T08:20:50Z</time>
      </trkpt>
      <trkpt lat="42.870412291958928" lon="13.243306344375014">
        <ele>1703.72</ele>
        <time>2019-06-21T08:21:04Z</time>
      </trkpt>
      <trkpt lat="42.87035814486444" lon="13.243186064064503">
        <ele>1703.75</ele>
        <time>2019-06-21T08:21:18Z</time>
      </trkpt>
      <trkpt lat="42.87030684761703" lon="13.243067711591721">
        <ele>1703.51</ele>
        <time>2019-06-21T08:21:32Z</time>
      </trkpt>
      <trkpt lat="42.87031170912087" lon="13.243064610287547">
        <ele>1703.27</ele>
        <time>2019-06-21T08:21:49Z</time>
      </trkpt>
      <trkpt lat="42.870265105739236" lon="13.24301834218204">
        <ele>1703.3099999999999</ele>
        <time>2019-06-21T08:22:11Z</time>
      </trkpt>
      <trkpt lat="42.870252029970288" lon="13.242929074913263">
        <ele>1702.78</ele>
        <time>2019-06-21T08:22:26Z</time>
      </trkpt>
      <trkpt lat="42.870219927281141" lon="13.242857912555337">
        <ele>1702.8699999999999</ele>
        <time>2019-06-21T08:22:37Z</time>
      </trkpt>
      <trkpt lat="42.870235936716199" lon="13.242864618077874">
        <ele>1703.45</ele>
        <time>2019-06-21T08:22:47Z</time>
      </trkpt>
      <trkpt lat="42.870245492085814" lon="13.242852883413434">
        <ele>1702.28</ele>
        <time>2019-06-21T08:23:04Z</time>
      </trkpt>
      <trkpt lat="42.870241217315197" lon="13.242852045223117">
        <ele>1702.1600000000001</ele>
        <time>2019-06-21T08:23:19Z</time>
      </trkpt>
      <trkpt lat="42.870227219536901" lon="13.242844333872199">
        <ele>1702.3</ele>
        <time>2019-06-21T08:23:49Z</time>
      </trkpt>
      <trkpt lat="42.870223699137568" lon="13.24285170994699">
        <ele>1702.1099999999999</ele>
        <time>2019-06-21T08:24:10Z</time>
      </trkpt>
      <trkpt lat="42.870238116011024" lon="13.242854056879878">
        <ele>1702.3599999999999</ele>
        <time>2019-06-21T08:24:26Z</time>
      </trkpt>
      <trkpt lat="42.870248509570956" lon="13.242866210639477">
        <ele>1701.3199999999999</ele>
        <time>2019-06-21T08:24:45Z</time>
      </trkpt>
      <trkpt lat="42.870250185951591" lon="13.242872497066855">
        <ele>1700.8900000000001</ele>
        <time>2019-06-21T08:25:16Z</time>
      </trkpt>
      <trkpt lat="42.870239624753594" lon="13.242867216467857">
        <ele>1701.5599999999999</ele>
        <time>2019-06-21T08:25:47Z</time>
      </trkpt>
      <trkpt lat="42.870217831805348" lon="13.242854392156005">
        <ele>1701.53</ele>
        <time>2019-06-21T08:26:31Z</time>
      </trkpt>
      <trkpt lat="42.870207270607352" lon="13.242863025516272">
        <ele>1701.9000000000001</ele>
        <time>2019-06-21T08:27:12Z</time>
      </trkpt>
      <trkpt lat="42.870200900360942" lon="13.242869898676872">
        <ele>1702.02</ele>
        <time>2019-06-21T08:27:54Z</time>
      </trkpt>
      <trkpt lat="42.870192267000675" lon="13.242878280580044">
        <ele>1702.5</ele>
        <time>2019-06-21T08:28:41Z</time>
      </trkpt>
      <trkpt lat="42.870203666388988" lon="13.242871994152665">
        <ele>1702.27</ele>
        <time>2019-06-21T08:29:02Z</time>
      </trkpt>
      <trkpt lat="42.870212970301509" lon="13.242869731038809">
        <ele>1701.3299999999999</ele>
        <time>2019-06-21T08:29:17Z</time>
      </trkpt>
      <trkpt lat="42.870214898139238" lon="13.242866294458508">
        <ele>1702.9300000000001</ele>
        <time>2019-06-21T08:29:19Z</time>
      </trkpt>
      <trkpt lat="42.870211629197001" lon="13.242868054658175">
        <ele>1703.1300000000001</ele>
        <time>2019-06-21T08:29:34Z</time>
      </trkpt>
      <trkpt lat="42.870213137939572" lon="13.242863193154335">
        <ele>1703.1400000000001</ele>
        <time>2019-06-21T08:29:55Z</time>
      </trkpt>
      <trkpt lat="42.870209030807018" lon="13.242872497066855">
        <ele>1702.8099999999999</ele>
        <time>2019-06-21T08:30:18Z</time>
      </trkpt>
      <trkpt lat="42.870224118232727" lon="13.242876268923283">
        <ele>1702.01</ele>
        <time>2019-06-21T08:30:34Z</time>
      </trkpt>
      <trkpt lat="42.870216406881809" lon="13.242882387712598">
        <ele>1701.95</ele>
        <time>2019-06-21T08:31:14Z</time>
      </trkpt>
      <trkpt lat="42.870219759643078" lon="13.242882387712598">
        <ele>1701.9100000000001</ele>
        <time>2019-06-21T08:32:07Z</time>
      </trkpt>
      <trkpt lat="42.870213640853763" lon="13.242888255044818">
        <ele>1703.1199999999999</ele>
        <time>2019-06-21T08:32:15Z</time>
      </trkpt>
      <trkpt lat="42.870208444073796" lon="13.242890601977706">
        <ele>1703.05</ele>
        <time>2019-06-21T08:32:16Z</time>
      </trkpt>
      <trkpt lat="42.870157733559608" lon="13.242864198982716">
        <ele>1702.1400000000001</ele>
        <time>2019-06-21T08:32:26Z</time>
      </trkpt>
      <trkpt lat="42.870067963376641" lon="13.242826815694571">
        <ele>1699.7</ele>
        <time>2019-06-21T08:32:38Z</time>
      </trkpt>
      <trkpt lat="42.870052205398679" lon="13.242820613086224">
        <ele>1699.1800000000001</ele>
        <time>2019-06-21T08:32:40Z</time>
      </trkpt>
      <trkpt lat="42.869939552620053" lon="13.242750121280551">
        <ele>1698.25</ele>
        <time>2019-06-21T08:32:54Z</time>
      </trkpt>
      <trkpt lat="42.869903594255447" lon="13.242742158472538">
        <ele>1698.01</ele>
        <time>2019-06-21T08:33:00Z</time>
      </trkpt>
      <trkpt lat="42.869837125763297" lon="13.242707708850503">
        <ele>1698.0999999999999</ele>
        <time>2019-06-21T08:33:12Z</time>
      </trkpt>
      <trkpt lat="42.869790187105536" lon="13.242671079933643">
        <ele>1698.2</ele>
        <time>2019-06-21T08:33:29Z</time>
      </trkpt>
      <trkpt lat="42.869702177122235" lon="13.242606287822127">
        <ele>1698.73</ele>
        <time>2019-06-21T08:33:42Z</time>
      </trkpt>
      <trkpt lat="42.869685497134924" lon="13.24259128421545">
        <ele>1698.25</ele>
        <time>2019-06-21T08:33:49Z</time>
      </trkpt>
      <trkpt lat="42.869675774127245" lon="13.24258835054934">
        <ele>1698.3199999999999</ele>
        <time>2019-06-21T08:34:39Z</time>
      </trkpt>
      <trkpt lat="42.869679797440767" lon="13.242571670562029">
        <ele>1698.8699999999999</ele>
        <time>2019-06-21T08:35:09Z</time>
      </trkpt>
      <trkpt lat="42.86968776024878" lon="13.24256001971662">
        <ele>1698.77</ele>
        <time>2019-06-21T08:35:43Z</time>
      </trkpt>
      <trkpt lat="42.869695387780666" lon="13.242554487660527">
        <ele>1698.53</ele>
        <time>2019-06-21T08:36:40Z</time>
      </trkpt>
      <trkpt lat="42.869691196829081" lon="13.24255658313632">
        <ele>1698.6199999999999</ele>
        <time>2019-06-21T08:37:36Z</time>
      </trkpt>
      <trkpt lat="42.869690107181668" lon="13.242555912584066">
        <ele>1698.6800000000001</ele>
        <time>2019-06-21T08:38:33Z</time>
      </trkpt>
      <trkpt lat="42.869688263162971" lon="13.242553481832147">
        <ele>1697.99</ele>
        <time>2019-06-21T08:39:42Z</time>
      </trkpt>
      <trkpt lat="42.869691280648112" lon="13.242559349164367">
        <ele>1697.95</ele>
        <time>2019-06-21T08:40:13Z</time>
      </trkpt>
      <trkpt lat="42.869696980342269" lon="13.242547363042831">
        <ele>1697.8599999999999</ele>
        <time>2019-06-21T08:40:41Z</time>
      </trkpt>
      <trkpt lat="42.869694381952286" lon="13.242548620328307">
        <ele>1698.03</ele>
        <time>2019-06-21T08:41:35Z</time>
      </trkpt>
      <trkpt lat="42.869693627581" lon="13.24253655038774">
        <ele>1697.8199999999999</ele>
        <time>2019-06-21T08:42:13Z</time>
      </trkpt>
      <trkpt lat="42.869668817147613" lon="13.242537975311279">
        <ele>1697.8099999999999</ele>
        <time>2019-06-21T08:43:03Z</time>
      </trkpt>
      <trkpt lat="42.869644341990352" lon="13.24255557730794">
        <ele>1697.6500000000001</ele>
        <time>2019-06-21T08:44:03Z</time>
      </trkpt>
      <trkpt lat="42.869635708630085" lon="13.242553565651178">
        <ele>1697.4200000000001</ele>
        <time>2019-06-21T08:45:01Z</time>
      </trkpt>
      <trkpt lat="42.869640402495861" lon="13.242553481832147">
        <ele>1698.6500000000001</ele>
        <time>2019-06-21T08:45:14Z</time>
      </trkpt>
      <trkpt lat="42.869639564305544" lon="13.242565551772714">
        <ele>1697.8499999999999</ele>
        <time>2019-06-21T08:45:27Z</time>
      </trkpt>
      <trkpt lat="42.869646102190018" lon="13.242540573701262">
        <ele>1697.52</ele>
        <time>2019-06-21T08:45:38Z</time>
      </trkpt>
      <trkpt lat="42.869722377508879" lon="13.242560354992747">
        <ele>1697.3</ele>
        <time>2019-06-21T08:45:47Z</time>
      </trkpt>
      <trkpt lat="42.869736794382334" lon="13.242571502923965">
        <ele>1696.4000000000001</ele>
        <time>2019-06-21T08:45:49Z</time>
      </trkpt>
      <trkpt lat="42.869843747466803" lon="13.242645263671875">
        <ele>1697.1800000000001</ele>
        <time>2019-06-21T08:46:00Z</time>
      </trkpt>
      <trkpt lat="42.869914826005697" lon="13.2427285797894">
        <ele>1697.1300000000001</ele>
        <time>2019-06-21T08:46:09Z</time>
      </trkpt>
      <trkpt lat="42.87000929005444" lon="13.242786582559347">
        <ele>1698.5599999999999</ele>
        <time>2019-06-21T08:46:22Z</time>
      </trkpt>
      <trkpt lat="42.870078356936574" lon="13.242825977504253">
        <ele>1700.5</ele>
        <time>2019-06-21T08:46:36Z</time>
      </trkpt>
      <trkpt lat="42.870150273665786" lon="13.242817260324955">
        <ele>1701.5699999999999</ele>
        <time>2019-06-21T08:46:48Z</time>
      </trkpt>
      <trkpt lat="42.870197966694832" lon="13.242774931713939">
        <ele>1703.3399999999999</ele>
        <time>2019-06-21T08:46:59Z</time>
      </trkpt>
      <trkpt lat="42.870281115174294" lon="13.24272271245718">
        <ele>1705</ele>
        <time>2019-06-21T08:47:13Z</time>
      </trkpt>
      <trkpt lat="42.870398126542568" lon="13.242709385231137">
        <ele>1706.98</ele>
        <time>2019-06-21T08:47:29Z</time>
      </trkpt>
      <trkpt lat="42.870483119040728" lon="13.242646353319287">
        <ele>1708.8499999999999</ele>
        <time>2019-06-21T08:47:44Z</time>
      </trkpt>
      <trkpt lat="42.870540618896484" lon="13.242586925625801">
        <ele>1710.1900000000001</ele>
        <time>2019-06-21T08:47:55Z</time>
      </trkpt>
      <trkpt lat="42.87058780901134" lon="13.242505872622132">
        <ele>1711.9300000000001</ele>
        <time>2019-06-21T08:48:08Z</time>
      </trkpt>
      <trkpt lat="42.870612200349569" lon="13.242432279512286">
        <ele>1713.0899999999999</ele>
        <time>2019-06-21T08:48:21Z</time>
      </trkpt>
      <trkpt lat="42.870622174814343" lon="13.242332534864545">
        <ele>1714.3</ele>
        <time>2019-06-21T08:48:34Z</time>
      </trkpt>
      <trkpt lat="42.870611110702157" lon="13.242276292294264">
        <ele>1714.0699999999999</ele>
        <time>2019-06-21T08:48:51Z</time>
      </trkpt>
      <trkpt lat="42.870557298883796" lon="13.242162717506289">
        <ele>1715.76</ele>
        <time>2019-06-21T08:49:03Z</time>
      </trkpt>
      <trkpt lat="42.87050474435091" lon="13.24203715659678">
        <ele>1716.0599999999999</ele>
        <time>2019-06-21T08:49:15Z</time>
      </trkpt>
      <trkpt lat="42.870442550629377" lon="13.24195652268827">
        <ele>1717.23</ele>
        <time>2019-06-21T08:49:24Z</time>
      </trkpt>
      <trkpt lat="42.870377758517861" lon="13.241864154115319">
        <ele>1718.4200000000001</ele>
        <time>2019-06-21T08:49:33Z</time>
      </trkpt>
      <trkpt lat="42.8702946100384" lon="13.241768684238195">
        <ele>1720.8299999999999</ele>
        <time>2019-06-21T08:49:46Z</time>
      </trkpt>
      <trkpt lat="42.87030584178865" lon="13.24167849496007">
        <ele>1723.01</ele>
        <time>2019-06-21T08:49:58Z</time>
      </trkpt>
      <trkpt lat="42.870355043560266" lon="13.241563746705651">
        <ele>1724.96</ele>
        <time>2019-06-21T08:50:13Z</time>
      </trkpt>
      <trkpt lat="42.870423356071115" lon="13.241513455286622">
        <ele>1725.8299999999999</ele>
        <time>2019-06-21T08:50:22Z</time>
      </trkpt>
      <trkpt lat="42.870458476245403" lon="13.241505241021514">
        <ele>1725.8599999999999</ele>
        <time>2019-06-21T08:50:26Z</time>
      </trkpt>
      <trkpt lat="42.870534500107169" lon="13.241473138332367">
        <ele>1726.6099999999999</ele>
        <time>2019-06-21T08:50:35Z</time>
      </trkpt>
      <trkpt lat="42.87066794000566" lon="13.241536505520344">
        <ele>1727.24</ele>
        <time>2019-06-21T08:50:46Z</time>
      </trkpt>
      <trkpt lat="42.870752094313502" lon="13.241583108901978">
        <ele>1728.7</ele>
        <time>2019-06-21T08:50:55Z</time>
      </trkpt>
      <trkpt lat="42.870760643854737" lon="13.241585372015834">
        <ele>1728.9300000000001</ele>
        <time>2019-06-21T08:50:56Z</time>
      </trkpt>
      <trkpt lat="42.870813785120845" lon="13.241594173014164">
        <ele>1730.1300000000001</ele>
        <time>2019-06-21T08:51:04Z</time>
      </trkpt>
      <trkpt lat="42.870911015197635" lon="13.241673717275262">
        <ele>1732.29</ele>
        <time>2019-06-21T08:51:17Z</time>
      </trkpt>
      <trkpt lat="42.871000031009316" lon="13.241709005087614">
        <ele>1734.1300000000001</ele>
        <time>2019-06-21T08:51:29Z</time>
      </trkpt>
      <trkpt lat="42.871081670746207" lon="13.241769187152386">
        <ele>1735.77</ele>
        <time>2019-06-21T08:51:40Z</time>
      </trkpt>
      <trkpt lat="42.871172614395618" lon="13.241833811625838">
        <ele>1737.6800000000001</ele>
        <time>2019-06-21T08:51:53Z</time>
      </trkpt>
      <trkpt lat="42.871254589408636" lon="13.241880247369409">
        <ele>1739.46</ele>
        <time>2019-06-21T08:52:04Z</time>
      </trkpt>
      <trkpt lat="42.871302533894777" lon="13.241907404735684">
        <ele>1740.4400000000001</ele>
        <time>2019-06-21T08:52:11Z</time>
      </trkpt>
      <trkpt lat="42.871384173631668" lon="13.241932718083262">
        <ele>1742.78</ele>
        <time>2019-06-21T08:52:24Z</time>
      </trkpt>
      <trkpt lat="42.871457431465387" lon="13.241944955661893">
        <ele>1744.3800000000001</ele>
        <time>2019-06-21T08:52:35Z</time>
      </trkpt>
      <trkpt lat="42.871475536376238" lon="13.241955684497952">
        <ele>1744.46</ele>
        <time>2019-06-21T08:52:38Z</time>
      </trkpt>
      <trkpt lat="42.871559020131826" lon="13.242035731673241">
        <ele>1746.5699999999999</ele>
        <time>2019-06-21T08:52:51Z</time>
      </trkpt>
      <trkpt lat="42.87161341868341" lon="13.242049980908632">
        <ele>1748.1800000000001</ele>
        <time>2019-06-21T08:53:02Z</time>
      </trkpt>
      <trkpt lat="42.871681731194258" lon="13.242062050849199">
        <ele>1749.3599999999999</ele>
        <time>2019-06-21T08:53:15Z</time>
      </trkpt>
      <trkpt lat="42.871747361496091" lon="13.242051238194108">
        <ele>1749.77</ele>
        <time>2019-06-21T08:53:27Z</time>
      </trkpt>
      <trkpt lat="42.8717883490026" lon="13.24201812967658">
        <ele>1750.28</ele>
        <time>2019-06-21T08:53:38Z</time>
      </trkpt>
      <trkpt lat="42.871862445026636" lon="13.241976723074913">
        <ele>1750.1199999999999</ele>
        <time>2019-06-21T08:53:49Z</time>
      </trkpt>
      <trkpt lat="42.871885243803263" lon="13.241966161876917">
        <ele>1751.0599999999999</ele>
        <time>2019-06-21T08:53:53Z</time>
      </trkpt>
      <trkpt lat="42.872008793056011" lon="13.24193506501615">
        <ele>1752.96</ele>
        <time>2019-06-21T08:54:07Z</time>
      </trkpt>
      <trkpt lat="42.872051792219281" lon="13.241938333958387">
        <ele>1753.6099999999999</ele>
        <time>2019-06-21T08:54:11Z</time>
      </trkpt>
      <trkpt lat="42.872151872143149" lon="13.24191402643919">
        <ele>1755.77</ele>
        <time>2019-06-21T08:54:23Z</time>
      </trkpt>
      <trkpt lat="42.872159164398909" lon="13.24191452935338">
        <ele>1755.95</ele>
        <time>2019-06-21T08:54:24Z</time>
      </trkpt>
      <trkpt lat="42.872188752517104" lon="13.241908578202128">
        <ele>1756.24</ele>
        <time>2019-06-21T08:54:28Z</time>
      </trkpt>
      <trkpt lat="42.872245665639639" lon="13.241912769153714">
        <ele>1756.21</ele>
        <time>2019-06-21T08:54:33Z</time>
      </trkpt>
      <trkpt lat="42.87235907278955" lon="13.241881756111979">
        <ele>1757.51</ele>
        <time>2019-06-21T08:54:44Z</time>
      </trkpt>
      <trkpt lat="42.872401317581534" lon="13.241889886558056">
        <ele>1757.8099999999999</ele>
        <time>2019-06-21T08:54:48Z</time>
      </trkpt>
      <trkpt lat="42.872538780793548" lon="13.241941519081593">
        <ele>1757.4100000000001</ele>
        <time>2019-06-21T08:54:59Z</time>
      </trkpt>
      <trkpt lat="42.872640369459987" lon="13.241972615942359">
        <ele>1757.8800000000001</ele>
        <time>2019-06-21T08:55:10Z</time>
      </trkpt>
      <trkpt lat="42.872755033895373" lon="13.241974879056215">
        <ele>1759.6500000000001</ele>
        <time>2019-06-21T08:55:21Z</time>
      </trkpt>
      <trkpt lat="42.87284379824996" lon="13.241982506588101">
        <ele>1760.9000000000001</ele>
        <time>2019-06-21T08:55:30Z</time>
      </trkpt>
      <trkpt lat="42.872890653088689" lon="13.241987871006131">
        <ele>1761.51</ele>
        <time>2019-06-21T08:55:34Z</time>
      </trkpt>
      <trkpt lat="42.872987631708384" lon="13.242016034200788">
        <ele>1762.78</ele>
        <time>2019-06-21T08:55:44Z</time>
      </trkpt>
      <trkpt lat="42.873066086322069" lon="13.242018381133676">
        <ele>1764.96</ele>
        <time>2019-06-21T08:55:54Z</time>
      </trkpt>
      <trkpt lat="42.873160885646939" lon="13.242049477994442">
        <ele>1767.29</ele>
        <time>2019-06-21T08:56:06Z</time>
      </trkpt>
      <trkpt lat="42.87322148680687" lon="13.242049561813474">
        <ele>1769.0799999999999</ele>
        <time>2019-06-21T08:56:17Z</time>
      </trkpt>
      <trkpt lat="42.873232131823897" lon="13.242060206830502">
        <ele>1768.8099999999999</ele>
        <time>2019-06-21T08:56:19Z</time>
      </trkpt>
      <trkpt lat="42.873300863429904" lon="13.242087112739682">
        <ele>1769.25</ele>
        <time>2019-06-21T08:56:26Z</time>
      </trkpt>
      <trkpt lat="42.873379066586494" lon="13.2421207241714">
        <ele>1770.9200000000001</ele>
        <time>2019-06-21T08:56:36Z</time>
      </trkpt>
      <trkpt lat="42.873447965830564" lon="13.242164896801114">
        <ele>1771.0799999999999</ele>
        <time>2019-06-21T08:56:42Z</time>
      </trkpt>
      <trkpt lat="42.873534467071295" lon="13.242263551801443">
        <ele>1771.6400000000001</ele>
        <time>2019-06-21T08:56:52Z</time>
      </trkpt>
      <trkpt lat="42.873622979968786" lon="13.242354160174727">
        <ele>1773.6099999999999</ele>
        <time>2019-06-21T08:57:06Z</time>
      </trkpt>
      <trkpt lat="42.873685760423541" lon="13.242457509040833">
        <ele>1773.8800000000001</ele>
        <time>2019-06-21T08:57:16Z</time>
      </trkpt>
      <trkpt lat="42.873729011043906" lon="13.24253311380744">
        <ele>1773.77</ele>
        <time>2019-06-21T08:57:24Z</time>
      </trkpt>
      <trkpt lat="42.873781230300665" lon="13.242582147940993">
        <ele>1774.0599999999999</ele>
        <time>2019-06-21T08:57:34Z</time>
      </trkpt>
      <trkpt lat="42.873839735984802" lon="13.242651801556349">
        <ele>1776.05</ele>
        <time>2019-06-21T08:57:44Z</time>
      </trkpt>
      <trkpt lat="42.873886087909341" lon="13.242716006934643">
        <ele>1777.9000000000001</ele>
        <time>2019-06-21T08:57:53Z</time>
      </trkpt>
      <trkpt lat="42.873935708776116" lon="13.242811392992735">
        <ele>1779.9100000000001</ele>
        <time>2019-06-21T08:58:03Z</time>
      </trkpt>
      <trkpt lat="42.873977785930037" lon="13.24294944293797">
        <ele>1781.3399999999999</ele>
        <time>2019-06-21T08:58:15Z</time>
      </trkpt>
      <trkpt lat="42.874036123976111" lon="13.243038207292557">
        <ele>1782.98</ele>
        <time>2019-06-21T08:58:29Z</time>
      </trkpt>
      <trkpt lat="42.874073088169098" lon="13.243070729076862">
        <ele>1784.22</ele>
        <time>2019-06-21T08:58:35Z</time>
      </trkpt>
      <trkpt lat="42.874097479507327" lon="13.243095958605409">
        <ele>1784.8099999999999</ele>
        <time>2019-06-21T08:58:38Z</time>
      </trkpt>
      <trkpt lat="42.874188758432865" lon="13.243160918354988">
        <ele>1787.26</ele>
        <time>2019-06-21T08:58:50Z</time>
      </trkpt>
      <trkpt lat="42.874196637421846" lon="13.243168126791716">
        <ele>1787.3</ele>
        <time>2019-06-21T08:58:51Z</time>
      </trkpt>
      <trkpt lat="42.874225219711661" lon="13.243217831477523">
        <ele>1788.29</ele>
        <time>2019-06-21T08:58:56Z</time>
      </trkpt>
      <trkpt lat="42.87429160438478" lon="13.243276420980692">
        <ele>1790.22</ele>
        <time>2019-06-21T08:59:06Z</time>
      </trkpt>
      <trkpt lat="42.874329071491957" lon="13.243339201435447">
        <ele>1791.24</ele>
        <time>2019-06-21T08:59:13Z</time>
      </trkpt>
      <trkpt lat="42.874400988221169" lon="13.243427379056811">
        <ele>1793.1199999999999</ele>
        <time>2019-06-21T08:59:24Z</time>
      </trkpt>
      <trkpt lat="42.874423116445541" lon="13.243474066257477">
        <ele>1793.8800000000001</ele>
        <time>2019-06-21T08:59:29Z</time>
      </trkpt>
      <trkpt lat="42.874501654878259" lon="13.243564087897539">
        <ele>1795.3499999999999</ele>
        <time>2019-06-21T08:59:40Z</time>
      </trkpt>
      <trkpt lat="42.874571308493614" lon="13.243644470348954">
        <ele>1797.23</ele>
        <time>2019-06-21T08:59:52Z</time>
      </trkpt>
      <trkpt lat="42.874669209122658" lon="13.243723763152957">
        <ele>1798.6700000000001</ele>
        <time>2019-06-21T09:00:03Z</time>
      </trkpt>
      <trkpt lat="42.874749675393105" lon="13.243781263008714">
        <ele>1800.04</ele>
        <time>2019-06-21T09:00:13Z</time>
      </trkpt>
      <trkpt lat="42.874833745881915" lon="13.243861058726907">
        <ele>1801.49</ele>
        <time>2019-06-21T09:00:24Z</time>
      </trkpt>
      <trkpt lat="42.874934580177069" lon="13.243973543867469">
        <ele>1802.8299999999999</ele>
        <time>2019-06-21T09:00:36Z</time>
      </trkpt>
      <trkpt lat="42.875033905729651" lon="13.244037246331573">
        <ele>1804.4100000000001</ele>
        <time>2019-06-21T09:00:47Z</time>
      </trkpt>
      <trkpt lat="42.875116551294923" lon="13.244101954624057">
        <ele>1805.4200000000001</ele>
        <time>2019-06-21T09:00:58Z</time>
      </trkpt>
      <trkpt lat="42.87518972530961" lon="13.244202705100179">
        <ele>1805.72</ele>
        <time>2019-06-21T09:01:08Z</time>
      </trkpt>
      <trkpt lat="42.875202968716621" lon="13.244224498048425">
        <ele>1805.9100000000001</ele>
        <time>2019-06-21T09:01:10Z</time>
      </trkpt>
      <trkpt lat="42.875277902930975" lon="13.244288116693497">
        <ele>1807.3699999999999</ele>
        <time>2019-06-21T09:01:21Z</time>
      </trkpt>
      <trkpt lat="42.875286787748337" lon="13.244308400899172">
        <ele>1807.3599999999999</ele>
        <time>2019-06-21T09:01:32Z</time>
      </trkpt>
      <trkpt lat="42.875349065288901" lon="13.244358608499169">
        <ele>1807.3800000000001</ele>
        <time>2019-06-21T09:01:42Z</time>
      </trkpt>
      <trkpt lat="42.875446798279881" lon="13.244390795007348">
        <ele>1808.3699999999999</ele>
        <time>2019-06-21T09:01:54Z</time>
      </trkpt>
      <trkpt lat="42.87552977912128" lon="13.244446199387312">
        <ele>1809.5</ele>
        <time>2019-06-21T09:02:04Z</time>
      </trkpt>
      <trkpt lat="42.87559331394732" lon="13.244490372017026">
        <ele>1809.75</ele>
        <time>2019-06-21T09:02:13Z</time>
      </trkpt>
      <trkpt lat="42.875686353072524" lon="13.244542004540563">
        <ele>1810.02</ele>
        <time>2019-06-21T09:02:23Z</time>
      </trkpt>
      <trkpt lat="42.875798000022769" lon="13.244588943198323">
        <ele>1810.3</ele>
        <time>2019-06-21T09:02:33Z</time>
      </trkpt>
      <trkpt lat="42.875931020826101" lon="13.24461274780333">
        <ele>1810.78</ele>
        <time>2019-06-21T09:02:45Z</time>
      </trkpt>
      <trkpt lat="42.876060772687197" lon="13.244624650105834">
        <ele>1811.5899999999999</ele>
        <time>2019-06-21T09:02:56Z</time>
      </trkpt>
      <trkpt lat="42.876088600605726" lon="13.244624147191644">
        <ele>1811.72</ele>
        <time>2019-06-21T09:02:59Z</time>
      </trkpt>
      <trkpt lat="42.876224722713232" lon="13.244635378941894">
        <ele>1811.8800000000001</ele>
        <time>2019-06-21T09:03:12Z</time>
      </trkpt>
      <trkpt lat="42.876270487904549" lon="13.244639905169606">
        <ele>1812.1800000000001</ele>
        <time>2019-06-21T09:03:16Z</time>
      </trkpt>
      <trkpt lat="42.876351876184344" lon="13.244634792208672">
        <ele>1812.3900000000001</ele>
        <time>2019-06-21T09:03:23Z</time>
      </trkpt>
      <trkpt lat="42.876503672450781" lon="13.244687765836716">
        <ele>1812.8800000000001</ele>
        <time>2019-06-21T09:03:37Z</time>
      </trkpt>
      <trkpt lat="42.876556729897857" lon="13.244715761393309">
        <ele>1812.95</ele>
        <time>2019-06-21T09:03:43Z</time>
      </trkpt>
      <trkpt lat="42.876657480373979" lon="13.24474174529314">
        <ele>1813.23</ele>
        <time>2019-06-21T09:03:54Z</time>
      </trkpt>
      <trkpt lat="42.876774156466126" lon="13.244802597910166">
        <ele>1812.04</ele>
        <time>2019-06-21T09:04:07Z</time>
      </trkpt>
      <trkpt lat="42.87686669267714" lon="13.244821708649397">
        <ele>1811.7</ele>
        <time>2019-06-21T09:04:15Z</time>
      </trkpt>
      <trkpt lat="42.876912038773298" lon="13.244852889329195">
        <ele>1811.7</ele>
        <time>2019-06-21T09:04:19Z</time>
      </trkpt>
      <trkpt lat="42.876937603577971" lon="13.244865378364921">
        <ele>1811.6800000000001</ele>
        <time>2019-06-21T09:04:21Z</time>
      </trkpt>
      <trkpt lat="42.877023182809353" lon="13.244940061122179">
        <ele>1810.5699999999999</ele>
        <time>2019-06-21T09:04:29Z</time>
      </trkpt>
      <trkpt lat="42.877101302146912" lon="13.244972415268421">
        <ele>1809.51</ele>
        <time>2019-06-21T09:04:37Z</time>
      </trkpt>
      <trkpt lat="42.877132901921868" lon="13.245001249015331">
        <ele>1809.1400000000001</ele>
        <time>2019-06-21T09:04:42Z</time>
      </trkpt>
      <trkpt lat="42.877189898863435" lon="13.245077105239034">
        <ele>1807.76</ele>
        <time>2019-06-21T09:04:49Z</time>
      </trkpt>
      <trkpt lat="42.877222504466772" lon="13.245125971734524">
        <ele>1807.3</ele>
        <time>2019-06-21T09:04:54Z</time>
      </trkpt>
      <trkpt lat="42.87728251889348" lon="13.245185567066073">
        <ele>1805.78</ele>
        <time>2019-06-21T09:05:08Z</time>
      </trkpt>
      <trkpt lat="42.877342533320189" lon="13.24524843133986">
        <ele>1804.21</ele>
        <time>2019-06-21T09:05:18Z</time>
      </trkpt>
      <trkpt lat="42.877403553575277" lon="13.245294615626335">
        <ele>1802.77</ele>
        <time>2019-06-21T09:05:25Z</time>
      </trkpt>
      <trkpt lat="42.877429286018014" lon="13.245314564555883">
        <ele>1802.25</ele>
        <time>2019-06-21T09:05:28Z</time>
      </trkpt>
      <trkpt lat="42.877529868856072" lon="13.245354127138853">
        <ele>1800.71</ele>
        <time>2019-06-21T09:05:38Z</time>
      </trkpt>
      <trkpt lat="42.877625422552228" lon="13.24538036249578">
        <ele>1798.9000000000001</ele>
        <time>2019-06-21T09:05:48Z</time>
      </trkpt>
      <trkpt lat="42.877627853304148" lon="13.245369298383594">
        <ele>1800.26</ele>
        <time>2019-06-21T09:06:04Z</time>
      </trkpt>
      <trkpt lat="42.877633133903146" lon="13.245367370545864">
        <ele>1798.78</ele>
        <time>2019-06-21T09:06:23Z</time>
      </trkpt>
      <trkpt lat="42.877583680674434" lon="13.245354210957885">
        <ele>1799.99</ele>
        <time>2019-06-21T09:06:31Z</time>
      </trkpt>
      <trkpt lat="42.877470524981618" lon="13.245325963944197">
        <ele>1801.76</ele>
        <time>2019-06-21T09:06:46Z</time>
      </trkpt>
      <trkpt lat="42.877463568001986" lon="13.24532319791615">
        <ele>1801.96</ele>
        <time>2019-06-21T09:06:47Z</time>
      </trkpt>
      <trkpt lat="42.877437081187963" lon="13.245301572605968">
        <ele>1802.4200000000001</ele>
        <time>2019-06-21T09:06:50Z</time>
      </trkpt>
      <trkpt lat="42.877380000427365" lon="13.245253041386604">
        <ele>1803.9400000000001</ele>
        <time>2019-06-21T09:06:59Z</time>
      </trkpt>
      <trkpt lat="42.877341276034713" lon="13.245216580107808">
        <ele>1804.53</ele>
        <time>2019-06-21T09:07:04Z</time>
      </trkpt>
      <trkpt lat="42.877258881926537" lon="13.245140472427011">
        <ele>1806.3299999999999</ele>
        <time>2019-06-21T09:07:15Z</time>
      </trkpt>
      <trkpt lat="42.877202555537224" lon="13.245100406929851">
        <ele>1807.3299999999999</ele>
        <time>2019-06-21T09:07:23Z</time>
      </trkpt>
      <trkpt lat="42.87715301848948" lon="13.245106022804976">
        <ele>1806.95</ele>
        <time>2019-06-21T09:07:28Z</time>
      </trkpt>
      <trkpt lat="42.877050591632724" lon="13.245112812146544">
        <ele>1806.53</ele>
        <time>2019-06-21T09:07:37Z</time>
      </trkpt>
      <trkpt lat="42.877008011564612" lon="13.245105352252722">
        <ele>1806.26</ele>
        <time>2019-06-21T09:07:41Z</time>
      </trkpt>
      <trkpt lat="42.876965347677469" lon="13.245081631466746">
        <ele>1806.23</ele>
        <time>2019-06-21T09:07:45Z</time>
      </trkpt>
      <trkpt lat="42.876925617456436" lon="13.245057994499803">
        <ele>1806.21</ele>
        <time>2019-06-21T09:07:49Z</time>
      </trkpt>
      <trkpt lat="42.876807935535908" lon="13.245001500472426">
        <ele>1806.74</ele>
        <time>2019-06-21T09:08:00Z</time>
      </trkpt>
      <trkpt lat="42.876759152859449" lon="13.244965290650725">
        <ele>1807.27</ele>
        <time>2019-06-21T09:08:10Z</time>
      </trkpt>
      <trkpt lat="42.876711376011372" lon="13.244945509359241">
        <ele>1807.0999999999999</ele>
        <time>2019-06-21T09:08:16Z</time>
      </trkpt>
      <trkpt lat="42.876611715182662" lon="13.244900917634368">
        <ele>1807.1500000000001</ele>
        <time>2019-06-21T09:08:24Z</time>
      </trkpt>
      <trkpt lat="42.876525549218059" lon="13.244823301210999">
        <ele>1807.9400000000001</ele>
        <time>2019-06-21T09:08:33Z</time>
      </trkpt>
      <trkpt lat="42.876450531184673" lon="13.244759850203991">
        <ele>1808.95</ele>
        <time>2019-06-21T09:08:42Z</time>
      </trkpt>
      <trkpt lat="42.876388756558299" lon="13.244735458865762">
        <ele>1809.0699999999999</ele>
        <time>2019-06-21T09:08:48Z</time>
      </trkpt>
      <trkpt lat="42.876361347734928" lon="13.244739565998316">
        <ele>1809.3</ele>
        <time>2019-06-21T09:08:52Z</time>
      </trkpt>
      <trkpt lat="42.876236205920577" lon="13.24470310471952">
        <ele>1809.77</ele>
        <time>2019-06-21T09:09:03Z</time>
      </trkpt>
      <trkpt lat="42.876195721328259" lon="13.244675695896149">
        <ele>1810.6800000000001</ele>
        <time>2019-06-21T09:09:08Z</time>
      </trkpt>
      <trkpt lat="42.876085415482521" lon="13.244630768895149">
        <ele>1810.8599999999999</ele>
        <time>2019-06-21T09:09:18Z</time>
      </trkpt>
      <trkpt lat="42.875982150435448" lon="13.244610568508506">
        <ele>1811.1600000000001</ele>
        <time>2019-06-21T09:09:28Z</time>
      </trkpt>
      <trkpt lat="42.87585960701108" lon="13.24458877556026">
        <ele>1811.23</ele>
        <time>2019-06-21T09:09:38Z</time>
      </trkpt>
      <trkpt lat="42.875776374712586" lon="13.244555164128542">
        <ele>1811</ele>
        <time>2019-06-21T09:09:46Z</time>
      </trkpt>
      <trkpt lat="42.875658525153995" lon="13.244504202157259">
        <ele>1810.72</ele>
        <time>2019-06-21T09:09:56Z</time>
      </trkpt>
      <trkpt lat="42.875618375837803" lon="13.244479140266776">
        <ele>1810.4000000000001</ele>
        <time>2019-06-21T09:10:01Z</time>
      </trkpt>
      <trkpt lat="42.875537155196071" lon="13.244432369247079">
        <ele>1810.25</ele>
        <time>2019-06-21T09:10:11Z</time>
      </trkpt>
      <trkpt lat="42.875507650896907" lon="13.244425831362605">
        <ele>1810.3199999999999</ele>
        <time>2019-06-21T09:10:14Z</time>
      </trkpt>
      <trkpt lat="42.875473871827126" lon="13.244386604055762">
        <ele>1810.1400000000001</ele>
        <time>2019-06-21T09:10:18Z</time>
      </trkpt>
      <trkpt lat="42.875357363373041" lon="13.24434201233089">
        <ele>1809.4000000000001</ele>
        <time>2019-06-21T09:10:29Z</time>
      </trkpt>
      <trkpt lat="42.875271029770374" lon="13.244250398129225">
        <ele>1809.03</ele>
        <time>2019-06-21T09:10:40Z</time>
      </trkpt>
      <trkpt lat="42.87520095705986" lon="13.244174961000681">
        <ele>1807.4000000000001</ele>
        <time>2019-06-21T09:10:49Z</time>
      </trkpt>
      <trkpt lat="42.875179834663868" lon="13.244159957394004">
        <ele>1807.51</ele>
        <time>2019-06-21T09:10:51Z</time>
      </trkpt>
      <trkpt lat="42.875131973996758" lon="13.244119891896844">
        <ele>1807.24</ele>
        <time>2019-06-21T09:10:56Z</time>
      </trkpt>
      <trkpt lat="42.875124095007777" lon="13.244098350405693">
        <ele>1807.0999999999999</ele>
        <time>2019-06-21T09:10:58Z</time>
      </trkpt>
      <trkpt lat="42.875093249604106" lon="13.244071025401354">
        <ele>1807.0699999999999</ele>
        <time>2019-06-21T09:11:01Z</time>
      </trkpt>
      <trkpt lat="42.874983111396432" lon="13.243971867486835">
        <ele>1804.6500000000001</ele>
        <time>2019-06-21T09:11:12Z</time>
      </trkpt>
      <trkpt lat="42.874934999272227" lon="13.243937334045768">
        <ele>1804.28</ele>
        <time>2019-06-21T09:11:17Z</time>
      </trkpt>
      <trkpt lat="42.874927036464214" lon="13.243916546925902">
        <ele>1803.1500000000001</ele>
        <time>2019-06-21T09:11:30Z</time>
      </trkpt>
      <trkpt lat="42.874922845512629" lon="13.243908248841763">
        <ele>1803.29</ele>
        <time>2019-06-21T09:11:33Z</time>
      </trkpt>
      <trkpt lat="42.874892083927989" lon="13.243871284648776">
        <ele>1802.97</ele>
        <time>2019-06-21T09:11:37Z</time>
      </trkpt>
      <trkpt lat="42.874852605164051" lon="13.243818478658795">
        <ele>1802.6500000000001</ele>
        <time>2019-06-21T09:11:43Z</time>
      </trkpt>
      <trkpt lat="42.874833326786757" lon="13.243800206109881">
        <ele>1802.0899999999999</ele>
        <time>2019-06-21T09:11:45Z</time>
      </trkpt>
      <trkpt lat="42.874809857457876" lon="13.243766343221068">
        <ele>1801.5999999999999</ele>
        <time>2019-06-21T09:11:48Z</time>
      </trkpt>
      <trkpt lat="42.874696534126997" lon="13.24369752779603">
        <ele>1799.9100000000001</ele>
        <time>2019-06-21T09:11:59Z</time>
      </trkpt>
      <trkpt lat="42.87458723410964" lon="13.243614798411727">
        <ele>1798.9000000000001</ele>
        <time>2019-06-21T09:12:09Z</time>
      </trkpt>
      <trkpt lat="42.874500984326005" lon="13.243543552234769">
        <ele>1797.48</ele>
        <time>2019-06-21T09:12:19Z</time>
      </trkpt>
      <trkpt lat="42.87440643645823" lon="13.243419080972672">
        <ele>1795.4100000000001</ele>
        <time>2019-06-21T09:12:32Z</time>
      </trkpt>
      <trkpt lat="42.874394869431853" lon="13.243394270539284">
        <ele>1795.04</ele>
        <time>2019-06-21T09:12:43Z</time>
      </trkpt>
      <trkpt lat="42.87438590079546" lon="13.243381781503558">
        <ele>1794.9200000000001</ele>
        <time>2019-06-21T09:12:50Z</time>
      </trkpt>
      <trkpt lat="42.874354971572757" lon="13.24335303157568">
        <ele>1794.0899999999999</ele>
        <time>2019-06-21T09:12:54Z</time>
      </trkpt>
      <trkpt lat="42.874320354312658" lon="13.243296286091208">
        <ele>1793.49</ele>
        <time>2019-06-21T09:12:59Z</time>
      </trkpt>
      <trkpt lat="42.87428037263453" lon="13.243228979408741">
        <ele>1792.01</ele>
        <time>2019-06-21T09:13:05Z</time>
      </trkpt>
      <trkpt lat="42.87423393689096" lon="13.24319620616734">
        <ele>1791.5999999999999</ele>
        <time>2019-06-21T09:13:10Z</time>
      </trkpt>
      <trkpt lat="42.874191105365753" lon="13.243145998567343">
        <ele>1789.3499999999999</ele>
        <time>2019-06-21T09:13:16Z</time>
      </trkpt>
      <trkpt lat="42.874143915250897" lon="13.243121607229114">
        <ele>1787.78</ele>
        <time>2019-06-21T09:13:22Z</time>
      </trkpt>
      <trkpt lat="42.874118266627192" lon="13.243102245032787">
        <ele>1787.4000000000001</ele>
        <time>2019-06-21T09:13:25Z</time>
      </trkpt>
      <trkpt lat="42.874038135632873" lon="13.243022281676531">
        <ele>1785.6700000000001</ele>
        <time>2019-06-21T09:13:35Z</time>
      </trkpt>
      <trkpt lat="42.873990358784795" lon="13.242934355512261">
        <ele>1784.21</ele>
        <time>2019-06-21T09:13:43Z</time>
      </trkpt>
      <trkpt lat="42.87395833991468" lon="13.242867970839143">
        <ele>1783.3199999999999</ele>
        <time>2019-06-21T09:13:48Z</time>
      </trkpt>
      <trkpt lat="42.873889356851578" lon="13.24270804412663">
        <ele>1781.1800000000001</ele>
        <time>2019-06-21T09:14:00Z</time>
      </trkpt>
      <trkpt lat="42.873846692964435" lon="13.24264258146286">
        <ele>1779.28</ele>
        <time>2019-06-21T09:14:06Z</time>
      </trkpt>
      <trkpt lat="42.873825067654252" lon="13.242610227316618">
        <ele>1778.1800000000001</ele>
        <time>2019-06-21T09:14:09Z</time>
      </trkpt>
      <trkpt lat="42.873798497021198" lon="13.242537975311279">
        <ele>1777.53</ele>
        <time>2019-06-21T09:14:15Z</time>
      </trkpt>
      <trkpt lat="42.873716773465276" lon="13.242446528747678">
        <ele>1775.9100000000001</ele>
        <time>2019-06-21T09:14:25Z</time>
      </trkpt>
      <trkpt lat="42.873648712411523" lon="13.242340413853526">
        <ele>1776.0899999999999</ele>
        <time>2019-06-21T09:14:34Z</time>
      </trkpt>
      <trkpt lat="42.873620465397835" lon="13.242318788543344">
        <ele>1776.0599999999999</ele>
        <time>2019-06-21T09:14:37Z</time>
      </trkpt>
      <trkpt lat="42.873528767377138" lon="13.24222968891263">
        <ele>1773.8</ele>
        <time>2019-06-21T09:14:47Z</time>
      </trkpt>
      <trkpt lat="42.873464478179812" lon="13.242147713899612">
        <ele>1773.22</ele>
        <time>2019-06-21T09:14:54Z</time>
      </trkpt>
      <trkpt lat="42.873360710218549" lon="13.242074958980083">
        <ele>1772.6300000000001</ele>
        <time>2019-06-21T09:15:05Z</time>
      </trkpt>
      <trkpt lat="42.873253589496017" lon="13.241999689489603">
        <ele>1771.5999999999999</ele>
        <time>2019-06-21T09:15:15Z</time>
      </trkpt>
      <trkpt lat="42.873209835961461" lon="13.241955935955048">
        <ele>1770.99</ele>
        <time>2019-06-21T09:15:20Z</time>
      </trkpt>
      <trkpt lat="42.873117467388511" lon="13.241944033652544">
        <ele>1769.4400000000001</ele>
        <time>2019-06-21T09:15:28Z</time>
      </trkpt>
      <trkpt lat="42.873055022209883" lon="13.241928275674582">
        <ele>1768.3099999999999</ele>
        <time>2019-06-21T09:15:32Z</time>
      </trkpt>
      <trkpt lat="42.872940693050623" lon="13.241913942620158">
        <ele>1766.4200000000001</ele>
        <time>2019-06-21T09:15:41Z</time>
      </trkpt>
      <trkpt lat="42.872818820178509" lon="13.241883432492614">
        <ele>1764.6800000000001</ele>
        <time>2019-06-21T09:15:49Z</time>
      </trkpt>
      <trkpt lat="42.872702814638615" lon="13.241870859637856">
        <ele>1763.5799999999999</ele>
        <time>2019-06-21T09:15:58Z</time>
      </trkpt>
      <trkpt lat="42.872680518776178" lon="13.241879241541028">
        <ele>1762.99</ele>
        <time>2019-06-21T09:16:02Z</time>
      </trkpt>
      <trkpt lat="42.87266249768436" lon="13.241888377815485">
        <ele>1762.95</ele>
        <time>2019-06-21T09:16:03Z</time>
      </trkpt>
      <trkpt lat="42.872645230963826" lon="13.241892317309976">
        <ele>1762.8499999999999</ele>
        <time>2019-06-21T09:16:04Z</time>
      </trkpt>
      <trkpt lat="42.872635591775179" lon="13.24189399369061">
        <ele>1762.7</ele>
        <time>2019-06-21T09:16:05Z</time>
      </trkpt>
      <trkpt lat="42.87251204252243" lon="13.241878151893616">
        <ele>1760.9300000000001</ele>
        <time>2019-06-21T09:16:14Z</time>
      </trkpt>
      <trkpt lat="42.872423613443971" lon="13.241826854646206">
        <ele>1760.1800000000001</ele>
        <time>2019-06-21T09:16:22Z</time>
      </trkpt>
      <trkpt lat="42.872372148558497" lon="13.241796931251884">
        <ele>1760.3</ele>
        <time>2019-06-21T09:16:29Z</time>
      </trkpt>
      <trkpt lat="42.872363934293389" lon="13.24180020019412">
        <ele>1760.3199999999999</ele>
        <time>2019-06-21T09:16:30Z</time>
      </trkpt>
      <trkpt lat="42.872377010062337" lon="13.241816461086273">
        <ele>1760.5599999999999</ele>
        <time>2019-06-21T09:16:35Z</time>
      </trkpt>
      <trkpt lat="42.872349098324776" lon="13.24182509444654">
        <ele>1760.6400000000001</ele>
        <time>2019-06-21T09:16:41Z</time>
      </trkpt>
      <trkpt lat="42.872285395860672" lon="13.241839008405805">
        <ele>1759.71</ele>
        <time>2019-06-21T09:16:50Z</time>
      </trkpt>
      <trkpt lat="42.872193111106753" lon="13.241857700049877">
        <ele>1759.0999999999999</ele>
        <time>2019-06-21T09:16:59Z</time>
      </trkpt>
      <trkpt lat="42.872117087244987" lon="13.241861555725336">
        <ele>1758.71</ele>
        <time>2019-06-21T09:17:09Z</time>
      </trkpt>
      <trkpt lat="42.872092528268695" lon="13.241875134408474">
        <ele>1758.3900000000001</ele>
        <time>2019-06-21T09:17:11Z</time>
      </trkpt>
      <trkpt lat="42.872080793604255" lon="13.241882929578424">
        <ele>1758.1600000000001</ele>
        <time>2019-06-21T09:17:12Z</time>
      </trkpt>
      <trkpt lat="42.87206151522696" lon="13.241884941235185">
        <ele>1758.01</ele>
        <time>2019-06-21T09:17:13Z</time>
      </trkpt>
      <trkpt lat="42.872046511620283" lon="13.241886701434851">
        <ele>1757.6800000000001</ele>
        <time>2019-06-21T09:17:14Z</time>
      </trkpt>
      <trkpt lat="42.872000746428967" lon="13.241894412785769">
        <ele>1756.6900000000001</ele>
        <time>2019-06-21T09:17:19Z</time>
      </trkpt>
      <trkpt lat="42.871987503021955" lon="13.241895418614149">
        <ele>1756.49</ele>
        <time>2019-06-21T09:17:20Z</time>
      </trkpt>
      <trkpt lat="42.871973253786564" lon="13.241893406957388">
        <ele>1756.3299999999999</ele>
        <time>2019-06-21T09:17:21Z</time>
      </trkpt>
      <trkpt lat="42.871899493038654" lon="13.241902543231845">
        <ele>1754.48</ele>
        <time>2019-06-21T09:17:29Z</time>
      </trkpt>
      <trkpt lat="42.871798658743501" lon="13.241961803287268">
        <ele>1753.8199999999999</ele>
        <time>2019-06-21T09:17:39Z</time>
      </trkpt>
      <trkpt lat="42.871697070077062" lon="13.241993905976415">
        <ele>1753.3399999999999</ele>
        <time>2019-06-21T09:17:47Z</time>
      </trkpt>
      <trkpt lat="42.871625069528818" lon="13.241986194625497">
        <ele>1752.29</ele>
        <time>2019-06-21T09:17:55Z</time>
      </trkpt>
      <trkpt lat="42.871618783101439" lon="13.241980159655213">
        <ele>1752.22</ele>
        <time>2019-06-21T09:17:56Z</time>
      </trkpt>
      <trkpt lat="42.871585674583912" lon="13.241981249302626">
        <ele>1751.6700000000001</ele>
        <time>2019-06-21T09:17:59Z</time>
      </trkpt>
      <trkpt lat="42.87151132710278" lon="13.241950487717986">
        <ele>1748.8199999999999</ele>
        <time>2019-06-21T09:18:10Z</time>
      </trkpt>
      <trkpt lat="42.871406301856041" lon="13.241895837709308">
        <ele>1746.6700000000001</ele>
        <time>2019-06-21T09:18:24Z</time>
      </trkpt>
      <trkpt lat="42.871381994336843" lon="13.241886030882597">
        <ele>1746.0699999999999</ele>
        <time>2019-06-21T09:18:26Z</time>
      </trkpt>
      <trkpt lat="42.87132365629077" lon="13.241856107488275">
        <ele>1744.6300000000001</ele>
        <time>2019-06-21T09:18:32Z</time>
      </trkpt>
      <trkpt lat="42.871311670169234" lon="13.241852419450879">
        <ele>1744.6800000000001</ele>
        <time>2019-06-21T09:18:33Z</time>
      </trkpt>
      <trkpt lat="42.871301528066397" lon="13.241849653422832">
        <ele>1744.21</ele>
        <time>2019-06-21T09:18:34Z</time>
      </trkpt>
      <trkpt lat="42.871292978525162" lon="13.241841103881598">
        <ele>1743.8299999999999</ele>
        <time>2019-06-21T09:18:35Z</time>
      </trkpt>
      <trkpt lat="42.87126213312149" lon="13.241813527420163">
        <ele>1742.8800000000001</ele>
        <time>2019-06-21T09:18:39Z</time>
      </trkpt>
      <trkpt lat="42.871252242475748" lon="13.241808665916324">
        <ele>1742.4200000000001</ele>
        <time>2019-06-21T09:18:40Z</time>
      </trkpt>
      <trkpt lat="42.871242016553879" lon="13.241800870746374">
        <ele>1742.1400000000001</ele>
        <time>2019-06-21T09:18:41Z</time>
      </trkpt>
      <trkpt lat="42.871234808117151" lon="13.241794751957059">
        <ele>1741.9000000000001</ele>
        <time>2019-06-21T09:18:42Z</time>
      </trkpt>
      <trkpt lat="42.871229527518153" lon="13.241789806634188">
        <ele>1741.73</ele>
        <time>2019-06-21T09:18:43Z</time>
      </trkpt>
      <trkpt lat="42.871134141460061" lon="13.241728451102972">
        <ele>1739.3499999999999</ele>
        <time>2019-06-21T09:18:53Z</time>
      </trkpt>
      <trkpt lat="42.871097847819328" lon="13.241705903783441">
        <ele>1738.72</ele>
        <time>2019-06-21T09:18:56Z</time>
      </trkpt>
      <trkpt lat="42.87109013646841" lon="13.241702048107982">
        <ele>1738.6900000000001</ele>
        <time>2019-06-21T09:18:57Z</time>
      </trkpt>
      <trkpt lat="42.871082844212651" lon="13.241691989824176">
        <ele>1738.6199999999999</ele>
        <time>2019-06-21T09:18:58Z</time>
      </trkpt>
      <trkpt lat="42.871048394590616" lon="13.241655193269253">
        <ele>1737.76</ele>
        <time>2019-06-21T09:19:02Z</time>
      </trkpt>
      <trkpt lat="42.871037665754557" lon="13.241649242118001">
        <ele>1737.6199999999999</ele>
        <time>2019-06-21T09:19:03Z</time>
      </trkpt>
      <trkpt lat="42.870952757075429" lon="13.241584869101644">
        <ele>1735.6199999999999</ele>
        <time>2019-06-21T09:19:13Z</time>
      </trkpt>
      <trkpt lat="42.870946554467082" lon="13.241581181064248">
        <ele>1735.54</ele>
        <time>2019-06-21T09:19:14Z</time>
      </trkpt>
      <trkpt lat="42.870855778455734" lon="13.241521082818508">
        <ele>1733.1900000000001</ele>
        <time>2019-06-21T09:19:24Z</time>
      </trkpt>
      <trkpt lat="42.870786963030696" lon="13.24149233289063">
        <ele>1732.4100000000001</ele>
        <time>2019-06-21T09:19:30Z</time>
      </trkpt>
      <trkpt lat="42.870748909190297" lon="13.241480179131031">
        <ele>1731.1600000000001</ele>
        <time>2019-06-21T09:19:34Z</time>
      </trkpt>
      <trkpt lat="42.870737006887794" lon="13.241475066170096">
        <ele>1730.9200000000001</ele>
        <time>2019-06-21T09:19:35Z</time>
      </trkpt>
      <trkpt lat="42.870722841471434" lon="13.241468109190464">
        <ele>1730.6500000000001</ele>
        <time>2019-06-21T09:19:36Z</time>
      </trkpt>
      <trkpt lat="42.870711022987962" lon="13.241458889096975">
        <ele>1730.29</ele>
        <time>2019-06-21T09:19:37Z</time>
      </trkpt>
      <trkpt lat="42.870699623599648" lon="13.241453608497977">
        <ele>1730.01</ele>
        <time>2019-06-21T09:19:38Z</time>
      </trkpt>
      <trkpt lat="42.870653355494142" lon="13.24144153855741">
        <ele>1729.74</ele>
        <time>2019-06-21T09:19:42Z</time>
      </trkpt>
      <trkpt lat="42.870638100430369" lon="13.241431815549731">
        <ele>1729.47</ele>
        <time>2019-06-21T09:19:43Z</time>
      </trkpt>
      <trkpt lat="42.870589820668101" lon="13.241427037864923">
        <ele>1728.78</ele>
        <time>2019-06-21T09:19:50Z</time>
      </trkpt>
      <trkpt lat="42.870517484843731" lon="13.241455368697643">
        <ele>1728.77</ele>
        <time>2019-06-21T09:19:56Z</time>
      </trkpt>
      <trkpt lat="42.870443556457758" lon="13.24148747138679">
        <ele>1728.54</ele>
        <time>2019-06-21T09:20:02Z</time>
      </trkpt>
      <trkpt lat="42.870388235896826" lon="13.241553688421845">
        <ele>1727.6400000000001</ele>
        <time>2019-06-21T09:20:08Z</time>
      </trkpt>
      <trkpt lat="42.870342805981636" lon="13.241611691191792">
        <ele>1726.6199999999999</ele>
        <time>2019-06-21T09:20:15Z</time>
      </trkpt>
      <trkpt lat="42.870347835123539" lon="13.241708166897297">
        <ele>1725.4000000000001</ele>
        <time>2019-06-21T09:20:21Z</time>
      </trkpt>
      <trkpt lat="42.870348505675793" lon="13.241783352568746">
        <ele>1724.1300000000001</ele>
        <time>2019-06-21T09:20:25Z</time>
      </trkpt>
      <trkpt lat="42.8703532833606" lon="13.241816544905305">
        <ele>1723.6500000000001</ele>
        <time>2019-06-21T09:20:27Z</time>
      </trkpt>
      <trkpt lat="42.870386140421033" lon="13.241877146065235">
        <ele>1722.5699999999999</ele>
        <time>2019-06-21T09:20:31Z</time>
      </trkpt>
      <trkpt lat="42.87041338160634" lon="13.241913774982095">
        <ele>1722.02</ele>
        <time>2019-06-21T09:20:34Z</time>
      </trkpt>
      <trkpt lat="42.87042654119432" lon="13.241971358656883">
        <ele>1720.98</ele>
        <time>2019-06-21T09:20:38Z</time>
      </trkpt>
      <trkpt lat="42.870461158454418" lon="13.242019973695278">
        <ele>1720.1099999999999</ele>
        <time>2019-06-21T09:20:43Z</time>
      </trkpt>
      <trkpt lat="42.87050667218864" lon="13.242087448015809">
        <ele>1718.5</ele>
        <time>2019-06-21T09:20:54Z</time>
      </trkpt>
      <trkpt lat="42.870541540905833" lon="13.242123071104288">
        <ele>1718.25</ele>
        <time>2019-06-21T09:20:58Z</time>
      </trkpt>
      <trkpt lat="42.870609266683459" lon="13.242272520437837">
        <ele>1717.22</ele>
        <time>2019-06-21T09:21:11Z</time>
      </trkpt>
      <trkpt lat="42.87062837742269" lon="13.242370169609785">
        <ele>1715.97</ele>
        <time>2019-06-21T09:21:19Z</time>
      </trkpt>
      <trkpt lat="42.870607590302825" lon="13.242404786869884">
        <ele>1715.4300000000001</ele>
        <time>2019-06-21T09:21:23Z</time>
      </trkpt>
      <trkpt lat="42.870564758777618" lon="13.242541495710611">
        <ele>1713.0899999999999</ele>
        <time>2019-06-21T09:21:34Z</time>
      </trkpt>
      <trkpt lat="42.870558556169271" lon="13.242550296708941">
        <ele>1712.6700000000001</ele>
        <time>2019-06-21T09:21:35Z</time>
      </trkpt>
      <trkpt lat="42.870520083233714" lon="13.242576029151678">
        <ele>1711.6300000000001</ele>
        <time>2019-06-21T09:21:39Z</time>
      </trkpt>
      <trkpt lat="42.870479766279459" lon="13.242634199559689">
        <ele>1710.6099999999999</ele>
        <time>2019-06-21T09:21:46Z</time>
      </trkpt>
      <trkpt lat="42.870460068807006" lon="13.242649706080556">
        <ele>1710.24</ele>
        <time>2019-06-21T09:21:48Z</time>
      </trkpt>
      <trkpt lat="42.870398964732885" lon="13.242656830698252">
        <ele>1709.3599999999999</ele>
        <time>2019-06-21T09:21:54Z</time>
      </trkpt>
      <trkpt lat="42.870341297239065" lon="13.242684155702591">
        <ele>1707.03</ele>
        <time>2019-06-21T09:22:04Z</time>
      </trkpt>
      <trkpt lat="42.870251191779971" lon="13.242718270048499">
        <ele>1703.96</ele>
        <time>2019-06-21T09:22:20Z</time>
      </trkpt>
      <trkpt lat="42.870148010551929" lon="13.24275154620409">
        <ele>1701.9000000000001</ele>
        <time>2019-06-21T09:22:31Z</time>
      </trkpt>
      <trkpt lat="42.86999705247581" lon="13.242710139602423">
        <ele>1699.04</ele>
        <time>2019-06-21T09:22:46Z</time>
      </trkpt>
      <trkpt lat="42.869902001693845" lon="13.24261374771595">
        <ele>1698.8499999999999</ele>
        <time>2019-06-21T09:23:00Z</time>
      </trkpt>
      <trkpt lat="42.869782894849777" lon="13.242559432983398">
        <ele>1697.97</ele>
        <time>2019-06-21T09:23:14Z</time>
      </trkpt>
      <trkpt lat="42.869757413864136" lon="13.24255608022213">
        <ele>1699.0699999999999</ele>
        <time>2019-06-21T09:23:20Z</time>
      </trkpt>
      <trkpt lat="42.869680132716894" lon="13.242506207898259">
        <ele>1699</ele>
        <time>2019-06-21T09:23:30Z</time>
      </trkpt>
      <trkpt lat="42.869681054726243" lon="13.242535712197423">
        <ele>1698.96</ele>
        <time>2019-06-21T09:23:44Z</time>
      </trkpt>
      <trkpt lat="42.869682060554624" lon="13.242524648085237">
        <ele>1698.51</ele>
        <time>2019-06-21T09:23:56Z</time>
      </trkpt>
      <trkpt lat="42.869672086089849" lon="13.242492210119963">
        <ele>1697.74</ele>
        <time>2019-06-21T09:24:16Z</time>
      </trkpt>
      <trkpt lat="42.869658758863807" lon="13.242489695549011">
        <ele>1698.01</ele>
        <time>2019-06-21T09:24:57Z</time>
      </trkpt>
      <trkpt lat="42.86966378800571" lon="13.242495227605104">
        <ele>1697.8399999999999</ele>
        <time>2019-06-21T09:25:50Z</time>
      </trkpt>
      <trkpt lat="42.869657501578331" lon="13.24248768389225">
        <ele>1697.5599999999999</ele>
        <time>2019-06-21T09:26:36Z</time>
      </trkpt>
      <trkpt lat="42.869648532941937" lon="13.242487767711282">
        <ele>1697.45</ele>
        <time>2019-06-21T09:27:23Z</time>
      </trkpt>
      <trkpt lat="42.869639983400702" lon="13.242484666407108">
        <ele>1696.5</ele>
        <time>2019-06-21T09:28:11Z</time>
      </trkpt>
      <trkpt lat="42.869651215150952" lon="13.242487767711282">
        <ele>1697.0699999999999</ele>
        <time>2019-06-21T09:28:26Z</time>
      </trkpt>
      <trkpt lat="42.869669990614057" lon="13.242484498769045">
        <ele>1697.3800000000001</ele>
        <time>2019-06-21T09:28:41Z</time>
      </trkpt>
      <trkpt lat="42.86968382075429" lon="13.242525989189744">
        <ele>1696.46</ele>
        <time>2019-06-21T09:28:55Z</time>
      </trkpt>
      <trkpt lat="42.869678791612387" lon="13.242526575922966">
        <ele>1695.3099999999999</ele>
        <time>2019-06-21T09:29:21Z</time>
      </trkpt>
      <trkpt lat="42.869682731106877" lon="13.242518277838826">
        <ele>1694.53</ele>
        <time>2019-06-21T09:30:13Z</time>
      </trkpt>
      <trkpt lat="42.869670828804374" lon="13.242526995018125">
        <ele>1694.1099999999999</ele>
        <time>2019-06-21T09:30:31Z</time>
      </trkpt>
      <trkpt lat="42.869675941765308" lon="13.242531688883901">
        <ele>1693.8599999999999</ele>
        <time>2019-06-21T09:31:06Z</time>
      </trkpt>
      <trkpt lat="42.869669739156961" lon="13.242521211504936">
        <ele>1693.3099999999999</ele>
        <time>2019-06-21T09:31:33Z</time>
      </trkpt>
      <trkpt lat="42.869660686701536" lon="13.242492796853185">
        <ele>1694.1500000000001</ele>
        <time>2019-06-21T09:31:51Z</time>
      </trkpt>
      <trkpt lat="42.869651298969984" lon="13.242497239261866">
        <ele>1693.71</ele>
        <time>2019-06-21T09:32:11Z</time>
      </trkpt>
      <trkpt lat="42.869634870439768" lon="13.242499502375722">
        <ele>1694</ele>
        <time>2019-06-21T09:32:33Z</time>
      </trkpt>
      <trkpt lat="42.869640486314893" lon="13.242487264797091">
        <ele>1694.03</ele>
        <time>2019-06-21T09:33:01Z</time>
      </trkpt>
      <trkpt lat="42.869640234857798" lon="13.242491371929646">
        <ele>1693.8099999999999</ele>
        <time>2019-06-21T09:33:34Z</time>
      </trkpt>
      <trkpt lat="42.869633864611387" lon="13.242487432435155">
        <ele>1693.5799999999999</ele>
        <time>2019-06-21T09:34:06Z</time>
      </trkpt>
      <trkpt lat="42.869648365303874" lon="13.242495562881231">
        <ele>1693.53</ele>
        <time>2019-06-21T09:34:42Z</time>
      </trkpt>
      <trkpt lat="42.869657417759299" lon="13.242505956441164">
        <ele>1693.3499999999999</ele>
        <time>2019-06-21T09:35:10Z</time>
      </trkpt>
      <trkpt lat="42.869665212929249" lon="13.242496820166707">
        <ele>1693.4300000000001</ele>
        <time>2019-06-21T09:35:44Z</time>
      </trkpt>
      <trkpt lat="42.869663117453456" lon="13.242504699155688">
        <ele>1693.22</ele>
        <time>2019-06-21T09:36:10Z</time>
      </trkpt>
      <trkpt lat="42.869671247899532" lon="13.242505034431815">
        <ele>1693.27</ele>
        <time>2019-06-21T09:36:38Z</time>
      </trkpt>
      <trkpt lat="42.869680132716894" lon="13.242498831823468">
        <ele>1692.9300000000001</ele>
        <time>2019-06-21T09:37:10Z</time>
      </trkpt>
      <trkpt lat="42.86966965533793" lon="13.242500592023134">
        <ele>1692.9200000000001</ele>
        <time>2019-06-21T09:37:45Z</time>
      </trkpt>
      <trkpt lat="42.869675103574991" lon="13.242501597851515">
        <ele>1693.8800000000001</ele>
        <time>2019-06-21T09:38:18Z</time>
      </trkpt>
      <trkpt lat="42.869680216535926" lon="13.242503777146339">
        <ele>1693.6700000000001</ele>
        <time>2019-06-21T09:38:55Z</time>
      </trkpt>
      <trkpt lat="42.869681473821402" lon="13.242508722469211">
        <ele>1693.6700000000001</ele>
        <time>2019-06-21T09:39:36Z</time>
      </trkpt>
      <trkpt lat="42.869684072211385" lon="13.242502855136991">
        <ele>1693.3599999999999</ele>
        <time>2019-06-21T09:40:13Z</time>
      </trkpt>
      <trkpt lat="42.869680970907211" lon="13.242504866793752">
        <ele>1692.9100000000001</ele>
        <time>2019-06-21T09:40:49Z</time>
      </trkpt>
      <trkpt lat="42.869680719450116" lon="13.242504699155688">
        <ele>1694.1400000000001</ele>
        <time>2019-06-21T09:41:11Z</time>
      </trkpt>
      <trkpt lat="42.869702847674489" lon="13.242525989189744">
        <ele>1693.5699999999999</ele>
        <time>2019-06-21T09:41:26Z</time>
      </trkpt>
      <trkpt lat="42.869737632572651" lon="13.242543842643499">
        <ele>1693.0999999999999</ele>
        <time>2019-06-21T09:41:52Z</time>
      </trkpt>
      <trkpt lat="42.869754647836089" lon="13.242568066343665">
        <ele>1693.99</ele>
        <time>2019-06-21T09:42:13Z</time>
      </trkpt>
      <trkpt lat="42.86978792399168" lon="13.242530599236488">
        <ele>1693.8800000000001</ele>
        <time>2019-06-21T09:42:38Z</time>
      </trkpt>
      <trkpt lat="42.86979672499001" lon="13.242553230375051">
        <ele>1692.8499999999999</ele>
        <time>2019-06-21T09:42:44Z</time>
      </trkpt>
      <trkpt lat="42.869798820465803" lon="13.242546943947673">
        <ele>1694.0699999999999</ele>
        <time>2019-06-21T09:43:07Z</time>
      </trkpt>
      <trkpt lat="42.869781218469143" lon="13.242544513195753">
        <ele>1693.6800000000001</ele>
        <time>2019-06-21T09:43:29Z</time>
      </trkpt>
      <trkpt lat="42.869772166013718" lon="13.242539819329977">
        <ele>1693.9000000000001</ele>
        <time>2019-06-21T09:43:52Z</time>
      </trkpt>
      <trkpt lat="42.869777195155621" lon="13.242526995018125">
        <ele>1693.29</ele>
        <time>2019-06-21T09:44:16Z</time>
      </trkpt>
      <trkpt lat="42.869767472147942" lon="13.242526324465871">
        <ele>1693.5599999999999</ele>
        <time>2019-06-21T09:44:39Z</time>
      </trkpt>
      <trkpt lat="42.869769148528576" lon="13.242536298930645">
        <ele>1693.6300000000001</ele>
        <time>2019-06-21T09:45:08Z</time>
      </trkpt>
      <trkpt lat="42.869758754968643" lon="13.242546357214451">
        <ele>1693.5699999999999</ele>
        <time>2019-06-21T09:45:37Z</time>
      </trkpt>
      <trkpt lat="42.869769399985671" lon="13.242551051080227">
        <ele>1676.9200000000001</ele>
        <time>2019-06-21T09:45:41Z</time>
      </trkpt>
      <trkpt lat="42.86977275274694" lon="13.242551805451512">
        <ele>1691.02</ele>
        <time>2019-06-21T09:45:42Z</time>
      </trkpt>
      <trkpt lat="42.869769902899861" lon="13.242551386356354">
        <ele>1700.99</ele>
        <time>2019-06-21T09:45:43Z</time>
      </trkpt>
      <trkpt lat="42.869769902899861" lon="13.242552224546671">
        <ele>1698.8599999999999</ele>
        <time>2019-06-21T09:45:44Z</time>
      </trkpt>
      <trkpt lat="42.869769064709544" lon="13.242552978917956">
        <ele>1694.6300000000001</ele>
        <time>2019-06-21T09:45:46Z</time>
      </trkpt>
      <trkpt lat="42.869752552360296" lon="13.242554320022464">
        <ele>1693.9200000000001</ele>
        <time>2019-06-21T09:46:08Z</time>
      </trkpt>
      <trkpt lat="42.869765376672149" lon="13.242572844028473">
        <ele>1694.27</ele>
        <time>2019-06-21T09:46:36Z</time>
      </trkpt>
      <trkpt lat="42.86976981908083" lon="13.242562785744667">
        <ele>1694.3</ele>
        <time>2019-06-21T09:47:02Z</time>
      </trkpt>
      <trkpt lat="42.869754815474153" lon="13.242554320022464">
        <ele>1694.1400000000001</ele>
        <time>2019-06-21T09:47:35Z</time>
      </trkpt>
      <trkpt lat="42.869757749140263" lon="13.242536718025804">
        <ele>1694.9300000000001</ele>
        <time>2019-06-21T09:47:50Z</time>
      </trkpt>
      <trkpt lat="42.869745008647442" lon="13.242568736895919">
        <ele>1694.6500000000001</ele>
        <time>2019-06-21T09:48:08Z</time>
      </trkpt>
      <trkpt lat="42.869754983112216" lon="13.242581393569708">
        <ele>1694.4200000000001</ele>
        <time>2019-06-21T09:48:32Z</time>
      </trkpt>
      <trkpt lat="42.869772417470813" lon="13.242556164041162">
        <ele>1694.6300000000001</ele>
        <time>2019-06-21T09:48:56Z</time>
      </trkpt>
      <trkpt lat="42.869742829352617" lon="13.242569072172046">
        <ele>1694.8099999999999</ele>
        <time>2019-06-21T09:49:22Z</time>
      </trkpt>
      <trkpt lat="42.869762107729912" lon="13.24258541688323">
        <ele>1694.8499999999999</ele>
        <time>2019-06-21T09:49:47Z</time>
      </trkpt>
      <trkpt lat="42.869746936485171" lon="13.24258784763515">
        <ele>1694.95</ele>
        <time>2019-06-21T09:50:09Z</time>
      </trkpt>
      <trkpt lat="42.869736375287175" lon="13.242562199011445">
        <ele>1695.21</ele>
        <time>2019-06-21T09:50:32Z</time>
      </trkpt>
      <trkpt lat="42.869743751361966" lon="13.242558008059859">
        <ele>1695.01</ele>
        <time>2019-06-21T09:50:56Z</time>
      </trkpt>
      <trkpt lat="42.869759760797024" lon="13.242579633370042">
        <ele>1695.3499999999999</ele>
        <time>2019-06-21T09:51:22Z</time>
      </trkpt>
      <trkpt lat="42.869739476591349" lon="13.242553314194083">
        <ele>1689.29</ele>
        <time>2019-06-21T09:51:40Z</time>
      </trkpt>
      <trkpt lat="42.869740482419729" lon="13.242544597014785">
        <ele>1699.9100000000001</ele>
        <time>2019-06-21T09:51:42Z</time>
      </trkpt>
      <trkpt lat="42.869742074981332" lon="13.242542250081897">
        <ele>1698.8699999999999</ele>
        <time>2019-06-21T09:51:43Z</time>
      </trkpt>
      <trkpt lat="42.869743751361966" lon="13.242539903149009">
        <ele>1695.7</ele>
        <time>2019-06-21T09:51:45Z</time>
      </trkpt>
      <trkpt lat="42.869740566238761" lon="13.242539903149009">
        <ele>1695.52</ele>
        <time>2019-06-21T09:51:46Z</time>
      </trkpt>
      <trkpt lat="42.869755988940597" lon="13.242539903149009">
        <ele>1694.72</ele>
        <time>2019-06-21T09:52:09Z</time>
      </trkpt>
      <trkpt lat="42.869751965627074" lon="13.242560354992747">
        <ele>1695.3299999999999</ele>
        <time>2019-06-21T09:52:30Z</time>
      </trkpt>
      <trkpt lat="42.869745930656791" lon="13.242564797401428">
        <ele>1695.4000000000001</ele>
        <time>2019-06-21T09:52:58Z</time>
      </trkpt>
      <trkpt lat="42.869731849059463" lon="13.24256001971662">
        <ele>1695.72</ele>
        <time>2019-06-21T09:53:38Z</time>
      </trkpt>
      <trkpt lat="42.869732100516558" lon="13.242542501538992">
        <ele>1695.6300000000001</ele>
        <time>2019-06-21T09:54:09Z</time>
      </trkpt>
      <trkpt lat="42.869734615087509" lon="13.242539651691914">
        <ele>1695.9200000000001</ele>
        <time>2019-06-21T09:54:41Z</time>
      </trkpt>
      <trkpt lat="42.869740650057793" lon="13.242533449083567">
        <ele>1695.99</ele>
        <time>2019-06-21T09:55:07Z</time>
      </trkpt>
      <trkpt lat="42.869743835180998" lon="13.242532694712281">
        <ele>1696.47</ele>
        <time>2019-06-21T09:55:22Z</time>
      </trkpt>
      <trkpt lat="42.869746349751949" lon="13.242538226768374">
        <ele>1695.8699999999999</ele>
        <time>2019-06-21T09:55:38Z</time>
      </trkpt>
      <trkpt lat="42.869743332266808" lon="13.242538897320628">
        <ele>1696.1500000000001</ele>
        <time>2019-06-21T09:56:05Z</time>
      </trkpt>
      <trkpt lat="42.869746098294854" lon="13.242542669177055">
        <ele>1695.8699999999999</ele>
        <time>2019-06-21T09:56:36Z</time>
      </trkpt>
      <trkpt lat="42.86974735558033" lon="13.242556415498257">
        <ele>1695.22</ele>
        <time>2019-06-21T09:57:25Z</time>
      </trkpt>
      <trkpt lat="42.869742829352617" lon="13.242550883442163">
        <ele>1695.2</ele>
        <time>2019-06-21T09:58:16Z</time>
      </trkpt>
      <trkpt lat="42.869739728048444" lon="13.242551637813449">
        <ele>1695.8499999999999</ele>
        <time>2019-06-21T09:59:02Z</time>
      </trkpt>
      <trkpt lat="42.869746685028076" lon="13.242534874007106">
        <ele>1695.5</ele>
        <time>2019-06-21T09:59:49Z</time>
      </trkpt>
      <trkpt lat="42.869746265932918" lon="13.242544680833817">
        <ele>1695.3499999999999</ele>
        <time>2019-06-21T10:00:45Z</time>
      </trkpt>
      <trkpt lat="42.86974978633225" lon="13.242544597014785">
        <ele>1695.5899999999999</ele>
        <time>2019-06-21T10:01:37Z</time>
      </trkpt>
      <trkpt lat="42.869742829352617" lon="13.242569407448173">
        <ele>1695.7</ele>
        <time>2019-06-21T10:02:25Z</time>
      </trkpt>
      <trkpt lat="42.869750373065472" lon="13.242551637813449">
        <ele>1696.6600000000001</ele>
        <time>2019-06-21T10:02:53Z</time>
      </trkpt>
      <trkpt lat="42.869747104123235" lon="13.242536298930645">
        <ele>1696.4100000000001</ele>
        <time>2019-06-21T10:03:04Z</time>
      </trkpt>
      <trkpt lat="42.869751295074821" lon="13.242537975311279">
        <ele>1697.1400000000001</ele>
        <time>2019-06-21T10:03:20Z</time>
      </trkpt>
      <trkpt lat="42.869754983112216" lon="13.242525905370712">
        <ele>1696.96</ele>
        <time>2019-06-21T10:03:35Z</time>
      </trkpt>
      <trkpt lat="42.869749702513218" lon="13.242525150999427">
        <ele>1697.1300000000001</ele>
        <time>2019-06-21T10:03:53Z</time>
      </trkpt>
      <trkpt lat="42.869751211255789" lon="13.24253018014133">
        <ele>1697.0999999999999</ele>
        <time>2019-06-21T10:04:07Z</time>
      </trkpt>
      <trkpt lat="42.869754144921899" lon="13.242522468790412">
        <ele>1697.03</ele>
        <time>2019-06-21T10:04:35Z</time>
      </trkpt>
      <trkpt lat="42.869763029739261" lon="13.242523809894919">
        <ele>1696.74</ele>
        <time>2019-06-21T10:04:54Z</time>
      </trkpt>
      <trkpt lat="42.869761353358626" lon="13.242523474618793">
        <ele>1697.46</ele>
        <time>2019-06-21T10:04:56Z</time>
      </trkpt>
      <trkpt lat="42.869790773838758" lon="13.242535796016455">
        <ele>1696.3199999999999</ele>
        <time>2019-06-21T10:05:10Z</time>
      </trkpt>
      <trkpt lat="42.869878364726901" lon="13.242589440196753">
        <ele>1696.0799999999999</ele>
        <time>2019-06-21T10:05:22Z</time>
      </trkpt>
      <trkpt lat="42.869946761056781" lon="13.242627494037151">
        <ele>1695.97</ele>
        <time>2019-06-21T10:05:31Z</time>
      </trkpt>
      <trkpt lat="42.870073411613703" lon="13.242707289755344">
        <ele>1696.6199999999999</ele>
        <time>2019-06-21T10:05:47Z</time>
      </trkpt>
      <trkpt lat="42.870175922289491" lon="13.242781134322286">
        <ele>1698.4300000000001</ele>
        <time>2019-06-21T10:06:04Z</time>
      </trkpt>
      <trkpt lat="42.870256053283811" lon="13.242801669985056">
        <ele>1700.6400000000001</ele>
        <time>2019-06-21T10:06:20Z</time>
      </trkpt>
      <trkpt lat="42.870321096852422" lon="13.242779290303588">
        <ele>1701.78</ele>
        <time>2019-06-21T10:06:33Z</time>
      </trkpt>
      <trkpt lat="42.870386308059096" lon="13.242747606709599">
        <ele>1703.54</ele>
        <time>2019-06-21T10:06:47Z</time>
      </trkpt>
      <trkpt lat="42.870446993038058" lon="13.242734782397747">
        <ele>1705.0699999999999</ele>
        <time>2019-06-21T10:07:00Z</time>
      </trkpt>
      <trkpt lat="42.870510779321194" lon="13.242718270048499">
        <ele>1706.4300000000001</ele>
        <time>2019-06-21T10:07:13Z</time>
      </trkpt>
      <trkpt lat="42.870595688000321" lon="13.242689771577716">
        <ele>1707.3699999999999</ele>
        <time>2019-06-21T10:07:28Z</time>
      </trkpt>
      <trkpt lat="42.87064497359097" lon="13.242638893425465">
        <ele>1708.3099999999999</ele>
        <time>2019-06-21T10:07:43Z</time>
      </trkpt>
      <trkpt lat="42.870655283331871" lon="13.242558427155018">
        <ele>1710.1500000000001</ele>
        <time>2019-06-21T10:07:58Z</time>
      </trkpt>
      <trkpt lat="42.87067917175591" lon="13.24243244715035">
        <ele>1712.01</ele>
        <time>2019-06-21T10:08:15Z</time>
      </trkpt>
      <trkpt lat="42.870704988017678" lon="13.242362458258867">
        <ele>1713.1500000000001</ele>
        <time>2019-06-21T10:08:29Z</time>
      </trkpt>
      <trkpt lat="42.870670454576612" lon="13.242243938148022">
        <ele>1714.4400000000001</ele>
        <time>2019-06-21T10:08:44Z</time>
      </trkpt>
      <trkpt lat="42.87061664275825" lon="13.242134721949697">
        <ele>1715.1099999999999</ele>
        <time>2019-06-21T10:08:57Z</time>
      </trkpt>
      <trkpt lat="42.870574230328202" lon="13.242070516571403">
        <ele>1715.75</ele>
        <time>2019-06-21T10:09:09Z</time>
      </trkpt>
      <trkpt lat="42.870499882847071" lon="13.241970352828503">
        <ele>1716.6900000000001</ele>
        <time>2019-06-21T10:09:24Z</time>
      </trkpt>
      <trkpt lat="42.870421428233385" lon="13.241872200742364">
        <ele>1719.27</ele>
        <time>2019-06-21T10:09:40Z</time>
      </trkpt>
      <trkpt lat="42.870362000539899" lon="13.241767007857561">
        <ele>1721.1800000000001</ele>
        <time>2019-06-21T10:09:58Z</time>
      </trkpt>
      <trkpt lat="42.87037868052721" lon="13.241663323715329">
        <ele>1723.4000000000001</ele>
        <time>2019-06-21T10:10:12Z</time>
      </trkpt>
      <trkpt lat="42.870422014966607" lon="13.241598447784781">
        <ele>1723.5699999999999</ele>
        <time>2019-06-21T10:10:24Z</time>
      </trkpt>
      <trkpt lat="42.870486555621028" lon="13.241547234356403">
        <ele>1724.3099999999999</ele>
        <time>2019-06-21T10:10:38Z</time>
      </trkpt>
      <trkpt lat="42.870531398802996" lon="13.241497948765755">
        <ele>1725.0999999999999</ele>
        <time>2019-06-21T10:10:49Z</time>
      </trkpt>
      <trkpt lat="42.870616475120187" lon="13.241450674831867">
        <ele>1726.28</ele>
        <time>2019-06-21T10:11:04Z</time>
      </trkpt>
      <trkpt lat="42.87073340266943" lon="13.241480346769094">
        <ele>1726.95</ele>
        <time>2019-06-21T10:11:20Z</time>
      </trkpt>
      <trkpt lat="42.870832309126854" lon="13.241524938493967">
        <ele>1729.1400000000001</ele>
        <time>2019-06-21T10:11:37Z</time>
      </trkpt>
      <trkpt lat="42.870920905843377" lon="13.241553353145719">
        <ele>1730.5899999999999</ele>
        <time>2019-06-21T10:11:53Z</time>
      </trkpt>
      <trkpt lat="42.8710095025599" lon="13.241624599322677">
        <ele>1732.76</ele>
        <time>2019-06-21T10:12:10Z</time>
      </trkpt>
      <trkpt lat="42.87109206430614" lon="13.241682266816497">
        <ele>1734.1600000000001</ele>
        <time>2019-06-21T10:12:28Z</time>
      </trkpt>
      <trkpt lat="42.871170099824667" lon="13.241731971502304">
        <ele>1736.3599999999999</ele>
        <time>2019-06-21T10:12:45Z</time>
      </trkpt>
      <trkpt lat="42.871252242475748" lon="13.24177329428494">
        <ele>1738.6900000000001</ele>
        <time>2019-06-21T10:13:02Z</time>
      </trkpt>
      <trkpt lat="42.871330361813307" lon="13.241821154952049">
        <ele>1740.6099999999999</ele>
        <time>2019-06-21T10:13:19Z</time>
      </trkpt>
      <trkpt lat="42.871396075934172" lon="13.24185635894537">
        <ele>1742.1300000000001</ele>
        <time>2019-06-21T10:13:33Z</time>
      </trkpt>
      <trkpt lat="42.871468579396605" lon="13.241865076124668">
        <ele>1744.3599999999999</ele>
        <time>2019-06-21T10:13:49Z</time>
      </trkpt>
      <trkpt lat="42.871524654328823" lon="13.241851665079594">
        <ele>1745.96</ele>
        <time>2019-06-21T10:14:02Z</time>
      </trkpt>
      <trkpt lat="42.871576203033328" lon="13.241858286783099">
        <ele>1747.4300000000001</ele>
        <time>2019-06-21T10:14:14Z</time>
      </trkpt>
      <trkpt lat="42.871638648211956" lon="13.241898017004132">
        <ele>1748.8499999999999</ele>
        <time>2019-06-21T10:14:28Z</time>
      </trkpt>
      <trkpt lat="42.871699249371886" lon="13.241921318694949">
        <ele>1750.4300000000001</ele>
        <time>2019-06-21T10:14:40Z</time>
      </trkpt>
      <trkpt lat="42.871736381202936" lon="13.241939507424831">
        <ele>1751.04</ele>
        <time>2019-06-21T10:14:54Z</time>
      </trkpt>
      <trkpt lat="42.871774602681398" lon="13.241947889328003">
        <ele>1751.3099999999999</ele>
        <time>2019-06-21T10:15:08Z</time>
      </trkpt>
      <trkpt lat="42.871869737282395" lon="13.241895586252213">
        <ele>1752.6900000000001</ele>
        <time>2019-06-21T10:15:24Z</time>
      </trkpt>
      <trkpt lat="42.871911395341158" lon="13.241877732798457">
        <ele>1752.46</ele>
        <time>2019-06-21T10:15:29Z</time>
      </trkpt>
      <trkpt lat="42.871947856619954" lon="13.241862813010812">
        <ele>1752.0799999999999</ele>
        <time>2019-06-21T10:15:33Z</time>
      </trkpt>
      <trkpt lat="42.872062772512436" lon="13.241876643151045">
        <ele>1753.1800000000001</ele>
        <time>2019-06-21T10:15:49Z</time>
      </trkpt>
      <trkpt lat="42.872151453047991" lon="13.241898939013481">
        <ele>1754.47</ele>
        <time>2019-06-21T10:16:03Z</time>
      </trkpt>
      <trkpt lat="42.872231835499406" lon="13.24187153019011">
        <ele>1755.75</ele>
        <time>2019-06-21T10:16:18Z</time>
      </trkpt>
      <trkpt lat="42.872321102768183" lon="13.241869937628508">
        <ele>1756.28</ele>
        <time>2019-06-21T10:16:31Z</time>
      </trkpt>
      <trkpt lat="42.87241623736918" lon="13.241844372823834">
        <ele>1757.3699999999999</ele>
        <time>2019-06-21T10:16:44Z</time>
      </trkpt>
      <trkpt lat="42.872515060007572" lon="13.241858789697289">
        <ele>1757.6300000000001</ele>
        <time>2019-06-21T10:16:57Z</time>
      </trkpt>
      <trkpt lat="42.872607512399554" lon="13.241896843537688">
        <ele>1757.3</ele>
        <time>2019-06-21T10:17:09Z</time>
      </trkpt>
      <trkpt lat="42.872734162956476" lon="13.24193506501615">
        <ele>1758.8499999999999</ele>
        <time>2019-06-21T10:17:26Z</time>
      </trkpt>
      <trkpt lat="42.872846396639943" lon="13.241927605122328">
        <ele>1760.8199999999999</ele>
        <time>2019-06-21T10:17:43Z</time>
      </trkpt>
      <trkpt lat="42.872985871508718" lon="13.241949062794447">
        <ele>1762.3</ele>
        <time>2019-06-21T10:18:02Z</time>
      </trkpt>
      <trkpt lat="42.873095590621233" lon="13.241969766095281">
        <ele>1764.8099999999999</ele>
        <time>2019-06-21T10:18:21Z</time>
      </trkpt>
      <trkpt lat="42.873175134882331" lon="13.241986194625497">
        <ele>1766.6199999999999</ele>
        <time>2019-06-21T10:18:36Z</time>
      </trkpt>
      <trkpt lat="42.873250655829906" lon="13.241992061957717">
        <ele>1768.73</ele>
        <time>2019-06-21T10:18:51Z</time>
      </trkpt>
      <trkpt lat="42.873319052159786" lon="13.242027182132006">
        <ele>1769.72</ele>
        <time>2019-06-21T10:19:04Z</time>
      </trkpt>
      <trkpt lat="42.873362135142088" lon="13.242052579298615">
        <ele>1769.9400000000001</ele>
        <time>2019-06-21T10:19:17Z</time>
      </trkpt>
      <trkpt lat="42.873418629169464" lon="13.242072528228164">
        <ele>1770.3299999999999</ele>
        <time>2019-06-21T10:19:31Z</time>
      </trkpt>
      <trkpt lat="42.873516613617539" lon="13.242133548483253">
        <ele>1771.2</ele>
        <time>2019-06-21T10:19:46Z</time>
      </trkpt>
      <trkpt lat="42.873601857572794" lon="13.242236729711294">
        <ele>1771.96</ele>
        <time>2019-06-21T10:20:02Z</time>
      </trkpt>
      <trkpt lat="42.873631278052926" lon="13.242272520437837">
        <ele>1773.54</ele>
        <time>2019-06-21T10:20:08Z</time>
      </trkpt>
      <trkpt lat="42.873701434582472" lon="13.242348125204444">
        <ele>1773.77</ele>
        <time>2019-06-21T10:20:20Z</time>
      </trkpt>
      <trkpt lat="42.873785337433219" lon="13.242355166003108">
        <ele>1775.4000000000001</ele>
        <time>2019-06-21T10:20:34Z</time>
      </trkpt>
      <trkpt lat="42.873856499791145" lon="13.2423694152385">
        <ele>1776.9300000000001</ele>
        <time>2019-06-21T10:20:48Z</time>
      </trkpt>
      <trkpt lat="42.873894134536386" lon="13.24240948073566">
        <ele>1777.5</ele>
        <time>2019-06-21T10:20:59Z</time>
      </trkpt>
      <trkpt lat="42.873901845887303" lon="13.242461364716291">
        <ele>1777.6800000000001</ele>
        <time>2019-06-21T10:21:12Z</time>
      </trkpt>
      <trkpt lat="42.873900001868606" lon="13.242464466020465">
        <ele>1777.8299999999999</ele>
        <time>2019-06-21T10:21:33Z</time>
      </trkpt>
      <trkpt lat="42.873897571116686" lon="13.242469495162368">
        <ele>1777.73</ele>
        <time>2019-06-21T10:21:46Z</time>
      </trkpt>
      <trkpt lat="42.873897571116686" lon="13.242466980591416">
        <ele>1777.72</ele>
        <time>2019-06-21T10:22:11Z</time>
      </trkpt>
      <trkpt lat="42.873901594430208" lon="13.242463460192084">
        <ele>1778.1199999999999</ele>
        <time>2019-06-21T10:22:37Z</time>
      </trkpt>
      <trkpt lat="42.873902851715684" lon="13.24246765114367">
        <ele>1777.98</ele>
        <time>2019-06-21T10:22:57Z</time>
      </trkpt>
      <trkpt lat="42.873900420963764" lon="13.242462957277894">
        <ele>1778.3</ele>
        <time>2019-06-21T10:23:23Z</time>
      </trkpt>
      <trkpt lat="42.87390117533505" lon="13.242460107430816">
        <ele>1778.48</ele>
        <time>2019-06-21T10:24:01Z</time>
      </trkpt>
      <trkpt lat="42.873901845887303" lon="13.242461616173387">
        <ele>1777.95</ele>
        <time>2019-06-21T10:24:39Z</time>
      </trkpt>
      <trkpt lat="42.873897487297654" lon="13.242467986419797">
        <ele>1777.95</ele>
        <time>2019-06-21T10:24:59Z</time>
      </trkpt>
      <trkpt lat="42.873903186991811" lon="13.242583656683564">
        <ele>1778.51</ele>
        <time>2019-06-21T10:25:12Z</time>
      </trkpt>
      <trkpt lat="42.873920202255249" lon="13.242756826803088">
        <ele>1779.71</ele>
        <time>2019-06-21T10:25:27Z</time>
      </trkpt>
      <trkpt lat="42.873977283015847" lon="13.242932427674532">
        <ele>1781.78</ele>
        <time>2019-06-21T10:25:47Z</time>
      </trkpt>
      <trkpt lat="42.874060599133372" lon="13.243040470406413">
        <ele>1783.8299999999999</ele>
        <time>2019-06-21T10:26:05Z</time>
      </trkpt>
      <trkpt lat="42.874151123687625" lon="13.243127390742302">
        <ele>1786.29</ele>
        <time>2019-06-21T10:26:24Z</time>
      </trkpt>
      <trkpt lat="42.874217927455902" lon="13.243197714909911">
        <ele>1787.97</ele>
        <time>2019-06-21T10:26:39Z</time>
      </trkpt>
      <trkpt lat="42.874288754537702" lon="13.243266446515918">
        <ele>1790.2</ele>
        <time>2019-06-21T10:26:55Z</time>
      </trkpt>
      <trkpt lat="42.874366035684943" lon="13.243377925828099">
        <ele>1792.4300000000001</ele>
        <time>2019-06-21T10:27:13Z</time>
      </trkpt>
      <trkpt lat="42.87444063462317" lon="13.243500301614404">
        <ele>1794.4400000000001</ele>
        <time>2019-06-21T10:27:30Z</time>
      </trkpt>
      <trkpt lat="42.874543899670243" lon="13.243627455085516">
        <ele>1796.2</ele>
        <time>2019-06-21T10:27:49Z</time>
      </trkpt>
      <trkpt lat="42.874658647924662" lon="13.243716470897198">
        <ele>1797.8699999999999</ele>
        <time>2019-06-21T10:28:08Z</time>
      </trkpt>
      <trkpt lat="42.874762080609798" lon="13.243779251351953">
        <ele>1799.4200000000001</ele>
        <time>2019-06-21T10:28:26Z</time>
      </trkpt>
      <trkpt lat="42.874841541051865" lon="13.243849743157625">
        <ele>1800.71</ele>
        <time>2019-06-21T10:28:41Z</time>
      </trkpt>
      <trkpt lat="42.874932903796434" lon="13.243944877758622">
        <ele>1802.9000000000001</ele>
        <time>2019-06-21T10:28:58Z</time>
      </trkpt>
      <trkpt lat="42.875022673979402" lon="13.24401319026947">
        <ele>1804.6900000000001</ele>
        <time>2019-06-21T10:29:14Z</time>
      </trkpt>
      <trkpt lat="42.875125436112285" lon="13.244098266586661">
        <ele>1806.5999999999999</ele>
        <time>2019-06-21T10:29:33Z</time>
      </trkpt>
      <trkpt lat="42.875228114426136" lon="13.244222151115537">
        <ele>1807.0799999999999</ele>
        <time>2019-06-21T10:29:50Z</time>
      </trkpt>
      <trkpt lat="42.875302545726299" lon="13.244279902428389">
        <ele>1808.8</ele>
        <time>2019-06-21T10:30:05Z</time>
      </trkpt>
      <trkpt lat="42.87532308138907" lon="13.244296750053763">
        <ele>1809.1400000000001</ele>
        <time>2019-06-21T10:30:16Z</time>
      </trkpt>
      <trkpt lat="42.875418635085225" lon="13.244360284879804">
        <ele>1809.4300000000001</ele>
        <time>2019-06-21T10:30:30Z</time>
      </trkpt>
      <trkpt lat="42.87551268003881" lon="13.244441170245409">
        <ele>1809.9100000000001</ele>
        <time>2019-06-21T10:30:44Z</time>
      </trkpt>
      <trkpt lat="42.875608652830124" lon="13.244493221864104">
        <ele>1810.6400000000001</ele>
        <time>2019-06-21T10:30:59Z</time>
      </trkpt>
      <trkpt lat="42.875715605914593" lon="13.244546614587307">
        <ele>1811.0699999999999</ele>
        <time>2019-06-21T10:31:13Z</time>
      </trkpt>
      <trkpt lat="42.875798586755991" lon="13.244587518274784">
        <ele>1811.05</ele>
        <time>2019-06-21T10:31:26Z</time>
      </trkpt>
      <trkpt lat="42.87586648017168" lon="13.24461174197495">
        <ele>1811.28</ele>
        <time>2019-06-21T10:31:34Z</time>
      </trkpt>
      <trkpt lat="42.876015678048134" lon="13.24464350938797">
        <ele>1811.51</ele>
        <time>2019-06-21T10:31:51Z</time>
      </trkpt>
      <trkpt lat="42.876168731600046" lon="13.244666559621692">
        <ele>1812.55</ele>
        <time>2019-06-21T10:32:10Z</time>
      </trkpt>
      <trkpt lat="42.876278702169657" lon="13.244662117213011">
        <ele>1813.01</ele>
        <time>2019-06-21T10:32:25Z</time>
      </trkpt>
      <trkpt lat="42.876387080177665" lon="13.244666811078787">
        <ele>1813.8</ele>
        <time>2019-06-21T10:32:39Z</time>
      </trkpt>
      <trkpt lat="42.876529740169644" lon="13.244716515764594">
        <ele>1813.3800000000001</ele>
        <time>2019-06-21T10:32:57Z</time>
      </trkpt>
      <trkpt lat="42.876564441248775" lon="13.244728669524193">
        <ele>1812.97</ele>
        <time>2019-06-21T10:33:07Z</time>
      </trkpt>
      <trkpt lat="42.876587910577655" lon="13.244738727807999">
        <ele>1813.47</ele>
        <time>2019-06-21T10:33:14Z</time>
      </trkpt>
      <trkpt lat="42.876670137047768" lon="13.244756245985627">
        <ele>1813.8099999999999</ele>
        <time>2019-06-21T10:33:24Z</time>
      </trkpt>
      <trkpt lat="42.876831153407693" lon="13.244839394465089">
        <ele>1812.6700000000001</ele>
        <time>2019-06-21T10:33:41Z</time>
      </trkpt>
      <trkpt lat="42.876950008794665" lon="13.244899660348892">
        <ele>1812.1300000000001</ele>
        <time>2019-06-21T10:33:54Z</time>
      </trkpt>
      <trkpt lat="42.877061571925879" lon="13.244985407218337">
        <ele>1810.47</ele>
        <time>2019-06-21T10:34:08Z</time>
      </trkpt>
      <trkpt lat="42.87716961465776" lon="13.245046595111489">
        <ele>1809.1700000000001</ele>
        <time>2019-06-21T10:34:24Z</time>
      </trkpt>
      <trkpt lat="42.877171793952584" lon="13.245034189894795">
        <ele>1809.3599999999999</ele>
        <time>2019-06-21T10:34:40Z</time>
      </trkpt>
      <trkpt lat="42.877177661284804" lon="13.245033603161573">
        <ele>1808.54</ele>
        <time>2019-06-21T10:34:54Z</time>
      </trkpt>
      <trkpt lat="42.877160059288144" lon="13.24503636918962">
        <ele>1808.5699999999999</ele>
        <time>2019-06-21T10:35:31Z</time>
      </trkpt>
      <trkpt lat="42.877152599394321" lon="13.245029663667083">
        <ele>1808.8099999999999</ele>
        <time>2019-06-21T10:36:14Z</time>
      </trkpt>
      <trkpt lat="42.877151174470782" lon="13.245030334219337">
        <ele>1808.8599999999999</ele>
        <time>2019-06-21T10:36:49Z</time>
      </trkpt>
      <trkpt lat="42.877150755375624" lon="13.245035782456398">
        <ele>1808.9100000000001</ele>
        <time>2019-06-21T10:37:19Z</time>
      </trkpt>
      <trkpt lat="42.877159137278795" lon="13.245035195723176">
        <ele>1809.03</ele>
        <time>2019-06-21T10:37:44Z</time>
      </trkpt>
      <trkpt lat="42.877159137278795" lon="13.245036117732525">
        <ele>1809.3599999999999</ele>
        <time>2019-06-21T10:38:17Z</time>
      </trkpt>
      <trkpt lat="42.877169363200665" lon="13.245040643960238">
        <ele>1809.47</ele>
        <time>2019-06-21T10:38:56Z</time>
      </trkpt>
      <trkpt lat="42.877155868336558" lon="13.245033519342542">
        <ele>1809.6900000000001</ele>
        <time>2019-06-21T10:39:33Z</time>
      </trkpt>
      <trkpt lat="42.877150336280465" lon="13.245045924559236">
        <ele>1809.7</ele>
        <time>2019-06-21T10:40:11Z</time>
      </trkpt>
      <trkpt lat="42.877145810052752" lon="13.245040811598301">
        <ele>1809.79</ele>
        <time>2019-06-21T10:40:47Z</time>
      </trkpt>
      <trkpt lat="42.877148408442736" lon="13.245032094419003">
        <ele>1810.0899999999999</ele>
        <time>2019-06-21T10:41:20Z</time>
      </trkpt>
      <trkpt lat="42.877145474776626" lon="13.245022874325514">
        <ele>1810.2</ele>
        <time>2019-06-21T10:42:02Z</time>
      </trkpt>
      <trkpt lat="42.877146396785975" lon="13.245024215430021">
        <ele>1810.3800000000001</ele>
        <time>2019-06-21T10:42:43Z</time>
      </trkpt>
      <trkpt lat="42.877149498090148" lon="13.245022371411324">
        <ele>1810.3699999999999</ele>
        <time>2019-06-21T10:43:21Z</time>
      </trkpt>
      <trkpt lat="42.877145893871784" lon="13.24502807110548">
        <ele>1810.8</ele>
        <time>2019-06-21T10:44:01Z</time>
      </trkpt>
      <trkpt lat="42.877152012661099" lon="13.245035950094461">
        <ele>1811.6800000000001</ele>
        <time>2019-06-21T10:44:11Z</time>
      </trkpt>
      <trkpt lat="42.877156957983971" lon="13.24503343552351">
        <ele>1812</ele>
        <time>2019-06-21T10:44:27Z</time>
      </trkpt>
      <trkpt lat="42.877188390120864" lon="13.245073752477765">
        <ele>1811.77</ele>
        <time>2019-06-21T10:44:37Z</time>
      </trkpt>
      <trkpt lat="42.877212446182966" lon="13.245109207928181">
        <ele>1810.5999999999999</ele>
        <time>2019-06-21T10:44:42Z</time>
      </trkpt>
      <trkpt lat="42.87730255164206" lon="13.245198894292116">
        <ele>1808.4200000000001</ele>
        <time>2019-06-21T10:44:56Z</time>
      </trkpt>
      <trkpt lat="42.877337336540222" lon="13.245235187932849">
        <ele>1808.46</ele>
        <time>2019-06-21T10:45:01Z</time>
      </trkpt>
      <trkpt lat="42.877364829182625" lon="13.245266703888774">
        <ele>1806.8299999999999</ele>
        <time>2019-06-21T10:45:05Z</time>
      </trkpt>
      <trkpt lat="42.877471027895808" lon="13.24534909799695">
        <ele>1805.3099999999999</ele>
        <time>2019-06-21T10:45:20Z</time>
      </trkpt>
      <trkpt lat="42.87757957354188" lon="13.245403664186597">
        <ele>1803.27</ele>
        <time>2019-06-21T10:45:35Z</time>
      </trkpt>
      <trkpt lat="42.87768267095089" lon="13.245406011119485">
        <ele>1801.78</ele>
        <time>2019-06-21T10:45:47Z</time>
      </trkpt>
      <trkpt lat="42.877788618206978" lon="13.245338704437017">
        <ele>1800.4400000000001</ele>
        <time>2019-06-21T10:46:00Z</time>
      </trkpt>
      <trkpt lat="42.877795659005642" lon="13.24533199891448">
        <ele>1800.29</ele>
        <time>2019-06-21T10:46:01Z</time>
      </trkpt>
      <trkpt lat="42.877810075879097" lon="13.245310625061393">
        <ele>1799.8299999999999</ele>
        <time>2019-06-21T10:46:03Z</time>
      </trkpt>
      <trkpt lat="42.877835053950548" lon="13.245287155732512">
        <ele>1799.6600000000001</ele>
        <time>2019-06-21T10:46:06Z</time>
      </trkpt>
      <trkpt lat="42.877968493849039" lon="13.245237451046705">
        <ele>1797.4100000000001</ele>
        <time>2019-06-21T10:46:21Z</time>
      </trkpt>
      <trkpt lat="42.878069914877415" lon="13.245152961462736">
        <ele>1795.3099999999999</ele>
        <time>2019-06-21T10:46:34Z</time>
      </trkpt>
      <trkpt lat="42.878106627613306" lon="13.245140472427011">
        <ele>1794.75</ele>
        <time>2019-06-21T10:46:46Z</time>
      </trkpt>
      <trkpt lat="42.878119787201285" lon="13.24513309635222">
        <ele>1795.3</ele>
        <time>2019-06-21T10:46:56Z</time>
      </trkpt>
      <trkpt lat="42.878225734457374" lon="13.245091857388616">
        <ele>1794.8</ele>
        <time>2019-06-21T10:47:09Z</time>
      </trkpt>
      <trkpt lat="42.878272840753198" lon="13.245056737214327">
        <ele>1794.3</ele>
        <time>2019-06-21T10:47:15Z</time>
      </trkpt>
      <trkpt lat="42.878398150205612" lon="13.245054557919502">
        <ele>1794.3800000000001</ele>
        <time>2019-06-21T10:47:29Z</time>
      </trkpt>
      <trkpt lat="42.878446849063039" lon="13.245050199329853">
        <ele>1793.96</ele>
        <time>2019-06-21T10:47:42Z</time>
      </trkpt>
      <trkpt lat="42.878415584564209" lon="13.245057491585612">
        <ele>1794.1199999999999</ele>
        <time>2019-06-21T10:47:48Z</time>
      </trkpt>
      <trkpt lat="42.878342913463712" lon="13.24512873776257">
        <ele>1792.4100000000001</ele>
        <time>2019-06-21T10:48:01Z</time>
      </trkpt>
      <trkpt lat="42.878304859623313" lon="13.24523476883769">
        <ele>1789.3299999999999</ele>
        <time>2019-06-21T10:48:14Z</time>
      </trkpt>
      <trkpt lat="42.878305613994598" lon="13.245270224288106">
        <ele>1788.5799999999999</ele>
        <time>2019-06-21T10:48:17Z</time>
      </trkpt>
      <trkpt lat="42.87831156514585" lon="13.24533199891448">
        <ele>1787.8900000000001</ele>
        <time>2019-06-21T10:48:22Z</time>
      </trkpt>
      <trkpt lat="42.878337884321809" lon="13.245446663349867">
        <ele>1786.5999999999999</ele>
        <time>2019-06-21T10:48:34Z</time>
      </trkpt>
      <trkpt lat="42.878357749432325" lon="13.245488321408629">
        <ele>1786.1199999999999</ele>
        <time>2019-06-21T10:48:48Z</time>
      </trkpt>
      <trkpt lat="42.878361940383911" lon="13.245497457683086">
        <ele>1785.97</ele>
        <time>2019-06-21T10:48:49Z</time>
      </trkpt>
      <trkpt lat="42.878425475209951" lon="13.245504833757877">
        <ele>1784.1700000000001</ele>
        <time>2019-06-21T10:49:01Z</time>
      </trkpt>
      <trkpt lat="42.878436790779233" lon="13.245499888435006">
        <ele>1783.4300000000001</ele>
        <time>2019-06-21T10:49:14Z</time>
      </trkpt>
      <trkpt lat="42.87848113104701" lon="13.245470970869064">
        <ele>1782.1199999999999</ele>
        <time>2019-06-21T10:49:27Z</time>
      </trkpt>
      <trkpt lat="42.878527985885739" lon="13.245436521247029">
        <ele>1781.03</ele>
        <time>2019-06-21T10:49:40Z</time>
      </trkpt>
      <trkpt lat="42.87861306220293" lon="13.245459822937846">
        <ele>1778.74</ele>
        <time>2019-06-21T10:49:56Z</time>
      </trkpt>
      <trkpt lat="42.878705095499754" lon="13.245431156829">
        <ele>1776.6600000000001</ele>
        <time>2019-06-21T10:50:07Z</time>
      </trkpt>
      <trkpt lat="42.878853036090732" lon="13.245418081060052">
        <ele>1773.79</ele>
        <time>2019-06-21T10:50:23Z</time>
      </trkpt>
      <trkpt lat="42.878976920619607" lon="13.245386229828">
        <ele>1771.0699999999999</ele>
        <time>2019-06-21T10:50:37Z</time>
      </trkpt>
      <trkpt lat="42.879103487357497" lon="13.245355887338519">
        <ele>1769.72</ele>
        <time>2019-06-21T10:50:52Z</time>
      </trkpt>
      <trkpt lat="42.87920574657619" lon="13.245326299220324">
        <ele>1766.8399999999999</ele>
        <time>2019-06-21T10:51:05Z</time>
      </trkpt>
      <trkpt lat="42.879275567829609" lon="13.245273996144533">
        <ele>1765.75</ele>
        <time>2019-06-21T10:51:13Z</time>
      </trkpt>
      <trkpt lat="42.87934941239655" lon="13.245277432724833">
        <ele>1763.9000000000001</ele>
        <time>2019-06-21T10:51:24Z</time>
      </trkpt>
      <trkpt lat="42.879481678828597" lon="13.245140891522169">
        <ele>1761.04</ele>
        <time>2019-06-21T10:51:42Z</time>
      </trkpt>
      <trkpt lat="42.879620231688023" lon="13.245089426636696">
        <ele>1758.55</ele>
        <time>2019-06-21T10:51:58Z</time>
      </trkpt>
      <trkpt lat="42.879773620516062" lon="13.245043242350221">
        <ele>1756.5</ele>
        <time>2019-06-21T10:52:14Z</time>
      </trkpt>
      <trkpt lat="42.879921058192849" lon="13.245071740821004">
        <ele>1753.46</ele>
        <time>2019-06-21T10:52:31Z</time>
      </trkpt>
      <trkpt lat="42.880028765648603" lon="13.245105436071754">
        <ele>1751.5</ele>
        <time>2019-06-21T10:52:46Z</time>
      </trkpt>
      <trkpt lat="42.88001929409802" lon="13.245145501568913">
        <ele>1749.72</ele>
        <time>2019-06-21T10:52:59Z</time>
      </trkpt>
      <trkpt lat="42.879942599684" lon="13.245212472975254">
        <ele>1746.72</ele>
        <time>2019-06-21T10:53:12Z</time>
      </trkpt>
      <trkpt lat="42.879934133961797" lon="13.245217418298125">
        <ele>1746.5799999999999</ele>
        <time>2019-06-21T10:53:13Z</time>
      </trkpt>
      <trkpt lat="42.879880657419562" lon="13.245253041386604">
        <ele>1745.6400000000001</ele>
        <time>2019-06-21T10:53:23Z</time>
      </trkpt>
      <trkpt lat="42.879825420677662" lon="13.245357563719153">
        <ele>1742.6300000000001</ele>
        <time>2019-06-21T10:53:37Z</time>
      </trkpt>
      <trkpt lat="42.879807399585843" lon="13.245484884828329">
        <ele>1739.03</ele>
        <time>2019-06-21T10:53:50Z</time>
      </trkpt>
      <trkpt lat="42.879807483404875" lon="13.245494021102786">
        <ele>1738.74</ele>
        <time>2019-06-21T10:53:51Z</time>
      </trkpt>
      <trkpt lat="42.879801699891686" lon="13.245614804327488">
        <ele>1735.52</ele>
        <time>2019-06-21T10:54:05Z</time>
      </trkpt>
      <trkpt lat="42.879787618294358" lon="13.245735755190253">
        <ele>1733.8699999999999</ele>
        <time>2019-06-21T10:54:19Z</time>
      </trkpt>
      <trkpt lat="42.879783930256963" lon="13.245748747140169">
        <ele>1733.3399999999999</ele>
        <time>2019-06-21T10:54:34Z</time>
      </trkpt>
      <trkpt lat="42.879774961620569" lon="13.245752016082406">
        <ele>1733.27</ele>
        <time>2019-06-21T10:54:53Z</time>
      </trkpt>
      <trkpt lat="42.879763813689351" lon="13.245743634179235">
        <ele>1733.1700000000001</ele>
        <time>2019-06-21T10:55:11Z</time>
      </trkpt>
      <trkpt lat="42.879823157563806" lon="13.245755536481738">
        <ele>1731.3099999999999</ele>
        <time>2019-06-21T10:55:24Z</time>
      </trkpt>
      <trkpt lat="42.879891050979495" lon="13.245706418529153">
        <ele>1728.79</ele>
        <time>2019-06-21T10:55:37Z</time>
      </trkpt>
      <trkpt lat="42.879972606897354" lon="13.245688984170556">
        <ele>1725.6900000000001</ele>
        <time>2019-06-21T10:55:49Z</time>
      </trkpt>
      <trkpt lat="42.880018791183829" lon="13.245675908401608">
        <ele>1724.6500000000001</ele>
        <time>2019-06-21T10:56:00Z</time>
      </trkpt>
      <trkpt lat="42.880102526396513" lon="13.245677417144179">
        <ele>1721.4000000000001</ele>
        <time>2019-06-21T10:56:11Z</time>
      </trkpt>
      <trkpt lat="42.880213670432568" lon="13.24563349597156">
        <ele>1718.76</ele>
        <time>2019-06-21T10:56:27Z</time>
      </trkpt>
      <trkpt lat="42.880279468372464" lon="13.2456124573946">
        <ele>1716.6900000000001</ele>
        <time>2019-06-21T10:56:39Z</time>
      </trkpt>
      <trkpt lat="42.880285670980811" lon="13.245707508176565">
        <ele>1714.2</ele>
        <time>2019-06-21T10:56:51Z</time>
      </trkpt>
      <trkpt lat="42.880280138924718" lon="13.245813539251685">
        <ele>1711.0799999999999</ele>
        <time>2019-06-21T10:57:01Z</time>
      </trkpt>
      <trkpt lat="42.880269074812531" lon="13.24584748595953">
        <ele>1710.78</ele>
        <time>2019-06-21T10:57:11Z</time>
      </trkpt>
      <trkpt lat="42.880225153639913" lon="13.245979668572545">
        <ele>1708.1700000000001</ele>
        <time>2019-06-21T10:57:25Z</time>
      </trkpt>
      <trkpt lat="42.880154997110367" lon="13.246079999953508">
        <ele>1705.9300000000001</ele>
        <time>2019-06-21T10:57:37Z</time>
      </trkpt>
      <trkpt lat="42.880151309072971" lon="13.24612308293581">
        <ele>1704.6700000000001</ele>
        <time>2019-06-21T10:57:48Z</time>
      </trkpt>
      <trkpt lat="42.880179472267628" lon="13.246131129562855">
        <ele>1704.04</ele>
        <time>2019-06-21T10:57:59Z</time>
      </trkpt>
      <trkpt lat="42.880223728716373" lon="13.246214278042316">
        <ele>1700.9400000000001</ele>
        <time>2019-06-21T10:58:13Z</time>
      </trkpt>
      <trkpt lat="42.880267566069961" lon="13.246267503127456">
        <ele>1698.75</ele>
        <time>2019-06-21T10:58:25Z</time>
      </trkpt>
      <trkpt lat="42.88025826215744" lon="13.246298851445317">
        <ele>1697.76</ele>
        <time>2019-06-21T10:58:37Z</time>
      </trkpt>
      <trkpt lat="42.880240995436907" lon="13.246303629130125">
        <ele>1697.71</ele>
        <time>2019-06-21T10:58:54Z</time>
      </trkpt>
      <trkpt lat="42.880276199430227" lon="13.246341850608587">
        <ele>1696.6800000000001</ele>
        <time>2019-06-21T10:59:05Z</time>
      </trkpt>
      <trkpt lat="42.880296818912029" lon="13.2463498134166">
        <ele>1696.4000000000001</ele>
        <time>2019-06-21T10:59:15Z</time>
      </trkpt>
      <trkpt lat="42.880341913551092" lon="13.246355261653662">
        <ele>1695.47</ele>
        <time>2019-06-21T10:59:24Z</time>
      </trkpt>
      <trkpt lat="42.880406957119703" lon="13.246359201148152">
        <ele>1694.22</ele>
        <time>2019-06-21T10:59:35Z</time>
      </trkpt>
      <trkpt lat="42.880445010960102" lon="13.246354339644313">
        <ele>1694.3099999999999</ele>
        <time>2019-06-21T10:59:49Z</time>
      </trkpt>
      <trkpt lat="42.880458338186145" lon="13.2463463768363">
        <ele>1693.7</ele>
        <time>2019-06-21T11:00:02Z</time>
      </trkpt>
      <trkpt lat="42.880470491945744" lon="13.2463498134166">
        <ele>1694.0599999999999</ele>
        <time>2019-06-21T11:00:19Z</time>
      </trkpt>
      <trkpt lat="42.880483735352755" lon="13.246370851993561">
        <ele>1692.24</ele>
        <time>2019-06-21T11:00:34Z</time>
      </trkpt>
      <trkpt lat="42.880488177761436" lon="13.246358362957835">
        <ele>1691.8900000000001</ele>
        <time>2019-06-21T11:00:53Z</time>
      </trkpt>
      <trkpt lat="42.880500750616193" lon="13.246361296623945">
        <ele>1691.28</ele>
        <time>2019-06-21T11:01:15Z</time>
      </trkpt>
      <trkpt lat="42.880500331521034" lon="13.246363056823611">
        <ele>1693.8800000000001</ele>
        <time>2019-06-21T11:01:18Z</time>
      </trkpt>
      <trkpt lat="42.880565710365772" lon="13.246355848386884">
        <ele>1692.1900000000001</ele>
        <time>2019-06-21T11:01:30Z</time>
      </trkpt>
      <trkpt lat="42.880512569099665" lon="13.24634880758822">
        <ele>1692.03</ele>
        <time>2019-06-21T11:01:43Z</time>
      </trkpt>
      <trkpt lat="42.880487088114023" lon="13.24635224416852">
        <ele>1692.5899999999999</ele>
        <time>2019-06-21T11:01:53Z</time>
      </trkpt>
      <trkpt lat="42.880478873848915" lon="13.24635274708271">
        <ele>1693.71</ele>
        <time>2019-06-21T11:02:04Z</time>
      </trkpt>
      <trkpt lat="42.880472922697663" lon="13.246357273310423">
        <ele>1693.74</ele>
        <time>2019-06-21T11:02:05Z</time>
      </trkpt>
      <trkpt lat="42.880456745624542" lon="13.246367918327451">
        <ele>1692.3699999999999</ele>
        <time>2019-06-21T11:02:18Z</time>
      </trkpt>
      <trkpt lat="42.880470994859934" lon="13.24634880758822">
        <ele>1692.9400000000001</ele>
        <time>2019-06-21T11:02:26Z</time>
      </trkpt>
      <trkpt lat="42.880452303215861" lon="13.246360961347818">
        <ele>1693.23</ele>
        <time>2019-06-21T11:02:45Z</time>
      </trkpt>
      <trkpt lat="42.880432857200503" lon="13.246330032125115">
        <ele>1693.9000000000001</ele>
        <time>2019-06-21T11:03:01Z</time>
      </trkpt>
      <trkpt lat="42.880420284345746" lon="13.246336234733462">
        <ele>1693.99</ele>
        <time>2019-06-21T11:03:20Z</time>
      </trkpt>
      <trkpt lat="42.880415171384811" lon="13.246338916942477">
        <ele>1694.6400000000001</ele>
        <time>2019-06-21T11:03:36Z</time>
      </trkpt>
      <trkpt lat="42.880421373993158" lon="13.246337659657001">
        <ele>1693.99</ele>
        <time>2019-06-21T11:03:55Z</time>
      </trkpt>
      <trkpt lat="42.880440149456263" lon="13.246337324380875">
        <ele>1694.1199999999999</ele>
        <time>2019-06-21T11:04:06Z</time>
      </trkpt>
      <trkpt lat="42.880465462803841" lon="13.246353333815932">
        <ele>1694.03</ele>
        <time>2019-06-21T11:04:24Z</time>
      </trkpt>
      <trkpt lat="42.880446435883641" lon="13.246342018246651">
        <ele>1694.3499999999999</ele>
        <time>2019-06-21T11:04:40Z</time>
      </trkpt>
      <trkpt lat="42.880428079515696" lon="13.246325086802244">
        <ele>1694.5999999999999</ele>
        <time>2019-06-21T11:05:00Z</time>
      </trkpt>
      <trkpt lat="42.880415339022875" lon="13.24632441624999">
        <ele>1694.6900000000001</ele>
        <time>2019-06-21T11:05:26Z</time>
      </trkpt>
      <trkpt lat="42.880428414791822" lon="13.246337659657001">
        <ele>1694.9200000000001</ele>
        <time>2019-06-21T11:05:50Z</time>
      </trkpt>
      <trkpt lat="42.880444172769785" lon="13.246414186432958">
        <ele>1693.6500000000001</ele>
        <time>2019-06-21T11:06:02Z</time>
      </trkpt>
      <trkpt lat="42.880435455590487" lon="13.246538741514087">
        <ele>1692.3800000000001</ele>
        <time>2019-06-21T11:06:14Z</time>
      </trkpt>
      <trkpt lat="42.88040435872972" lon="13.246691459789872">
        <ele>1690.1600000000001</ele>
        <time>2019-06-21T11:06:28Z</time>
      </trkpt>
      <trkpt lat="42.880411315709352" lon="13.246803693473339">
        <ele>1688.9000000000001</ele>
        <time>2019-06-21T11:06:40Z</time>
      </trkpt>
      <trkpt lat="42.880366137251258" lon="13.24683696962893">
        <ele>1687.3800000000001</ele>
        <time>2019-06-21T11:06:52Z</time>
      </trkpt>
      <trkpt lat="42.880344931036234" lon="13.246883992105722">
        <ele>1686.8299999999999</ele>
        <time>2019-06-21T11:06:57Z</time>
      </trkpt>
      <trkpt lat="42.880343925207853" lon="13.247076608240604">
        <ele>1684.0599999999999</ele>
        <time>2019-06-21T11:07:13Z</time>
      </trkpt>
      <trkpt lat="42.880337219685316" lon="13.247147519141436">
        <ele>1683.3</ele>
        <time>2019-06-21T11:07:25Z</time>
      </trkpt>
      <trkpt lat="42.880328167229891" lon="13.24715992435813">
        <ele>1683.03</ele>
        <time>2019-06-21T11:07:27Z</time>
      </trkpt>
      <trkpt lat="42.880328837782145" lon="13.247261513024569">
        <ele>1681.54</ele>
        <time>2019-06-21T11:07:41Z</time>
      </trkpt>
      <trkpt lat="42.880351636558771" lon="13.247249610722065">
        <ele>1681.71</ele>
        <time>2019-06-21T11:07:48Z</time>
      </trkpt>
      <trkpt lat="42.880426906049252" lon="13.247321275994182">
        <ele>1678.22</ele>
        <time>2019-06-21T11:08:01Z</time>
      </trkpt>
      <trkpt lat="42.880463618785143" lon="13.247413141652942">
        <ele>1677.74</ele>
        <time>2019-06-21T11:08:12Z</time>
      </trkpt>
      <trkpt lat="42.880505276843905" lon="13.247331585735083">
        <ele>1675.72</ele>
        <time>2019-06-21T11:08:23Z</time>
      </trkpt>
      <trkpt lat="42.880509300157428" lon="13.247320856899023">
        <ele>1675.46</ele>
        <time>2019-06-21T11:08:24Z</time>
      </trkpt>
      <trkpt lat="42.880570404231548" lon="13.247185489162803">
        <ele>1673.3499999999999</ele>
        <time>2019-06-21T11:08:38Z</time>
      </trkpt>
      <trkpt lat="42.880700407549739" lon="13.247157074511051">
        <ele>1672.25</ele>
        <time>2019-06-21T11:08:53Z</time>
      </trkpt>
      <trkpt lat="42.88079135119915" lon="13.247141735628247">
        <ele>1671.8099999999999</ele>
        <time>2019-06-21T11:09:06Z</time>
      </trkpt>
      <trkpt lat="42.880882797762752" lon="13.247185908257961">
        <ele>1669.24</ele>
        <time>2019-06-21T11:09:19Z</time>
      </trkpt>
      <trkpt lat="42.880995366722345" lon="13.247227733954787">
        <ele>1667.01</ele>
        <time>2019-06-21T11:09:33Z</time>
      </trkpt>
      <trkpt lat="42.88106988184154" lon="13.247236870229244">
        <ele>1665.0699999999999</ele>
        <time>2019-06-21T11:09:45Z</time>
      </trkpt>
      <trkpt lat="42.881139283999801" lon="13.247254053130746">
        <ele>1663.1300000000001</ele>
        <time>2019-06-21T11:09:56Z</time>
      </trkpt>
      <trkpt lat="42.88116317242384" lon="13.24727333150804">
        <ele>1662.9100000000001</ele>
        <time>2019-06-21T11:09:59Z</time>
      </trkpt>
      <trkpt lat="42.881293259561062" lon="13.247383302077651">
        <ele>1662.1400000000001</ele>
        <time>2019-06-21T11:10:15Z</time>
      </trkpt>
      <trkpt lat="42.881333995610476" lon="13.247422445565462">
        <ele>1661.73</ele>
        <time>2019-06-21T11:10:26Z</time>
      </trkpt>
      <trkpt lat="42.881446396932006" lon="13.247497044503689">
        <ele>1660.1900000000001</ele>
        <time>2019-06-21T11:10:40Z</time>
      </trkpt>
      <trkpt lat="42.881467938423157" lon="13.247503079473972">
        <ele>1660.1900000000001</ele>
        <time>2019-06-21T11:10:43Z</time>
      </trkpt>
      <trkpt lat="42.881602132692933" lon="13.247523112222552">
        <ele>1657.8099999999999</ele>
        <time>2019-06-21T11:10:59Z</time>
      </trkpt>
      <trkpt lat="42.881722245365381" lon="13.247600393369794">
        <ele>1656.2</ele>
        <time>2019-06-21T11:11:15Z</time>
      </trkpt>
      <trkpt lat="42.881731130182743" lon="13.247595867142081">
        <ele>1656.0899999999999</ele>
        <time>2019-06-21T11:11:16Z</time>
      </trkpt>
      <trkpt lat="42.881806567311287" lon="13.247539289295673">
        <ele>1654.25</ele>
        <time>2019-06-21T11:11:26Z</time>
      </trkpt>
      <trkpt lat="42.881869850680232" lon="13.247505174949765">
        <ele>1652.48</ele>
        <time>2019-06-21T11:11:33Z</time>
      </trkpt>
      <trkpt lat="42.881970517337322" lon="13.247562339529395">
        <ele>1651.03</ele>
        <time>2019-06-21T11:11:45Z</time>
      </trkpt>
      <trkpt lat="42.881995495408773" lon="13.247583378106356">
        <ele>1650.95</ele>
        <time>2019-06-21T11:11:48Z</time>
      </trkpt>
      <trkpt lat="42.882140083238482" lon="13.24768178164959">
        <ele>1648.76</ele>
        <time>2019-06-21T11:12:04Z</time>
      </trkpt>
      <trkpt lat="42.882246617227793" lon="13.247739197686315">
        <ele>1648.21</ele>
        <time>2019-06-21T11:12:16Z</time>
      </trkpt>
      <trkpt lat="42.882386175915599" lon="13.247836176306009">
        <ele>1647.53</ele>
        <time>2019-06-21T11:12:31Z</time>
      </trkpt>
      <trkpt lat="42.88249078206718" lon="13.247967017814517">
        <ele>1646.0599999999999</ele>
        <time>2019-06-21T11:12:46Z</time>
      </trkpt>
      <trkpt lat="42.882609385997057" lon="13.248045472428203">
        <ele>1644.4100000000001</ele>
        <time>2019-06-21T11:13:00Z</time>
      </trkpt>
      <trkpt lat="42.88263151422143" lon="13.248033905401826">
        <ele>1643.9400000000001</ele>
        <time>2019-06-21T11:13:10Z</time>
      </trkpt>
      <trkpt lat="42.882642829790711" lon="13.248038683086634">
        <ele>1643.8</ele>
        <time>2019-06-21T11:13:25Z</time>
      </trkpt>
      <trkpt lat="42.882651798427105" lon="13.248025691136718">
        <ele>1644.51</ele>
        <time>2019-06-21T11:13:46Z</time>
      </trkpt>
      <trkpt lat="42.88269211538136" lon="13.247981769964099">
        <ele>1643.25</ele>
        <time>2019-06-21T11:13:55Z</time>
      </trkpt>
      <trkpt lat="42.882708040997386" lon="13.247911864891648">
        <ele>1642.76</ele>
        <time>2019-06-21T11:14:02Z</time>
      </trkpt>
      <trkpt lat="42.882710807025433" lon="13.247871631756425">
        <ele>1642.5</ele>
        <time>2019-06-21T11:14:05Z</time>
      </trkpt>
      <trkpt lat="42.882804432883859" lon="13.247733749449253">
        <ele>1639.75</ele>
        <time>2019-06-21T11:14:19Z</time>
      </trkpt>
      <trkpt lat="42.882898394018412" lon="13.247740035876632">
        <ele>1638.1500000000001</ele>
        <time>2019-06-21T11:14:30Z</time>
      </trkpt>
      <trkpt lat="42.882906692102551" lon="13.247735006734729">
        <ele>1637.96</ele>
        <time>2019-06-21T11:14:31Z</time>
      </trkpt>
      <trkpt lat="42.882937202230096" lon="13.247748920693994">
        <ele>1637.52</ele>
        <time>2019-06-21T11:14:35Z</time>
      </trkpt>
      <trkpt lat="42.883018087595701" lon="13.247866267338395">
        <ele>1635.4400000000001</ele>
        <time>2019-06-21T11:14:48Z</time>
      </trkpt>
      <trkpt lat="42.883080868050456" lon="13.247984116896987">
        <ele>1633.6099999999999</ele>
        <time>2019-06-21T11:15:01Z</time>
      </trkpt>
      <trkpt lat="42.883058153092861" lon="13.248070701956749">
        <ele>1632.6900000000001</ele>
        <time>2019-06-21T11:15:11Z</time>
      </trkpt>
      <trkpt lat="42.883091932162642" lon="13.248220821842551">
        <ele>1630.73</ele>
        <time>2019-06-21T11:15:25Z</time>
      </trkpt>
      <trkpt lat="42.883161418139935" lon="13.248330373317003">
        <ele>1630</ele>
        <time>2019-06-21T11:15:41Z</time>
      </trkpt>
      <trkpt lat="42.883173320442438" lon="13.248339761048555">
        <ele>1629.6500000000001</ele>
        <time>2019-06-21T11:15:44Z</time>
      </trkpt>
      <trkpt lat="42.883255714550614" lon="13.248484181240201">
        <ele>1628.1099999999999</ele>
        <time>2019-06-21T11:15:59Z</time>
      </trkpt>
      <trkpt lat="42.883296282961965" lon="13.24858920648694">
        <ele>1626.5599999999999</ele>
        <time>2019-06-21T11:16:13Z</time>
      </trkpt>
      <trkpt lat="42.883332492783666" lon="13.248635055497289">
        <ele>1626.05</ele>
        <time>2019-06-21T11:16:19Z</time>
      </trkpt>
      <trkpt lat="42.883424777537584" lon="13.248764974996448">
        <ele>1623.76</ele>
        <time>2019-06-21T11:16:34Z</time>
      </trkpt>
      <trkpt lat="42.88345729932189" lon="13.24889313429594">
        <ele>1620.73</ele>
        <time>2019-06-21T11:16:47Z</time>
      </trkpt>
      <trkpt lat="42.883484289050102" lon="13.248976282775402">
        <ele>1618.01</ele>
        <time>2019-06-21T11:16:57Z</time>
      </trkpt>
      <trkpt lat="42.883494179695845" lon="13.249007547274232">
        <ele>1616.6800000000001</ele>
        <time>2019-06-21T11:17:02Z</time>
      </trkpt>
      <trkpt lat="42.883514212444425" lon="13.249046690762043">
        <ele>1615.1600000000001</ele>
        <time>2019-06-21T11:17:13Z</time>
      </trkpt>
      <trkpt lat="42.883527791127563" lon="13.249144088476896">
        <ele>1612.79</ele>
        <time>2019-06-21T11:17:24Z</time>
      </trkpt>
      <trkpt lat="42.883567353710532" lon="13.249238049611449">
        <ele>1609.9300000000001</ele>
        <time>2019-06-21T11:17:36Z</time>
      </trkpt>
      <trkpt lat="42.883583027869463" lon="13.249354138970375">
        <ele>1606.8199999999999</ele>
        <time>2019-06-21T11:17:47Z</time>
      </trkpt>
      <trkpt lat="42.883567688986659" lon="13.249475844204426">
        <ele>1603.6400000000001</ele>
        <time>2019-06-21T11:17:59Z</time>
      </trkpt>
      <trkpt lat="42.883543046191335" lon="13.249560501426458">
        <ele>1601.9000000000001</ele>
        <time>2019-06-21T11:18:10Z</time>
      </trkpt>
      <trkpt lat="42.883530138060451" lon="13.249591765925288">
        <ele>1600.24</ele>
        <time>2019-06-21T11:18:14Z</time>
      </trkpt>
      <trkpt lat="42.883520750328898" lon="13.2495825458318">
        <ele>1599.49</ele>
        <time>2019-06-21T11:18:27Z</time>
      </trkpt>
      <trkpt lat="42.883434249088168" lon="13.249646751210093">
        <ele>1597.04</ele>
        <time>2019-06-21T11:18:39Z</time>
      </trkpt>
      <trkpt lat="42.883385550230742" lon="13.249694779515266">
        <ele>1593.99</ele>
        <time>2019-06-21T11:18:47Z</time>
      </trkpt>
      <trkpt lat="42.883329056203365" lon="13.249795194715261">
        <ele>1592.1400000000001</ele>
        <time>2019-06-21T11:18:59Z</time>
      </trkpt>
      <trkpt lat="42.883322769775987" lon="13.249871386215091">
        <ele>1590.26</ele>
        <time>2019-06-21T11:19:07Z</time>
      </trkpt>
      <trkpt lat="42.88329117000103" lon="13.249979764223099">
        <ele>1587.1300000000001</ele>
        <time>2019-06-21T11:19:20Z</time>
      </trkpt>
      <trkpt lat="42.883298629894853" lon="13.250109516084194">
        <ele>1584.0899999999999</ele>
        <time>2019-06-21T11:19:33Z</time>
      </trkpt>
      <trkpt lat="42.88327457383275" lon="13.250213200226426">
        <ele>1580.9400000000001</ele>
        <time>2019-06-21T11:19:45Z</time>
      </trkpt>
      <trkpt lat="42.883265018463135" lon="13.250308921560645">
        <ele>1578.8900000000001</ele>
        <time>2019-06-21T11:19:57Z</time>
      </trkpt>
      <trkpt lat="42.883251272141933" lon="13.250305317342281">
        <ele>1578.4200000000001</ele>
        <time>2019-06-21T11:20:13Z</time>
      </trkpt>
      <trkpt lat="42.883244231343269" lon="13.250297857448459">
        <ele>1577.8599999999999</ele>
        <time>2019-06-21T11:20:28Z</time>
      </trkpt>
      <trkpt lat="42.883244901895523" lon="13.250301964581013">
        <ele>1577.8800000000001</ele>
        <time>2019-06-21T11:20:41Z</time>
      </trkpt>
      <trkpt lat="42.883249763399363" lon="13.250380754470825">
        <ele>1576.9000000000001</ele>
        <time>2019-06-21T11:20:56Z</time>
      </trkpt>
      <trkpt lat="42.883244147524238" lon="13.250403720885515">
        <ele>1576.5799999999999</ele>
        <time>2019-06-21T11:20:58Z</time>
      </trkpt>
      <trkpt lat="42.883234089240432" lon="13.250569766387343">
        <ele>1574.46</ele>
        <time>2019-06-21T11:21:13Z</time>
      </trkpt>
      <trkpt lat="42.883218582719564" lon="13.250620644539595">
        <ele>1572.6600000000001</ele>
        <time>2019-06-21T11:21:25Z</time>
      </trkpt>
      <trkpt lat="42.883221013471484" lon="13.250616872683167">
        <ele>1572.1300000000001</ele>
        <time>2019-06-21T11:21:44Z</time>
      </trkpt>
      <trkpt lat="42.883223947137594" lon="13.250685688108206">
        <ele>1570.6199999999999</ele>
        <time>2019-06-21T11:21:54Z</time>
      </trkpt>
      <trkpt lat="42.883224282413721" lon="13.250693315640092">
        <ele>1570.55</ele>
        <time>2019-06-21T11:21:55Z</time>
      </trkpt>
      <trkpt lat="42.883155466988683" lon="13.250735141336918">
        <ele>1567.6500000000001</ele>
        <time>2019-06-21T11:22:07Z</time>
      </trkpt>
      <trkpt lat="42.883124286308885" lon="13.250692645087838">
        <ele>1567.1500000000001</ele>
        <time>2019-06-21T11:22:17Z</time>
      </trkpt>
      <trkpt lat="42.883110623806715" lon="13.250661715865135">
        <ele>1566.48</ele>
        <time>2019-06-21T11:22:23Z</time>
      </trkpt>
      <trkpt lat="42.883026385679841" lon="13.250495251268148">
        <ele>1564.74</ele>
        <time>2019-06-21T11:22:37Z</time>
      </trkpt>
      <trkpt lat="42.883021691814065" lon="13.250482007861137">
        <ele>1564.6500000000001</ele>
        <time>2019-06-21T11:22:38Z</time>
      </trkpt>
      <trkpt lat="42.882942566648126" lon="13.250424088910222">
        <ele>1563.3099999999999</ele>
        <time>2019-06-21T11:22:49Z</time>
      </trkpt>
      <trkpt lat="42.882826644927263" lon="13.250421322882175">
        <ele>1560.45</ele>
        <time>2019-06-21T11:23:02Z</time>
      </trkpt>
      <trkpt lat="42.882769983261824" lon="13.250516122207046">
        <ele>1559.1500000000001</ele>
        <time>2019-06-21T11:23:14Z</time>
      </trkpt>
      <trkpt lat="42.88265448063612" lon="13.250559037551284">
        <ele>1555.26</ele>
        <time>2019-06-21T11:23:28Z</time>
      </trkpt>
      <trkpt lat="42.882541241124272" lon="13.250582842156291">
        <ele>1552.1500000000001</ele>
        <time>2019-06-21T11:23:44Z</time>
      </trkpt>
      <trkpt lat="42.882493045181036" lon="13.250575801357627">
        <ele>1551.22</ele>
        <time>2019-06-21T11:23:57Z</time>
      </trkpt>
      <trkpt lat="42.882432695478201" lon="13.250599354505539">
        <ele>1550.05</ele>
        <time>2019-06-21T11:24:07Z</time>
      </trkpt>
      <trkpt lat="42.882427666336298" lon="13.250606143847108">
        <ele>1549.79</ele>
        <time>2019-06-21T11:24:08Z</time>
      </trkpt>
      <trkpt lat="42.882396401837468" lon="13.25063900090754">
        <ele>1548.6700000000001</ele>
        <time>2019-06-21T11:24:19Z</time>
      </trkpt>
      <trkpt lat="42.882403777912259" lon="13.250645454972982">
        <ele>1548.8800000000001</ele>
        <time>2019-06-21T11:24:41Z</time>
      </trkpt>
      <trkpt lat="42.882434707134962" lon="13.25069029815495">
        <ele>1547.6700000000001</ele>
        <time>2019-06-21T11:24:51Z</time>
      </trkpt>
      <trkpt lat="42.882442502304912" lon="13.250695327296853">
        <ele>1547.3900000000001</ele>
        <time>2019-06-21T11:24:52Z</time>
      </trkpt>
      <trkpt lat="42.882516011595726" lon="13.250767327845097">
        <ele>1546.45</ele>
        <time>2019-06-21T11:25:03Z</time>
      </trkpt>
      <trkpt lat="42.882521962746978" lon="13.250775458291173">
        <ele>1546.4200000000001</ele>
        <time>2019-06-21T11:25:04Z</time>
      </trkpt>
      <trkpt lat="42.882620366290212" lon="13.250887859612703">
        <ele>1544.8099999999999</ele>
        <time>2019-06-21T11:25:18Z</time>
      </trkpt>
      <trkpt lat="42.882715752348304" lon="13.250931445509195">
        <ele>1544.1300000000001</ele>
        <time>2019-06-21T11:25:31Z</time>
      </trkpt>
      <trkpt lat="42.882773838937283" lon="13.251007385551929">
        <ele>1543.2</ele>
        <time>2019-06-21T11:25:42Z</time>
      </trkpt>
      <trkpt lat="42.882780293002725" lon="13.251018030568957">
        <ele>1543.2</ele>
        <time>2019-06-21T11:25:43Z</time>
      </trkpt>
      <trkpt lat="42.882799906656146" lon="13.251049546524882">
        <ele>1542.6800000000001</ele>
        <time>2019-06-21T11:25:46Z</time>
      </trkpt>
      <trkpt lat="42.882827231660485" lon="13.251118026673794">
        <ele>1541.97</ele>
        <time>2019-06-21T11:25:52Z</time>
      </trkpt>
      <trkpt lat="42.882904512807727" lon="13.251254903152585">
        <ele>1541.01</ele>
        <time>2019-06-21T11:26:04Z</time>
      </trkpt>
      <trkpt lat="42.8830009046942" lon="13.251390857622027">
        <ele>1540.24</ele>
        <time>2019-06-21T11:26:19Z</time>
      </trkpt>
      <trkpt lat="42.883122358471155" lon="13.251538211479783">
        <ele>1538.7</ele>
        <time>2019-06-21T11:26:34Z</time>
      </trkpt>
      <trkpt lat="42.883212799206376" lon="13.251631837338209">
        <ele>1539.5799999999999</ele>
        <time>2019-06-21T11:26:47Z</time>
      </trkpt>
      <trkpt lat="42.883296953514218" lon="13.251752955839038">
        <ele>1537.8</ele>
        <time>2019-06-21T11:27:01Z</time>
      </trkpt>
      <trkpt lat="42.883380521088839" lon="13.251854460686445">
        <ele>1536.5599999999999</ele>
        <time>2019-06-21T11:27:12Z</time>
      </trkpt>
      <trkpt lat="42.883493844419718" lon="13.251904752105474">
        <ele>1536.49</ele>
        <time>2019-06-21T11:27:26Z</time>
      </trkpt>
      <trkpt lat="42.883621333166957" lon="13.251942219212651">
        <ele>1537.5</ele>
        <time>2019-06-21T11:27:42Z</time>
      </trkpt>
      <trkpt lat="42.883695177733898" lon="13.252017740160227">
        <ele>1536.8299999999999</ele>
        <time>2019-06-21T11:27:54Z</time>
      </trkpt>
      <trkpt lat="42.883780673146248" lon="13.252099379897118">
        <ele>1537.45</ele>
        <time>2019-06-21T11:28:06Z</time>
      </trkpt>
      <trkpt lat="42.883869269862771" lon="13.252257127314806">
        <ele>1536.97</ele>
        <time>2019-06-21T11:28:24Z</time>
      </trkpt>
      <trkpt lat="42.883975049480796" lon="13.252259977161884">
        <ele>1534.77</ele>
        <time>2019-06-21T11:28:39Z</time>
      </trkpt>
      <trkpt lat="42.883937163278461" lon="13.252314375713468">
        <ele>1535.4000000000001</ele>
        <time>2019-06-21T11:28:53Z</time>
      </trkpt>
      <trkpt lat="42.883980413898826" lon="13.25232426635921">
        <ele>1534.47</ele>
        <time>2019-06-21T11:29:10Z</time>
      </trkpt>
      <trkpt lat="42.884011259302497" lon="13.252331893891096">
        <ele>1534.3099999999999</ele>
        <time>2019-06-21T11:29:17Z</time>
      </trkpt>
      <trkpt lat="42.884046547114849" lon="13.252301048487425">
        <ele>1534.26</ele>
        <time>2019-06-21T11:29:21Z</time>
      </trkpt>
      <trkpt lat="42.884140927344561" lon="13.25223776511848">
        <ele>1533.9100000000001</ele>
        <time>2019-06-21T11:29:39Z</time>
      </trkpt>
      <trkpt lat="42.884272104129195" lon="13.252188228070736">
        <ele>1532.6400000000001</ele>
        <time>2019-06-21T11:29:54Z</time>
      </trkpt>
      <trkpt lat="42.884319210425019" lon="13.252119915559888">
        <ele>1531.73</ele>
        <time>2019-06-21T11:30:01Z</time>
      </trkpt>
      <trkpt lat="42.884430522099137" lon="13.252007933333516">
        <ele>1531.0799999999999</ele>
        <time>2019-06-21T11:30:15Z</time>
      </trkpt>
      <trkpt lat="42.884518029168248" lon="13.251951187849045">
        <ele>1531.3499999999999</ele>
        <time>2019-06-21T11:30:25Z</time>
      </trkpt>
      <trkpt lat="42.884614923968911" lon="13.251889748498797">
        <ele>1532.55</ele>
        <time>2019-06-21T11:30:37Z</time>
      </trkpt>
      <trkpt lat="42.884718021377921" lon="13.251853287220001">
        <ele>1532.9000000000001</ele>
        <time>2019-06-21T11:30:50Z</time>
      </trkpt>
      <trkpt lat="42.884769486263394" lon="13.251829398795962">
        <ele>1532.73</ele>
        <time>2019-06-21T11:30:57Z</time>
      </trkpt>
      <trkpt lat="42.884807540103793" lon="13.251788327470422">
        <ele>1532.5</ele>
        <time>2019-06-21T11:31:01Z</time>
      </trkpt>
      <trkpt lat="42.884886916726828" lon="13.251725630834699">
        <ele>1532.6300000000001</ele>
        <time>2019-06-21T11:31:14Z</time>
      </trkpt>
      <trkpt lat="42.884997138753533" lon="13.251699144020677">
        <ele>1533.6700000000001</ele>
        <time>2019-06-21T11:31:27Z</time>
      </trkpt>
      <trkpt lat="42.885083137080073" lon="13.251659078523517">
        <ele>1533.0999999999999</ele>
        <time>2019-06-21T11:31:37Z</time>
      </trkpt>
      <trkpt lat="42.885237112641335" lon="13.251532008871436">
        <ele>1531.25</ele>
        <time>2019-06-21T11:31:55Z</time>
      </trkpt>
      <trkpt lat="42.885393435135484" lon="13.251425810158253">
        <ele>1529.3199999999999</ele>
        <time>2019-06-21T11:32:11Z</time>
      </trkpt>
      <trkpt lat="42.885561911389232" lon="13.251317935064435">
        <ele>1528.3199999999999</ele>
        <time>2019-06-21T11:32:28Z</time>
      </trkpt>
      <trkpt lat="42.885681102052331" lon="13.251332938671112">
        <ele>1529.52</ele>
        <time>2019-06-21T11:32:43Z</time>
      </trkpt>
      <trkpt lat="42.88575192913413" lon="13.251393372192979">
        <ele>1530.9100000000001</ele>
        <time>2019-06-21T11:32:55Z</time>
      </trkpt>
      <trkpt lat="42.88580616004765" lon="13.251428576186299">
        <ele>1530.6900000000001</ele>
        <time>2019-06-21T11:33:06Z</time>
      </trkpt>
      <trkpt lat="42.885895175859332" lon="13.251417763531208">
        <ele>1528.96</ele>
        <time>2019-06-21T11:33:18Z</time>
      </trkpt>
      <trkpt lat="42.886009672656655" lon="13.251354899257421">
        <ele>1526.6300000000001</ele>
        <time>2019-06-21T11:33:31Z</time>
      </trkpt>
      <trkpt lat="42.886119140312076" lon="13.251373758539557">
        <ele>1525.3</ele>
        <time>2019-06-21T11:33:43Z</time>
      </trkpt>
      <trkpt lat="42.88616331294179" lon="13.251415751874447">
        <ele>1525.6900000000001</ele>
        <time>2019-06-21T11:33:55Z</time>
      </trkpt>
      <trkpt lat="42.886182088404894" lon="13.251445926725864">
        <ele>1526.3599999999999</ele>
        <time>2019-06-21T11:33:59Z</time>
      </trkpt>
      <trkpt lat="42.886214274913073" lon="13.251516669988632">
        <ele>1527.24</ele>
        <time>2019-06-21T11:34:05Z</time>
      </trkpt>
      <trkpt lat="42.886284599080682" lon="13.251729486510158">
        <ele>1527.97</ele>
        <time>2019-06-21T11:34:22Z</time>
      </trkpt>
      <trkpt lat="42.88636120967567" lon="13.251886144280434">
        <ele>1527.75</ele>
        <time>2019-06-21T11:34:35Z</time>
      </trkpt>
      <trkpt lat="42.886436814442277" lon="13.252021428197622">
        <ele>1527.9200000000001</ele>
        <time>2019-06-21T11:34:48Z</time>
      </trkpt>
      <trkpt lat="42.886457098647952" lon="13.252038359642029">
        <ele>1527.9000000000001</ele>
        <time>2019-06-21T11:34:51Z</time>
      </trkpt>
      <trkpt lat="42.886543767526746" lon="13.252077335491776">
        <ele>1526.96</ele>
        <time>2019-06-21T11:35:01Z</time>
      </trkpt>
      <trkpt lat="42.886658767238259" lon="13.252179343253374">
        <ele>1525.1099999999999</ele>
        <time>2019-06-21T11:35:14Z</time>
      </trkpt>
      <trkpt lat="42.88668030872941" lon="13.252317309379578">
        <ele>1525.3099999999999</ele>
        <time>2019-06-21T11:35:27Z</time>
      </trkpt>
      <trkpt lat="42.886675614863634" lon="13.252290235832334">
        <ele>1525.54</ele>
        <time>2019-06-21T11:35:48Z</time>
      </trkpt>
      <trkpt lat="42.886674273759127" lon="13.252301216125488">
        <ele>1525.72</ele>
        <time>2019-06-21T11:36:19Z</time>
      </trkpt>
      <trkpt lat="42.886683158576488" lon="13.252321919426322">
        <ele>1525.5799999999999</ele>
        <time>2019-06-21T11:36:24Z</time>
      </trkpt>
      <trkpt lat="42.886687600985169" lon="13.252352345734835">
        <ele>1525.4400000000001</ele>
        <time>2019-06-21T11:36:26Z</time>
      </trkpt>
      <trkpt lat="42.886712243780494" lon="13.252426441758871">
        <ele>1525.05</ele>
        <time>2019-06-21T11:36:31Z</time>
      </trkpt>
      <trkpt lat="42.886803857982159" lon="13.252634145319462">
        <ele>1525.3399999999999</ele>
        <time>2019-06-21T11:36:48Z</time>
      </trkpt>
      <trkpt lat="42.886882899329066" lon="13.252792730927467">
        <ele>1524.95</ele>
        <time>2019-06-21T11:37:01Z</time>
      </trkpt>
      <trkpt lat="42.886942159384489" lon="13.252883842214942">
        <ele>1525.48</ele>
        <time>2019-06-21T11:37:13Z</time>
      </trkpt>
      <trkpt lat="42.886953810229897" lon="13.252906557172537">
        <ele>1525.6600000000001</ele>
        <time>2019-06-21T11:37:15Z</time>
      </trkpt>
      <trkpt lat="42.887011393904686" lon="13.253096826374531">
        <ele>1523.98</ele>
        <time>2019-06-21T11:37:29Z</time>
      </trkpt>
      <trkpt lat="42.887025559321046" lon="13.253114512190223">
        <ele>1522.9200000000001</ele>
        <time>2019-06-21T11:37:38Z</time>
      </trkpt>
      <trkpt lat="42.887051878497005" lon="13.253160361200571">
        <ele>1522.4100000000001</ele>
        <time>2019-06-21T11:37:42Z</time>
      </trkpt>
      <trkpt lat="42.887099403887987" lon="13.253355408087373">
        <ele>1521.8</ele>
        <time>2019-06-21T11:37:57Z</time>
      </trkpt>
      <trkpt lat="42.887151874601841" lon="13.253524135798216">
        <ele>1521.9300000000001</ele>
        <time>2019-06-21T11:38:11Z</time>
      </trkpt>
      <trkpt lat="42.887249942868948" lon="13.253628993406892">
        <ele>1521.22</ele>
        <time>2019-06-21T11:38:25Z</time>
      </trkpt>
      <trkpt lat="42.887334767729044" lon="13.253732174634933">
        <ele>1519.2</ele>
        <time>2019-06-21T11:38:37Z</time>
      </trkpt>
      <trkpt lat="42.887420933693647" lon="13.253902159631252">
        <ele>1516.73</ele>
        <time>2019-06-21T11:38:51Z</time>
      </trkpt>
      <trkpt lat="42.887487150728703" lon="13.254058314487338">
        <ele>1514.3199999999999</ele>
        <time>2019-06-21T11:39:06Z</time>
      </trkpt>
      <trkpt lat="42.887512799352407" lon="13.254173817113042">
        <ele>1511.05</ele>
        <time>2019-06-21T11:39:19Z</time>
      </trkpt>
      <trkpt lat="42.887543812394142" lon="13.254269789904356">
        <ele>1509.3</ele>
        <time>2019-06-21T11:39:31Z</time>
      </trkpt>
      <trkpt lat="42.887617573142052" lon="13.254435835406184">
        <ele>1506.6099999999999</ele>
        <time>2019-06-21T11:39:47Z</time>
      </trkpt>
      <trkpt lat="42.887631403282285" lon="13.254594504833221">
        <ele>1504.1199999999999</ele>
        <time>2019-06-21T11:40:01Z</time>
      </trkpt>
      <trkpt lat="42.887644814327359" lon="13.254791814833879">
        <ele>1501.45</ele>
        <time>2019-06-21T11:40:17Z</time>
      </trkpt>
      <trkpt lat="42.887702817097306" lon="13.254927936941385">
        <ele>1500.21</ele>
        <time>2019-06-21T11:40:30Z</time>
      </trkpt>
      <trkpt lat="42.887766603380442" lon="13.255001613870263">
        <ele>1499.8399999999999</ele>
        <time>2019-06-21T11:40:46Z</time>
      </trkpt>
      <trkpt lat="42.887766100466251" lon="13.255028100684285">
        <ele>1496.6199999999999</ele>
        <time>2019-06-21T11:40:50Z</time>
      </trkpt>
      <trkpt lat="42.887846399098635" lon="13.255161540582776">
        <ele>1493.8199999999999</ele>
        <time>2019-06-21T11:41:04Z</time>
      </trkpt>
      <trkpt lat="42.887846231460571" lon="13.255246365442872">
        <ele>1492.0799999999999</ele>
        <time>2019-06-21T11:41:17Z</time>
      </trkpt>
      <trkpt lat="42.887835670262575" lon="13.255414171144366">
        <ele>1489.75</ele>
        <time>2019-06-21T11:41:31Z</time>
      </trkpt>
      <trkpt lat="42.887784959748387" lon="13.255482148379087">
        <ele>1487.9200000000001</ele>
        <time>2019-06-21T11:41:39Z</time>
      </trkpt>
      <trkpt lat="42.887730477377772" lon="13.255468318238854">
        <ele>1486.46</ele>
        <time>2019-06-21T11:41:51Z</time>
      </trkpt>
      <trkpt lat="42.887729806825519" lon="13.255479298532009">
        <ele>1486.04</ele>
        <time>2019-06-21T11:42:07Z</time>
      </trkpt>
      <trkpt lat="42.887727040797472" lon="13.255499666556716">
        <ele>1485.5999999999999</ele>
        <time>2019-06-21T11:42:09Z</time>
      </trkpt>
      <trkpt lat="42.887730561196804" lon="13.255525315180421">
        <ele>1485.1099999999999</ele>
        <time>2019-06-21T11:42:11Z</time>
      </trkpt>
      <trkpt lat="42.887731231749058" lon="13.255625478923321">
        <ele>1482.9100000000001</ele>
        <time>2019-06-21T11:42:20Z</time>
      </trkpt>
      <trkpt lat="42.88773475214839" lon="13.25566646642983">
        <ele>1482.3900000000001</ele>
        <time>2019-06-21T11:42:23Z</time>
      </trkpt>
      <trkpt lat="42.887773225083947" lon="13.255871655419469">
        <ele>1480.52</ele>
        <time>2019-06-21T11:42:39Z</time>
      </trkpt>
      <trkpt lat="42.88782125338912" lon="13.255963604897261">
        <ele>1478.25</ele>
        <time>2019-06-21T11:42:51Z</time>
      </trkpt>
      <trkpt lat="42.887808596715331" lon="13.255989588797092">
        <ele>1477.72</ele>
        <time>2019-06-21T11:43:03Z</time>
      </trkpt>
      <trkpt lat="42.887904569506645" lon="13.25605739839375">
        <ele>1476.1400000000001</ele>
        <time>2019-06-21T11:43:13Z</time>
      </trkpt>
      <trkpt lat="42.887919656932354" lon="13.256111210212111">
        <ele>1475.9000000000001</ele>
        <time>2019-06-21T11:43:17Z</time>
      </trkpt>
      <trkpt lat="42.887942623347044" lon="13.256153957918286">
        <ele>1474.8299999999999</ele>
        <time>2019-06-21T11:43:21Z</time>
      </trkpt>
      <trkpt lat="42.887981431558728" lon="13.256324781104922">
        <ele>1471.4200000000001</ele>
        <time>2019-06-21T11:43:33Z</time>
      </trkpt>
      <trkpt lat="42.888048654422164" lon="13.256503315642476">
        <ele>1469.79</ele>
        <time>2019-06-21T11:43:48Z</time>
      </trkpt>
      <trkpt lat="42.888049241155386" lon="13.256512871012092">
        <ele>1469.72</ele>
        <time>2019-06-21T11:43:49Z</time>
      </trkpt>
      <trkpt lat="42.888053767383099" lon="13.25655092485249">
        <ele>1469.48</ele>
        <time>2019-06-21T11:43:52Z</time>
      </trkpt>
      <trkpt lat="42.888050079345703" lon="13.256654189899564">
        <ele>1468</ele>
        <time>2019-06-21T11:44:01Z</time>
      </trkpt>
      <trkpt lat="42.888079416006804" lon="13.256890475749969">
        <ele>1465.28</ele>
        <time>2019-06-21T11:44:20Z</time>
      </trkpt>
      <trkpt lat="42.888071201741695" lon="13.257097592577338">
        <ele>1462.24</ele>
        <time>2019-06-21T11:44:38Z</time>
      </trkpt>
      <trkpt lat="42.888124510645866" lon="13.257246119901538">
        <ele>1458.98</ele>
        <time>2019-06-21T11:44:53Z</time>
      </trkpt>
      <trkpt lat="42.888204474002123" lon="13.257312085479498">
        <ele>1456.01</ele>
        <time>2019-06-21T11:45:07Z</time>
      </trkpt>
      <trkpt lat="42.88817161694169" lon="13.257400011643767">
        <ele>1452.8599999999999</ele>
        <time>2019-06-21T11:45:17Z</time>
      </trkpt>
      <trkpt lat="42.888168096542358" lon="13.257408393546939">
        <ele>1452.8599999999999</ele>
        <time>2019-06-21T11:45:18Z</time>
      </trkpt>
      <trkpt lat="42.888124762102962" lon="13.257517777383327">
        <ele>1449.73</ele>
        <time>2019-06-21T11:45:33Z</time>
      </trkpt>
      <trkpt lat="42.888123588636518" lon="13.257526829838753">
        <ele>1449.73</ele>
        <time>2019-06-21T11:45:34Z</time>
      </trkpt>
      <trkpt lat="42.888066004961729" lon="13.25760243460536">
        <ele>1447.6500000000001</ele>
        <time>2019-06-21T11:45:48Z</time>
      </trkpt>
      <trkpt lat="42.888055024668574" lon="13.257619198411703">
        <ele>1446.77</ele>
        <time>2019-06-21T11:45:58Z</time>
      </trkpt>
      <trkpt lat="42.888045888394117" lon="13.257619952782989">
        <ele>1446.4200000000001</ele>
        <time>2019-06-21T11:46:29Z</time>
      </trkpt>
      <trkpt lat="42.888040775433183" lon="13.257613917812705">
        <ele>1446.53</ele>
        <time>2019-06-21T11:47:18Z</time>
      </trkpt>
      <trkpt lat="42.88803574629128" lon="13.257604446262121">
        <ele>1445.9100000000001</ele>
        <time>2019-06-21T11:48:00Z</time>
      </trkpt>
      <trkpt lat="42.888035411015153" lon="13.257613331079483">
        <ele>1445.6099999999999</ele>
        <time>2019-06-21T11:48:55Z</time>
      </trkpt>
      <trkpt lat="42.888034740462899" lon="13.257614756003022">
        <ele>1445.53</ele>
        <time>2019-06-21T11:49:58Z</time>
      </trkpt>
      <trkpt lat="42.88803524337709" lon="13.257606122642756">
        <ele>1445.24</ele>
        <time>2019-06-21T11:50:45Z</time>
      </trkpt>
      <trkpt lat="42.888047900050879" lon="13.257600842043757">
        <ele>1445.1300000000001</ele>
        <time>2019-06-21T11:51:12Z</time>
      </trkpt>
      <trkpt lat="42.888048067688942" lon="13.257597154006362">
        <ele>1446.23</ele>
        <time>2019-06-21T11:51:23Z</time>
      </trkpt>
      <trkpt lat="42.888053515926003" lon="13.257638476788998">
        <ele>1445.6500000000001</ele>
        <time>2019-06-21T11:51:39Z</time>
      </trkpt>
      <trkpt lat="42.888075476512313" lon="13.257659347727895">
        <ele>1445</ele>
        <time>2019-06-21T11:51:54Z</time>
      </trkpt>
      <trkpt lat="42.888105735182762" lon="13.257760601118207">
        <ele>1442.49</ele>
        <time>2019-06-21T11:52:07Z</time>
      </trkpt>
      <trkpt lat="42.888130377978086" lon="13.257891358807683">
        <ele>1439.4000000000001</ele>
        <time>2019-06-21T11:52:21Z</time>
      </trkpt>
      <trkpt lat="42.888122163712978" lon="13.257975680753589">
        <ele>1436.78</ele>
        <time>2019-06-21T11:52:34Z</time>
      </trkpt>
      <trkpt lat="42.888109926134348" lon="13.257989678531885">
        <ele>1436.6099999999999</ele>
        <time>2019-06-21T11:52:36Z</time>
      </trkpt>
      <trkpt lat="42.88805628195405" lon="13.258050866425037">
        <ele>1433.76</ele>
        <time>2019-06-21T11:52:47Z</time>
      </trkpt>
      <trkpt lat="42.888033231720328" lon="13.258109036833048">
        <ele>1432.4300000000001</ele>
        <time>2019-06-21T11:52:59Z</time>
      </trkpt>
      <trkpt lat="42.888056030496955" lon="13.25813258998096">
        <ele>1431.51</ele>
        <time>2019-06-21T11:53:06Z</time>
      </trkpt>
      <trkpt lat="42.888087797909975" lon="13.258214313536882">
        <ele>1428.8599999999999</ele>
        <time>2019-06-21T11:53:16Z</time>
      </trkpt>
      <trkpt lat="42.888069776818156" lon="13.258303077891469">
        <ele>1426.1300000000001</ele>
        <time>2019-06-21T11:53:27Z</time>
      </trkpt>
      <trkpt lat="42.888067178428173" lon="13.258311627432704">
        <ele>1425.78</ele>
        <time>2019-06-21T11:53:28Z</time>
      </trkpt>
      <trkpt lat="42.888064412400126" lon="13.258359571918845">
        <ele>1424.3900000000001</ele>
        <time>2019-06-21T11:53:32Z</time>
      </trkpt>
      <trkpt lat="42.88807631470263" lon="13.258436182513833">
        <ele>1422.4100000000001</ele>
        <time>2019-06-21T11:53:38Z</time>
      </trkpt>
      <trkpt lat="42.888067346066236" lon="13.25854791328311">
        <ele>1420.3099999999999</ele>
        <time>2019-06-21T11:53:49Z</time>
      </trkpt>
      <trkpt lat="42.888059467077255" lon="13.25864564627409">
        <ele>1420.3099999999999</ele>
        <time>2019-06-21T11:54:01Z</time>
      </trkpt>
      <trkpt lat="42.888065334409475" lon="13.258666265755892">
        <ele>1418.98</ele>
        <time>2019-06-21T11:54:03Z</time>
      </trkpt>
      <trkpt lat="42.888087965548038" lon="13.258799370378256">
        <ele>1415.8499999999999</ele>
        <time>2019-06-21T11:54:15Z</time>
      </trkpt>
      <trkpt lat="42.888096682727337" lon="13.258819403126836">
        <ele>1415.6099999999999</ele>
        <time>2019-06-21T11:54:17Z</time>
      </trkpt>
      <trkpt lat="42.88813934661448" lon="13.258969774469733">
        <ele>1412.05</ele>
        <time>2019-06-21T11:54:32Z</time>
      </trkpt>
      <trkpt lat="42.888152170926332" lon="13.258987963199615">
        <ele>1411.4000000000001</ele>
        <time>2019-06-21T11:54:39Z</time>
      </trkpt>
      <trkpt lat="42.888163318857551" lon="13.259010426700115">
        <ele>1411.1500000000001</ele>
        <time>2019-06-21T11:54:41Z</time>
      </trkpt>
      <trkpt lat="42.88819458335638" lon="13.259133473038673">
        <ele>1408.3399999999999</ele>
        <time>2019-06-21T11:54:54Z</time>
      </trkpt>
      <trkpt lat="42.888113614171743" lon="13.259181501343846">
        <ele>1405.6099999999999</ele>
        <time>2019-06-21T11:55:04Z</time>
      </trkpt>
      <trkpt lat="42.888010516762733" lon="13.259217711165547">
        <ele>1402.25</ele>
        <time>2019-06-21T11:55:15Z</time>
      </trkpt>
      <trkpt lat="42.887989394366741" lon="13.259220225736499">
        <ele>1402.1600000000001</ele>
        <time>2019-06-21T11:55:18Z</time>
      </trkpt>
      <trkpt lat="42.88795025087893" lon="13.259218130260706">
        <ele>1401.3399999999999</ele>
        <time>2019-06-21T11:55:22Z</time>
      </trkpt>
      <trkpt lat="42.887750091031194" lon="13.259228440001607">
        <ele>1398.72</ele>
        <time>2019-06-21T11:55:41Z</time>
      </trkpt>
      <trkpt lat="42.887661578133702" lon="13.259230954572558">
        <ele>1396.8900000000001</ele>
        <time>2019-06-21T11:55:49Z</time>
      </trkpt>
      <trkpt lat="42.88754615932703" lon="13.259256267920136">
        <ele>1393.8</ele>
        <time>2019-06-21T11:56:03Z</time>
      </trkpt>
      <trkpt lat="42.887393441051245" lon="13.259352827444673">
        <ele>1393.01</ele>
        <time>2019-06-21T11:56:20Z</time>
      </trkpt>
      <trkpt lat="42.887362679466605" lon="13.259365148842335">
        <ele>1390.0599999999999</ele>
        <time>2019-06-21T11:56:23Z</time>
      </trkpt>
      <trkpt lat="42.887213984504342" lon="13.25940303504467">
        <ele>1388.0599999999999</ele>
        <time>2019-06-21T11:56:37Z</time>
      </trkpt>
      <trkpt lat="42.887151455506682" lon="13.259420469403267">
        <ele>1387.0899999999999</ele>
        <time>2019-06-21T11:56:44Z</time>
      </trkpt>
      <trkpt lat="42.887029498815536" lon="13.259500851854682">
        <ele>1384.2</ele>
        <time>2019-06-21T11:56:58Z</time>
      </trkpt>
      <trkpt lat="42.886969652026892" lon="13.259602775797248">
        <ele>1381.1199999999999</ele>
        <time>2019-06-21T11:57:11Z</time>
      </trkpt>
      <trkpt lat="42.886895975098014" lon="13.259690534323454">
        <ele>1378.1900000000001</ele>
        <time>2019-06-21T11:57:23Z</time>
      </trkpt>
      <trkpt lat="42.886812407523394" lon="13.259790865704417">
        <ele>1375.6300000000001</ele>
        <time>2019-06-21T11:57:36Z</time>
      </trkpt>
      <trkpt lat="42.886846857145429" lon="13.259895220398903">
        <ele>1373.4000000000001</ele>
        <time>2019-06-21T11:57:48Z</time>
      </trkpt>
      <trkpt lat="42.886859178543091" lon="13.259901506826282">
        <ele>1372.8699999999999</ele>
        <time>2019-06-21T11:57:57Z</time>
      </trkpt>
      <trkpt lat="42.886859681457281" lon="13.259901255369186">
        <ele>1372.52</ele>
        <time>2019-06-21T11:58:10Z</time>
      </trkpt>
      <trkpt lat="42.886890778318048" lon="13.259928245097399">
        <ele>1372.2</ele>
        <time>2019-06-21T11:58:28Z</time>
      </trkpt>
      <trkpt lat="42.886897567659616" lon="13.259937297552824">
        <ele>1371.97</ele>
        <time>2019-06-21T11:58:29Z</time>
      </trkpt>
      <trkpt lat="42.886947775259614" lon="13.260086327791214">
        <ele>1368.6700000000001</ele>
        <time>2019-06-21T11:58:42Z</time>
      </trkpt>
      <trkpt lat="42.886948278173804" lon="13.260106611996889">
        <ele>1368.1600000000001</ele>
        <time>2019-06-21T11:58:44Z</time>
      </trkpt>
      <trkpt lat="42.886866051703691" lon="13.260284727439284">
        <ele>1364.74</ele>
        <time>2019-06-21T11:59:01Z</time>
      </trkpt>
      <trkpt lat="42.886867057532072" lon="13.260307526215911">
        <ele>1362.8499999999999</ele>
        <time>2019-06-21T11:59:03Z</time>
      </trkpt>
      <trkpt lat="42.886881893500686" lon="13.260348681360483">
        <ele>1365.21</ele>
        <time>2019-06-21T11:59:06Z</time>
      </trkpt>
      <trkpt lat="42.886915504932404" lon="13.260399224236608">
        <ele>1363.76</ele>
        <time>2019-06-21T11:59:16Z</time>
      </trkpt>
      <trkpt lat="42.886962778866291" lon="13.260495867580175">
        <ele>1362.0899999999999</ele>
        <time>2019-06-21T11:59:31Z</time>
      </trkpt>
      <trkpt lat="42.887046430259943" lon="13.260641377419233">
        <ele>1359.78</ele>
        <time>2019-06-21T11:59:45Z</time>
      </trkpt>
      <trkpt lat="42.887045927345753" lon="13.260771799832582">
        <ele>1356.51</ele>
        <time>2019-06-21T11:59:57Z</time>
      </trkpt>
      <trkpt lat="42.887081634253263" lon="13.260886464267969">
        <ele>1353.9200000000001</ele>
        <time>2019-06-21T12:00:08Z</time>
      </trkpt>
      <trkpt lat="42.887100828811526" lon="13.261009426787496">
        <ele>1350.6300000000001</ele>
        <time>2019-06-21T12:00:20Z</time>
      </trkpt>
      <trkpt lat="42.887092782184482" lon="13.261127443984151">
        <ele>1347.3199999999999</ele>
        <time>2019-06-21T12:00:31Z</time>
      </trkpt>
      <trkpt lat="42.887129075825214" lon="13.261197097599506">
        <ele>1344.1300000000001</ele>
        <time>2019-06-21T12:00:43Z</time>
      </trkpt>
      <trkpt lat="42.88713569752872" lon="13.261291226372123">
        <ele>1340.8299999999999</ele>
        <time>2019-06-21T12:00:54Z</time>
      </trkpt>
      <trkpt lat="42.887110551819205" lon="13.261397760361433">
        <ele>1337.6700000000001</ele>
        <time>2019-06-21T12:01:05Z</time>
      </trkpt>
      <trkpt lat="42.88710686378181" lon="13.261408992111683">
        <ele>1337.3299999999999</ele>
        <time>2019-06-21T12:01:06Z</time>
      </trkpt>
      <trkpt lat="42.88703846745193" lon="13.261505551636219">
        <ele>1333.8499999999999</ele>
        <time>2019-06-21T12:01:18Z</time>
      </trkpt>
      <trkpt lat="42.886933945119381" lon="13.261532038450241">
        <ele>1331.45</ele>
        <time>2019-06-21T12:01:32Z</time>
      </trkpt>
      <trkpt lat="42.886861441656947" lon="13.26156715862453">
        <ele>1328.8</ele>
        <time>2019-06-21T12:01:44Z</time>
      </trkpt>
      <trkpt lat="42.886898657307029" lon="13.261662712320685">
        <ele>1326.5</ele>
        <time>2019-06-21T12:01:56Z</time>
      </trkpt>
      <trkpt lat="42.886975267902017" lon="13.261746363714337">
        <ele>1323.9200000000001</ele>
        <time>2019-06-21T12:02:10Z</time>
      </trkpt>
      <trkpt lat="42.886861944571137" lon="13.261779807507992">
        <ele>1320.79</ele>
        <time>2019-06-21T12:02:27Z</time>
      </trkpt>
      <trkpt lat="42.886770162731409" lon="13.261729516088963">
        <ele>1318.28</ele>
        <time>2019-06-21T12:02:40Z</time>
      </trkpt>
      <trkpt lat="42.886713081970811" lon="13.261802773922682">
        <ele>1315.3399999999999</ele>
        <time>2019-06-21T12:02:52Z</time>
      </trkpt>
      <trkpt lat="42.886702520772815" lon="13.261793218553066">
        <ele>1315.5</ele>
        <time>2019-06-21T12:03:06Z</time>
      </trkpt>
      <trkpt lat="42.88669791072607" lon="13.261801516637206">
        <ele>1315.1300000000001</ele>
        <time>2019-06-21T12:03:24Z</time>
      </trkpt>
      <trkpt lat="42.886686762794852" lon="13.261814508587122">
        <ele>1314.6900000000001</ele>
        <time>2019-06-21T12:03:40Z</time>
      </trkpt>
      <trkpt lat="42.886690199375153" lon="13.261874187737703">
        <ele>1313.4300000000001</ele>
        <time>2019-06-21T12:03:54Z</time>
      </trkpt>
      <trkpt lat="42.886729678139091" lon="13.261958258226514">
        <ele>1310.4000000000001</ele>
        <time>2019-06-21T12:04:05Z</time>
      </trkpt>
      <trkpt lat="42.886784495785832" lon="13.262038808315992">
        <ele>1308.6199999999999</ele>
        <time>2019-06-21T12:04:16Z</time>
      </trkpt>
      <trkpt lat="42.88678290322423" lon="13.262064792215824">
        <ele>1308.02</ele>
        <time>2019-06-21T12:04:41Z</time>
      </trkpt>
      <trkpt lat="42.886792542412877" lon="13.262042161077261">
        <ele>1304.99</ele>
        <time>2019-06-21T12:04:55Z</time>
      </trkpt>
      <trkpt lat="42.886789105832577" lon="13.262044172734022">
        <ele>1309.3299999999999</ele>
        <time>2019-06-21T12:04:56Z</time>
      </trkpt>
      <trkpt lat="42.886789022013545" lon="13.262047190219164">
        <ele>1308.6099999999999</ele>
        <time>2019-06-21T12:04:57Z</time>
      </trkpt>
      <trkpt lat="42.886786675080657" lon="13.262048866599798">
        <ele>1307.96</ele>
        <time>2019-06-21T12:04:59Z</time>
      </trkpt>
      <trkpt lat="42.886789189651608" lon="13.262045010924339">
        <ele>1308.23</ele>
        <time>2019-06-21T12:05:15Z</time>
      </trkpt>
      <trkpt lat="42.886805450543761" lon="13.262065714225173">
        <ele>1307.8599999999999</ele>
        <time>2019-06-21T12:05:37Z</time>
      </trkpt>
      <trkpt lat="42.886794721707702" lon="13.262155568227172">
        <ele>1304.74</ele>
        <time>2019-06-21T12:05:51Z</time>
      </trkpt>
      <trkpt lat="42.886727834120393" lon="13.262159004807472">
        <ele>1302.8900000000001</ele>
        <time>2019-06-21T12:06:03Z</time>
      </trkpt>
      <trkpt lat="42.886716015636921" lon="13.262204518541694">
        <ele>1300.3399999999999</ele>
        <time>2019-06-21T12:06:14Z</time>
      </trkpt>
      <trkpt lat="42.886708555743098" lon="13.262299820780754">
        <ele>1297.45</ele>
        <time>2019-06-21T12:06:27Z</time>
      </trkpt>
      <trkpt lat="42.886668909341097" lon="13.262368300929666">
        <ele>1294.27</ele>
        <time>2019-06-21T12:06:39Z</time>
      </trkpt>
      <trkpt lat="42.886723475530744" lon="13.262436278164387">
        <ele>1292.2</ele>
        <time>2019-06-21T12:06:51Z</time>
      </trkpt>
      <trkpt lat="42.886744597926736" lon="13.262483803555369">
        <ele>1289.8800000000001</ele>
        <time>2019-06-21T12:06:57Z</time>
      </trkpt>
      <trkpt lat="42.886731689795852" lon="13.262500315904617">
        <ele>1289.3099999999999</ele>
        <time>2019-06-21T12:06:59Z</time>
      </trkpt>
      <trkpt lat="42.886632196605206" lon="13.262495119124651">
        <ele>1285.95</ele>
        <time>2019-06-21T12:07:12Z</time>
      </trkpt>
      <trkpt lat="42.886584419757128" lon="13.262477684766054">
        <ele>1284.3599999999999</ele>
        <time>2019-06-21T12:07:18Z</time>
      </trkpt>
      <trkpt lat="42.886520130559802" lon="13.26247408054769">
        <ele>1282.6600000000001</ele>
        <time>2019-06-21T12:07:31Z</time>
      </trkpt>
      <trkpt lat="42.886489201337099" lon="13.262444911524653">
        <ele>1282.1900000000001</ele>
        <time>2019-06-21T12:07:49Z</time>
      </trkpt>
      <trkpt lat="42.886451650410891" lon="13.262398978695273">
        <ele>1281.02</ele>
        <time>2019-06-21T12:07:57Z</time>
      </trkpt>
      <trkpt lat="42.88641694933176" lon="13.262366205453873">
        <ele>1279.76</ele>
        <time>2019-06-21T12:08:01Z</time>
      </trkpt>
      <trkpt lat="42.886309493333101" lon="13.262243578210473">
        <ele>1276.8699999999999</ele>
        <time>2019-06-21T12:08:16Z</time>
      </trkpt>
      <trkpt lat="42.886214861646295" lon="13.262150455266237">
        <ele>1275.5699999999999</ele>
        <time>2019-06-21T12:08:29Z</time>
      </trkpt>
      <trkpt lat="42.886098269373178" lon="13.26209731400013">
        <ele>1273.3800000000001</ele>
        <time>2019-06-21T12:08:42Z</time>
      </trkpt>
      <trkpt lat="42.885984275490046" lon="13.262016763910651">
        <ele>1272.6700000000001</ele>
        <time>2019-06-21T12:08:55Z</time>
      </trkpt>
      <trkpt lat="42.885975139215589" lon="13.262007795274258">
        <ele>1272.5</ele>
        <time>2019-06-21T12:08:56Z</time>
      </trkpt>
      <trkpt lat="42.88588092662394" lon="13.261930262669921">
        <ele>1272.29</ele>
        <time>2019-06-21T12:09:09Z</time>
      </trkpt>
      <trkpt lat="42.885749246925116" lon="13.261879133060575">
        <ele>1271.5</ele>
        <time>2019-06-21T12:09:21Z</time>
      </trkpt>
      <trkpt lat="42.88567959330976" lon="13.261844431981444">
        <ele>1270.6500000000001</ele>
        <time>2019-06-21T12:09:31Z</time>
      </trkpt>
      <trkpt lat="42.885614382103086" lon="13.261792548000813">
        <ele>1270.27</ele>
        <time>2019-06-21T12:09:43Z</time>
      </trkpt>
      <trkpt lat="42.885554367676377" lon="13.261758852750063">
        <ele>1267.79</ele>
        <time>2019-06-21T12:09:53Z</time>
      </trkpt>
      <trkpt lat="42.885460657998919" lon="13.261718703433871">
        <ele>1264.46</ele>
        <time>2019-06-21T12:10:03Z</time>
      </trkpt>
      <trkpt lat="42.885431237518787" lon="13.261714428663254">
        <ele>1263.5799999999999</ele>
        <time>2019-06-21T12:10:08Z</time>
      </trkpt>
      <trkpt lat="42.885400811210275" lon="13.261711159721017">
        <ele>1263.0699999999999</ele>
        <time>2019-06-21T12:10:11Z</time>
      </trkpt>
      <trkpt lat="42.885357225313783" lon="13.261710740625858">
        <ele>1262.4400000000001</ele>
        <time>2019-06-21T12:10:15Z</time>
      </trkpt>
      <trkpt lat="42.885253457352519" lon="13.261608900502324">
        <ele>1259.7</ele>
        <time>2019-06-21T12:10:26Z</time>
      </trkpt>
      <trkpt lat="42.885198052972555" lon="13.261463390663266">
        <ele>1256.3800000000001</ele>
        <time>2019-06-21T12:10:38Z</time>
      </trkpt>
      <trkpt lat="42.885181792080402" lon="13.261415865272284">
        <ele>1255.1400000000001</ele>
        <time>2019-06-21T12:10:42Z</time>
      </trkpt>
      <trkpt lat="42.885175170376897" lon="13.261369178071618">
        <ele>1254.1700000000001</ele>
        <time>2019-06-21T12:10:45Z</time>
      </trkpt>
      <trkpt lat="42.885155640542507" lon="13.261293405666947">
        <ele>1252.1900000000001</ele>
        <time>2019-06-21T12:10:50Z</time>
      </trkpt>
      <trkpt lat="42.885098308324814" lon="13.261192571371794">
        <ele>1248.8900000000001</ele>
        <time>2019-06-21T12:11:00Z</time>
      </trkpt>
      <trkpt lat="42.885037120431662" lon="13.261089473962784">
        <ele>1245.8699999999999</ele>
        <time>2019-06-21T12:11:10Z</time>
      </trkpt>
      <trkpt lat="42.885012980550528" lon="13.261022921651602">
        <ele>1243.3499999999999</ele>
        <time>2019-06-21T12:11:22Z</time>
      </trkpt>
      <trkpt lat="42.885002251714468" lon="13.261032225564122">
        <ele>1243.79</ele>
        <time>2019-06-21T12:11:43Z</time>
      </trkpt>
      <trkpt lat="42.884973250329494" lon="13.261017557233572">
        <ele>1243.1199999999999</ele>
        <time>2019-06-21T12:12:06Z</time>
      </trkpt>
      <trkpt lat="42.884978782385588" lon="13.260989729315042">
        <ele>1242.78</ele>
        <time>2019-06-21T12:12:25Z</time>
      </trkpt>
      <trkpt lat="42.884968975558877" lon="13.260898534208536">
        <ele>1241.78</ele>
        <time>2019-06-21T12:12:38Z</time>
      </trkpt>
      <trkpt lat="42.884918013587594" lon="13.260768698528409">
        <ele>1238.8399999999999</ele>
        <time>2019-06-21T12:12:51Z</time>
      </trkpt>
      <trkpt lat="42.884851461276412" lon="13.260655039921403">
        <ele>1236.5599999999999</ele>
        <time>2019-06-21T12:13:04Z</time>
      </trkpt>
      <trkpt lat="42.884792452678084" lon="13.260534256696701">
        <ele>1234.1199999999999</ele>
        <time>2019-06-21T12:13:17Z</time>
      </trkpt>
      <trkpt lat="42.88475850597024" lon="13.260476253926754">
        <ele>1232.52</ele>
        <time>2019-06-21T12:13:22Z</time>
      </trkpt>
      <trkpt lat="42.884667227044702" lon="13.260353039950132">
        <ele>1229.1199999999999</ele>
        <time>2019-06-21T12:13:32Z</time>
      </trkpt>
      <trkpt lat="42.88458994589746" lon="13.260237537324429">
        <ele>1225.71</ele>
        <time>2019-06-21T12:13:43Z</time>
      </trkpt>
      <trkpt lat="42.884551640599966" lon="13.26018875464797">
        <ele>1224.0599999999999</ele>
        <time>2019-06-21T12:13:48Z</time>
      </trkpt>
      <trkpt lat="42.884470839053392" lon="13.260068809613585">
        <ele>1220.5599999999999</ele>
        <time>2019-06-21T12:13:58Z</time>
      </trkpt>
      <trkpt lat="42.884390205144882" lon="13.259986247867346">
        <ele>1217.47</ele>
        <time>2019-06-21T12:14:07Z</time>
      </trkpt>
      <trkpt lat="42.884293645620346" lon="13.25991902500391">
        <ele>1214.1800000000001</ele>
        <time>2019-06-21T12:14:17Z</time>
      </trkpt>
      <trkpt lat="42.884223572909832" lon="13.259849790483713">
        <ele>1211.5799999999999</ele>
        <time>2019-06-21T12:14:27Z</time>
      </trkpt>
      <trkpt lat="42.884090635925531" lon="13.25985305942595">
        <ele>1208.3099999999999</ele>
        <time>2019-06-21T12:14:39Z</time>
      </trkpt>
      <trkpt lat="42.883970271795988" lon="13.259864626452327">
        <ele>1205.8</ele>
        <time>2019-06-21T12:14:50Z</time>
      </trkpt>
      <trkpt lat="42.883909251540899" lon="13.259918354451656">
        <ele>1203.1400000000001</ele>
        <time>2019-06-21T12:14:58Z</time>
      </trkpt>
      <trkpt lat="42.883894164115191" lon="13.259930927306414">
        <ele>1202.6099999999999</ele>
        <time>2019-06-21T12:15:00Z</time>
      </trkpt>
      <trkpt lat="42.88379886187613" lon="13.259969064965844">
        <ele>1198.8699999999999</ele>
        <time>2019-06-21T12:15:11Z</time>
      </trkpt>
      <trkpt lat="42.883716803044081" lon="13.25999278575182">
        <ele>1195.4200000000001</ele>
        <time>2019-06-21T12:15:21Z</time>
      </trkpt>
      <trkpt lat="42.883672043681145" lon="13.260039640590549">
        <ele>1193.53</ele>
        <time>2019-06-21T12:15:30Z</time>
      </trkpt>
      <trkpt lat="42.883592415601015" lon="13.260077191516757">
        <ele>1190.71</ele>
        <time>2019-06-21T12:15:41Z</time>
      </trkpt>
      <trkpt lat="42.883595349267125" lon="13.260133769363165">
        <ele>1189.46</ele>
        <time>2019-06-21T12:15:46Z</time>
      </trkpt>
      <trkpt lat="42.883626613765955" lon="13.260210296139121">
        <ele>1187.8199999999999</ele>
        <time>2019-06-21T12:15:54Z</time>
      </trkpt>
      <trkpt lat="42.883559809997678" lon="13.260254384949803">
        <ele>1185.4100000000001</ele>
        <time>2019-06-21T12:16:04Z</time>
      </trkpt>
      <trkpt lat="42.883545560762286" lon="13.260316411033273">
        <ele>1183.47</ele>
        <time>2019-06-21T12:16:14Z</time>
      </trkpt>
      <trkpt lat="42.883547153323889" lon="13.260343987494707">
        <ele>1182.6099999999999</ele>
        <time>2019-06-21T12:16:28Z</time>
      </trkpt>
      <trkpt lat="42.883559558540583" lon="13.260410623624921">
        <ele>1181.46</ele>
        <time>2019-06-21T12:16:41Z</time>
      </trkpt>
      <trkpt lat="42.88360339589417" lon="13.260556468740106">
        <ele>1178.0899999999999</ele>
        <time>2019-06-21T12:16:54Z</time>
      </trkpt>
      <trkpt lat="42.883569784462452" lon="13.260657470673323">
        <ele>1175.8499999999999</ele>
        <time>2019-06-21T12:17:04Z</time>
      </trkpt>
      <trkpt lat="42.883580513298512" lon="13.260702146217227">
        <ele>1175.05</ele>
        <time>2019-06-21T12:17:09Z</time>
      </trkpt>
      <trkpt lat="42.883516391739249" lon="13.260761070996523">
        <ele>1172.75</ele>
        <time>2019-06-21T12:17:19Z</time>
      </trkpt>
      <trkpt lat="42.883548997342587" lon="13.260889565572143">
        <ele>1169.77</ele>
        <time>2019-06-21T12:17:32Z</time>
      </trkpt>
      <trkpt lat="42.883568610996008" lon="13.260964080691338">
        <ele>1168.23</ele>
        <time>2019-06-21T12:17:40Z</time>
      </trkpt>
      <trkpt lat="42.883522426709533" lon="13.261041613295674">
        <ele>1165.8199999999999</ele>
        <time>2019-06-21T12:17:53Z</time>
      </trkpt>
      <trkpt lat="42.883536089211702" lon="13.261128030717373">
        <ele>1164.4100000000001</ele>
        <time>2019-06-21T12:18:02Z</time>
      </trkpt>
      <trkpt lat="42.8835413698107" lon="13.261173795908689">
        <ele>1162.8699999999999</ele>
        <time>2019-06-21T12:18:06Z</time>
      </trkpt>
      <trkpt lat="42.883544806391001" lon="13.261241354048252">
        <ele>1161.4300000000001</ele>
        <time>2019-06-21T12:18:13Z</time>
      </trkpt>
      <trkpt lat="42.883578166365623" lon="13.261270523071289">
        <ele>1160.45</ele>
        <time>2019-06-21T12:18:24Z</time>
      </trkpt>
      <trkpt lat="42.883628206327558" lon="13.261405639350414">
        <ele>1158.0599999999999</ele>
        <time>2019-06-21T12:18:37Z</time>
      </trkpt>
      <trkpt lat="42.88364932872355" lon="13.2615324575454">
        <ele>1155.5799999999999</ele>
        <time>2019-06-21T12:18:48Z</time>
      </trkpt>
      <trkpt lat="42.883633906021714" lon="13.26165265403688">
        <ele>1152.4000000000001</ele>
        <time>2019-06-21T12:18:59Z</time>
      </trkpt>
      <trkpt lat="42.883619740605354" lon="13.261765139177442">
        <ele>1149.1300000000001</ele>
        <time>2019-06-21T12:19:10Z</time>
      </trkpt>
      <trkpt lat="42.883596941828728" lon="13.261830937117338">
        <ele>1147.5899999999999</ele>
        <time>2019-06-21T12:19:19Z</time>
      </trkpt>
      <trkpt lat="42.883575735613704" lon="13.261945014819503">
        <ele>1145.1300000000001</ele>
        <time>2019-06-21T12:19:31Z</time>
      </trkpt>
      <trkpt lat="42.883573556318879" lon="13.262054733932018">
        <ele>1142.8900000000001</ele>
        <time>2019-06-21T12:19:40Z</time>
      </trkpt>
      <trkpt lat="42.883660728111863" lon="13.262215331196785">
        <ele>1140.3099999999999</ele>
        <time>2019-06-21T12:19:54Z</time>
      </trkpt>
      <trkpt lat="42.883705906569958" lon="13.262293953448534">
        <ele>1138.8199999999999</ele>
        <time>2019-06-21T12:20:05Z</time>
      </trkpt>
      <trkpt lat="42.883688136935234" lon="13.262343239039183">
        <ele>1136.1099999999999</ele>
        <time>2019-06-21T12:20:17Z</time>
      </trkpt>
      <trkpt lat="42.883671121671796" lon="13.26238950714469">
        <ele>1135.5999999999999</ele>
        <time>2019-06-21T12:20:32Z</time>
      </trkpt>
      <trkpt lat="42.883650250732899" lon="13.262399649247527">
        <ele>1135.28</ele>
        <time>2019-06-21T12:20:56Z</time>
      </trkpt>
      <trkpt lat="42.883638264611363" lon="13.262435859069228">
        <ele>1135.03</ele>
        <time>2019-06-21T12:21:10Z</time>
      </trkpt>
      <trkpt lat="42.883637174963951" lon="13.262402918189764">
        <ele>1134.8900000000001</ele>
        <time>2019-06-21T12:21:31Z</time>
      </trkpt>
      <trkpt lat="42.88367036730051" lon="13.262380789965391">
        <ele>1135.8399999999999</ele>
        <time>2019-06-21T12:21:49Z</time>
      </trkpt>
      <trkpt lat="42.883660309016705" lon="13.262383304536343">
        <ele>1135.6700000000001</ele>
        <time>2019-06-21T12:22:08Z</time>
      </trkpt>
      <trkpt lat="42.883655782788992" lon="13.262412808835506">
        <ele>1135.1600000000001</ele>
        <time>2019-06-21T12:22:28Z</time>
      </trkpt>
      <trkpt lat="42.883645221590996" lon="13.262414485216141">
        <ele>1134.79</ele>
        <time>2019-06-21T12:22:52Z</time>
      </trkpt>
      <trkpt lat="42.883650753647089" lon="13.262384729459882">
        <ele>1134.71</ele>
        <time>2019-06-21T12:23:10Z</time>
      </trkpt>
      <trkpt lat="42.883652849122882" lon="13.262432757765055">
        <ele>1134.5799999999999</ele>
        <time>2019-06-21T12:23:28Z</time>
      </trkpt>
      <trkpt lat="42.883620411157608" lon="13.262536944821477">
        <ele>1132.24</ele>
        <time>2019-06-21T12:23:43Z</time>
      </trkpt>
      <trkpt lat="42.88358872756362" lon="13.262599390000105">
        <ele>1129.7</ele>
        <time>2019-06-21T12:23:54Z</time>
      </trkpt>
      <trkpt lat="42.883604904636741" lon="13.262649094685912">
        <ele>1128.0999999999999</ele>
        <time>2019-06-21T12:24:05Z</time>
      </trkpt>
      <trkpt lat="42.883593002334237" lon="13.262729225680232">
        <ele>1126.0799999999999</ele>
        <time>2019-06-21T12:24:17Z</time>
      </trkpt>
      <trkpt lat="42.883578669279814" lon="13.26271103695035">
        <ele>1125.78</ele>
        <time>2019-06-21T12:24:35Z</time>
      </trkpt>
      <trkpt lat="42.883561905473471" lon="13.26267977245152">
        <ele>1125.8599999999999</ele>
        <time>2019-06-21T12:24:55Z</time>
      </trkpt>
      <trkpt lat="42.883544471114874" lon="13.262650854885578">
        <ele>1125.6300000000001</ele>
        <time>2019-06-21T12:25:10Z</time>
      </trkpt>
      <trkpt lat="42.883528294041753" lon="13.262739283964038">
        <ele>1122.5899999999999</ele>
        <time>2019-06-21T12:25:23Z</time>
      </trkpt>
      <trkpt lat="42.883521672338247" lon="13.262813044711947">
        <ele>1120.05</ele>
        <time>2019-06-21T12:25:32Z</time>
      </trkpt>
      <trkpt lat="42.883461741730571" lon="13.262839866802096">
        <ele>1117.5</ele>
        <time>2019-06-21T12:25:44Z</time>
      </trkpt>
      <trkpt lat="42.883404074236751" lon="13.262809775769711">
        <ele>1114.75</ele>
        <time>2019-06-21T12:25:55Z</time>
      </trkpt>
      <trkpt lat="42.883343137800694" lon="13.262804243713617">
        <ele>1111.6099999999999</ele>
        <time>2019-06-21T12:26:06Z</time>
      </trkpt>
      <trkpt lat="42.88329066708684" lon="13.262897785753012">
        <ele>1109.8900000000001</ele>
        <time>2019-06-21T12:26:19Z</time>
      </trkpt>
      <trkpt lat="42.883315477520227" lon="13.262996356934309">
        <ele>1106.75</ele>
        <time>2019-06-21T12:26:31Z</time>
      </trkpt>
      <trkpt lat="42.883311035111547" lon="13.263082187622786">
        <ele>1104.05</ele>
        <time>2019-06-21T12:26:41Z</time>
      </trkpt>
      <trkpt lat="42.883347664028406" lon="13.263186039403081">
        <ele>1100.72</ele>
        <time>2019-06-21T12:26:54Z</time>
      </trkpt>
      <trkpt lat="42.883289828896523" lon="13.263257117941976">
        <ele>1097.6500000000001</ele>
        <time>2019-06-21T12:27:06Z</time>
      </trkpt>
      <trkpt lat="42.883192263543606" lon="13.263310929760337">
        <ele>1094.3599999999999</ele>
        <time>2019-06-21T12:27:19Z</time>
      </trkpt>
      <trkpt lat="42.88313090801239" lon="13.263340936973691">
        <ele>1093.4400000000001</ele>
        <time>2019-06-21T12:27:32Z</time>
      </trkpt>
      <trkpt lat="42.88309327326715" lon="13.263407489284873">
        <ele>1092.8599999999999</ele>
        <time>2019-06-21T12:27:43Z</time>
      </trkpt>
      <trkpt lat="42.883084304630756" lon="13.263424085453153">
        <ele>1092.5699999999999</ele>
        <time>2019-06-21T12:27:57Z</time>
      </trkpt>
      <trkpt lat="42.883068546652794" lon="13.263459205627441">
        <ele>1091.96</ele>
        <time>2019-06-21T12:28:07Z</time>
      </trkpt>
      <trkpt lat="42.883068714290857" lon="13.263594741001725">
        <ele>1089.23</ele>
        <time>2019-06-21T12:28:19Z</time>
      </trkpt>
      <trkpt lat="42.883096542209387" lon="13.26371468603611">
        <ele>1086.0999999999999</ele>
        <time>2019-06-21T12:28:31Z</time>
      </trkpt>
      <trkpt lat="42.883092518895864" lon="13.263784255832434">
        <ele>1084.8800000000001</ele>
        <time>2019-06-21T12:28:37Z</time>
      </trkpt>
      <trkpt lat="42.883091429248452" lon="13.263894729316235">
        <ele>1084.6300000000001</ele>
        <time>2019-06-21T12:28:47Z</time>
      </trkpt>
      <trkpt lat="42.883065193891525" lon="13.263936806470156">
        <ele>1084.1600000000001</ele>
        <time>2019-06-21T12:28:57Z</time>
      </trkpt>
      <trkpt lat="42.883060835301876" lon="13.263941751793027">
        <ele>1084.6700000000001</ele>
        <time>2019-06-21T12:29:10Z</time>
      </trkpt>
      <trkpt lat="42.883059745654464" lon="13.263920629397035">
        <ele>1084.4300000000001</ele>
        <time>2019-06-21T12:29:25Z</time>
      </trkpt>
      <trkpt lat="42.883062427863479" lon="13.263899842277169">
        <ele>1084.3599999999999</ele>
        <time>2019-06-21T12:29:27Z</time>
      </trkpt>
      <trkpt lat="42.883074413985014" lon="13.263829350471497">
        <ele>1083.9200000000001</ele>
        <time>2019-06-21T12:29:33Z</time>
      </trkpt>
      <trkpt lat="42.883098553866148" lon="13.263780735433102">
        <ele>1083.48</ele>
        <time>2019-06-21T12:29:38Z</time>
      </trkpt>
      <trkpt lat="42.88319050334394" lon="13.263719212263823">
        <ele>1081.8599999999999</ele>
        <time>2019-06-21T12:29:49Z</time>
      </trkpt>
      <trkpt lat="42.883190670982003" lon="13.263715859502554">
        <ele>1079.9000000000001</ele>
        <time>2019-06-21T12:29:51Z</time>
      </trkpt>
      <trkpt lat="42.883196119219065" lon="13.263711584731936">
        <ele>1082.8399999999999</ele>
        <time>2019-06-21T12:29:54Z</time>
      </trkpt>
      <trkpt lat="42.883191341534257" lon="13.263709153980017">
        <ele>1082.72</ele>
        <time>2019-06-21T12:29:55Z</time>
      </trkpt>
      <trkpt lat="42.883156472817063" lon="13.26373228803277">
        <ele>1081.77</ele>
        <time>2019-06-21T12:29:59Z</time>
      </trkpt>
      <trkpt lat="42.883125124499202" lon="13.263817112892866">
        <ele>1082.8</ele>
        <time>2019-06-21T12:30:07Z</time>
      </trkpt>
      <trkpt lat="42.883111042901874" lon="13.263924736529589">
        <ele>1083.78</ele>
        <time>2019-06-21T12:30:18Z</time>
      </trkpt>
      <trkpt lat="42.883111629635096" lon="13.263935716822743">
        <ele>1083.8099999999999</ele>
        <time>2019-06-21T12:30:19Z</time>
      </trkpt>
      <trkpt lat="42.883106768131256" lon="13.263974105939269">
        <ele>1083.71</ele>
        <time>2019-06-21T12:30:22Z</time>
      </trkpt>
      <trkpt lat="42.883117916062474" lon="13.264174265787005">
        <ele>1081.8699999999999</ele>
        <time>2019-06-21T12:30:35Z</time>
      </trkpt>
      <trkpt lat="42.883114730939269" lon="13.264266131445765">
        <ele>1081.3</ele>
        <time>2019-06-21T12:30:41Z</time>
      </trkpt>
      <trkpt lat="42.883110037073493" lon="13.264323128387332">
        <ele>1080.6800000000001</ele>
        <time>2019-06-21T12:30:48Z</time>
      </trkpt>
      <trkpt lat="42.883115652948618" lon="13.264381717890501">
        <ele>1080.28</ele>
        <time>2019-06-21T12:30:58Z</time>
      </trkpt>
      <trkpt lat="42.883074078708887" lon="13.264548014849424">
        <ele>1079.6199999999999</ele>
        <time>2019-06-21T12:31:10Z</time>
      </trkpt>
      <trkpt lat="42.883067792281508" lon="13.264725962653756">
        <ele>1078.5999999999999</ele>
        <time>2019-06-21T12:31:22Z</time>
      </trkpt>
      <trkpt lat="42.883060500025749" lon="13.264805758371949">
        <ele>1078.26</ele>
        <time>2019-06-21T12:31:27Z</time>
      </trkpt>
      <trkpt lat="42.88305907510221" lon="13.264834843575954">
        <ele>1078.4300000000001</ele>
        <time>2019-06-21T12:31:29Z</time>
      </trkpt>
      <trkpt lat="42.883049855008721" lon="13.264906676486135">
        <ele>1078.05</ele>
        <time>2019-06-21T12:31:34Z</time>
      </trkpt>
      <trkpt lat="42.883032420650125" lon="13.265057634562254">
        <ele>1076.47</ele>
        <time>2019-06-21T12:31:44Z</time>
      </trkpt>
      <trkpt lat="42.883004760369658" lon="13.265066603198647">
        <ele>1075.95</ele>
        <time>2019-06-21T12:31:50Z</time>
      </trkpt>
      <trkpt lat="42.883000234141946" lon="13.265089150518179">
        <ele>1075.8299999999999</ele>
        <time>2019-06-21T12:31:52Z</time>
      </trkpt>
      <trkpt lat="42.882963018491864" lon="13.265186045318842">
        <ele>1075.26</ele>
        <time>2019-06-21T12:32:00Z</time>
      </trkpt>
      <trkpt lat="42.882899902760983" lon="13.265270031988621">
        <ele>1074.45</ele>
        <time>2019-06-21T12:32:10Z</time>
      </trkpt>
      <trkpt lat="42.88289294578135" lon="13.265281012281775">
        <ele>1074.1300000000001</ele>
        <time>2019-06-21T12:32:11Z</time>
      </trkpt>
      <trkpt lat="42.882832009345293" lon="13.265345972031355">
        <ele>1072.4200000000001</ele>
        <time>2019-06-21T12:32:20Z</time>
      </trkpt>
      <trkpt lat="42.882791943848133" lon="13.265369357541203">
        <ele>1071.99</ele>
        <time>2019-06-21T12:32:24Z</time>
      </trkpt>
      <trkpt lat="42.882719272747636" lon="13.265511263161898">
        <ele>1069.8499999999999</ele>
        <time>2019-06-21T12:32:35Z</time>
      </trkpt>
      <trkpt lat="42.882707035169005" lon="13.265531966462731">
        <ele>1069.8599999999999</ele>
        <time>2019-06-21T12:32:37Z</time>
      </trkpt>
      <trkpt lat="42.882687505334616" lon="13.265580665320158">
        <ele>1069.6900000000001</ele>
        <time>2019-06-21T12:32:41Z</time>
      </trkpt>
      <trkpt lat="42.88262858055532" lon="13.265670016407967">
        <ele>1069.8900000000001</ele>
        <time>2019-06-21T12:32:53Z</time>
      </trkpt>
      <trkpt lat="42.882585329934955" lon="13.265739502385259">
        <ele>1070.8399999999999</ele>
        <time>2019-06-21T12:33:00Z</time>
      </trkpt>
      <trkpt lat="42.882508635520935" lon="13.265901189297438">
        <ele>1069.8900000000001</ele>
        <time>2019-06-21T12:33:12Z</time>
      </trkpt>
      <trkpt lat="42.882436886429787" lon="13.266027504578233">
        <ele>1068.1199999999999</ele>
        <time>2019-06-21T12:33:22Z</time>
      </trkpt>
      <trkpt lat="42.882374776527286" lon="13.266102354973555">
        <ele>1066.72</ele>
        <time>2019-06-21T12:33:30Z</time>
      </trkpt>
      <trkpt lat="42.882260531187057" lon="13.266208469867706">
        <ele>1064.3399999999999</ele>
        <time>2019-06-21T12:33:42Z</time>
      </trkpt>
      <trkpt lat="42.882159696891904" lon="13.266284745186567">
        <ele>1063.0999999999999</ele>
        <time>2019-06-21T12:33:52Z</time>
      </trkpt>
      <trkpt lat="42.882106136530638" lon="13.266356578096747">
        <ele>1061.5799999999999</ele>
        <time>2019-06-21T12:34:01Z</time>
      </trkpt>
      <trkpt lat="42.882060455158353" lon="13.266416760161519">
        <ele>1061.8</ele>
        <time>2019-06-21T12:34:07Z</time>
      </trkpt>
      <trkpt lat="42.881993651390076" lon="13.266592109575868">
        <ele>1061.25</ele>
        <time>2019-06-21T12:34:18Z</time>
      </trkpt>
      <trkpt lat="42.881989376619458" lon="13.2666284032166">
        <ele>1060.8900000000001</ele>
        <time>2019-06-21T12:34:20Z</time>
      </trkpt>
      <trkpt lat="42.881979485973716" lon="13.266766201704741">
        <ele>1060.22</ele>
        <time>2019-06-21T12:34:27Z</time>
      </trkpt>
      <trkpt lat="42.881907736882567" lon="13.267004666849971">
        <ele>1057.4400000000001</ele>
        <time>2019-06-21T12:34:40Z</time>
      </trkpt>
      <trkpt lat="42.881742361932993" lon="13.26704858802259">
        <ele>1056.3800000000001</ele>
        <time>2019-06-21T12:34:52Z</time>
      </trkpt>
      <trkpt lat="42.881609844043851" lon="13.267033919692039">
        <ele>1053.6600000000001</ele>
        <time>2019-06-21T12:35:04Z</time>
      </trkpt>
      <trkpt lat="42.881589140743017" lon="13.26703542843461">
        <ele>1053.1900000000001</ele>
        <time>2019-06-21T12:35:06Z</time>
      </trkpt>
      <trkpt lat="42.881462825462222" lon="13.267036685720086">
        <ele>1050.5799999999999</ele>
        <time>2019-06-21T12:35:20Z</time>
      </trkpt>
      <trkpt lat="42.881318992003798" lon="13.267061831429601">
        <ele>1047.75</ele>
        <time>2019-06-21T12:35:34Z</time>
      </trkpt>
      <trkpt lat="42.881188066676259" lon="13.267071470618248">
        <ele>1044.73</ele>
        <time>2019-06-21T12:35:47Z</time>
      </trkpt>
      <trkpt lat="42.881165351718664" lon="13.267075577750802">
        <ele>1044.0599999999999</ele>
        <time>2019-06-21T12:35:49Z</time>
      </trkpt>
      <trkpt lat="42.88103861734271" lon="13.267083875834942">
        <ele>1041.3</ele>
        <time>2019-06-21T12:36:02Z</time>
      </trkpt>
      <trkpt lat="42.880948092788458" lon="13.267082450911403">
        <ele>1038.21</ele>
        <time>2019-06-21T12:36:14Z</time>
      </trkpt>
      <trkpt lat="42.880856143310666" lon="13.267025118693709">
        <ele>1035.0599999999999</ele>
        <time>2019-06-21T12:36:27Z</time>
      </trkpt>
      <trkpt lat="42.880770061165094" lon="13.267007935792208">
        <ele>1032.3599999999999</ele>
        <time>2019-06-21T12:36:39Z</time>
      </trkpt>
      <trkpt lat="42.880744328722358" lon="13.267005672678351">
        <ele>1031.75</ele>
        <time>2019-06-21T12:36:42Z</time>
      </trkpt>
      <trkpt lat="42.880639554932714" lon="13.266982790082693">
        <ele>1028.3499999999999</ele>
        <time>2019-06-21T12:36:56Z</time>
      </trkpt>
      <trkpt lat="42.880587335675955" lon="13.266979185864329">
        <ele>1026.8699999999999</ele>
        <time>2019-06-21T12:37:03Z</time>
      </trkpt>
      <trkpt lat="42.880500331521034" lon="13.266994105651975">
        <ele>1024.3699999999999</ele>
        <time>2019-06-21T12:37:15Z</time>
      </trkpt>
      <trkpt lat="42.88041022606194" lon="13.26701682060957">
        <ele>1022.3200000000001</ele>
        <time>2019-06-21T12:37:26Z</time>
      </trkpt>
      <trkpt lat="42.880389271304011" lon="13.267023023217916">
        <ele>1021.6</ele>
        <time>2019-06-21T12:37:28Z</time>
      </trkpt>
      <trkpt lat="42.880304530262947" lon="13.267053868621588">
        <ele>1021.3099999999999</ele>
        <time>2019-06-21T12:37:36Z</time>
      </trkpt>
      <trkpt lat="42.880159690976143" lon="13.267106842249632">
        <ele>1018.8200000000001</ele>
        <time>2019-06-21T12:37:51Z</time>
      </trkpt>
      <trkpt lat="42.880085343495011" lon="13.267145147547126">
        <ele>1015.6</ele>
        <time>2019-06-21T12:38:01Z</time>
      </trkpt>
      <trkpt lat="42.879992220550776" lon="13.267173646017909">
        <ele>1012.25</ele>
        <time>2019-06-21T12:38:15Z</time>
      </trkpt>
      <trkpt lat="42.879977216944098" lon="13.267179513350129">
        <ele>1010.97</ele>
        <time>2019-06-21T12:38:18Z</time>
      </trkpt>
      <trkpt lat="42.879912089556456" lon="13.267216812819242">
        <ele>1008.6</ele>
        <time>2019-06-21T12:38:31Z</time>
      </trkpt>
      <trkpt lat="42.879902869462967" lon="13.267229050397873">
        <ele>1008.02</ele>
        <time>2019-06-21T12:38:33Z</time>
      </trkpt>
      <trkpt lat="42.879845034331083" lon="13.267265008762479">
        <ele>1004.63</ele>
        <time>2019-06-21T12:38:43Z</time>
      </trkpt>
      <trkpt lat="42.879810752347112" lon="13.267298704013228">
        <ele>1002.75</ele>
        <time>2019-06-21T12:38:53Z</time>
      </trkpt>
      <trkpt lat="42.879752414301038" lon="13.267342625185847">
        <ele>1000.04</ele>
        <time>2019-06-21T12:39:05Z</time>
      </trkpt>
      <trkpt lat="42.879705978557467" lon="13.267372800037265">
        <ele>997.83000000000004</ele>
        <time>2019-06-21T12:39:15Z</time>
      </trkpt>
      <trkpt lat="42.879644623026252" lon="13.267427030950785">
        <ele>995.04999999999995</ele>
        <time>2019-06-21T12:39:27Z</time>
      </trkpt>
      <trkpt lat="42.879599193111062" lon="13.267453098669648">
        <ele>994.11000000000001</ele>
        <time>2019-06-21T12:39:35Z</time>
      </trkpt>
      <trkpt lat="42.879487881436944" lon="13.267517387866974">
        <ele>990.97000000000003</ele>
        <time>2019-06-21T12:39:49Z</time>
      </trkpt>
      <trkpt lat="42.879438009113073" lon="13.267533481121063">
        <ele>989.36000000000001</ele>
        <time>2019-06-21T12:40:01Z</time>
      </trkpt>
      <trkpt lat="42.879411522299051" lon="13.267546556890011">
        <ele>988.5</ele>
        <time>2019-06-21T12:40:11Z</time>
      </trkpt>
      <trkpt lat="42.879380006343126" lon="13.267608918249607">
        <ele>985.83000000000004</ele>
        <time>2019-06-21T12:40:24Z</time>
      </trkpt>
      <trkpt lat="42.879358381032944" lon="13.267654767259955">
        <ele>982.83000000000004</ele>
        <time>2019-06-21T12:40:38Z</time>
      </trkpt>
      <trkpt lat="42.879344467073679" lon="13.267745291814208">
        <ele>979.85000000000002</ele>
        <time>2019-06-21T12:40:52Z</time>
      </trkpt>
      <trkpt lat="42.879318566992879" lon="13.267811257392168">
        <ele>977.41999999999996</ele>
        <time>2019-06-21T12:41:03Z</time>
      </trkpt>
      <trkpt lat="42.879258887842298" lon="13.26785434037447">
        <ele>974.99000000000001</ele>
        <time>2019-06-21T12:41:15Z</time>
      </trkpt>
      <trkpt lat="42.87927657365799" lon="13.267834978178144">
        <ele>975.25</ele>
        <time>2019-06-21T12:41:23Z</time>
      </trkpt>
      <trkpt lat="42.879278920590878" lon="13.267835984006524">
        <ele>975.67999999999995</ele>
        <time>2019-06-21T12:41:36Z</time>
      </trkpt>
      <trkpt lat="42.879277411848307" lon="13.267818968743086">
        <ele>974.75999999999999</ele>
        <time>2019-06-21T12:41:47Z</time>
      </trkpt>
      <trkpt lat="42.879295516759157" lon="13.267847131937742">
        <ele>974.49000000000001</ele>
        <time>2019-06-21T12:42:20Z</time>
      </trkpt>
      <trkpt lat="42.879298282787204" lon="13.267849562689662">
        <ele>974.48000000000002</ele>
        <time>2019-06-21T12:43:03Z</time>
      </trkpt>
      <trkpt lat="42.879311190918088" lon="13.267849981784821">
        <ele>974.41999999999996</ele>
        <time>2019-06-21T12:43:46Z</time>
      </trkpt>
      <trkpt lat="42.879314627498388" lon="13.267849562689662">
        <ele>974.49000000000001</ele>
        <time>2019-06-21T12:44:32Z</time>
      </trkpt>
      <trkpt lat="42.879302054643631" lon="13.26786708086729">
        <ele>974.25</ele>
        <time>2019-06-21T12:45:18Z</time>
      </trkpt>
      <trkpt lat="42.879297863692045" lon="13.267870182171464">
        <ele>974.36000000000001</ele>
        <time>2019-06-21T12:46:05Z</time>
      </trkpt>
      <trkpt lat="42.879312112927437" lon="13.267860962077975">
        <ele>974.40999999999997</ele>
        <time>2019-06-21T12:46:44Z</time>
      </trkpt>
      <trkpt lat="42.879308927804232" lon="13.267839420586824">
        <ele>975.32000000000005</ele>
        <time>2019-06-21T12:47:04Z</time>
      </trkpt>
      <trkpt lat="42.879293169826269" lon="13.267855094745755">
        <ele>975.35000000000002</ele>
        <time>2019-06-21T12:47:19Z</time>
      </trkpt>
      <trkpt lat="42.8792639169842" lon="13.267853837460279">
        <ele>974.46000000000004</ele>
        <time>2019-06-21T12:47:33Z</time>
      </trkpt>
      <trkpt lat="42.879206752404571" lon="13.26785677112639">
        <ele>973.34000000000003</ele>
        <time>2019-06-21T12:47:48Z</time>
      </trkpt>
      <trkpt lat="42.879131063818932" lon="13.267900692299008">
        <ele>970.77999999999997</ele>
        <time>2019-06-21T12:48:00Z</time>
      </trkpt>
      <trkpt lat="42.879124274477363" lon="13.267905469983816">
        <ele>970.58000000000004</ele>
        <time>2019-06-21T12:48:01Z</time>
      </trkpt>
      <trkpt lat="42.879049172624946" lon="13.267924496904016">
        <ele>969.37</ele>
        <time>2019-06-21T12:48:10Z</time>
      </trkpt>
      <trkpt lat="42.878944231197238" lon="13.267945284023881">
        <ele>968.42999999999995</ele>
        <time>2019-06-21T12:48:21Z</time>
      </trkpt>
      <trkpt lat="42.87886418402195" lon="13.268018290400505">
        <ele>966.55999999999995</ele>
        <time>2019-06-21T12:48:32Z</time>
      </trkpt>
      <trkpt lat="42.878801319748163" lon="13.268093811348081">
        <ele>963.85000000000002</ele>
        <time>2019-06-21T12:48:45Z</time>
      </trkpt>
      <trkpt lat="42.878740802407265" lon="13.268148209899664">
        <ele>960.89999999999998</ele>
        <time>2019-06-21T12:48:59Z</time>
      </trkpt>
      <trkpt lat="42.878688415512443" lon="13.268258851021528">
        <ele>958.01999999999998</ele>
        <time>2019-06-21T12:49:13Z</time>
      </trkpt>
      <trkpt lat="42.878677351400256" lon="13.268319368362427">
        <ele>956.00999999999999</ele>
        <time>2019-06-21T12:49:22Z</time>
      </trkpt>
      <trkpt lat="42.878670981153846" lon="13.268413580954075">
        <ele>953.54999999999995</ele>
        <time>2019-06-21T12:49:31Z</time>
      </trkpt>
      <trkpt lat="42.87865019403398" lon="13.268466722220182">
        <ele>952.39999999999998</ele>
        <time>2019-06-21T12:49:36Z</time>
      </trkpt>
      <trkpt lat="42.878617756068707" lon="13.268515253439546">
        <ele>951.78999999999996</ele>
        <time>2019-06-21T12:49:43Z</time>
      </trkpt>
      <trkpt lat="42.87860132753849" lon="13.268548948690295">
        <ele>951.52999999999997</ele>
        <time>2019-06-21T12:49:46Z</time>
      </trkpt>
      <trkpt lat="42.878536954522133" lon="13.268708791583776">
        <ele>951.74000000000001</ele>
        <time>2019-06-21T12:49:59Z</time>
      </trkpt>
      <trkpt lat="42.878528907895088" lon="13.268796969205141">
        <ele>951.73000000000002</ele>
        <time>2019-06-21T12:50:06Z</time>
      </trkpt>
      <trkpt lat="42.878576349467039" lon="13.268910963088274">
        <ele>952.07000000000005</ele>
        <time>2019-06-21T12:50:15Z</time>
      </trkpt>
      <trkpt lat="42.878627814352512" lon="13.268954968079925">
        <ele>950.46000000000004</ele>
        <time>2019-06-21T12:50:21Z</time>
      </trkpt>
      <trkpt lat="42.878734432160854" lon="13.269036859273911">
        <ele>948.33000000000004</ele>
        <time>2019-06-21T12:50:33Z</time>
      </trkpt>
      <trkpt lat="42.878786148503423" lon="13.269130568951368">
        <ele>946.71000000000004</ele>
        <time>2019-06-21T12:50:46Z</time>
      </trkpt>
      <trkpt lat="42.87878162227571" lon="13.269257135689259">
        <ele>947.03999999999996</ele>
        <time>2019-06-21T12:50:57Z</time>
      </trkpt>
      <trkpt lat="42.878759242594242" lon="13.269351683557034">
        <ele>947.14999999999998</ele>
        <time>2019-06-21T12:51:07Z</time>
      </trkpt>
      <trkpt lat="42.878755135461688" lon="13.269361322745681">
        <ele>947.63999999999999</ele>
        <time>2019-06-21T12:51:25Z</time>
      </trkpt>
      <trkpt lat="42.878738036379218" lon="13.269347827881575">
        <ele>947.22000000000003</ele>
        <time>2019-06-21T12:51:43Z</time>
      </trkpt>
      <trkpt lat="42.87873619236052" lon="13.269336009398103">
        <ele>946.88999999999999</ele>
        <time>2019-06-21T12:51:56Z</time>
      </trkpt>
      <trkpt lat="42.8787234518677" lon="13.269335171207786">
        <ele>947.42999999999995</ele>
        <time>2019-06-21T12:52:12Z</time>
      </trkpt>
      <trkpt lat="42.878699731081724" lon="13.269367441534996">
        <ele>947.76999999999998</ele>
        <time>2019-06-21T12:52:25Z</time>
      </trkpt>
      <trkpt lat="42.878723535686731" lon="13.269367525354028">
        <ele>947.42999999999995</ele>
        <time>2019-06-21T12:52:38Z</time>
      </trkpt>
      <trkpt lat="42.87871859036386" lon="13.26938085258007">
        <ele>946.97000000000003</ele>
        <time>2019-06-21T12:52:55Z</time>
      </trkpt>
      <trkpt lat="42.878731330856681" lon="13.269387139007449">
        <ele>947.13</ele>
        <time>2019-06-21T12:53:06Z</time>
      </trkpt>
      <trkpt lat="42.878693696111441" lon="13.269393257796764">
        <ele>946.96000000000004</ele>
        <time>2019-06-21T12:53:11Z</time>
      </trkpt>
      <trkpt lat="42.878512982279062" lon="13.269533654674888">
        <ele>947.88999999999999</ele>
        <time>2019-06-21T12:53:30Z</time>
      </trkpt>
      <trkpt lat="42.878279210999608" lon="13.26963197439909">
        <ele>947.99000000000001</ele>
        <time>2019-06-21T12:53:50Z</time>
      </trkpt>
      <trkpt lat="42.878057258203626" lon="13.269740520045161">
        <ele>948.54999999999995</ele>
        <time>2019-06-21T12:54:09Z</time>
      </trkpt>
      <trkpt lat="42.877852991223335" lon="13.269891561940312">
        <ele>948.66999999999996</ele>
        <time>2019-06-21T12:54:28Z</time>
      </trkpt>
      <trkpt lat="42.877663560211658" lon="13.270081160590053">
        <ele>948.98000000000002</ele>
        <time>2019-06-21T12:54:47Z</time>
      </trkpt>
      <trkpt lat="42.877501873299479" lon="13.270243685692549">
        <ele>949.51999999999998</ele>
        <time>2019-06-21T12:55:03Z</time>
      </trkpt>
      <trkpt lat="42.877327781170607" lon="13.270344436168671">
        <ele>950.58000000000004</ele>
        <time>2019-06-21T12:55:18Z</time>
      </trkpt>
      <trkpt lat="42.87712175399065" lon="13.270321134477854">
        <ele>949.65999999999997</ele>
        <time>2019-06-21T12:55:34Z</time>
      </trkpt>
      <trkpt lat="42.876905500888824" lon="13.270266652107239">
        <ele>949.00999999999999</ele>
        <time>2019-06-21T12:55:51Z</time>
      </trkpt>
      <trkpt lat="42.876702742651105" lon="13.270199680700898">
        <ele>948.90999999999997</ele>
        <time>2019-06-21T12:56:08Z</time>
      </trkpt>
      <trkpt lat="42.876504007726908" lon="13.270148048177361">
        <ele>949.34000000000003</ele>
        <time>2019-06-21T12:56:24Z</time>
      </trkpt>
      <trkpt lat="42.87633896805346" lon="13.270140504464507">
        <ele>949.57000000000005</ele>
        <time>2019-06-21T12:56:37Z</time>
      </trkpt>
      <trkpt lat="42.876319186761975" lon="13.270225580781698">
        <ele>949.32000000000005</ele>
        <time>2019-06-21T12:56:50Z</time>
      </trkpt>
      <trkpt lat="42.876330921426415" lon="13.270220635458827">
        <ele>949.51999999999998</ele>
        <time>2019-06-21T12:57:09Z</time>
      </trkpt>
      <trkpt lat="42.876318851485848" lon="13.270235722884536">
        <ele>949.39999999999998</ele>
        <time>2019-06-21T12:57:23Z</time>
      </trkpt>
      <trkpt lat="42.876297393813729" lon="13.270210577175021">
        <ele>949.37</ele>
        <time>2019-06-21T12:57:26Z</time>
      </trkpt>
      <trkpt lat="42.876118524000049" lon="13.270104797556996">
        <ele>949.62</ele>
        <time>2019-06-21T12:57:43Z</time>
      </trkpt>
      <trkpt lat="42.875986257568002" lon="13.270051823928952">
        <ele>949.63999999999999</ele>
        <time>2019-06-21T12:57:57Z</time>
      </trkpt>
      <trkpt lat="42.875975193455815" lon="13.270024079829454">
        <ele>949.12</ele>
        <time>2019-06-21T12:58:07Z</time>
      </trkpt>
    </trkseg>
  </trk>

  <trk>
    <name>pizzo-tre-vescovi2019-06-19</name>
    <extensions>
      <gpxx:TrackExtension>
        <gpxx:DisplayColor>Yellow</gpxx:DisplayColor>
      </gpxx:TrackExtension>
      <gpxtrkx:TrackStatsExtension xmlns:gpxtrkx="http://www.garmin.com/xmlschemas/TrackStatsExtension/v1">
        <gpxtrkx:Distance>18141</gpxtrkx:Distance>
        <gpxtrkx:TotalElapsedTime>27251</gpxtrkx:TotalElapsedTime>
        <gpxtrkx:MovingTime>19741</gpxtrkx:MovingTime>
        <gpxtrkx:StoppedTime>7324</gpxtrkx:StoppedTime>
        <gpxtrkx:MovingSpeed>1</gpxtrkx:MovingSpeed>
        <gpxtrkx:MaxSpeed>2</gpxtrkx:MaxSpeed>
        <gpxtrkx:MaxElevation>2087</gpxtrkx:MaxElevation>
        <gpxtrkx:MinElevation>1183</gpxtrkx:MinElevation>
        <gpxtrkx:Ascent>1249</gpxtrkx:Ascent>
        <gpxtrkx:Descent>1207</gpxtrkx:Descent>
        <gpxtrkx:AvgAscentRate>0</gpxtrkx:AvgAscentRate>
        <gpxtrkx:MaxAscentRate>1</gpxtrkx:MaxAscentRate>
        <gpxtrkx:AvgDescentRate>0</gpxtrkx:AvgDescentRate>
        <gpxtrkx:MaxDescentRate>-0</gpxtrkx:MaxDescentRate>
      </gpxtrkx:TrackStatsExtension>
    </extensions>
    <trkseg>
      <trkpt lat="42.966112168505788" lon="13.287232713773847">
        <ele>1184.53</ele>
        <time>2019-06-19T06:56:35Z</time>
      </trkpt>
      <trkpt lat="42.966113090515137" lon="13.28723288141191">
        <ele>1184.53</ele>
        <time>2019-06-19T06:56:36Z</time>
      </trkpt>
      <trkpt lat="42.966116443276405" lon="13.287233887240291">
        <ele>1183.7</ele>
        <time>2019-06-19T06:56:55Z</time>
      </trkpt>
      <trkpt lat="42.966103032231331" lon="13.2872265111655">
        <ele>1183.96</ele>
        <time>2019-06-19T06:57:27Z</time>
      </trkpt>
      <trkpt lat="42.966119963675737" lon="13.287235060706735">
        <ele>1183.5599999999999</ele>
        <time>2019-06-19T06:57:40Z</time>
      </trkpt>
      <trkpt lat="42.966120382770896" lon="13.287228522822261">
        <ele>1183.3699999999999</ele>
        <time>2019-06-19T06:58:10Z</time>
      </trkpt>
      <trkpt lat="42.966100769117475" lon="13.287220979109406">
        <ele>1183.6700000000001</ele>
        <time>2019-06-19T06:58:22Z</time>
      </trkpt>
      <trkpt lat="42.966100014746189" lon="13.287228019908071">
        <ele>1183.7</ele>
        <time>2019-06-19T06:58:57Z</time>
      </trkpt>
      <trkpt lat="42.96610496006906" lon="13.287175800651312">
        <ele>1183.3900000000001</ele>
        <time>2019-06-19T06:59:14Z</time>
      </trkpt>
      <trkpt lat="42.96612155623734" lon="13.287170100957155">
        <ele>1183.4400000000001</ele>
        <time>2019-06-19T06:59:29Z</time>
      </trkpt>
      <trkpt lat="42.966114850714803" lon="13.287157863378525">
        <ele>1183.23</ele>
        <time>2019-06-19T06:59:41Z</time>
      </trkpt>
      <trkpt lat="42.966017369180918" lon="13.287051748484373">
        <ele>1184.74</ele>
        <time>2019-06-19T06:59:55Z</time>
      </trkpt>
      <trkpt lat="42.966021476313472" lon="13.286992656067014">
        <ele>1185.96</ele>
        <time>2019-06-19T07:00:00Z</time>
      </trkpt>
      <trkpt lat="42.966082328930497" lon="13.286813786253333">
        <ele>1185.8800000000001</ele>
        <time>2019-06-19T07:00:15Z</time>
      </trkpt>
      <trkpt lat="42.966086771339178" lon="13.286774978041649">
        <ele>1185.98</ele>
        <time>2019-06-19T07:00:18Z</time>
      </trkpt>
      <trkpt lat="42.966050393879414" lon="13.28661572188139">
        <ele>1186.1500000000001</ele>
        <time>2019-06-19T07:00:31Z</time>
      </trkpt>
      <trkpt lat="42.966047376394272" lon="13.28645889647305">
        <ele>1187.1199999999999</ele>
        <time>2019-06-19T07:00:46Z</time>
      </trkpt>
      <trkpt lat="42.966007897630334" lon="13.286325288936496">
        <ele>1188.79</ele>
        <time>2019-06-19T07:01:00Z</time>
      </trkpt>
      <trkpt lat="42.96588996425271" lon="13.286395780742168">
        <ele>1190.0899999999999</ele>
        <time>2019-06-19T07:01:15Z</time>
      </trkpt>
      <trkpt lat="42.965842355042696" lon="13.286486305296421">
        <ele>1190.6500000000001</ele>
        <time>2019-06-19T07:01:28Z</time>
      </trkpt>
      <trkpt lat="42.965866830199957" lon="13.286515222862363">
        <ele>1190.4000000000001</ele>
        <time>2019-06-19T07:01:49Z</time>
      </trkpt>
      <trkpt lat="42.965854927897453" lon="13.286529555916786">
        <ele>1192.25</ele>
        <time>2019-06-19T07:02:07Z</time>
      </trkpt>
      <trkpt lat="42.965830368921161" lon="13.286556210368872">
        <ele>1195.3</ele>
        <time>2019-06-19T07:02:20Z</time>
      </trkpt>
      <trkpt lat="42.965793572366238" lon="13.286530561745167">
        <ele>1198.0899999999999</ele>
        <time>2019-06-19T07:02:35Z</time>
      </trkpt>
      <trkpt lat="42.965747555717826" lon="13.286519329994917">
        <ele>1201</ele>
        <time>2019-06-19T07:02:50Z</time>
      </trkpt>
      <trkpt lat="42.965704388916492" lon="13.286576913669705">
        <ele>1202.8299999999999</ele>
        <time>2019-06-19T07:03:05Z</time>
      </trkpt>
      <trkpt lat="42.965687541291118" lon="13.286595186218619">
        <ele>1202.9400000000001</ele>
        <time>2019-06-19T07:03:14Z</time>
      </trkpt>
      <trkpt lat="42.96567932702601" lon="13.286527544260025">
        <ele>1205.5</ele>
        <time>2019-06-19T07:03:29Z</time>
      </trkpt>
      <trkpt lat="42.965688798576593" lon="13.286521593108773">
        <ele>1205.6199999999999</ele>
        <time>2019-06-19T07:03:34Z</time>
      </trkpt>
      <trkpt lat="42.965653846040368" lon="13.286446826532483">
        <ele>1206.8900000000001</ele>
        <time>2019-06-19T07:03:54Z</time>
      </trkpt>
      <trkpt lat="42.965654684230685" lon="13.286415981128812">
        <ele>1210.1500000000001</ele>
        <time>2019-06-19T07:04:13Z</time>
      </trkpt>
      <trkpt lat="42.965626185759902" lon="13.28624096699059">
        <ele>1212.72</ele>
        <time>2019-06-19T07:04:30Z</time>
      </trkpt>
      <trkpt lat="42.965560220181942" lon="13.286105515435338">
        <ele>1215.49</ele>
        <time>2019-06-19T07:04:47Z</time>
      </trkpt>
      <trkpt lat="42.965535745024681" lon="13.28600644133985">
        <ele>1218.6099999999999</ele>
        <time>2019-06-19T07:05:05Z</time>
      </trkpt>
      <trkpt lat="42.96550783328712" lon="13.285962268710136">
        <ele>1218.55</ele>
        <time>2019-06-19T07:05:25Z</time>
      </trkpt>
      <trkpt lat="42.965514287352562" lon="13.2859917730093">
        <ele>1217.8099999999999</ele>
        <time>2019-06-19T07:05:37Z</time>
      </trkpt>
      <trkpt lat="42.965585198253393" lon="13.286096043884754">
        <ele>1215.1500000000001</ele>
        <time>2019-06-19T07:05:49Z</time>
      </trkpt>
      <trkpt lat="42.965623252093792" lon="13.286187993362546">
        <ele>1212.55</ele>
        <time>2019-06-19T07:06:00Z</time>
      </trkpt>
      <trkpt lat="42.965592825785279" lon="13.286266112700105">
        <ele>1211.1900000000001</ele>
        <time>2019-06-19T07:06:10Z</time>
      </trkpt>
      <trkpt lat="42.965594502165914" lon="13.286276673898101">
        <ele>1211.03</ele>
        <time>2019-06-19T07:06:11Z</time>
      </trkpt>
      <trkpt lat="42.965623252093792" lon="13.28639879822731">
        <ele>1208.3499999999999</ele>
        <time>2019-06-19T07:06:23Z</time>
      </trkpt>
      <trkpt lat="42.965677985921502" lon="13.286443306133151">
        <ele>1206.1300000000001</ele>
        <time>2019-06-19T07:06:34Z</time>
      </trkpt>
      <trkpt lat="42.965665915980935" lon="13.286581942811608">
        <ele>1203.53</ele>
        <time>2019-06-19T07:06:47Z</time>
      </trkpt>
      <trkpt lat="42.965646721422672" lon="13.286600466817617">
        <ele>1203.6400000000001</ele>
        <time>2019-06-19T07:06:50Z</time>
      </trkpt>
      <trkpt lat="42.965582013130188" lon="13.286685962229967">
        <ele>1203.45</ele>
        <time>2019-06-19T07:07:04Z</time>
      </trkpt>
      <trkpt lat="42.965574637055397" lon="13.286682944744825">
        <ele>1202.8900000000001</ele>
        <time>2019-06-19T07:07:14Z</time>
      </trkpt>
      <trkpt lat="42.965572709217668" lon="13.286689398810267">
        <ele>1203.51</ele>
        <time>2019-06-19T07:07:27Z</time>
      </trkpt>
      <trkpt lat="42.965523339807987" lon="13.286614716053009">
        <ele>1205.45</ele>
        <time>2019-06-19T07:07:39Z</time>
      </trkpt>
      <trkpt lat="42.965492075309157" lon="13.286512373015285">
        <ele>1208.54</ele>
        <time>2019-06-19T07:07:52Z</time>
      </trkpt>
      <trkpt lat="42.96547070145607" lon="13.286410700529814">
        <ele>1211.22</ele>
        <time>2019-06-19T07:08:06Z</time>
      </trkpt>
      <trkpt lat="42.965410184115171" lon="13.286335095763206">
        <ele>1214.0599999999999</ele>
        <time>2019-06-19T07:08:22Z</time>
      </trkpt>
      <trkpt lat="42.965373387560248" lon="13.286235015839338">
        <ele>1216.73</ele>
        <time>2019-06-19T07:08:36Z</time>
      </trkpt>
      <trkpt lat="42.965380679816008" lon="13.286141809076071">
        <ele>1219.26</ele>
        <time>2019-06-19T07:08:52Z</time>
      </trkpt>
      <trkpt lat="42.965391408652067" lon="13.286085315048695">
        <ele>1221.29</ele>
        <time>2019-06-19T07:09:08Z</time>
      </trkpt>
      <trkpt lat="42.965387888252735" lon="13.286007614806294">
        <ele>1224.0799999999999</ele>
        <time>2019-06-19T07:09:23Z</time>
      </trkpt>
      <trkpt lat="42.965371124446392" lon="13.285920610651374">
        <ele>1226.5999999999999</ele>
        <time>2019-06-19T07:09:40Z</time>
      </trkpt>
      <trkpt lat="42.965378165245056" lon="13.285819441080093">
        <ele>1229.2</ele>
        <time>2019-06-19T07:09:56Z</time>
      </trkpt>
      <trkpt lat="42.965330556035042" lon="13.28575381077826">
        <ele>1231.55</ele>
        <time>2019-06-19T07:10:11Z</time>
      </trkpt>
      <trkpt lat="42.965268613770604" lon="13.285705950111151">
        <ele>1233.5</ele>
        <time>2019-06-19T07:10:24Z</time>
      </trkpt>
      <trkpt lat="42.96516140922904" lon="13.285734867677093">
        <ele>1234.8900000000001</ele>
        <time>2019-06-19T07:10:37Z</time>
      </trkpt>
      <trkpt lat="42.96507591381669" lon="13.285705279558897">
        <ele>1236.6199999999999</ele>
        <time>2019-06-19T07:10:52Z</time>
      </trkpt>
      <trkpt lat="42.964977091178298" lon="13.285672171041369">
        <ele>1238.8499999999999</ele>
        <time>2019-06-19T07:11:08Z</time>
      </trkpt>
      <trkpt lat="42.964920094236732" lon="13.285652138292789">
        <ele>1241.1199999999999</ele>
        <time>2019-06-19T07:11:23Z</time>
      </trkpt>
      <trkpt lat="42.96486041508615" lon="13.285651551559567">
        <ele>1241.73</ele>
        <time>2019-06-19T07:11:32Z</time>
      </trkpt>
      <trkpt lat="42.964828396216035" lon="13.285645600408316">
        <ele>1242.02</ele>
        <time>2019-06-19T07:11:43Z</time>
      </trkpt>
      <trkpt lat="42.964754216372967" lon="13.285657418891788">
        <ele>1243.3299999999999</ele>
        <time>2019-06-19T07:11:54Z</time>
      </trkpt>
      <trkpt lat="42.964654974639416" lon="13.285631015896797">
        <ele>1245.8</ele>
        <time>2019-06-19T07:12:12Z</time>
      </trkpt>
      <trkpt lat="42.964564533904195" lon="13.285618778318167">
        <ele>1247.6600000000001</ele>
        <time>2019-06-19T07:12:28Z</time>
      </trkpt>
      <trkpt lat="42.964472752064466" lon="13.285603271797299">
        <ele>1250.49</ele>
        <time>2019-06-19T07:12:45Z</time>
      </trkpt>
      <trkpt lat="42.964417012408376" lon="13.285564547404647">
        <ele>1252.1800000000001</ele>
        <time>2019-06-19T07:12:59Z</time>
      </trkpt>
      <trkpt lat="42.96437912620604" lon="13.285447703674436">
        <ele>1255.1099999999999</ele>
        <time>2019-06-19T07:13:17Z</time>
      </trkpt>
      <trkpt lat="42.964382143691182" lon="13.285320717841387">
        <ele>1257.75</ele>
        <time>2019-06-19T07:13:34Z</time>
      </trkpt>
      <trkpt lat="42.964451713487506" lon="13.285196414217353">
        <ele>1259.9100000000001</ele>
        <time>2019-06-19T07:13:52Z</time>
      </trkpt>
      <trkpt lat="42.96448121778667" lon="13.285091305151582">
        <ele>1263.05</ele>
        <time>2019-06-19T07:14:08Z</time>
      </trkpt>
      <trkpt lat="42.96450225636363" lon="13.284998098388314">
        <ele>1265.96</ele>
        <time>2019-06-19T07:14:24Z</time>
      </trkpt>
      <trkpt lat="42.964520864188671" lon="13.284895839169621">
        <ele>1269.02</ele>
        <time>2019-06-19T07:14:42Z</time>
      </trkpt>
      <trkpt lat="42.964543998241425" lon="13.284794753417373">
        <ele>1271.8199999999999</ele>
        <time>2019-06-19T07:15:01Z</time>
      </trkpt>
      <trkpt lat="42.964547351002693" lon="13.284751335158944">
        <ele>1273</ele>
        <time>2019-06-19T07:15:15Z</time>
      </trkpt>
      <trkpt lat="42.964482139796019" lon="13.284733816981316">
        <ele>1275.5599999999999</ele>
        <time>2019-06-19T07:15:31Z</time>
      </trkpt>
      <trkpt lat="42.964364374056458" lon="13.284705737605691">
        <ele>1278.1700000000001</ele>
        <time>2019-06-19T07:15:48Z</time>
      </trkpt>
      <trkpt lat="42.964261779561639" lon="13.284670952707529">
        <ele>1280.7</ele>
        <time>2019-06-19T07:16:06Z</time>
      </trkpt>
      <trkpt lat="42.964185839518905" lon="13.284664079546928">
        <ele>1283.03</ele>
        <time>2019-06-19T07:16:20Z</time>
      </trkpt>
      <trkpt lat="42.964108306914568" lon="13.284645304083824">
        <ele>1285.5599999999999</ele>
        <time>2019-06-19T07:16:34Z</time>
      </trkpt>
      <trkpt lat="42.964033707976341" lon="13.284628288820386">
        <ele>1287.7</ele>
        <time>2019-06-19T07:16:48Z</time>
      </trkpt>
      <trkpt lat="42.96394326724112" lon="13.28460305929184">
        <ele>1290.79</ele>
        <time>2019-06-19T07:17:06Z</time>
      </trkpt>
      <trkpt lat="42.963856179267168" lon="13.284587888047099">
        <ele>1293.4200000000001</ele>
        <time>2019-06-19T07:17:23Z</time>
      </trkpt>
      <trkpt lat="42.963782921433449" lon="13.284557713195682">
        <ele>1295.8499999999999</ele>
        <time>2019-06-19T07:17:39Z</time>
      </trkpt>
      <trkpt lat="42.96370480209589" lon="13.284551678225398">
        <ele>1297.98</ele>
        <time>2019-06-19T07:17:52Z</time>
      </trkpt>
      <trkpt lat="42.963654594495893" lon="13.284513372927904">
        <ele>1299.78</ele>
        <time>2019-06-19T07:18:06Z</time>
      </trkpt>
      <trkpt lat="42.963594328612089" lon="13.284482946619391">
        <ele>1301.8699999999999</ele>
        <time>2019-06-19T07:18:19Z</time>
      </trkpt>
      <trkpt lat="42.96350346878171" lon="13.28444816172123">
        <ele>1304.77</ele>
        <time>2019-06-19T07:18:37Z</time>
      </trkpt>
      <trkpt lat="42.963435407727957" lon="13.284444389864802">
        <ele>1306.54</ele>
        <time>2019-06-19T07:18:50Z</time>
      </trkpt>
      <trkpt lat="42.963373716920614" lon="13.284431817010045">
        <ele>1308.46</ele>
        <time>2019-06-19T07:19:04Z</time>
      </trkpt>
      <trkpt lat="42.963296268135309" lon="13.284416981041431">
        <ele>1311.3900000000001</ele>
        <time>2019-06-19T07:19:21Z</time>
      </trkpt>
      <trkpt lat="42.963235918432474" lon="13.284374736249447">
        <ele>1314.3599999999999</ele>
        <time>2019-06-19T07:19:38Z</time>
      </trkpt>
      <trkpt lat="42.963160648941994" lon="13.284347914159298">
        <ele>1316.95</ele>
        <time>2019-06-19T07:19:54Z</time>
      </trkpt>
      <trkpt lat="42.963075321167707" lon="13.284318074584007">
        <ele>1319.96</ele>
        <time>2019-06-19T07:20:11Z</time>
      </trkpt>
      <trkpt lat="42.963004410266876" lon="13.284298628568649">
        <ele>1322.1600000000001</ele>
        <time>2019-06-19T07:20:26Z</time>
      </trkpt>
      <trkpt lat="42.962910952046514" lon="13.284233333542943">
        <ele>1325.1900000000001</ele>
        <time>2019-06-19T07:20:46Z</time>
      </trkpt>
      <trkpt lat="42.962914556264877" lon="13.284165440127254">
        <ele>1327.49</ele>
        <time>2019-06-19T07:21:01Z</time>
      </trkpt>
      <trkpt lat="42.962953867390752" lon="13.284099558368325">
        <ele>1329.75</ele>
        <time>2019-06-19T07:21:15Z</time>
      </trkpt>
      <trkpt lat="42.962988317012787" lon="13.284037113189697">
        <ele>1332.6099999999999</ele>
        <time>2019-06-19T07:21:30Z</time>
      </trkpt>
      <trkpt lat="42.963018324226141" lon="13.28397617675364">
        <ele>1335.1900000000001</ele>
        <time>2019-06-19T07:21:43Z</time>
      </trkpt>
      <trkpt lat="42.963056294247508" lon="13.283910462632775">
        <ele>1337.51</ele>
        <time>2019-06-19T07:22:00Z</time>
      </trkpt>
      <trkpt lat="42.963113961741328" lon="13.283845419064164">
        <ele>1340.3900000000001</ele>
        <time>2019-06-19T07:22:16Z</time>
      </trkpt>
      <trkpt lat="42.963169952854514" lon="13.283768892288208">
        <ele>1342.6800000000001</ele>
        <time>2019-06-19T07:22:33Z</time>
      </trkpt>
      <trkpt lat="42.963235164061189" lon="13.283710638061166">
        <ele>1345.8599999999999</ele>
        <time>2019-06-19T07:22:49Z</time>
      </trkpt>
      <trkpt lat="42.963251424953341" lon="13.283658921718597">
        <ele>1346.8099999999999</ele>
        <time>2019-06-19T07:23:01Z</time>
      </trkpt>
      <trkpt lat="42.963312696665525" lon="13.283565882593393">
        <ele>1349.4200000000001</ele>
        <time>2019-06-19T07:23:19Z</time>
      </trkpt>
      <trkpt lat="42.963393246755004" lon="13.283467814326286">
        <ele>1352.3800000000001</ele>
        <time>2019-06-19T07:23:39Z</time>
      </trkpt>
      <trkpt lat="42.96344680711627" lon="13.283377373591065">
        <ele>1354.6500000000001</ele>
        <time>2019-06-19T07:23:55Z</time>
      </trkpt>
      <trkpt lat="42.963506821542978" lon="13.283291542902589">
        <ele>1356.78</ele>
        <time>2019-06-19T07:24:11Z</time>
      </trkpt>
      <trkpt lat="42.963584521785378" lon="13.283184757456183">
        <ele>1359.46</ele>
        <time>2019-06-19T07:24:30Z</time>
      </trkpt>
      <trkpt lat="42.963642608374357" lon="13.283097585663199">
        <ele>1361.6600000000001</ele>
        <time>2019-06-19T07:24:47Z</time>
      </trkpt>
      <trkpt lat="42.963697845116258" lon="13.283007983118296">
        <ele>1363.72</ele>
        <time>2019-06-19T07:25:04Z</time>
      </trkpt>
      <trkpt lat="42.963760625571012" lon="13.282918967306614">
        <ele>1366.22</ele>
        <time>2019-06-19T07:25:20Z</time>
      </trkpt>
      <trkpt lat="42.963819298893213" lon="13.282818803563714">
        <ele>1369.02</ele>
        <time>2019-06-19T07:25:36Z</time>
      </trkpt>
      <trkpt lat="42.963805217295885" lon="13.282742695882916">
        <ele>1371.1700000000001</ele>
        <time>2019-06-19T07:25:53Z</time>
      </trkpt>
      <trkpt lat="42.963803792372346" lon="13.28267689794302">
        <ele>1373.4100000000001</ele>
        <time>2019-06-19T07:26:06Z</time>
      </trkpt>
      <trkpt lat="42.963828854262829" lon="13.282617218792439">
        <ele>1375.97</ele>
        <time>2019-06-19T07:26:19Z</time>
      </trkpt>
      <trkpt lat="42.963862717151642" lon="13.282526778057218">
        <ele>1378.6600000000001</ele>
        <time>2019-06-19T07:26:37Z</time>
      </trkpt>
      <trkpt lat="42.96388166025281" lon="13.282474558800459">
        <ele>1380.78</ele>
        <time>2019-06-19T07:26:49Z</time>
      </trkpt>
      <trkpt lat="42.963920887559652" lon="13.282398702576756">
        <ele>1383.4000000000001</ele>
        <time>2019-06-19T07:27:04Z</time>
      </trkpt>
      <trkpt lat="42.963920552283525" lon="13.282316224649549">
        <ele>1385.3699999999999</ele>
        <time>2019-06-19T07:27:17Z</time>
      </trkpt>
      <trkpt lat="42.963963216170669" lon="13.282270208001137">
        <ele>1388.1099999999999</ele>
        <time>2019-06-19T07:27:30Z</time>
      </trkpt>
      <trkpt lat="42.964001353830099" lon="13.282211786136031">
        <ele>1390.6700000000001</ele>
        <time>2019-06-19T07:27:46Z</time>
      </trkpt>
      <trkpt lat="42.96403362415731" lon="13.282143976539373">
        <ele>1392.5999999999999</ele>
        <time>2019-06-19T07:28:01Z</time>
      </trkpt>
      <trkpt lat="42.964064218103886" lon="13.282066443935037">
        <ele>1394.8199999999999</ele>
        <time>2019-06-19T07:28:16Z</time>
      </trkpt>
      <trkpt lat="42.964107552543283" lon="13.281992180272937">
        <ele>1397.0799999999999</ele>
        <time>2019-06-19T07:28:32Z</time>
      </trkpt>
      <trkpt lat="42.964140325784683" lon="13.281917413696647">
        <ele>1399.25</ele>
        <time>2019-06-19T07:28:47Z</time>
      </trkpt>
      <trkpt lat="42.964172763749957" lon="13.281879276037216">
        <ele>1400.53</ele>
        <time>2019-06-19T07:29:02Z</time>
      </trkpt>
      <trkpt lat="42.964198077097535" lon="13.281798223033547">
        <ele>1403.1300000000001</ele>
        <time>2019-06-19T07:29:18Z</time>
      </trkpt>
      <trkpt lat="42.964246105402708" lon="13.281728401780128">
        <ele>1405.71</ele>
        <time>2019-06-19T07:29:35Z</time>
      </trkpt>
      <trkpt lat="42.964278543367982" lon="13.281622622162104">
        <ele>1405.6800000000001</ele>
        <time>2019-06-19T07:29:55Z</time>
      </trkpt>
      <trkpt lat="42.964296899735928" lon="13.281603008508682">
        <ele>1409.8599999999999</ele>
        <time>2019-06-19T07:29:59Z</time>
      </trkpt>
      <trkpt lat="42.964300671592355" lon="13.281599907204509">
        <ele>1409.8699999999999</ele>
        <time>2019-06-19T07:30:00Z</time>
      </trkpt>
      <trkpt lat="42.964359931647778" lon="13.281525727361441">
        <ele>1412.5899999999999</ele>
        <time>2019-06-19T07:30:16Z</time>
      </trkpt>
      <trkpt lat="42.964420532807708" lon="13.281469736248255">
        <ele>1413.6800000000001</ele>
        <time>2019-06-19T07:30:31Z</time>
      </trkpt>
      <trkpt lat="42.964466968551278" lon="13.281386252492666">
        <ele>1416.49</ele>
        <time>2019-06-19T07:30:50Z</time>
      </trkpt>
      <trkpt lat="42.964506112039089" lon="13.281334200873971">
        <ele>1418.8099999999999</ele>
        <time>2019-06-19T07:31:04Z</time>
      </trkpt>
      <trkpt lat="42.96456528827548" lon="13.281246526166797">
        <ele>1421.8199999999999</ele>
        <time>2019-06-19T07:31:23Z</time>
      </trkpt>
      <trkpt lat="42.964618429541588" lon="13.281175699084997">
        <ele>1425.03</ele>
        <time>2019-06-19T07:31:39Z</time>
      </trkpt>
      <trkpt lat="42.964651118963957" lon="13.281121300533414">
        <ele>1426.6800000000001</ele>
        <time>2019-06-19T07:31:53Z</time>
      </trkpt>
      <trkpt lat="42.964700488373637" lon="13.281077211722732">
        <ele>1427.9300000000001</ele>
        <time>2019-06-19T07:32:08Z</time>
      </trkpt>
      <trkpt lat="42.964756647124887" lon="13.281035050749779">
        <ele>1430.5599999999999</ele>
        <time>2019-06-19T07:32:24Z</time>
      </trkpt>
      <trkpt lat="42.964806519448757" lon="13.280956177040935">
        <ele>1433.53</ele>
        <time>2019-06-19T07:32:42Z</time>
      </trkpt>
      <trkpt lat="42.964875753968954" lon="13.2808509003371">
        <ele>1436.5599999999999</ele>
        <time>2019-06-19T07:33:01Z</time>
      </trkpt>
      <trkpt lat="42.964967954903841" lon="13.280769679695368">
        <ele>1439.6099999999999</ele>
        <time>2019-06-19T07:33:20Z</time>
      </trkpt>
      <trkpt lat="42.965036518871784" lon="13.280679574236274">
        <ele>1442.1800000000001</ele>
        <time>2019-06-19T07:33:37Z</time>
      </trkpt>
      <trkpt lat="42.965101562440395" lon="13.280569352209568">
        <ele>1444.5999999999999</ele>
        <time>2019-06-19T07:33:55Z</time>
      </trkpt>
      <trkpt lat="42.9651790112257" lon="13.280456112697721">
        <ele>1447.0899999999999</ele>
        <time>2019-06-19T07:34:13Z</time>
      </trkpt>
      <trkpt lat="42.965279677882791" lon="13.280407581478357">
        <ele>1448.6300000000001</ele>
        <time>2019-06-19T07:34:28Z</time>
      </trkpt>
      <trkpt lat="42.965364838019013" lon="13.280317895114422">
        <ele>1451.75</ele>
        <time>2019-06-19T07:34:48Z</time>
      </trkpt>
      <trkpt lat="42.965461732819676" lon="13.280277410522103">
        <ele>1452.97</ele>
        <time>2019-06-19T07:35:01Z</time>
      </trkpt>
      <trkpt lat="42.965552089735866" lon="13.280189149081707">
        <ele>1455.3800000000001</ele>
        <time>2019-06-19T07:35:20Z</time>
      </trkpt>
      <trkpt lat="42.965609421953559" lon="13.280135756358504">
        <ele>1457.6800000000001</ele>
        <time>2019-06-19T07:35:35Z</time>
      </trkpt>
      <trkpt lat="42.965617971494794" lon="13.280065599828959">
        <ele>1460.21</ele>
        <time>2019-06-19T07:35:51Z</time>
      </trkpt>
      <trkpt lat="42.965670274570584" lon="13.28003047965467">
        <ele>1462.0799999999999</ele>
        <time>2019-06-19T07:36:07Z</time>
      </trkpt>
      <trkpt lat="42.965744957327843" lon="13.27996795065701">
        <ele>1463.3399999999999</ele>
        <time>2019-06-19T07:36:22Z</time>
      </trkpt>
      <trkpt lat="42.965822406113148" lon="13.279923861846328">
        <ele>1464.1500000000001</ele>
        <time>2019-06-19T07:36:34Z</time>
      </trkpt>
      <trkpt lat="42.965872194617987" lon="13.279892513528466">
        <ele>1465.0999999999999</ele>
        <time>2019-06-19T07:36:43Z</time>
      </trkpt>
      <trkpt lat="42.965971603989601" lon="13.279886143282056">
        <ele>1466.1400000000001</ele>
        <time>2019-06-19T07:36:56Z</time>
      </trkpt>
      <trkpt lat="42.966051315888762" lon="13.279874324798584">
        <ele>1467.77</ele>
        <time>2019-06-19T07:37:11Z</time>
      </trkpt>
      <trkpt lat="42.966129016131163" lon="13.27985898591578">
        <ele>1470.3599999999999</ele>
        <time>2019-06-19T07:37:26Z</time>
      </trkpt>
      <trkpt lat="42.966205207630992" lon="13.279823446646333">
        <ele>1472.21</ele>
        <time>2019-06-19T07:37:40Z</time>
      </trkpt>
      <trkpt lat="42.9663170222193" lon="13.279754631221294">
        <ele>1474.1099999999999</ele>
        <time>2019-06-19T07:37:57Z</time>
      </trkpt>
      <trkpt lat="42.966395225375891" lon="13.279733005911112">
        <ele>1475.0699999999999</ele>
        <time>2019-06-19T07:38:07Z</time>
      </trkpt>
      <trkpt lat="42.96650217846036" lon="13.279707189649343">
        <ele>1475.72</ele>
        <time>2019-06-19T07:38:20Z</time>
      </trkpt>
      <trkpt lat="42.966581722721457" lon="13.279658071696758">
        <ele>1476.78</ele>
        <time>2019-06-19T07:38:31Z</time>
      </trkpt>
      <trkpt lat="42.966677192598581" lon="13.279597302898765">
        <ele>1476.75</ele>
        <time>2019-06-19T07:38:44Z</time>
      </trkpt>
      <trkpt lat="42.966816499829292" lon="13.279515076428652">
        <ele>1476.8199999999999</ele>
        <time>2019-06-19T07:39:02Z</time>
      </trkpt>
      <trkpt lat="42.966929823160172" lon="13.279448691755533">
        <ele>1478.8099999999999</ele>
        <time>2019-06-19T07:39:15Z</time>
      </trkpt>
      <trkpt lat="42.967031328007579" lon="13.279380546882749">
        <ele>1480.5799999999999</ele>
        <time>2019-06-19T07:39:29Z</time>
      </trkpt>
      <trkpt lat="42.967135347425938" lon="13.279316173866391">
        <ele>1482.6500000000001</ele>
        <time>2019-06-19T07:39:44Z</time>
      </trkpt>
      <trkpt lat="42.967239785939455" lon="13.27921936288476">
        <ele>1484.46</ele>
        <time>2019-06-19T07:40:00Z</time>
      </trkpt>
      <trkpt lat="42.967265518382192" lon="13.279197905212641">
        <ele>1484.3599999999999</ele>
        <time>2019-06-19T07:40:12Z</time>
      </trkpt>
      <trkpt lat="42.967280354350805" lon="13.279187260195613">
        <ele>1484.77</ele>
        <time>2019-06-19T07:40:14Z</time>
      </trkpt>
      <trkpt lat="42.967324526980519" lon="13.279171753674746">
        <ele>1485.02</ele>
        <time>2019-06-19T07:40:19Z</time>
      </trkpt>
      <trkpt lat="42.96748680062592" lon="13.279114169999957">
        <ele>1485.9000000000001</ele>
        <time>2019-06-19T07:40:36Z</time>
      </trkpt>
      <trkpt lat="42.967615127563477" lon="13.279055831953883">
        <ele>1486.71</ele>
        <time>2019-06-19T07:40:49Z</time>
      </trkpt>
      <trkpt lat="42.967749154195189" lon="13.278977377340198">
        <ele>1488.3399999999999</ele>
        <time>2019-06-19T07:41:04Z</time>
      </trkpt>
      <trkpt lat="42.967878906056285" lon="13.278903029859066">
        <ele>1489.23</ele>
        <time>2019-06-19T07:41:19Z</time>
      </trkpt>
      <trkpt lat="42.968001030385494" lon="13.27887486666441">
        <ele>1491.3699999999999</ele>
        <time>2019-06-19T07:41:35Z</time>
      </trkpt>
      <trkpt lat="42.968161208555102" lon="13.278851145878434">
        <ele>1491.3399999999999</ele>
        <time>2019-06-19T07:41:52Z</time>
      </trkpt>
      <trkpt lat="42.968252152204514" lon="13.278812672942877">
        <ele>1492.02</ele>
        <time>2019-06-19T07:42:06Z</time>
      </trkpt>
      <trkpt lat="42.968308143317699" lon="13.278775624930859">
        <ele>1492.9400000000001</ele>
        <time>2019-06-19T07:42:19Z</time>
      </trkpt>
      <trkpt lat="42.968461448326707" lon="13.278697421774268">
        <ele>1494.4200000000001</ele>
        <time>2019-06-19T07:42:36Z</time>
      </trkpt>
      <trkpt lat="42.968569742515683" lon="13.278635898604989">
        <ele>1495.8</ele>
        <time>2019-06-19T07:42:49Z</time>
      </trkpt>
      <trkpt lat="42.968711145222187" lon="13.27855970710516">
        <ele>1497.75</ele>
        <time>2019-06-19T07:43:06Z</time>
      </trkpt>
      <trkpt lat="42.968855816870928" lon="13.27846541069448">
        <ele>1500.23</ele>
        <time>2019-06-19T07:43:26Z</time>
      </trkpt>
      <trkpt lat="42.968962686136365" lon="13.278403468430042">
        <ele>1501.99</ele>
        <time>2019-06-19T07:43:41Z</time>
      </trkpt>
      <trkpt lat="42.968985233455896" lon="13.278391566127539">
        <ele>1502.25</ele>
        <time>2019-06-19T07:43:44Z</time>
      </trkpt>
      <trkpt lat="42.969086151570082" lon="13.278338341042399">
        <ele>1503.8800000000001</ele>
        <time>2019-06-19T07:43:59Z</time>
      </trkpt>
      <trkpt lat="42.969180531799793" lon="13.27828268520534">
        <ele>1505.3499999999999</ele>
        <time>2019-06-19T07:44:13Z</time>
      </trkpt>
      <trkpt lat="42.969290837645531" lon="13.278182437643409">
        <ele>1508.1600000000001</ele>
        <time>2019-06-19T07:44:32Z</time>
      </trkpt>
      <trkpt lat="42.969398964196444" lon="13.278084117919207">
        <ele>1509.98</ele>
        <time>2019-06-19T07:44:51Z</time>
      </trkpt>
      <trkpt lat="42.969479346647859" lon="13.277975572273135">
        <ele>1512.9000000000001</ele>
        <time>2019-06-19T07:45:10Z</time>
      </trkpt>
      <trkpt lat="42.96955855563283" lon="13.277867780998349">
        <ele>1515.52</ele>
        <time>2019-06-19T07:45:28Z</time>
      </trkpt>
      <trkpt lat="42.969628544524312" lon="13.277795864269137">
        <ele>1517.6800000000001</ele>
        <time>2019-06-19T07:45:43Z</time>
      </trkpt>
      <trkpt lat="42.969685709103942" lon="13.277689917013049">
        <ele>1520.3499999999999</ele>
        <time>2019-06-19T07:45:59Z</time>
      </trkpt>
      <trkpt lat="42.969752848148346" lon="13.277584556490183">
        <ele>1523.4000000000001</ele>
        <time>2019-06-19T07:46:17Z</time>
      </trkpt>
      <trkpt lat="42.969823088496923" lon="13.277486655861139">
        <ele>1525.8</ele>
        <time>2019-06-19T07:46:35Z</time>
      </trkpt>
      <trkpt lat="42.969884360209107" lon="13.277379451319575">
        <ele>1528.1099999999999</ele>
        <time>2019-06-19T07:46:53Z</time>
      </trkpt>
      <trkpt lat="42.969958875328302" lon="13.277272079139948">
        <ele>1531.0999999999999</ele>
        <time>2019-06-19T07:47:13Z</time>
      </trkpt>
      <trkpt lat="42.970023332163692" lon="13.277167556807399">
        <ele>1533.8599999999999</ele>
        <time>2019-06-19T07:47:32Z</time>
      </trkpt>
      <trkpt lat="42.970079071819782" lon="13.277074014768004">
        <ele>1536.9000000000001</ele>
        <time>2019-06-19T07:47:49Z</time>
      </trkpt>
      <trkpt lat="42.970143612474203" lon="13.276985250413418">
        <ele>1539.27</ele>
        <time>2019-06-19T07:48:07Z</time>
      </trkpt>
      <trkpt lat="42.970208907499909" lon="13.276896150782704">
        <ele>1541.6099999999999</ele>
        <time>2019-06-19T07:48:22Z</time>
      </trkpt>
      <trkpt lat="42.970278225839138" lon="13.276798333972692">
        <ele>1544.75</ele>
        <time>2019-06-19T07:48:40Z</time>
      </trkpt>
      <trkpt lat="42.970337402075529" lon="13.276698002591729">
        <ele>1547.52</ele>
        <time>2019-06-19T07:48:59Z</time>
      </trkpt>
      <trkpt lat="42.970319045707583" lon="13.276656763628125">
        <ele>1549.0599999999999</ele>
        <time>2019-06-19T07:49:12Z</time>
      </trkpt>
      <trkpt lat="42.970323069021106" lon="13.276638658717275">
        <ele>1548.26</ele>
        <time>2019-06-19T07:49:22Z</time>
      </trkpt>
      <trkpt lat="42.970312172546983" lon="13.276640502735972">
        <ele>1548.28</ele>
        <time>2019-06-19T07:49:42Z</time>
      </trkpt>
      <trkpt lat="42.970317536965013" lon="13.276643184944987">
        <ele>1548.0699999999999</ele>
        <time>2019-06-19T07:50:06Z</time>
      </trkpt>
      <trkpt lat="42.970329020172358" lon="13.276643101125956">
        <ele>1548.1099999999999</ele>
        <time>2019-06-19T07:50:51Z</time>
      </trkpt>
      <trkpt lat="42.970327930524945" lon="13.276636563241482">
        <ele>1548.4400000000001</ele>
        <time>2019-06-19T07:51:54Z</time>
      </trkpt>
      <trkpt lat="42.970329439267516" lon="13.276630695909262">
        <ele>1548.5999999999999</ele>
        <time>2019-06-19T07:52:54Z</time>
      </trkpt>
      <trkpt lat="42.970329271629453" lon="13.276633797213435">
        <ele>1548.6400000000001</ele>
        <time>2019-06-19T07:54:00Z</time>
      </trkpt>
      <trkpt lat="42.970328517258167" lon="13.27663891017437">
        <ele>1548.8</ele>
        <time>2019-06-19T07:55:05Z</time>
      </trkpt>
      <trkpt lat="42.970329271629453" lon="13.276634132489562">
        <ele>1548.9000000000001</ele>
        <time>2019-06-19T07:56:22Z</time>
      </trkpt>
      <trkpt lat="42.970333965495229" lon="13.276634467765689">
        <ele>1549.05</ele>
        <time>2019-06-19T07:57:35Z</time>
      </trkpt>
      <trkpt lat="42.97033061273396" lon="13.276635054498911">
        <ele>1548.98</ele>
        <time>2019-06-19T07:58:53Z</time>
      </trkpt>
      <trkpt lat="42.970332624390721" lon="13.27663304284215">
        <ele>1549.5</ele>
        <time>2019-06-19T08:00:08Z</time>
      </trkpt>
      <trkpt lat="42.970329690724611" lon="13.276628600433469">
        <ele>1549.3099999999999</ele>
        <time>2019-06-19T08:00:57Z</time>
      </trkpt>
      <trkpt lat="42.970331367105246" lon="13.276634216308594">
        <ele>1549.51</ele>
        <time>2019-06-19T08:02:11Z</time>
      </trkpt>
      <trkpt lat="42.970319632440805" lon="13.276656428351998">
        <ele>1550.1300000000001</ele>
        <time>2019-06-19T08:02:48Z</time>
      </trkpt>
      <trkpt lat="42.970325751230121" lon="13.276654165238142">
        <ele>1550.49</ele>
        <time>2019-06-19T08:03:06Z</time>
      </trkpt>
      <trkpt lat="42.970301527529955" lon="13.27664578333497">
        <ele>1550.8699999999999</ele>
        <time>2019-06-19T08:03:23Z</time>
      </trkpt>
      <trkpt lat="42.97024360857904" lon="13.276619799435139">
        <ele>1552.8499999999999</ele>
        <time>2019-06-19T08:03:39Z</time>
      </trkpt>
      <trkpt lat="42.970179487019777" lon="13.276621643453836">
        <ele>1554.5899999999999</ele>
        <time>2019-06-19T08:03:53Z</time>
      </trkpt>
      <trkpt lat="42.970109414309263" lon="13.276598593220115">
        <ele>1557.24</ele>
        <time>2019-06-19T08:04:09Z</time>
      </trkpt>
      <trkpt lat="42.970042442902923" lon="13.276573112234473">
        <ele>1559.7</ele>
        <time>2019-06-19T08:04:25Z</time>
      </trkpt>
      <trkpt lat="42.969968263059855" lon="13.276574872434139">
        <ele>1561.8499999999999</ele>
        <time>2019-06-19T08:04:41Z</time>
      </trkpt>
      <trkpt lat="42.969895005226135" lon="13.276586858555675">
        <ele>1564.01</ele>
        <time>2019-06-19T08:04:56Z</time>
      </trkpt>
      <trkpt lat="42.969828369095922" lon="13.276592390611768">
        <ele>1566.6300000000001</ele>
        <time>2019-06-19T08:05:12Z</time>
      </trkpt>
      <trkpt lat="42.969778245314956" lon="13.276591133326292">
        <ele>1568.5599999999999</ele>
        <time>2019-06-19T08:05:25Z</time>
      </trkpt>
      <trkpt lat="42.96973398886621" lon="13.276581829413772">
        <ele>1569.8199999999999</ele>
        <time>2019-06-19T08:05:39Z</time>
      </trkpt>
      <trkpt lat="42.969693755730987" lon="13.276557857170701">
        <ele>1571.9100000000001</ele>
        <time>2019-06-19T08:05:52Z</time>
      </trkpt>
      <trkpt lat="42.969670202583075" lon="13.276503207162023">
        <ele>1573.6800000000001</ele>
        <time>2019-06-19T08:06:06Z</time>
      </trkpt>
      <trkpt lat="42.969687636941671" lon="13.276456017047167">
        <ele>1575.1900000000001</ele>
        <time>2019-06-19T08:06:19Z</time>
      </trkpt>
      <trkpt lat="42.969680344685912" lon="13.276446042582393">
        <ele>1574.9000000000001</ele>
        <time>2019-06-19T08:06:34Z</time>
      </trkpt>
      <trkpt lat="42.969718314707279" lon="13.2763955835253">
        <ele>1576.6700000000001</ele>
        <time>2019-06-19T08:06:49Z</time>
      </trkpt>
      <trkpt lat="42.969758212566376" lon="13.276324924081564">
        <ele>1579.47</ele>
        <time>2019-06-19T08:07:07Z</time>
      </trkpt>
      <trkpt lat="42.969794757664204" lon="13.27625535428524">
        <ele>1582.0799999999999</ele>
        <time>2019-06-19T08:07:21Z</time>
      </trkpt>
      <trkpt lat="42.969831805676222" lon="13.276204979047179">
        <ele>1584.1700000000001</ele>
        <time>2019-06-19T08:07:35Z</time>
      </trkpt>
      <trkpt lat="42.969882600009441" lon="13.27617128379643">
        <ele>1585.6400000000001</ele>
        <time>2019-06-19T08:07:49Z</time>
      </trkpt>
      <trkpt lat="42.969913864508271" lon="13.276128033176064">
        <ele>1587.3499999999999</ele>
        <time>2019-06-19T08:08:04Z</time>
      </trkpt>
      <trkpt lat="42.969922665506601" lon="13.276062654331326">
        <ele>1589.53</ele>
        <time>2019-06-19T08:08:16Z</time>
      </trkpt>
      <trkpt lat="42.969959462061524" lon="13.275996185839176">
        <ele>1591.72</ele>
        <time>2019-06-19T08:08:30Z</time>
      </trkpt>
      <trkpt lat="42.969992822036147" lon="13.275921000167727">
        <ele>1593.3399999999999</ele>
        <time>2019-06-19T08:08:43Z</time>
      </trkpt>
      <trkpt lat="42.9700384195894" lon="13.275837013497949">
        <ele>1595.46</ele>
        <time>2019-06-19T08:08:59Z</time>
      </trkpt>
      <trkpt lat="42.970095332711935" lon="13.27575696632266">
        <ele>1597.3699999999999</ele>
        <time>2019-06-19T08:09:14Z</time>
      </trkpt>
      <trkpt lat="42.970144953578711" lon="13.275660239160061">
        <ele>1599</ele>
        <time>2019-06-19T08:09:29Z</time>
      </trkpt>
      <trkpt lat="42.970195999369025" lon="13.27557859942317">
        <ele>1601.1300000000001</ele>
        <time>2019-06-19T08:09:43Z</time>
      </trkpt>
      <trkpt lat="42.970238579437137" lon="13.275477848947048">
        <ele>1603</ele>
        <time>2019-06-19T08:09:58Z</time>
      </trkpt>
      <trkpt lat="42.97023631632328" lon="13.275379361584783">
        <ele>1605.0799999999999</ele>
        <time>2019-06-19T08:10:12Z</time>
      </trkpt>
      <trkpt lat="42.970188539475203" lon="13.275318760424852">
        <ele>1607.46</ele>
        <time>2019-06-19T08:10:28Z</time>
      </trkpt>
      <trkpt lat="42.970124501734972" lon="13.275331249460578">
        <ele>1609.75</ele>
        <time>2019-06-19T08:10:42Z</time>
      </trkpt>
      <trkpt lat="42.970054261386395" lon="13.275353880599141">
        <ele>1611.73</ele>
        <time>2019-06-19T08:10:58Z</time>
      </trkpt>
      <trkpt lat="42.969998018816113" lon="13.275356143712997">
        <ele>1613.3900000000001</ele>
        <time>2019-06-19T08:11:10Z</time>
      </trkpt>
      <trkpt lat="42.969925599172711" lon="13.275340804830194">
        <ele>1615.3099999999999</ele>
        <time>2019-06-19T08:11:26Z</time>
      </trkpt>
      <trkpt lat="42.969864327460527" lon="13.275333428755403">
        <ele>1617.0599999999999</ele>
        <time>2019-06-19T08:11:40Z</time>
      </trkpt>
      <trkpt lat="42.969832643866539" lon="13.275241646915674">
        <ele>1619.51</ele>
        <time>2019-06-19T08:11:55Z</time>
      </trkpt>
      <trkpt lat="42.969815880060196" lon="13.275149445980787">
        <ele>1621.8800000000001</ele>
        <time>2019-06-19T08:12:09Z</time>
      </trkpt>
      <trkpt lat="42.969803055748343" lon="13.27503670938313">
        <ele>1624.0999999999999</ele>
        <time>2019-06-19T08:12:25Z</time>
      </trkpt>
      <trkpt lat="42.969810348004103" lon="13.274906957522035">
        <ele>1626.5</ele>
        <time>2019-06-19T08:12:42Z</time>
      </trkpt>
      <trkpt lat="42.969826692715287" lon="13.274789275601506">
        <ele>1628.8499999999999</ele>
        <time>2019-06-19T08:12:57Z</time>
      </trkpt>
      <trkpt lat="42.969846222549677" lon="13.27468634583056">
        <ele>1630.9300000000001</ele>
        <time>2019-06-19T08:13:12Z</time>
      </trkpt>
      <trkpt lat="42.969875894486904" lon="13.274582326412201">
        <ele>1632.9100000000001</ele>
        <time>2019-06-19T08:13:28Z</time>
      </trkpt>
      <trkpt lat="42.969904141500592" lon="13.274466739967465">
        <ele>1634.8699999999999</ele>
        <time>2019-06-19T08:13:43Z</time>
      </trkpt>
      <trkpt lat="42.969922414049506" lon="13.274332378059626">
        <ele>1637.1300000000001</ele>
        <time>2019-06-19T08:13:59Z</time>
      </trkpt>
      <trkpt lat="42.969946805387735" lon="13.274198183789849">
        <ele>1639.23</ele>
        <time>2019-06-19T08:14:15Z</time>
      </trkpt>
      <trkpt lat="42.969975555315614" lon="13.274063402786851">
        <ele>1641.1800000000001</ele>
        <time>2019-06-19T08:14:31Z</time>
      </trkpt>
      <trkpt lat="42.970012435689569" lon="13.273969274014235">
        <ele>1643.23</ele>
        <time>2019-06-19T08:14:45Z</time>
      </trkpt>
      <trkpt lat="42.970054093748331" lon="13.273841617628932">
        <ele>1644.95</ele>
        <time>2019-06-19T08:15:01Z</time>
      </trkpt>
      <trkpt lat="42.970073875039816" lon="13.273736173287034">
        <ele>1647.0899999999999</ele>
        <time>2019-06-19T08:15:15Z</time>
      </trkpt>
      <trkpt lat="42.970058703795075" lon="13.273621508851647">
        <ele>1648.26</ele>
        <time>2019-06-19T08:15:30Z</time>
      </trkpt>
      <trkpt lat="42.970005227252841" lon="13.273525200784206">
        <ele>1650.47</ele>
        <time>2019-06-19T08:15:44Z</time>
      </trkpt>
      <trkpt lat="42.969955438748002" lon="13.273457223549485">
        <ele>1652.0899999999999</ele>
        <time>2019-06-19T08:15:56Z</time>
      </trkpt>
      <trkpt lat="42.969892155379057" lon="13.27337583526969">
        <ele>1654.0599999999999</ele>
        <time>2019-06-19T08:16:11Z</time>
      </trkpt>
      <trkpt lat="42.969817472621799" lon="13.273254884406924">
        <ele>1656.9400000000001</ele>
        <time>2019-06-19T08:16:29Z</time>
      </trkpt>
      <trkpt lat="42.969771875068545" lon="13.273140890523791">
        <ele>1658.1199999999999</ele>
        <time>2019-06-19T08:16:43Z</time>
      </trkpt>
      <trkpt lat="42.969751255586743" lon="13.273037374019623">
        <ele>1660.5999999999999</ele>
        <time>2019-06-19T08:16:57Z</time>
      </trkpt>
      <trkpt lat="42.96972619369626" lon="13.272959170863032">
        <ele>1661.4100000000001</ele>
        <time>2019-06-19T08:17:08Z</time>
      </trkpt>
      <trkpt lat="42.96973055228591" lon="13.272932935506105">
        <ele>1661.6800000000001</ele>
        <time>2019-06-19T08:17:25Z</time>
      </trkpt>
      <trkpt lat="42.969809593632817" lon="13.272875100374222">
        <ele>1662.6800000000001</ele>
        <time>2019-06-19T08:17:41Z</time>
      </trkpt>
      <trkpt lat="42.969830213114619" lon="13.272867975756526">
        <ele>1663.1700000000001</ele>
        <time>2019-06-19T08:17:54Z</time>
      </trkpt>
      <trkpt lat="42.969939513131976" lon="13.27282858081162">
        <ele>1663.3699999999999</ele>
        <time>2019-06-19T08:18:10Z</time>
      </trkpt>
      <trkpt lat="42.969901626929641" lon="13.27281785197556">
        <ele>1663.54</ele>
        <time>2019-06-19T08:18:20Z</time>
      </trkpt>
      <trkpt lat="42.969738431274891" lon="13.272877028211951">
        <ele>1663.5699999999999</ele>
        <time>2019-06-19T08:18:38Z</time>
      </trkpt>
      <trkpt lat="42.969697192311287" lon="13.272884991019964">
        <ele>1663.5899999999999</ele>
        <time>2019-06-19T08:18:43Z</time>
      </trkpt>
      <trkpt lat="42.969575570896268" lon="13.272856995463371">
        <ele>1662.8099999999999</ele>
        <time>2019-06-19T08:18:57Z</time>
      </trkpt>
      <trkpt lat="42.969502815976739" lon="13.272759178653359">
        <ele>1664.2</ele>
        <time>2019-06-19T08:19:12Z</time>
      </trkpt>
      <trkpt lat="42.969499714672565" lon="13.272652477025986">
        <ele>1666.0999999999999</ele>
        <time>2019-06-19T08:19:25Z</time>
      </trkpt>
      <trkpt lat="42.969518071040511" lon="13.27253881841898">
        <ele>1668.26</ele>
        <time>2019-06-19T08:19:42Z</time>
      </trkpt>
      <trkpt lat="42.969517735764384" lon="13.272538399323821">
        <ele>1668.4400000000001</ele>
        <time>2019-06-19T08:20:08Z</time>
      </trkpt>
      <trkpt lat="42.96952486038208" lon="13.272512666881084">
        <ele>1668.46</ele>
        <time>2019-06-19T08:20:22Z</time>
      </trkpt>
      <trkpt lat="42.969525111839175" lon="13.272509900853038">
        <ele>1669.3</ele>
        <time>2019-06-19T08:20:36Z</time>
      </trkpt>
      <trkpt lat="42.969530476257205" lon="13.272509230300784">
        <ele>1669.55</ele>
        <time>2019-06-19T08:20:53Z</time>
      </trkpt>
      <trkpt lat="42.969526872038841" lon="13.272508224472404">
        <ele>1669.3900000000001</ele>
        <time>2019-06-19T08:21:16Z</time>
      </trkpt>
      <trkpt lat="42.969526033848524" lon="13.272516438737512">
        <ele>1669.24</ele>
        <time>2019-06-19T08:21:30Z</time>
      </trkpt>
      <trkpt lat="42.969546485692263" lon="13.272506380453706">
        <ele>1669.23</ele>
        <time>2019-06-19T08:21:42Z</time>
      </trkpt>
      <trkpt lat="42.969560232013464" lon="13.272484838962555">
        <ele>1669.8299999999999</ele>
        <time>2019-06-19T08:21:44Z</time>
      </trkpt>
      <trkpt lat="42.969576995819807" lon="13.27246212400496">
        <ele>1669.1400000000001</ele>
        <time>2019-06-19T08:21:46Z</time>
      </trkpt>
      <trkpt lat="42.96971932053566" lon="13.272358942776918">
        <ele>1671.1199999999999</ele>
        <time>2019-06-19T08:22:04Z</time>
      </trkpt>
      <trkpt lat="42.969786794856191" lon="13.272360535338521">
        <ele>1673.48</ele>
        <time>2019-06-19T08:22:17Z</time>
      </trkpt>
      <trkpt lat="42.969850664958358" lon="13.27232432551682">
        <ele>1676.74</ele>
        <time>2019-06-19T08:22:30Z</time>
      </trkpt>
      <trkpt lat="42.969886874780059" lon="13.272307058796287">
        <ele>1677.28</ele>
        <time>2019-06-19T08:22:41Z</time>
      </trkpt>
      <trkpt lat="42.969933645799756" lon="13.272219719365239">
        <ele>1678.9100000000001</ele>
        <time>2019-06-19T08:22:54Z</time>
      </trkpt>
      <trkpt lat="42.969991061836481" lon="13.272090554237366">
        <ele>1681.8800000000001</ele>
        <time>2019-06-19T08:23:11Z</time>
      </trkpt>
      <trkpt lat="42.970062643289566" lon="13.2719661667943">
        <ele>1684.6500000000001</ele>
        <time>2019-06-19T08:23:28Z</time>
      </trkpt>
      <trkpt lat="42.970112934708595" lon="13.271909421309829">
        <ele>1685.3499999999999</ele>
        <time>2019-06-19T08:23:42Z</time>
      </trkpt>
      <trkpt lat="42.970110503956676" lon="13.271905649453402">
        <ele>1685.78</ele>
        <time>2019-06-19T08:24:03Z</time>
      </trkpt>
      <trkpt lat="42.97014101408422" lon="13.271902296692133">
        <ele>1686.1199999999999</ele>
        <time>2019-06-19T08:24:15Z</time>
      </trkpt>
      <trkpt lat="42.970157526433468" lon="13.271927358582616">
        <ele>1685.6199999999999</ele>
        <time>2019-06-19T08:24:19Z</time>
      </trkpt>
      <trkpt lat="42.970255427062511" lon="13.271959293633699">
        <ele>1683.3800000000001</ele>
        <time>2019-06-19T08:24:33Z</time>
      </trkpt>
      <trkpt lat="42.970283422619104" lon="13.27195443212986">
        <ele>1683.75</ele>
        <time>2019-06-19T08:24:45Z</time>
      </trkpt>
      <trkpt lat="42.970286943018436" lon="13.271957701072097">
        <ele>1683.8699999999999</ele>
        <time>2019-06-19T08:25:05Z</time>
      </trkpt>
      <trkpt lat="42.970320889726281" lon="13.271927107125521">
        <ele>1684.1500000000001</ele>
        <time>2019-06-19T08:25:14Z</time>
      </trkpt>
      <trkpt lat="42.970341090112925" lon="13.271783357486129">
        <ele>1685.3199999999999</ele>
        <time>2019-06-19T08:25:30Z</time>
      </trkpt>
      <trkpt lat="42.970343772321939" lon="13.271772796288133">
        <ele>1685.1700000000001</ele>
        <time>2019-06-19T08:25:48Z</time>
      </trkpt>
      <trkpt lat="42.970345364883542" lon="13.271770030260086">
        <ele>1685.3599999999999</ele>
        <time>2019-06-19T08:26:10Z</time>
      </trkpt>
      <trkpt lat="42.970339832827449" lon="13.271721331402659">
        <ele>1685.3199999999999</ele>
        <time>2019-06-19T08:26:22Z</time>
      </trkpt>
      <trkpt lat="42.97034963965416" lon="13.271727617830038">
        <ele>1685.3900000000001</ele>
        <time>2019-06-19T08:26:43Z</time>
      </trkpt>
      <trkpt lat="42.970349304378033" lon="13.271726695820689">
        <ele>1685.4000000000001</ele>
        <time>2019-06-19T08:27:01Z</time>
      </trkpt>
      <trkpt lat="42.970347292721272" lon="13.271729042753577">
        <ele>1685.1199999999999</ele>
        <time>2019-06-19T08:27:08Z</time>
      </trkpt>
      <trkpt lat="42.970343185588717" lon="13.27172233723104">
        <ele>1685.8699999999999</ele>
        <time>2019-06-19T08:27:23Z</time>
      </trkpt>
      <trkpt lat="42.970333294942975" lon="13.271706411615014">
        <ele>1685.73</ele>
        <time>2019-06-19T08:27:48Z</time>
      </trkpt>
      <trkpt lat="42.970331367105246" lon="13.271675063297153">
        <ele>1685.73</ele>
        <time>2019-06-19T08:28:07Z</time>
      </trkpt>
      <trkpt lat="42.970353495329618" lon="13.271693252027035">
        <ele>1685.78</ele>
        <time>2019-06-19T08:28:26Z</time>
      </trkpt>
      <trkpt lat="42.970361039042473" lon="13.271772293373942">
        <ele>1685.9400000000001</ele>
        <time>2019-06-19T08:28:37Z</time>
      </trkpt>
      <trkpt lat="42.970353243872523" lon="13.271795678883791">
        <ele>1685.8299999999999</ele>
        <time>2019-06-19T08:28:44Z</time>
      </trkpt>
      <trkpt lat="42.970303036272526" lon="13.271978404372931">
        <ele>1683.9400000000001</ele>
        <time>2019-06-19T08:28:59Z</time>
      </trkpt>
      <trkpt lat="42.970306472852826" lon="13.271980164572597">
        <ele>1684.71</ele>
        <time>2019-06-19T08:29:16Z</time>
      </trkpt>
      <trkpt lat="42.970332624390721" lon="13.271906906738877">
        <ele>1685.1700000000001</ele>
        <time>2019-06-19T08:29:32Z</time>
      </trkpt>
      <trkpt lat="42.970338324084878" lon="13.27172577381134">
        <ele>1686.22</ele>
        <time>2019-06-19T08:29:48Z</time>
      </trkpt>
      <trkpt lat="42.970297588035464" lon="13.27163876965642">
        <ele>1686.54</ele>
        <time>2019-06-19T08:30:02Z</time>
      </trkpt>
      <trkpt lat="42.970294738188386" lon="13.271637680009007">
        <ele>1686.78</ele>
        <time>2019-06-19T08:30:17Z</time>
      </trkpt>
      <trkpt lat="42.970283925533295" lon="13.271549586206675">
        <ele>1686.8599999999999</ele>
        <time>2019-06-19T08:30:28Z</time>
      </trkpt>
      <trkpt lat="42.970247296616435" lon="13.271450428292155">
        <ele>1686.45</ele>
        <time>2019-06-19T08:30:37Z</time>
      </trkpt>
      <trkpt lat="42.970165489241481" lon="13.27123710885644">
        <ele>1687.3699999999999</ele>
        <time>2019-06-19T08:30:56Z</time>
      </trkpt>
      <trkpt lat="42.970100529491901" lon="13.270996296778321">
        <ele>1687.5599999999999</ele>
        <time>2019-06-19T08:31:14Z</time>
      </trkpt>
      <trkpt lat="42.970027523115277" lon="13.270772751420736">
        <ele>1687.0699999999999</ele>
        <time>2019-06-19T08:31:30Z</time>
      </trkpt>
      <trkpt lat="42.969984859228134" lon="13.270542668178678">
        <ele>1687.76</ele>
        <time>2019-06-19T08:31:47Z</time>
      </trkpt>
      <trkpt lat="42.969947643578053" lon="13.270334294065833">
        <ele>1688.6500000000001</ele>
        <time>2019-06-19T08:32:04Z</time>
      </trkpt>
      <trkpt lat="42.969879666343331" lon="13.270118460059166">
        <ele>1689.29</ele>
        <time>2019-06-19T08:32:22Z</time>
      </trkpt>
      <trkpt lat="42.969828369095922" lon="13.269877899438143">
        <ele>1690.4400000000001</ele>
        <time>2019-06-19T08:32:42Z</time>
      </trkpt>
      <trkpt lat="42.969826189801097" lon="13.269866751506925">
        <ele>1690.29</ele>
        <time>2019-06-19T08:32:43Z</time>
      </trkpt>
      <trkpt lat="42.969785369932652" lon="13.269653767347336">
        <ele>1692.24</ele>
        <time>2019-06-19T08:33:01Z</time>
      </trkpt>
      <trkpt lat="42.96971932053566" lon="13.269437849521637">
        <ele>1693.5599999999999</ele>
        <time>2019-06-19T08:33:19Z</time>
      </trkpt>
      <trkpt lat="42.969690822064877" lon="13.26927188783884">
        <ele>1694.3399999999999</ele>
        <time>2019-06-19T08:33:35Z</time>
      </trkpt>
      <trkpt lat="42.969692498445511" lon="13.269260236993432">
        <ele>1694.3900000000001</ele>
        <time>2019-06-19T08:33:47Z</time>
      </trkpt>
      <trkpt lat="42.969719991087914" lon="13.269260236993432">
        <ele>1694.55</ele>
        <time>2019-06-19T08:34:02Z</time>
      </trkpt>
      <trkpt lat="42.969751674681902" lon="13.269285885617137">
        <ele>1694.27</ele>
        <time>2019-06-19T08:34:06Z</time>
      </trkpt>
      <trkpt lat="42.969896178692579" lon="13.269409434869885">
        <ele>1694.4200000000001</ele>
        <time>2019-06-19T08:34:22Z</time>
      </trkpt>
      <trkpt lat="42.969981422647834" lon="13.269479088485241">
        <ele>1694.24</ele>
        <time>2019-06-19T08:34:32Z</time>
      </trkpt>
      <trkpt lat="42.970013609156013" lon="13.269492834806442">
        <ele>1694.25</ele>
        <time>2019-06-19T08:34:35Z</time>
      </trkpt>
      <trkpt lat="42.970153167843819" lon="13.26946341432631">
        <ele>1695.47</ele>
        <time>2019-06-19T08:34:50Z</time>
      </trkpt>
      <trkpt lat="42.970219552516937" lon="13.269328381866217">
        <ele>1697.4400000000001</ele>
        <time>2019-06-19T08:35:07Z</time>
      </trkpt>
      <trkpt lat="42.970269843935966" lon="13.26925721950829">
        <ele>1698.1099999999999</ele>
        <time>2019-06-19T08:35:15Z</time>
      </trkpt>
      <trkpt lat="42.970299934968352" lon="13.269227966666222">
        <ele>1698.4200000000001</ele>
        <time>2019-06-19T08:35:19Z</time>
      </trkpt>
      <trkpt lat="42.970361541956663" lon="13.269156133756042">
        <ele>1698.8299999999999</ele>
        <time>2019-06-19T08:35:33Z</time>
      </trkpt>
      <trkpt lat="42.970360452309251" lon="13.269151020795107">
        <ele>1698.6900000000001</ele>
        <time>2019-06-19T08:35:50Z</time>
      </trkpt>
      <trkpt lat="42.970355087891221" lon="13.269126461818814">
        <ele>1699.1099999999999</ele>
        <time>2019-06-19T08:36:02Z</time>
      </trkpt>
      <trkpt lat="42.970328014343977" lon="13.269085893407464">
        <ele>1699.53</ele>
        <time>2019-06-19T08:36:20Z</time>
      </trkpt>
      <trkpt lat="42.970279147848487" lon="13.26896158978343">
        <ele>1700.9300000000001</ele>
        <time>2019-06-19T08:36:35Z</time>
      </trkpt>
      <trkpt lat="42.970223911106586" lon="13.268836950883269">
        <ele>1702.6700000000001</ele>
        <time>2019-06-19T08:36:51Z</time>
      </trkpt>
      <trkpt lat="42.970222402364016" lon="13.268834101036191">
        <ele>1702.4100000000001</ele>
        <time>2019-06-19T08:37:11Z</time>
      </trkpt>
      <trkpt lat="42.970199938863516" lon="13.268790682777762">
        <ele>1702.6400000000001</ele>
        <time>2019-06-19T08:37:17Z</time>
      </trkpt>
      <trkpt lat="42.970127770677209" lon="13.268647016957402">
        <ele>1703.47</ele>
        <time>2019-06-19T08:37:31Z</time>
      </trkpt>
      <trkpt lat="42.970066415145993" lon="13.268497819080949">
        <ele>1704.96</ele>
        <time>2019-06-19T08:37:45Z</time>
      </trkpt>
      <trkpt lat="42.970036240294576" lon="13.268454987555742">
        <ele>1705.77</ele>
        <time>2019-06-19T08:37:52Z</time>
      </trkpt>
      <trkpt lat="42.970015620812774" lon="13.268402852118015">
        <ele>1706.0799999999999</ele>
        <time>2019-06-19T08:37:57Z</time>
      </trkpt>
      <trkpt lat="42.969943201169372" lon="13.268218282610178">
        <ele>1707.8299999999999</ele>
        <time>2019-06-19T08:38:14Z</time>
      </trkpt>
      <trkpt lat="42.969871200621128" lon="13.268062127754092">
        <ele>1709.3499999999999</ele>
        <time>2019-06-19T08:38:30Z</time>
      </trkpt>
      <trkpt lat="42.969806995242834" lon="13.267907816916704">
        <ele>1711.3</ele>
        <time>2019-06-19T08:38:44Z</time>
      </trkpt>
      <trkpt lat="42.969717644155025" lon="13.267725259065628">
        <ele>1713.54</ele>
        <time>2019-06-19T08:39:02Z</time>
      </trkpt>
      <trkpt lat="42.96964212320745" lon="13.267559129744768">
        <ele>1715.4100000000001</ele>
        <time>2019-06-19T08:39:19Z</time>
      </trkpt>
      <trkpt lat="42.969593675807118" lon="13.267458630725741">
        <ele>1716.54</ele>
        <time>2019-06-19T08:39:33Z</time>
      </trkpt>
      <trkpt lat="42.96953902579844" lon="13.267308762297034">
        <ele>1717.52</ele>
        <time>2019-06-19T08:39:47Z</time>
      </trkpt>
      <trkpt lat="42.969488902017474" lon="13.267193678766489">
        <ele>1719.0899999999999</ele>
        <time>2019-06-19T08:39:58Z</time>
      </trkpt>
      <trkpt lat="42.969419248402119" lon="13.267049845308065">
        <ele>1721.4300000000001</ele>
        <time>2019-06-19T08:40:13Z</time>
      </trkpt>
      <trkpt lat="42.969347666949034" lon="13.266923446208239">
        <ele>1722.6600000000001</ele>
        <time>2019-06-19T08:40:28Z</time>
      </trkpt>
      <trkpt lat="42.969278348609805" lon="13.266772488132119">
        <ele>1724.3099999999999</ele>
        <time>2019-06-19T08:40:43Z</time>
      </trkpt>
      <trkpt lat="42.969228392466903" lon="13.266616752371192">
        <ele>1725.5599999999999</ele>
        <time>2019-06-19T08:40:58Z</time>
      </trkpt>
      <trkpt lat="42.969221351668239" lon="13.266613651067019">
        <ele>1725.73</ele>
        <time>2019-06-19T08:41:12Z</time>
      </trkpt>
      <trkpt lat="42.969186315312982" lon="13.266494292765856">
        <ele>1727.27</ele>
        <time>2019-06-19T08:41:25Z</time>
      </trkpt>
      <trkpt lat="42.969163348898292" lon="13.266301844269037">
        <ele>1729.3699999999999</ele>
        <time>2019-06-19T08:41:42Z</time>
      </trkpt>
      <trkpt lat="42.9691456630826" lon="13.266144180670381">
        <ele>1731.03</ele>
        <time>2019-06-19T08:41:57Z</time>
      </trkpt>
      <trkpt lat="42.969132754951715" lon="13.266051141545177">
        <ele>1731.9400000000001</ele>
        <time>2019-06-19T08:42:12Z</time>
      </trkpt>
      <trkpt lat="42.969122612848878" lon="13.265904122963548">
        <ele>1732.71</ele>
        <time>2019-06-19T08:42:29Z</time>
      </trkpt>
      <trkpt lat="42.969119595363736" lon="13.265884174033999">
        <ele>1733.03</ele>
        <time>2019-06-19T08:42:49Z</time>
      </trkpt>
      <trkpt lat="42.969120182096958" lon="13.26587101444602">
        <ele>1733.24</ele>
        <time>2019-06-19T08:43:12Z</time>
      </trkpt>
      <trkpt lat="42.969122361391783" lon="13.265759032219648">
        <ele>1733.46</ele>
        <time>2019-06-19T08:43:23Z</time>
      </trkpt>
      <trkpt lat="42.969121858477592" lon="13.265735395252705">
        <ele>1733.8399999999999</ele>
        <time>2019-06-19T08:43:36Z</time>
      </trkpt>
      <trkpt lat="42.969123451039195" lon="13.265665657818317">
        <ele>1734.5599999999999</ele>
        <time>2019-06-19T08:43:50Z</time>
      </trkpt>
      <trkpt lat="42.9691197630018" lon="13.265623580664396">
        <ele>1734.9300000000001</ele>
        <time>2019-06-19T08:44:05Z</time>
      </trkpt>
      <trkpt lat="42.96910610049963" lon="13.265543282032013">
        <ele>1735.55</ele>
        <time>2019-06-19T08:44:21Z</time>
      </trkpt>
      <trkpt lat="42.96909679658711" lon="13.265335997566581">
        <ele>1737.8900000000001</ele>
        <time>2019-06-19T08:44:38Z</time>
      </trkpt>
      <trkpt lat="42.969086403027177" lon="13.265141788870096">
        <ele>1739.4400000000001</ele>
        <time>2019-06-19T08:44:54Z</time>
      </trkpt>
      <trkpt lat="42.969051031395793" lon="13.264924613758922">
        <ele>1740.22</ele>
        <time>2019-06-19T08:45:12Z</time>
      </trkpt>
      <trkpt lat="42.969002835452557" lon="13.264730740338564">
        <ele>1742.1199999999999</ele>
        <time>2019-06-19T08:45:29Z</time>
      </trkpt>
      <trkpt lat="42.9689712356776" lon="13.264565113931894">
        <ele>1743.8699999999999</ele>
        <time>2019-06-19T08:45:45Z</time>
      </trkpt>
      <trkpt lat="42.968966793268919" lon="13.264397224411368">
        <ele>1745.3800000000001</ele>
        <time>2019-06-19T08:46:01Z</time>
      </trkpt>
      <trkpt lat="42.968997387215495" lon="13.264235788956285">
        <ele>1746.8299999999999</ele>
        <time>2019-06-19T08:46:16Z</time>
      </trkpt>
      <trkpt lat="42.969051953405142" lon="13.264051554724574">
        <ele>1748.3900000000001</ele>
        <time>2019-06-19T08:46:33Z</time>
      </trkpt>
      <trkpt lat="42.969102496281266" lon="13.263919204473495">
        <ele>1750.3199999999999</ele>
        <time>2019-06-19T08:46:46Z</time>
      </trkpt>
      <trkpt lat="42.969204587861896" lon="13.263740502297878">
        <ele>1751.26</ele>
        <time>2019-06-19T08:47:04Z</time>
      </trkpt>
      <trkpt lat="42.969311205670238" lon="13.26361108571291">
        <ele>1752.5599999999999</ele>
        <time>2019-06-19T08:47:20Z</time>
      </trkpt>
      <trkpt lat="42.969430228695273" lon="13.263471778482199">
        <ele>1754.0599999999999</ele>
        <time>2019-06-19T08:47:36Z</time>
      </trkpt>
      <trkpt lat="42.969526033848524" lon="13.263338087126613">
        <ele>1754.5999999999999</ele>
        <time>2019-06-19T08:47:51Z</time>
      </trkpt>
      <trkpt lat="42.969577331095934" lon="13.263230212032795">
        <ele>1755.8399999999999</ele>
        <time>2019-06-19T08:48:01Z</time>
      </trkpt>
      <trkpt lat="42.969608176499605" lon="13.263105992227793">
        <ele>1756.47</ele>
        <time>2019-06-19T08:48:12Z</time>
      </trkpt>
      <trkpt lat="42.969610188156366" lon="13.26306676492095">
        <ele>1756.73</ele>
        <time>2019-06-19T08:48:15Z</time>
      </trkpt>
      <trkpt lat="42.96962259337306" lon="13.262885045260191">
        <ele>1757.72</ele>
        <time>2019-06-19T08:48:29Z</time>
      </trkpt>
      <trkpt lat="42.969656959176064" lon="13.262677760794759">
        <ele>1759.0799999999999</ele>
        <time>2019-06-19T08:48:45Z</time>
      </trkpt>
      <trkpt lat="42.969778915867209" lon="13.262569885700941">
        <ele>1760.8900000000001</ele>
        <time>2019-06-19T08:49:00Z</time>
      </trkpt>
      <trkpt lat="42.969907158985734" lon="13.262467291206121">
        <ele>1762.4200000000001</ele>
        <time>2019-06-19T08:49:16Z</time>
      </trkpt>
      <trkpt lat="42.969910679385066" lon="13.26233334839344">
        <ele>1764.6300000000001</ele>
        <time>2019-06-19T08:49:29Z</time>
      </trkpt>
      <trkpt lat="42.969901040196419" lon="13.262313734740019">
        <ele>1764.77</ele>
        <time>2019-06-19T08:49:31Z</time>
      </trkpt>
      <trkpt lat="42.969775311648846" lon="13.26217602007091">
        <ele>1765.47</ele>
        <time>2019-06-19T08:49:48Z</time>
      </trkpt>
      <trkpt lat="42.969658970832825" lon="13.262021038681269">
        <ele>1767.4000000000001</ele>
        <time>2019-06-19T08:50:05Z</time>
      </trkpt>
      <trkpt lat="42.969644134864211" lon="13.261896399781108">
        <ele>1768.9400000000001</ele>
        <time>2019-06-19T08:50:16Z</time>
      </trkpt>
      <trkpt lat="42.96973742544651" lon="13.261811658740044">
        <ele>1770.55</ele>
        <time>2019-06-19T08:50:29Z</time>
      </trkpt>
      <trkpt lat="42.969884779304266" lon="13.261780813336372">
        <ele>1772.9400000000001</ele>
        <time>2019-06-19T08:50:45Z</time>
      </trkpt>
      <trkpt lat="42.970012184232473" lon="13.261757008731365">
        <ele>1774.9100000000001</ele>
        <time>2019-06-19T08:51:01Z</time>
      </trkpt>
      <trkpt lat="42.970116203650832" lon="13.26173915527761">
        <ele>1775.78</ele>
        <time>2019-06-19T08:51:13Z</time>
      </trkpt>
      <trkpt lat="42.970291972160339" lon="13.261706046760082">
        <ele>1777.55</ele>
        <time>2019-06-19T08:51:30Z</time>
      </trkpt>
      <trkpt lat="42.97047033905983" lon="13.261686516925693">
        <ele>1779.49</ele>
        <time>2019-06-19T08:51:47Z</time>
      </trkpt>
      <trkpt lat="42.97064040787518" lon="13.261665813624859">
        <ele>1781.1199999999999</ele>
        <time>2019-06-19T08:52:02Z</time>
      </trkpt>
      <trkpt lat="42.970810728147626" lon="13.261635387316346">
        <ele>1782.9300000000001</ele>
        <time>2019-06-19T08:52:18Z</time>
      </trkpt>
      <trkpt lat="42.970897983759642" lon="13.261619713157415">
        <ele>1783.74</ele>
        <time>2019-06-19T08:52:26Z</time>
      </trkpt>
      <trkpt lat="42.970938216894865" lon="13.261595154181123">
        <ele>1784.24</ele>
        <time>2019-06-19T08:52:30Z</time>
      </trkpt>
      <trkpt lat="42.971084732562304" lon="13.261531451717019">
        <ele>1785.78</ele>
        <time>2019-06-19T08:52:45Z</time>
      </trkpt>
      <trkpt lat="42.971235187724233" lon="13.261463223025203">
        <ele>1787.01</ele>
        <time>2019-06-19T08:53:00Z</time>
      </trkpt>
      <trkpt lat="42.971404837444425" lon="13.261369513347745">
        <ele>1789.1300000000001</ele>
        <time>2019-06-19T08:53:17Z</time>
      </trkpt>
      <trkpt lat="42.971575660631061" lon="13.261265410110354">
        <ele>1790.76</ele>
        <time>2019-06-19T08:53:34Z</time>
      </trkpt>
      <trkpt lat="42.971702562645078" lon="13.261165330186486">
        <ele>1792.0899999999999</ele>
        <time>2019-06-19T08:53:48Z</time>
      </trkpt>
      <trkpt lat="42.971830135211349" lon="13.261014707386494">
        <ele>1793.29</ele>
        <time>2019-06-19T08:54:03Z</time>
      </trkpt>
      <trkpt lat="42.971944715827703" lon="13.260870203375816">
        <ele>1794.98</ele>
        <time>2019-06-19T08:54:17Z</time>
      </trkpt>
      <trkpt lat="42.972085531800985" lon="13.260686891153455">
        <ele>1796.79</ele>
        <time>2019-06-19T08:54:34Z</time>
      </trkpt>
      <trkpt lat="42.972188629209995" lon="13.260533921420574">
        <ele>1797.6400000000001</ele>
        <time>2019-06-19T08:54:48Z</time>
      </trkpt>
      <trkpt lat="42.97228074632585" lon="13.260359242558479">
        <ele>1798.71</ele>
        <time>2019-06-19T08:55:03Z</time>
      </trkpt>
      <trkpt lat="42.972357524558902" lon="13.260189760476351">
        <ele>1799.78</ele>
        <time>2019-06-19T08:55:17Z</time>
      </trkpt>
      <trkpt lat="42.97244586981833" lon="13.259980380535126">
        <ele>1801.22</ele>
        <time>2019-06-19T08:55:34Z</time>
      </trkpt>
      <trkpt lat="42.972517032176256" lon="13.259781897068024">
        <ele>1802.28</ele>
        <time>2019-06-19T08:55:50Z</time>
      </trkpt>
      <trkpt lat="42.972551397979259" lon="13.259591795504093">
        <ele>1803.8499999999999</ele>
        <time>2019-06-19T08:56:05Z</time>
      </trkpt>
      <trkpt lat="42.972495155408978" lon="13.259412925690413">
        <ele>1806.73</ele>
        <time>2019-06-19T08:56:23Z</time>
      </trkpt>
      <trkpt lat="42.972464142367244" lon="13.25939423404634">
        <ele>1807.29</ele>
        <time>2019-06-19T08:56:27Z</time>
      </trkpt>
      <trkpt lat="42.972345622256398" lon="13.259400185197592">
        <ele>1808.8599999999999</ele>
        <time>2019-06-19T08:56:40Z</time>
      </trkpt>
      <trkpt lat="42.972211008891463" lon="13.259491799399257">
        <ele>1811.1199999999999</ele>
        <time>2019-06-19T08:56:55Z</time>
      </trkpt>
      <trkpt lat="42.972091985866427" lon="13.25957796536386">
        <ele>1811.51</ele>
        <time>2019-06-19T08:57:08Z</time>
      </trkpt>
      <trkpt lat="42.97196994535625" lon="13.259617108851671">
        <ele>1812.8399999999999</ele>
        <time>2019-06-19T08:57:21Z</time>
      </trkpt>
      <trkpt lat="42.97188344411552" lon="13.259605038911104">
        <ele>1814.1099999999999</ele>
        <time>2019-06-19T08:57:32Z</time>
      </trkpt>
      <trkpt lat="42.971817729994655" lon="13.259562626481056">
        <ele>1815.3499999999999</ele>
        <time>2019-06-19T08:57:45Z</time>
      </trkpt>
      <trkpt lat="42.971751764416695" lon="13.259502528235316">
        <ele>1816.6400000000001</ele>
        <time>2019-06-19T08:57:56Z</time>
      </trkpt>
      <trkpt lat="42.971676914021373" lon="13.259384511038661">
        <ele>1819.0899999999999</ele>
        <time>2019-06-19T08:58:11Z</time>
      </trkpt>
      <trkpt lat="42.971603907644749" lon="13.259235145524144">
        <ele>1821.8399999999999</ele>
        <time>2019-06-19T08:58:29Z</time>
      </trkpt>
      <trkpt lat="42.971535176038742" lon="13.259107153862715">
        <ele>1823.8299999999999</ele>
        <time>2019-06-19T08:58:46Z</time>
      </trkpt>
      <trkpt lat="42.971529141068459" lon="13.25910690240562">
        <ele>1823.0899999999999</ele>
        <time>2019-06-19T08:58:57Z</time>
      </trkpt>
      <trkpt lat="42.971515310928226" lon="13.259070524945855">
        <ele>1824.3800000000001</ele>
        <time>2019-06-19T08:59:12Z</time>
      </trkpt>
      <trkpt lat="42.971458481624722" lon="13.258919231593609">
        <ele>1826.52</ele>
        <time>2019-06-19T08:59:29Z</time>
      </trkpt>
      <trkpt lat="42.971407771110535" lon="13.258790653198957">
        <ele>1827.6199999999999</ele>
        <time>2019-06-19T08:59:45Z</time>
      </trkpt>
      <trkpt lat="42.971365693956614" lon="13.25867691077292">
        <ele>1830.95</ele>
        <time>2019-06-19T08:59:59Z</time>
      </trkpt>
      <trkpt lat="42.971363263204694" lon="13.258668361231685">
        <ele>1830.5699999999999</ele>
        <time>2019-06-19T09:00:00Z</time>
      </trkpt>
      <trkpt lat="42.971308026462793" lon="13.258545231074095">
        <ele>1831.29</ele>
        <time>2019-06-19T09:00:16Z</time>
      </trkpt>
      <trkpt lat="42.971304086968303" lon="13.258529640734196">
        <ele>1832.6099999999999</ele>
        <time>2019-06-19T09:00:18Z</time>
      </trkpt>
      <trkpt lat="42.971256729215384" lon="13.258424531668425">
        <ele>1834.6500000000001</ele>
        <time>2019-06-19T09:00:32Z</time>
      </trkpt>
      <trkpt lat="42.971207611262798" lon="13.258336689323187">
        <ele>1836.27</ele>
        <time>2019-06-19T09:00:46Z</time>
      </trkpt>
      <trkpt lat="42.971163019537926" lon="13.258261838927865">
        <ele>1837.48</ele>
        <time>2019-06-19T09:00:58Z</time>
      </trkpt>
      <trkpt lat="42.971099149435759" lon="13.258123872801661">
        <ele>1840.26</ele>
        <time>2019-06-19T09:01:17Z</time>
      </trkpt>
      <trkpt lat="42.971038799732924" lon="13.258038042113185">
        <ele>1842.3399999999999</ele>
        <time>2019-06-19T09:01:31Z</time>
      </trkpt>
      <trkpt lat="42.970964452251792" lon="13.257855400443077">
        <ele>1844.97</ele>
        <time>2019-06-19T09:01:51Z</time>
      </trkpt>
      <trkpt lat="42.97090862877667" lon="13.257702514529228">
        <ele>1847.3800000000001</ele>
        <time>2019-06-19T09:02:08Z</time>
      </trkpt>
      <trkpt lat="42.970839142799377" lon="13.257560608908534">
        <ele>1849.54</ele>
        <time>2019-06-19T09:02:26Z</time>
      </trkpt>
      <trkpt lat="42.970787510275841" lon="13.257402861490846">
        <ele>1852.24</ele>
        <time>2019-06-19T09:02:44Z</time>
      </trkpt>
      <trkpt lat="42.970718862488866" lon="13.257264727726579">
        <ele>1854.52</ele>
        <time>2019-06-19T09:03:01Z</time>
      </trkpt>
      <trkpt lat="42.97064820304513" lon="13.257131120190024">
        <ele>1857.2</ele>
        <time>2019-06-19T09:03:18Z</time>
      </trkpt>
      <trkpt lat="42.970608305186033" lon="13.257022155448794">
        <ele>1860.21</ele>
        <time>2019-06-19T09:03:33Z</time>
      </trkpt>
      <trkpt lat="42.970596067607403" lon="13.256983766332269">
        <ele>1860.6800000000001</ele>
        <time>2019-06-19T09:03:45Z</time>
      </trkpt>
      <trkpt lat="42.970573687925935" lon="13.256858037784696">
        <ele>1862.48</ele>
        <time>2019-06-19T09:04:00Z</time>
      </trkpt>
      <trkpt lat="42.970523815602064" lon="13.256683778017759">
        <ele>1865.3099999999999</ele>
        <time>2019-06-19T09:04:19Z</time>
      </trkpt>
      <trkpt lat="42.970472602173686" lon="13.256475487723947">
        <ele>1868.1300000000001</ele>
        <time>2019-06-19T09:04:40Z</time>
      </trkpt>
      <trkpt lat="42.970410659909248" lon="13.256305838003755">
        <ele>1870.72</ele>
        <time>2019-06-19T09:04:58Z</time>
      </trkpt>
      <trkpt lat="42.970376964658499" lon="13.256194023415446">
        <ele>1873.8599999999999</ele>
        <time>2019-06-19T09:05:10Z</time>
      </trkpt>
      <trkpt lat="42.970373276621103" lon="13.256053710356355">
        <ele>1875.6199999999999</ele>
        <time>2019-06-19T09:05:23Z</time>
      </trkpt>
      <trkpt lat="42.970369840040803" lon="13.255876265466213">
        <ele>1875.6800000000001</ele>
        <time>2019-06-19T09:05:39Z</time>
      </trkpt>
      <trkpt lat="42.970351316034794" lon="13.255649199709296">
        <ele>1876.95</ele>
        <time>2019-06-19T09:06:00Z</time>
      </trkpt>
      <trkpt lat="42.970332121476531" lon="13.255556244403124">
        <ele>1877.5</ele>
        <time>2019-06-19T09:06:14Z</time>
      </trkpt>
      <trkpt lat="42.970327930524945" lon="13.255493463948369">
        <ele>1877.7</ele>
        <time>2019-06-19T09:06:29Z</time>
      </trkpt>
      <trkpt lat="42.970275711268187" lon="13.255298333242536">
        <ele>1879.8699999999999</ele>
        <time>2019-06-19T09:06:47Z</time>
      </trkpt>
      <trkpt lat="42.970220223069191" lon="13.255118289962411">
        <ele>1881.9100000000001</ele>
        <time>2019-06-19T09:07:04Z</time>
      </trkpt>
      <trkpt lat="42.97017915174365" lon="13.254917040467262">
        <ele>1883.51</ele>
        <time>2019-06-19T09:07:22Z</time>
      </trkpt>
      <trkpt lat="42.970176804810762" lon="13.254905305802822">
        <ele>1883.5</ele>
        <time>2019-06-19T09:07:23Z</time>
      </trkpt>
      <trkpt lat="42.97015325166285" lon="13.254706151783466">
        <ele>1884.8900000000001</ele>
        <time>2019-06-19T09:07:39Z</time>
      </trkpt>
      <trkpt lat="42.970125759020448" lon="13.254541615024209">
        <ele>1886.1099999999999</ele>
        <time>2019-06-19T09:07:53Z</time>
      </trkpt>
      <trkpt lat="42.970110001042485" lon="13.254343466833234">
        <ele>1887.6199999999999</ele>
        <time>2019-06-19T09:08:09Z</time>
      </trkpt>
      <trkpt lat="42.97007747925818" lon="13.254117574542761">
        <ele>1888.8</ele>
        <time>2019-06-19T09:08:27Z</time>
      </trkpt>
      <trkpt lat="42.970047807320952" lon="13.253932083025575">
        <ele>1890.1300000000001</ele>
        <time>2019-06-19T09:08:43Z</time>
      </trkpt>
      <trkpt lat="42.970015285536647" lon="13.253766708076">
        <ele>1891.71</ele>
        <time>2019-06-19T09:09:00Z</time>
      </trkpt>
      <trkpt lat="42.969984021037817" lon="13.253660760819912">
        <ele>1892.45</ele>
        <time>2019-06-19T09:09:18Z</time>
      </trkpt>
      <trkpt lat="42.96999248676002" lon="13.253658916801214">
        <ele>1892.0999999999999</ele>
        <time>2019-06-19T09:09:41Z</time>
      </trkpt>
      <trkpt lat="42.969994666054845" lon="13.253646092489362">
        <ele>1892.4100000000001</ele>
        <time>2019-06-19T09:10:13Z</time>
      </trkpt>
      <trkpt lat="42.97000028192997" lon="13.253646427765489">
        <ele>1892.27</ele>
        <time>2019-06-19T09:10:28Z</time>
      </trkpt>
      <trkpt lat="42.969989804551005" lon="13.253641985356808">
        <ele>1892.47</ele>
        <time>2019-06-19T09:10:38Z</time>
      </trkpt>
      <trkpt lat="42.96998854726553" lon="13.253651037812233">
        <ele>1892.1300000000001</ele>
        <time>2019-06-19T09:10:57Z</time>
      </trkpt>
      <trkpt lat="42.969986451789737" lon="13.253654977306724">
        <ele>1892.9400000000001</ele>
        <time>2019-06-19T09:11:32Z</time>
      </trkpt>
      <trkpt lat="42.969977231696248" lon="13.253656653687358">
        <ele>1892.78</ele>
        <time>2019-06-19T09:12:27Z</time>
      </trkpt>
      <trkpt lat="42.969973627477884" lon="13.253657408058643">
        <ele>1892.8900000000001</ele>
        <time>2019-06-19T09:13:24Z</time>
      </trkpt>
      <trkpt lat="42.969977566972375" lon="13.25365774333477">
        <ele>1893.0999999999999</ele>
        <time>2019-06-19T09:14:12Z</time>
      </trkpt>
      <trkpt lat="42.969978824257851" lon="13.253655731678009">
        <ele>1893.27</ele>
        <time>2019-06-19T09:15:20Z</time>
      </trkpt>
      <trkpt lat="42.969977566972375" lon="13.253650702536106">
        <ele>1893.3699999999999</ele>
        <time>2019-06-19T09:16:14Z</time>
      </trkpt>
      <trkpt lat="42.969978908076882" lon="13.253655061125755">
        <ele>1893.27</ele>
        <time>2019-06-19T09:17:04Z</time>
      </trkpt>
      <trkpt lat="42.969981087371707" lon="13.253652295097709">
        <ele>1892.9400000000001</ele>
        <time>2019-06-19T09:17:50Z</time>
      </trkpt>
      <trkpt lat="42.969989804551005" lon="13.253649277612567">
        <ele>1893.29</ele>
        <time>2019-06-19T09:18:11Z</time>
      </trkpt>
      <trkpt lat="42.969996007159352" lon="13.253658162429929">
        <ele>1893.79</ele>
        <time>2019-06-19T09:18:23Z</time>
      </trkpt>
      <trkpt lat="42.969998605549335" lon="13.253661682829261">
        <ele>1892.99</ele>
        <time>2019-06-19T09:18:47Z</time>
      </trkpt>
      <trkpt lat="42.97000128775835" lon="13.253657324239612">
        <ele>1893.4300000000001</ele>
        <time>2019-06-19T09:19:37Z</time>
      </trkpt>
      <trkpt lat="42.970005813986063" lon="13.253662856295705">
        <ele>1893.6099999999999</ele>
        <time>2019-06-19T09:20:27Z</time>
      </trkpt>
      <trkpt lat="42.970003467053175" lon="13.253658749163151">
        <ele>1893.5</ele>
        <time>2019-06-19T09:21:18Z</time>
      </trkpt>
      <trkpt lat="42.970001874491572" lon="13.253659922629595">
        <ele>1893.3699999999999</ele>
        <time>2019-06-19T09:22:13Z</time>
      </trkpt>
      <trkpt lat="42.970001539215446" lon="13.253664197400212">
        <ele>1893.52</ele>
        <time>2019-06-19T09:22:58Z</time>
      </trkpt>
      <trkpt lat="42.970001036301255" lon="13.253664365038276">
        <ele>1893.74</ele>
        <time>2019-06-19T09:23:42Z</time>
      </trkpt>
      <trkpt lat="42.970001120120287" lon="13.253664951771498">
        <ele>1894.02</ele>
        <time>2019-06-19T09:24:23Z</time>
      </trkpt>
      <trkpt lat="42.970000114291906" lon="13.253660006448627">
        <ele>1893.4400000000001</ele>
        <time>2019-06-19T09:25:02Z</time>
      </trkpt>
      <trkpt lat="42.969995504245162" lon="13.253656234592199">
        <ele>1893.8800000000001</ele>
        <time>2019-06-19T09:25:44Z</time>
      </trkpt>
      <trkpt lat="42.969996510073543" lon="13.253657659515738">
        <ele>1893.8900000000001</ele>
        <time>2019-06-19T09:26:33Z</time>
      </trkpt>
      <trkpt lat="42.969993324950337" lon="13.253657408058643">
        <ele>1893.8699999999999</ele>
        <time>2019-06-19T09:27:08Z</time>
      </trkpt>
      <trkpt lat="42.969993492588401" lon="13.25366260483861">
        <ele>1893.8800000000001</ele>
        <time>2019-06-19T09:27:48Z</time>
      </trkpt>
      <trkpt lat="42.969996258616447" lon="13.253663023933768">
        <ele>1894.8499999999999</ele>
        <time>2019-06-19T09:27:59Z</time>
      </trkpt>
      <trkpt lat="42.969994246959686" lon="13.253661515191197">
        <ele>1895.3199999999999</ele>
        <time>2019-06-19T09:28:08Z</time>
      </trkpt>
      <trkpt lat="42.97000078484416" lon="13.253654893487692">
        <ele>1895.1800000000001</ele>
        <time>2019-06-19T09:28:27Z</time>
      </trkpt>
      <trkpt lat="42.970001623034477" lon="13.253657994791865">
        <ele>1895.52</ele>
        <time>2019-06-19T09:28:38Z</time>
      </trkpt>
      <trkpt lat="42.969992905855179" lon="13.25363527983427">
        <ele>1895.46</ele>
        <time>2019-06-19T09:28:58Z</time>
      </trkpt>
      <trkpt lat="42.969982763752341" lon="13.25362061150372">
        <ele>1895.04</ele>
        <time>2019-06-19T09:29:13Z</time>
      </trkpt>
      <trkpt lat="42.969978824257851" lon="13.253616252914071">
        <ele>1895.1900000000001</ele>
        <time>2019-06-19T09:29:36Z</time>
      </trkpt>
      <trkpt lat="42.969988714903593" lon="13.253520699217916">
        <ele>1895.27</ele>
        <time>2019-06-19T09:29:50Z</time>
      </trkpt>
      <trkpt lat="42.969985026866198" lon="13.253383487462997">
        <ele>1894.48</ele>
        <time>2019-06-19T09:30:04Z</time>
      </trkpt>
      <trkpt lat="42.969983266666532" lon="13.25337577611208">
        <ele>1894.49</ele>
        <time>2019-06-19T09:30:24Z</time>
      </trkpt>
      <trkpt lat="42.969985362142324" lon="13.253368064761162">
        <ele>1894.6400000000001</ele>
        <time>2019-06-19T09:30:25Z</time>
      </trkpt>
      <trkpt lat="42.969986200332642" lon="13.253320707008243">
        <ele>1894.5999999999999</ele>
        <time>2019-06-19T09:30:29Z</time>
      </trkpt>
      <trkpt lat="42.969941943883896" lon="13.253108728677034">
        <ele>1893.6800000000001</ele>
        <time>2019-06-19T09:30:44Z</time>
      </trkpt>
      <trkpt lat="42.969920905306935" lon="13.252916028723121">
        <ele>1893.26</ele>
        <time>2019-06-19T09:30:59Z</time>
      </trkpt>
      <trkpt lat="42.969902213662863" lon="13.252677898854017">
        <ele>1893.1700000000001</ele>
        <time>2019-06-19T09:31:15Z</time>
      </trkpt>
      <trkpt lat="42.969867847859859" lon="13.252493161708117">
        <ele>1893.1300000000001</ele>
        <time>2019-06-19T09:31:28Z</time>
      </trkpt>
      <trkpt lat="42.969866171479225" lon="13.252464579418302">
        <ele>1892.95</ele>
        <time>2019-06-19T09:31:34Z</time>
      </trkpt>
      <trkpt lat="42.969862064346671" lon="13.252435913309455">
        <ele>1892.9000000000001</ele>
        <time>2019-06-19T09:31:36Z</time>
      </trkpt>
      <trkpt lat="42.969826692715287" lon="13.252240112051368">
        <ele>1893.1500000000001</ele>
        <time>2019-06-19T09:31:50Z</time>
      </trkpt>
      <trkpt lat="42.969791404902935" lon="13.252061158418655">
        <ele>1893.5699999999999</ele>
        <time>2019-06-19T09:32:03Z</time>
      </trkpt>
      <trkpt lat="42.969732228666544" lon="13.251889580860734">
        <ele>1894.54</ele>
        <time>2019-06-19T09:32:17Z</time>
      </trkpt>
      <trkpt lat="42.969633070752025" lon="13.251705346629024">
        <ele>1894.1900000000001</ele>
        <time>2019-06-19T09:32:32Z</time>
      </trkpt>
      <trkpt lat="42.969592669978738" lon="13.251495966687799">
        <ele>1893.52</ele>
        <time>2019-06-19T09:32:47Z</time>
      </trkpt>
      <trkpt lat="42.969564339146018" lon="13.251286335289478">
        <ele>1895.1700000000001</ele>
        <time>2019-06-19T09:33:04Z</time>
      </trkpt>
      <trkpt lat="42.969537433236837" lon="13.251087600365281">
        <ele>1896.1099999999999</ele>
        <time>2019-06-19T09:33:19Z</time>
      </trkpt>
      <trkpt lat="42.969513377174735" lon="13.250856343656778">
        <ele>1897.0799999999999</ele>
        <time>2019-06-19T09:33:37Z</time>
      </trkpt>
      <trkpt lat="42.969497535377741" lon="13.250630283728242">
        <ele>1898.22</ele>
        <time>2019-06-19T09:33:53Z</time>
      </trkpt>
      <trkpt lat="42.969469539821148" lon="13.250397350639105">
        <ele>1898.8499999999999</ele>
        <time>2019-06-19T09:34:10Z</time>
      </trkpt>
      <trkpt lat="42.969411201775074" lon="13.250166429206729">
        <ele>1900.6400000000001</ele>
        <time>2019-06-19T09:34:28Z</time>
      </trkpt>
      <trkpt lat="42.969378009438515" lon="13.249984541907907">
        <ele>1902.54</ele>
        <time>2019-06-19T09:34:44Z</time>
      </trkpt>
      <trkpt lat="42.969346409663558" lon="13.249751944094896">
        <ele>1904.47</ele>
        <time>2019-06-19T09:35:03Z</time>
      </trkpt>
      <trkpt lat="42.969317743554711" lon="13.24951951391995">
        <ele>1907.1099999999999</ele>
        <time>2019-06-19T09:35:23Z</time>
      </trkpt>
      <trkpt lat="42.969278348609805" lon="13.249318432062864">
        <ele>1908.6900000000001</ele>
        <time>2019-06-19T09:35:40Z</time>
      </trkpt>
      <trkpt lat="42.969237277284265" lon="13.249102765694261">
        <ele>1910.28</ele>
        <time>2019-06-19T09:35:58Z</time>
      </trkpt>
      <trkpt lat="42.969213221222162" lon="13.248893050476909">
        <ele>1911.3800000000001</ele>
        <time>2019-06-19T09:36:15Z</time>
      </trkpt>
      <trkpt lat="42.969197295606136" lon="13.248680736869574">
        <ele>1912.5</ele>
        <time>2019-06-19T09:36:31Z</time>
      </trkpt>
      <trkpt lat="42.96917743049562" lon="13.248481079936028">
        <ele>1913.0899999999999</ele>
        <time>2019-06-19T09:36:45Z</time>
      </trkpt>
      <trkpt lat="42.969165276736021" lon="13.248270442709327">
        <ele>1913.6400000000001</ele>
        <time>2019-06-19T09:37:00Z</time>
      </trkpt>
      <trkpt lat="42.969124121591449" lon="13.248056452721357">
        <ele>1913.5599999999999</ele>
        <time>2019-06-19T09:37:15Z</time>
      </trkpt>
      <trkpt lat="42.969123786315322" lon="13.247834332287312">
        <ele>1913.4100000000001</ele>
        <time>2019-06-19T09:37:31Z</time>
      </trkpt>
      <trkpt lat="42.969103418290615" lon="13.247645068913698">
        <ele>1912.5999999999999</ele>
        <time>2019-06-19T09:37:45Z</time>
      </trkpt>
      <trkpt lat="42.969100149348378" lon="13.247631238773465">
        <ele>1913.97</ele>
        <time>2019-06-19T09:37:46Z</time>
      </trkpt>
      <trkpt lat="42.969098724424839" lon="13.247571894899011">
        <ele>1914.01</ele>
        <time>2019-06-19T09:37:57Z</time>
      </trkpt>
      <trkpt lat="42.969102161005139" lon="13.247552281245589">
        <ele>1913.8499999999999</ele>
        <time>2019-06-19T09:38:05Z</time>
      </trkpt>
      <trkpt lat="42.969097634777427" lon="13.247525040060282">
        <ele>1913.96</ele>
        <time>2019-06-19T09:38:07Z</time>
      </trkpt>
      <trkpt lat="42.969035021960735" lon="13.247311720624566">
        <ele>1912.8199999999999</ele>
        <time>2019-06-19T09:38:22Z</time>
      </trkpt>
      <trkpt lat="42.969012809917331" lon="13.247033022344112">
        <ele>1910.8599999999999</ele>
        <time>2019-06-19T09:38:40Z</time>
      </trkpt>
      <trkpt lat="42.968948185443878" lon="13.246826576068997">
        <ele>1908.51</ele>
        <time>2019-06-19T09:38:55Z</time>
      </trkpt>
      <trkpt lat="42.968894876539707" lon="13.246667236089706">
        <ele>1905.51</ele>
        <time>2019-06-19T09:39:08Z</time>
      </trkpt>
      <trkpt lat="42.968879034742713" lon="13.246633540838957">
        <ele>1904.8900000000001</ele>
        <time>2019-06-19T09:39:11Z</time>
      </trkpt>
      <trkpt lat="42.968820780515671" lon="13.246511248871684">
        <ele>1902.53</ele>
        <time>2019-06-19T09:39:25Z</time>
      </trkpt>
      <trkpt lat="42.968785744160414" lon="13.246489707380533">
        <ele>1901.26</ele>
        <time>2019-06-19T09:39:34Z</time>
      </trkpt>
      <trkpt lat="42.968731094151735" lon="13.246482918038964">
        <ele>1898.3800000000001</ele>
        <time>2019-06-19T09:39:45Z</time>
      </trkpt>
      <trkpt lat="42.96868197619915" lon="13.246527509763837">
        <ele>1895.46</ele>
        <time>2019-06-19T09:39:55Z</time>
      </trkpt>
      <trkpt lat="42.968598240986466" lon="13.246604958549142">
        <ele>1892.21</ele>
        <time>2019-06-19T09:40:08Z</time>
      </trkpt>
      <trkpt lat="42.968532610684633" lon="13.246621554717422">
        <ele>1889.0699999999999</ele>
        <time>2019-06-19T09:40:20Z</time>
      </trkpt>
      <trkpt lat="42.968523139134049" lon="13.246604036539793">
        <ele>1888.3099999999999</ele>
        <time>2019-06-19T09:40:22Z</time>
      </trkpt>
      <trkpt lat="42.968519786372781" lon="13.246533460915089">
        <ele>1886.0799999999999</ele>
        <time>2019-06-19T09:40:28Z</time>
      </trkpt>
      <trkpt lat="42.968504196032882" lon="13.246467746794224">
        <ele>1884.8199999999999</ele>
        <time>2019-06-19T09:40:39Z</time>
      </trkpt>
      <trkpt lat="42.968501849099994" lon="13.246454335749149">
        <ele>1884.3900000000001</ele>
        <time>2019-06-19T09:40:41Z</time>
      </trkpt>
      <trkpt lat="42.968514757230878" lon="13.246233640238643">
        <ele>1883.4200000000001</ele>
        <time>2019-06-19T09:40:57Z</time>
      </trkpt>
      <trkpt lat="42.968519702553749" lon="13.246200950816274">
        <ele>1882.5599999999999</ele>
        <time>2019-06-19T09:41:00Z</time>
      </trkpt>
      <trkpt lat="42.96846647746861" lon="13.246083771809936">
        <ele>1879.71</ele>
        <time>2019-06-19T09:41:12Z</time>
      </trkpt>
      <trkpt lat="42.968450803309679" lon="13.246074467897415">
        <ele>1879.1600000000001</ele>
        <time>2019-06-19T09:41:14Z</time>
      </trkpt>
      <trkpt lat="42.968421718105674" lon="13.246038760989904">
        <ele>1877.6199999999999</ele>
        <time>2019-06-19T09:41:19Z</time>
      </trkpt>
      <trkpt lat="42.968354243785143" lon="13.245926192030311">
        <ele>1875.6099999999999</ele>
        <time>2019-06-19T09:41:32Z</time>
      </trkpt>
      <trkpt lat="42.968348963186145" lon="13.245915379375219">
        <ele>1875.3800000000001</ele>
        <time>2019-06-19T09:41:33Z</time>
      </trkpt>
      <trkpt lat="42.968284171074629" lon="13.245693761855364">
        <ele>1872.47</ele>
        <time>2019-06-19T09:41:50Z</time>
      </trkpt>
      <trkpt lat="42.968244859948754" lon="13.245565351098776">
        <ele>1870.45</ele>
        <time>2019-06-19T09:42:00Z</time>
      </trkpt>
      <trkpt lat="42.968243770301342" lon="13.245470970869064">
        <ele>1869.4000000000001</ele>
        <time>2019-06-19T09:42:07Z</time>
      </trkpt>
      <trkpt lat="42.968165650963783" lon="13.245291765779257">
        <ele>1866.1400000000001</ele>
        <time>2019-06-19T09:42:24Z</time>
      </trkpt>
      <trkpt lat="42.968137906864285" lon="13.245193529874086">
        <ele>1864.5699999999999</ele>
        <time>2019-06-19T09:42:33Z</time>
      </trkpt>
      <trkpt lat="42.968016788363457" lon="13.245031088590622">
        <ele>1862.28</ele>
        <time>2019-06-19T09:42:48Z</time>
      </trkpt>
      <trkpt lat="42.967936741188169" lon="13.244858672842383">
        <ele>1861.8</ele>
        <time>2019-06-19T09:43:03Z</time>
      </trkpt>
      <trkpt lat="42.967919139191508" lon="13.244823887944221">
        <ele>1861.4300000000001</ele>
        <time>2019-06-19T09:43:13Z</time>
      </trkpt>
      <trkpt lat="42.967903129756451" lon="13.244799580425024">
        <ele>1860.8900000000001</ele>
        <time>2019-06-19T09:43:23Z</time>
      </trkpt>
      <trkpt lat="42.967846048995852" lon="13.244682652875781">
        <ele>1858.5899999999999</ele>
        <time>2019-06-19T09:43:35Z</time>
      </trkpt>
      <trkpt lat="42.967791901901364" lon="13.244563965126872">
        <ele>1855.47</ele>
        <time>2019-06-19T09:43:46Z</time>
      </trkpt>
      <trkpt lat="42.967762565240264" lon="13.244508728384972">
        <ele>1853.9100000000001</ele>
        <time>2019-06-19T09:43:51Z</time>
      </trkpt>
      <trkpt lat="42.967694168910384" lon="13.244344023987651">
        <ele>1850.72</ele>
        <time>2019-06-19T09:44:04Z</time>
      </trkpt>
      <trkpt lat="42.967607248574495" lon="13.244080832228065">
        <ele>1849.5799999999999</ele>
        <time>2019-06-19T09:44:21Z</time>
      </trkpt>
      <trkpt lat="42.967545641586185" lon="13.24391009286046">
        <ele>1850.1099999999999</ele>
        <time>2019-06-19T09:44:34Z</time>
      </trkpt>
      <trkpt lat="42.96746383421123" lon="13.243657797574997">
        <ele>1849.8099999999999</ele>
        <time>2019-06-19T09:44:51Z</time>
      </trkpt>
      <trkpt lat="42.967365849763155" lon="13.2434106990695">
        <ele>1849.3699999999999</ele>
        <time>2019-06-19T09:45:09Z</time>
      </trkpt>
      <trkpt lat="42.967284880578518" lon="13.243211377412081">
        <ele>1846.3399999999999</ele>
        <time>2019-06-19T09:45:24Z</time>
      </trkpt>
      <trkpt lat="42.967214472591877" lon="13.243018258363008">
        <ele>1843.0999999999999</ele>
        <time>2019-06-19T09:45:38Z</time>
      </trkpt>
      <trkpt lat="42.96717164106667" lon="13.242837628349662">
        <ele>1841.5699999999999</ele>
        <time>2019-06-19T09:45:50Z</time>
      </trkpt>
      <trkpt lat="42.967144483700395" lon="13.242735536769032">
        <ele>1842.3900000000001</ele>
        <time>2019-06-19T09:45:59Z</time>
      </trkpt>
      <trkpt lat="42.967063346877694" lon="13.242567731067538">
        <ele>1844.2</ele>
        <time>2019-06-19T09:46:13Z</time>
      </trkpt>
      <trkpt lat="42.966967709362507" lon="13.242431106045842">
        <ele>1846.1900000000001</ele>
        <time>2019-06-19T09:46:27Z</time>
      </trkpt>
      <trkpt lat="42.966863857582211" lon="13.242285260930657">
        <ele>1848.1700000000001</ele>
        <time>2019-06-19T09:46:44Z</time>
      </trkpt>
      <trkpt lat="42.966776518151164" lon="13.242102535441518">
        <ele>1849.5899999999999</ele>
        <time>2019-06-19T09:46:59Z</time>
      </trkpt>
      <trkpt lat="42.966703092679381" lon="13.241951242089272">
        <ele>1851.55</ele>
        <time>2019-06-19T09:47:14Z</time>
      </trkpt>
      <trkpt lat="42.966655902564526" lon="13.241804977878928">
        <ele>1853.74</ele>
        <time>2019-06-19T09:47:29Z</time>
      </trkpt>
      <trkpt lat="42.966619776561856" lon="13.241645637899637">
        <ele>1856.3099999999999</ele>
        <time>2019-06-19T09:47:45Z</time>
      </trkpt>
      <trkpt lat="42.966561270877719" lon="13.241498032584786">
        <ele>1858.26</ele>
        <time>2019-06-19T09:48:02Z</time>
      </trkpt>
      <trkpt lat="42.966500166803598" lon="13.241363922134042">
        <ele>1860.8399999999999</ele>
        <time>2019-06-19T09:48:18Z</time>
      </trkpt>
      <trkpt lat="42.966444930061698" lon="13.24124313890934">
        <ele>1863.73</ele>
        <time>2019-06-19T09:48:34Z</time>
      </trkpt>
      <trkpt lat="42.966415006667376" lon="13.241115231066942">
        <ele>1865.3499999999999</ele>
        <time>2019-06-19T09:48:48Z</time>
      </trkpt>
      <trkpt lat="42.966412575915456" lon="13.241085223853588">
        <ele>1865.4400000000001</ele>
        <time>2019-06-19T09:48:58Z</time>
      </trkpt>
      <trkpt lat="42.966399500146508" lon="13.241066951304674">
        <ele>1865.1199999999999</ele>
        <time>2019-06-19T09:49:08Z</time>
      </trkpt>
      <trkpt lat="42.966395393013954" lon="13.241060245782137">
        <ele>1864.9000000000001</ele>
        <time>2019-06-19T09:49:21Z</time>
      </trkpt>
      <trkpt lat="42.966381227597594" lon="13.241054797545075">
        <ele>1864.45</ele>
        <time>2019-06-19T09:49:44Z</time>
      </trkpt>
      <trkpt lat="42.966379802674055" lon="13.241055132821202">
        <ele>1864.5799999999999</ele>
        <time>2019-06-19T09:50:00Z</time>
      </trkpt>
      <trkpt lat="42.966371672227979" lon="13.241031244397163">
        <ele>1864.0599999999999</ele>
        <time>2019-06-19T09:50:15Z</time>
      </trkpt>
      <trkpt lat="42.966319704428315" lon="13.24095974676311">
        <ele>1861.1500000000001</ele>
        <time>2019-06-19T09:50:31Z</time>
      </trkpt>
      <trkpt lat="42.966270251199603" lon="13.240900486707687">
        <ele>1858.1400000000001</ele>
        <time>2019-06-19T09:50:42Z</time>
      </trkpt>
      <trkpt lat="42.966209482401609" lon="13.240839801728725">
        <ele>1855.1199999999999</ele>
        <time>2019-06-19T09:50:53Z</time>
      </trkpt>
      <trkpt lat="42.966156844049692" lon="13.24077945202589">
        <ele>1852.72</ele>
        <time>2019-06-19T09:51:07Z</time>
      </trkpt>
      <trkpt lat="42.966147707775235" lon="13.240778194740415">
        <ele>1852.55</ele>
        <time>2019-06-19T09:51:22Z</time>
      </trkpt>
      <trkpt lat="42.966142008081079" lon="13.240773668512702">
        <ele>1852.3399999999999</ele>
        <time>2019-06-19T09:51:37Z</time>
      </trkpt>
      <trkpt lat="42.966137984767556" lon="13.240781044587493">
        <ele>1852.5699999999999</ele>
        <time>2019-06-19T09:51:51Z</time>
      </trkpt>
      <trkpt lat="42.966086603701115" lon="13.240727735683322">
        <ele>1850.6400000000001</ele>
        <time>2019-06-19T09:52:03Z</time>
      </trkpt>
      <trkpt lat="42.966089537367225" lon="13.240698985755444">
        <ele>1849.76</ele>
        <time>2019-06-19T09:52:12Z</time>
      </trkpt>
      <trkpt lat="42.966079143807292" lon="13.240693369880319">
        <ele>1849.6500000000001</ele>
        <time>2019-06-19T09:52:28Z</time>
      </trkpt>
      <trkpt lat="42.966011166572571" lon="13.240627236664295">
        <ele>1848.0599999999999</ele>
        <time>2019-06-19T09:52:42Z</time>
      </trkpt>
      <trkpt lat="42.965979399159551" lon="13.240584824234247">
        <ele>1846.54</ele>
        <time>2019-06-19T09:52:56Z</time>
      </trkpt>
      <trkpt lat="42.965928101912141" lon="13.240496898069978">
        <ele>1844.1900000000001</ele>
        <time>2019-06-19T09:53:08Z</time>
      </trkpt>
      <trkpt lat="42.965885270386934" lon="13.240425903350115">
        <ele>1841.6800000000001</ele>
        <time>2019-06-19T09:53:19Z</time>
      </trkpt>
      <trkpt lat="42.965823411941528" lon="13.24035088531673">
        <ele>1838.6900000000001</ele>
        <time>2019-06-19T09:53:31Z</time>
      </trkpt>
      <trkpt lat="42.965765241533518" lon="13.240265054628253">
        <ele>1836.96</ele>
        <time>2019-06-19T09:53:42Z</time>
      </trkpt>
      <trkpt lat="42.965707741677761" lon="13.240183750167489">
        <ele>1834.8</ele>
        <time>2019-06-19T09:53:52Z</time>
      </trkpt>
      <trkpt lat="42.965678572654724" lon="13.240112336352468">
        <ele>1832.8099999999999</ele>
        <time>2019-06-19T09:54:04Z</time>
      </trkpt>
      <trkpt lat="42.965647140517831" lon="13.240053411573172">
        <ele>1831.5699999999999</ele>
        <time>2019-06-19T09:54:15Z</time>
      </trkpt>
      <trkpt lat="42.965587880462408" lon="13.239946626126766">
        <ele>1828.75</ele>
        <time>2019-06-19T09:54:28Z</time>
      </trkpt>
      <trkpt lat="42.965509593486786" lon="13.239821316674352">
        <ele>1826.0999999999999</ele>
        <time>2019-06-19T09:54:42Z</time>
      </trkpt>
      <trkpt lat="42.965467683970928" lon="13.239700868725777">
        <ele>1823.8599999999999</ele>
        <time>2019-06-19T09:54:57Z</time>
      </trkpt>
      <trkpt lat="42.965446813032031" lon="13.239656025543809">
        <ele>1822.8299999999999</ele>
        <time>2019-06-19T09:55:08Z</time>
      </trkpt>
      <trkpt lat="42.965376572683454" lon="13.239605398848653">
        <ele>1820.9000000000001</ele>
        <time>2019-06-19T09:55:19Z</time>
      </trkpt>
      <trkpt lat="42.965354109182954" lon="13.239531302824616">
        <ele>1818.3900000000001</ele>
        <time>2019-06-19T09:55:31Z</time>
      </trkpt>
      <trkpt lat="42.965336758643389" lon="13.239470953121781">
        <ele>1820.1600000000001</ele>
        <time>2019-06-19T09:55:44Z</time>
      </trkpt>
      <trkpt lat="42.965352348983288" lon="13.239423260092735">
        <ele>1820.4200000000001</ele>
        <time>2019-06-19T09:55:55Z</time>
      </trkpt>
      <trkpt lat="42.965346062555909" lon="13.239384116604924">
        <ele>1820.25</ele>
        <time>2019-06-19T09:56:07Z</time>
      </trkpt>
      <trkpt lat="42.965337093919516" lon="13.239353857934475">
        <ele>1819.78</ele>
        <time>2019-06-19T09:56:12Z</time>
      </trkpt>
      <trkpt lat="42.965257801115513" lon="13.239185130223632">
        <ele>1819.5999999999999</ele>
        <time>2019-06-19T09:56:27Z</time>
      </trkpt>
      <trkpt lat="42.965185800567269" lon="13.239014055579901">
        <ele>1820.28</ele>
        <time>2019-06-19T09:56:42Z</time>
      </trkpt>
      <trkpt lat="42.965126791968942" lon="13.238846333697438">
        <ele>1820.8499999999999</ele>
        <time>2019-06-19T09:56:57Z</time>
      </trkpt>
      <trkpt lat="42.965114554390311" lon="13.238811464980245">
        <ele>1820.6700000000001</ele>
        <time>2019-06-19T09:57:00Z</time>
      </trkpt>
      <trkpt lat="42.965027466416359" lon="13.238665368407965">
        <ele>1821.4200000000001</ele>
        <time>2019-06-19T09:57:16Z</time>
      </trkpt>
      <trkpt lat="42.965001901611686" lon="13.23858548887074">
        <ele>1824.1300000000001</ele>
        <time>2019-06-19T09:57:30Z</time>
      </trkpt>
      <trkpt lat="42.964972816407681" lon="13.238487252965569">
        <ele>1827</ele>
        <time>2019-06-19T09:57:46Z</time>
      </trkpt>
      <trkpt lat="42.964931493625045" lon="13.238370325416327">
        <ele>1828.6500000000001</ele>
        <time>2019-06-19T09:58:00Z</time>
      </trkpt>
      <trkpt lat="42.964900648221374" lon="13.238234370946884">
        <ele>1829.6700000000001</ele>
        <time>2019-06-19T09:58:15Z</time>
      </trkpt>
      <trkpt lat="42.964902073144913" lon="13.238140074536204">
        <ele>1829.6900000000001</ele>
        <time>2019-06-19T09:58:29Z</time>
      </trkpt>
      <trkpt lat="42.964902492240071" lon="13.238137643784285">
        <ele>1830.3599999999999</ele>
        <time>2019-06-19T09:58:57Z</time>
      </trkpt>
      <trkpt lat="42.964882710948586" lon="13.238114509731531">
        <ele>1828.95</ele>
        <time>2019-06-19T09:59:15Z</time>
      </trkpt>
      <trkpt lat="42.964853961020708" lon="13.238017028197646">
        <ele>1825.6900000000001</ele>
        <time>2019-06-19T09:59:27Z</time>
      </trkpt>
      <trkpt lat="42.964813560247421" lon="13.237906973809004">
        <ele>1822.6300000000001</ele>
        <time>2019-06-19T09:59:39Z</time>
      </trkpt>
      <trkpt lat="42.964783720672131" lon="13.237788118422031">
        <ele>1819.5899999999999</ele>
        <time>2019-06-19T09:59:51Z</time>
      </trkpt>
      <trkpt lat="42.96475681476295" lon="13.237696839496493">
        <ele>1816.52</ele>
        <time>2019-06-19T10:00:03Z</time>
      </trkpt>
      <trkpt lat="42.964740805327892" lon="13.237604973837733">
        <ele>1813.52</ele>
        <time>2019-06-19T10:00:13Z</time>
      </trkpt>
      <trkpt lat="42.964743403717875" lon="13.23751050978899">
        <ele>1811.53</ele>
        <time>2019-06-19T10:00:26Z</time>
      </trkpt>
      <trkpt lat="42.96473141759634" lon="13.237442364916205">
        <ele>1810.25</ele>
        <time>2019-06-19T10:00:38Z</time>
      </trkpt>
      <trkpt lat="42.964753042906523" lon="13.237425601109862">
        <ele>1809.8</ele>
        <time>2019-06-19T10:00:48Z</time>
      </trkpt>
      <trkpt lat="42.964705098420382" lon="13.237379584461451">
        <ele>1807.05</ele>
        <time>2019-06-19T10:01:00Z</time>
      </trkpt>
      <trkpt lat="42.964652292430401" lon="13.2373390160501">
        <ele>1803.99</ele>
        <time>2019-06-19T10:01:12Z</time>
      </trkpt>
      <trkpt lat="42.964610634371638" lon="13.237302806228399">
        <ele>1801.1700000000001</ele>
        <time>2019-06-19T10:01:22Z</time>
      </trkpt>
      <trkpt lat="42.964590517804027" lon="13.237210186198354">
        <ele>1798.23</ele>
        <time>2019-06-19T10:01:34Z</time>
      </trkpt>
      <trkpt lat="42.964568389579654" lon="13.237104155123234">
        <ele>1795.1400000000001</ele>
        <time>2019-06-19T10:01:46Z</time>
      </trkpt>
      <trkpt lat="42.964544165879488" lon="13.237034166231751">
        <ele>1792.54</ele>
        <time>2019-06-19T10:01:58Z</time>
      </trkpt>
      <trkpt lat="42.964533101767302" lon="13.237016564235091">
        <ele>1792.4300000000001</ele>
        <time>2019-06-19T10:02:41Z</time>
      </trkpt>
      <trkpt lat="42.964497897773981" lon="13.236946994438767">
        <ele>1790.6700000000001</ele>
        <time>2019-06-19T10:02:53Z</time>
      </trkpt>
      <trkpt lat="42.964479541406035" lon="13.236855296418071">
        <ele>1788.6099999999999</ele>
        <time>2019-06-19T10:03:02Z</time>
      </trkpt>
      <trkpt lat="42.964447857812047" lon="13.236669050529599">
        <ele>1785.9100000000001</ele>
        <time>2019-06-19T10:03:16Z</time>
      </trkpt>
      <trkpt lat="42.964438889175653" lon="13.23656989261508">
        <ele>1784.5999999999999</ele>
        <time>2019-06-19T10:03:24Z</time>
      </trkpt>
      <trkpt lat="42.964403098449111" lon="13.236352046951652">
        <ele>1782.4000000000001</ele>
        <time>2019-06-19T10:03:39Z</time>
      </trkpt>
      <trkpt lat="42.964372923597693" lon="13.236156748607755">
        <ele>1780.0899999999999</ele>
        <time>2019-06-19T10:03:55Z</time>
      </trkpt>
      <trkpt lat="42.964339982718229" lon="13.236080221831799">
        <ele>1779</ele>
        <time>2019-06-19T10:04:04Z</time>
      </trkpt>
      <trkpt lat="42.964285248890519" lon="13.235947452485561">
        <ele>1775.8199999999999</ele>
        <time>2019-06-19T10:04:17Z</time>
      </trkpt>
      <trkpt lat="42.964256247505546" lon="13.235822059214115">
        <ele>1772.75</ele>
        <time>2019-06-19T10:04:29Z</time>
      </trkpt>
      <trkpt lat="42.964211320504546" lon="13.235741090029478">
        <ele>1769.72</ele>
        <time>2019-06-19T10:04:42Z</time>
      </trkpt>
      <trkpt lat="42.964153736829758" lon="13.235665820538998">
        <ele>1766.55</ele>
        <time>2019-06-19T10:04:53Z</time>
      </trkpt>
      <trkpt lat="42.964088274165988" lon="13.235584683716297">
        <ele>1763.55</ele>
        <time>2019-06-19T10:05:04Z</time>
      </trkpt>
      <trkpt lat="42.964020632207394" lon="13.235531961545348">
        <ele>1760.5</ele>
        <time>2019-06-19T10:05:14Z</time>
      </trkpt>
      <trkpt lat="42.963978219777346" lon="13.235451243817806">
        <ele>1757.25</ele>
        <time>2019-06-19T10:05:24Z</time>
      </trkpt>
      <trkpt lat="42.963929856196046" lon="13.235389217734337">
        <ele>1754.23</ele>
        <time>2019-06-19T10:05:33Z</time>
      </trkpt>
      <trkpt lat="42.96388509683311" lon="13.235280085355043">
        <ele>1751.3</ele>
        <time>2019-06-19T10:05:46Z</time>
      </trkpt>
      <trkpt lat="42.963825333863497" lon="13.235222585499287">
        <ele>1748.7</ele>
        <time>2019-06-19T10:05:57Z</time>
      </trkpt>
      <trkpt lat="42.963762804865837" lon="13.235162822529674">
        <ele>1746.1199999999999</ele>
        <time>2019-06-19T10:06:09Z</time>
      </trkpt>
      <trkpt lat="42.963705556467175" lon="13.235070537775755">
        <ele>1743.0999999999999</ele>
        <time>2019-06-19T10:06:20Z</time>
      </trkpt>
      <trkpt lat="42.963623581454158" lon="13.235036004334688">
        <ele>1740.0799999999999</ele>
        <time>2019-06-19T10:06:31Z</time>
      </trkpt>
      <trkpt lat="42.963533475995064" lon="13.234952855855227">
        <ele>1737.0699999999999</ele>
        <time>2019-06-19T10:06:45Z</time>
      </trkpt>
      <trkpt lat="42.963442699983716" lon="13.234849842265248">
        <ele>1733.98</ele>
        <time>2019-06-19T10:06:57Z</time>
      </trkpt>
      <trkpt lat="42.963340608403087" lon="13.234776081517339">
        <ele>1730.74</ele>
        <time>2019-06-19T10:07:09Z</time>
      </trkpt>
      <trkpt lat="42.9632518440485" lon="13.234727717936039">
        <ele>1727.6600000000001</ele>
        <time>2019-06-19T10:07:20Z</time>
      </trkpt>
      <trkpt lat="42.963189147412777" lon="13.234685976058245">
        <ele>1723.47</ele>
        <time>2019-06-19T10:07:28Z</time>
      </trkpt>
      <trkpt lat="42.963075656443834" lon="13.234621183946729">
        <ele>1721.49</ele>
        <time>2019-06-19T10:07:42Z</time>
      </trkpt>
      <trkpt lat="42.963032908737659" lon="13.234590254724026">
        <ele>1720.1700000000001</ele>
        <time>2019-06-19T10:07:51Z</time>
      </trkpt>
      <trkpt lat="42.962898295372725" lon="13.234441140666604">
        <ele>1717.0899999999999</ele>
        <time>2019-06-19T10:08:07Z</time>
      </trkpt>
      <trkpt lat="42.962769800797105" lon="13.234319938346744">
        <ele>1715.4100000000001</ele>
        <time>2019-06-19T10:08:21Z</time>
      </trkpt>
      <trkpt lat="42.962656980380416" lon="13.23421130888164">
        <ele>1713.8299999999999</ele>
        <time>2019-06-19T10:08:34Z</time>
      </trkpt>
      <trkpt lat="42.962558912113309" lon="13.234124053269625">
        <ele>1712.04</ele>
        <time>2019-06-19T10:08:45Z</time>
      </trkpt>
      <trkpt lat="42.962429663166404" lon="13.233998492360115">
        <ele>1711.4000000000001</ele>
        <time>2019-06-19T10:09:00Z</time>
      </trkpt>
      <trkpt lat="42.962374174967408" lon="13.233934286981821">
        <ele>1710.21</ele>
        <time>2019-06-19T10:09:14Z</time>
      </trkpt>
      <trkpt lat="42.962363613769412" lon="13.23393177241087">
        <ele>1710.4400000000001</ele>
        <time>2019-06-19T10:09:34Z</time>
      </trkpt>
      <trkpt lat="42.962344670668244" lon="13.23394350707531">
        <ele>1709.99</ele>
        <time>2019-06-19T10:09:47Z</time>
      </trkpt>
      <trkpt lat="42.962343832477927" lon="13.233947530388832">
        <ele>1709.99</ele>
        <time>2019-06-19T10:09:48Z</time>
      </trkpt>
      <trkpt lat="42.962358165532351" lon="13.233949290588498">
        <ele>1709.0799999999999</ele>
        <time>2019-06-19T10:09:59Z</time>
      </trkpt>
      <trkpt lat="42.962349867448211" lon="13.233949122950435">
        <ele>1709.74</ele>
        <time>2019-06-19T10:10:36Z</time>
      </trkpt>
      <trkpt lat="42.962346514686942" lon="13.233953397721052">
        <ele>1709.3599999999999</ele>
        <time>2019-06-19T10:11:29Z</time>
      </trkpt>
      <trkpt lat="42.962342575192451" lon="13.233957169577479">
        <ele>1709.51</ele>
        <time>2019-06-19T10:12:26Z</time>
      </trkpt>
      <trkpt lat="42.962346766144037" lon="13.233952978625894">
        <ele>1709.1800000000001</ele>
        <time>2019-06-19T10:13:30Z</time>
      </trkpt>
      <trkpt lat="42.962347017601132" lon="13.233957421034575">
        <ele>1709.2</ele>
        <time>2019-06-19T10:13:59Z</time>
      </trkpt>
      <trkpt lat="42.962348023429513" lon="13.233952727168798">
        <ele>1708.5</ele>
        <time>2019-06-19T10:14:54Z</time>
      </trkpt>
      <trkpt lat="42.962341569364071" lon="13.233951302245259">
        <ele>1708.78</ele>
        <time>2019-06-19T10:15:57Z</time>
      </trkpt>
      <trkpt lat="42.96234249137342" lon="13.233949458226562">
        <ele>1708.6500000000001</ele>
        <time>2019-06-19T10:16:55Z</time>
      </trkpt>
      <trkpt lat="42.962342323735356" lon="13.233935544267297">
        <ele>1709.52</ele>
        <time>2019-06-19T10:17:19Z</time>
      </trkpt>
      <trkpt lat="42.962340228259563" lon="13.233946189284325">
        <ele>1710.02</ele>
        <time>2019-06-19T10:17:33Z</time>
      </trkpt>
      <trkpt lat="42.962343245744705" lon="13.233938310295343">
        <ele>1709.8699999999999</ele>
        <time>2019-06-19T10:17:53Z</time>
      </trkpt>
      <trkpt lat="42.962338300421834" lon="13.23393520899117">
        <ele>1710.0799999999999</ele>
        <time>2019-06-19T10:18:04Z</time>
      </trkpt>
      <trkpt lat="42.962336456403136" lon="13.233939316123724">
        <ele>1710.02</ele>
        <time>2019-06-19T10:18:24Z</time>
      </trkpt>
      <trkpt lat="42.962337881326675" lon="13.233938477933407">
        <ele>1709.8800000000001</ele>
        <time>2019-06-19T10:18:44Z</time>
      </trkpt>
      <trkpt lat="42.962333019822836" lon="13.233952056616545">
        <ele>1710.21</ele>
        <time>2019-06-19T10:19:02Z</time>
      </trkpt>
      <trkpt lat="42.962329750880599" lon="13.233935879543424">
        <ele>1710.3399999999999</ele>
        <time>2019-06-19T10:19:18Z</time>
      </trkpt>
      <trkpt lat="42.962247608229518" lon="13.233773270621896">
        <ele>1710.72</ele>
        <time>2019-06-19T10:19:31Z</time>
      </trkpt>
      <trkpt lat="42.962168147787452" lon="13.233605800196528">
        <ele>1711.22</ele>
        <time>2019-06-19T10:19:45Z</time>
      </trkpt>
      <trkpt lat="42.962088854983449" lon="13.233468420803547">
        <ele>1712.3800000000001</ele>
        <time>2019-06-19T10:20:00Z</time>
      </trkpt>
      <trkpt lat="42.961996821686625" lon="13.233293741941452">
        <ele>1713.53</ele>
        <time>2019-06-19T10:20:18Z</time>
      </trkpt>
      <trkpt lat="42.96196086332202" lon="13.23322718963027">
        <ele>1714.29</ele>
        <time>2019-06-19T10:20:32Z</time>
      </trkpt>
      <trkpt lat="42.961916606873274" lon="13.233105400577188">
        <ele>1716.3399999999999</ele>
        <time>2019-06-19T10:20:45Z</time>
      </trkpt>
      <trkpt lat="42.961907554417849" lon="13.233074136078358">
        <ele>1716.76</ele>
        <time>2019-06-19T10:20:48Z</time>
      </trkpt>
      <trkpt lat="42.961854413151741" lon="13.232810357585549">
        <ele>1715.9000000000001</ele>
        <time>2019-06-19T10:21:07Z</time>
      </trkpt>
      <trkpt lat="42.961797332391143" lon="13.232596032321453">
        <ele>1713.01</ele>
        <time>2019-06-19T10:21:21Z</time>
      </trkpt>
      <trkpt lat="42.961718710139394" lon="13.232398303225636">
        <ele>1713.6600000000001</ele>
        <time>2019-06-19T10:21:35Z</time>
      </trkpt>
      <trkpt lat="42.961623910814524" lon="13.232187917456031">
        <ele>1715.6500000000001</ele>
        <time>2019-06-19T10:21:51Z</time>
      </trkpt>
      <trkpt lat="42.961548808962107" lon="13.232013490051031">
        <ele>1716.1400000000001</ele>
        <time>2019-06-19T10:22:04Z</time>
      </trkpt>
      <trkpt lat="42.961449064314365" lon="13.231802769005299">
        <ele>1718.3800000000001</ele>
        <time>2019-06-19T10:22:21Z</time>
      </trkpt>
      <trkpt lat="42.961343619972467" lon="13.23164988309145">
        <ele>1720.6600000000001</ele>
        <time>2019-06-19T10:22:37Z</time>
      </trkpt>
      <trkpt lat="42.961270697414875" lon="13.231453998014331">
        <ele>1723.8099999999999</ele>
        <time>2019-06-19T10:22:56Z</time>
      </trkpt>
      <trkpt lat="42.961202803999186" lon="13.231268171221018">
        <ele>1727.3199999999999</ele>
        <time>2019-06-19T10:23:14Z</time>
      </trkpt>
      <trkpt lat="42.96115075238049" lon="13.23112266138196">
        <ele>1730.3699999999999</ele>
        <time>2019-06-19T10:23:29Z</time>
      </trkpt>
      <trkpt lat="42.961089564487338" lon="13.230958292260766">
        <ele>1733.4300000000001</ele>
        <time>2019-06-19T10:23:46Z</time>
      </trkpt>
      <trkpt lat="42.961024604737759" lon="13.230789816007018">
        <ele>1736.1600000000001</ele>
        <time>2019-06-19T10:24:03Z</time>
      </trkpt>
      <trkpt lat="42.96096308156848" lon="13.230670709162951">
        <ele>1739.1800000000001</ele>
        <time>2019-06-19T10:24:21Z</time>
      </trkpt>
      <trkpt lat="42.960874568670988" lon="13.230569874867797">
        <ele>1742.0999999999999</ele>
        <time>2019-06-19T10:24:38Z</time>
      </trkpt>
      <trkpt lat="42.960765603929758" lon="13.23046007193625">
        <ele>1745.3</ele>
        <time>2019-06-19T10:24:57Z</time>
      </trkpt>
      <trkpt lat="42.960639456287026" lon="13.230372983962297">
        <ele>1748.3399999999999</ele>
        <time>2019-06-19T10:25:15Z</time>
      </trkpt>
      <trkpt lat="42.960547255352139" lon="13.230209788307548">
        <ele>1750.6099999999999</ele>
        <time>2019-06-19T10:25:32Z</time>
      </trkpt>
      <trkpt lat="42.960475087165833" lon="13.23001004755497">
        <ele>1751.5999999999999</ele>
        <time>2019-06-19T10:25:47Z</time>
      </trkpt>
      <trkpt lat="42.960372073575854" lon="13.229778036475182">
        <ele>1751.3599999999999</ele>
        <time>2019-06-19T10:26:03Z</time>
      </trkpt>
      <trkpt lat="42.960282303392887" lon="13.229560442268848">
        <ele>1752.6199999999999</ele>
        <time>2019-06-19T10:26:18Z</time>
      </trkpt>
      <trkpt lat="42.960197813808918" lon="13.229344189167023">
        <ele>1754.99</ele>
        <time>2019-06-19T10:26:34Z</time>
      </trkpt>
      <trkpt lat="42.96007719822228" lon="13.229105724021792">
        <ele>1754.0899999999999</ele>
        <time>2019-06-19T10:26:50Z</time>
      </trkpt>
      <trkpt lat="42.959972256794572" lon="13.228833815082908">
        <ele>1756.8</ele>
        <time>2019-06-19T10:27:09Z</time>
      </trkpt>
      <trkpt lat="42.959928000345826" lon="13.228693166747689">
        <ele>1758.97</ele>
        <time>2019-06-19T10:27:24Z</time>
      </trkpt>
      <trkpt lat="42.959859352558851" lon="13.228610940277576">
        <ele>1760.4000000000001</ele>
        <time>2019-06-19T10:27:40Z</time>
      </trkpt>
      <trkpt lat="42.959784753620625" lon="13.228535000234842">
        <ele>1761.5699999999999</ele>
        <time>2019-06-19T10:27:55Z</time>
      </trkpt>
      <trkpt lat="42.959711579605937" lon="13.228454031050205">
        <ele>1764.1800000000001</ele>
        <time>2019-06-19T10:28:12Z</time>
      </trkpt>
      <trkpt lat="42.959648799151182" lon="13.228406170383096">
        <ele>1765.7</ele>
        <time>2019-06-19T10:28:26Z</time>
      </trkpt>
      <trkpt lat="42.959574703127146" lon="13.22835017926991">
        <ele>1767.54</ele>
        <time>2019-06-19T10:28:41Z</time>
      </trkpt>
      <trkpt lat="42.95954997651279" lon="13.228326207026839">
        <ele>1768.76</ele>
        <time>2019-06-19T10:28:46Z</time>
      </trkpt>
      <trkpt lat="42.959489794448018" lon="13.228238113224506">
        <ele>1769.9300000000001</ele>
        <time>2019-06-19T10:29:01Z</time>
      </trkpt>
      <trkpt lat="42.959430534392595" lon="13.228155886754394">
        <ele>1771.6400000000001</ele>
        <time>2019-06-19T10:29:16Z</time>
      </trkpt>
      <trkpt lat="42.959365993738174" lon="13.228042060509324">
        <ele>1773.5699999999999</ele>
        <time>2019-06-19T10:29:33Z</time>
      </trkpt>
      <trkpt lat="42.95927538536489" lon="13.227925803512335">
        <ele>1775.3399999999999</ele>
        <time>2019-06-19T10:29:51Z</time>
      </trkpt>
      <trkpt lat="42.959204893559217" lon="13.227814575657248">
        <ele>1776.24</ele>
        <time>2019-06-19T10:30:07Z</time>
      </trkpt>
      <trkpt lat="42.9591781552881" lon="13.227717680856586">
        <ele>1778.1300000000001</ele>
        <time>2019-06-19T10:30:21Z</time>
      </trkpt>
      <trkpt lat="42.959097940474749" lon="13.227601675316691">
        <ele>1779.55</ele>
        <time>2019-06-19T10:30:38Z</time>
      </trkpt>
      <trkpt lat="42.959044715389609" lon="13.227529674768448">
        <ele>1780.96</ele>
        <time>2019-06-19T10:30:51Z</time>
      </trkpt>
      <trkpt lat="42.958987634629011" lon="13.22743060067296">
        <ele>1783.47</ele>
        <time>2019-06-19T10:31:07Z</time>
      </trkpt>
      <trkpt lat="42.958947233855724" lon="13.227333789691329">
        <ele>1785.78</ele>
        <time>2019-06-19T10:31:24Z</time>
      </trkpt>
      <trkpt lat="42.958899792283773" lon="13.227272182703018">
        <ele>1787.4200000000001</ele>
        <time>2019-06-19T10:31:40Z</time>
      </trkpt>
      <trkpt lat="42.958872886374593" lon="13.22722390294075">
        <ele>1788.5799999999999</ele>
        <time>2019-06-19T10:31:52Z</time>
      </trkpt>
      <trkpt lat="42.95879409648478" lon="13.227116363123059">
        <ele>1790.21</ele>
        <time>2019-06-19T10:32:08Z</time>
      </trkpt>
      <trkpt lat="42.958757719025016" lon="13.227042686194181">
        <ele>1792.21</ele>
        <time>2019-06-19T10:32:24Z</time>
      </trkpt>
      <trkpt lat="42.958735674619675" lon="13.227004045620561">
        <ele>1793.98</ele>
        <time>2019-06-19T10:32:35Z</time>
      </trkpt>
      <trkpt lat="42.958714049309492" lon="13.226976301521063">
        <ele>1794.25</ele>
        <time>2019-06-19T10:32:38Z</time>
      </trkpt>
      <trkpt lat="42.958648167550564" lon="13.22689063847065">
        <ele>1795.1400000000001</ele>
        <time>2019-06-19T10:32:51Z</time>
      </trkpt>
      <trkpt lat="42.958564767614007" lon="13.226768430322409">
        <ele>1796.3099999999999</ele>
        <time>2019-06-19T10:33:07Z</time>
      </trkpt>
      <trkpt lat="42.958477763459086" lon="13.226657118648291">
        <ele>1798.29</ele>
        <time>2019-06-19T10:33:25Z</time>
      </trkpt>
      <trkpt lat="42.958411127328873" lon="13.2265271153301">
        <ele>1799.5799999999999</ele>
        <time>2019-06-19T10:33:42Z</time>
      </trkpt>
      <trkpt lat="42.95834843069315" lon="13.226391999050975">
        <ele>1800.8699999999999</ele>
        <time>2019-06-19T10:33:57Z</time>
      </trkpt>
      <trkpt lat="42.958274837583303" lon="13.22628035210073">
        <ele>1801.1199999999999</ele>
        <time>2019-06-19T10:34:11Z</time>
      </trkpt>
      <trkpt lat="42.95824927277863" lon="13.226252188906074">
        <ele>1801.04</ele>
        <time>2019-06-19T10:34:14Z</time>
      </trkpt>
      <trkpt lat="42.958216583356261" lon="13.226202819496393">
        <ele>1801.0699999999999</ele>
        <time>2019-06-19T10:34:18Z</time>
      </trkpt>
      <trkpt lat="42.958145085722208" lon="13.226042054593563">
        <ele>1801.99</ele>
        <time>2019-06-19T10:34:32Z</time>
      </trkpt>
      <trkpt lat="42.958081718534231" lon="13.225871315225959">
        <ele>1802.3199999999999</ele>
        <time>2019-06-19T10:34:46Z</time>
      </trkpt>
      <trkpt lat="42.95801910571754" lon="13.225688170641661">
        <ele>1803.05</ele>
        <time>2019-06-19T10:35:01Z</time>
      </trkpt>
      <trkpt lat="42.958005024120212" lon="13.225660510361195">
        <ele>1803.3299999999999</ele>
        <time>2019-06-19T10:35:04Z</time>
      </trkpt>
      <trkpt lat="42.957924474030733" lon="13.225490441545844">
        <ele>1803.3699999999999</ele>
        <time>2019-06-19T10:35:19Z</time>
      </trkpt>
      <trkpt lat="42.957843588665128" lon="13.225336633622646">
        <ele>1804</ele>
        <time>2019-06-19T10:35:33Z</time>
      </trkpt>
      <trkpt lat="42.957761278375983" lon="13.225155249238014">
        <ele>1804.6400000000001</ele>
        <time>2019-06-19T10:35:49Z</time>
      </trkpt>
      <trkpt lat="42.957701766863465" lon="13.224985431879759">
        <ele>1805.78</ele>
        <time>2019-06-19T10:36:04Z</time>
      </trkpt>
      <trkpt lat="42.957617864012718" lon="13.224833635613322">
        <ele>1806.1600000000001</ele>
        <time>2019-06-19T10:36:19Z</time>
      </trkpt>
      <trkpt lat="42.957576457411051" lon="13.224782086908817">
        <ele>1806.0999999999999</ele>
        <time>2019-06-19T10:36:26Z</time>
      </trkpt>
      <trkpt lat="42.957537900656462" lon="13.224726095795631">
        <ele>1806.3099999999999</ele>
        <time>2019-06-19T10:36:32Z</time>
      </trkpt>
      <trkpt lat="42.957472857087851" lon="13.224609671160579">
        <ele>1806.77</ele>
        <time>2019-06-19T10:36:45Z</time>
      </trkpt>
      <trkpt lat="42.957410411909223" lon="13.224497018381953">
        <ele>1807.1600000000001</ele>
        <time>2019-06-19T10:36:57Z</time>
      </trkpt>
      <trkpt lat="42.957388116046786" lon="13.224453516304493">
        <ele>1807.24</ele>
        <time>2019-06-19T10:37:12Z</time>
      </trkpt>
      <trkpt lat="42.957381829619408" lon="13.22444555349648">
        <ele>1807.1800000000001</ele>
        <time>2019-06-19T10:37:13Z</time>
      </trkpt>
      <trkpt lat="42.957245958968997" lon="13.224273724481463">
        <ele>1808.51</ele>
        <time>2019-06-19T10:37:31Z</time>
      </trkpt>
      <trkpt lat="42.957113273441792" lon="13.224141206592321">
        <ele>1809.55</ele>
        <time>2019-06-19T10:37:46Z</time>
      </trkpt>
      <trkpt lat="42.956990394741297" lon="13.224032744765282">
        <ele>1810.6600000000001</ele>
        <time>2019-06-19T10:38:02Z</time>
      </trkpt>
      <trkpt lat="42.956887548789382" lon="13.223912883549929">
        <ele>1810.5599999999999</ele>
        <time>2019-06-19T10:38:18Z</time>
      </trkpt>
      <trkpt lat="42.956848908215761" lon="13.22386116720736">
        <ele>1810.1500000000001</ele>
        <time>2019-06-19T10:38:30Z</time>
      </trkpt>
      <trkpt lat="42.956751007586718" lon="13.223740551620722">
        <ele>1811.52</ele>
        <time>2019-06-19T10:38:45Z</time>
      </trkpt>
      <trkpt lat="42.956665009260178" lon="13.223639465868473">
        <ele>1812.0599999999999</ele>
        <time>2019-06-19T10:39:00Z</time>
      </trkpt>
      <trkpt lat="42.956623854115605" lon="13.223608704283834">
        <ele>1811.8699999999999</ele>
        <time>2019-06-19T10:39:06Z</time>
      </trkpt>
      <trkpt lat="42.956523941829801" lon="13.223524549975991">
        <ele>1812.6600000000001</ele>
        <time>2019-06-19T10:39:21Z</time>
      </trkpt>
      <trkpt lat="42.956463508307934" lon="13.223420279100537">
        <ele>1813.51</ele>
        <time>2019-06-19T10:39:35Z</time>
      </trkpt>
      <trkpt lat="42.956424281001091" lon="13.223394462838769">
        <ele>1812.7</ele>
        <time>2019-06-19T10:39:46Z</time>
      </trkpt>
      <trkpt lat="42.956419922411442" lon="13.223387002944946">
        <ele>1812.21</ele>
        <time>2019-06-19T10:39:57Z</time>
      </trkpt>
      <trkpt lat="42.956420592963696" lon="13.223370909690857">
        <ele>1812.78</ele>
        <time>2019-06-19T10:40:15Z</time>
      </trkpt>
      <trkpt lat="42.956271478906274" lon="13.223326401785016">
        <ele>1813.2</ele>
        <time>2019-06-19T10:40:29Z</time>
      </trkpt>
      <trkpt lat="42.956145415082574" lon="13.223274014890194">
        <ele>1814.7</ele>
        <time>2019-06-19T10:40:42Z</time>
      </trkpt>
      <trkpt lat="42.956126555800438" lon="13.223282396793365">
        <ele>1814.6900000000001</ele>
        <time>2019-06-19T10:41:00Z</time>
      </trkpt>
      <trkpt lat="42.956113982945681" lon="13.223287928849459">
        <ele>1814.1400000000001</ele>
        <time>2019-06-19T10:41:22Z</time>
      </trkpt>
      <trkpt lat="42.956079868599772" lon="13.223262531682849">
        <ele>1814.3499999999999</ele>
        <time>2019-06-19T10:41:26Z</time>
      </trkpt>
      <trkpt lat="42.95604064129293" lon="13.223241493105888">
        <ele>1814.74</ele>
        <time>2019-06-19T10:41:30Z</time>
      </trkpt>
      <trkpt lat="42.955867303535342" lon="13.223177874460816">
        <ele>1814.3199999999999</ele>
        <time>2019-06-19T10:41:45Z</time>
      </trkpt>
      <trkpt lat="42.95570838265121" lon="13.223102018237114">
        <ele>1815.01</ele>
        <time>2019-06-19T10:41:59Z</time>
      </trkpt>
      <trkpt lat="42.955508306622505" lon="13.223089864477515">
        <ele>1814.5899999999999</ele>
        <time>2019-06-19T10:42:15Z</time>
      </trkpt>
      <trkpt lat="42.955362796783447" lon="13.223057007417083">
        <ele>1814.3900000000001</ele>
        <time>2019-06-19T10:42:28Z</time>
      </trkpt>
      <trkpt lat="42.955190045759082" lon="13.223061868920922">
        <ele>1813.9200000000001</ele>
        <time>2019-06-19T10:42:42Z</time>
      </trkpt>
      <trkpt lat="42.955061215907335" lon="13.223041417077184">
        <ele>1816.28</ele>
        <time>2019-06-19T10:42:56Z</time>
      </trkpt>
      <trkpt lat="42.954985108226538" lon="13.223035968840122">
        <ele>1819.29</ele>
        <time>2019-06-19T10:43:09Z</time>
      </trkpt>
      <trkpt lat="42.954878993332386" lon="13.223004788160324">
        <ele>1822.3399999999999</ele>
        <time>2019-06-19T10:43:26Z</time>
      </trkpt>
      <trkpt lat="42.954754522070289" lon="13.222929518669844">
        <ele>1824.4000000000001</ele>
        <time>2019-06-19T10:43:44Z</time>
      </trkpt>
      <trkpt lat="42.9546676017344" lon="13.222913173958659">
        <ele>1825.95</ele>
        <time>2019-06-19T10:43:56Z</time>
      </trkpt>
      <trkpt lat="42.954571628943086" lon="13.222901606932282">
        <ele>1826.77</ele>
        <time>2019-06-19T10:44:08Z</time>
      </trkpt>
      <trkpt lat="42.954445481300354" lon="13.222912084311247">
        <ele>1828.1300000000001</ele>
        <time>2019-06-19T10:44:22Z</time>
      </trkpt>
      <trkpt lat="42.95437884517014" lon="13.222918706014752">
        <ele>1829.21</ele>
        <time>2019-06-19T10:44:35Z</time>
      </trkpt>
      <trkpt lat="42.954282788559794" lon="13.222985761240125">
        <ele>1831.3</ele>
        <time>2019-06-19T10:44:52Z</time>
      </trkpt>
      <trkpt lat="42.954226294532418" lon="13.223026329651475">
        <ele>1833.1700000000001</ele>
        <time>2019-06-19T10:45:05Z</time>
      </trkpt>
      <trkpt lat="42.954175416380167" lon="13.223024317994714">
        <ele>1834.74</ele>
        <time>2019-06-19T10:45:18Z</time>
      </trkpt>
      <trkpt lat="42.954135602340102" lon="13.223044266924262">
        <ele>1835.6700000000001</ele>
        <time>2019-06-19T10:45:29Z</time>
      </trkpt>
      <trkpt lat="42.954095788300037" lon="13.22303437627852">
        <ele>1836.46</ele>
        <time>2019-06-19T10:45:46Z</time>
      </trkpt>
      <trkpt lat="42.953997384756804" lon="13.223038399592042">
        <ele>1838.6800000000001</ele>
        <time>2019-06-19T10:46:01Z</time>
      </trkpt>
      <trkpt lat="42.953888420015574" lon="13.223005291074514">
        <ele>1841.73</ele>
        <time>2019-06-19T10:46:16Z</time>
      </trkpt>
      <trkpt lat="42.95377878472209" lon="13.222967572510242">
        <ele>1844.1099999999999</ele>
        <time>2019-06-19T10:46:33Z</time>
      </trkpt>
      <trkpt lat="42.953712651506066" lon="13.222960028797388">
        <ele>1845.48</ele>
        <time>2019-06-19T10:46:46Z</time>
      </trkpt>
      <trkpt lat="42.953645680099726" lon="13.222935637459159">
        <ele>1846.75</ele>
        <time>2019-06-19T10:47:01Z</time>
      </trkpt>
      <trkpt lat="42.953571416437626" lon="13.222871599718928">
        <ele>1849.26</ele>
        <time>2019-06-19T10:47:17Z</time>
      </trkpt>
      <trkpt lat="42.953525148332119" lon="13.222823739051819">
        <ele>1851.01</ele>
        <time>2019-06-19T10:47:30Z</time>
      </trkpt>
      <trkpt lat="42.953485250473022" lon="13.22279205545783">
        <ele>1852.28</ele>
        <time>2019-06-19T10:47:43Z</time>
      </trkpt>
      <trkpt lat="42.953430516645312" lon="13.222720054909587">
        <ele>1855.28</ele>
        <time>2019-06-19T10:48:01Z</time>
      </trkpt>
      <trkpt lat="42.953418865799904" lon="13.222700944170356">
        <ele>1856.9100000000001</ele>
        <time>2019-06-19T10:48:05Z</time>
      </trkpt>
      <trkpt lat="42.95336983166635" lon="13.222646545618773">
        <ele>1857.8199999999999</ele>
        <time>2019-06-19T10:48:20Z</time>
      </trkpt>
      <trkpt lat="42.95333999209106" lon="13.222604803740978">
        <ele>1859.1900000000001</ele>
        <time>2019-06-19T10:48:33Z</time>
      </trkpt>
      <trkpt lat="42.95330923050642" lon="13.222557110711932">
        <ele>1861.0899999999999</ele>
        <time>2019-06-19T10:48:45Z</time>
      </trkpt>
      <trkpt lat="42.953254245221615" lon="13.22252525947988">
        <ele>1862.8399999999999</ele>
        <time>2019-06-19T10:48:57Z</time>
      </trkpt>
      <trkpt lat="42.953154919669032" lon="13.222462311387062">
        <ele>1864.8499999999999</ele>
        <time>2019-06-19T10:49:14Z</time>
      </trkpt>
      <trkpt lat="42.95308543369174" lon="13.222438171505928">
        <ele>1865.4200000000001</ele>
        <time>2019-06-19T10:49:26Z</time>
      </trkpt>
      <trkpt lat="42.952976636588573" lon="13.222414031624794">
        <ele>1865.9000000000001</ele>
        <time>2019-06-19T10:49:40Z</time>
      </trkpt>
      <trkpt lat="42.95284797437489" lon="13.222407158464193">
        <ele>1866.6800000000001</ele>
        <time>2019-06-19T10:49:57Z</time>
      </trkpt>
      <trkpt lat="42.952774381265044" lon="13.222476309165359">
        <ele>1867.55</ele>
        <time>2019-06-19T10:50:10Z</time>
      </trkpt>
      <trkpt lat="42.952689053490758" lon="13.222522074356675">
        <ele>1869.2</ele>
        <time>2019-06-19T10:50:26Z</time>
      </trkpt>
      <trkpt lat="42.952661644667387" lon="13.222543364390731">
        <ele>1869.99</ele>
        <time>2019-06-19T10:50:38Z</time>
      </trkpt>
      <trkpt lat="42.95258411206305" lon="13.222591392695904">
        <ele>1872.6800000000001</ele>
        <time>2019-06-19T10:50:50Z</time>
      </trkpt>
      <trkpt lat="42.952488558366895" lon="13.222631374374032">
        <ele>1874.29</ele>
        <time>2019-06-19T10:51:03Z</time>
      </trkpt>
      <trkpt lat="42.952420329675078" lon="13.222636235877872">
        <ele>1875.6300000000001</ele>
        <time>2019-06-19T10:51:16Z</time>
      </trkpt>
      <trkpt lat="42.952315723523498" lon="13.222575969994068">
        <ele>1877.02</ele>
        <time>2019-06-19T10:51:30Z</time>
      </trkpt>
      <trkpt lat="42.952228635549545" lon="13.222502209246159">
        <ele>1878.01</ele>
        <time>2019-06-19T10:51:45Z</time>
      </trkpt>
      <trkpt lat="42.952138530090451" lon="13.22244705632329">
        <ele>1879.29</ele>
        <time>2019-06-19T10:52:00Z</time>
      </trkpt>
      <trkpt lat="42.952054459601641" lon="13.222392909228802">
        <ele>1881.01</ele>
        <time>2019-06-19T10:52:16Z</time>
      </trkpt>
      <trkpt lat="42.951965946704149" lon="13.222349574789405">
        <ele>1882.21</ele>
        <time>2019-06-19T10:52:32Z</time>
      </trkpt>
      <trkpt lat="42.951896041631699" lon="13.222315041348338">
        <ele>1884.54</ele>
        <time>2019-06-19T10:52:49Z</time>
      </trkpt>
      <trkpt lat="42.95178615488112" lon="13.222277406603098">
        <ele>1887.6600000000001</ele>
        <time>2019-06-19T10:53:10Z</time>
      </trkpt>
      <trkpt lat="42.951723961159587" lon="13.222248153761029">
        <ele>1889.3599999999999</ele>
        <time>2019-06-19T10:53:24Z</time>
      </trkpt>
      <trkpt lat="42.951643243432045" lon="13.222245806828141">
        <ele>1891.0899999999999</ele>
        <time>2019-06-19T10:53:41Z</time>
      </trkpt>
      <trkpt lat="42.951542660593987" lon="13.222215380519629">
        <ele>1892.9300000000001</ele>
        <time>2019-06-19T10:53:58Z</time>
      </trkpt>
      <trkpt lat="42.951457835733891" lon="13.222192581743002">
        <ele>1894.4400000000001</ele>
        <time>2019-06-19T10:54:14Z</time>
      </trkpt>
      <trkpt lat="42.95142849907279" lon="13.222199622541666">
        <ele>1894.9200000000001</ele>
        <time>2019-06-19T10:54:29Z</time>
      </trkpt>
      <trkpt lat="42.951363204047084" lon="13.222147906199098">
        <ele>1896.6900000000001</ele>
        <time>2019-06-19T10:54:46Z</time>
      </trkpt>
      <trkpt lat="42.951296987012029" lon="13.222043048590422">
        <ele>1899.4300000000001</ele>
        <time>2019-06-19T10:55:02Z</time>
      </trkpt>
      <trkpt lat="42.951301513239741" lon="13.221895694732666">
        <ele>1901.6400000000001</ele>
        <time>2019-06-19T10:55:17Z</time>
      </trkpt>
      <trkpt lat="42.951303021982312" lon="13.221727972850204">
        <ele>1903.51</ele>
        <time>2019-06-19T10:55:35Z</time>
      </trkpt>
      <trkpt lat="42.9513243958354" lon="13.221597718074918">
        <ele>1904.7</ele>
        <time>2019-06-19T10:55:50Z</time>
      </trkpt>
      <trkpt lat="42.951338225975633" lon="13.221436785534024">
        <ele>1906.3399999999999</ele>
        <time>2019-06-19T10:56:08Z</time>
      </trkpt>
      <trkpt lat="42.951345350593328" lon="13.221362018957734">
        <ele>1907.1400000000001</ele>
        <time>2019-06-19T10:56:19Z</time>
      </trkpt>
      <trkpt lat="42.951357755810022" lon="13.221202846616507">
        <ele>1908.78</ele>
        <time>2019-06-19T10:56:35Z</time>
      </trkpt>
      <trkpt lat="42.951368652284145" lon="13.221081225201488">
        <ele>1910.7</ele>
        <time>2019-06-19T10:56:50Z</time>
      </trkpt>
      <trkpt lat="42.951379800215364" lon="13.220961363986135">
        <ele>1912.6099999999999</ele>
        <time>2019-06-19T10:57:05Z</time>
      </trkpt>
      <trkpt lat="42.951384913176298" lon="13.220956167206168">
        <ele>1912.6700000000001</ele>
        <time>2019-06-19T10:57:19Z</time>
      </trkpt>
      <trkpt lat="42.951403269544244" lon="13.220865139737725">
        <ele>1913.77</ele>
        <time>2019-06-19T10:57:38Z</time>
      </trkpt>
      <trkpt lat="42.951424643397331" lon="13.220739997923374">
        <ele>1915.8699999999999</ele>
        <time>2019-06-19T10:57:51Z</time>
      </trkpt>
      <trkpt lat="42.951461859047413" lon="13.220642516389489">
        <ele>1916.8299999999999</ele>
        <time>2019-06-19T10:58:01Z</time>
      </trkpt>
      <trkpt lat="42.951514413580298" lon="13.220475548878312">
        <ele>1918.6099999999999</ele>
        <time>2019-06-19T10:58:16Z</time>
      </trkpt>
      <trkpt lat="42.951543917879462" lon="13.220316795632243">
        <ele>1921.53</ele>
        <time>2019-06-19T10:58:32Z</time>
      </trkpt>
      <trkpt lat="42.951596723869443" lon="13.220233228057623">
        <ele>1923.6700000000001</ele>
        <time>2019-06-19T10:58:48Z</time>
      </trkpt>
      <trkpt lat="42.951627904549241" lon="13.220206908881664">
        <ele>1924.8399999999999</ele>
        <time>2019-06-19T10:59:03Z</time>
      </trkpt>
      <trkpt lat="42.951690852642059" lon="13.220148487016559">
        <ele>1926</ele>
        <time>2019-06-19T10:59:18Z</time>
      </trkpt>
      <trkpt lat="42.951784562319517" lon="13.219989817589521">
        <ele>1928.55</ele>
        <time>2019-06-19T10:59:36Z</time>
      </trkpt>
      <trkpt lat="42.951871315017343" lon="13.219906250014901">
        <ele>1930.7</ele>
        <time>2019-06-19T10:59:52Z</time>
      </trkpt>
      <trkpt lat="42.951983464881778" lon="13.21985537186265">
        <ele>1932.27</ele>
        <time>2019-06-19T11:00:10Z</time>
      </trkpt>
      <trkpt lat="42.952075665816665" lon="13.219840452075005">
        <ele>1933.6500000000001</ele>
        <time>2019-06-19T11:00:25Z</time>
      </trkpt>
      <trkpt lat="42.9521687887609" lon="13.219794938340783">
        <ele>1935.9000000000001</ele>
        <time>2019-06-19T11:00:44Z</time>
      </trkpt>
      <trkpt lat="42.95225185342133" lon="13.219790076836944">
        <ele>1938.21</ele>
        <time>2019-06-19T11:01:00Z</time>
      </trkpt>
      <trkpt lat="42.952329386025667" lon="13.219800135120749">
        <ele>1940.05</ele>
        <time>2019-06-19T11:01:14Z</time>
      </trkpt>
      <trkpt lat="42.952378001064062" lon="13.219780772924423">
        <ele>1941.1199999999999</ele>
        <time>2019-06-19T11:01:24Z</time>
      </trkpt>
      <trkpt lat="42.952484954148531" lon="13.219692427664995">
        <ele>1942.6500000000001</ele>
        <time>2019-06-19T11:01:42Z</time>
      </trkpt>
      <trkpt lat="42.952582687139511" lon="13.219671975821257">
        <ele>1943.8299999999999</ele>
        <time>2019-06-19T11:01:59Z</time>
      </trkpt>
      <trkpt lat="42.952693998813629" lon="13.219643058255315">
        <ele>1945.6099999999999</ele>
        <time>2019-06-19T11:02:16Z</time>
      </trkpt>
      <trkpt lat="42.95280396938324" lon="13.219635179266334">
        <ele>1947.76</ele>
        <time>2019-06-19T11:02:32Z</time>
      </trkpt>
      <trkpt lat="42.952879406511784" lon="13.219636017456651">
        <ele>1949.03</ele>
        <time>2019-06-19T11:02:50Z</time>
      </trkpt>
      <trkpt lat="42.952970936894417" lon="13.219650518149137">
        <ele>1950.04</ele>
        <time>2019-06-19T11:03:02Z</time>
      </trkpt>
      <trkpt lat="42.953065652400255" lon="13.219650015234947">
        <ele>1951.27</ele>
        <time>2019-06-19T11:03:16Z</time>
      </trkpt>
      <trkpt lat="42.953185513615608" lon="13.219663677737117">
        <ele>1952.77</ele>
        <time>2019-06-19T11:03:35Z</time>
      </trkpt>
      <trkpt lat="42.953283665701747" lon="13.219660492613912">
        <ele>1954.5</ele>
        <time>2019-06-19T11:03:51Z</time>
      </trkpt>
      <trkpt lat="42.953374190256" lon="13.21963551454246">
        <ele>1956.49</ele>
        <time>2019-06-19T11:04:09Z</time>
      </trkpt>
      <trkpt lat="42.953376201912761" lon="13.219611961394548">
        <ele>1956.5999999999999</ele>
        <time>2019-06-19T11:04:27Z</time>
      </trkpt>
      <trkpt lat="42.953375363722444" lon="13.219588911160827">
        <ele>1956.73</ele>
        <time>2019-06-19T11:04:44Z</time>
      </trkpt>
      <trkpt lat="42.953373938798904" lon="13.219577008858323">
        <ele>1956.1900000000001</ele>
        <time>2019-06-19T11:05:05Z</time>
      </trkpt>
      <trkpt lat="42.953371927142143" lon="13.219575583934784">
        <ele>1957.45</ele>
        <time>2019-06-19T11:05:09Z</time>
      </trkpt>
      <trkpt lat="42.953372346237302" lon="13.21958614513278">
        <ele>1956.05</ele>
        <time>2019-06-19T11:05:22Z</time>
      </trkpt>
      <trkpt lat="42.953372849151492" lon="13.219594694674015">
        <ele>1956.24</ele>
        <time>2019-06-19T11:05:49Z</time>
      </trkpt>
      <trkpt lat="42.953370083123446" lon="13.219595532864332">
        <ele>1957.3299999999999</ele>
        <time>2019-06-19T11:06:01Z</time>
      </trkpt>
      <trkpt lat="42.953368071466684" lon="13.219588408246636">
        <ele>1957.3199999999999</ele>
        <time>2019-06-19T11:06:20Z</time>
      </trkpt>
      <trkpt lat="42.953367903828621" lon="13.219481790438294">
        <ele>1960.3699999999999</ele>
        <time>2019-06-19T11:06:35Z</time>
      </trkpt>
      <trkpt lat="42.953454405069351" lon="13.219426805153489">
        <ele>1962.3099999999999</ele>
        <time>2019-06-19T11:06:50Z</time>
      </trkpt>
      <trkpt lat="42.953546270728111" lon="13.219365449622273">
        <ele>1964.6199999999999</ele>
        <time>2019-06-19T11:07:06Z</time>
      </trkpt>
      <trkpt lat="42.953599747270346" lon="13.219311302527785">
        <ele>1966.4100000000001</ele>
        <time>2019-06-19T11:07:20Z</time>
      </trkpt>
      <trkpt lat="42.953692702576518" lon="13.219235949218273">
        <ele>1968.25</ele>
        <time>2019-06-19T11:07:36Z</time>
      </trkpt>
      <trkpt lat="42.953789094462991" lon="13.219171743839979">
        <ele>1969.99</ele>
        <time>2019-06-19T11:07:51Z</time>
      </trkpt>
      <trkpt lat="42.953833602368832" lon="13.219140646979213">
        <ele>1970.46</ele>
        <time>2019-06-19T11:08:04Z</time>
      </trkpt>
      <trkpt lat="42.953783562406898" lon="13.219137545675039">
        <ele>1970.71</ele>
        <time>2019-06-19T11:08:10Z</time>
      </trkpt>
      <trkpt lat="42.953654062002897" lon="13.219097815454006">
        <ele>1972.48</ele>
        <time>2019-06-19T11:08:25Z</time>
      </trkpt>
      <trkpt lat="42.953562615439296" lon="13.219051798805594">
        <ele>1973.8199999999999</ele>
        <time>2019-06-19T11:08:36Z</time>
      </trkpt>
      <trkpt lat="42.953446861356497" lon="13.218975188210607">
        <ele>1974.6199999999999</ele>
        <time>2019-06-19T11:08:50Z</time>
      </trkpt>
      <trkpt lat="42.953331358730793" lon="13.218943672254682">
        <ele>1977.74</ele>
        <time>2019-06-19T11:09:06Z</time>
      </trkpt>
      <trkpt lat="42.953221807256341" lon="13.218934200704098">
        <ele>1980.79</ele>
        <time>2019-06-19T11:09:23Z</time>
      </trkpt>
      <trkpt lat="42.953118374571204" lon="13.218881227076054">
        <ele>1983.1400000000001</ele>
        <time>2019-06-19T11:09:39Z</time>
      </trkpt>
      <trkpt lat="42.953044278547168" lon="13.218795480206609">
        <ele>1985.72</ele>
        <time>2019-06-19T11:09:56Z</time>
      </trkpt>
      <trkpt lat="42.952992897480726" lon="13.218714594841003">
        <ele>1987.6099999999999</ele>
        <time>2019-06-19T11:10:11Z</time>
      </trkpt>
      <trkpt lat="42.952953083440661" lon="13.218643264845014">
        <ele>1989.6400000000001</ele>
        <time>2019-06-19T11:10:25Z</time>
      </trkpt>
      <trkpt lat="42.952898349612951" lon="13.218546621501446">
        <ele>1991.3099999999999</ele>
        <time>2019-06-19T11:10:43Z</time>
      </trkpt>
      <trkpt lat="42.952857781201601" lon="13.218467999249697">
        <ele>1992.9200000000001</ele>
        <time>2019-06-19T11:10:59Z</time>
      </trkpt>
      <trkpt lat="42.952814111486077" lon="13.218393316492438">
        <ele>1995.53</ele>
        <time>2019-06-19T11:11:16Z</time>
      </trkpt>
      <trkpt lat="42.952787289395928" lon="13.218331122770905">
        <ele>1997.27</ele>
        <time>2019-06-19T11:11:28Z</time>
      </trkpt>
      <trkpt lat="42.952748229727149" lon="13.218244286254048">
        <ele>1998.9400000000001</ele>
        <time>2019-06-19T11:11:43Z</time>
      </trkpt>
      <trkpt lat="42.952719060704112" lon="13.218166334554553">
        <ele>2000.75</ele>
        <time>2019-06-19T11:11:57Z</time>
      </trkpt>
      <trkpt lat="42.952756360173225" lon="13.21808117441833">
        <ele>2001.6400000000001</ele>
        <time>2019-06-19T11:12:10Z</time>
      </trkpt>
      <trkpt lat="42.952757114544511" lon="13.218072205781937">
        <ele>2001.5799999999999</ele>
        <time>2019-06-19T11:12:22Z</time>
      </trkpt>
      <trkpt lat="42.952708583325148" lon="13.218069775030017">
        <ele>2001.8199999999999</ele>
        <time>2019-06-19T11:12:28Z</time>
      </trkpt>
      <trkpt lat="42.952607916668057" lon="13.218002049252391">
        <ele>2004.24</ele>
        <time>2019-06-19T11:12:45Z</time>
      </trkpt>
      <trkpt lat="42.952522672712803" lon="13.217919990420341">
        <ele>2006.96</ele>
        <time>2019-06-19T11:13:04Z</time>
      </trkpt>
      <trkpt lat="42.952430723235011" lon="13.217870872467756">
        <ele>2009.0999999999999</ele>
        <time>2019-06-19T11:13:19Z</time>
      </trkpt>
      <trkpt lat="42.952347239479423" lon="13.217830304056406">
        <ele>2012.1800000000001</ele>
        <time>2019-06-19T11:13:34Z</time>
      </trkpt>
      <trkpt lat="42.952268030494452" lon="13.217789903283119">
        <ele>2014.6500000000001</ele>
        <time>2019-06-19T11:13:49Z</time>
      </trkpt>
      <trkpt lat="42.952200137078762" lon="13.217742377892137">
        <ele>2016.9100000000001</ele>
        <time>2019-06-19T11:14:07Z</time>
      </trkpt>
      <trkpt lat="42.952149510383606" lon="13.217699378728867">
        <ele>2018.9000000000001</ele>
        <time>2019-06-19T11:14:24Z</time>
      </trkpt>
      <trkpt lat="42.952095195651054" lon="13.217663168907166">
        <ele>2021.1400000000001</ele>
        <time>2019-06-19T11:14:39Z</time>
      </trkpt>
      <trkpt lat="42.952073737978935" lon="13.217645147815347">
        <ele>2021.9000000000001</ele>
        <time>2019-06-19T11:14:51Z</time>
      </trkpt>
      <trkpt lat="42.952006347477436" lon="13.217605417594314">
        <ele>2023.9100000000001</ele>
        <time>2019-06-19T11:15:05Z</time>
      </trkpt>
      <trkpt lat="42.951931413263083" lon="13.217573063448071">
        <ele>2026.1400000000001</ele>
        <time>2019-06-19T11:15:22Z</time>
      </trkpt>
      <trkpt lat="42.951838290318847" lon="13.217554623261094">
        <ele>2027.71</ele>
        <time>2019-06-19T11:15:38Z</time>
      </trkpt>
      <trkpt lat="42.951778611168265" lon="13.217536099255085">
        <ele>2028.5999999999999</ele>
        <time>2019-06-19T11:15:52Z</time>
      </trkpt>
      <trkpt lat="42.951714908704162" lon="13.217525035142899">
        <ele>2029.5799999999999</ele>
        <time>2019-06-19T11:16:04Z</time>
      </trkpt>
      <trkpt lat="42.951631424948573" lon="13.217503661289811">
        <ele>2030.9200000000001</ele>
        <time>2019-06-19T11:16:18Z</time>
      </trkpt>
      <trkpt lat="42.951569650322199" lon="13.217477677389979">
        <ele>2032.6900000000001</ele>
        <time>2019-06-19T11:16:33Z</time>
      </trkpt>
      <trkpt lat="42.951519275084138" lon="13.217465272173285">
        <ele>2034.0599999999999</ele>
        <time>2019-06-19T11:16:47Z</time>
      </trkpt>
      <trkpt lat="42.951467810198665" lon="13.217446496710181">
        <ele>2036.47</ele>
        <time>2019-06-19T11:17:03Z</time>
      </trkpt>
      <trkpt lat="42.951467474922538" lon="13.217445742338896">
        <ele>2036.95</ele>
        <time>2019-06-19T11:17:22Z</time>
      </trkpt>
      <trkpt lat="42.951425313949585" lon="13.217430487275124">
        <ele>2038.2</ele>
        <time>2019-06-19T11:17:42Z</time>
      </trkpt>
      <trkpt lat="42.95135959982872" lon="13.217413136735559">
        <ele>2040.9000000000001</ele>
        <time>2019-06-19T11:17:56Z</time>
      </trkpt>
      <trkpt lat="42.951292963698506" lon="13.217417160049081">
        <ele>2042.3399999999999</ele>
        <time>2019-06-19T11:18:09Z</time>
      </trkpt>
      <trkpt lat="42.951228758320212" lon="13.217416824772954">
        <ele>2043.3699999999999</ele>
        <time>2019-06-19T11:18:23Z</time>
      </trkpt>
      <trkpt lat="42.951207552105188" lon="13.217414561659098">
        <ele>2044</ele>
        <time>2019-06-19T11:18:36Z</time>
      </trkpt>
      <trkpt lat="42.951194727793336" lon="13.217408107593656">
        <ele>2044.24</ele>
        <time>2019-06-19T11:18:54Z</time>
      </trkpt>
      <trkpt lat="42.951079644262791" lon="13.217437528073788">
        <ele>2046.47</ele>
        <time>2019-06-19T11:19:12Z</time>
      </trkpt>
      <trkpt lat="42.951071094721556" lon="13.217443227767944">
        <ele>2046.55</ele>
        <time>2019-06-19T11:19:13Z</time>
      </trkpt>
      <trkpt lat="42.950956178829074" lon="13.217487903311849">
        <ele>2049</ele>
        <time>2019-06-19T11:19:27Z</time>
      </trkpt>
      <trkpt lat="42.950869929045439" lon="13.217488406226039">
        <ele>2050.9699999999998</ele>
        <time>2019-06-19T11:19:42Z</time>
      </trkpt>
      <trkpt lat="42.950791642069817" lon="13.217491507530212">
        <ele>2053.6500000000001</ele>
        <time>2019-06-19T11:19:58Z</time>
      </trkpt>
      <trkpt lat="42.950712935999036" lon="13.217515479773283">
        <ele>2055.4699999999998</ele>
        <time>2019-06-19T11:20:15Z</time>
      </trkpt>
      <trkpt lat="42.950627105310559" lon="13.217522436752915">
        <ele>2056.77</ele>
        <time>2019-06-19T11:20:31Z</time>
      </trkpt>
      <trkpt lat="42.950552171096206" lon="13.217520844191313">
        <ele>2058.9400000000001</ele>
        <time>2019-06-19T11:20:46Z</time>
      </trkpt>
      <trkpt lat="42.950478997081518" lon="13.217500308528543">
        <ele>2061.3000000000002</ele>
        <time>2019-06-19T11:21:02Z</time>
      </trkpt>
      <trkpt lat="42.950403979048133" lon="13.21744741871953">
        <ele>2063.29</ele>
        <time>2019-06-19T11:21:18Z</time>
      </trkpt>
      <trkpt lat="42.950331140309572" lon="13.217386985197663">
        <ele>2063.9899999999998</ele>
        <time>2019-06-19T11:21:31Z</time>
      </trkpt>
      <trkpt lat="42.950248997658491" lon="13.217273075133562">
        <ele>2064.27</ele>
        <time>2019-06-19T11:21:47Z</time>
      </trkpt>
      <trkpt lat="42.95019761659205" lon="13.21712588891387">
        <ele>2064.98</ele>
        <time>2019-06-19T11:22:02Z</time>
      </trkpt>
      <trkpt lat="42.950142631307244" lon="13.216966632753611">
        <ele>2065.1399999999999</ele>
        <time>2019-06-19T11:22:18Z</time>
      </trkpt>
      <trkpt lat="42.950131315737963" lon="13.216858338564634">
        <ele>2065.8699999999999</ele>
        <time>2019-06-19T11:22:33Z</time>
      </trkpt>
      <trkpt lat="42.950188061222434" lon="13.216827241703868">
        <ele>2068.7800000000002</ele>
        <time>2019-06-19T11:22:49Z</time>
      </trkpt>
      <trkpt lat="42.950244136154652" lon="13.216823972761631">
        <ele>2070.9099999999999</ele>
        <time>2019-06-19T11:23:03Z</time>
      </trkpt>
      <trkpt lat="42.95032418332994" lon="13.216777285560966">
        <ele>2073.0100000000002</ele>
        <time>2019-06-19T11:23:19Z</time>
      </trkpt>
      <trkpt lat="42.950348407030106" lon="13.216792037710547">
        <ele>2073.7199999999998</ele>
        <time>2019-06-19T11:23:34Z</time>
      </trkpt>
      <trkpt lat="42.950474051758647" lon="13.216785416007042">
        <ele>2075.9299999999998</ele>
        <time>2019-06-19T11:23:49Z</time>
      </trkpt>
      <trkpt lat="42.950527276843786" lon="13.216772759333253">
        <ele>2076.5799999999999</ele>
        <time>2019-06-19T11:24:01Z</time>
      </trkpt>
      <trkpt lat="42.950645377859473" lon="13.216737639158964">
        <ele>2078.96</ele>
        <time>2019-06-19T11:24:19Z</time>
      </trkpt>
      <trkpt lat="42.950756270438433" lon="13.216695226728916">
        <ele>2079.98</ele>
        <time>2019-06-19T11:24:35Z</time>
      </trkpt>
      <trkpt lat="42.950872024521232" lon="13.216645354405046">
        <ele>2080.9000000000001</ele>
        <time>2019-06-19T11:24:51Z</time>
      </trkpt>
      <trkpt lat="42.950998423621058" lon="13.216592548415065">
        <ele>2080.3299999999999</ele>
        <time>2019-06-19T11:25:06Z</time>
      </trkpt>
      <trkpt lat="42.951020635664463" lon="13.2165786344558">
        <ele>2080.3400000000001</ele>
        <time>2019-06-19T11:25:15Z</time>
      </trkpt>
      <trkpt lat="42.951039914041758" lon="13.216572515666485">
        <ele>2080.54</ele>
        <time>2019-06-19T11:25:17Z</time>
      </trkpt>
      <trkpt lat="42.951218532398343" lon="13.216452319175005">
        <ele>2080.2800000000002</ele>
        <time>2019-06-19T11:25:36Z</time>
      </trkpt>
      <trkpt lat="42.95125113800168" lon="13.216343270614743">
        <ele>2078.73</ele>
        <time>2019-06-19T11:25:48Z</time>
      </trkpt>
      <trkpt lat="42.951245522126555" lon="13.216324243694544">
        <ele>2077.6900000000001</ele>
        <time>2019-06-19T11:25:50Z</time>
      </trkpt>
      <trkpt lat="42.951267063617706" lon="13.216315610334277">
        <ele>2078.8299999999999</ele>
        <time>2019-06-19T11:26:02Z</time>
      </trkpt>
      <trkpt lat="42.951291454955935" lon="13.216347293928266">
        <ele>2079.2199999999998</ele>
        <time>2019-06-19T11:26:15Z</time>
      </trkpt>
      <trkpt lat="42.951309978961945" lon="13.216333379969001">
        <ele>2079.6599999999999</ele>
        <time>2019-06-19T11:26:23Z</time>
      </trkpt>
      <trkpt lat="42.951317522674799" lon="13.216317621991038">
        <ele>2079.6999999999998</ele>
        <time>2019-06-19T11:26:33Z</time>
      </trkpt>
      <trkpt lat="42.951311320066452" lon="13.216298427432775">
        <ele>2080.4200000000001</ele>
        <time>2019-06-19T11:26:43Z</time>
      </trkpt>
      <trkpt lat="42.951307129114866" lon="13.216301612555981">
        <ele>2078.9499999999998</ele>
        <time>2019-06-19T11:26:55Z</time>
      </trkpt>
      <trkpt lat="42.95131609775126" lon="13.216296415776014">
        <ele>2078.3400000000001</ele>
        <time>2019-06-19T11:27:12Z</time>
      </trkpt>
      <trkpt lat="42.951322719454765" lon="13.216291638091207">
        <ele>2078.1700000000001</ele>
        <time>2019-06-19T11:27:33Z</time>
      </trkpt>
      <trkpt lat="42.951313080266118" lon="13.216295577585697">
        <ele>2077.77</ele>
        <time>2019-06-19T11:27:57Z</time>
      </trkpt>
      <trkpt lat="42.951309140771627" lon="13.216305635869503">
        <ele>2077.98</ele>
        <time>2019-06-19T11:28:28Z</time>
      </trkpt>
      <trkpt lat="42.951308637857437" lon="13.21630354039371">
        <ele>2078.02</ele>
        <time>2019-06-19T11:28:53Z</time>
      </trkpt>
      <trkpt lat="42.951308637857437" lon="13.21628644131124">
        <ele>2077.9899999999998</ele>
        <time>2019-06-19T11:29:27Z</time>
      </trkpt>
      <trkpt lat="42.951299753040075" lon="13.216283256188035">
        <ele>2078.8899999999999</ele>
        <time>2019-06-19T11:29:57Z</time>
      </trkpt>
      <trkpt lat="42.951283073052764" lon="13.216294655576348">
        <ele>2078.6700000000001</ele>
        <time>2019-06-19T11:30:19Z</time>
      </trkpt>
      <trkpt lat="42.951293382793665" lon="13.216303456574678">
        <ele>2078.6100000000001</ele>
        <time>2019-06-19T11:30:48Z</time>
      </trkpt>
      <trkpt lat="42.951309643685818" lon="13.216308150440454">
        <ele>2078.3200000000002</ele>
        <time>2019-06-19T11:31:32Z</time>
      </trkpt>
      <trkpt lat="42.951311990618706" lon="13.216311754658818">
        <ele>2078.2199999999998</ele>
        <time>2019-06-19T11:32:03Z</time>
      </trkpt>
      <trkpt lat="42.951305955648422" lon="13.216315610334277">
        <ele>2079.0900000000001</ele>
        <time>2019-06-19T11:32:39Z</time>
      </trkpt>
      <trkpt lat="42.951295478269458" lon="13.216325081884861">
        <ele>2079.0100000000002</ele>
        <time>2019-06-19T11:33:12Z</time>
      </trkpt>
      <trkpt lat="42.951298663392663" lon="13.216321645304561">
        <ele>2079.6999999999998</ele>
        <time>2019-06-19T11:33:45Z</time>
      </trkpt>
      <trkpt lat="42.951304698362947" lon="13.216318460181355">
        <ele>2079.75</ele>
        <time>2019-06-19T11:34:13Z</time>
      </trkpt>
      <trkpt lat="42.951302099972963" lon="13.21632357314229">
        <ele>2079.3299999999999</ele>
        <time>2019-06-19T11:34:45Z</time>
      </trkpt>
      <trkpt lat="42.951293047517538" lon="13.216347377747297">
        <ele>2080.25</ele>
        <time>2019-06-19T11:35:21Z</time>
      </trkpt>
      <trkpt lat="42.951292293146253" lon="13.216345952823758">
        <ele>2079.6500000000001</ele>
        <time>2019-06-19T11:35:52Z</time>
      </trkpt>
      <trkpt lat="42.951291622593999" lon="13.216341845691204">
        <ele>2079.8200000000002</ele>
        <time>2019-06-19T11:36:19Z</time>
      </trkpt>
      <trkpt lat="42.951293382793665" lon="13.216347293928266">
        <ele>2080.5599999999999</ele>
        <time>2019-06-19T11:36:51Z</time>
      </trkpt>
      <trkpt lat="42.95133906416595" lon="13.21629817597568">
        <ele>2081.3800000000001</ele>
        <time>2019-06-19T11:37:28Z</time>
      </trkpt>
      <trkpt lat="42.951333615928888" lon="13.216290380805731">
        <ele>2080.8699999999999</ele>
        <time>2019-06-19T11:37:52Z</time>
      </trkpt>
      <trkpt lat="42.95132489874959" lon="13.216295829042792">
        <ele>2080.8400000000001</ele>
        <time>2019-06-19T11:38:30Z</time>
      </trkpt>
      <trkpt lat="42.95131316408515" lon="13.216307563707232">
        <ele>2081.21</ele>
        <time>2019-06-19T11:38:55Z</time>
      </trkpt>
      <trkpt lat="42.951299753040075" lon="13.216317873448133">
        <ele>2081.1199999999999</ele>
        <time>2019-06-19T11:39:24Z</time>
      </trkpt>
      <trkpt lat="42.951292628422379" lon="13.216318711638451">
        <ele>2081</ele>
        <time>2019-06-19T11:39:51Z</time>
      </trkpt>
      <trkpt lat="42.951292293146253" lon="13.216311167925596">
        <ele>2081.46</ele>
        <time>2019-06-19T11:40:20Z</time>
      </trkpt>
      <trkpt lat="42.951298831030726" lon="13.216314604505897">
        <ele>2082.04</ele>
        <time>2019-06-19T11:40:54Z</time>
      </trkpt>
      <trkpt lat="42.951298914849758" lon="13.216311670839787">
        <ele>2081.79</ele>
        <time>2019-06-19T11:41:30Z</time>
      </trkpt>
      <trkpt lat="42.951292041689157" lon="13.216316029429436">
        <ele>2081.6199999999999</ele>
        <time>2019-06-19T11:42:06Z</time>
      </trkpt>
      <trkpt lat="42.951297741383314" lon="13.216322232037783">
        <ele>2081.3400000000001</ele>
        <time>2019-06-19T11:42:44Z</time>
      </trkpt>
      <trkpt lat="42.951311655342579" lon="13.216309575363994">
        <ele>2082.2199999999998</ele>
        <time>2019-06-19T11:43:09Z</time>
      </trkpt>
      <trkpt lat="42.95131416991353" lon="13.216293817386031">
        <ele>2082.5500000000002</ele>
        <time>2019-06-19T11:43:42Z</time>
      </trkpt>
      <trkpt lat="42.951329257339239" lon="13.216286776587367">
        <ele>2082.4400000000001</ele>
        <time>2019-06-19T11:44:21Z</time>
      </trkpt>
      <trkpt lat="42.951337387785316" lon="13.21628300473094">
        <ele>2082.6199999999999</ele>
        <time>2019-06-19T11:44:48Z</time>
      </trkpt>
      <trkpt lat="42.951336214318871" lon="13.216286022216082">
        <ele>2082.8099999999999</ele>
        <time>2019-06-19T11:45:13Z</time>
      </trkpt>
      <trkpt lat="42.951337387785316" lon="13.216272443532944">
        <ele>2082.6100000000001</ele>
        <time>2019-06-19T11:45:39Z</time>
      </trkpt>
      <trkpt lat="42.951346775516868" lon="13.216263558715582">
        <ele>2083.1399999999999</ele>
        <time>2019-06-19T11:46:03Z</time>
      </trkpt>
      <trkpt lat="42.951354403048754" lon="13.216268923133612">
        <ele>2083.5300000000002</ele>
        <time>2019-06-19T11:46:26Z</time>
      </trkpt>
      <trkpt lat="42.951342165470123" lon="13.216284345835447">
        <ele>2083.9200000000001</ele>
        <time>2019-06-19T11:46:47Z</time>
      </trkpt>
      <trkpt lat="42.951337555423379" lon="13.216297086328268">
        <ele>2083.4200000000001</ele>
        <time>2019-06-19T11:47:12Z</time>
      </trkpt>
      <trkpt lat="42.951341746374965" lon="13.216294487938285">
        <ele>2083.0999999999999</ele>
        <time>2019-06-19T11:47:37Z</time>
      </trkpt>
      <trkpt lat="42.951336717233062" lon="13.216304378584027">
        <ele>2083.1500000000001</ele>
        <time>2019-06-19T11:48:01Z</time>
      </trkpt>
      <trkpt lat="42.951347781345248" lon="13.216285854578018">
        <ele>2083.3400000000001</ele>
        <time>2019-06-19T11:48:26Z</time>
      </trkpt>
      <trkpt lat="42.951336298137903" lon="13.216284513473511">
        <ele>2083.73</ele>
        <time>2019-06-19T11:49:10Z</time>
      </trkpt>
      <trkpt lat="42.951329760253429" lon="13.216287195682526">
        <ele>2083.4899999999998</ele>
        <time>2019-06-19T11:49:54Z</time>
      </trkpt>
      <trkpt lat="42.951309895142913" lon="13.2162971701473">
        <ele>2083.75</ele>
        <time>2019-06-19T11:50:18Z</time>
      </trkpt>
      <trkpt lat="42.951309476047754" lon="13.216359782963991">
        <ele>2084.3400000000001</ele>
        <time>2019-06-19T11:50:31Z</time>
      </trkpt>
      <trkpt lat="42.95130779966712" lon="13.216399680823088">
        <ele>2084.9000000000001</ele>
        <time>2019-06-19T11:50:39Z</time>
      </trkpt>
      <trkpt lat="42.951301094144583" lon="13.216409739106894">
        <ele>2084.6300000000001</ele>
        <time>2019-06-19T11:51:08Z</time>
      </trkpt>
      <trkpt lat="42.951303692534566" lon="13.21641300804913">
        <ele>2084.5</ele>
        <time>2019-06-19T11:51:31Z</time>
      </trkpt>
      <trkpt lat="42.951311990618706" lon="13.216406386345625">
        <ele>2084.3899999999999</ele>
        <time>2019-06-19T11:51:56Z</time>
      </trkpt>
      <trkpt lat="42.95131123624742" lon="13.216393981128931">
        <ele>2084.5300000000002</ele>
        <time>2019-06-19T11:52:38Z</time>
      </trkpt>
      <trkpt lat="42.9513019323349" lon="13.216403536498547">
        <ele>2084.9699999999998</ele>
        <time>2019-06-19T11:53:05Z</time>
      </trkpt>
      <trkpt lat="42.951301680877805" lon="13.216405129060149">
        <ele>2085.2199999999998</ele>
        <time>2019-06-19T11:53:22Z</time>
      </trkpt>
      <trkpt lat="42.951301094144583" lon="13.216405296698213">
        <ele>2085.6700000000001</ele>
        <time>2019-06-19T11:53:39Z</time>
      </trkpt>
      <trkpt lat="42.951299082487822" lon="13.216404709964991">
        <ele>2085.4400000000001</ele>
        <time>2019-06-19T11:54:02Z</time>
      </trkpt>
      <trkpt lat="42.951288437470794" lon="13.216411080211401">
        <ele>2085.8899999999999</ele>
        <time>2019-06-19T11:54:13Z</time>
      </trkpt>
      <trkpt lat="42.951263543218374" lon="13.216434298083186">
        <ele>2085.96</ele>
        <time>2019-06-19T11:54:16Z</time>
      </trkpt>
      <trkpt lat="42.951136054471135" lon="13.216532869264483">
        <ele>2085.8000000000002</ele>
        <time>2019-06-19T11:54:31Z</time>
      </trkpt>
      <trkpt lat="42.951012505218387" lon="13.216592129319906">
        <ele>2086.8699999999999</ele>
        <time>2019-06-19T11:54:45Z</time>
      </trkpt>
      <trkpt lat="42.950851740315557" lon="13.216652730479836">
        <ele>2087.0999999999999</ele>
        <time>2019-06-19T11:55:02Z</time>
      </trkpt>
      <trkpt lat="42.950687203556299" lon="13.21671593002975">
        <ele>2085.9400000000001</ele>
        <time>2019-06-19T11:55:18Z</time>
      </trkpt>
      <trkpt lat="42.950499365106225" lon="13.216762030497193">
        <ele>2083.6300000000001</ele>
        <time>2019-06-19T11:55:36Z</time>
      </trkpt>
      <trkpt lat="42.950369445607066" lon="13.216788852587342">
        <ele>2080.6100000000001</ele>
        <time>2019-06-19T11:55:49Z</time>
      </trkpt>
      <trkpt lat="42.950310185551643" lon="13.216826068237424">
        <ele>2078.3299999999999</ele>
        <time>2019-06-19T11:55:57Z</time>
      </trkpt>
      <trkpt lat="42.95026995241642" lon="13.216979708522558">
        <ele>2075.3800000000001</ele>
        <time>2019-06-19T11:56:11Z</time>
      </trkpt>
      <trkpt lat="42.950255367904902" lon="13.217091606929898">
        <ele>2073.6900000000001</ele>
        <time>2019-06-19T11:56:21Z</time>
      </trkpt>
      <trkpt lat="42.95026115141809" lon="13.21727299131453">
        <ele>2071.1300000000001</ele>
        <time>2019-06-19T11:56:35Z</time>
      </trkpt>
      <trkpt lat="42.95033055357635" lon="13.217404671013355">
        <ele>2069.9400000000001</ele>
        <time>2019-06-19T11:56:47Z</time>
      </trkpt>
      <trkpt lat="42.95044781640172" lon="13.217492932453752">
        <ele>2068.7600000000002</ele>
        <time>2019-06-19T11:57:02Z</time>
      </trkpt>
      <trkpt lat="42.950545214116573" lon="13.217518078163266">
        <ele>2066.1599999999999</ele>
        <time>2019-06-19T11:57:14Z</time>
      </trkpt>
      <trkpt lat="42.950665159150958" lon="13.217511288821697">
        <ele>2063.3099999999999</ele>
        <time>2019-06-19T11:57:27Z</time>
      </trkpt>
      <trkpt lat="42.950782170519233" lon="13.21747524663806">
        <ele>2061.4000000000001</ele>
        <time>2019-06-19T11:57:40Z</time>
      </trkpt>
      <trkpt lat="42.95088711194694" lon="13.217472648248076">
        <ele>2058.2800000000002</ele>
        <time>2019-06-19T11:57:52Z</time>
      </trkpt>
      <trkpt lat="42.950972858816385" lon="13.217463428154588">
        <ele>2055.1399999999999</ele>
        <time>2019-06-19T11:58:02Z</time>
      </trkpt>
      <trkpt lat="42.951122643426061" lon="13.217401737347245">
        <ele>2052.8099999999999</ele>
        <time>2019-06-19T11:58:17Z</time>
      </trkpt>
      <trkpt lat="42.951211323961616" lon="13.217402072623372">
        <ele>2050.8000000000002</ele>
        <time>2019-06-19T11:58:29Z</time>
      </trkpt>
      <trkpt lat="42.951356917619705" lon="13.217395870015025">
        <ele>2047.8699999999999</ele>
        <time>2019-06-19T11:58:46Z</time>
      </trkpt>
      <trkpt lat="42.951416345313191" lon="13.217402994632721">
        <ele>2045.54</ele>
        <time>2019-06-19T11:58:59Z</time>
      </trkpt>
      <trkpt lat="42.951501002535224" lon="13.217448676005006">
        <ele>2042.95</ele>
        <time>2019-06-19T11:59:14Z</time>
      </trkpt>
      <trkpt lat="42.951562609523535" lon="13.217467116191983">
        <ele>2040.0599999999999</ele>
        <time>2019-06-19T11:59:25Z</time>
      </trkpt>
      <trkpt lat="42.951678866520524" lon="13.217507349327207">
        <ele>2037.6400000000001</ele>
        <time>2019-06-19T11:59:41Z</time>
      </trkpt>
      <trkpt lat="42.951704682782292" lon="13.217511037364602">
        <ele>2037.01</ele>
        <time>2019-06-19T11:59:44Z</time>
      </trkpt>
      <trkpt lat="42.951756566762924" lon="13.217521095648408">
        <ele>2036</ele>
        <time>2019-06-19T11:59:56Z</time>
      </trkpt>
      <trkpt lat="42.951777689158916" lon="13.21752754971385">
        <ele>2035.7</ele>
        <time>2019-06-19T11:59:59Z</time>
      </trkpt>
      <trkpt lat="42.951823370531201" lon="13.217541463673115">
        <ele>2034.9000000000001</ele>
        <time>2019-06-19T12:00:04Z</time>
      </trkpt>
      <trkpt lat="42.951961504295468" lon="13.217563172802329">
        <ele>2032.4400000000001</ele>
        <time>2019-06-19T12:00:20Z</time>
      </trkpt>
      <trkpt lat="42.952046161517501" lon="13.217607010155916">
        <ele>2030.5799999999999</ele>
        <time>2019-06-19T12:00:36Z</time>
      </trkpt>
      <trkpt lat="42.952111288905144" lon="13.217643974348903">
        <ele>2027.3900000000001</ele>
        <time>2019-06-19T12:00:48Z</time>
      </trkpt>
      <trkpt lat="42.952156886458397" lon="13.217688901349902">
        <ele>2025.45</ele>
        <time>2019-06-19T12:00:59Z</time>
      </trkpt>
      <trkpt lat="42.95222201384604" lon="13.217736426740885">
        <ele>2023.3800000000001</ele>
        <time>2019-06-19T12:01:12Z</time>
      </trkpt>
      <trkpt lat="42.952304491773248" lon="13.217790573835373">
        <ele>2021.1400000000001</ele>
        <time>2019-06-19T12:01:26Z</time>
      </trkpt>
      <trkpt lat="42.95233097858727" lon="13.217806247994304">
        <ele>2019.6800000000001</ele>
        <time>2019-06-19T12:01:30Z</time>
      </trkpt>
      <trkpt lat="42.952431980520487" lon="13.217868693172932">
        <ele>2016.5899999999999</ele>
        <time>2019-06-19T12:01:45Z</time>
      </trkpt>
      <trkpt lat="42.952438769862056" lon="13.217874309048057">
        <ele>2016.3099999999999</ele>
        <time>2019-06-19T12:01:46Z</time>
      </trkpt>
      <trkpt lat="42.952551757916808" lon="13.217956284061074">
        <ele>2014.2</ele>
        <time>2019-06-19T12:02:02Z</time>
      </trkpt>
      <trkpt lat="42.952621495351195" lon="13.21803180500865">
        <ele>2011.0599999999999</ele>
        <time>2019-06-19T12:02:13Z</time>
      </trkpt>
      <trkpt lat="42.952654687687755" lon="13.218054100871086">
        <ele>2009.76</ele>
        <time>2019-06-19T12:02:17Z</time>
      </trkpt>
      <trkpt lat="42.952707996591926" lon="13.218112858012319">
        <ele>2009.51</ele>
        <time>2019-06-19T12:02:24Z</time>
      </trkpt>
      <trkpt lat="42.952717132866383" lon="13.218138087540865">
        <ele>2010.46</ele>
        <time>2019-06-19T12:02:26Z</time>
      </trkpt>
      <trkpt lat="42.952769352123141" lon="13.218257529661059">
        <ele>2007.4100000000001</ele>
        <time>2019-06-19T12:02:37Z</time>
      </trkpt>
      <trkpt lat="42.952820146456361" lon="13.218374121934175">
        <ele>2004.3099999999999</ele>
        <time>2019-06-19T12:02:48Z</time>
      </trkpt>
      <trkpt lat="42.952864738181233" lon="13.218448972329497">
        <ele>2001.27</ele>
        <time>2019-06-19T12:02:57Z</time>
      </trkpt>
      <trkpt lat="42.952939253300428" lon="13.218603953719139">
        <ele>1999.01</ele>
        <time>2019-06-19T12:03:11Z</time>
      </trkpt>
      <trkpt lat="42.953008823096752" lon="13.218715768307447">
        <ele>1995.6900000000001</ele>
        <time>2019-06-19T12:03:24Z</time>
      </trkpt>
      <trkpt lat="42.953058863058686" lon="13.218820793554187">
        <ele>1992.5899999999999</ele>
        <time>2019-06-19T12:03:36Z</time>
      </trkpt>
      <trkpt lat="42.95311376452446" lon="13.218869157135487">
        <ele>1990.8599999999999</ele>
        <time>2019-06-19T12:03:44Z</time>
      </trkpt>
      <trkpt lat="42.953139077872038" lon="13.218888016417623">
        <ele>1990.3399999999999</ele>
        <time>2019-06-19T12:03:47Z</time>
      </trkpt>
      <trkpt lat="42.953740227967501" lon="13.219033274799585">
        <ele>1945.8800000000001</ele>
        <time>2019-06-19T12:06:29Z</time>
      </trkpt>
      <trkpt lat="42.953797476366162" lon="13.219059677794576">
        <ele>1948.97</ele>
        <time>2019-06-19T12:06:40Z</time>
      </trkpt>
      <trkpt lat="42.953803930431604" lon="13.219062192365527">
        <ele>1952.5799999999999</ele>
        <time>2019-06-19T12:06:45Z</time>
      </trkpt>
      <trkpt lat="42.953805439174175" lon="13.21908482350409">
        <ele>1956.2</ele>
        <time>2019-06-19T12:06:50Z</time>
      </trkpt>
      <trkpt lat="42.953815748915076" lon="13.219093540683389">
        <ele>1959.46</ele>
        <time>2019-06-19T12:06:55Z</time>
      </trkpt>
      <trkpt lat="42.953823795542121" lon="13.219104437157512">
        <ele>1962.6900000000001</ele>
        <time>2019-06-19T12:07:04Z</time>
      </trkpt>
      <trkpt lat="42.953783646225929" lon="13.219168642535806">
        <ele>1964.3900000000001</ele>
        <time>2019-06-19T12:07:12Z</time>
      </trkpt>
      <trkpt lat="42.953756488859653" lon="13.219209797680378">
        <ele>1965.1199999999999</ele>
        <time>2019-06-19T12:07:17Z</time>
      </trkpt>
      <trkpt lat="42.953672586008906" lon="13.219274841248989">
        <ele>1964.7</ele>
        <time>2019-06-19T12:07:30Z</time>
      </trkpt>
      <trkpt lat="42.953612739220262" lon="13.219355475157499">
        <ele>1964.0999999999999</ele>
        <time>2019-06-19T12:07:43Z</time>
      </trkpt>
      <trkpt lat="42.953594718128443" lon="13.21937358006835">
        <ele>1963.6700000000001</ele>
        <time>2019-06-19T12:07:46Z</time>
      </trkpt>
      <trkpt lat="42.953565381467342" lon="13.219388499855995">
        <ele>1963.04</ele>
        <time>2019-06-19T12:07:49Z</time>
      </trkpt>
      <trkpt lat="42.953506205230951" lon="13.21942538022995">
        <ele>1963</ele>
        <time>2019-06-19T12:08:01Z</time>
      </trkpt>
      <trkpt lat="42.953482400625944" lon="13.21943904273212">
        <ele>1962.9400000000001</ele>
        <time>2019-06-19T12:08:04Z</time>
      </trkpt>
      <trkpt lat="42.953448621556163" lon="13.219457566738129">
        <ele>1962.3299999999999</ele>
        <time>2019-06-19T12:08:08Z</time>
      </trkpt>
      <trkpt lat="42.953301938250661" lon="13.219506349414587">
        <ele>1960.74</ele>
        <time>2019-06-19T12:08:23Z</time>
      </trkpt>
      <trkpt lat="42.953177215531468" lon="13.219546666368842">
        <ele>1958.52</ele>
        <time>2019-06-19T12:08:36Z</time>
      </trkpt>
      <trkpt lat="42.953037908300757" lon="13.219558317214251">
        <ele>1956.28</ele>
        <time>2019-06-19T12:08:50Z</time>
      </trkpt>
      <trkpt lat="42.952922573313117" lon="13.219576925039291">
        <ele>1953.5599999999999</ele>
        <time>2019-06-19T12:09:03Z</time>
      </trkpt>
      <trkpt lat="42.952756276354194" lon="13.219604752957821">
        <ele>1951.21</ele>
        <time>2019-06-19T12:09:17Z</time>
      </trkpt>
      <trkpt lat="42.952595008537173" lon="13.219650518149137">
        <ele>1949.3599999999999</ele>
        <time>2019-06-19T12:09:31Z</time>
      </trkpt>
      <trkpt lat="42.952441116794944" lon="13.219734169542789">
        <ele>1947.45</ele>
        <time>2019-06-19T12:09:46Z</time>
      </trkpt>
      <trkpt lat="42.952302480116487" lon="13.219754872843623">
        <ele>1944.74</ele>
        <time>2019-06-19T12:10:00Z</time>
      </trkpt>
      <trkpt lat="42.952184546738863" lon="13.219780102372169">
        <ele>1941.5799999999999</ele>
        <time>2019-06-19T12:10:12Z</time>
      </trkpt>
      <trkpt lat="42.952080275863409" lon="13.219818910583854">
        <ele>1939.3800000000001</ele>
        <time>2019-06-19T12:10:23Z</time>
      </trkpt>
      <trkpt lat="42.952030654996634" lon="13.219844475388527">
        <ele>1938.5799999999999</ele>
        <time>2019-06-19T12:10:28Z</time>
      </trkpt>
      <trkpt lat="42.951873075217009" lon="13.219934832304716">
        <ele>1936.1199999999999</ele>
        <time>2019-06-19T12:10:43Z</time>
      </trkpt>
      <trkpt lat="42.951814737170935" lon="13.220005491748452">
        <ele>1934.9000000000001</ele>
        <time>2019-06-19T12:10:50Z</time>
      </trkpt>
      <trkpt lat="42.95168548822403" lon="13.220193078741431">
        <ele>1932.25</ele>
        <time>2019-06-19T12:11:07Z</time>
      </trkpt>
      <trkpt lat="42.951593454927206" lon="13.220278657972813">
        <ele>1929.1800000000001</ele>
        <time>2019-06-19T12:11:18Z</time>
      </trkpt>
      <trkpt lat="42.951593035832047" lon="13.22028829716146">
        <ele>1929.1600000000001</ele>
        <time>2019-06-19T12:11:19Z</time>
      </trkpt>
      <trkpt lat="42.951592532917857" lon="13.220316963270307">
        <ele>1928.5999999999999</ele>
        <time>2019-06-19T12:11:21Z</time>
      </trkpt>
      <trkpt lat="42.951545845717192" lon="13.220539838075638">
        <ele>1925.29</ele>
        <time>2019-06-19T12:11:36Z</time>
      </trkpt>
      <trkpt lat="42.951500164344907" lon="13.220663219690323">
        <ele>1923.97</ele>
        <time>2019-06-19T12:11:45Z</time>
      </trkpt>
      <trkpt lat="42.951451046392322" lon="13.22082381695509">
        <ele>1921.3199999999999</ele>
        <time>2019-06-19T12:11:57Z</time>
      </trkpt>
      <trkpt lat="42.951441491022706" lon="13.22091618552804">
        <ele>1919.95</ele>
        <time>2019-06-19T12:12:03Z</time>
      </trkpt>
      <trkpt lat="42.951414082199335" lon="13.221057588234544">
        <ele>1917.71</ele>
        <time>2019-06-19T12:12:19Z</time>
      </trkpt>
      <trkpt lat="42.951407292857766" lon="13.22118784300983">
        <ele>1916</ele>
        <time>2019-06-19T12:12:30Z</time>
      </trkpt>
      <trkpt lat="42.951381141319871" lon="13.221439383924007">
        <ele>1912.6900000000001</ele>
        <time>2019-06-19T12:12:46Z</time>
      </trkpt>
      <trkpt lat="42.951364545151591" lon="13.221598137170076">
        <ele>1909.6700000000001</ele>
        <time>2019-06-19T12:12:56Z</time>
      </trkpt>
      <trkpt lat="42.951340153813362" lon="13.22184456512332">
        <ele>1907.45</ele>
        <time>2019-06-19T12:13:12Z</time>
      </trkpt>
      <trkpt lat="42.951323306187987" lon="13.222057465463877">
        <ele>1905.0999999999999</ele>
        <time>2019-06-19T12:13:26Z</time>
      </trkpt>
      <trkpt lat="42.951323976740241" lon="13.222070205956697">
        <ele>1904.9000000000001</ele>
        <time>2019-06-19T12:13:27Z</time>
      </trkpt>
      <trkpt lat="42.95137426815927" lon="13.222137931734324">
        <ele>1902.8900000000001</ele>
        <time>2019-06-19T12:13:35Z</time>
      </trkpt>
      <trkpt lat="42.951504522934556" lon="13.222205825150013">
        <ele>1899.6700000000001</ele>
        <time>2019-06-19T12:13:49Z</time>
      </trkpt>
      <trkpt lat="42.951652379706502" lon="13.222232731059194">
        <ele>1896.76</ele>
        <time>2019-06-19T12:14:04Z</time>
      </trkpt>
      <trkpt lat="42.951799733564258" lon="13.222254775464535">
        <ele>1893.6500000000001</ele>
        <time>2019-06-19T12:14:19Z</time>
      </trkpt>
      <trkpt lat="42.951937029138207" lon="13.222308335825801">
        <ele>1890.29</ele>
        <time>2019-06-19T12:14:32Z</time>
      </trkpt>
      <trkpt lat="42.952053705230355" lon="13.222359213978052">
        <ele>1887.1400000000001</ele>
        <time>2019-06-19T12:14:43Z</time>
      </trkpt>
      <trkpt lat="42.952184127643704" lon="13.222437920048833">
        <ele>1883.8499999999999</ele>
        <time>2019-06-19T12:14:55Z</time>
      </trkpt>
      <trkpt lat="42.952390238642693" lon="13.222553255036473">
        <ele>1880.8900000000001</ele>
        <time>2019-06-19T12:15:13Z</time>
      </trkpt>
      <trkpt lat="42.952522421255708" lon="13.222589967772365">
        <ele>1878.01</ele>
        <time>2019-06-19T12:15:25Z</time>
      </trkpt>
      <trkpt lat="42.952666841447353" lon="13.222514530643821">
        <ele>1875.5799999999999</ele>
        <time>2019-06-19T12:15:40Z</time>
      </trkpt>
      <trkpt lat="42.952799191698432" lon="13.222439344972372">
        <ele>1872.25</ele>
        <time>2019-06-19T12:15:53Z</time>
      </trkpt>
      <trkpt lat="42.952819224447012" lon="13.222430627793074">
        <ele>1871.8299999999999</ele>
        <time>2019-06-19T12:15:55Z</time>
      </trkpt>
      <trkpt lat="42.952883262187243" lon="13.222362147644162">
        <ele>1870.6300000000001</ele>
        <time>2019-06-19T12:16:02Z</time>
      </trkpt>
      <trkpt lat="42.953060371801257" lon="13.222393663600087">
        <ele>1871.1300000000001</ele>
        <time>2019-06-19T12:16:19Z</time>
      </trkpt>
      <trkpt lat="42.953063556924462" lon="13.222396010532975">
        <ele>1871.1300000000001</ele>
        <time>2019-06-19T12:16:20Z</time>
      </trkpt>
      <trkpt lat="42.953101778402925" lon="13.222403386607766">
        <ele>1871.0899999999999</ele>
        <time>2019-06-19T12:16:24Z</time>
      </trkpt>
      <trkpt lat="42.95316799543798" lon="13.222404727712274">
        <ele>1870.5699999999999</ele>
        <time>2019-06-19T12:16:30Z</time>
      </trkpt>
      <trkpt lat="42.953273020684719" lon="13.222471112385392">
        <ele>1869.1400000000001</ele>
        <time>2019-06-19T12:16:43Z</time>
      </trkpt>
      <trkpt lat="42.953345188871026" lon="13.22252718731761">
        <ele>1867.51</ele>
        <time>2019-06-19T12:16:55Z</time>
      </trkpt>
      <trkpt lat="42.953373184427619" lon="13.222590386867523">
        <ele>1865.02</ele>
        <time>2019-06-19T12:17:03Z</time>
      </trkpt>
      <trkpt lat="42.95344996266067" lon="13.2226796541363">
        <ele>1861.51</ele>
        <time>2019-06-19T12:17:15Z</time>
      </trkpt>
      <trkpt lat="42.953506540507078" lon="13.22275442071259">
        <ele>1858.3599999999999</ele>
        <time>2019-06-19T12:17:25Z</time>
      </trkpt>
      <trkpt lat="42.95354375615716" lon="13.222784595564008">
        <ele>1857.26</ele>
        <time>2019-06-19T12:17:30Z</time>
      </trkpt>
      <trkpt lat="42.953604524955153" lon="13.222847292199731">
        <ele>1854.9300000000001</ele>
        <time>2019-06-19T12:17:38Z</time>
      </trkpt>
      <trkpt lat="42.953674765303731" lon="13.222905965521932">
        <ele>1853.53</ele>
        <time>2019-06-19T12:17:50Z</time>
      </trkpt>
      <trkpt lat="42.953698486089706" lon="13.222920130938292">
        <ele>1852.72</ele>
        <time>2019-06-19T12:17:53Z</time>
      </trkpt>
      <trkpt lat="42.953828908503056" lon="13.222951982170343">
        <ele>1849.74</ele>
        <time>2019-06-19T12:18:07Z</time>
      </trkpt>
      <trkpt lat="42.953959414735436" lon="13.222991041839123">
        <ele>1846.5699999999999</ele>
        <time>2019-06-19T12:18:21Z</time>
      </trkpt>
      <trkpt lat="42.954015741124749" lon="13.223009230569005">
        <ele>1844.8199999999999</ele>
        <time>2019-06-19T12:18:28Z</time>
      </trkpt>
      <trkpt lat="42.954079192131758" lon="13.223002022132277">
        <ele>1843.4400000000001</ele>
        <time>2019-06-19T12:18:36Z</time>
      </trkpt>
      <trkpt lat="42.954171812161803" lon="13.223001267760992">
        <ele>1840.8599999999999</ele>
        <time>2019-06-19T12:18:49Z</time>
      </trkpt>
      <trkpt lat="42.954261749982834" lon="13.222974110394716">
        <ele>1839.0999999999999</ele>
        <time>2019-06-19T12:19:01Z</time>
      </trkpt>
      <trkpt lat="42.954270299524069" lon="13.222967321053147">
        <ele>1838.6400000000001</ele>
        <time>2019-06-19T12:19:03Z</time>
      </trkpt>
      <trkpt lat="42.954324027523398" lon="13.222918454557657">
        <ele>1837.4000000000001</ele>
        <time>2019-06-19T12:19:10Z</time>
      </trkpt>
      <trkpt lat="42.954436345025897" lon="13.222896493971348">
        <ele>1834.01</ele>
        <time>2019-06-19T12:19:23Z</time>
      </trkpt>
      <trkpt lat="42.95456986874342" lon="13.222885765135288">
        <ele>1832.3399999999999</ele>
        <time>2019-06-19T12:19:36Z</time>
      </trkpt>
      <trkpt lat="42.954695429652929" lon="13.222880652174354">
        <ele>1831.29</ele>
        <time>2019-06-19T12:19:48Z</time>
      </trkpt>
      <trkpt lat="42.954838424921036" lon="13.222954161465168">
        <ele>1828.8</ele>
        <time>2019-06-19T12:20:01Z</time>
      </trkpt>
      <trkpt lat="42.95494806021452" lon="13.223009649664164">
        <ele>1825.6800000000001</ele>
        <time>2019-06-19T12:20:13Z</time>
      </trkpt>
      <trkpt lat="42.955070436000824" lon="13.223019372671843">
        <ele>1822.3</ele>
        <time>2019-06-19T12:20:24Z</time>
      </trkpt>
      <trkpt lat="42.955232877284288" lon="13.223042003810406">
        <ele>1819.26</ele>
        <time>2019-06-19T12:20:37Z</time>
      </trkpt>
      <trkpt lat="42.955393893644214" lon="13.223025240004063">
        <ele>1819.25</ele>
        <time>2019-06-19T12:20:52Z</time>
      </trkpt>
      <trkpt lat="42.955511240288615" lon="13.223057258874178">
        <ele>1818.8900000000001</ele>
        <time>2019-06-19T12:21:04Z</time>
      </trkpt>
      <trkpt lat="42.955676196143031" lon="13.223054492846131">
        <ele>1819.5599999999999</ele>
        <time>2019-06-19T12:21:20Z</time>
      </trkpt>
      <trkpt lat="42.955687930807471" lon="13.223054828122258">
        <ele>1819.51</ele>
        <time>2019-06-19T12:21:23Z</time>
      </trkpt>
      <trkpt lat="42.955731516703963" lon="13.223072933033109">
        <ele>1819.8399999999999</ele>
        <time>2019-06-19T12:21:27Z</time>
      </trkpt>
      <trkpt lat="42.95589504763484" lon="13.223147699609399">
        <ele>1819.02</ele>
        <time>2019-06-19T12:21:41Z</time>
      </trkpt>
      <trkpt lat="42.956010131165385" lon="13.22319220751524">
        <ele>1819.6700000000001</ele>
        <time>2019-06-19T12:21:52Z</time>
      </trkpt>
      <trkpt lat="42.956057908013463" lon="13.223208133131266">
        <ele>1819.49</ele>
        <time>2019-06-19T12:21:58Z</time>
      </trkpt>
      <trkpt lat="42.956121191382408" lon="13.223228920251131">
        <ele>1819.99</ele>
        <time>2019-06-19T12:22:05Z</time>
      </trkpt>
      <trkpt lat="42.95622973702848" lon="13.223272925242782">
        <ele>1819</ele>
        <time>2019-06-19T12:22:16Z</time>
      </trkpt>
      <trkpt lat="42.956355465576053" lon="13.223304692655802">
        <ele>1818.6500000000001</ele>
        <time>2019-06-19T12:22:27Z</time>
      </trkpt>
      <trkpt lat="42.956426292657852" lon="13.223323887214065">
        <ele>1818.52</ele>
        <time>2019-06-19T12:22:35Z</time>
      </trkpt>
      <trkpt lat="42.956519667059183" lon="13.223435617983341">
        <ele>1817.8599999999999</ele>
        <time>2019-06-19T12:22:49Z</time>
      </trkpt>
      <trkpt lat="42.956662327051163" lon="13.223567632958293">
        <ele>1816.6700000000001</ele>
        <time>2019-06-19T12:23:04Z</time>
      </trkpt>
      <trkpt lat="42.956769112497568" lon="13.223687997087836">
        <ele>1816.4400000000001</ele>
        <time>2019-06-19T12:23:17Z</time>
      </trkpt>
      <trkpt lat="42.956871371716261" lon="13.223820850253105">
        <ele>1814.99</ele>
        <time>2019-06-19T12:23:31Z</time>
      </trkpt>
      <trkpt lat="42.956896601244807" lon="13.22385186329484">
        <ele>1814.6400000000001</ele>
        <time>2019-06-19T12:23:36Z</time>
      </trkpt>
      <trkpt lat="42.956924261525273" lon="13.223886815831065">
        <ele>1814.24</ele>
        <time>2019-06-19T12:23:40Z</time>
      </trkpt>
      <trkpt lat="42.956937840208411" lon="13.223905758932233">
        <ele>1815.1600000000001</ele>
        <time>2019-06-19T12:23:42Z</time>
      </trkpt>
      <trkpt lat="42.957060132175684" lon="13.224021513015032">
        <ele>1815.23</ele>
        <time>2019-06-19T12:23:57Z</time>
      </trkpt>
      <trkpt lat="42.957152249291539" lon="13.224113713949919">
        <ele>1815.4300000000001</ele>
        <time>2019-06-19T12:24:10Z</time>
      </trkpt>
      <trkpt lat="42.957234978675842" lon="13.224182026460767">
        <ele>1815.21</ele>
        <time>2019-06-19T12:24:21Z</time>
      </trkpt>
      <trkpt lat="42.957248976454139" lon="13.224195521324873">
        <ele>1814.5</ele>
        <time>2019-06-19T12:24:23Z</time>
      </trkpt>
      <trkpt lat="42.957363976165652" lon="13.224338768050075">
        <ele>1814.2</ele>
        <time>2019-06-19T12:24:39Z</time>
      </trkpt>
      <trkpt lat="42.957472605630755" lon="13.224511602893472">
        <ele>1812.5899999999999</ele>
        <time>2019-06-19T12:24:53Z</time>
      </trkpt>
      <trkpt lat="42.957564806565642" lon="13.224679743871093">
        <ele>1811.45</ele>
        <time>2019-06-19T12:25:06Z</time>
      </trkpt>
      <trkpt lat="42.957670083269477" lon="13.224855093285441">
        <ele>1811.0899999999999</ele>
        <time>2019-06-19T12:25:21Z</time>
      </trkpt>
      <trkpt lat="42.957745520398021" lon="13.225030861794949">
        <ele>1810.1500000000001</ele>
        <time>2019-06-19T12:25:35Z</time>
      </trkpt>
      <trkpt lat="42.957832692191005" lon="13.225218448787928">
        <ele>1809.1300000000001</ele>
        <time>2019-06-19T12:25:48Z</time>
      </trkpt>
      <trkpt lat="42.957946266978979" lon="13.225452806800604">
        <ele>1808.3399999999999</ele>
        <time>2019-06-19T12:26:05Z</time>
      </trkpt>
      <trkpt lat="42.958025559782982" lon="13.225624803453684">
        <ele>1807.9200000000001</ele>
        <time>2019-06-19T12:26:18Z</time>
      </trkpt>
      <trkpt lat="42.95809093862772" lon="13.225821945816278">
        <ele>1806.5599999999999</ele>
        <time>2019-06-19T12:26:32Z</time>
      </trkpt>
      <trkpt lat="42.958096386864781" lon="13.22583669796586">
        <ele>1806.27</ele>
        <time>2019-06-19T12:26:33Z</time>
      </trkpt>
      <trkpt lat="42.958175931125879" lon="13.226075666025281">
        <ele>1805.29</ele>
        <time>2019-06-19T12:26:49Z</time>
      </trkpt>
      <trkpt lat="42.95830643735826" lon="13.226268114522099">
        <ele>1804.1700000000001</ele>
        <time>2019-06-19T12:27:05Z</time>
      </trkpt>
      <trkpt lat="42.958414312452078" lon="13.22646995075047">
        <ele>1803.1500000000001</ele>
        <time>2019-06-19T12:27:21Z</time>
      </trkpt>
      <trkpt lat="42.958505675196648" lon="13.226655861362815">
        <ele>1800.6199999999999</ele>
        <time>2019-06-19T12:27:36Z</time>
      </trkpt>
      <trkpt lat="42.958636851981282" lon="13.226813860237598">
        <ele>1798.05</ele>
        <time>2019-06-19T12:27:51Z</time>
      </trkpt>
      <trkpt lat="42.958698878064752" lon="13.226918298751116">
        <ele>1796.8399999999999</ele>
        <time>2019-06-19T12:28:00Z</time>
      </trkpt>
      <trkpt lat="42.958774985745549" lon="13.227015780285001">
        <ele>1795.49</ele>
        <time>2019-06-19T12:28:14Z</time>
      </trkpt>
      <trkpt lat="42.958794683218002" lon="13.227050984278321">
        <ele>1794.1500000000001</ele>
        <time>2019-06-19T12:28:19Z</time>
      </trkpt>
      <trkpt lat="42.958810105919838" lon="13.227082835510373">
        <ele>1793.1099999999999</ele>
        <time>2019-06-19T12:28:22Z</time>
      </trkpt>
      <trkpt lat="42.958846315741539" lon="13.227161038666964">
        <ele>1791.23</ele>
        <time>2019-06-19T12:28:30Z</time>
      </trkpt>
      <trkpt lat="42.958910604938865" lon="13.227243265137076">
        <ele>1789.6700000000001</ele>
        <time>2019-06-19T12:28:43Z</time>
      </trkpt>
      <trkpt lat="42.958915466442704" lon="13.227250808849931">
        <ele>1789.3099999999999</ele>
        <time>2019-06-19T12:28:44Z</time>
      </trkpt>
      <trkpt lat="42.959010265767574" lon="13.227406879886985">
        <ele>1785.71</ele>
        <time>2019-06-19T12:28:59Z</time>
      </trkpt>
      <trkpt lat="42.959099533036351" lon="13.227544510737062">
        <ele>1782.55</ele>
        <time>2019-06-19T12:29:11Z</time>
      </trkpt>
      <trkpt lat="42.959227273240685" lon="13.227756908163428">
        <ele>1779.3499999999999</ele>
        <time>2019-06-19T12:29:29Z</time>
      </trkpt>
      <trkpt lat="42.959316372871399" lon="13.227900993078947">
        <ele>1776.96</ele>
        <time>2019-06-19T12:29:42Z</time>
      </trkpt>
      <trkpt lat="42.959431456401944" lon="13.228056645020843">
        <ele>1774.79</ele>
        <time>2019-06-19T12:29:56Z</time>
      </trkpt>
      <trkpt lat="42.959526339545846" lon="13.228208608925343">
        <ele>1771.76</ele>
        <time>2019-06-19T12:30:10Z</time>
      </trkpt>
      <trkpt lat="42.959627509117126" lon="13.228324363008142">
        <ele>1768.75</ele>
        <time>2019-06-19T12:30:22Z</time>
      </trkpt>
      <trkpt lat="42.959751645103097" lon="13.228444643318653">
        <ele>1765.74</ele>
        <time>2019-06-19T12:30:36Z</time>
      </trkpt>
      <trkpt lat="42.959847366437316" lon="13.228548662737012">
        <ele>1762.4300000000001</ele>
        <time>2019-06-19T12:30:47Z</time>
      </trkpt>
      <trkpt lat="42.959959683939815" lon="13.228691406548023">
        <ele>1759.3399999999999</ele>
        <time>2019-06-19T12:31:01Z</time>
      </trkpt>
      <trkpt lat="42.960025481879711" lon="13.228889219462872">
        <ele>1756.8399999999999</ele>
        <time>2019-06-19T12:31:14Z</time>
      </trkpt>
      <trkpt lat="42.960136206820607" lon="13.229135228320956">
        <ele>1755.0899999999999</ele>
        <time>2019-06-19T12:31:31Z</time>
      </trkpt>
      <trkpt lat="42.960214158520103" lon="13.229321306571364">
        <ele>1755.8099999999999</ele>
        <time>2019-06-19T12:31:46Z</time>
      </trkpt>
      <trkpt lat="42.960296971723437" lon="13.229537894949317">
        <ele>1753.75</ele>
        <time>2019-06-19T12:32:01Z</time>
      </trkpt>
      <trkpt lat="42.960406439378858" lon="13.22980435565114">
        <ele>1751.49</ele>
        <time>2019-06-19T12:32:20Z</time>
      </trkpt>
      <trkpt lat="42.960483049973845" lon="13.229994205757976">
        <ele>1752.0799999999999</ele>
        <time>2019-06-19T12:32:34Z</time>
      </trkpt>
      <trkpt lat="42.960507860407233" lon="13.230040641501546">
        <ele>1751.8599999999999</ele>
        <time>2019-06-19T12:32:40Z</time>
      </trkpt>
      <trkpt lat="42.960615232586861" lon="13.230307688936591">
        <ele>1750.6099999999999</ele>
        <time>2019-06-19T12:32:59Z</time>
      </trkpt>
      <trkpt lat="42.960751606151462" lon="13.23042050935328">
        <ele>1747.29</ele>
        <time>2019-06-19T12:33:13Z</time>
      </trkpt>
      <trkpt lat="42.960862750187516" lon="13.230516482144594">
        <ele>1744.1600000000001</ele>
        <time>2019-06-19T12:33:25Z</time>
      </trkpt>
      <trkpt lat="42.960955621674657" lon="13.230610359460115">
        <ele>1740.9200000000001</ele>
        <time>2019-06-19T12:33:36Z</time>
      </trkpt>
      <trkpt lat="42.961031813174486" lon="13.230723179876804">
        <ele>1737.5999999999999</ele>
        <time>2019-06-19T12:33:46Z</time>
      </trkpt>
      <trkpt lat="42.961090486496687" lon="13.230877406895161">
        <ele>1734.5599999999999</ele>
        <time>2019-06-19T12:33:57Z</time>
      </trkpt>
      <trkpt lat="42.96114974655211" lon="13.231043620035052">
        <ele>1732.1700000000001</ele>
        <time>2019-06-19T12:34:09Z</time>
      </trkpt>
      <trkpt lat="42.961215963587165" lon="13.231232296675444">
        <ele>1728.78</ele>
        <time>2019-06-19T12:34:23Z</time>
      </trkpt>
      <trkpt lat="42.961269440129399" lon="13.231398425996304">
        <ele>1725.6600000000001</ele>
        <time>2019-06-19T12:34:35Z</time>
      </trkpt>
      <trkpt lat="42.961341524496675" lon="13.231610655784607">
        <ele>1722.5599999999999</ele>
        <time>2019-06-19T12:34:49Z</time>
      </trkpt>
      <trkpt lat="42.961375471204519" lon="13.231658767908812">
        <ele>1721.1700000000001</ele>
        <time>2019-06-19T12:34:53Z</time>
      </trkpt>
      <trkpt lat="42.96150648035109" lon="13.231883235275745">
        <ele>1718.1400000000001</ele>
        <time>2019-06-19T12:35:09Z</time>
      </trkpt>
      <trkpt lat="42.961642686277628" lon="13.232179032638669">
        <ele>1715.8099999999999</ele>
        <time>2019-06-19T12:35:28Z</time>
      </trkpt>
      <trkpt lat="42.961737653240561" lon="13.232396626845002">
        <ele>1714.54</ele>
        <time>2019-06-19T12:35:43Z</time>
      </trkpt>
      <trkpt lat="42.961752489209175" lon="13.23241657577455">
        <ele>1714.0899999999999</ele>
        <time>2019-06-19T12:35:50Z</time>
      </trkpt>
      <trkpt lat="42.961807977408171" lon="13.232589829713106">
        <ele>1714.1800000000001</ele>
        <time>2019-06-19T12:36:03Z</time>
      </trkpt>
      <trkpt lat="42.961837816983461" lon="13.232716647908092">
        <ele>1715.01</ele>
        <time>2019-06-19T12:36:15Z</time>
      </trkpt>
      <trkpt lat="42.961881319060922" lon="13.232901049777865">
        <ele>1717.01</ele>
        <time>2019-06-19T12:36:30Z</time>
      </trkpt>
      <trkpt lat="42.961921049281955" lon="13.233082853257656">
        <ele>1716.54</ele>
        <time>2019-06-19T12:36:44Z</time>
      </trkpt>
      <trkpt lat="42.961958516389132" lon="13.233226351439953">
        <ele>1714.5699999999999</ele>
        <time>2019-06-19T12:36:55Z</time>
      </trkpt>
      <trkpt lat="42.962069492787123" lon="13.233402287587523">
        <ele>1712.75</ele>
        <time>2019-06-19T12:37:09Z</time>
      </trkpt>
      <trkpt lat="42.962175272405148" lon="13.233576798811555">
        <ele>1710.96</ele>
        <time>2019-06-19T12:37:23Z</time>
      </trkpt>
      <trkpt lat="42.96227065846324" lon="13.233716860413551">
        <ele>1710.49</ele>
        <time>2019-06-19T12:37:36Z</time>
      </trkpt>
      <trkpt lat="42.962336707860231" lon="13.233899502083659">
        <ele>1710.03</ele>
        <time>2019-06-19T12:37:51Z</time>
      </trkpt>
      <trkpt lat="42.962337546050549" lon="13.233900004997849">
        <ele>1710.27</ele>
        <time>2019-06-19T12:38:08Z</time>
      </trkpt>
      <trkpt lat="42.962348023429513" lon="13.233891539275646">
        <ele>1709.55</ele>
        <time>2019-06-19T12:38:20Z</time>
      </trkpt>
      <trkpt lat="42.962345005944371" lon="13.233898915350437">
        <ele>1709.2</ele>
        <time>2019-06-19T12:38:43Z</time>
      </trkpt>
      <trkpt lat="42.962343078106642" lon="13.233898831531405">
        <ele>1709.8199999999999</ele>
        <time>2019-06-19T12:39:02Z</time>
      </trkpt>
      <trkpt lat="42.962340982630849" lon="13.233896065503359">
        <ele>1710.0999999999999</ele>
        <time>2019-06-19T12:39:07Z</time>
      </trkpt>
      <trkpt lat="42.962334528565407" lon="13.233904279768467">
        <ele>1709.95</ele>
        <time>2019-06-19T12:39:28Z</time>
      </trkpt>
      <trkpt lat="42.962356572970748" lon="13.233910566195846">
        <ele>1709.4300000000001</ele>
        <time>2019-06-19T12:39:50Z</time>
      </trkpt>
      <trkpt lat="42.962371576577425" lon="13.23391760699451">
        <ele>1709.5799999999999</ele>
        <time>2019-06-19T12:40:19Z</time>
      </trkpt>
      <trkpt lat="42.962387083098292" lon="13.23391861282289">
        <ele>1708.4400000000001</ele>
        <time>2019-06-19T12:40:51Z</time>
      </trkpt>
      <trkpt lat="42.962389262393117" lon="13.233908889815211">
        <ele>1709.6900000000001</ele>
        <time>2019-06-19T12:41:26Z</time>
      </trkpt>
      <trkpt lat="42.962388759478927" lon="13.233923809602857">
        <ele>1708.8</ele>
        <time>2019-06-19T12:42:03Z</time>
      </trkpt>
      <trkpt lat="42.962389597669244" lon="13.23392448015511">
        <ele>1708.6300000000001</ele>
        <time>2019-06-19T12:42:39Z</time>
      </trkpt>
      <trkpt lat="42.962391525506973" lon="13.233931856229901">
        <ele>1708.28</ele>
        <time>2019-06-19T12:43:17Z</time>
      </trkpt>
      <trkpt lat="42.962374929338694" lon="13.233921295031905">
        <ele>1708.9000000000001</ele>
        <time>2019-06-19T12:43:49Z</time>
      </trkpt>
      <trkpt lat="42.962356489151716" lon="13.233912577852607">
        <ele>1708.3699999999999</ele>
        <time>2019-06-19T12:44:19Z</time>
      </trkpt>
      <trkpt lat="42.962362607941031" lon="13.233911152929068">
        <ele>1707.6500000000001</ele>
        <time>2019-06-19T12:44:47Z</time>
      </trkpt>
      <trkpt lat="42.962368475273252" lon="13.233906123787165">
        <ele>1707.6099999999999</ele>
        <time>2019-06-19T12:45:38Z</time>
      </trkpt>
      <trkpt lat="42.962368642911315" lon="13.233905956149101">
        <ele>1708.1800000000001</ele>
        <time>2019-06-19T12:46:32Z</time>
      </trkpt>
      <trkpt lat="42.962362691760063" lon="13.233903776854277">
        <ele>1708.46</ele>
        <time>2019-06-19T12:47:35Z</time>
      </trkpt>
      <trkpt lat="42.962366128340364" lon="13.233899585902691">
        <ele>1708.6600000000001</ele>
        <time>2019-06-19T12:48:29Z</time>
      </trkpt>
      <trkpt lat="42.962368642911315" lon="13.233899082988501">
        <ele>1708.71</ele>
        <time>2019-06-19T12:49:30Z</time>
      </trkpt>
      <trkpt lat="42.96237132512033" lon="13.233901094645262">
        <ele>1708.51</ele>
        <time>2019-06-19T12:50:34Z</time>
      </trkpt>
      <trkpt lat="42.962361099198461" lon="13.233891203999519">
        <ele>1708.28</ele>
        <time>2019-06-19T12:51:30Z</time>
      </trkpt>
      <trkpt lat="42.962345844134688" lon="13.233893802389503">
        <ele>1708.79</ele>
        <time>2019-06-19T12:51:39Z</time>
      </trkpt>
      <trkpt lat="42.962336540222168" lon="13.233902603387833">
        <ele>1707.76</ele>
        <time>2019-06-19T12:51:58Z</time>
      </trkpt>
      <trkpt lat="42.962339054793119" lon="13.233900927007198">
        <ele>1708.6099999999999</ele>
        <time>2019-06-19T12:52:06Z</time>
      </trkpt>
      <trkpt lat="42.962344754487276" lon="13.233901597559452">
        <ele>1709.1300000000001</ele>
        <time>2019-06-19T12:52:20Z</time>
      </trkpt>
      <trkpt lat="42.962347939610481" lon="13.233902100473642">
        <ele>1710.0599999999999</ele>
        <time>2019-06-19T12:52:35Z</time>
      </trkpt>
      <trkpt lat="42.962333606556058" lon="13.233935460448265">
        <ele>1709.79</ele>
        <time>2019-06-19T12:52:42Z</time>
      </trkpt>
      <trkpt lat="42.962211733683944" lon="13.23404660448432">
        <ele>1707.3599999999999</ele>
        <time>2019-06-19T12:52:57Z</time>
      </trkpt>
      <trkpt lat="42.962207542732358" lon="13.234120365232229">
        <ele>1705.8800000000001</ele>
        <time>2019-06-19T12:53:04Z</time>
      </trkpt>
      <trkpt lat="42.962193712592125" lon="13.234328236430883">
        <ele>1703.8599999999999</ele>
        <time>2019-06-19T12:53:20Z</time>
      </trkpt>
      <trkpt lat="42.962213912978768" lon="13.234516410157084">
        <ele>1702.1199999999999</ele>
        <time>2019-06-19T12:53:35Z</time>
      </trkpt>
      <trkpt lat="42.962227072566748" lon="13.234678264707327">
        <ele>1700.5599999999999</ele>
        <time>2019-06-19T12:53:47Z</time>
      </trkpt>
      <trkpt lat="42.962264204397798" lon="13.234867611899972">
        <ele>1697.9400000000001</ele>
        <time>2019-06-19T12:54:00Z</time>
      </trkpt>
      <trkpt lat="42.962329750880599" lon="13.235057881101966">
        <ele>1697.27</ele>
        <time>2019-06-19T12:54:14Z</time>
      </trkpt>
      <trkpt lat="42.962422957643867" lon="13.235325263813138">
        <ele>1695.21</ele>
        <time>2019-06-19T12:54:32Z</time>
      </trkpt>
      <trkpt lat="42.962488168850541" lon="13.235599938780069">
        <ele>1693.9300000000001</ele>
        <time>2019-06-19T12:54:50Z</time>
      </trkpt>
      <trkpt lat="42.962537622079253" lon="13.235826333984733">
        <ele>1692.77</ele>
        <time>2019-06-19T12:55:06Z</time>
      </trkpt>
      <trkpt lat="42.962573831900954" lon="13.235980812460184">
        <ele>1690.9400000000001</ele>
        <time>2019-06-19T12:55:19Z</time>
      </trkpt>
      <trkpt lat="42.962619764730334" lon="13.236147779971361">
        <ele>1689.8399999999999</ele>
        <time>2019-06-19T12:55:31Z</time>
      </trkpt>
      <trkpt lat="42.962653459981084" lon="13.236330589279532">
        <ele>1687.8399999999999</ele>
        <time>2019-06-19T12:55:45Z</time>
      </trkpt>
      <trkpt lat="42.962672486901283" lon="13.236503005027771">
        <ele>1686.6500000000001</ele>
        <time>2019-06-19T12:55:57Z</time>
      </trkpt>
      <trkpt lat="42.962678438052535" lon="13.23664516210556">
        <ele>1684.6700000000001</ele>
        <time>2019-06-19T12:56:08Z</time>
      </trkpt>
      <trkpt lat="42.96268112026155" lon="13.236691178753972">
        <ele>1684.3</ele>
        <time>2019-06-19T12:56:13Z</time>
      </trkpt>
      <trkpt lat="42.962689250707626" lon="13.236733758822083">
        <ele>1683.6600000000001</ele>
        <time>2019-06-19T12:56:16Z</time>
      </trkpt>
      <trkpt lat="42.96268162317574" lon="13.236894104629755">
        <ele>1681.9200000000001</ele>
        <time>2019-06-19T12:56:30Z</time>
      </trkpt>
      <trkpt lat="42.96268061734736" lon="13.236986808478832">
        <ele>1680.99</ele>
        <time>2019-06-19T12:56:37Z</time>
      </trkpt>
      <trkpt lat="42.962660165503621" lon="13.237180262804031">
        <ele>1679.0999999999999</ele>
        <time>2019-06-19T12:56:51Z</time>
      </trkpt>
      <trkpt lat="42.962659494951367" lon="13.23736927472055">
        <ele>1676.23</ele>
        <time>2019-06-19T12:57:04Z</time>
      </trkpt>
      <trkpt lat="42.962642144411802" lon="13.237543366849422">
        <ele>1673.51</ele>
        <time>2019-06-19T12:57:18Z</time>
      </trkpt>
      <trkpt lat="42.962624793872237" lon="13.237727349624038">
        <ele>1671.3399999999999</ele>
        <time>2019-06-19T12:57:32Z</time>
      </trkpt>
      <trkpt lat="42.962606269866228" lon="13.237943183630705">
        <ele>1669.4000000000001</ele>
        <time>2019-06-19T12:57:49Z</time>
      </trkpt>
      <trkpt lat="42.962578358128667" lon="13.238094141706824">
        <ele>1667.3499999999999</ele>
        <time>2019-06-19T12:58:02Z</time>
      </trkpt>
      <trkpt lat="42.96253259293735" lon="13.238276448100805">
        <ele>1664.21</ele>
        <time>2019-06-19T12:58:19Z</time>
      </trkpt>
      <trkpt lat="42.962499568238854" lon="13.238410307094455">
        <ele>1661.0899999999999</ele>
        <time>2019-06-19T12:58:32Z</time>
      </trkpt>
      <trkpt lat="42.962466459721327" lon="13.238577442243695">
        <ele>1658.1800000000001</ele>
        <time>2019-06-19T12:58:46Z</time>
      </trkpt>
      <trkpt lat="42.962426226586103" lon="13.238762430846691">
        <ele>1654.99</ele>
        <time>2019-06-19T12:59:02Z</time>
      </trkpt>
      <trkpt lat="42.962377611547709" lon="13.238893523812294">
        <ele>1652.01</ele>
        <time>2019-06-19T12:59:16Z</time>
      </trkpt>
      <trkpt lat="42.962328745052218" lon="13.239006763324142">
        <ele>1648.95</ele>
        <time>2019-06-19T12:59:27Z</time>
      </trkpt>
      <trkpt lat="42.962271831929684" lon="13.239143891260028">
        <ele>1645.95</ele>
        <time>2019-06-19T12:59:41Z</time>
      </trkpt>
      <trkpt lat="42.962227491661906" lon="13.239275570958853">
        <ele>1642.79</ele>
        <time>2019-06-19T12:59:54Z</time>
      </trkpt>
      <trkpt lat="42.962188683450222" lon="13.239382188767195">
        <ele>1641.02</ele>
        <time>2019-06-19T13:00:05Z</time>
      </trkpt>
      <trkpt lat="42.962143504992127" lon="13.239514203742146">
        <ele>1640.3299999999999</ele>
        <time>2019-06-19T13:00:18Z</time>
      </trkpt>
      <trkpt lat="42.962109139189124" lon="13.23962920345366">
        <ele>1638.5599999999999</ele>
        <time>2019-06-19T13:00:30Z</time>
      </trkpt>
      <trkpt lat="42.962107211351395" lon="13.239640854299068">
        <ele>1638.24</ele>
        <time>2019-06-19T13:00:31Z</time>
      </trkpt>
      <trkpt lat="42.962107127532363" lon="13.23976113460958">
        <ele>1636.1300000000001</ele>
        <time>2019-06-19T13:00:41Z</time>
      </trkpt>
      <trkpt lat="42.96209916472435" lon="13.23983489535749">
        <ele>1635.8</ele>
        <time>2019-06-19T13:00:53Z</time>
      </trkpt>
      <trkpt lat="42.962100841104984" lon="13.239870266988873">
        <ele>1636.76</ele>
        <time>2019-06-19T13:01:03Z</time>
      </trkpt>
      <trkpt lat="42.962145851925015" lon="13.239965653046966">
        <ele>1637.3099999999999</ele>
        <time>2019-06-19T13:01:16Z</time>
      </trkpt>
      <trkpt lat="42.962217684835196" lon="13.240155670791864">
        <ele>1637.04</ele>
        <time>2019-06-19T13:01:31Z</time>
      </trkpt>
      <trkpt lat="42.962275017052889" lon="13.240265725180507">
        <ele>1637.7</ele>
        <time>2019-06-19T13:01:41Z</time>
      </trkpt>
      <trkpt lat="42.962386831641197" lon="13.240453312173486">
        <ele>1639</ele>
        <time>2019-06-19T13:01:57Z</time>
      </trkpt>
      <trkpt lat="42.962438464164734" lon="13.240536712110043">
        <ele>1638.9300000000001</ele>
        <time>2019-06-19T13:02:06Z</time>
      </trkpt>
      <trkpt lat="42.962473668158054" lon="13.240587338805199">
        <ele>1639.95</ele>
        <time>2019-06-19T13:02:11Z</time>
      </trkpt>
      <trkpt lat="42.962601576000452" lon="13.24077601544559">
        <ele>1640.74</ele>
        <time>2019-06-19T13:02:29Z</time>
      </trkpt>
      <trkpt lat="42.962685311213136" lon="13.240909203886986">
        <ele>1641.25</ele>
        <time>2019-06-19T13:02:42Z</time>
      </trkpt>
      <trkpt lat="42.962779775261879" lon="13.241078266873956">
        <ele>1642.1900000000001</ele>
        <time>2019-06-19T13:02:57Z</time>
      </trkpt>
      <trkpt lat="42.9628961160779" lon="13.241278091445565">
        <ele>1642.8299999999999</ele>
        <time>2019-06-19T13:03:14Z</time>
      </trkpt>
      <trkpt lat="42.962968787178397" lon="13.241415470838547">
        <ele>1643.5999999999999</ele>
        <time>2019-06-19T13:03:25Z</time>
      </trkpt>
      <trkpt lat="42.963052941486239" lon="13.241558633744717">
        <ele>1644.1800000000001</ele>
        <time>2019-06-19T13:03:37Z</time>
      </trkpt>
      <trkpt lat="42.963123265653849" lon="13.241679249331355">
        <ele>1644.99</ele>
        <time>2019-06-19T13:03:47Z</time>
      </trkpt>
      <trkpt lat="42.963251927867532" lon="13.241906482726336">
        <ele>1646.0999999999999</ele>
        <time>2019-06-19T13:04:06Z</time>
      </trkpt>
      <trkpt lat="42.963368520140648" lon="13.242121310904622">
        <ele>1646.99</ele>
        <time>2019-06-19T13:04:24Z</time>
      </trkpt>
      <trkpt lat="42.963498523458838" lon="13.242354579269886">
        <ele>1648.21</ele>
        <time>2019-06-19T13:04:42Z</time>
      </trkpt>
      <trkpt lat="42.963607907295227" lon="13.242562031373382">
        <ele>1649.51</ele>
        <time>2019-06-19T13:04:59Z</time>
      </trkpt>
      <trkpt lat="42.963680578395724" lon="13.242710726335645">
        <ele>1650.24</ele>
        <time>2019-06-19T13:05:12Z</time>
      </trkpt>
      <trkpt lat="42.963761715218425" lon="13.242853218689561">
        <ele>1651.3399999999999</ele>
        <time>2019-06-19T13:05:24Z</time>
      </trkpt>
      <trkpt lat="42.963826674968004" lon="13.242983222007751">
        <ele>1652.27</ele>
        <time>2019-06-19T13:05:35Z</time>
      </trkpt>
      <trkpt lat="42.963860873132944" lon="13.243083469569683">
        <ele>1651.6500000000001</ele>
        <time>2019-06-19T13:05:43Z</time>
      </trkpt>
      <trkpt lat="42.963916277512908" lon="13.243265356868505">
        <ele>1652.8199999999999</ele>
        <time>2019-06-19T13:05:55Z</time>
      </trkpt>
      <trkpt lat="42.963981488719583" lon="13.243452021852136">
        <ele>1652.73</ele>
        <time>2019-06-19T13:06:07Z</time>
      </trkpt>
      <trkpt lat="42.964059272781014" lon="13.243624018505216">
        <ele>1653.6099999999999</ele>
        <time>2019-06-19T13:06:20Z</time>
      </trkpt>
      <trkpt lat="42.964181061834097" lon="13.24390078894794">
        <ele>1653.4100000000001</ele>
        <time>2019-06-19T13:06:39Z</time>
      </trkpt>
      <trkpt lat="42.964281812310219" lon="13.244136068969965">
        <ele>1653.99</ele>
        <time>2019-06-19T13:06:56Z</time>
      </trkpt>
      <trkpt lat="42.964383652433753" lon="13.244414264336228">
        <ele>1654.76</ele>
        <time>2019-06-19T13:07:15Z</time>
      </trkpt>
      <trkpt lat="42.964502088725567" lon="13.244674438610673">
        <ele>1655.6400000000001</ele>
        <time>2019-06-19T13:07:33Z</time>
      </trkpt>
      <trkpt lat="42.964589847251773" lon="13.244943581521511">
        <ele>1656.3599999999999</ele>
        <time>2019-06-19T13:07:50Z</time>
      </trkpt>
      <trkpt lat="42.964686993509531" lon="13.245189338922501">
        <ele>1657.27</ele>
        <time>2019-06-19T13:08:07Z</time>
      </trkpt>
      <trkpt lat="42.964803082868457" lon="13.245392348617315">
        <ele>1657.72</ele>
        <time>2019-06-19T13:08:22Z</time>
      </trkpt>
      <trkpt lat="42.964921183884144" lon="13.245653612539172">
        <ele>1658.7</ele>
        <time>2019-06-19T13:08:40Z</time>
      </trkpt>
      <trkpt lat="42.964985389262438" lon="13.245910685509443">
        <ele>1659.8499999999999</ele>
        <time>2019-06-19T13:08:57Z</time>
      </trkpt>
      <trkpt lat="42.965091336518526" lon="13.246164321899414">
        <ele>1660.5</ele>
        <time>2019-06-19T13:09:15Z</time>
      </trkpt>
      <trkpt lat="42.96511011198163" lon="13.246503537520766">
        <ele>1661.73</ele>
        <time>2019-06-19T13:09:35Z</time>
      </trkpt>
      <trkpt lat="42.965178256854415" lon="13.24682179838419">
        <ele>1662.3699999999999</ele>
        <time>2019-06-19T13:09:54Z</time>
      </trkpt>
      <trkpt lat="42.965246234089136" lon="13.247155314311385">
        <ele>1662.96</ele>
        <time>2019-06-19T13:10:14Z</time>
      </trkpt>
      <trkpt lat="42.965262494981289" lon="13.247399814426899">
        <ele>1663.1500000000001</ele>
        <time>2019-06-19T13:10:28Z</time>
      </trkpt>
      <trkpt lat="42.965282443910837" lon="13.247762750834227">
        <ele>1662.8699999999999</ele>
        <time>2019-06-19T13:10:49Z</time>
      </trkpt>
      <trkpt lat="42.965290658175945" lon="13.24805611744523">
        <ele>1663.1199999999999</ele>
        <time>2019-06-19T13:11:06Z</time>
      </trkpt>
      <trkpt lat="42.965285964310169" lon="13.248371947556734">
        <ele>1663.8800000000001</ele>
        <time>2019-06-19T13:11:24Z</time>
      </trkpt>
      <trkpt lat="42.965272720903158" lon="13.248727172613144">
        <ele>1664.4100000000001</ele>
        <time>2019-06-19T13:11:44Z</time>
      </trkpt>
      <trkpt lat="42.965257633477449" lon="13.249103436246514">
        <ele>1664.51</ele>
        <time>2019-06-19T13:12:05Z</time>
      </trkpt>
      <trkpt lat="42.965249167755246" lon="13.249343829229474">
        <ele>1664.5799999999999</ele>
        <time>2019-06-19T13:12:18Z</time>
      </trkpt>
      <trkpt lat="42.965240618214011" lon="13.24963191524148">
        <ele>1665.1800000000001</ele>
        <time>2019-06-19T13:12:34Z</time>
      </trkpt>
      <trkpt lat="42.965243635699153" lon="13.249794105067849">
        <ele>1664.8399999999999</ele>
        <time>2019-06-19T13:12:43Z</time>
      </trkpt>
      <trkpt lat="42.965242881327868" lon="13.250133991241455">
        <ele>1664.6700000000001</ele>
        <time>2019-06-19T13:13:02Z</time>
      </trkpt>
      <trkpt lat="42.965254113078117" lon="13.250499106943607">
        <ele>1665.1199999999999</ele>
        <time>2019-06-19T13:13:22Z</time>
      </trkpt>
      <trkpt lat="42.965270625427365" lon="13.250839998945594">
        <ele>1665.97</ele>
        <time>2019-06-19T13:13:41Z</time>
      </trkpt>
      <trkpt lat="42.965285880491138" lon="13.251167312264442">
        <ele>1666.27</ele>
        <time>2019-06-19T13:13:59Z</time>
      </trkpt>
      <trkpt lat="42.96531387604773" lon="13.251485321670771">
        <ele>1666.8499999999999</ele>
        <time>2019-06-19T13:14:17Z</time>
      </trkpt>
      <trkpt lat="42.965339021757245" lon="13.251859154552221">
        <ele>1667.6099999999999</ele>
        <time>2019-06-19T13:14:37Z</time>
      </trkpt>
      <trkpt lat="42.965360395610332" lon="13.252132069319487">
        <ele>1668.04</ele>
        <time>2019-06-19T13:14:52Z</time>
      </trkpt>
      <trkpt lat="42.965396521613002" lon="13.252461142838001">
        <ele>1668.3099999999999</ele>
        <time>2019-06-19T13:15:10Z</time>
      </trkpt>
      <trkpt lat="42.965439856052399" lon="13.25285249389708">
        <ele>1669.3199999999999</ele>
        <time>2019-06-19T13:15:31Z</time>
      </trkpt>
      <trkpt lat="42.965493332594633" lon="13.253213670104742">
        <ele>1670.1900000000001</ele>
        <time>2019-06-19T13:15:51Z</time>
      </trkpt>
      <trkpt lat="42.965522417798638" lon="13.253439646214247">
        <ele>1670.6400000000001</ele>
        <time>2019-06-19T13:16:04Z</time>
      </trkpt>
      <trkpt lat="42.965583354234695" lon="13.253763942047954">
        <ele>1671.26</ele>
        <time>2019-06-19T13:16:23Z</time>
      </trkpt>
      <trkpt lat="42.965633561834693" lon="13.254130566492677">
        <ele>1672.04</ele>
        <time>2019-06-19T13:16:43Z</time>
      </trkpt>
      <trkpt lat="42.965693073347211" lon="13.254550499841571">
        <ele>1672.8699999999999</ele>
        <time>2019-06-19T13:17:05Z</time>
      </trkpt>
      <trkpt lat="42.965767672285438" lon="13.254969008266926">
        <ele>1673.6900000000001</ele>
        <time>2019-06-19T13:17:27Z</time>
      </trkpt>
      <trkpt lat="42.965829530730844" lon="13.255302105098963">
        <ele>1674.3800000000001</ele>
        <time>2019-06-19T13:17:45Z</time>
      </trkpt>
      <trkpt lat="42.965877894312143" lon="13.255594214424491">
        <ele>1675.03</ele>
        <time>2019-06-19T13:18:00Z</time>
      </trkpt>
      <trkpt lat="42.965931873768568" lon="13.255942901596427">
        <ele>1675.6300000000001</ele>
        <time>2019-06-19T13:18:19Z</time>
      </trkpt>
      <trkpt lat="42.965976884588599" lon="13.256177175790071">
        <ele>1675.6900000000001</ele>
        <time>2019-06-19T13:18:33Z</time>
      </trkpt>
      <trkpt lat="42.966034216806293" lon="13.256489401683211">
        <ele>1676.2</ele>
        <time>2019-06-19T13:18:51Z</time>
      </trkpt>
      <trkpt lat="42.966087525710464" lon="13.256777487695217">
        <ele>1676.74</ele>
        <time>2019-06-19T13:19:08Z</time>
      </trkpt>
      <trkpt lat="42.966142930090427" lon="13.257089294493198">
        <ele>1677.3099999999999</ele>
        <time>2019-06-19T13:19:26Z</time>
      </trkpt>
      <trkpt lat="42.966210152953863" lon="13.257434964179993">
        <ele>1677.9200000000001</ele>
        <time>2019-06-19T13:19:46Z</time>
      </trkpt>
      <trkpt lat="42.966263797134161" lon="13.257723301649094">
        <ele>1678.8499999999999</ele>
        <time>2019-06-19T13:20:03Z</time>
      </trkpt>
      <trkpt lat="42.966312747448683" lon="13.257977357134223">
        <ele>1679.26</ele>
        <time>2019-06-19T13:20:18Z</time>
      </trkpt>
      <trkpt lat="42.966379970312119" lon="13.258320093154907">
        <ele>1679.6400000000001</ele>
        <time>2019-06-19T13:20:38Z</time>
      </trkpt>
      <trkpt lat="42.966427747160196" lon="13.258533496409655">
        <ele>1679.8599999999999</ele>
        <time>2019-06-19T13:20:51Z</time>
      </trkpt>
      <trkpt lat="42.966472841799259" lon="13.258783109486103">
        <ele>1680.1700000000001</ele>
        <time>2019-06-19T13:21:05Z</time>
      </trkpt>
      <trkpt lat="42.966529922559857" lon="13.259044038131833">
        <ele>1680.76</ele>
        <time>2019-06-19T13:21:20Z</time>
      </trkpt>
      <trkpt lat="42.966596307232976" lon="13.259346457198262">
        <ele>1681.72</ele>
        <time>2019-06-19T13:21:38Z</time>
      </trkpt>
      <trkpt lat="42.966669732704759" lon="13.259664885699749">
        <ele>1682.54</ele>
        <time>2019-06-19T13:21:57Z</time>
      </trkpt>
      <trkpt lat="42.966746594756842" lon="13.259958503767848">
        <ele>1683.3399999999999</ele>
        <time>2019-06-19T13:22:15Z</time>
      </trkpt>
      <trkpt lat="42.96677878126502" lon="13.260071575641632">
        <ele>1683.6700000000001</ele>
        <time>2019-06-19T13:22:22Z</time>
      </trkpt>
      <trkpt lat="42.966798897832632" lon="13.260155981406569">
        <ele>1683</ele>
        <time>2019-06-19T13:22:27Z</time>
      </trkpt>
      <trkpt lat="42.966859331354499" lon="13.26045555062592">
        <ele>1683.6199999999999</ele>
        <time>2019-06-19T13:22:45Z</time>
      </trkpt>
      <trkpt lat="42.966901576146483" lon="13.260657889768481">
        <ele>1684.8099999999999</ele>
        <time>2019-06-19T13:22:57Z</time>
      </trkpt>
      <trkpt lat="42.966961339116096" lon="13.260900713503361">
        <ele>1685.3</ele>
        <time>2019-06-19T13:23:11Z</time>
      </trkpt>
      <trkpt lat="42.967020515352488" lon="13.261134400963783">
        <ele>1685.95</ele>
        <time>2019-06-19T13:23:25Z</time>
      </trkpt>
      <trkpt lat="42.9671027418226" lon="13.261442352086306">
        <ele>1686.4000000000001</ele>
        <time>2019-06-19T13:23:43Z</time>
      </trkpt>
      <trkpt lat="42.967182788997889" lon="13.261756170541048">
        <ele>1687.0999999999999</ele>
        <time>2019-06-19T13:24:02Z</time>
      </trkpt>
      <trkpt lat="42.967256549745798" lon="13.2620401494205">
        <ele>1687.73</ele>
        <time>2019-06-19T13:24:19Z</time>
      </trkpt>
      <trkpt lat="42.967331986874342" lon="13.262359583750367">
        <ele>1688.4100000000001</ele>
        <time>2019-06-19T13:24:38Z</time>
      </trkpt>
      <trkpt lat="42.967387139797211" lon="13.262595534324646">
        <ele>1688.8800000000001</ele>
        <time>2019-06-19T13:24:52Z</time>
      </trkpt>
      <trkpt lat="42.967445310205221" lon="13.26286543160677">
        <ele>1689.73</ele>
        <time>2019-06-19T13:25:08Z</time>
      </trkpt>
      <trkpt lat="42.967512616887689" lon="13.2631781604141">
        <ele>1690.21</ele>
        <time>2019-06-19T13:25:27Z</time>
      </trkpt>
      <trkpt lat="42.967571876943111" lon="13.263478316366673">
        <ele>1690.6400000000001</ele>
        <time>2019-06-19T13:25:45Z</time>
      </trkpt>
      <trkpt lat="42.967636752873659" lon="13.263800013810396">
        <ele>1691.2</ele>
        <time>2019-06-19T13:26:04Z</time>
      </trkpt>
      <trkpt lat="42.967695845291018" lon="13.264106120914221">
        <ele>1692.03</ele>
        <time>2019-06-19T13:26:22Z</time>
      </trkpt>
      <trkpt lat="42.967741442844272" lon="13.264392530545592">
        <ele>1692.5699999999999</ele>
        <time>2019-06-19T13:26:39Z</time>
      </trkpt>
      <trkpt lat="42.967765918001533" lon="13.26463820412755">
        <ele>1692.99</ele>
        <time>2019-06-19T13:26:53Z</time>
      </trkpt>
      <trkpt lat="42.967804474756122" lon="13.26499585993588">
        <ele>1693.25</ele>
        <time>2019-06-19T13:27:14Z</time>
      </trkpt>
      <trkpt lat="42.967848228290677" lon="13.265267852693796">
        <ele>1693.55</ele>
        <time>2019-06-19T13:27:30Z</time>
      </trkpt>
      <trkpt lat="42.9679074883461" lon="13.265534983947873">
        <ele>1694.02</ele>
        <time>2019-06-19T13:27:46Z</time>
      </trkpt>
      <trkpt lat="42.967961132526398" lon="13.265803121030331">
        <ele>1694.29</ele>
        <time>2019-06-19T13:28:02Z</time>
      </trkpt>
      <trkpt lat="42.968013854697347" lon="13.266003783792257">
        <ele>1694.6199999999999</ele>
        <time>2019-06-19T13:28:15Z</time>
      </trkpt>
      <trkpt lat="42.968088369816542" lon="13.266181899234653">
        <ele>1695.29</ele>
        <time>2019-06-19T13:28:28Z</time>
      </trkpt>
      <trkpt lat="42.968176463618875" lon="13.266412066295743">
        <ele>1695.97</ele>
        <time>2019-06-19T13:28:43Z</time>
      </trkpt>
      <trkpt lat="42.968273190781474" lon="13.266689674928784">
        <ele>1697.0999999999999</ele>
        <time>2019-06-19T13:29:01Z</time>
      </trkpt>
      <trkpt lat="42.968357261270285" lon="13.266931911930442">
        <ele>1697.99</ele>
        <time>2019-06-19T13:29:17Z</time>
      </trkpt>
      <trkpt lat="42.968418197706342" lon="13.267095778137445">
        <ele>1698.46</ele>
        <time>2019-06-19T13:29:29Z</time>
      </trkpt>
      <trkpt lat="42.968504028394818" lon="13.267314042896032">
        <ele>1699.3599999999999</ele>
        <time>2019-06-19T13:29:44Z</time>
      </trkpt>
      <trkpt lat="42.968597402796149" lon="13.267508503049612">
        <ele>1699.9400000000001</ele>
        <time>2019-06-19T13:29:59Z</time>
      </trkpt>
      <trkpt lat="42.968707457184792" lon="13.267692737281322">
        <ele>1700.9300000000001</ele>
        <time>2019-06-19T13:30:14Z</time>
      </trkpt>
      <trkpt lat="42.968845926225185" lon="13.267904631793499">
        <ele>1702.0599999999999</ele>
        <time>2019-06-19T13:30:31Z</time>
      </trkpt>
      <trkpt lat="42.968890434131026" lon="13.267967328429222">
        <ele>1702.8</ele>
        <time>2019-06-19T13:30:37Z</time>
      </trkpt>
      <trkpt lat="42.968917759135365" lon="13.268014853820205">
        <ele>1702.71</ele>
        <time>2019-06-19T13:30:41Z</time>
      </trkpt>
      <trkpt lat="42.96902010217309" lon="13.268274441361427">
        <ele>1702.53</ele>
        <time>2019-06-19T13:30:58Z</time>
      </trkpt>
      <trkpt lat="42.969122193753719" lon="13.268479546532035">
        <ele>1702.5</ele>
        <time>2019-06-19T13:31:13Z</time>
      </trkpt>
      <trkpt lat="42.969147004187107" lon="13.268540147691965">
        <ele>1702.21</ele>
        <time>2019-06-19T13:31:25Z</time>
      </trkpt>
      <trkpt lat="42.969143651425838" lon="13.268543500453234">
        <ele>1702.4100000000001</ele>
        <time>2019-06-19T13:31:43Z</time>
      </trkpt>
      <trkpt lat="42.969143148511648" lon="13.268542913720012">
        <ele>1702.8199999999999</ele>
        <time>2019-06-19T13:32:03Z</time>
      </trkpt>
      <trkpt lat="42.969145579263568" lon="13.268525646999478">
        <ele>1703.3399999999999</ele>
        <time>2019-06-19T13:32:06Z</time>
      </trkpt>
      <trkpt lat="42.96917256899178" lon="13.268559845164418">
        <ele>1703.22</ele>
        <time>2019-06-19T13:32:10Z</time>
      </trkpt>
      <trkpt lat="42.969273738563061" lon="13.268733182922006">
        <ele>1702.95</ele>
        <time>2019-06-19T13:32:23Z</time>
      </trkpt>
      <trkpt lat="42.969283713027835" lon="13.268804429098964">
        <ele>1702.25</ele>
        <time>2019-06-19T13:32:33Z</time>
      </trkpt>
      <trkpt lat="42.969308774918318" lon="13.268747264519334">
        <ele>1703.3</ele>
        <time>2019-06-19T13:33:06Z</time>
      </trkpt>
      <trkpt lat="42.969316067174077" lon="13.268751036375761">
        <ele>1702.1900000000001</ele>
        <time>2019-06-19T13:33:14Z</time>
      </trkpt>
      <trkpt lat="42.969324700534344" lon="13.268748354166746">
        <ele>1702.77</ele>
        <time>2019-06-19T13:33:29Z</time>
      </trkpt>
      <trkpt lat="42.969327801838517" lon="13.268740558996797">
        <ele>1703.3900000000001</ele>
        <time>2019-06-19T13:33:41Z</time>
      </trkpt>
      <trkpt lat="42.969397958368063" lon="13.268840974196792">
        <ele>1702.98</ele>
        <time>2019-06-19T13:33:55Z</time>
      </trkpt>
      <trkpt lat="42.969429055228829" lon="13.268900904804468">
        <ele>1703.27</ele>
        <time>2019-06-19T13:34:02Z</time>
      </trkpt>
      <trkpt lat="42.969498289749026" lon="13.268987657502294">
        <ele>1702.8699999999999</ele>
        <time>2019-06-19T13:34:13Z</time>
      </trkpt>
      <trkpt lat="42.969626616686583" lon="13.269138280302286">
        <ele>1702.4300000000001</ele>
        <time>2019-06-19T13:34:30Z</time>
      </trkpt>
      <trkpt lat="42.969702472910285" lon="13.269215561449528">
        <ele>1702.46</ele>
        <time>2019-06-19T13:34:40Z</time>
      </trkpt>
      <trkpt lat="42.969723930582404" lon="13.269306924194098">
        <ele>1702</ele>
        <time>2019-06-19T13:34:51Z</time>
      </trkpt>
      <trkpt lat="42.969727870076895" lon="13.269301978871226">
        <ele>1702.0699999999999</ele>
        <time>2019-06-19T13:35:05Z</time>
      </trkpt>
      <trkpt lat="42.969718482345343" lon="13.269312037155032">
        <ele>1701.6099999999999</ele>
        <time>2019-06-19T13:35:22Z</time>
      </trkpt>
      <trkpt lat="42.969709513708949" lon="13.269319664686918">
        <ele>1701.72</ele>
        <time>2019-06-19T13:35:42Z</time>
      </trkpt>
      <trkpt lat="42.96971739269793" lon="13.269322095438838">
        <ele>1701.54</ele>
        <time>2019-06-19T13:35:56Z</time>
      </trkpt>
      <trkpt lat="42.969718649983406" lon="13.269322346895933">
        <ele>1701.5699999999999</ele>
        <time>2019-06-19T13:36:14Z</time>
      </trkpt>
      <trkpt lat="42.969712531194091" lon="13.269323604181409">
        <ele>1701.21</ele>
        <time>2019-06-19T13:36:36Z</time>
      </trkpt>
      <trkpt lat="42.969714207574725" lon="13.269324693828821">
        <ele>1701.2</ele>
        <time>2019-06-19T13:36:48Z</time>
      </trkpt>
      <trkpt lat="42.969716973602772" lon="13.269321508705616">
        <ele>1702.02</ele>
        <time>2019-06-19T13:37:05Z</time>
      </trkpt>
      <trkpt lat="42.969718566164374" lon="13.269322263076901">
        <ele>1701.4100000000001</ele>
        <time>2019-06-19T13:37:21Z</time>
      </trkpt>
      <trkpt lat="42.969729797914624" lon="13.269320083782077">
        <ele>1701.5899999999999</ele>
        <time>2019-06-19T13:37:37Z</time>
      </trkpt>
      <trkpt lat="42.969729295000434" lon="13.269318575039506">
        <ele>1701.6199999999999</ele>
        <time>2019-06-19T13:37:51Z</time>
      </trkpt>
      <trkpt lat="42.969733402132988" lon="13.269319329410791">
        <ele>1701.8800000000001</ele>
        <time>2019-06-19T13:38:09Z</time>
      </trkpt>
      <trkpt lat="42.969735413789749" lon="13.269317904487252">
        <ele>1701.72</ele>
        <time>2019-06-19T13:38:23Z</time>
      </trkpt>
      <trkpt lat="42.969734407961369" lon="13.269318575039506">
        <ele>1701.9300000000001</ele>
        <time>2019-06-19T13:38:39Z</time>
      </trkpt>
      <trkpt lat="42.969735078513622" lon="13.269318323582411">
        <ele>1701.8</ele>
        <time>2019-06-19T13:39:01Z</time>
      </trkpt>
      <trkpt lat="42.969732815399766" lon="13.269319413229823">
        <ele>1701.74</ele>
        <time>2019-06-19T13:39:19Z</time>
      </trkpt>
      <trkpt lat="42.969729378819466" lon="13.269322598353028">
        <ele>1701.9000000000001</ele>
        <time>2019-06-19T13:39:35Z</time>
      </trkpt>
      <trkpt lat="42.969729295000434" lon="13.269327878952026">
        <ele>1702.01</ele>
        <time>2019-06-19T13:39:57Z</time>
      </trkpt>
      <trkpt lat="42.969734072685242" lon="13.269323436543345">
        <ele>1702.02</ele>
        <time>2019-06-19T13:40:15Z</time>
      </trkpt>
      <trkpt lat="42.969729295000434" lon="13.269321089610457">
        <ele>1702.21</ele>
        <time>2019-06-19T13:40:34Z</time>
      </trkpt>
      <trkpt lat="42.969728456810117" lon="13.269323688000441">
        <ele>1702.1199999999999</ele>
        <time>2019-06-19T13:40:46Z</time>
      </trkpt>
      <trkpt lat="42.969728959724307" lon="13.269328465685248">
        <ele>1702.4300000000001</ele>
        <time>2019-06-19T13:40:59Z</time>
      </trkpt>
      <trkpt lat="42.969727953895926" lon="13.269335338845849">
        <ele>1702.23</ele>
        <time>2019-06-19T13:41:17Z</time>
      </trkpt>
      <trkpt lat="42.969730217009783" lon="13.269327627494931">
        <ele>1701.8399999999999</ele>
        <time>2019-06-19T13:41:30Z</time>
      </trkpt>
      <trkpt lat="42.969730133190751" lon="13.269330058246851">
        <ele>1701.26</ele>
        <time>2019-06-19T13:41:48Z</time>
      </trkpt>
      <trkpt lat="42.969736503437161" lon="13.269323101267219">
        <ele>1703.02</ele>
        <time>2019-06-19T13:42:02Z</time>
      </trkpt>
      <trkpt lat="42.969735832884908" lon="13.26932025142014">
        <ele>1702.5799999999999</ele>
        <time>2019-06-19T13:42:18Z</time>
      </trkpt>
      <trkpt lat="42.969736084342003" lon="13.269317988306284">
        <ele>1702.78</ele>
        <time>2019-06-19T13:42:33Z</time>
      </trkpt>
      <trkpt lat="42.969739688560367" lon="13.269316982477903">
        <ele>1702.6199999999999</ele>
        <time>2019-06-19T13:42:51Z</time>
      </trkpt>
      <trkpt lat="42.969739185646176" lon="13.269316479563713">
        <ele>1702.46</ele>
        <time>2019-06-19T13:43:11Z</time>
      </trkpt>
      <trkpt lat="42.969736587256193" lon="13.26931631192565">
        <ele>1702.47</ele>
        <time>2019-06-19T13:43:29Z</time>
      </trkpt>
      <trkpt lat="42.969739688560367" lon="13.269327292218804">
        <ele>1702.6300000000001</ele>
        <time>2019-06-19T13:43:44Z</time>
      </trkpt>
      <trkpt lat="42.969738012179732" lon="13.269338188692927">
        <ele>1702.54</ele>
        <time>2019-06-19T13:44:01Z</time>
      </trkpt>
      <trkpt lat="42.96973985619843" lon="13.269335087388754">
        <ele>1702.6199999999999</ele>
        <time>2019-06-19T13:44:26Z</time>
      </trkpt>
      <trkpt lat="42.969729295000434" lon="13.269354030489922">
        <ele>1702.27</ele>
        <time>2019-06-19T13:44:46Z</time>
      </trkpt>
      <trkpt lat="42.969735246151686" lon="13.269366351887584">
        <ele>1702.24</ele>
        <time>2019-06-19T13:44:50Z</time>
      </trkpt>
      <trkpt lat="42.969743125140667" lon="13.269388312473893">
        <ele>1702.21</ele>
        <time>2019-06-19T13:44:52Z</time>
      </trkpt>
      <trkpt lat="42.969795176759362" lon="13.269545137882233">
        <ele>1701.5699999999999</ele>
        <time>2019-06-19T13:45:04Z</time>
      </trkpt>
      <trkpt lat="42.969852928072214" lon="13.269776981323957">
        <ele>1700.7</ele>
        <time>2019-06-19T13:45:20Z</time>
      </trkpt>
      <trkpt lat="42.969897603616118" lon="13.270029108971357">
        <ele>1698.75</ele>
        <time>2019-06-19T13:45:36Z</time>
      </trkpt>
      <trkpt lat="42.969965664669871" lon="13.270272770896554">
        <ele>1697.52</ele>
        <time>2019-06-19T13:45:52Z</time>
      </trkpt>
      <trkpt lat="42.970016542822123" lon="13.270513163879514">
        <ele>1697.1300000000001</ele>
        <time>2019-06-19T13:46:08Z</time>
      </trkpt>
      <trkpt lat="42.970058033242822" lon="13.270740900188684">
        <ele>1696.3</ele>
        <time>2019-06-19T13:46:22Z</time>
      </trkpt>
      <trkpt lat="42.970072869211435" lon="13.270829664543271">
        <ele>1695.8099999999999</ele>
        <time>2019-06-19T13:46:28Z</time>
      </trkpt>
      <trkpt lat="42.970125842839479" lon="13.271004343405366">
        <ele>1696.0799999999999</ele>
        <time>2019-06-19T13:46:40Z</time>
      </trkpt>
      <trkpt lat="42.970190215855837" lon="13.271180279552937">
        <ele>1697.0899999999999</ele>
        <time>2019-06-19T13:46:53Z</time>
      </trkpt>
      <trkpt lat="42.970281159505248" lon="13.271437436342239">
        <ele>1695.98</ele>
        <time>2019-06-19T13:47:09Z</time>
      </trkpt>
      <trkpt lat="42.970343520864844" lon="13.271625693887472">
        <ele>1695.71</ele>
        <time>2019-06-19T13:47:22Z</time>
      </trkpt>
      <trkpt lat="42.970370091497898" lon="13.271717475727201">
        <ele>1695.98</ele>
        <time>2019-06-19T13:47:28Z</time>
      </trkpt>
      <trkpt lat="42.970345448702574" lon="13.271927610039711">
        <ele>1694.3199999999999</ele>
        <time>2019-06-19T13:47:42Z</time>
      </trkpt>
      <trkpt lat="42.970272526144981" lon="13.272104971110821">
        <ele>1691.3900000000001</ele>
        <time>2019-06-19T13:47:57Z</time>
      </trkpt>
      <trkpt lat="42.970250984653831" lon="13.272267244756222">
        <ele>1688.1500000000001</ele>
        <time>2019-06-19T13:48:09Z</time>
      </trkpt>
      <trkpt lat="42.970230700448155" lon="13.272414514794946">
        <ele>1684.8299999999999</ele>
        <time>2019-06-19T13:48:20Z</time>
      </trkpt>
      <trkpt lat="42.970206057652831" lon="13.272563964128494">
        <ele>1681.74</ele>
        <time>2019-06-19T13:48:31Z</time>
      </trkpt>
      <trkpt lat="42.970165992155671" lon="13.272714838385582">
        <ele>1678.49</ele>
        <time>2019-06-19T13:48:44Z</time>
      </trkpt>
      <trkpt lat="42.970101116225123" lon="13.272779881954193">
        <ele>1677.1600000000001</ele>
        <time>2019-06-19T13:48:51Z</time>
      </trkpt>
      <trkpt lat="42.970040263608098" lon="13.272810811176896">
        <ele>1676.75</ele>
        <time>2019-06-19T13:48:57Z</time>
      </trkpt>
      <trkpt lat="42.96981998719275" lon="13.272896893322468">
        <ele>1675.4300000000001</ele>
        <time>2019-06-19T13:49:16Z</time>
      </trkpt>
      <trkpt lat="42.969768019393086" lon="13.272973252460361">
        <ele>1674.21</ele>
        <time>2019-06-19T13:49:24Z</time>
      </trkpt>
      <trkpt lat="42.96979215927422" lon="13.273031590506434">
        <ele>1673.0999999999999</ele>
        <time>2019-06-19T13:49:29Z</time>
      </trkpt>
      <trkpt lat="42.969855107367039" lon="13.27325027436018">
        <ele>1669.8299999999999</ele>
        <time>2019-06-19T13:49:45Z</time>
      </trkpt>
      <trkpt lat="42.969958875328302" lon="13.273406345397234">
        <ele>1666.96</ele>
        <time>2019-06-19T13:50:01Z</time>
      </trkpt>
      <trkpt lat="42.970071109011769" lon="13.273557722568512">
        <ele>1664.22</ele>
        <time>2019-06-19T13:50:16Z</time>
      </trkpt>
      <trkpt lat="42.97011561691761" lon="13.273690575733781">
        <ele>1661.6700000000001</ele>
        <time>2019-06-19T13:50:27Z</time>
      </trkpt>
      <trkpt lat="42.970103546977043" lon="13.273776071146131">
        <ele>1659.6199999999999</ele>
        <time>2019-06-19T13:50:33Z</time>
      </trkpt>
      <trkpt lat="42.970101200044155" lon="13.27379023656249">
        <ele>1659.3499999999999</ele>
        <time>2019-06-19T13:50:34Z</time>
      </trkpt>
      <trkpt lat="42.970046969130635" lon="13.273981092497706">
        <ele>1655.96</ele>
        <time>2019-06-19T13:50:48Z</time>
      </trkpt>
      <trkpt lat="42.969994498416781" lon="13.274183096364141">
        <ele>1652.9200000000001</ele>
        <time>2019-06-19T13:51:03Z</time>
      </trkpt>
      <trkpt lat="42.969964994117618" lon="13.274382753297687">
        <ele>1649.8499999999999</ele>
        <time>2019-06-19T13:51:18Z</time>
      </trkpt>
      <trkpt lat="42.969945129007101" lon="13.274545110762119">
        <ele>1646.6800000000001</ele>
        <time>2019-06-19T13:51:30Z</time>
      </trkpt>
      <trkpt lat="42.969891401007771" lon="13.274709479883313">
        <ele>1643.9300000000001</ele>
        <time>2019-06-19T13:51:44Z</time>
      </trkpt>
      <trkpt lat="42.969862315803766" lon="13.274881560355425">
        <ele>1640.8299999999999</ele>
        <time>2019-06-19T13:51:57Z</time>
      </trkpt>
      <trkpt lat="42.969854101538658" lon="13.274945179000497">
        <ele>1639.9400000000001</ele>
        <time>2019-06-19T13:52:02Z</time>
      </trkpt>
      <trkpt lat="42.969849575310946" lon="13.275034781545401">
        <ele>1638.48</ele>
        <time>2019-06-19T13:52:09Z</time>
      </trkpt>
      <trkpt lat="42.969857370480895" lon="13.275152128189802">
        <ele>1635.8499999999999</ele>
        <time>2019-06-19T13:52:19Z</time>
      </trkpt>
      <trkpt lat="42.969891903921962" lon="13.275311551988125">
        <ele>1632.1500000000001</ele>
        <time>2019-06-19T13:52:33Z</time>
      </trkpt>
      <trkpt lat="42.969969185069203" lon="13.275339799001813">
        <ele>1629.0799999999999</ele>
        <time>2019-06-19T13:52:44Z</time>
      </trkpt>
      <trkpt lat="42.97006574459374" lon="13.275358323007822">
        <ele>1626.4400000000001</ele>
        <time>2019-06-19T13:52:56Z</time>
      </trkpt>
      <trkpt lat="42.970092985779047" lon="13.275350444018841">
        <ele>1625.47</ele>
        <time>2019-06-19T13:52:59Z</time>
      </trkpt>
      <trkpt lat="42.970212679356337" lon="13.275309456512332">
        <ele>1622.22</ele>
        <time>2019-06-19T13:53:13Z</time>
      </trkpt>
      <trkpt lat="42.970275459811091" lon="13.275377182289958">
        <ele>1619.3</ele>
        <time>2019-06-19T13:53:25Z</time>
      </trkpt>
      <trkpt lat="42.970275292173028" lon="13.275474915280938">
        <ele>1617.3499999999999</ele>
        <time>2019-06-19T13:53:34Z</time>
      </trkpt>
      <trkpt lat="42.97024461440742" lon="13.275549346581101">
        <ele>1615.97</ele>
        <time>2019-06-19T13:53:41Z</time>
      </trkpt>
      <trkpt lat="42.970151826739311" lon="13.275704998522997">
        <ele>1612.72</ele>
        <time>2019-06-19T13:53:58Z</time>
      </trkpt>
      <trkpt lat="42.970143696293235" lon="13.275726037099957">
        <ele>1612.1800000000001</ele>
        <time>2019-06-19T13:54:00Z</time>
      </trkpt>
      <trkpt lat="42.970079993829131" lon="13.275832654908299">
        <ele>1609.79</ele>
        <time>2019-06-19T13:54:13Z</time>
      </trkpt>
      <trkpt lat="42.970021739602089" lon="13.275930304080248">
        <ele>1606.5999999999999</ele>
        <time>2019-06-19T13:54:27Z</time>
      </trkpt>
      <trkpt lat="42.970018219202757" lon="13.275936841964722">
        <ele>1606.3099999999999</ele>
        <time>2019-06-19T13:54:28Z</time>
      </trkpt>
      <trkpt lat="42.969996593892574" lon="13.276000544428825">
        <ele>1605.4100000000001</ele>
        <time>2019-06-19T13:54:37Z</time>
      </trkpt>
      <trkpt lat="42.969946218654513" lon="13.276083525270224">
        <ele>1602.5999999999999</ele>
        <time>2019-06-19T13:54:50Z</time>
      </trkpt>
      <trkpt lat="42.969899699091911" lon="13.276143120601773">
        <ele>1600.6400000000001</ele>
        <time>2019-06-19T13:55:03Z</time>
      </trkpt>
      <trkpt lat="42.969889556989074" lon="13.276186706498265">
        <ele>1599.6500000000001</ele>
        <time>2019-06-19T13:55:15Z</time>
      </trkpt>
      <trkpt lat="42.969857789576054" lon="13.276217887178063">
        <ele>1597.8699999999999</ele>
        <time>2019-06-19T13:55:24Z</time>
      </trkpt>
      <trkpt lat="42.969815796241164" lon="13.276293911039829">
        <ele>1594.8900000000001</ele>
        <time>2019-06-19T13:55:37Z</time>
      </trkpt>
      <trkpt lat="42.969782184809446" lon="13.276362810283899">
        <ele>1592.25</ele>
        <time>2019-06-19T13:55:49Z</time>
      </trkpt>
      <trkpt lat="42.969728456810117" lon="13.276460543274879">
        <ele>1589</ele>
        <time>2019-06-19T13:56:02Z</time>
      </trkpt>
      <trkpt lat="42.969706747680902" lon="13.27651871368289">
        <ele>1587.51</ele>
        <time>2019-06-19T13:56:12Z</time>
      </trkpt>
      <trkpt lat="42.9697603918612" lon="13.276575040072203">
        <ele>1585.01</ele>
        <time>2019-06-19T13:56:26Z</time>
      </trkpt>
      <trkpt lat="42.969832476228476" lon="13.276600437238812">
        <ele>1581.9300000000001</ele>
        <time>2019-06-19T13:56:36Z</time>
      </trkpt>
      <trkpt lat="42.969890227541327" lon="13.276594150811434">
        <ele>1580.22</ele>
        <time>2019-06-19T13:56:44Z</time>
      </trkpt>
      <trkpt lat="42.970000868663192" lon="13.276568921282887">
        <ele>1576.8699999999999</ele>
        <time>2019-06-19T13:56:57Z</time>
      </trkpt>
      <trkpt lat="42.970061972737312" lon="13.276572693139315">
        <ele>1575.0799999999999</ele>
        <time>2019-06-19T13:57:04Z</time>
      </trkpt>
      <trkpt lat="42.97008871100843" lon="13.276590881869197">
        <ele>1573.9300000000001</ele>
        <time>2019-06-19T13:57:07Z</time>
      </trkpt>
      <trkpt lat="42.970174541696906" lon="13.276623236015439">
        <ele>1570.4200000000001</ele>
        <time>2019-06-19T13:57:16Z</time>
      </trkpt>
      <trkpt lat="42.970236735418439" lon="13.276619799435139">
        <ele>1568.4200000000001</ele>
        <time>2019-06-19T13:57:23Z</time>
      </trkpt>
      <trkpt lat="42.970337569713593" lon="13.276642598211765">
        <ele>1565.4200000000001</ele>
        <time>2019-06-19T13:57:35Z</time>
      </trkpt>
      <trkpt lat="42.97036531381309" lon="13.276688614860177">
        <ele>1563.73</ele>
        <time>2019-06-19T13:57:42Z</time>
      </trkpt>
      <trkpt lat="42.970352321863174" lon="13.276728764176369">
        <ele>1562.6700000000001</ele>
        <time>2019-06-19T13:57:45Z</time>
      </trkpt>
      <trkpt lat="42.970304377377033" lon="13.276800094172359">
        <ele>1560.3599999999999</ele>
        <time>2019-06-19T13:57:56Z</time>
      </trkpt>
      <trkpt lat="42.970291385427117" lon="13.276820462197065">
        <ele>1559.9200000000001</ele>
        <time>2019-06-19T13:57:58Z</time>
      </trkpt>
      <trkpt lat="42.970177391543984" lon="13.276968989521265">
        <ele>1556.5799999999999</ele>
        <time>2019-06-19T13:58:13Z</time>
      </trkpt>
      <trkpt lat="42.970105474814773" lon="13.277076529338956">
        <ele>1553.48</ele>
        <time>2019-06-19T13:58:23Z</time>
      </trkpt>
      <trkpt lat="42.970043029636145" lon="13.277177447453141">
        <ele>1550.47</ele>
        <time>2019-06-19T13:58:31Z</time>
      </trkpt>
      <trkpt lat="42.969971867278218" lon="13.27729077078402">
        <ele>1547.4200000000001</ele>
        <time>2019-06-19T13:58:39Z</time>
      </trkpt>
      <trkpt lat="42.969956696033478" lon="13.27731516212225">
        <ele>1546.77</ele>
        <time>2019-06-19T13:58:41Z</time>
      </trkpt>
      <trkpt lat="42.969872122630477" lon="13.277450446039438">
        <ele>1543.4300000000001</ele>
        <time>2019-06-19T13:58:52Z</time>
      </trkpt>
      <trkpt lat="42.969783945009112" lon="13.27758589759469">
        <ele>1540.3800000000001</ele>
        <time>2019-06-19T13:59:03Z</time>
      </trkpt>
      <trkpt lat="42.969719069078565" lon="13.277686480432749">
        <ele>1537.3599999999999</ele>
        <time>2019-06-19T13:59:12Z</time>
      </trkpt>
      <trkpt lat="42.969630137085915" lon="13.277811370790005">
        <ele>1534.1400000000001</ele>
        <time>2019-06-19T13:59:25Z</time>
      </trkpt>
      <trkpt lat="42.969608176499605" lon="13.277836013585329">
        <ele>1533.5599999999999</ele>
        <time>2019-06-19T13:59:29Z</time>
      </trkpt>
      <trkpt lat="42.969528464600444" lon="13.277959646657109">
        <ele>1530.55</ele>
        <time>2019-06-19T13:59:41Z</time>
      </trkpt>
      <trkpt lat="42.969478173181415" lon="13.27802469022572">
        <ele>1529.1099999999999</ele>
        <time>2019-06-19T13:59:48Z</time>
      </trkpt>
      <trkpt lat="42.969373147934675" lon="13.278137091547251">
        <ele>1525.6300000000001</ele>
        <time>2019-06-19T14:00:01Z</time>
      </trkpt>
      <trkpt lat="42.969233924522996" lon="13.278270028531551">
        <ele>1522.3599999999999</ele>
        <time>2019-06-19T14:00:16Z</time>
      </trkpt>
      <trkpt lat="42.969079362228513" lon="13.278372790664434">
        <ele>1519.5999999999999</ele>
        <time>2019-06-19T14:00:32Z</time>
      </trkpt>
      <trkpt lat="42.968986239284277" lon="13.27841168269515">
        <ele>1518.51</ele>
        <time>2019-06-19T14:00:42Z</time>
      </trkpt>
      <trkpt lat="42.968863695859909" lon="13.278473038226366">
        <ele>1516.5</ele>
        <time>2019-06-19T14:00:55Z</time>
      </trkpt>
      <trkpt lat="42.96871374361217" lon="13.278573201969266">
        <ele>1513.6099999999999</ele>
        <time>2019-06-19T14:01:10Z</time>
      </trkpt>
      <trkpt lat="42.968652052804828" lon="13.27860320918262">
        <ele>1512.77</ele>
        <time>2019-06-19T14:01:19Z</time>
      </trkpt>
      <trkpt lat="42.968632355332375" lon="13.278609663248062">
        <ele>1512.5899999999999</ele>
        <time>2019-06-19T14:01:21Z</time>
      </trkpt>
      <trkpt lat="42.968448121100664" lon="13.278701528906822">
        <ele>1510.46</ele>
        <time>2019-06-19T14:01:38Z</time>
      </trkpt>
      <trkpt lat="42.968319542706013" lon="13.278770260512829">
        <ele>1508.9400000000001</ele>
        <time>2019-06-19T14:01:52Z</time>
      </trkpt>
      <trkpt lat="42.968248296529055" lon="13.278806805610657">
        <ele>1508.27</ele>
        <time>2019-06-19T14:02:01Z</time>
      </trkpt>
      <trkpt lat="42.968078646808863" lon="13.278858102858067">
        <ele>1507.72</ele>
        <time>2019-06-19T14:02:17Z</time>
      </trkpt>
      <trkpt lat="42.967912349849939" lon="13.278881153091788">
        <ele>1505.3099999999999</ele>
        <time>2019-06-19T14:02:32Z</time>
      </trkpt>
      <trkpt lat="42.967761475592852" lon="13.278970085084438">
        <ele>1504.95</ele>
        <time>2019-06-19T14:02:46Z</time>
      </trkpt>
      <trkpt lat="42.967574307695031" lon="13.279063543304801">
        <ele>1503.49</ele>
        <time>2019-06-19T14:03:02Z</time>
      </trkpt>
      <trkpt lat="42.967412453144789" lon="13.279150379821658">
        <ele>1502.1099999999999</ele>
        <time>2019-06-19T14:03:17Z</time>
      </trkpt>
      <trkpt lat="42.967252610251307" lon="13.279209975153208">
        <ele>1501.71</ele>
        <time>2019-06-19T14:03:32Z</time>
      </trkpt>
      <trkpt lat="42.967105507850647" lon="13.279332518577576">
        <ele>1499.1700000000001</ele>
        <time>2019-06-19T14:03:48Z</time>
      </trkpt>
      <trkpt lat="42.966940468177199" lon="13.279428407549858">
        <ele>1496.55</ele>
        <time>2019-06-19T14:04:03Z</time>
      </trkpt>
      <trkpt lat="42.966895205900073" lon="13.279446428641677">
        <ele>1496.5699999999999</ele>
        <time>2019-06-19T14:04:10Z</time>
      </trkpt>
      <trkpt lat="42.96670300886035" lon="13.27956578694284">
        <ele>1495.04</ele>
        <time>2019-06-19T14:04:27Z</time>
      </trkpt>
      <trkpt lat="42.966565378010273" lon="13.279665028676391">
        <ele>1493.29</ele>
        <time>2019-06-19T14:04:42Z</time>
      </trkpt>
      <trkpt lat="42.966455826535821" lon="13.27970459125936">
        <ele>1492.71</ele>
        <time>2019-06-19T14:04:54Z</time>
      </trkpt>
      <trkpt lat="42.966321045532823" lon="13.279747171327472">
        <ele>1491.7</ele>
        <time>2019-06-19T14:05:07Z</time>
      </trkpt>
      <trkpt lat="42.96629304997623" lon="13.279760833829641">
        <ele>1491.4200000000001</ele>
        <time>2019-06-19T14:05:10Z</time>
      </trkpt>
      <trkpt lat="42.966158436611295" lon="13.279828391969204">
        <ele>1488.26</ele>
        <time>2019-06-19T14:05:25Z</time>
      </trkpt>
      <trkpt lat="42.966031031683087" lon="13.279838869348168">
        <ele>1485.0799999999999</ele>
        <time>2019-06-19T14:05:37Z</time>
      </trkpt>
      <trkpt lat="42.965901950374246" lon="13.27984725125134">
        <ele>1483.0999999999999</ele>
        <time>2019-06-19T14:05:48Z</time>
      </trkpt>
      <trkpt lat="42.965850653126836" lon="13.279846161603928">
        <ele>1482.5699999999999</ele>
        <time>2019-06-19T14:05:54Z</time>
      </trkpt>
      <trkpt lat="42.965729031711817" lon="13.279932159930468">
        <ele>1481.25</ele>
        <time>2019-06-19T14:06:06Z</time>
      </trkpt>
      <trkpt lat="42.965647894889116" lon="13.279975913465023">
        <ele>1480.4000000000001</ele>
        <time>2019-06-19T14:06:17Z</time>
      </trkpt>
      <trkpt lat="42.965627107769251" lon="13.280025953426957">
        <ele>1478.49</ele>
        <time>2019-06-19T14:06:29Z</time>
      </trkpt>
      <trkpt lat="42.965632807463408" lon="13.280096696689725">
        <ele>1475.49</ele>
        <time>2019-06-19T14:06:40Z</time>
      </trkpt>
      <trkpt lat="42.965577319264412" lon="13.280125027522445">
        <ele>1474.1099999999999</ele>
        <time>2019-06-19T14:06:52Z</time>
      </trkpt>
      <trkpt lat="42.965553430840373" lon="13.280151514336467">
        <ele>1473.8</ele>
        <time>2019-06-19T14:07:03Z</time>
      </trkpt>
      <trkpt lat="42.965460391715169" lon="13.280256791040301">
        <ele>1470.75</ele>
        <time>2019-06-19T14:07:17Z</time>
      </trkpt>
      <trkpt lat="42.9653724655509" lon="13.280300293117762">
        <ele>1469.5</ele>
        <time>2019-06-19T14:07:28Z</time>
      </trkpt>
      <trkpt lat="42.965385289862752" lon="13.280318984761834">
        <ele>1468.8699999999999</ele>
        <time>2019-06-19T14:07:44Z</time>
      </trkpt>
      <trkpt lat="42.965374896302819" lon="13.28034128062427">
        <ele>1469.0999999999999</ele>
        <time>2019-06-19T14:07:51Z</time>
      </trkpt>
      <trkpt lat="42.965354276821017" lon="13.280371287837625">
        <ele>1468.3399999999999</ele>
        <time>2019-06-19T14:07:54Z</time>
      </trkpt>
      <trkpt lat="42.965303566306829" lon="13.28038570471108">
        <ele>1466.23</ele>
        <time>2019-06-19T14:08:01Z</time>
      </trkpt>
      <trkpt lat="42.965282695367932" lon="13.280385453253984">
        <ele>1466.0799999999999</ele>
        <time>2019-06-19T14:08:03Z</time>
      </trkpt>
      <trkpt lat="42.965185465291142" lon="13.280445132404566">
        <ele>1465.0799999999999</ele>
        <time>2019-06-19T14:08:12Z</time>
      </trkpt>
      <trkpt lat="42.965089324861765" lon="13.280574297532439">
        <ele>1461.8199999999999</ele>
        <time>2019-06-19T14:08:25Z</time>
      </trkpt>
      <trkpt lat="42.965006679296494" lon="13.280704887583852">
        <ele>1458.74</ele>
        <time>2019-06-19T14:08:37Z</time>
      </trkpt>
      <trkpt lat="42.964969463646412" lon="13.280736319720745">
        <ele>1457.27</ele>
        <time>2019-06-19T14:08:42Z</time>
      </trkpt>
      <trkpt lat="42.964890170842409" lon="13.28081326559186">
        <ele>1453.95</ele>
        <time>2019-06-19T14:08:52Z</time>
      </trkpt>
      <trkpt lat="42.964829234406352" lon="13.280878225341439">
        <ele>1450.9300000000001</ele>
        <time>2019-06-19T14:09:03Z</time>
      </trkpt>
      <trkpt lat="42.964798389002681" lon="13.280915105715394">
        <ele>1449.5599999999999</ele>
        <time>2019-06-19T14:09:07Z</time>
      </trkpt>
      <trkpt lat="42.964781373739243" lon="13.280941927805543">
        <ele>1449.02</ele>
        <time>2019-06-19T14:09:09Z</time>
      </trkpt>
      <trkpt lat="42.964699063450098" lon="13.281038906425238">
        <ele>1445.52</ele>
        <time>2019-06-19T14:09:19Z</time>
      </trkpt>
      <trkpt lat="42.964625973254442" lon="13.281114930287004">
        <ele>1443.0799999999999</ele>
        <time>2019-06-19T14:09:28Z</time>
      </trkpt>
      <trkpt lat="42.964536370709538" lon="13.281242335215211">
        <ele>1439.73</ele>
        <time>2019-06-19T14:09:40Z</time>
      </trkpt>
      <trkpt lat="42.96447241678834" lon="13.281350797042251">
        <ele>1436.4300000000001</ele>
        <time>2019-06-19T14:09:51Z</time>
      </trkpt>
      <trkpt lat="42.964427070692182" lon="13.281455654650927">
        <ele>1433.1900000000001</ele>
        <time>2019-06-19T14:10:02Z</time>
      </trkpt>
      <trkpt lat="42.964360686019063" lon="13.281518183648586">
        <ele>1431</ele>
        <time>2019-06-19T14:10:14Z</time>
      </trkpt>
      <trkpt lat="42.96431508846581" lon="13.281546095386147">
        <ele>1428.8299999999999</ele>
        <time>2019-06-19T14:10:21Z</time>
      </trkpt>
      <trkpt lat="42.96425306238234" lon="13.281638044863939">
        <ele>1425.6900000000001</ele>
        <time>2019-06-19T14:10:35Z</time>
      </trkpt>
      <trkpt lat="42.964249709621072" lon="13.281646259129047">
        <ele>1424.8499999999999</ele>
        <time>2019-06-19T14:10:36Z</time>
      </trkpt>
      <trkpt lat="42.964207297191024" lon="13.281696634367108">
        <ele>1423.53</ele>
        <time>2019-06-19T14:10:41Z</time>
      </trkpt>
      <trkpt lat="42.964187180623412" lon="13.281791852787137">
        <ele>1421.04</ele>
        <time>2019-06-19T14:10:50Z</time>
      </trkpt>
      <trkpt lat="42.96410646289587" lon="13.281913809478283">
        <ele>1417.6300000000001</ele>
        <time>2019-06-19T14:11:04Z</time>
      </trkpt>
      <trkpt lat="42.964050052687526" lon="13.282013135030866">
        <ele>1414.52</ele>
        <time>2019-06-19T14:11:16Z</time>
      </trkpt>
      <trkpt lat="42.964006969705224" lon="13.282111035659909">
        <ele>1411.3699999999999</ele>
        <time>2019-06-19T14:11:28Z</time>
      </trkpt>
      <trkpt lat="42.963994480669498" lon="13.282126123085618">
        <ele>1410.6700000000001</ele>
        <time>2019-06-19T14:11:40Z</time>
      </trkpt>
      <trkpt lat="42.963982494547963" lon="13.282138193026185">
        <ele>1410.6600000000001</ele>
        <time>2019-06-19T14:11:57Z</time>
      </trkpt>
      <trkpt lat="42.963982746005058" lon="13.282173816114664">
        <ele>1409.28</ele>
        <time>2019-06-19T14:12:09Z</time>
      </trkpt>
      <trkpt lat="42.963921977207065" lon="13.282255372032523">
        <ele>1406</ele>
        <time>2019-06-19T14:12:20Z</time>
      </trkpt>
      <trkpt lat="42.963916780427098" lon="13.282329635694623">
        <ele>1403.9400000000001</ele>
        <time>2019-06-19T14:12:27Z</time>
      </trkpt>
      <trkpt lat="42.963874870911241" lon="13.282439857721329">
        <ele>1400.3800000000001</ele>
        <time>2019-06-19T14:12:39Z</time>
      </trkpt>
      <trkpt lat="42.963868333026767" lon="13.282475396990776">
        <ele>1399.29</ele>
        <time>2019-06-19T14:12:42Z</time>
      </trkpt>
      <trkpt lat="42.963858274742961" lon="13.282497273758054">
        <ele>1398.4000000000001</ele>
        <time>2019-06-19T14:12:44Z</time>
      </trkpt>
      <trkpt lat="42.963830530643463" lon="13.282597688958049">
        <ele>1395.1300000000001</ele>
        <time>2019-06-19T14:12:55Z</time>
      </trkpt>
      <trkpt lat="42.963798008859158" lon="13.282686788588762">
        <ele>1392.26</ele>
        <time>2019-06-19T14:13:05Z</time>
      </trkpt>
      <trkpt lat="42.963829189538956" lon="13.282714784145355">
        <ele>1390.75</ele>
        <time>2019-06-19T14:13:11Z</time>
      </trkpt>
      <trkpt lat="42.963825166225433" lon="13.282762980088592">
        <ele>1389.1700000000001</ele>
        <time>2019-06-19T14:13:16Z</time>
      </trkpt>
      <trkpt lat="42.963752495124936" lon="13.282867334783077">
        <ele>1385.73</ele>
        <time>2019-06-19T14:13:27Z</time>
      </trkpt>
      <trkpt lat="42.963723661378026" lon="13.282911172136664">
        <ele>1384.5799999999999</ele>
        <time>2019-06-19T14:13:33Z</time>
      </trkpt>
      <trkpt lat="42.963695246726274" lon="13.28295299783349">
        <ele>1383.3299999999999</ele>
        <time>2019-06-19T14:13:38Z</time>
      </trkpt>
      <trkpt lat="42.963618719950318" lon="13.283091634511948">
        <ele>1380.1900000000001</ele>
        <time>2019-06-19T14:13:52Z</time>
      </trkpt>
      <trkpt lat="42.963574966415763" lon="13.283152068033814">
        <ele>1378.72</ele>
        <time>2019-06-19T14:14:04Z</time>
      </trkpt>
      <trkpt lat="42.963566919788718" lon="13.283155504614115">
        <ele>1378.8499999999999</ele>
        <time>2019-06-19T14:14:16Z</time>
      </trkpt>
      <trkpt lat="42.963565578684211" lon="13.283179895952344">
        <ele>1378.0899999999999</ele>
        <time>2019-06-19T14:14:30Z</time>
      </trkpt>
      <trkpt lat="42.963551916182041" lon="13.283194564282894">
        <ele>1377.6300000000001</ele>
        <time>2019-06-19T14:14:32Z</time>
      </trkpt>
      <trkpt lat="42.963529704138637" lon="13.283220548182726">
        <ele>1377.1700000000001</ele>
        <time>2019-06-19T14:14:35Z</time>
      </trkpt>
      <trkpt lat="42.963477903977036" lon="13.283304953947663">
        <ele>1375.22</ele>
        <time>2019-06-19T14:14:43Z</time>
      </trkpt>
      <trkpt lat="42.963433731347322" lon="13.283379301428795">
        <ele>1373.5799999999999</ele>
        <time>2019-06-19T14:14:50Z</time>
      </trkpt>
      <trkpt lat="42.963411938399076" lon="13.283426994457841">
        <ele>1372.3099999999999</ele>
        <time>2019-06-19T14:14:54Z</time>
      </trkpt>
      <trkpt lat="42.963310768827796" lon="13.283564038574696">
        <ele>1369.0599999999999</ele>
        <time>2019-06-19T14:15:07Z</time>
      </trkpt>
      <trkpt lat="42.96324891038239" lon="13.283684067428112">
        <ele>1365.72</ele>
        <time>2019-06-19T14:15:18Z</time>
      </trkpt>
      <trkpt lat="42.963177999481559" lon="13.283773334696889">
        <ele>1362.5599999999999</ele>
        <time>2019-06-19T14:15:29Z</time>
      </trkpt>
      <trkpt lat="42.963112201541662" lon="13.283870732411742">
        <ele>1359.4000000000001</ele>
        <time>2019-06-19T14:15:41Z</time>
      </trkpt>
      <trkpt lat="42.963029555976391" lon="13.283937619999051">
        <ele>1356.25</ele>
        <time>2019-06-19T14:15:52Z</time>
      </trkpt>
      <trkpt lat="42.962963841855526" lon="13.284007860347629">
        <ele>1353.0599999999999</ele>
        <time>2019-06-19T14:16:04Z</time>
      </trkpt>
      <trkpt lat="42.962927799671888" lon="13.284071478992701">
        <ele>1350.5699999999999</ele>
        <time>2019-06-19T14:16:16Z</time>
      </trkpt>
      <trkpt lat="42.962909694761038" lon="13.284092433750629">
        <ele>1350.1099999999999</ele>
        <time>2019-06-19T14:16:29Z</time>
      </trkpt>
      <trkpt lat="42.962911538779736" lon="13.284133840352297">
        <ele>1348.96</ele>
        <time>2019-06-19T14:16:40Z</time>
      </trkpt>
      <trkpt lat="42.962912460789084" lon="13.284151358529925">
        <ele>1348.1600000000001</ele>
        <time>2019-06-19T14:16:50Z</time>
      </trkpt>
      <trkpt lat="42.962937019765377" lon="13.2841423060745">
        <ele>1348.5999999999999</ele>
        <time>2019-06-19T14:17:00Z</time>
      </trkpt>
      <trkpt lat="42.962947161868215" lon="13.28412864357233">
        <ele>1348.9000000000001</ele>
        <time>2019-06-19T14:17:11Z</time>
      </trkpt>
      <trkpt lat="42.962940121069551" lon="13.284099977463484">
        <ele>1349.3399999999999</ele>
        <time>2019-06-19T14:17:24Z</time>
      </trkpt>
      <trkpt lat="42.962922686710954" lon="13.284185472875834">
        <ele>1347.3599999999999</ele>
        <time>2019-06-19T14:17:36Z</time>
      </trkpt>
      <trkpt lat="42.96297431923449" lon="13.284257054328918">
        <ele>1344.3199999999999</ele>
        <time>2019-06-19T14:17:46Z</time>
      </trkpt>
      <trkpt lat="42.963003823533654" lon="13.28428010456264">
        <ele>1343.48</ele>
        <time>2019-06-19T14:17:50Z</time>
      </trkpt>
      <trkpt lat="42.963112452998757" lon="13.284320002421737">
        <ele>1340.1600000000001</ele>
        <time>2019-06-19T14:18:01Z</time>
      </trkpt>
      <trkpt lat="42.963201971724629" lon="13.284351518377662">
        <ele>1336.95</ele>
        <time>2019-06-19T14:18:11Z</time>
      </trkpt>
      <trkpt lat="42.963272128254175" lon="13.28438663855195">
        <ele>1333.8699999999999</ele>
        <time>2019-06-19T14:18:20Z</time>
      </trkpt>
      <trkpt lat="42.963353013619781" lon="13.284427709877491">
        <ele>1330.8499999999999</ele>
        <time>2019-06-19T14:18:30Z</time>
      </trkpt>
      <trkpt lat="42.963435826823115" lon="13.284444976598024">
        <ele>1327.72</ele>
        <time>2019-06-19T14:18:40Z</time>
      </trkpt>
      <trkpt lat="42.963527189567685" lon="13.284459142014384">
        <ele>1324.6099999999999</ele>
        <time>2019-06-19T14:18:51Z</time>
      </trkpt>
      <trkpt lat="42.963613104075193" lon="13.284493423998356">
        <ele>1321.46</ele>
        <time>2019-06-19T14:19:01Z</time>
      </trkpt>
      <trkpt lat="42.963707400485873" lon="13.284556707367301">
        <ele>1318.1700000000001</ele>
        <time>2019-06-19T14:19:13Z</time>
      </trkpt>
      <trkpt lat="42.963797086849809" lon="13.284562826156616">
        <ele>1315.1700000000001</ele>
        <time>2019-06-19T14:19:24Z</time>
      </trkpt>
      <trkpt lat="42.963888617232442" lon="13.284589061513543">
        <ele>1312.0999999999999</ele>
        <time>2019-06-19T14:19:37Z</time>
      </trkpt>
      <trkpt lat="42.9639892000705" lon="13.284618817269802">
        <ele>1308.8499999999999</ele>
        <time>2019-06-19T14:19:49Z</time>
      </trkpt>
      <trkpt lat="42.96408399939537" lon="13.28462116420269">
        <ele>1305.8499999999999</ele>
        <time>2019-06-19T14:20:00Z</time>
      </trkpt>
      <trkpt lat="42.964168824255466" lon="13.28466416336596">
        <ele>1302.6300000000001</ele>
        <time>2019-06-19T14:20:11Z</time>
      </trkpt>
      <trkpt lat="42.964254068210721" lon="13.284655194729567">
        <ele>1299.8099999999999</ele>
        <time>2019-06-19T14:20:22Z</time>
      </trkpt>
      <trkpt lat="42.964261611923575" lon="13.284659134224057">
        <ele>1299.78</ele>
        <time>2019-06-19T14:20:23Z</time>
      </trkpt>
      <trkpt lat="42.964293379336596" lon="13.284672126173973">
        <ele>1298.5599999999999</ele>
        <time>2019-06-19T14:20:26Z</time>
      </trkpt>
      <trkpt lat="42.964316429570317" lon="13.284677993506193">
        <ele>1297.96</ele>
        <time>2019-06-19T14:20:28Z</time>
      </trkpt>
      <trkpt lat="42.964436961337924" lon="13.284685872495174">
        <ele>1294.45</ele>
        <time>2019-06-19T14:20:41Z</time>
      </trkpt>
      <trkpt lat="42.964522456750274" lon="13.284715292975307">
        <ele>1291.4000000000001</ele>
        <time>2019-06-19T14:20:53Z</time>
      </trkpt>
      <trkpt lat="42.964516170322895" lon="13.284784024581313">
        <ele>1288.8199999999999</ele>
        <time>2019-06-19T14:21:03Z</time>
      </trkpt>
      <trkpt lat="42.964517595246434" lon="13.284793077036738">
        <ele>1288.5599999999999</ele>
        <time>2019-06-19T14:21:04Z</time>
      </trkpt>
      <trkpt lat="42.964518098160625" lon="13.28490405343473">
        <ele>1284.74</ele>
        <time>2019-06-19T14:21:15Z</time>
      </trkpt>
      <trkpt lat="42.964500496163964" lon="13.285003378987312">
        <ele>1282.05</ele>
        <time>2019-06-19T14:21:24Z</time>
      </trkpt>
      <trkpt lat="42.964500328525901" lon="13.285097340121865">
        <ele>1279.96</ele>
        <time>2019-06-19T14:21:30Z</time>
      </trkpt>
      <trkpt lat="42.964481050148606" lon="13.28513078391552">
        <ele>1278.8900000000001</ele>
        <time>2019-06-19T14:21:33Z</time>
      </trkpt>
      <trkpt lat="42.964419107884169" lon="13.285260368138552">
        <ele>1275.78</ele>
        <time>2019-06-19T14:21:43Z</time>
      </trkpt>
      <trkpt lat="42.964408043771982" lon="13.285438064485788">
        <ele>1272.48</ele>
        <time>2019-06-19T14:21:56Z</time>
      </trkpt>
      <trkpt lat="42.964423634111881" lon="13.285501096397638">
        <ele>1270.75</ele>
        <time>2019-06-19T14:22:03Z</time>
      </trkpt>
      <trkpt lat="42.964460346847773" lon="13.285585669800639">
        <ele>1268.8299999999999</ele>
        <time>2019-06-19T14:22:12Z</time>
      </trkpt>
      <trkpt lat="42.964475937187672" lon="13.285598997026682">
        <ele>1268.3800000000001</ele>
        <time>2019-06-19T14:22:14Z</time>
      </trkpt>
      <trkpt lat="42.964513152837753" lon="13.285601511597633">
        <ele>1267.22</ele>
        <time>2019-06-19T14:22:18Z</time>
      </trkpt>
      <trkpt lat="42.964574759826064" lon="13.28562774695456">
        <ele>1265.0899999999999</ele>
        <time>2019-06-19T14:22:25Z</time>
      </trkpt>
      <trkpt lat="42.964677773416042" lon="13.285643672570586">
        <ele>1262.0599999999999</ele>
        <time>2019-06-19T14:22:35Z</time>
      </trkpt>
      <trkpt lat="42.964819008484483" lon="13.285654904320836">
        <ele>1259</ele>
        <time>2019-06-19T14:22:48Z</time>
      </trkpt>
      <trkpt lat="42.964851865544915" lon="13.285641074180603">
        <ele>1258.4400000000001</ele>
        <time>2019-06-19T14:22:53Z</time>
      </trkpt>
      <trkpt lat="42.964879106730223" lon="13.285648198798299">
        <ele>1258.0999999999999</ele>
        <time>2019-06-19T14:22:56Z</time>
      </trkpt>
      <trkpt lat="42.964976755902171" lon="13.285648534074426">
        <ele>1256.01</ele>
        <time>2019-06-19T14:23:07Z</time>
      </trkpt>
      <trkpt lat="42.965060407295823" lon="13.285684324800968">
        <ele>1252.9300000000001</ele>
        <time>2019-06-19T14:23:15Z</time>
      </trkpt>
      <trkpt lat="42.965189572423697" lon="13.285679211840034">
        <ele>1249.6600000000001</ele>
        <time>2019-06-19T14:23:24Z</time>
      </trkpt>
      <trkpt lat="42.965271212160587" lon="13.285690443590283">
        <ele>1247.8299999999999</ele>
        <time>2019-06-19T14:23:35Z</time>
      </trkpt>
      <trkpt lat="42.965277750045061" lon="13.285695556551218">
        <ele>1247.4200000000001</ele>
        <time>2019-06-19T14:23:36Z</time>
      </trkpt>
      <trkpt lat="42.965311193838716" lon="13.285780716687441">
        <ele>1244.0599999999999</ele>
        <time>2019-06-19T14:23:46Z</time>
      </trkpt>
      <trkpt lat="42.965335417538881" lon="13.285884149372578">
        <ele>1240.76</ele>
        <time>2019-06-19T14:23:55Z</time>
      </trkpt>
      <trkpt lat="42.96534757129848" lon="13.285936452448368">
        <ele>1238.9100000000001</ele>
        <time>2019-06-19T14:24:00Z</time>
      </trkpt>
      <trkpt lat="42.965351929888129" lon="13.285993952304125">
        <ele>1237.5799999999999</ele>
        <time>2019-06-19T14:24:05Z</time>
      </trkpt>
      <trkpt lat="42.965368945151567" lon="13.286087326705456">
        <ele>1234.9000000000001</ele>
        <time>2019-06-19T14:24:12Z</time>
      </trkpt>
      <trkpt lat="42.965395012870431" lon="13.286213474348187">
        <ele>1231.8699999999999</ele>
        <time>2019-06-19T14:24:24Z</time>
      </trkpt>
      <trkpt lat="42.965436670929193" lon="13.286322522908449">
        <ele>1229.8099999999999</ele>
        <time>2019-06-19T14:24:33Z</time>
      </trkpt>
      <trkpt lat="42.965481095016003" lon="13.286373987793922">
        <ele>1227.79</ele>
        <time>2019-06-19T14:24:39Z</time>
      </trkpt>
      <trkpt lat="42.965504145249724" lon="13.286485550925136">
        <ele>1225.0699999999999</ele>
        <time>2019-06-19T14:24:49Z</time>
      </trkpt>
      <trkpt lat="42.965520825237036" lon="13.28653265722096">
        <ele>1223.25</ele>
        <time>2019-06-19T14:24:53Z</time>
      </trkpt>
      <trkpt lat="42.965569440275431" lon="13.286652518436313">
        <ele>1220.1300000000001</ele>
        <time>2019-06-19T14:25:04Z</time>
      </trkpt>
      <trkpt lat="42.965575223788619" lon="13.286662744358182">
        <ele>1219.8900000000001</ele>
        <time>2019-06-19T14:25:05Z</time>
      </trkpt>
      <trkpt lat="42.965642446652055" lon="13.286791574209929">
        <ele>1216.48</ele>
        <time>2019-06-19T14:25:18Z</time>
      </trkpt>
      <trkpt lat="42.96569986268878" lon="13.28690649010241">
        <ele>1213.23</ele>
        <time>2019-06-19T14:25:30Z</time>
      </trkpt>
      <trkpt lat="42.965765912085772" lon="13.287026602774858">
        <ele>1210</ele>
        <time>2019-06-19T14:25:43Z</time>
      </trkpt>
      <trkpt lat="42.965837242081761" lon="13.287154259160161">
        <ele>1206.8199999999999</ele>
        <time>2019-06-19T14:25:57Z</time>
      </trkpt>
      <trkpt lat="42.965892730280757" lon="13.287248807027936">
        <ele>1203.77</ele>
        <time>2019-06-19T14:26:07Z</time>
      </trkpt>
      <trkpt lat="42.965976884588599" lon="13.287343606352806">
        <ele>1200.75</ele>
        <time>2019-06-19T14:26:19Z</time>
      </trkpt>
      <trkpt lat="42.966047041118145" lon="13.287410074844956">
        <ele>1198.8699999999999</ele>
        <time>2019-06-19T14:26:29Z</time>
      </trkpt>
      <trkpt lat="42.966103283688426" lon="13.287413008511066">
        <ele>1197.72</ele>
        <time>2019-06-19T14:26:35Z</time>
      </trkpt>
      <trkpt lat="42.96617528423667" lon="13.287476375699043">
        <ele>1195.3900000000001</ele>
        <time>2019-06-19T14:26:44Z</time>
      </trkpt>
      <trkpt lat="42.966182492673397" lon="13.287494480609894">
        <ele>1194.25</ele>
        <time>2019-06-19T14:26:56Z</time>
      </trkpt>
      <trkpt lat="42.966196993365884" lon="13.287506634369493">
        <ele>1193.98</ele>
        <time>2019-06-19T14:27:32Z</time>
      </trkpt>
      <trkpt lat="42.966212667524815" lon="13.287511244416237">
        <ele>1193.73</ele>
        <time>2019-06-19T14:28:06Z</time>
      </trkpt>
      <trkpt lat="42.966224821284413" lon="13.287515267729759">
        <ele>1193.72</ele>
        <time>2019-06-19T14:28:30Z</time>
      </trkpt>
      <trkpt lat="42.966235214844346" lon="13.287492636591196">
        <ele>1193.95</ele>
        <time>2019-06-19T14:28:32Z</time>
      </trkpt>
      <trkpt lat="42.966259941458702" lon="13.287410326302052">
        <ele>1193.73</ele>
        <time>2019-06-19T14:28:40Z</time>
      </trkpt>
      <trkpt lat="42.966240914538503" lon="13.287405548617244">
        <ele>1193.8299999999999</ele>
        <time>2019-06-19T14:28:51Z</time>
      </trkpt>
      <trkpt lat="42.966231945902109" lon="13.287414684891701">
        <ele>1193.3099999999999</ele>
        <time>2019-06-19T14:29:21Z</time>
      </trkpt>
      <trkpt lat="42.966215265914798" lon="13.287420216947794">
        <ele>1192.77</ele>
        <time>2019-06-19T14:29:49Z</time>
      </trkpt>
      <trkpt lat="42.966214511543512" lon="13.28741267323494">
        <ele>1192.72</ele>
        <time>2019-06-19T14:30:15Z</time>
      </trkpt>
      <trkpt lat="42.966221552342176" lon="13.287387946620584">
        <ele>1192.47</ele>
        <time>2019-06-19T14:30:36Z</time>
      </trkpt>
    </trkseg>
  </trk>

  <trk>
    <name>preci-abbazia-s-eutizio2019-06-16</name>
    <extensions>
      <gpxx:TrackExtension>
        <gpxx:DisplayColor>Yellow</gpxx:DisplayColor>
      </gpxx:TrackExtension>
      <gpxtrkx:TrackStatsExtension xmlns:gpxtrkx="http://www.garmin.com/xmlschemas/TrackStatsExtension/v1">
        <gpxtrkx:Distance>17760</gpxtrkx:Distance>
        <gpxtrkx:TotalElapsedTime>28888</gpxtrkx:TotalElapsedTime>
        <gpxtrkx:MovingTime>19693</gpxtrkx:MovingTime>
        <gpxtrkx:StoppedTime>9083</gpxtrkx:StoppedTime>
        <gpxtrkx:MovingSpeed>1</gpxtrkx:MovingSpeed>
        <gpxtrkx:MaxSpeed>2</gpxtrkx:MaxSpeed>
        <gpxtrkx:MaxElevation>1431</gpxtrkx:MaxElevation>
        <gpxtrkx:MinElevation>537</gpxtrkx:MinElevation>
        <gpxtrkx:Ascent>955</gpxtrkx:Ascent>
        <gpxtrkx:Descent>933</gpxtrkx:Descent>
        <gpxtrkx:AvgAscentRate>0</gpxtrkx:AvgAscentRate>
        <gpxtrkx:MaxAscentRate>0</gpxtrkx:MaxAscentRate>
        <gpxtrkx:AvgDescentRate>0</gpxtrkx:AvgDescentRate>
        <gpxtrkx:MaxDescentRate>-0</gpxtrkx:MaxDescentRate>
      </gpxtrkx:TrackStatsExtension>
    </extensions>
    <trkseg>
      <trkpt lat="42.880477616563439" lon="13.040224900469184">
        <ele>538.21000000000004</ele>
        <time>2019-06-16T06:55:39Z</time>
      </trkpt>
      <trkpt lat="42.880478203296661" lon="13.040224649012089">
        <ele>538.21000000000004</ele>
        <time>2019-06-16T06:55:40Z</time>
      </trkpt>
      <trkpt lat="42.880488848313689" lon="13.040261697024107">
        <ele>539.30999999999995</ele>
        <time>2019-06-16T06:55:58Z</time>
      </trkpt>
      <trkpt lat="42.880472503602505" lon="13.040269492194057">
        <ele>538.41999999999996</ele>
        <time>2019-06-16T06:56:18Z</time>
      </trkpt>
      <trkpt lat="42.880473844707012" lon="13.040314503014088">
        <ele>538.10000000000002</ele>
        <time>2019-06-16T06:56:26Z</time>
      </trkpt>
      <trkpt lat="42.880472419783473" lon="13.040355490520597">
        <ele>538.24000000000001</ele>
        <time>2019-06-16T06:56:29Z</time>
      </trkpt>
      <trkpt lat="42.880505947396159" lon="13.040569396689534">
        <ele>538.44000000000005</ele>
        <time>2019-06-16T06:56:46Z</time>
      </trkpt>
      <trkpt lat="42.880492033436894" lon="13.040593201294541">
        <ele>538.58000000000004</ele>
        <time>2019-06-16T06:56:56Z</time>
      </trkpt>
      <trkpt lat="42.880445346236229" lon="13.040601164102554">
        <ele>538.72000000000003</ele>
        <time>2019-06-16T06:57:13Z</time>
      </trkpt>
      <trkpt lat="42.880430091172457" lon="13.040596302598715">
        <ele>538.66999999999996</ele>
        <time>2019-06-16T06:57:30Z</time>
      </trkpt>
      <trkpt lat="42.88041609339416" lon="13.040598817169666">
        <ele>538.79999999999995</ele>
        <time>2019-06-16T06:57:59Z</time>
      </trkpt>
      <trkpt lat="42.880409136414528" lon="13.040578197687864">
        <ele>538.70000000000005</ele>
        <time>2019-06-16T06:58:22Z</time>
      </trkpt>
      <trkpt lat="42.880419194698334" lon="13.040578784421086">
        <ele>538.79999999999995</ele>
        <time>2019-06-16T06:58:33Z</time>
      </trkpt>
      <trkpt lat="42.880441071465611" lon="13.0405711568892">
        <ele>538.83000000000004</ele>
        <time>2019-06-16T06:58:35Z</time>
      </trkpt>
      <trkpt lat="42.880487591028214" lon="13.040565624833107">
        <ele>539.40999999999997</ele>
        <time>2019-06-16T06:58:39Z</time>
      </trkpt>
      <trkpt lat="42.880600579082966" lon="13.040534695610404">
        <ele>541.38</ele>
        <time>2019-06-16T06:58:49Z</time>
      </trkpt>
      <trkpt lat="42.880701581016183" lon="13.040515752509236">
        <ele>543.22000000000003</ele>
        <time>2019-06-16T06:58:59Z</time>
      </trkpt>
      <trkpt lat="42.880798559635878" lon="13.040513657033443">
        <ele>544.5</ele>
        <time>2019-06-16T06:59:09Z</time>
      </trkpt>
      <trkpt lat="42.880852539092302" lon="13.040494965389371">
        <ele>545.58000000000004</ele>
        <time>2019-06-16T06:59:16Z</time>
      </trkpt>
      <trkpt lat="42.880875170230865" lon="13.040493037551641">
        <ele>545.90999999999997</ele>
        <time>2019-06-16T06:59:18Z</time>
      </trkpt>
      <trkpt lat="42.880984470248222" lon="13.040489517152309">
        <ele>547.85000000000002</ele>
        <time>2019-06-16T06:59:29Z</time>
      </trkpt>
      <trkpt lat="42.881021350622177" lon="13.040495384484529">
        <ele>548.48000000000002</ele>
        <time>2019-06-16T06:59:33Z</time>
      </trkpt>
      <trkpt lat="42.881104918196797" lon="13.040494462475181">
        <ele>550.12</ele>
        <time>2019-06-16T06:59:43Z</time>
      </trkpt>
      <trkpt lat="42.881192844361067" lon="13.040494378656149">
        <ele>552.33000000000004</ele>
        <time>2019-06-16T06:59:55Z</time>
      </trkpt>
      <trkpt lat="42.881275322288275" lon="13.040502592921257">
        <ele>553.71000000000004</ele>
        <time>2019-06-16T07:00:06Z</time>
      </trkpt>
      <trkpt lat="42.881377665325999" lon="13.040474597364664">
        <ele>555.36000000000001</ele>
        <time>2019-06-16T07:00:17Z</time>
      </trkpt>
      <trkpt lat="42.88147933781147" lon="13.040466969832778">
        <ele>557.08000000000004</ele>
        <time>2019-06-16T07:00:29Z</time>
      </trkpt>
      <trkpt lat="42.881589056923985" lon="13.040472082793713">
        <ele>559.08000000000004</ele>
        <time>2019-06-16T07:00:44Z</time>
      </trkpt>
      <trkpt lat="42.881678575649858" lon="13.040470322594047">
        <ele>560.60000000000002</ele>
        <time>2019-06-16T07:00:57Z</time>
      </trkpt>
      <trkpt lat="42.8817178029567" lon="13.040464371442795">
        <ele>560.86000000000001</ele>
        <time>2019-06-16T07:01:10Z</time>
      </trkpt>
      <trkpt lat="42.88175443187356" lon="13.040410475805402">
        <ele>560.91999999999996</ele>
        <time>2019-06-16T07:01:19Z</time>
      </trkpt>
      <trkpt lat="42.881768848747015" lon="13.040394466370344">
        <ele>561.02999999999997</ele>
        <time>2019-06-16T07:01:21Z</time>
      </trkpt>
      <trkpt lat="42.881896588951349" lon="13.040233785286546">
        <ele>561.90999999999997</ele>
        <time>2019-06-16T07:01:38Z</time>
      </trkpt>
      <trkpt lat="42.882005972787738" lon="13.040089951828122">
        <ele>562.65999999999997</ele>
        <time>2019-06-16T07:01:53Z</time>
      </trkpt>
      <trkpt lat="42.882101023569703" lon="13.039975287392735">
        <ele>563.21000000000004</ele>
        <time>2019-06-16T07:02:07Z</time>
      </trkpt>
      <trkpt lat="42.882136395201087" lon="13.039850564673543">
        <ele>564.25999999999999</ele>
        <time>2019-06-16T07:02:21Z</time>
      </trkpt>
      <trkpt lat="42.882128683850169" lon="13.039815276861191">
        <ele>564.45000000000005</ele>
        <time>2019-06-16T07:02:35Z</time>
      </trkpt>
      <trkpt lat="42.882151985540986" lon="13.039670521393418">
        <ele>566.33000000000004</ele>
        <time>2019-06-16T07:02:50Z</time>
      </trkpt>
      <trkpt lat="42.882174113765359" lon="13.039533393457532">
        <ele>568.00999999999999</ele>
        <time>2019-06-16T07:03:03Z</time>
      </trkpt>
      <trkpt lat="42.882209150120616" lon="13.039511516690254">
        <ele>568.64999999999998</ele>
        <time>2019-06-16T07:03:08Z</time>
      </trkpt>
      <trkpt lat="42.882292047142982" lon="13.039457285776734">
        <ele>571.52999999999997</ele>
        <time>2019-06-16T07:03:21Z</time>
      </trkpt>
      <trkpt lat="42.882356839254498" lon="13.039396181702614">
        <ele>573.39999999999998</ele>
        <time>2019-06-16T07:03:35Z</time>
      </trkpt>
      <trkpt lat="42.882404532283545" lon="13.03936961106956">
        <ele>575.50999999999999</ele>
        <time>2019-06-16T07:03:48Z</time>
      </trkpt>
      <trkpt lat="42.882505198940635" lon="13.039303226396441">
        <ele>578.07000000000005</ele>
        <time>2019-06-16T07:04:04Z</time>
      </trkpt>
      <trkpt lat="42.882583569735289" lon="13.039231477305293">
        <ele>579.50999999999999</ele>
        <time>2019-06-16T07:04:15Z</time>
      </trkpt>
      <trkpt lat="42.88263545371592" lon="13.039194261655211">
        <ele>580.09000000000003</ele>
        <time>2019-06-16T07:04:21Z</time>
      </trkpt>
      <trkpt lat="42.882733102887869" lon="13.039153693243861">
        <ele>581.80999999999995</ele>
        <time>2019-06-16T07:04:33Z</time>
      </trkpt>
      <trkpt lat="42.882787920534611" lon="13.03913508541882">
        <ele>582.52999999999997</ele>
        <time>2019-06-16T07:04:39Z</time>
      </trkpt>
      <trkpt lat="42.882886240258813" lon="13.039132487028837">
        <ele>584.24000000000001</ele>
        <time>2019-06-16T07:04:51Z</time>
      </trkpt>
      <trkpt lat="42.882995037361979" lon="13.039156207814813">
        <ele>586.48000000000002</ele>
        <time>2019-06-16T07:05:05Z</time>
      </trkpt>
      <trkpt lat="42.883083885535598" lon="13.039173055440187">
        <ele>588.49000000000001</ele>
        <time>2019-06-16T07:05:19Z</time>
      </trkpt>
      <trkpt lat="42.883154712617397" lon="13.039205577224493">
        <ele>589.82000000000005</ele>
        <time>2019-06-16T07:05:28Z</time>
      </trkpt>
      <trkpt lat="42.883198633790016" lon="13.039215384051204">
        <ele>590.46000000000004</ele>
        <time>2019-06-16T07:05:33Z</time>
      </trkpt>
      <trkpt lat="42.883287062868476" lon="13.039247570559382">
        <ele>591.78999999999996</ele>
        <time>2019-06-16T07:05:45Z</time>
      </trkpt>
      <trkpt lat="42.883394686505198" lon="13.039297359064221">
        <ele>593.51999999999998</ele>
        <time>2019-06-16T07:05:57Z</time>
      </trkpt>
      <trkpt lat="42.883503064513206" lon="13.039339520037174">
        <ele>594.71000000000004</ele>
        <time>2019-06-16T07:06:09Z</time>
      </trkpt>
      <trkpt lat="42.883611107245088" lon="13.039362570270896">
        <ele>596.72000000000003</ele>
        <time>2019-06-16T07:06:23Z</time>
      </trkpt>
      <trkpt lat="42.883621081709862" lon="13.039364749565721">
        <ele>596.80999999999995</ele>
        <time>2019-06-16T07:06:24Z</time>
      </trkpt>
      <trkpt lat="42.883689310401678" lon="13.039367767050862">
        <ele>597.24000000000001</ele>
        <time>2019-06-16T07:06:30Z</time>
      </trkpt>
      <trkpt lat="42.883813781663775" lon="13.039365001022816">
        <ele>598.99000000000001</ele>
        <time>2019-06-16T07:06:43Z</time>
      </trkpt>
      <trkpt lat="42.883906066417694" lon="13.039340861141682">
        <ele>600.41999999999996</ele>
        <time>2019-06-16T07:06:54Z</time>
      </trkpt>
      <trkpt lat="42.884011510759592" lon="13.039330216124654">
        <ele>601.54999999999995</ele>
        <time>2019-06-16T07:07:06Z</time>
      </trkpt>
      <trkpt lat="42.884058030322194" lon="13.039314206689596">
        <ele>601.87</ele>
        <time>2019-06-16T07:07:21Z</time>
      </trkpt>
      <trkpt lat="42.884164480492473" lon="13.039300376549363">
        <ele>602</ele>
        <time>2019-06-16T07:07:34Z</time>
      </trkpt>
      <trkpt lat="42.884289789944887" lon="13.039261065423489">
        <ele>601.05999999999995</ele>
        <time>2019-06-16T07:07:48Z</time>
      </trkpt>
      <trkpt lat="42.884311582893133" lon="13.039248660206795">
        <ele>600.74000000000001</ele>
        <time>2019-06-16T07:07:50Z</time>
      </trkpt>
      <trkpt lat="42.884345781058073" lon="13.039223849773407">
        <ele>600.09000000000003</ele>
        <time>2019-06-16T07:07:56Z</time>
      </trkpt>
      <trkpt lat="42.884386433288455" lon="13.039187304675579">
        <ele>599.59000000000003</ele>
        <time>2019-06-16T07:08:00Z</time>
      </trkpt>
      <trkpt lat="42.88448341190815" lon="13.039111867547035">
        <ele>598.67999999999995</ele>
        <time>2019-06-16T07:08:10Z</time>
      </trkpt>
      <trkpt lat="42.884581228718162" lon="13.039111532270908">
        <ele>599.38</ele>
        <time>2019-06-16T07:08:22Z</time>
      </trkpt>
      <trkpt lat="42.884673681110144" lon="13.039107592776418">
        <ele>599.66999999999996</ele>
        <time>2019-06-16T07:08:31Z</time>
      </trkpt>
      <trkpt lat="42.884811060503125" lon="13.039082195609808">
        <ele>602</ele>
        <time>2019-06-16T07:08:45Z</time>
      </trkpt>
      <trkpt lat="42.884919941425323" lon="13.039061576128006">
        <ele>602.20000000000005</ele>
        <time>2019-06-16T07:08:57Z</time>
      </trkpt>
      <trkpt lat="42.885050782933831" lon="13.039050344377756">
        <ele>602.10000000000002</ele>
        <time>2019-06-16T07:09:09Z</time>
      </trkpt>
      <trkpt lat="42.885194784030318" lon="13.039074568077922">
        <ele>601.91999999999996</ele>
        <time>2019-06-16T07:09:21Z</time>
      </trkpt>
      <trkpt lat="42.885314812883735" lon="13.039131984114647">
        <ele>601.29999999999995</ele>
        <time>2019-06-16T07:09:32Z</time>
      </trkpt>
      <trkpt lat="42.885399470105767" lon="13.039189148694277">
        <ele>601.19000000000005</ele>
        <time>2019-06-16T07:09:42Z</time>
      </trkpt>
      <trkpt lat="42.885414054617286" lon="13.039203146472573">
        <ele>601.09000000000003</ele>
        <time>2019-06-16T07:09:44Z</time>
      </trkpt>
      <trkpt lat="42.885497119277716" lon="13.039276236668229">
        <ele>600.80999999999995</ele>
        <time>2019-06-16T07:09:54Z</time>
      </trkpt>
      <trkpt lat="42.885564425960183" lon="13.039375562220812">
        <ele>600.17999999999995</ele>
        <time>2019-06-16T07:10:04Z</time>
      </trkpt>
      <trkpt lat="42.885646065697074" lon="13.039477150887251">
        <ele>600.09000000000003</ele>
        <time>2019-06-16T07:10:15Z</time>
      </trkpt>
      <trkpt lat="42.88571622222662" lon="13.0395816732198">
        <ele>600.72000000000003</ele>
        <time>2019-06-16T07:10:25Z</time>
      </trkpt>
      <trkpt lat="42.885745139792562" lon="13.039614027366042">
        <ele>600.87</ele>
        <time>2019-06-16T07:10:28Z</time>
      </trkpt>
      <trkpt lat="42.885801550000906" lon="13.03968133404851">
        <ele>601.36000000000001</ele>
        <time>2019-06-16T07:10:36Z</time>
      </trkpt>
      <trkpt lat="42.88583348505199" lon="13.039760123938322">
        <ele>602.17999999999995</ele>
        <time>2019-06-16T07:10:43Z</time>
      </trkpt>
      <trkpt lat="42.885901210829616" lon="13.039845954626799">
        <ele>602.76999999999998</ele>
        <time>2019-06-16T07:10:52Z</time>
      </trkpt>
      <trkpt lat="42.885962566360831" lon="13.0398890376091">
        <ele>603.25</ele>
        <time>2019-06-16T07:10:59Z</time>
      </trkpt>
      <trkpt lat="42.886022580787539" lon="13.039914350956678">
        <ele>604.15999999999997</ele>
        <time>2019-06-16T07:11:05Z</time>
      </trkpt>
      <trkpt lat="42.886152248829603" lon="13.039958020672202">
        <ele>605.22000000000003</ele>
        <time>2019-06-16T07:11:19Z</time>
      </trkpt>
      <trkpt lat="42.886269092559814" lon="13.039978388696909">
        <ele>606.51999999999998</ele>
        <time>2019-06-16T07:11:32Z</time>
      </trkpt>
      <trkpt lat="42.886352827772498" lon="13.039986686781049">
        <ele>607.97000000000003</ele>
        <time>2019-06-16T07:11:43Z</time>
      </trkpt>
      <trkpt lat="42.886463217437267" lon="13.039928432554007">
        <ele>610.14999999999998</ele>
        <time>2019-06-16T07:11:59Z</time>
      </trkpt>
      <trkpt lat="42.886582911014557" lon="13.039833968505263">
        <ele>611.78999999999996</ele>
        <time>2019-06-16T07:12:12Z</time>
      </trkpt>
      <trkpt lat="42.886640159413218" lon="13.03976247087121">
        <ele>612.99000000000001</ele>
        <time>2019-06-16T07:12:20Z</time>
      </trkpt>
      <trkpt lat="42.886705119162798" lon="13.039634982123971">
        <ele>614.30999999999995</ele>
        <time>2019-06-16T07:12:32Z</time>
      </trkpt>
      <trkpt lat="42.886755410581827" lon="13.039464326575398">
        <ele>615.40999999999997</ele>
        <time>2019-06-16T07:12:46Z</time>
      </trkpt>
      <trkpt lat="42.886792458593845" lon="13.039362905547023">
        <ele>615.84000000000003</ele>
        <time>2019-06-16T07:12:56Z</time>
      </trkpt>
      <trkpt lat="42.886934196576476" lon="13.039264502003789">
        <ele>616.92999999999995</ele>
        <time>2019-06-16T07:13:11Z</time>
      </trkpt>
      <trkpt lat="42.886978033930063" lon="13.03922837600112">
        <ele>617.25</ele>
        <time>2019-06-16T07:13:17Z</time>
      </trkpt>
      <trkpt lat="42.887075012549758" lon="13.039111783728004">
        <ele>618.20000000000005</ele>
        <time>2019-06-16T07:13:29Z</time>
      </trkpt>
      <trkpt lat="42.887103343382478" lon="13.039083033800125">
        <ele>618.52999999999997</ele>
        <time>2019-06-16T07:13:32Z</time>
      </trkpt>
      <trkpt lat="42.887124130502343" lon="13.039061659947038">
        <ele>618.5</ele>
        <time>2019-06-16T07:13:34Z</time>
      </trkpt>
      <trkpt lat="42.887211134657264" lon="13.038958646357059">
        <ele>619.11000000000001</ele>
        <time>2019-06-16T07:13:46Z</time>
      </trkpt>
      <trkpt lat="42.887274837121367" lon="13.038863930851221">
        <ele>619.26999999999998</ele>
        <time>2019-06-16T07:13:55Z</time>
      </trkpt>
      <trkpt lat="42.887303587049246" lon="13.038836941123009">
        <ele>619.29999999999995</ele>
        <time>2019-06-16T07:13:58Z</time>
      </trkpt>
      <trkpt lat="42.88739419542253" lon="13.038752535358071">
        <ele>619.86000000000001</ele>
        <time>2019-06-16T07:14:08Z</time>
      </trkpt>
      <trkpt lat="42.887531239539385" lon="13.038643738254905">
        <ele>620.44000000000005</ele>
        <time>2019-06-16T07:14:22Z</time>
      </trkpt>
      <trkpt lat="42.887658812105656" lon="13.038598475977778">
        <ele>620.79999999999995</ele>
        <time>2019-06-16T07:14:33Z</time>
      </trkpt>
      <trkpt lat="42.887794179841876" lon="13.038582634180784">
        <ele>620.5</ele>
        <time>2019-06-16T07:14:44Z</time>
      </trkpt>
      <trkpt lat="42.887884704396129" lon="13.038574419915676">
        <ele>620.73000000000002</ele>
        <time>2019-06-16T07:14:51Z</time>
      </trkpt>
      <trkpt lat="42.887916723266244" lon="13.038568720221519">
        <ele>620.54999999999995</ele>
        <time>2019-06-16T07:14:54Z</time>
      </trkpt>
      <trkpt lat="42.888022754341364" lon="13.038570312783122">
        <ele>620.28999999999996</ele>
        <time>2019-06-16T07:15:03Z</time>
      </trkpt>
      <trkpt lat="42.888046558946371" lon="13.038575258105993">
        <ele>620.04999999999995</ele>
        <time>2019-06-16T07:15:05Z</time>
      </trkpt>
      <trkpt lat="42.888148063793778" lon="13.038599397987127">
        <ele>620.07000000000005</ele>
        <time>2019-06-16T07:15:14Z</time>
      </trkpt>
      <trkpt lat="42.888214867562056" lon="13.038611635565758">
        <ele>619.95000000000005</ele>
        <time>2019-06-16T07:15:20Z</time>
      </trkpt>
      <trkpt lat="42.888256274163723" lon="13.038620688021183">
        <ele>620.15999999999997</ele>
        <time>2019-06-16T07:15:23Z</time>
      </trkpt>
      <trkpt lat="42.888412177562714" lon="13.038673829287291">
        <ele>621.38999999999999</ele>
        <time>2019-06-16T07:15:37Z</time>
      </trkpt>
      <trkpt lat="42.888527344912291" lon="13.038716157898307">
        <ele>623.09000000000003</ele>
        <time>2019-06-16T07:15:49Z</time>
      </trkpt>
      <trkpt lat="42.888584425672889" lon="13.038727305829525">
        <ele>623.57000000000005</ele>
        <time>2019-06-16T07:15:55Z</time>
      </trkpt>
      <trkpt lat="42.888659527525306" lon="13.038742393255234">
        <ele>623.88</ele>
        <time>2019-06-16T07:16:02Z</time>
      </trkpt>
      <trkpt lat="42.888800846412778" lon="13.038813639432192">
        <ele>624.36000000000001</ele>
        <time>2019-06-16T07:16:16Z</time>
      </trkpt>
      <trkpt lat="42.888924228027463" lon="13.038904163986444">
        <ele>624.62</ele>
        <time>2019-06-16T07:16:28Z</time>
      </trkpt>
      <trkpt lat="42.889046017080545" lon="13.038981612771749">
        <ele>624.60000000000002</ele>
        <time>2019-06-16T07:16:39Z</time>
      </trkpt>
      <trkpt lat="42.889158502221107" lon="13.03906911984086">
        <ele>624.30999999999995</ele>
        <time>2019-06-16T07:16:51Z</time>
      </trkpt>
      <trkpt lat="42.889273753389716" lon="13.039148664101958">
        <ele>624.36000000000001</ele>
        <time>2019-06-16T07:17:01Z</time>
      </trkpt>
      <trkpt lat="42.889355644583702" lon="13.03919761441648">
        <ele>623.76999999999998</ele>
        <time>2019-06-16T07:17:09Z</time>
      </trkpt>
      <trkpt lat="42.889490844681859" lon="13.039126368239522">
        <ele>623.54999999999995</ele>
        <time>2019-06-16T07:17:23Z</time>
      </trkpt>
      <trkpt lat="42.889546249061823" lon="13.039095439016819">
        <ele>624.26999999999998</ele>
        <time>2019-06-16T07:17:29Z</time>
      </trkpt>
      <trkpt lat="42.889676671475172" lon="13.039020085707307">
        <ele>627.38</ele>
        <time>2019-06-16T07:17:47Z</time>
      </trkpt>
      <trkpt lat="42.889762166887522" lon="13.038962502032518">
        <ele>629.24000000000001</ele>
        <time>2019-06-16T07:18:01Z</time>
      </trkpt>
      <trkpt lat="42.889797957614064" lon="13.038993263617158">
        <ele>630.02999999999997</ele>
        <time>2019-06-16T07:18:11Z</time>
      </trkpt>
      <trkpt lat="42.889811201021075" lon="13.03901388309896">
        <ele>630.25999999999999</ele>
        <time>2019-06-16T07:18:22Z</time>
      </trkpt>
      <trkpt lat="42.889812039211392" lon="13.039001477882266">
        <ele>630.35000000000002</ele>
        <time>2019-06-16T07:18:28Z</time>
      </trkpt>
      <trkpt lat="42.889823941513896" lon="13.038868624716997">
        <ele>630.74000000000001</ele>
        <time>2019-06-16T07:18:41Z</time>
      </trkpt>
      <trkpt lat="42.889826456084847" lon="13.03886191919446">
        <ele>630.95000000000005</ele>
        <time>2019-06-16T07:18:55Z</time>
      </trkpt>
      <trkpt lat="42.889829473569989" lon="13.038856135681272">
        <ele>630.97000000000003</ele>
        <time>2019-06-16T07:19:19Z</time>
      </trkpt>
      <trkpt lat="42.889849254861474" lon="13.038770975545049">
        <ele>631.04999999999995</ele>
        <time>2019-06-16T07:19:36Z</time>
      </trkpt>
      <trkpt lat="42.889894936233759" lon="13.038681289181113">
        <ele>633.15999999999997</ele>
        <time>2019-06-16T07:19:49Z</time>
      </trkpt>
      <trkpt lat="42.889918740838766" lon="13.038582717999816">
        <ele>633.50999999999999</ele>
        <time>2019-06-16T07:20:01Z</time>
      </trkpt>
      <trkpt lat="42.889950508251786" lon="13.038434190675616">
        <ele>633.83000000000004</ele>
        <time>2019-06-16T07:20:14Z</time>
      </trkpt>
      <trkpt lat="42.889963667839766" lon="13.038367806002498">
        <ele>633.90999999999997</ele>
        <time>2019-06-16T07:20:20Z</time>
      </trkpt>
      <trkpt lat="42.890015216544271" lon="13.038230175152421">
        <ele>633.97000000000003</ele>
        <time>2019-06-16T07:20:31Z</time>
      </trkpt>
      <trkpt lat="42.890053102746606" lon="13.038107715547085">
        <ele>633.34000000000003</ele>
        <time>2019-06-16T07:20:41Z</time>
      </trkpt>
      <trkpt lat="42.890137424692512" lon="13.037974191829562">
        <ele>632.13</ele>
        <time>2019-06-16T07:20:54Z</time>
      </trkpt>
      <trkpt lat="42.890221830457449" lon="13.037934880703688">
        <ele>633.15999999999997</ele>
        <time>2019-06-16T07:21:07Z</time>
      </trkpt>
      <trkpt lat="42.890221746638417" lon="13.037896575406194">
        <ele>632.89999999999998</ele>
        <time>2019-06-16T07:21:21Z</time>
      </trkpt>
      <trkpt lat="42.890291819348931" lon="13.037853827700019">
        <ele>632.98000000000002</ele>
        <time>2019-06-16T07:21:29Z</time>
      </trkpt>
      <trkpt lat="42.890439592301846" lon="13.037799932062626">
        <ele>634.52999999999997</ele>
        <time>2019-06-16T07:21:44Z</time>
      </trkpt>
      <trkpt lat="42.890537241473794" lon="13.037765733897686">
        <ele>635.94000000000005</ele>
        <time>2019-06-16T07:21:56Z</time>
      </trkpt>
      <trkpt lat="42.890580408275127" lon="13.037746287882328">
        <ele>636.97000000000003</ele>
        <time>2019-06-16T07:22:10Z</time>
      </trkpt>
      <trkpt lat="42.890662970021367" lon="13.037707395851612">
        <ele>638.34000000000003</ele>
        <time>2019-06-16T07:22:24Z</time>
      </trkpt>
      <trkpt lat="42.890731785446405" lon="13.037687027826905">
        <ele>639.82000000000005</ele>
        <time>2019-06-16T07:22:38Z</time>
      </trkpt>
      <trkpt lat="42.890764139592648" lon="13.037696247920394">
        <ele>640.60000000000002</ele>
        <time>2019-06-16T07:22:55Z</time>
      </trkpt>
      <trkpt lat="42.890866985544562" lon="13.037674454972148">
        <ele>642.79999999999995</ele>
        <time>2019-06-16T07:23:10Z</time>
      </trkpt>
      <trkpt lat="42.890979805961251" lon="13.037653081119061">
        <ele>645.46000000000004</ele>
        <time>2019-06-16T07:23:26Z</time>
      </trkpt>
      <trkpt lat="42.891085920855403" lon="13.037643693387508">
        <ele>647.60000000000002</ele>
        <time>2019-06-16T07:23:39Z</time>
      </trkpt>
      <trkpt lat="42.891208883374929" lon="13.037616619840264">
        <ele>650.38999999999999</ele>
        <time>2019-06-16T07:23:55Z</time>
      </trkpt>
      <trkpt lat="42.891343077644706" lon="13.037551576271653">
        <ele>651.94000000000005</ele>
        <time>2019-06-16T07:24:11Z</time>
      </trkpt>
      <trkpt lat="42.891435697674751" lon="13.037492735311389">
        <ele>653.07000000000005</ele>
        <time>2019-06-16T07:24:24Z</time>
      </trkpt>
      <trkpt lat="42.891547763720155" lon="13.03742291405797">
        <ele>654.23000000000002</ele>
        <time>2019-06-16T07:24:38Z</time>
      </trkpt>
      <trkpt lat="42.891563521698117" lon="13.037410760298371">
        <ele>654.45000000000005</ele>
        <time>2019-06-16T07:24:40Z</time>
      </trkpt>
      <trkpt lat="42.891670977696776" lon="13.037351751700044">
        <ele>655.58000000000004</ele>
        <time>2019-06-16T07:24:54Z</time>
      </trkpt>
      <trkpt lat="42.891712803393602" lon="13.03731881082058">
        <ele>656.28999999999996</ele>
        <time>2019-06-16T07:25:05Z</time>
      </trkpt>
      <trkpt lat="42.891772231087089" lon="13.037313781678677">
        <ele>656.34000000000003</ele>
        <time>2019-06-16T07:25:22Z</time>
      </trkpt>
      <trkpt lat="42.891786312684417" lon="13.037301041185856">
        <ele>656.63</ele>
        <time>2019-06-16T07:25:36Z</time>
      </trkpt>
      <trkpt lat="42.891738871112466" lon="13.037340939044952">
        <ele>656.45000000000005</ele>
        <time>2019-06-16T07:25:42Z</time>
      </trkpt>
      <trkpt lat="42.891660248860717" lon="13.037418052554131">
        <ele>657.40999999999997</ele>
        <time>2019-06-16T07:25:54Z</time>
      </trkpt>
      <trkpt lat="42.891648346558213" lon="13.037440683692694">
        <ele>657.41999999999996</ele>
        <time>2019-06-16T07:26:08Z</time>
      </trkpt>
      <trkpt lat="42.891702745109797" lon="13.037412520498037">
        <ele>657.01999999999998</ele>
        <time>2019-06-16T07:26:20Z</time>
      </trkpt>
      <trkpt lat="42.891801819205284" lon="13.037327192723751">
        <ele>656.70000000000005</ele>
        <time>2019-06-16T07:26:34Z</time>
      </trkpt>
      <trkpt lat="42.891808105632663" lon="13.037332892417908">
        <ele>656.74000000000001</ele>
        <time>2019-06-16T07:26:35Z</time>
      </trkpt>
      <trkpt lat="42.891868203878403" lon="13.037392571568489">
        <ele>656.73000000000002</ele>
        <time>2019-06-16T07:26:42Z</time>
      </trkpt>
      <trkpt lat="42.891896534711123" lon="13.037421405315399">
        <ele>657.17999999999995</ele>
        <time>2019-06-16T07:26:53Z</time>
      </trkpt>
      <trkpt lat="42.891910532489419" lon="13.037417968735099">
        <ele>657.08000000000004</ele>
        <time>2019-06-16T07:26:59Z</time>
      </trkpt>
      <trkpt lat="42.891921093687415" lon="13.037345549091697">
        <ele>657.12</ele>
        <time>2019-06-16T07:27:06Z</time>
      </trkpt>
      <trkpt lat="42.891926877200603" lon="13.037310931831598">
        <ele>657.38999999999999</ele>
        <time>2019-06-16T07:27:09Z</time>
      </trkpt>
      <trkpt lat="42.89194674231112" lon="13.037275727838278">
        <ele>657.63999999999999</ele>
        <time>2019-06-16T07:27:13Z</time>
      </trkpt>
      <trkpt lat="42.892050510272384" lon="13.037225771695375">
        <ele>658.47000000000003</ele>
        <time>2019-06-16T07:27:25Z</time>
      </trkpt>
      <trkpt lat="42.892150254920125" lon="13.037212193012238">
        <ele>659.44000000000005</ele>
        <time>2019-06-16T07:27:37Z</time>
      </trkpt>
      <trkpt lat="42.892188057303429" lon="13.037175731733441">
        <ele>660.10000000000002</ele>
        <time>2019-06-16T07:27:47Z</time>
      </trkpt>
      <trkpt lat="42.892303643748164" lon="13.037055199965835">
        <ele>661.12</ele>
        <time>2019-06-16T07:28:04Z</time>
      </trkpt>
      <trkpt lat="42.892306661233306" lon="13.037046063691378">
        <ele>661.16999999999996</ele>
        <time>2019-06-16T07:28:05Z</time>
      </trkpt>
      <trkpt lat="42.892317222431302" lon="13.037024438381195">
        <ele>661.45000000000005</ele>
        <time>2019-06-16T07:28:07Z</time>
      </trkpt>
      <trkpt lat="42.892332561314106" lon="13.037006249651313">
        <ele>661.66999999999996</ele>
        <time>2019-06-16T07:28:09Z</time>
      </trkpt>
      <trkpt lat="42.892473712563515" lon="13.036792678758502">
        <ele>662.70000000000005</ele>
        <time>2019-06-16T07:28:29Z</time>
      </trkpt>
      <trkpt lat="42.892612097784877" lon="13.036572150886059">
        <ele>663.35000000000002</ele>
        <time>2019-06-16T07:28:49Z</time>
      </trkpt>
      <trkpt lat="42.892725002020597" lon="13.036460503935814">
        <ele>663.44000000000005</ele>
        <time>2019-06-16T07:29:02Z</time>
      </trkpt>
      <trkpt lat="42.892892640084028" lon="13.036350449547172">
        <ele>663.5</ele>
        <time>2019-06-16T07:29:18Z</time>
      </trkpt>
      <trkpt lat="42.893064385280013" lon="13.036274509504437">
        <ele>663.66999999999996</ele>
        <time>2019-06-16T07:29:34Z</time>
      </trkpt>
      <trkpt lat="42.893196986988187" lon="13.036198318004608">
        <ele>663.79999999999995</ele>
        <time>2019-06-16T07:29:48Z</time>
      </trkpt>
      <trkpt lat="42.89325482212007" lon="13.036172585561872">
        <ele>663.82000000000005</ele>
        <time>2019-06-16T07:29:55Z</time>
      </trkpt>
      <trkpt lat="42.89327384904027" lon="13.036167556419969">
        <ele>663.84000000000003</ele>
        <time>2019-06-16T07:29:57Z</time>
      </trkpt>
      <trkpt lat="42.89329388178885" lon="13.036162527278066">
        <ele>663.75999999999999</ele>
        <time>2019-06-16T07:29:59Z</time>
      </trkpt>
      <trkpt lat="42.893379628658295" lon="13.036162611097097">
        <ele>664.48000000000002</ele>
        <time>2019-06-16T07:30:15Z</time>
      </trkpt>
      <trkpt lat="42.893545757979155" lon="13.03614073432982">
        <ele>665.13999999999999</ele>
        <time>2019-06-16T07:30:31Z</time>
      </trkpt>
      <trkpt lat="42.893666457384825" lon="13.036126988008618">
        <ele>665.65999999999997</ele>
        <time>2019-06-16T07:30:43Z</time>
      </trkpt>
      <trkpt lat="42.893814984709024" lon="13.036092622205615">
        <ele>666.57000000000005</ele>
        <time>2019-06-16T07:30:58Z</time>
      </trkpt>
      <trkpt lat="42.893959823995829" lon="13.036063117906451">
        <ele>667.23000000000002</ele>
        <time>2019-06-16T07:31:12Z</time>
      </trkpt>
      <trkpt lat="42.894105166196823" lon="13.036026237532496">
        <ele>668.21000000000004</ele>
        <time>2019-06-16T07:31:28Z</time>
      </trkpt>
      <trkpt lat="42.89425210095942" lon="13.035981729626656">
        <ele>669.28999999999996</ele>
        <time>2019-06-16T07:31:44Z</time>
      </trkpt>
      <trkpt lat="42.894346062093973" lon="13.035941077396274">
        <ele>669.98000000000002</ele>
        <time>2019-06-16T07:31:55Z</time>
      </trkpt>
      <trkpt lat="42.894361652433872" lon="13.035932444036007">
        <ele>670.14999999999998</ele>
        <time>2019-06-16T07:31:57Z</time>
      </trkpt>
      <trkpt lat="42.894387636333704" lon="13.035919703543186">
        <ele>670.29999999999995</ele>
        <time>2019-06-16T07:32:00Z</time>
      </trkpt>
      <trkpt lat="42.894507246091962" lon="13.035883158445358">
        <ele>671.53999999999996</ele>
        <time>2019-06-16T07:32:14Z</time>
      </trkpt>
      <trkpt lat="42.894649738445878" lon="13.035828927531838">
        <ele>673.32000000000005</ele>
        <time>2019-06-16T07:32:29Z</time>
      </trkpt>
      <trkpt lat="42.894784016534686" lon="13.035764638334513">
        <ele>673.04999999999995</ele>
        <time>2019-06-16T07:32:44Z</time>
      </trkpt>
      <trkpt lat="42.894868925213814" lon="13.035683752968907">
        <ele>674.23000000000002</ele>
        <time>2019-06-16T07:32:55Z</time>
      </trkpt>
      <trkpt lat="42.894985349848866" lon="13.035661540925503">
        <ele>675</ele>
        <time>2019-06-16T07:33:07Z</time>
      </trkpt>
      <trkpt lat="42.895028600469232" lon="13.035631449893117">
        <ele>675.35000000000002</ele>
        <time>2019-06-16T07:33:12Z</time>
      </trkpt>
      <trkpt lat="42.895102445036173" lon="13.035580655559897">
        <ele>675.69000000000005</ele>
        <time>2019-06-16T07:33:25Z</time>
      </trkpt>
      <trkpt lat="42.895150389522314" lon="13.035575123503804">
        <ele>675.86000000000001</ele>
        <time>2019-06-16T07:33:39Z</time>
      </trkpt>
      <trkpt lat="42.895269831642509" lon="13.035563305020332">
        <ele>676.64999999999998</ele>
        <time>2019-06-16T07:33:53Z</time>
      </trkpt>
      <trkpt lat="42.895306628197432" lon="13.035560287535191">
        <ele>676.85000000000002</ele>
        <time>2019-06-16T07:33:57Z</time>
      </trkpt>
      <trkpt lat="42.895461777225137" lon="13.035532375797629">
        <ele>677.76999999999998</ele>
        <time>2019-06-16T07:34:14Z</time>
      </trkpt>
      <trkpt lat="42.895558169111609" lon="13.035525334998965">
        <ele>678.19000000000005</ele>
        <time>2019-06-16T07:34:26Z</time>
      </trkpt>
      <trkpt lat="42.89567157626152" lon="13.035519132390618">
        <ele>679.14999999999998</ele>
        <time>2019-06-16T07:34:39Z</time>
      </trkpt>
      <trkpt lat="42.895801663398743" lon="13.035501865670085">
        <ele>680</ele>
        <time>2019-06-16T07:34:52Z</time>
      </trkpt>
      <trkpt lat="42.895939461886883" lon="13.035480575636029">
        <ele>680.30999999999995</ele>
        <time>2019-06-16T07:35:06Z</time>
      </trkpt>
      <trkpt lat="42.896038116887212" lon="13.035458028316498">
        <ele>680.97000000000003</ele>
        <time>2019-06-16T07:35:16Z</time>
      </trkpt>
      <trkpt lat="42.89622126147151" lon="13.035417292267084">
        <ele>682.01999999999998</ele>
        <time>2019-06-16T07:35:35Z</time>
      </trkpt>
      <trkpt lat="42.896380685269833" lon="13.035386195406318">
        <ele>683.46000000000004</ele>
        <time>2019-06-16T07:35:52Z</time>
      </trkpt>
      <trkpt lat="42.896518986672163" lon="13.035361133515835">
        <ele>684.75999999999999</ele>
        <time>2019-06-16T07:36:07Z</time>
      </trkpt>
      <trkpt lat="42.896634237840772" lon="13.035323834046721">
        <ele>685.55999999999995</ele>
        <time>2019-06-16T07:36:20Z</time>
      </trkpt>
      <trkpt lat="42.896754099056125" lon="13.035254180431366">
        <ele>687.16999999999996</ele>
        <time>2019-06-16T07:36:34Z</time>
      </trkpt>
      <trkpt lat="42.896856693550944" lon="13.03513758815825">
        <ele>689.36000000000001</ele>
        <time>2019-06-16T07:36:48Z</time>
      </trkpt>
      <trkpt lat="42.896957360208035" lon="13.03501496091485">
        <ele>691.13999999999999</ele>
        <time>2019-06-16T07:37:06Z</time>
      </trkpt>
      <trkpt lat="42.896979656070471" lon="13.034956371411681">
        <ele>692.44000000000005</ele>
        <time>2019-06-16T07:37:16Z</time>
      </trkpt>
      <trkpt lat="42.897059954702854" lon="13.03483022376895">
        <ele>694.62</ele>
        <time>2019-06-16T07:37:33Z</time>
      </trkpt>
      <trkpt lat="42.897179648280144" lon="13.034778004512191">
        <ele>697.76999999999998</ele>
        <time>2019-06-16T07:37:49Z</time>
      </trkpt>
      <trkpt lat="42.89729137904942" lon="13.034715559333563">
        <ele>700.19000000000005</ele>
        <time>2019-06-16T07:38:04Z</time>
      </trkpt>
      <trkpt lat="42.897395901381969" lon="13.034643391147256">
        <ele>702.83000000000004</ele>
        <time>2019-06-16T07:38:19Z</time>
      </trkpt>
      <trkpt lat="42.89746773429215" lon="13.034599218517542">
        <ele>705.00999999999999</ele>
        <time>2019-06-16T07:38:32Z</time>
      </trkpt>
      <trkpt lat="42.897554989904165" lon="13.034561583772302">
        <ele>706.69000000000005</ele>
        <time>2019-06-16T07:38:45Z</time>
      </trkpt>
      <trkpt lat="42.897649789229035" lon="13.034547418355942">
        <ele>708.22000000000003</ele>
        <time>2019-06-16T07:38:58Z</time>
      </trkpt>
      <trkpt lat="42.897804519161582" lon="13.034594608470798">
        <ele>710.29999999999995</ele>
        <time>2019-06-16T07:39:14Z</time>
      </trkpt>
      <trkpt lat="42.897868808358908" lon="13.034540042281151">
        <ele>711.77999999999997</ele>
        <time>2019-06-16T07:39:24Z</time>
      </trkpt>
      <trkpt lat="42.89787526242435" lon="13.034532917663455">
        <ele>711.89999999999998</ele>
        <time>2019-06-16T07:39:25Z</time>
      </trkpt>
      <trkpt lat="42.897908873856068" lon="13.034502826631069">
        <ele>712.39999999999998</ele>
        <time>2019-06-16T07:39:35Z</time>
      </trkpt>
      <trkpt lat="42.897952292114496" lon="13.034486314281821">
        <ele>712.70000000000005</ele>
        <time>2019-06-16T07:39:48Z</time>
      </trkpt>
      <trkpt lat="42.898023454472423" lon="13.034468796104193">
        <ele>713.57000000000005</ele>
        <time>2019-06-16T07:39:56Z</time>
      </trkpt>
      <trkpt lat="42.89809319190681" lon="13.034439291805029">
        <ele>714.40999999999997</ele>
        <time>2019-06-16T07:40:11Z</time>
      </trkpt>
      <trkpt lat="42.89815085940063" lon="13.03439486771822">
        <ele>715.58000000000004</ele>
        <time>2019-06-16T07:40:21Z</time>
      </trkpt>
      <trkpt lat="42.898156894370914" lon="13.034389168024063">
        <ele>715.75999999999999</ele>
        <time>2019-06-16T07:40:22Z</time>
      </trkpt>
      <trkpt lat="42.898222021758556" lon="13.034303588792682">
        <ele>718.02999999999997</ele>
        <time>2019-06-16T07:40:36Z</time>
      </trkpt>
      <trkpt lat="42.898222357034683" lon="13.034173082560301">
        <ele>719.51999999999998</ele>
        <time>2019-06-16T07:40:50Z</time>
      </trkpt>
      <trkpt lat="42.89820802398026" lon="13.034078450873494">
        <ele>719.62</ele>
        <time>2019-06-16T07:41:05Z</time>
      </trkpt>
      <trkpt lat="42.898220513015985" lon="13.034043833613396">
        <ele>720.41999999999996</ele>
        <time>2019-06-16T07:41:14Z</time>
      </trkpt>
      <trkpt lat="42.898246329277754" lon="13.033930845558643">
        <ele>721.37</ele>
        <time>2019-06-16T07:41:27Z</time>
      </trkpt>
      <trkpt lat="42.89827935397625" lon="13.033776115626097">
        <ele>722.71000000000004</ele>
        <time>2019-06-16T07:41:39Z</time>
      </trkpt>
      <trkpt lat="42.898279689252377" lon="13.033711826428771">
        <ele>722.58000000000004</ele>
        <time>2019-06-16T07:41:50Z</time>
      </trkpt>
      <trkpt lat="42.898222273215652" lon="13.033671760931611">
        <ele>722.60000000000002</ele>
        <time>2019-06-16T07:42:03Z</time>
      </trkpt>
      <trkpt lat="42.898196205496788" lon="13.033648459240794">
        <ele>722.27999999999997</ele>
        <time>2019-06-16T07:42:14Z</time>
      </trkpt>
      <trkpt lat="42.898195283487439" lon="13.033639239147305">
        <ele>721.91999999999996</ele>
        <time>2019-06-16T07:42:29Z</time>
      </trkpt>
      <trkpt lat="42.898168042302132" lon="13.033629097044468">
        <ele>722.22000000000003</ele>
        <time>2019-06-16T07:42:58Z</time>
      </trkpt>
      <trkpt lat="42.898175418376923" lon="13.033630354329944">
        <ele>722.78999999999996</ele>
        <time>2019-06-16T07:43:17Z</time>
      </trkpt>
      <trkpt lat="42.898175166919827" lon="13.033628426492214">
        <ele>723.57000000000005</ele>
        <time>2019-06-16T07:43:21Z</time>
      </trkpt>
      <trkpt lat="42.898177178576589" lon="13.033629767596722">
        <ele>722.30999999999995</ele>
        <time>2019-06-16T07:43:24Z</time>
      </trkpt>
      <trkpt lat="42.898169467225671" lon="13.033614680171013">
        <ele>722.23000000000002</ele>
        <time>2019-06-16T07:43:43Z</time>
      </trkpt>
      <trkpt lat="42.898185476660728" lon="13.033623229712248">
        <ele>722.42999999999995</ele>
        <time>2019-06-16T07:44:02Z</time>
      </trkpt>
      <trkpt lat="42.898185979574919" lon="13.033613674342632">
        <ele>722.77999999999997</ele>
        <time>2019-06-16T07:44:57Z</time>
      </trkpt>
      <trkpt lat="42.898189835250378" lon="13.033616356551647">
        <ele>723.35000000000002</ele>
        <time>2019-06-16T07:45:28Z</time>
      </trkpt>
      <trkpt lat="42.898190170526505" lon="13.033608561381698">
        <ele>722.87</ele>
        <time>2019-06-16T07:45:46Z</time>
      </trkpt>
      <trkpt lat="42.898177849128842" lon="13.0336101539433">
        <ele>723.30999999999995</ele>
        <time>2019-06-16T07:46:44Z</time>
      </trkpt>
      <trkpt lat="42.89816502481699" lon="13.033611830323935">
        <ele>723.53999999999996</ele>
        <time>2019-06-16T07:47:55Z</time>
      </trkpt>
      <trkpt lat="42.898174580186605" lon="13.03362037986517">
        <ele>723.74000000000001</ele>
        <time>2019-06-16T07:48:46Z</time>
      </trkpt>
      <trkpt lat="42.898177932947874" lon="13.033626582473516">
        <ele>723.88999999999999</ele>
        <time>2019-06-16T07:49:40Z</time>
      </trkpt>
      <trkpt lat="42.898201150819659" lon="13.033620631322265">
        <ele>724.38</ele>
        <time>2019-06-16T07:50:17Z</time>
      </trkpt>
      <trkpt lat="42.89820609614253" lon="13.033619038760662">
        <ele>724.70000000000005</ele>
        <time>2019-06-16T07:50:32Z</time>
      </trkpt>
      <trkpt lat="42.898209365084767" lon="13.033608980476856">
        <ele>724.62</ele>
        <time>2019-06-16T07:50:48Z</time>
      </trkpt>
      <trkpt lat="42.898218920454383" lon="13.033608896657825">
        <ele>724.69000000000005</ele>
        <time>2019-06-16T07:51:06Z</time>
      </trkpt>
      <trkpt lat="42.898217076435685" lon="13.033605040982366">
        <ele>724.65999999999997</ele>
        <time>2019-06-16T07:51:26Z</time>
      </trkpt>
      <trkpt lat="42.898216908797622" lon="13.03360135294497">
        <ele>724.74000000000001</ele>
        <time>2019-06-16T07:51:47Z</time>
      </trkpt>
      <trkpt lat="42.898218082264066" lon="13.033600095659494">
        <ele>724.76999999999998</ele>
        <time>2019-06-16T07:52:05Z</time>
      </trkpt>
      <trkpt lat="42.898235013708472" lon="13.033607807010412">
        <ele>724.55999999999995</ele>
        <time>2019-06-16T07:52:22Z</time>
      </trkpt>
      <trkpt lat="42.898243311792612" lon="13.033628845587373">
        <ele>724.47000000000003</ele>
        <time>2019-06-16T07:52:34Z</time>
      </trkpt>
      <trkpt lat="42.898273654282093" lon="13.033642340451479">
        <ele>724.63</ele>
        <time>2019-06-16T07:52:44Z</time>
      </trkpt>
      <trkpt lat="42.898342721164227" lon="13.033728254958987">
        <ele>726.85000000000002</ele>
        <time>2019-06-16T07:52:58Z</time>
      </trkpt>
      <trkpt lat="42.898405836895108" lon="13.033829424530268">
        <ele>727.20000000000005</ele>
        <time>2019-06-16T07:53:10Z</time>
      </trkpt>
      <trkpt lat="42.898451937362552" lon="13.033903855830431">
        <ele>727.14999999999998</ele>
        <time>2019-06-16T07:53:18Z</time>
      </trkpt>
      <trkpt lat="42.898531649261713" lon="13.03399127908051">
        <ele>727.03999999999996</ele>
        <time>2019-06-16T07:53:32Z</time>
      </trkpt>
      <trkpt lat="42.898592753335834" lon="13.03404207341373">
        <ele>727.05999999999995</ele>
        <time>2019-06-16T07:53:44Z</time>
      </trkpt>
      <trkpt lat="42.898641284555197" lon="13.034085156396031">
        <ele>727.19000000000005</ele>
        <time>2019-06-16T07:53:57Z</time>
      </trkpt>
      <trkpt lat="42.898675817996264" lon="13.034097058698535">
        <ele>727.02999999999997</ele>
        <time>2019-06-16T07:54:10Z</time>
      </trkpt>
      <trkpt lat="42.898726360872388" lon="13.034161515533924">
        <ele>726.95000000000005</ele>
        <time>2019-06-16T07:54:17Z</time>
      </trkpt>
      <trkpt lat="42.898855609819293" lon="13.034290177747607">
        <ele>726.88999999999999</ele>
        <time>2019-06-16T07:54:32Z</time>
      </trkpt>
      <trkpt lat="42.89897907525301" lon="13.034413391724229">
        <ele>726.90999999999997</ele>
        <time>2019-06-16T07:54:46Z</time>
      </trkpt>
      <trkpt lat="42.899117711931467" lon="13.034534174948931">
        <ele>726.76999999999998</ele>
        <time>2019-06-16T07:55:01Z</time>
      </trkpt>
      <trkpt lat="42.899252912029624" lon="13.034658059477806">
        <ele>727.28999999999996</ele>
        <time>2019-06-16T07:55:16Z</time>
      </trkpt>
      <trkpt lat="42.899368582293391" lon="13.034758977591991">
        <ele>727.07000000000005</ele>
        <time>2019-06-16T07:55:29Z</time>
      </trkpt>
      <trkpt lat="42.899492215365171" lon="13.034856375306845">
        <ele>727.37</ele>
        <time>2019-06-16T07:55:42Z</time>
      </trkpt>
      <trkpt lat="42.899592379108071" lon="13.034951929003">
        <ele>727.44000000000005</ele>
        <time>2019-06-16T07:55:54Z</time>
      </trkpt>
      <trkpt lat="42.89971056394279" lon="13.035053350031376">
        <ele>728.15999999999997</ele>
        <time>2019-06-16T07:56:07Z</time>
      </trkpt>
      <trkpt lat="42.899841824546456" lon="13.035155776888132">
        <ele>729</ele>
        <time>2019-06-16T07:56:22Z</time>
      </trkpt>
      <trkpt lat="42.899908544495702" lon="13.035193243995309">
        <ele>729.13999999999999</ele>
        <time>2019-06-16T07:56:30Z</time>
      </trkpt>
      <trkpt lat="42.900063442066312" lon="13.035234650596976">
        <ele>729.71000000000004</ele>
        <time>2019-06-16T07:56:45Z</time>
      </trkpt>
      <trkpt lat="42.900186823680997" lon="13.035271279513836">
        <ele>730.01999999999998</ele>
        <time>2019-06-16T07:56:58Z</time>
      </trkpt>
      <trkpt lat="42.900308612734079" lon="13.035276392474771">
        <ele>730.28999999999996</ele>
        <time>2019-06-16T07:57:11Z</time>
      </trkpt>
      <trkpt lat="42.90036091580987" lon="13.035294162109494">
        <ele>730.08000000000004</ele>
        <time>2019-06-16T07:57:22Z</time>
      </trkpt>
      <trkpt lat="42.90045035071671" lon="13.035390553995967">
        <ele>730.30999999999995</ele>
        <time>2019-06-16T07:57:34Z</time>
      </trkpt>
      <trkpt lat="42.900459235534072" lon="13.035404635593295">
        <ele>730.71000000000004</ele>
        <time>2019-06-16T07:57:46Z</time>
      </trkpt>
      <trkpt lat="42.900460492819548" lon="13.035453669726849">
        <ele>730.80999999999995</ele>
        <time>2019-06-16T07:57:52Z</time>
      </trkpt>
      <trkpt lat="42.900460073724389" lon="13.03559691645205">
        <ele>731.85000000000002</ele>
        <time>2019-06-16T07:58:06Z</time>
      </trkpt>
      <trkpt lat="42.900458062067628" lon="13.035642094910145">
        <ele>732.08000000000004</ele>
        <time>2019-06-16T07:58:22Z</time>
      </trkpt>
      <trkpt lat="42.900461833924055" lon="13.035652572289109">
        <ele>732.24000000000001</ele>
        <time>2019-06-16T07:58:39Z</time>
      </trkpt>
      <trkpt lat="42.900463677942753" lon="13.035692973062396">
        <ele>732.35000000000002</ele>
        <time>2019-06-16T07:58:50Z</time>
      </trkpt>
      <trkpt lat="42.90046107955277" lon="13.035721890628338">
        <ele>732.77999999999997</ele>
        <time>2019-06-16T07:59:12Z</time>
      </trkpt>
      <trkpt lat="42.900459906086326" lon="13.035886930301785">
        <ele>733.84000000000003</ele>
        <time>2019-06-16T07:59:26Z</time>
      </trkpt>
      <trkpt lat="42.900462755933404" lon="13.035968234762549">
        <ele>734.79999999999995</ele>
        <time>2019-06-16T07:59:32Z</time>
      </trkpt>
      <trkpt lat="42.900451524183154" lon="13.036084240302444">
        <ele>735.66999999999996</ele>
        <time>2019-06-16T07:59:44Z</time>
      </trkpt>
      <trkpt lat="42.900453703477979" lon="13.036108883097768">
        <ele>736.02999999999997</ele>
        <time>2019-06-16T07:59:49Z</time>
      </trkpt>
      <trkpt lat="42.900454457849264" lon="13.036281382665038">
        <ele>737.49000000000001</ele>
        <time>2019-06-16T08:00:05Z</time>
      </trkpt>
      <trkpt lat="42.900426965206861" lon="13.036417756229639">
        <ele>738.84000000000003</ele>
        <time>2019-06-16T08:00:17Z</time>
      </trkpt>
      <trkpt lat="42.900401651859283" lon="13.036545244976878">
        <ele>740.36000000000001</ele>
        <time>2019-06-16T08:00:29Z</time>
      </trkpt>
      <trkpt lat="42.900385810062289" lon="13.036708021536469">
        <ele>742.58000000000004</ele>
        <time>2019-06-16T08:00:42Z</time>
      </trkpt>
      <trkpt lat="42.900384217500687" lon="13.036871133372188">
        <ele>744.24000000000001</ele>
        <time>2019-06-16T08:00:55Z</time>
      </trkpt>
      <trkpt lat="42.900421181693673" lon="13.037054026499391">
        <ele>746.17999999999995</ele>
        <time>2019-06-16T08:01:09Z</time>
      </trkpt>
      <trkpt lat="42.900440879166126" lon="13.037199955433607">
        <ele>748.37</ele>
        <time>2019-06-16T08:01:23Z</time>
      </trkpt>
      <trkpt lat="42.900498295202851" lon="13.037355858832598">
        <ele>751.03999999999996</ele>
        <time>2019-06-16T08:01:37Z</time>
      </trkpt>
      <trkpt lat="42.900539869442582" lon="13.037487119436264">
        <ele>752.94000000000005</ele>
        <time>2019-06-16T08:01:51Z</time>
      </trkpt>
      <trkpt lat="42.900586724281311" lon="13.037627600133419">
        <ele>754.74000000000001</ele>
        <time>2019-06-16T08:02:04Z</time>
      </trkpt>
      <trkpt lat="42.900608601048589" lon="13.037737235426903">
        <ele>756.02999999999997</ele>
        <time>2019-06-16T08:02:15Z</time>
      </trkpt>
      <trkpt lat="42.900646822527051" lon="13.037887020036578">
        <ele>758.17999999999995</ele>
        <time>2019-06-16T08:02:30Z</time>
      </trkpt>
      <trkpt lat="42.900670375674963" lon="13.038043426349759">
        <ele>760.42999999999995</ele>
        <time>2019-06-16T08:02:46Z</time>
      </trkpt>
      <trkpt lat="42.900692336261272" lon="13.038176614791155">
        <ele>762.71000000000004</ele>
        <time>2019-06-16T08:03:01Z</time>
      </trkpt>
      <trkpt lat="42.900732820853591" lon="13.038280382752419">
        <ele>764.38999999999999</ele>
        <time>2019-06-16T08:03:12Z</time>
      </trkpt>
      <trkpt lat="42.900772634893656" lon="13.038410721346736">
        <ele>766.25999999999999</ele>
        <time>2019-06-16T08:03:25Z</time>
      </trkpt>
      <trkpt lat="42.900804821401834" lon="13.038511639460921">
        <ele>768.08000000000004</ele>
        <time>2019-06-16T08:03:37Z</time>
      </trkpt>
      <trkpt lat="42.900821333751082" lon="13.038634853437543">
        <ele>769.94000000000005</ele>
        <time>2019-06-16T08:03:50Z</time>
      </trkpt>
      <trkpt lat="42.900834996253252" lon="13.038774328306317">
        <ele>772.51999999999998</ele>
        <time>2019-06-16T08:04:06Z</time>
      </trkpt>
      <trkpt lat="42.900847485288978" lon="13.038883712142706">
        <ele>774.47000000000003</ele>
        <time>2019-06-16T08:04:18Z</time>
      </trkpt>
      <trkpt lat="42.900865757837892" lon="13.039022516459227">
        <ele>777.03999999999996</ele>
        <time>2019-06-16T08:04:32Z</time>
      </trkpt>
      <trkpt lat="42.900864332914352" lon="13.039158135652542">
        <ele>779.24000000000001</ele>
        <time>2019-06-16T08:04:48Z</time>
      </trkpt>
      <trkpt lat="42.900874223560095" lon="13.039323510602117">
        <ele>782.13999999999999</ele>
        <time>2019-06-16T08:05:05Z</time>
      </trkpt>
      <trkpt lat="42.900876989588141" lon="13.039438426494598">
        <ele>784</ele>
        <time>2019-06-16T08:05:17Z</time>
      </trkpt>
      <trkpt lat="42.90087983943522" lon="13.039586283266544">
        <ele>786.77999999999997</ele>
        <time>2019-06-16T08:05:34Z</time>
      </trkpt>
      <trkpt lat="42.90089450776577" lon="13.03969357162714">
        <ele>789.14999999999998</ele>
        <time>2019-06-16T08:05:47Z</time>
      </trkpt>
      <trkpt lat="42.900914708152413" lon="13.039831956848502">
        <ele>791.95000000000005</ele>
        <time>2019-06-16T08:06:02Z</time>
      </trkpt>
      <trkpt lat="42.900923173874617" lon="13.039955841377378">
        <ele>794.41999999999996</ele>
        <time>2019-06-16T08:06:17Z</time>
      </trkpt>
      <trkpt lat="42.900926861912012" lon="13.040074948221445">
        <ele>797.27999999999997</ele>
        <time>2019-06-16T08:06:33Z</time>
      </trkpt>
      <trkpt lat="42.90094044059515" lon="13.040148457512259">
        <ele>799.21000000000004</ele>
        <time>2019-06-16T08:06:44Z</time>
      </trkpt>
      <trkpt lat="42.901001209393144" lon="13.040239987894893">
        <ele>801.85000000000002</ele>
        <time>2019-06-16T08:07:00Z</time>
      </trkpt>
      <trkpt lat="42.901081591844559" lon="13.04028918966651">
        <ele>804.71000000000004</ele>
        <time>2019-06-16T08:07:17Z</time>
      </trkpt>
      <trkpt lat="42.90116666816175" lon="13.040312323719263">
        <ele>807.09000000000003</ele>
        <time>2019-06-16T08:07:32Z</time>
      </trkpt>
      <trkpt lat="42.901257444173098" lon="13.040304277092218">
        <ele>809.54999999999995</ele>
        <time>2019-06-16T08:07:48Z</time>
      </trkpt>
      <trkpt lat="42.901345621794462" lon="13.040301594883204">
        <ele>812.13</ele>
        <time>2019-06-16T08:08:03Z</time>
      </trkpt>
      <trkpt lat="42.901431871578097" lon="13.04029019549489">
        <ele>814.5</ele>
        <time>2019-06-16T08:08:20Z</time>
      </trkpt>
      <trkpt lat="42.901437319815159" lon="13.040287094190717">
        <ele>814.45000000000005</ele>
        <time>2019-06-16T08:08:34Z</time>
      </trkpt>
      <trkpt lat="42.901477720588446" lon="13.040324309840798">
        <ele>815.34000000000003</ele>
        <time>2019-06-16T08:08:48Z</time>
      </trkpt>
      <trkpt lat="42.901565311476588" lon="13.040352137759328">
        <ele>818.00999999999999</ele>
        <time>2019-06-16T08:09:03Z</time>
      </trkpt>
      <trkpt lat="42.901646951213479" lon="13.040394131094217">
        <ele>821.05999999999995</ele>
        <time>2019-06-16T08:09:18Z</time>
      </trkpt>
      <trkpt lat="42.901738230139017" lon="13.040414163842797">
        <ele>824.10000000000002</ele>
        <time>2019-06-16T08:09:32Z</time>
      </trkpt>
      <trkpt lat="42.901844512671232" lon="13.040419612079859">
        <ele>826.84000000000003</ele>
        <time>2019-06-16T08:09:47Z</time>
      </trkpt>
      <trkpt lat="42.901965295895934" lon="13.040424222126603">
        <ele>829.61000000000001</ele>
        <time>2019-06-16T08:10:04Z</time>
      </trkpt>
      <trkpt lat="42.902067052200437" lon="13.040421875193715">
        <ele>831.75999999999999</ele>
        <time>2019-06-16T08:10:18Z</time>
      </trkpt>
      <trkpt lat="42.902157157659531" lon="13.04043042473495">
        <ele>833.47000000000003</ele>
        <time>2019-06-16T08:10:31Z</time>
      </trkpt>
      <trkpt lat="42.902259500697255" lon="13.040426233783364">
        <ele>835.38999999999999</ele>
        <time>2019-06-16T08:10:45Z</time>
      </trkpt>
      <trkpt lat="42.902324041351676" lon="13.040409469977021">
        <ele>836.00999999999999</ele>
        <time>2019-06-16T08:10:56Z</time>
      </trkpt>
      <trkpt lat="42.902322029694915" lon="13.04039815440774">
        <ele>828.14999999999998</ele>
        <time>2019-06-16T08:11:00Z</time>
      </trkpt>
      <trkpt lat="42.902322029694915" lon="13.040397735312581">
        <ele>831.57000000000005</ele>
        <time>2019-06-16T08:11:01Z</time>
      </trkpt>
      <trkpt lat="42.902321526780725" lon="13.040397735312581">
        <ele>835.57000000000005</ele>
        <time>2019-06-16T08:11:02Z</time>
      </trkpt>
      <trkpt lat="42.90232177823782" lon="13.040399076417089">
        <ele>842.40999999999997</ele>
        <time>2019-06-16T08:11:03Z</time>
      </trkpt>
      <trkpt lat="42.902322364971042" lon="13.040400501340628">
        <ele>840.83000000000004</ele>
        <time>2019-06-16T08:11:04Z</time>
      </trkpt>
      <trkpt lat="42.902322029694915" lon="13.040400585159659">
        <ele>836.59000000000003</ele>
        <time>2019-06-16T08:11:06Z</time>
      </trkpt>
      <trkpt lat="42.902383971959352" lon="13.040394885465503">
        <ele>836.65999999999997</ele>
        <time>2019-06-16T08:11:17Z</time>
      </trkpt>
      <trkpt lat="42.902523195371032" lon="13.04036638699472">
        <ele>838.22000000000003</ele>
        <time>2019-06-16T08:11:33Z</time>
      </trkpt>
      <trkpt lat="42.90265160612762" lon="13.040356831625104">
        <ele>839.88</ele>
        <time>2019-06-16T08:11:47Z</time>
      </trkpt>
      <trkpt lat="42.90276400744915" lon="13.040347611531615">
        <ele>841.55999999999995</ele>
        <time>2019-06-16T08:11:59Z</time>
      </trkpt>
      <trkpt lat="42.902790745720267" lon="13.040336212143302">
        <ele>842.00999999999999</ele>
        <time>2019-06-16T08:12:02Z</time>
      </trkpt>
      <trkpt lat="42.902863333001733" lon="13.040323052555323">
        <ele>842.92999999999995</ele>
        <time>2019-06-16T08:12:11Z</time>
      </trkpt>
      <trkpt lat="42.902936674654484" lon="13.040313581004739">
        <ele>843.88999999999999</ele>
        <time>2019-06-16T08:12:19Z</time>
      </trkpt>
      <trkpt lat="42.90304689668119" lon="13.040312407538295">
        <ele>845.57000000000005</ele>
        <time>2019-06-16T08:12:32Z</time>
      </trkpt>
      <trkpt lat="42.903147898614407" lon="13.040314000099897">
        <ele>847.86000000000001</ele>
        <time>2019-06-16T08:12:45Z</time>
      </trkpt>
      <trkpt lat="42.903265412896872" lon="13.040330009534955">
        <ele>850.34000000000003</ele>
        <time>2019-06-16T08:13:00Z</time>
      </trkpt>
      <trkpt lat="42.903353841975331" lon="13.040358759462833">
        <ele>852.25999999999999</ele>
        <time>2019-06-16T08:13:14Z</time>
      </trkpt>
      <trkpt lat="42.903394997119904" lon="13.040366135537624">
        <ele>853.22000000000003</ele>
        <time>2019-06-16T08:13:26Z</time>
      </trkpt>
      <trkpt lat="42.903430871665478" lon="13.04040938615799">
        <ele>854.25</ele>
        <time>2019-06-16T08:13:41Z</time>
      </trkpt>
      <trkpt lat="42.903490299358964" lon="13.040466466918588">
        <ele>855.99000000000001</ele>
        <time>2019-06-16T08:13:53Z</time>
      </trkpt>
      <trkpt lat="42.903563724830747" lon="13.04053695872426">
        <ele>858.13</ele>
        <time>2019-06-16T08:14:07Z</time>
      </trkpt>
      <trkpt lat="42.903607478365302" lon="13.040580628439784">
        <ele>859.20000000000005</ele>
        <time>2019-06-16T08:14:17Z</time>
      </trkpt>
      <trkpt lat="42.9036835860461" lon="13.040711972862482">
        <ele>862.03999999999996</ele>
        <time>2019-06-16T08:14:33Z</time>
      </trkpt>
      <trkpt lat="42.903722561895847" lon="13.040791768580675">
        <ele>863.28999999999996</ele>
        <time>2019-06-16T08:14:46Z</time>
      </trkpt>
      <trkpt lat="42.903724992647767" lon="13.040854465216398">
        <ele>864.10000000000002</ele>
        <time>2019-06-16T08:14:59Z</time>
      </trkpt>
      <trkpt lat="42.903699008747935" lon="13.0408682115376">
        <ele>864.42999999999995</ele>
        <time>2019-06-16T08:15:13Z</time>
      </trkpt>
      <trkpt lat="42.903688363730907" lon="13.040844826027751">
        <ele>864.75</ele>
        <time>2019-06-16T08:15:43Z</time>
      </trkpt>
      <trkpt lat="42.903689788654447" lon="13.040840048342943">
        <ele>864.67999999999995</ele>
        <time>2019-06-16T08:15:51Z</time>
      </trkpt>
      <trkpt lat="42.903705378994346" lon="13.040828313678503">
        <ele>864.60000000000002</ele>
        <time>2019-06-16T08:15:54Z</time>
      </trkpt>
      <trkpt lat="42.903765644878149" lon="13.040877599269152">
        <ele>864.80999999999995</ele>
        <time>2019-06-16T08:16:04Z</time>
      </trkpt>
      <trkpt lat="42.903781067579985" lon="13.040979690849781">
        <ele>865.04999999999995</ele>
        <time>2019-06-16T08:16:14Z</time>
      </trkpt>
      <trkpt lat="42.903791377320886" lon="13.041130816563964">
        <ele>865.10000000000002</ele>
        <time>2019-06-16T08:16:30Z</time>
      </trkpt>
      <trkpt lat="42.903785426169634" lon="13.041175911203027">
        <ele>867.95000000000005</ele>
        <time>2019-06-16T08:16:34Z</time>
      </trkpt>
      <trkpt lat="42.903772350400686" lon="13.041296610608697">
        <ele>870.48000000000002</ele>
        <time>2019-06-16T08:16:48Z</time>
      </trkpt>
      <trkpt lat="42.903747288510203" lon="13.041453436017036">
        <ele>871.55999999999995</ele>
        <time>2019-06-16T08:17:02Z</time>
      </trkpt>
      <trkpt lat="42.903722897171974" lon="13.041607076302171">
        <ele>873.67999999999995</ele>
        <time>2019-06-16T08:17:16Z</time>
      </trkpt>
      <trkpt lat="42.903684256598353" lon="13.041770691052079">
        <ele>875.65999999999997</ele>
        <time>2019-06-16T08:17:31Z</time>
      </trkpt>
      <trkpt lat="42.903634468093514" lon="13.041970264166594">
        <ele>878.01999999999998</ele>
        <time>2019-06-16T08:17:47Z</time>
      </trkpt>
      <trkpt lat="42.903606053441763" lon="13.042114097625017">
        <ele>879.62</ele>
        <time>2019-06-16T08:17:59Z</time>
      </trkpt>
      <trkpt lat="42.903601694852114" lon="13.042235299944878">
        <ele>881.63</ele>
        <time>2019-06-16T08:18:12Z</time>
      </trkpt>
      <trkpt lat="42.903583003208041" lon="13.042347952723503">
        <ele>883.96000000000004</ele>
        <time>2019-06-16T08:18:23Z</time>
      </trkpt>
      <trkpt lat="42.903527598828077" lon="13.042519949376583">
        <ele>886.73000000000002</ele>
        <time>2019-06-16T08:18:40Z</time>
      </trkpt>
      <trkpt lat="42.903515696525574" lon="13.042673505842686">
        <ele>888.88</ele>
        <time>2019-06-16T08:18:54Z</time>
      </trkpt>
      <trkpt lat="42.903522150591016" lon="13.042815998196602">
        <ele>890.57000000000005</ele>
        <time>2019-06-16T08:19:06Z</time>
      </trkpt>
      <trkpt lat="42.903563976287842" lon="13.042968716472387">
        <ele>892.13</ele>
        <time>2019-06-16T08:19:20Z</time>
      </trkpt>
      <trkpt lat="42.903614351525903" lon="13.043077178299427">
        <ele>894.09000000000003</ele>
        <time>2019-06-16T08:19:31Z</time>
      </trkpt>
      <trkpt lat="42.903638910502195" lon="13.043224699795246">
        <ele>895.94000000000005</ele>
        <time>2019-06-16T08:19:44Z</time>
      </trkpt>
      <trkpt lat="42.903658775612712" lon="13.043397953733802">
        <ele>898.66999999999996</ele>
        <time>2019-06-16T08:19:59Z</time>
      </trkpt>
      <trkpt lat="42.903675120323896" lon="13.043513707816601">
        <ele>900.42999999999995</ele>
        <time>2019-06-16T08:20:10Z</time>
      </trkpt>
      <trkpt lat="42.903660954907537" lon="13.043652344495058">
        <ele>902.92999999999995</ele>
        <time>2019-06-16T08:20:25Z</time>
      </trkpt>
      <trkpt lat="42.903634132817388" lon="13.043775390833616">
        <ele>906.01999999999998</ele>
        <time>2019-06-16T08:20:39Z</time>
      </trkpt>
      <trkpt lat="42.903557606041431" lon="13.043879074975848">
        <ele>908.96000000000004</ele>
        <time>2019-06-16T08:20:54Z</time>
      </trkpt>
      <trkpt lat="42.903505302965641" lon="13.044000528752804">
        <ele>911.75999999999999</ele>
        <time>2019-06-16T08:21:10Z</time>
      </trkpt>
      <trkpt lat="42.903468003496528" lon="13.044125000014901">
        <ele>913.86000000000001</ele>
        <time>2019-06-16T08:21:24Z</time>
      </trkpt>
      <trkpt lat="42.903438834473491" lon="13.044281238690019">
        <ele>915.88</ele>
        <time>2019-06-16T08:21:40Z</time>
      </trkpt>
      <trkpt lat="42.903400026261806" lon="13.044412331655622">
        <ele>917.60000000000002</ele>
        <time>2019-06-16T08:21:54Z</time>
      </trkpt>
      <trkpt lat="42.903396589681506" lon="13.04446404799819">
        <ele>918.02999999999997</ele>
        <time>2019-06-16T08:21:58Z</time>
      </trkpt>
      <trkpt lat="42.903374461457133" lon="13.04459254257381">
        <ele>920.13999999999999</ele>
        <time>2019-06-16T08:22:10Z</time>
      </trkpt>
      <trkpt lat="42.90333230048418" lon="13.044787254184484">
        <ele>922.52999999999997</ele>
        <time>2019-06-16T08:22:27Z</time>
      </trkpt>
      <trkpt lat="42.903295001015067" lon="13.04493410512805">
        <ele>925.00999999999999</ele>
        <time>2019-06-16T08:22:42Z</time>
      </trkpt>
      <trkpt lat="42.903273459523916" lon="13.045097552239895">
        <ele>927.26999999999998</ele>
        <time>2019-06-16T08:22:59Z</time>
      </trkpt>
      <trkpt lat="42.903253175318241" lon="13.045201571658254">
        <ele>928.16999999999996</ele>
        <time>2019-06-16T08:23:12Z</time>
      </trkpt>
      <trkpt lat="42.903229789808393" lon="13.045307938009501">
        <ele>930.02999999999997</ele>
        <time>2019-06-16T08:23:30Z</time>
      </trkpt>
      <trkpt lat="42.90319743566215" lon="13.045416567474604">
        <ele>931.94000000000005</ele>
        <time>2019-06-16T08:23:43Z</time>
      </trkpt>
      <trkpt lat="42.903137840330601" lon="13.045525196939707">
        <ele>934.09000000000003</ele>
        <time>2019-06-16T08:23:59Z</time>
      </trkpt>
      <trkpt lat="42.903080927208066" lon="13.045674981549382">
        <ele>936.23000000000002</ele>
        <time>2019-06-16T08:24:16Z</time>
      </trkpt>
      <trkpt lat="42.90302443318069" lon="13.045829376205802">
        <ele>938.34000000000003</ele>
        <time>2019-06-16T08:24:30Z</time>
      </trkpt>
      <trkpt lat="42.90298436768353" lon="13.045897018164396">
        <ele>939.64999999999998</ele>
        <time>2019-06-16T08:24:39Z</time>
      </trkpt>
      <trkpt lat="42.902927454560995" lon="13.046014280989766">
        <ele>941.13</ele>
        <time>2019-06-16T08:24:52Z</time>
      </trkpt>
      <trkpt lat="42.902887724339962" lon="13.046136070042849">
        <ele>942.60000000000002</ele>
        <time>2019-06-16T08:25:04Z</time>
      </trkpt>
      <trkpt lat="42.902870289981365" lon="13.046262720599771">
        <ele>943.62</ele>
        <time>2019-06-16T08:25:18Z</time>
      </trkpt>
      <trkpt lat="42.902839528396726" lon="13.046415103599429">
        <ele>944.5</ele>
        <time>2019-06-16T08:25:31Z</time>
      </trkpt>
      <trkpt lat="42.90282167494297" lon="13.04644544608891">
        <ele>944.55999999999995</ele>
        <time>2019-06-16T08:25:34Z</time>
      </trkpt>
      <trkpt lat="42.902796613052487" lon="13.046628087759018">
        <ele>945.63</ele>
        <time>2019-06-16T08:25:47Z</time>
      </trkpt>
      <trkpt lat="42.902734419330955" lon="13.046702016144991">
        <ele>946.52999999999997</ele>
        <time>2019-06-16T08:25:57Z</time>
      </trkpt>
      <trkpt lat="42.90267993696034" lon="13.046833276748657">
        <ele>948.22000000000003</ele>
        <time>2019-06-16T08:26:09Z</time>
      </trkpt>
      <trkpt lat="42.902646074071527" lon="13.046952551230788">
        <ele>949.24000000000001</ele>
        <time>2019-06-16T08:26:20Z</time>
      </trkpt>
      <trkpt lat="42.902628136798739" lon="13.047063108533621">
        <ele>950.49000000000001</ele>
        <time>2019-06-16T08:26:31Z</time>
      </trkpt>
      <trkpt lat="42.902590669691563" lon="13.047181209549308">
        <ele>951.84000000000003</ele>
        <time>2019-06-16T08:26:43Z</time>
      </trkpt>
      <trkpt lat="42.902551358565688" lon="13.047348596155643">
        <ele>953.92999999999995</ele>
        <time>2019-06-16T08:26:58Z</time>
      </trkpt>
      <trkpt lat="42.902515148743987" lon="13.047496285289526">
        <ele>956.08000000000004</ele>
        <time>2019-06-16T08:27:13Z</time>
      </trkpt>
      <trkpt lat="42.902471981942654" lon="13.047615392133594">
        <ele>958</ele>
        <time>2019-06-16T08:27:27Z</time>
      </trkpt>
      <trkpt lat="42.902400819584727" lon="13.047746904194355">
        <ele>959.78999999999996</ele>
        <time>2019-06-16T08:27:41Z</time>
      </trkpt>
      <trkpt lat="42.902348767966032" lon="13.047844804823399">
        <ele>961.85000000000002</ele>
        <time>2019-06-16T08:27:55Z</time>
      </trkpt>
      <trkpt lat="42.902304427698255" lon="13.047933652997017">
        <ele>963.36000000000001</ele>
        <time>2019-06-16T08:28:07Z</time>
      </trkpt>
      <trkpt lat="42.902225470170379" lon="13.048042701557279">
        <ele>965.13999999999999</ele>
        <time>2019-06-16T08:28:22Z</time>
      </trkpt>
      <trkpt lat="42.902154726907611" lon="13.048146888613701">
        <ele>967.59000000000003</ele>
        <time>2019-06-16T08:28:36Z</time>
      </trkpt>
      <trkpt lat="42.902151793241501" lon="13.048253422603011">
        <ele>969.22000000000003</ele>
        <time>2019-06-16T08:28:49Z</time>
      </trkpt>
      <trkpt lat="42.902097059413791" lon="13.048402704298496">
        <ele>971.50999999999999</ele>
        <time>2019-06-16T08:29:05Z</time>
      </trkpt>
      <trkpt lat="42.902081804350019" lon="13.048522565513849">
        <ele>973.94000000000005</ele>
        <time>2019-06-16T08:29:20Z</time>
      </trkpt>
      <trkpt lat="42.902048360556364" lon="13.048685174435377">
        <ele>976.88</ele>
        <time>2019-06-16T08:29:39Z</time>
      </trkpt>
      <trkpt lat="42.902047438547015" lon="13.048792295157909">
        <ele>979.25999999999999</ele>
        <time>2019-06-16T08:29:51Z</time>
      </trkpt>
      <trkpt lat="42.902047103270888" lon="13.048912575468421">
        <ele>981.52999999999997</ele>
        <time>2019-06-16T08:30:06Z</time>
      </trkpt>
      <trkpt lat="42.902091946452856" lon="13.049042914062738">
        <ele>983.97000000000003</ele>
        <time>2019-06-16T08:30:23Z</time>
      </trkpt>
      <trkpt lat="42.902059340849519" lon="13.049158500507474">
        <ele>986.53999999999996</ele>
        <time>2019-06-16T08:30:39Z</time>
      </trkpt>
      <trkpt lat="42.902053641155362" lon="13.04929755628109">
        <ele>989.22000000000003</ele>
        <time>2019-06-16T08:30:57Z</time>
      </trkpt>
      <trkpt lat="42.902058754116297" lon="13.049390092492104">
        <ele>991.36000000000001</ele>
        <time>2019-06-16T08:31:11Z</time>
      </trkpt>
      <trkpt lat="42.90207602083683" lon="13.049497716128826">
        <ele>993.96000000000004</ele>
        <time>2019-06-16T08:31:27Z</time>
      </trkpt>
      <trkpt lat="42.902107872068882" lon="13.049618247896433">
        <ele>996.67999999999995</ele>
        <time>2019-06-16T08:31:44Z</time>
      </trkpt>
      <trkpt lat="42.902089767158031" lon="13.049733163788915">
        <ele>999.01999999999998</ele>
        <time>2019-06-16T08:31:59Z</time>
      </trkpt>
      <trkpt lat="42.902050036936998" lon="13.049840535968542">
        <ele>1001.36</ele>
        <time>2019-06-16T08:32:16Z</time>
      </trkpt>
      <trkpt lat="42.901992872357368" lon="13.049919744953513">
        <ele>1003.73</ele>
        <time>2019-06-16T08:32:31Z</time>
      </trkpt>
      <trkpt lat="42.901933947578073" lon="13.050011694431305">
        <ele>1006.29</ele>
        <time>2019-06-16T08:32:47Z</time>
      </trkpt>
      <trkpt lat="42.901866221800447" lon="13.050086461007595">
        <ele>1008.1</ele>
        <time>2019-06-16T08:33:01Z</time>
      </trkpt>
      <trkpt lat="42.901803273707628" lon="13.050159383565187">
        <ele>1009.58</ele>
        <time>2019-06-16T08:33:17Z</time>
      </trkpt>
      <trkpt lat="42.901793634518981" lon="13.050169944763184">
        <ele>1010.98</ele>
        <time>2019-06-16T08:33:19Z</time>
      </trkpt>
      <trkpt lat="42.901728423312306" lon="13.050267677754164">
        <ele>1012.41</ele>
        <time>2019-06-16T08:33:36Z</time>
      </trkpt>
      <trkpt lat="42.901725992560387" lon="13.05028066970408">
        <ele>1013.63</ele>
        <time>2019-06-16T08:33:38Z</time>
      </trkpt>
      <trkpt lat="42.901683580130339" lon="13.050358789041638">
        <ele>1015.4400000000001</ele>
        <time>2019-06-16T08:33:50Z</time>
      </trkpt>
      <trkpt lat="42.901634378358722" lon="13.050488540902734">
        <ele>1016.63</ele>
        <time>2019-06-16T08:34:02Z</time>
      </trkpt>
      <trkpt lat="42.901587439700961" lon="13.050641594454646">
        <ele>1018.14</ele>
        <time>2019-06-16T08:34:16Z</time>
      </trkpt>
      <trkpt lat="42.901526503264904" lon="13.050765562802553">
        <ele>1019.46</ele>
        <time>2019-06-16T08:34:28Z</time>
      </trkpt>
      <trkpt lat="42.901499010622501" lon="13.050897577777505">
        <ele>1021.01</ele>
        <time>2019-06-16T08:34:42Z</time>
      </trkpt>
      <trkpt lat="42.901469841599464" lon="13.05106395855546">
        <ele>1023.24</ele>
        <time>2019-06-16T08:35:01Z</time>
      </trkpt>
      <trkpt lat="42.901410246267915" lon="13.051166133955121">
        <ele>1025.52</ele>
        <time>2019-06-16T08:35:14Z</time>
      </trkpt>
      <trkpt lat="42.901344615966082" lon="13.051274763420224">
        <ele>1027.6400000000001</ele>
        <time>2019-06-16T08:35:28Z</time>
      </trkpt>
      <trkpt lat="42.901280326768756" lon="13.051425637677312">
        <ele>1030.3299999999999</ele>
        <time>2019-06-16T08:35:47Z</time>
      </trkpt>
      <trkpt lat="42.90131812915206" lon="13.05152328684926">
        <ele>1032.3800000000001</ele>
        <time>2019-06-16T08:36:03Z</time>
      </trkpt>
      <trkpt lat="42.901392141357064" lon="13.051549689844251">
        <ele>1034.4300000000001</ele>
        <time>2019-06-16T08:36:17Z</time>
      </trkpt>
      <trkpt lat="42.901455508545041" lon="13.051584139466286">
        <ele>1035.53</ele>
        <time>2019-06-16T08:36:30Z</time>
      </trkpt>
      <trkpt lat="42.901470260694623" lon="13.051587827503681">
        <ele>1036.1199999999999</ele>
        <time>2019-06-16T08:36:42Z</time>
      </trkpt>
      <trkpt lat="42.901483923196793" lon="13.051584223285317">
        <ele>1034.8499999999999</ele>
        <time>2019-06-16T08:36:55Z</time>
      </trkpt>
      <trkpt lat="42.901494232937694" lon="13.05157701484859">
        <ele>1035.21</ele>
        <time>2019-06-16T08:37:13Z</time>
      </trkpt>
      <trkpt lat="42.901486940681934" lon="13.051574416458607">
        <ele>1035.1300000000001</ele>
        <time>2019-06-16T08:37:27Z</time>
      </trkpt>
      <trkpt lat="42.901478139683604" lon="13.051588330417871">
        <ele>1035.6900000000001</ele>
        <time>2019-06-16T08:37:42Z</time>
      </trkpt>
      <trkpt lat="42.901469925418496" lon="13.051600400358438">
        <ele>1036.23</ele>
        <time>2019-06-16T08:38:06Z</time>
      </trkpt>
      <trkpt lat="42.901464561000466" lon="13.051604088395834">
        <ele>1036.1300000000001</ele>
        <time>2019-06-16T08:38:29Z</time>
      </trkpt>
      <trkpt lat="42.901480151340365" lon="13.051605010405183">
        <ele>1036.55</ele>
        <time>2019-06-16T08:38:44Z</time>
      </trkpt>
      <trkpt lat="42.901486018672585" lon="13.051592605188489">
        <ele>1036.1700000000001</ele>
        <time>2019-06-16T08:38:59Z</time>
      </trkpt>
      <trkpt lat="42.901497166603804" lon="13.051576679572463">
        <ele>1036.6199999999999</ele>
        <time>2019-06-16T08:39:25Z</time>
      </trkpt>
      <trkpt lat="42.901481576263905" lon="13.05158925242722">
        <ele>1035.9100000000001</ele>
        <time>2019-06-16T08:39:42Z</time>
      </trkpt>
      <trkpt lat="42.901483168825507" lon="13.051588414236903">
        <ele>1037.21</ele>
        <time>2019-06-16T08:40:08Z</time>
      </trkpt>
      <trkpt lat="42.901468919590116" lon="13.051597466692328">
        <ele>1036.96</ele>
        <time>2019-06-16T08:40:22Z</time>
      </trkpt>
      <trkpt lat="42.901483252644539" lon="13.051590090617537">
        <ele>1037.29</ele>
        <time>2019-06-16T08:40:36Z</time>
      </trkpt>
      <trkpt lat="42.901474367827177" lon="13.05160098709166">
        <ele>1037.54</ele>
        <time>2019-06-16T08:40:59Z</time>
      </trkpt>
      <trkpt lat="42.901455424726009" lon="13.051634933799505">
        <ele>1037.72</ele>
        <time>2019-06-16T08:41:22Z</time>
      </trkpt>
      <trkpt lat="42.901488030329347" lon="13.051624456420541">
        <ele>1037.5999999999999</ele>
        <time>2019-06-16T08:41:43Z</time>
      </trkpt>
      <trkpt lat="42.901497585698962" lon="13.051625043153763">
        <ele>1037.8399999999999</ele>
        <time>2019-06-16T08:42:01Z</time>
      </trkpt>
      <trkpt lat="42.901503117755055" lon="13.051613811403513">
        <ele>1037.79</ele>
        <time>2019-06-16T08:42:28Z</time>
      </trkpt>
      <trkpt lat="42.901514181867242" lon="13.051622025668621">
        <ele>1037.8699999999999</ele>
        <time>2019-06-16T08:42:46Z</time>
      </trkpt>
      <trkpt lat="42.901513511314988" lon="13.051621858030558">
        <ele>1037.99</ele>
        <time>2019-06-16T08:43:04Z</time>
      </trkpt>
      <trkpt lat="42.901519127190113" lon="13.051617415621877">
        <ele>1038.3900000000001</ele>
        <time>2019-06-16T08:43:31Z</time>
      </trkpt>
      <trkpt lat="42.901509571820498" lon="13.051606602966785">
        <ele>1038.8499999999999</ele>
        <time>2019-06-16T08:43:55Z</time>
      </trkpt>
      <trkpt lat="42.901505883783102" lon="13.051605178043246">
        <ele>1038.78</ele>
        <time>2019-06-16T08:44:21Z</time>
      </trkpt>
      <trkpt lat="42.901492221280932" lon="13.051603669300675">
        <ele>1038.9300000000001</ele>
        <time>2019-06-16T08:44:41Z</time>
      </trkpt>
      <trkpt lat="42.901486773043871" lon="13.051601154729724">
        <ele>1038.95</ele>
        <time>2019-06-16T08:45:01Z</time>
      </trkpt>
      <trkpt lat="42.901497418060899" lon="13.051598975434899">
        <ele>1039.3099999999999</ele>
        <time>2019-06-16T08:45:20Z</time>
      </trkpt>
      <trkpt lat="42.901490880176425" lon="13.051587995141745">
        <ele>1039.55</ele>
        <time>2019-06-16T08:45:41Z</time>
      </trkpt>
      <trkpt lat="42.901544775813818" lon="13.051630659028888">
        <ele>1040.55</ele>
        <time>2019-06-16T08:46:00Z</time>
      </trkpt>
      <trkpt lat="42.901624487712979" lon="13.051688494160771">
        <ele>1042.28</ele>
        <time>2019-06-16T08:46:17Z</time>
      </trkpt>
      <trkpt lat="42.901707384735346" lon="13.051745407283306">
        <ele>1044.28</ele>
        <time>2019-06-16T08:46:30Z</time>
      </trkpt>
      <trkpt lat="42.90177988819778" lon="13.051858395338058">
        <ele>1046.8499999999999</ele>
        <time>2019-06-16T08:46:46Z</time>
      </trkpt>
      <trkpt lat="42.901827832683921" lon="13.051948165521026">
        <ele>1049.3399999999999</ele>
        <time>2019-06-16T08:47:01Z</time>
      </trkpt>
      <trkpt lat="42.901870915666223" lon="13.052049838006496">
        <ele>1051.28</ele>
        <time>2019-06-16T08:47:14Z</time>
      </trkpt>
      <trkpt lat="42.901950879022479" lon="13.052169447764754">
        <ele>1053.5699999999999</ele>
        <time>2019-06-16T08:47:30Z</time>
      </trkpt>
      <trkpt lat="42.90197242051363" lon="13.052288806065917">
        <ele>1055.5599999999999</ele>
        <time>2019-06-16T08:47:44Z</time>
      </trkpt>
      <trkpt lat="42.90200762450695" lon="13.052380755543709">
        <ele>1057.46</ele>
        <time>2019-06-16T08:47:57Z</time>
      </trkpt>
      <trkpt lat="42.902043582871556" lon="13.052494246512651">
        <ele>1059.49</ele>
        <time>2019-06-16T08:48:11Z</time>
      </trkpt>
      <trkpt lat="42.902102675288916" lon="13.052606983110309">
        <ele>1061.8699999999999</ele>
        <time>2019-06-16T08:48:27Z</time>
      </trkpt>
      <trkpt lat="42.902151709422469" lon="13.052704380825162">
        <ele>1063.47</ele>
        <time>2019-06-16T08:48:41Z</time>
      </trkpt>
      <trkpt lat="42.902199402451515" lon="13.052819967269897">
        <ele>1065.9400000000001</ele>
        <time>2019-06-16T08:48:57Z</time>
      </trkpt>
      <trkpt lat="42.902259919792414" lon="13.052928429096937">
        <ele>1068.03</ele>
        <time>2019-06-16T08:49:11Z</time>
      </trkpt>
      <trkpt lat="42.902320688590407" lon="13.053031275048852">
        <ele>1069.5599999999999</ele>
        <time>2019-06-16T08:49:25Z</time>
      </trkpt>
      <trkpt lat="42.902372153475881" lon="13.053107466548681">
        <ele>1071.25</ele>
        <time>2019-06-16T08:49:40Z</time>
      </trkpt>
      <trkpt lat="42.902397383004427" lon="13.053200170397758">
        <ele>1072.4400000000001</ele>
        <time>2019-06-16T08:49:55Z</time>
      </trkpt>
      <trkpt lat="42.902421522885561" lon="13.053305950015783">
        <ele>1075.1199999999999</ele>
        <time>2019-06-16T08:50:12Z</time>
      </trkpt>
      <trkpt lat="42.90245421230793" lon="13.05338541045785">
        <ele>1076.96</ele>
        <time>2019-06-16T08:50:25Z</time>
      </trkpt>
      <trkpt lat="42.902519004419446" lon="13.053487837314606">
        <ele>1078.0999999999999</ele>
        <time>2019-06-16T08:50:39Z</time>
      </trkpt>
      <trkpt lat="42.902585472911596" lon="13.053591521456838">
        <ele>1079.8499999999999</ele>
        <time>2019-06-16T08:50:53Z</time>
      </trkpt>
      <trkpt lat="42.90265453979373" lon="13.053720099851489">
        <ele>1081.96</ele>
        <time>2019-06-16T08:51:09Z</time>
      </trkpt>
      <trkpt lat="42.902713464573026" lon="13.053844487294555">
        <ele>1083.1099999999999</ele>
        <time>2019-06-16T08:51:25Z</time>
      </trkpt>
      <trkpt lat="42.902777083218098" lon="13.053966863080859">
        <ele>1085.5</ele>
        <time>2019-06-16T08:51:41Z</time>
      </trkpt>
      <trkpt lat="42.902798373252153" lon="13.054079683497548">
        <ele>1087.1500000000001</ele>
        <time>2019-06-16T08:51:55Z</time>
      </trkpt>
      <trkpt lat="42.90280164219439" lon="13.054207172244787">
        <ele>1089.2</ele>
        <time>2019-06-16T08:52:11Z</time>
      </trkpt>
      <trkpt lat="42.902790745720267" lon="13.054306581616402">
        <ele>1090.7</ele>
        <time>2019-06-16T08:52:24Z</time>
      </trkpt>
      <trkpt lat="42.902767360210419" lon="13.054433315992355">
        <ele>1093.5699999999999</ele>
        <time>2019-06-16T08:52:41Z</time>
      </trkpt>
      <trkpt lat="42.902731653302908" lon="13.054525768384337">
        <ele>1095.6400000000001</ele>
        <time>2019-06-16T08:52:54Z</time>
      </trkpt>
      <trkpt lat="42.902681948617101" lon="13.054625932127237">
        <ele>1098.6800000000001</ele>
        <time>2019-06-16T08:53:12Z</time>
      </trkpt>
      <trkpt lat="42.902611959725618" lon="13.054646635428071">
        <ele>1100.75</ele>
        <time>2019-06-16T08:53:25Z</time>
      </trkpt>
      <trkpt lat="42.902546999976039" lon="13.054662309587002">
        <ele>1102.6199999999999</ele>
        <time>2019-06-16T08:53:38Z</time>
      </trkpt>
      <trkpt lat="42.902429569512606" lon="13.054646216332912">
        <ele>1105.6600000000001</ele>
        <time>2019-06-16T08:53:56Z</time>
      </trkpt>
      <trkpt lat="42.902340553700924" lon="13.05466172285378">
        <ele>1107.29</ele>
        <time>2019-06-16T08:54:08Z</time>
      </trkpt>
      <trkpt lat="42.902251537889242" lon="13.054639929905534">
        <ele>1109.1700000000001</ele>
        <time>2019-06-16T08:54:21Z</time>
      </trkpt>
      <trkpt lat="42.902185237035155" lon="13.054623669013381">
        <ele>1111.25</ele>
        <time>2019-06-16T08:54:33Z</time>
      </trkpt>
      <trkpt lat="42.902074595913291" lon="13.054617214947939">
        <ele>1113.6400000000001</ele>
        <time>2019-06-16T08:54:51Z</time>
      </trkpt>
      <trkpt lat="42.902034362778068" lon="13.054615287110209">
        <ele>1114.6800000000001</ele>
        <time>2019-06-16T08:54:58Z</time>
      </trkpt>
      <trkpt lat="42.901922464370728" lon="13.054560385644436">
        <ele>1116.8699999999999</ele>
        <time>2019-06-16T08:55:13Z</time>
      </trkpt>
      <trkpt lat="42.901837220415473" lon="13.054538508877158">
        <ele>1118.45</ele>
        <time>2019-06-16T08:55:24Z</time>
      </trkpt>
      <trkpt lat="42.901726830750704" lon="13.054501041769981">
        <ele>1121.0799999999999</ele>
        <time>2019-06-16T08:55:38Z</time>
      </trkpt>
      <trkpt lat="42.901635719463229" lon="13.054448822513223">
        <ele>1122.95</ele>
        <time>2019-06-16T08:55:51Z</time>
      </trkpt>
      <trkpt lat="42.901492891833186" lon="13.054413283243775">
        <ele>1124.97</ele>
        <time>2019-06-16T08:56:08Z</time>
      </trkpt>
      <trkpt lat="42.901398260146379" lon="13.054372714832425">
        <ele>1126.52</ele>
        <time>2019-06-16T08:56:23Z</time>
      </trkpt>
      <trkpt lat="42.901292061433196" lon="13.054334241896868">
        <ele>1128.96</ele>
        <time>2019-06-16T08:56:38Z</time>
      </trkpt>
      <trkpt lat="42.901216875761747" lon="13.054293170571327">
        <ele>1130.54</ele>
        <time>2019-06-16T08:56:50Z</time>
      </trkpt>
      <trkpt lat="42.901117214933038" lon="13.054228713735938">
        <ele>1132.6300000000001</ele>
        <time>2019-06-16T08:57:06Z</time>
      </trkpt>
      <trkpt lat="42.901049237698317" lon="13.054189654067159">
        <ele>1135.0599999999999</ele>
        <time>2019-06-16T08:57:20Z</time>
      </trkpt>
      <trkpt lat="42.900961060076952" lon="13.05417213588953">
        <ele>1137.26</ele>
        <time>2019-06-16T08:57:36Z</time>
      </trkpt>
      <trkpt lat="42.900900710374117" lon="13.054164759814739">
        <ele>1139.45</ele>
        <time>2019-06-16T08:57:50Z</time>
      </trkpt>
      <trkpt lat="42.900796942412853" lon="13.054162077605724">
        <ele>1141.3</ele>
        <time>2019-06-16T08:58:05Z</time>
      </trkpt>
      <trkpt lat="42.900805324316025" lon="13.05416383780539">
        <ele>1141.4300000000001</ele>
        <time>2019-06-16T08:58:19Z</time>
      </trkpt>
      <trkpt lat="42.900804989039898" lon="13.054159479215741">
        <ele>1141.49</ele>
        <time>2019-06-16T08:58:37Z</time>
      </trkpt>
      <trkpt lat="42.90074304677546" lon="13.054164759814739">
        <ele>1142.79</ele>
        <time>2019-06-16T08:58:47Z</time>
      </trkpt>
      <trkpt lat="42.90065168403089" lon="13.054179428145289">
        <ele>1145.29</ele>
        <time>2019-06-16T08:59:01Z</time>
      </trkpt>
      <trkpt lat="42.900562584400177" lon="13.054185546934605">
        <ele>1147.6800000000001</ele>
        <time>2019-06-16T08:59:17Z</time>
      </trkpt>
      <trkpt lat="42.900488404557109" lon="13.054187055677176">
        <ele>1150.3099999999999</ele>
        <time>2019-06-16T08:59:31Z</time>
      </trkpt>
      <trkpt lat="42.900391174480319" lon="13.054186720401049">
        <ele>1152.4300000000001</ele>
        <time>2019-06-16T08:59:45Z</time>
      </trkpt>
      <trkpt lat="42.900286819785833" lon="13.054194515570998">
        <ele>1154.4200000000001</ele>
        <time>2019-06-16T08:59:58Z</time>
      </trkpt>
      <trkpt lat="42.900195121765137" lon="13.054164759814739">
        <ele>1156.21</ele>
        <time>2019-06-16T09:00:12Z</time>
      </trkpt>
      <trkpt lat="42.900110883638263" lon="13.054149588569999">
        <ele>1158.71</ele>
        <time>2019-06-16T09:00:30Z</time>
      </trkpt>
      <trkpt lat="42.900028489530087" lon="13.054173979908228">
        <ele>1161.25</ele>
        <time>2019-06-16T09:00:46Z</time>
      </trkpt>
      <trkpt lat="42.899972833693027" lon="13.054265175014734">
        <ele>1163.1300000000001</ele>
        <time>2019-06-16T09:00:59Z</time>
      </trkpt>
      <trkpt lat="42.899953555315733" lon="13.054321752861142">
        <ele>1165.23</ele>
        <time>2019-06-16T09:01:12Z</time>
      </trkpt>
      <trkpt lat="42.899941569194198" lon="13.054405655711889">
        <ele>1168.4000000000001</ele>
        <time>2019-06-16T09:01:26Z</time>
      </trkpt>
      <trkpt lat="42.89992505684495" lon="13.054495677351952">
        <ele>1170.29</ele>
        <time>2019-06-16T09:01:39Z</time>
      </trkpt>
      <trkpt lat="42.899905275553465" lon="13.054604893550277">
        <ele>1173.1700000000001</ele>
        <time>2019-06-16T09:01:55Z</time>
      </trkpt>
      <trkpt lat="42.899883147329092" lon="13.054678738117218">
        <ele>1175.8099999999999</ele>
        <time>2019-06-16T09:02:11Z</time>
      </trkpt>
      <trkpt lat="42.899886332452297" lon="13.054729364812374">
        <ele>1177.1400000000001</ele>
        <time>2019-06-16T09:02:25Z</time>
      </trkpt>
      <trkpt lat="42.899888511747122" lon="13.054726263508201">
        <ele>1176.47</ele>
        <time>2019-06-16T09:02:46Z</time>
      </trkpt>
      <trkpt lat="42.899886332452297" lon="13.054721150547266">
        <ele>1178.6900000000001</ele>
        <time>2019-06-16T09:02:48Z</time>
      </trkpt>
      <trkpt lat="42.899877950549126" lon="13.054800946265459">
        <ele>1179.0799999999999</ele>
        <time>2019-06-16T09:03:01Z</time>
      </trkpt>
      <trkpt lat="42.89986252784729" lon="13.054888620972633">
        <ele>1182.3699999999999</ele>
        <time>2019-06-16T09:03:15Z</time>
      </trkpt>
      <trkpt lat="42.89983319118619" lon="13.054970847442746">
        <ele>1184.5899999999999</ele>
        <time>2019-06-16T09:03:27Z</time>
      </trkpt>
      <trkpt lat="42.899796143174171" lon="13.0550751183182">
        <ele>1187.1500000000001</ele>
        <time>2019-06-16T09:03:41Z</time>
      </trkpt>
      <trkpt lat="42.899789437651634" lon="13.055170504376292">
        <ele>1190.3399999999999</ele>
        <time>2019-06-16T09:03:54Z</time>
      </trkpt>
      <trkpt lat="42.899780636653304" lon="13.055261364206672">
        <ele>1192.6099999999999</ele>
        <time>2019-06-16T09:04:06Z</time>
      </trkpt>
      <trkpt lat="42.899773009121418" lon="13.0553565826267">
        <ele>1195.1099999999999</ele>
        <time>2019-06-16T09:04:19Z</time>
      </trkpt>
      <trkpt lat="42.899764375761151" lon="13.055445263162255">
        <ele>1197</ele>
        <time>2019-06-16T09:04:31Z</time>
      </trkpt>
      <trkpt lat="42.899752641096711" lon="13.055491028353572">
        <ele>1198.5799999999999</ele>
        <time>2019-06-16T09:04:43Z</time>
      </trkpt>
      <trkpt lat="42.899699164554477" lon="13.055606363341212">
        <ele>1201.1199999999999</ele>
        <time>2019-06-16T09:04:59Z</time>
      </trkpt>
      <trkpt lat="42.899700338020921" lon="13.055619774386287">
        <ele>1200.73</ele>
        <time>2019-06-16T09:05:11Z</time>
      </trkpt>
      <trkpt lat="42.899682987481356" lon="13.055613823235035">
        <ele>1201.27</ele>
        <time>2019-06-16T09:05:25Z</time>
      </trkpt>
      <trkpt lat="42.89967929944396" lon="13.055610470473766">
        <ele>1201.3499999999999</ele>
        <time>2019-06-16T09:05:41Z</time>
      </trkpt>
      <trkpt lat="42.899645352736115" lon="13.055725721642375">
        <ele>1204.0599999999999</ele>
        <time>2019-06-16T09:05:56Z</time>
      </trkpt>
      <trkpt lat="42.899655746296048" lon="13.055872488766909">
        <ele>1206.3699999999999</ele>
        <time>2019-06-16T09:06:11Z</time>
      </trkpt>
      <trkpt lat="42.899694470688701" lon="13.056023865938187">
        <ele>1209.1099999999999</ele>
        <time>2019-06-16T09:06:27Z</time>
      </trkpt>
      <trkpt lat="42.899724645540118" lon="13.056149091571569">
        <ele>1211.6400000000001</ele>
        <time>2019-06-16T09:06:42Z</time>
      </trkpt>
      <trkpt lat="42.899751802906394" lon="13.056278508156538">
        <ele>1214.3399999999999</ele>
        <time>2019-06-16T09:06:57Z</time>
      </trkpt>
      <trkpt lat="42.89974283427" lon="13.056340031325817">
        <ele>1215.52</ele>
        <time>2019-06-16T09:07:07Z</time>
      </trkpt>
      <trkpt lat="42.899730009958148" lon="13.056444637477398">
        <ele>1216.9200000000001</ele>
        <time>2019-06-16T09:07:20Z</time>
      </trkpt>
      <trkpt lat="42.899709390476346" lon="13.056579921394587">
        <ele>1219.29</ele>
        <time>2019-06-16T09:07:34Z</time>
      </trkpt>
      <trkpt lat="42.899726070463657" lon="13.056687880307436">
        <ele>1222.1300000000001</ele>
        <time>2019-06-16T09:07:48Z</time>
      </trkpt>
      <trkpt lat="42.899739230051637" lon="13.056826516985893">
        <ele>1224.8800000000001</ele>
        <time>2019-06-16T09:08:04Z</time>
      </trkpt>
      <trkpt lat="42.89975113235414" lon="13.056941013783216">
        <ele>1228.01</ele>
        <time>2019-06-16T09:08:19Z</time>
      </trkpt>
      <trkpt lat="42.899774266406894" lon="13.057045871391892">
        <ele>1230.1600000000001</ele>
        <time>2019-06-16T09:08:34Z</time>
      </trkpt>
      <trkpt lat="42.899786252528429" lon="13.057198086753488">
        <ele>1232.5999999999999</ele>
        <time>2019-06-16T09:08:53Z</time>
      </trkpt>
      <trkpt lat="42.899776780977845" lon="13.057193895801902">
        <ele>1233.28</ele>
        <time>2019-06-16T09:09:07Z</time>
      </trkpt>
      <trkpt lat="42.899780804291368" lon="13.057255754247308">
        <ele>1234.28</ele>
        <time>2019-06-16T09:09:21Z</time>
      </trkpt>
      <trkpt lat="42.899784408509731" lon="13.05735650472343">
        <ele>1235.6600000000001</ele>
        <time>2019-06-16T09:09:35Z</time>
      </trkpt>
      <trkpt lat="42.899755155667663" lon="13.057509306818247">
        <ele>1237.8399999999999</ele>
        <time>2019-06-16T09:09:51Z</time>
      </trkpt>
      <trkpt lat="42.899709139019251" lon="13.057667473331094">
        <ele>1240.8</ele>
        <time>2019-06-16T09:10:08Z</time>
      </trkpt>
      <trkpt lat="42.899661865085363" lon="13.057799404487014">
        <ele>1243.46</ele>
        <time>2019-06-16T09:10:24Z</time>
      </trkpt>
      <trkpt lat="42.899625906720757" lon="13.057916415855289">
        <ele>1245.8800000000001</ele>
        <time>2019-06-16T09:10:39Z</time>
      </trkpt>
      <trkpt lat="42.899582320824265" lon="13.058029236271977">
        <ele>1247.8399999999999</ele>
        <time>2019-06-16T09:10:53Z</time>
      </trkpt>
      <trkpt lat="42.899557761847973" lon="13.058069720864296">
        <ele>1248.9400000000001</ele>
        <time>2019-06-16T09:11:08Z</time>
      </trkpt>
      <trkpt lat="42.899540662765503" lon="13.058135770261288">
        <ele>1250.0699999999999</ele>
        <time>2019-06-16T09:11:19Z</time>
      </trkpt>
      <trkpt lat="42.89954099804163" lon="13.058135854080319">
        <ele>1250.6700000000001</ele>
        <time>2019-06-16T09:11:50Z</time>
      </trkpt>
      <trkpt lat="42.899551643058658" lon="13.058176590129733">
        <ele>1250.98</ele>
        <time>2019-06-16T09:12:17Z</time>
      </trkpt>
      <trkpt lat="42.899488275870681" lon="13.058299804106355">
        <ele>1253.1199999999999</ele>
        <time>2019-06-16T09:12:32Z</time>
      </trkpt>
      <trkpt lat="42.899445025250316" lon="13.058427879586816">
        <ele>1256.0999999999999</ele>
        <time>2019-06-16T09:12:47Z</time>
      </trkpt>
      <trkpt lat="42.899410491809249" lon="13.058566013351083">
        <ele>1259.1900000000001</ele>
        <time>2019-06-16T09:13:03Z</time>
      </trkpt>
      <trkpt lat="42.899374281987548" lon="13.058697609230876">
        <ele>1261.6900000000001</ele>
        <time>2019-06-16T09:13:18Z</time>
      </trkpt>
      <trkpt lat="42.899338155984879" lon="13.058818140998483">
        <ele>1263.8299999999999</ele>
        <time>2019-06-16T09:13:33Z</time>
      </trkpt>
      <trkpt lat="42.899280488491058" lon="13.058958034962416">
        <ele>1265.75</ele>
        <time>2019-06-16T09:13:51Z</time>
      </trkpt>
      <trkpt lat="42.899230951443315" lon="13.059091474860907">
        <ele>1268.54</ele>
        <time>2019-06-16T09:14:07Z</time>
      </trkpt>
      <trkpt lat="42.899161549285054" lon="13.059201696887612">
        <ele>1270.53</ele>
        <time>2019-06-16T09:14:23Z</time>
      </trkpt>
      <trkpt lat="42.899106899276376" lon="13.059291634708643">
        <ele>1272.3800000000001</ele>
        <time>2019-06-16T09:14:38Z</time>
      </trkpt>
      <trkpt lat="42.899098517373204" lon="13.059301944449544">
        <ele>1272.53</ele>
        <time>2019-06-16T09:14:57Z</time>
      </trkpt>
      <trkpt lat="42.89909684099257" lon="13.059302866458893">
        <ele>1272.5699999999999</ele>
        <time>2019-06-16T09:15:19Z</time>
      </trkpt>
      <trkpt lat="42.899059541523457" lon="13.059349805116653">
        <ele>1273.3599999999999</ele>
        <time>2019-06-16T09:15:34Z</time>
      </trkpt>
      <trkpt lat="42.898990977555513" lon="13.059427002444863">
        <ele>1275.1300000000001</ele>
        <time>2019-06-16T09:15:49Z</time>
      </trkpt>
      <trkpt lat="42.898917887359858" lon="13.059504870325327">
        <ele>1276.47</ele>
        <time>2019-06-16T09:16:02Z</time>
      </trkpt>
      <trkpt lat="42.8988017141819" lon="13.059630431234837">
        <ele>1277.9300000000001</ele>
        <time>2019-06-16T09:16:21Z</time>
      </trkpt>
      <trkpt lat="42.898717811331153" lon="13.059722045436502">
        <ele>1278.74</ele>
        <time>2019-06-16T09:16:36Z</time>
      </trkpt>
      <trkpt lat="42.898663245141506" lon="13.059821370989084">
        <ele>1280.1800000000001</ele>
        <time>2019-06-16T09:16:49Z</time>
      </trkpt>
      <trkpt lat="42.898666933178902" lon="13.059981800615788">
        <ele>1281.79</ele>
        <time>2019-06-16T09:17:05Z</time>
      </trkpt>
      <trkpt lat="42.898668525740504" lon="13.060014825314283">
        <ele>1282.29</ele>
        <time>2019-06-16T09:17:18Z</time>
      </trkpt>
      <trkpt lat="42.898667016997933" lon="13.060117335990071">
        <ele>1282.9300000000001</ele>
        <time>2019-06-16T09:17:32Z</time>
      </trkpt>
      <trkpt lat="42.898667268455029" lon="13.060130495578051">
        <ele>1282.49</ele>
        <time>2019-06-16T09:17:43Z</time>
      </trkpt>
      <trkpt lat="42.898673722520471" lon="13.060124628245831">
        <ele>1283.03</ele>
        <time>2019-06-16T09:17:58Z</time>
      </trkpt>
      <trkpt lat="42.898685708642006" lon="13.060124544426799">
        <ele>1283.5899999999999</ele>
        <time>2019-06-16T09:18:11Z</time>
      </trkpt>
      <trkpt lat="42.898697359487414" lon="13.060119263827801">
        <ele>1282.0899999999999</ele>
        <time>2019-06-16T09:18:22Z</time>
      </trkpt>
      <trkpt lat="42.898676488548517" lon="13.060138123109937">
        <ele>1283.04</ele>
        <time>2019-06-16T09:18:39Z</time>
      </trkpt>
      <trkpt lat="42.898687887936831" lon="13.06012605316937">
        <ele>1283.7</ele>
        <time>2019-06-16T09:18:54Z</time>
      </trkpt>
      <trkpt lat="42.89868394844234" lon="13.060132171958685">
        <ele>1283.6400000000001</ele>
        <time>2019-06-16T09:19:13Z</time>
      </trkpt>
      <trkpt lat="42.898674225434661" lon="13.060127478092909">
        <ele>1283.5899999999999</ele>
        <time>2019-06-16T09:19:27Z</time>
      </trkpt>
      <trkpt lat="42.898631980642676" lon="13.060183972120285">
        <ele>1284.1700000000001</ele>
        <time>2019-06-16T09:19:39Z</time>
      </trkpt>
      <trkpt lat="42.898558303713799" lon="13.060133932158351">
        <ele>1284.0699999999999</ele>
        <time>2019-06-16T09:19:51Z</time>
      </trkpt>
      <trkpt lat="42.898492924869061" lon="13.060122113674879">
        <ele>1283.49</ele>
        <time>2019-06-16T09:20:02Z</time>
      </trkpt>
      <trkpt lat="42.898404831066728" lon="13.060137368738651">
        <ele>1283.6900000000001</ele>
        <time>2019-06-16T09:20:14Z</time>
      </trkpt>
      <trkpt lat="42.898410363122821" lon="13.060113061219454">
        <ele>1283.5999999999999</ele>
        <time>2019-06-16T09:20:24Z</time>
      </trkpt>
      <trkpt lat="42.898428551852703" lon="13.060119599103928">
        <ele>1284.0799999999999</ele>
        <time>2019-06-16T09:20:40Z</time>
      </trkpt>
      <trkpt lat="42.898399131372571" lon="13.060131417587399">
        <ele>1284.3699999999999</ele>
        <time>2019-06-16T09:20:57Z</time>
      </trkpt>
      <trkpt lat="42.8984010592103" lon="13.060119766741991">
        <ele>1280.5599999999999</ele>
        <time>2019-06-16T09:21:05Z</time>
      </trkpt>
      <trkpt lat="42.898400723934174" lon="13.060118928551674">
        <ele>1282.01</ele>
        <time>2019-06-16T09:21:06Z</time>
      </trkpt>
      <trkpt lat="42.898399382829666" lon="13.060117671266198">
        <ele>1287.3199999999999</ele>
        <time>2019-06-16T09:21:07Z</time>
      </trkpt>
      <trkpt lat="42.898398796096444" lon="13.060116833075881">
        <ele>1284.1400000000001</ele>
        <time>2019-06-16T09:21:08Z</time>
      </trkpt>
      <trkpt lat="42.89840248413384" lon="13.060117084532976">
        <ele>1285.3900000000001</ele>
        <time>2019-06-16T09:21:11Z</time>
      </trkpt>
      <trkpt lat="42.898402735590935" lon="13.060117000713944">
        <ele>1284.6800000000001</ele>
        <time>2019-06-16T09:21:13Z</time>
      </trkpt>
      <trkpt lat="42.898402651771903" lon="13.06011775508523">
        <ele>1284.53</ele>
        <time>2019-06-16T09:21:22Z</time>
      </trkpt>
      <trkpt lat="42.898406088352203" lon="13.060111636295915">
        <ele>1284.48</ele>
        <time>2019-06-16T09:21:43Z</time>
      </trkpt>
      <trkpt lat="42.898408938199282" lon="13.060119515284896">
        <ele>1284.95</ele>
        <time>2019-06-16T09:21:57Z</time>
      </trkpt>
      <trkpt lat="42.898406758904457" lon="13.060117671266198">
        <ele>1284.8299999999999</ele>
        <time>2019-06-16T09:22:12Z</time>
      </trkpt>
      <trkpt lat="42.89839955046773" lon="13.0601158272475">
        <ele>1285.25</ele>
        <time>2019-06-16T09:22:29Z</time>
      </trkpt>
      <trkpt lat="42.898403825238347" lon="13.06011532433331">
        <ele>1284.79</ele>
        <time>2019-06-16T09:22:47Z</time>
      </trkpt>
      <trkpt lat="42.89840541779995" lon="13.060116749256849">
        <ele>1285.6199999999999</ele>
        <time>2019-06-16T09:23:00Z</time>
      </trkpt>
      <trkpt lat="42.898403406143188" lon="13.060118341818452">
        <ele>1284.95</ele>
        <time>2019-06-16T09:23:24Z</time>
      </trkpt>
      <trkpt lat="42.898400640115142" lon="13.060114150866866">
        <ele>1285.3099999999999</ele>
        <time>2019-06-16T09:23:42Z</time>
      </trkpt>
      <trkpt lat="42.89839955046773" lon="13.060112139210105">
        <ele>1285.4100000000001</ele>
        <time>2019-06-16T09:24:00Z</time>
      </trkpt>
      <trkpt lat="42.898397287353873" lon="13.060110798105597">
        <ele>1285.6600000000001</ele>
        <time>2019-06-16T09:24:16Z</time>
      </trkpt>
      <trkpt lat="42.898395359516144" lon="13.060108618810773">
        <ele>1285.54</ele>
        <time>2019-06-16T09:24:35Z</time>
      </trkpt>
      <trkpt lat="42.8983941860497" lon="13.060117671266198">
        <ele>1285.2</ele>
        <time>2019-06-16T09:24:59Z</time>
      </trkpt>
      <trkpt lat="42.89839125238359" lon="13.060120437294245">
        <ele>1285.05</ele>
        <time>2019-06-16T09:25:22Z</time>
      </trkpt>
      <trkpt lat="42.898388653993607" lon="13.060119431465864">
        <ele>1285.1800000000001</ele>
        <time>2019-06-16T09:25:40Z</time>
      </trkpt>
      <trkpt lat="42.89839125238359" lon="13.060122281312943">
        <ele>1285.46</ele>
        <time>2019-06-16T09:25:58Z</time>
      </trkpt>
      <trkpt lat="42.89839519187808" lon="13.060124544426799">
        <ele>1285.54</ele>
        <time>2019-06-16T09:26:17Z</time>
      </trkpt>
      <trkpt lat="42.898395108059049" lon="13.060122197493911">
        <ele>1284.3199999999999</ele>
        <time>2019-06-16T09:26:42Z</time>
      </trkpt>
      <trkpt lat="42.898398460820317" lon="13.060123370960355">
        <ele>1285.5899999999999</ele>
        <time>2019-06-16T09:27:17Z</time>
      </trkpt>
      <trkpt lat="42.898398041725159" lon="13.060121107846498">
        <ele>1285.6700000000001</ele>
        <time>2019-06-16T09:27:31Z</time>
      </trkpt>
      <trkpt lat="42.898393431678414" lon="13.060116581618786">
        <ele>1285.52</ele>
        <time>2019-06-16T09:27:53Z</time>
      </trkpt>
      <trkpt lat="42.898395694792271" lon="13.060115156695247">
        <ele>1286.02</ele>
        <time>2019-06-16T09:28:20Z</time>
      </trkpt>
      <trkpt lat="42.898395778611302" lon="13.060115659609437">
        <ele>1279.8699999999999</ele>
        <time>2019-06-16T09:28:25Z</time>
      </trkpt>
      <trkpt lat="42.898396532982588" lon="13.060115240514278">
        <ele>1276.3199999999999</ele>
        <time>2019-06-16T09:28:26Z</time>
      </trkpt>
      <trkpt lat="42.898396532982588" lon="13.060115072876215">
        <ele>1281.28</ele>
        <time>2019-06-16T09:28:27Z</time>
      </trkpt>
      <trkpt lat="42.898396365344524" lon="13.060115575790405">
        <ele>1287.3599999999999</ele>
        <time>2019-06-16T09:28:28Z</time>
      </trkpt>
      <trkpt lat="42.898395778611302" lon="13.060116749256849">
        <ele>1288.29</ele>
        <time>2019-06-16T09:28:33Z</time>
      </trkpt>
      <trkpt lat="42.898396532982588" lon="13.060115743428469">
        <ele>1284.3</ele>
        <time>2019-06-16T09:28:35Z</time>
      </trkpt>
      <trkpt lat="42.898396281525493" lon="13.060115743428469">
        <ele>1284.2</ele>
        <time>2019-06-16T09:28:36Z</time>
      </trkpt>
      <trkpt lat="42.898394856601954" lon="13.060116162523627">
        <ele>1292.6700000000001</ele>
        <time>2019-06-16T09:28:41Z</time>
      </trkpt>
      <trkpt lat="42.898394856601954" lon="13.060116162523627">
        <ele>1289.29</ele>
        <time>2019-06-16T09:28:42Z</time>
      </trkpt>
      <trkpt lat="42.898394856601954" lon="13.060117419809103">
        <ele>1286.0699999999999</ele>
        <time>2019-06-16T09:28:44Z</time>
      </trkpt>
      <trkpt lat="42.898394605144858" lon="13.06011725217104">
        <ele>1285.8599999999999</ele>
        <time>2019-06-16T09:28:45Z</time>
      </trkpt>
      <trkpt lat="42.898392174392939" lon="13.060113061219454">
        <ele>1285.8299999999999</ele>
        <time>2019-06-16T09:29:14Z</time>
      </trkpt>
      <trkpt lat="42.898375494405627" lon="13.060148935765028">
        <ele>1286.29</ele>
        <time>2019-06-16T09:29:26Z</time>
      </trkpt>
      <trkpt lat="42.898276085034013" lon="13.06027608923614">
        <ele>1288.03</ele>
        <time>2019-06-16T09:29:42Z</time>
      </trkpt>
      <trkpt lat="42.898241467773914" lon="13.060369212180376">
        <ele>1289.1700000000001</ele>
        <time>2019-06-16T09:29:51Z</time>
      </trkpt>
      <trkpt lat="42.898192852735519" lon="13.060566522181034">
        <ele>1291.3599999999999</ele>
        <time>2019-06-16T09:30:09Z</time>
      </trkpt>
      <trkpt lat="42.898175418376923" lon="13.060744637623429">
        <ele>1292.6600000000001</ele>
        <time>2019-06-16T09:30:26Z</time>
      </trkpt>
      <trkpt lat="42.898186817765236" lon="13.060823176056147">
        <ele>1293.0799999999999</ele>
        <time>2019-06-16T09:30:40Z</time>
      </trkpt>
      <trkpt lat="42.898162761703134" lon="13.060932727530599">
        <ele>1294.1900000000001</ele>
        <time>2019-06-16T09:30:54Z</time>
      </trkpt>
      <trkpt lat="42.898138873279095" lon="13.060994753614068">
        <ele>1294.79</ele>
        <time>2019-06-16T09:31:05Z</time>
      </trkpt>
      <trkpt lat="42.898085648193955" lon="13.061151830479503">
        <ele>1296.47</ele>
        <time>2019-06-16T09:31:21Z</time>
      </trkpt>
      <trkpt lat="42.898011887446046" lon="13.061350481584668">
        <ele>1298.03</ele>
        <time>2019-06-16T09:31:39Z</time>
      </trkpt>
      <trkpt lat="42.897948017343879" lon="13.061563381925225">
        <ele>1299.3800000000001</ele>
        <time>2019-06-16T09:31:57Z</time>
      </trkpt>
      <trkpt lat="42.897926140576601" lon="13.06170092895627">
        <ele>1300.0999999999999</ele>
        <time>2019-06-16T09:32:08Z</time>
      </trkpt>
      <trkpt lat="42.897929577156901" lon="13.061727918684483">
        <ele>1300.3099999999999</ele>
        <time>2019-06-16T09:32:10Z</time>
      </trkpt>
      <trkpt lat="42.897897893562913" lon="13.06195548735559">
        <ele>1302.5</ele>
        <time>2019-06-16T09:32:27Z</time>
      </trkpt>
      <trkpt lat="42.8978605940938" lon="13.062128238379955">
        <ele>1304.4400000000001</ele>
        <time>2019-06-16T09:32:42Z</time>
      </trkpt>
      <trkpt lat="42.89782103151083" lon="13.062319345772266">
        <ele>1306.6300000000001</ele>
        <time>2019-06-16T09:32:58Z</time>
      </trkpt>
      <trkpt lat="42.897794460877776" lon="13.062560996040702">
        <ele>1308.3399999999999</ele>
        <time>2019-06-16T09:33:16Z</time>
      </trkpt>
      <trkpt lat="42.897764788940549" lon="13.062763335183263">
        <ele>1310.28</ele>
        <time>2019-06-16T09:33:32Z</time>
      </trkpt>
      <trkpt lat="42.897733356803656" lon="13.062994424253702">
        <ele>1312.4200000000001</ele>
        <time>2019-06-16T09:33:50Z</time>
      </trkpt>
      <trkpt lat="42.89770619943738" lon="13.06314286775887">
        <ele>1314.3099999999999</ele>
        <time>2019-06-16T09:34:03Z</time>
      </trkpt>
      <trkpt lat="42.897665128111839" lon="13.063294915482402">
        <ele>1316.8499999999999</ele>
        <time>2019-06-16T09:34:18Z</time>
      </trkpt>
      <trkpt lat="42.897591115906835" lon="13.063432713970542">
        <ele>1318.74</ele>
        <time>2019-06-16T09:34:32Z</time>
      </trkpt>
      <trkpt lat="42.89752590470016" lon="13.063598927110434">
        <ele>1321.1300000000001</ele>
        <time>2019-06-16T09:34:48Z</time>
      </trkpt>
      <trkpt lat="42.897485252469778" lon="13.063774611800909">
        <ele>1322.8099999999999</ele>
        <time>2019-06-16T09:35:03Z</time>
      </trkpt>
      <trkpt lat="42.897463208064437" lon="13.063940824940801">
        <ele>1324.5699999999999</ele>
        <time>2019-06-16T09:35:18Z</time>
      </trkpt>
      <trkpt lat="42.897463543340564" lon="13.063980471342802">
        <ele>1325.6400000000001</ele>
        <time>2019-06-16T09:35:29Z</time>
      </trkpt>
      <trkpt lat="42.897448372095823" lon="13.064132854342461">
        <ele>1326.21</ele>
        <time>2019-06-16T09:35:43Z</time>
      </trkpt>
      <trkpt lat="42.897432865574956" lon="13.064331421628594">
        <ele>1327.78</ele>
        <time>2019-06-16T09:35:59Z</time>
      </trkpt>
      <trkpt lat="42.897407552227378" lon="13.064562426880002">
        <ele>1329.47</ele>
        <time>2019-06-16T09:36:18Z</time>
      </trkpt>
      <trkpt lat="42.897384334355593" lon="13.064764766022563">
        <ele>1331.3099999999999</ele>
        <time>2019-06-16T09:36:35Z</time>
      </trkpt>
      <trkpt lat="42.897358518093824" lon="13.064989065751433">
        <ele>1333.3099999999999</ele>
        <time>2019-06-16T09:36:53Z</time>
      </trkpt>
      <trkpt lat="42.897340999916196" lon="13.065111944451928">
        <ele>1334.48</ele>
        <time>2019-06-16T09:37:08Z</time>
      </trkpt>
      <trkpt lat="42.897331947460771" lon="13.065247647464275">
        <ele>1335.23</ele>
        <time>2019-06-16T09:37:21Z</time>
      </trkpt>
      <trkpt lat="42.89732163771987" lon="13.065387373790145">
        <ele>1336.74</ele>
        <time>2019-06-16T09:37:36Z</time>
      </trkpt>
      <trkpt lat="42.89731434546411" lon="13.065515868365765">
        <ele>1337.2</ele>
        <time>2019-06-16T09:37:49Z</time>
      </trkpt>
      <trkpt lat="42.897295318543911" lon="13.065736060962081">
        <ele>1338.47</ele>
        <time>2019-06-16T09:38:07Z</time>
      </trkpt>
      <trkpt lat="42.89729573763907" lon="13.065954660996795">
        <ele>1339.6400000000001</ele>
        <time>2019-06-16T09:38:24Z</time>
      </trkpt>
      <trkpt lat="42.897310825064778" lon="13.066077874973416">
        <ele>1340.1600000000001</ele>
        <time>2019-06-16T09:38:40Z</time>
      </trkpt>
      <trkpt lat="42.897308729588985" lon="13.066075025126338">
        <ele>1340.24</ele>
        <time>2019-06-16T09:39:00Z</time>
      </trkpt>
      <trkpt lat="42.897290037944913" lon="13.066132692620158">
        <ele>1341.5</ele>
        <time>2019-06-16T09:39:16Z</time>
      </trkpt>
      <trkpt lat="42.897277548909187" lon="13.066280633211136">
        <ele>1342.4400000000001</ele>
        <time>2019-06-16T09:39:29Z</time>
      </trkpt>
      <trkpt lat="42.897278051823378" lon="13.066321620717645">
        <ele>1341.5899999999999</ele>
        <time>2019-06-16T09:39:42Z</time>
      </trkpt>
      <trkpt lat="42.897276878356934" lon="13.066369816660881">
        <ele>1342.74</ele>
        <time>2019-06-16T09:40:02Z</time>
      </trkpt>
      <trkpt lat="42.897290121763945" lon="13.066375432536006">
        <ele>1342.53</ele>
        <time>2019-06-16T09:40:16Z</time>
      </trkpt>
      <trkpt lat="42.897291462868452" lon="13.06637417525053">
        <ele>1342.1300000000001</ele>
        <time>2019-06-16T09:40:27Z</time>
      </trkpt>
      <trkpt lat="42.897273441776633" lon="13.066370151937008">
        <ele>1343.0899999999999</ele>
        <time>2019-06-16T09:40:44Z</time>
      </trkpt>
      <trkpt lat="42.897240919992328" lon="13.066377528011799">
        <ele>1342.8900000000001</ele>
        <time>2019-06-16T09:40:56Z</time>
      </trkpt>
      <trkpt lat="42.897248128429055" lon="13.066407535225153">
        <ele>1342.8699999999999</ele>
        <time>2019-06-16T09:41:00Z</time>
      </trkpt>
      <trkpt lat="42.897243853658438" lon="13.066434105858207">
        <ele>1343.3199999999999</ele>
        <time>2019-06-16T09:41:02Z</time>
      </trkpt>
      <trkpt lat="42.897210074588656" lon="13.06652219966054">
        <ele>1343.8</ele>
        <time>2019-06-16T09:41:15Z</time>
      </trkpt>
      <trkpt lat="42.897208146750927" lon="13.066520104184747">
        <ele>1342.96</ele>
        <time>2019-06-16T09:41:27Z</time>
      </trkpt>
      <trkpt lat="42.897209655493498" lon="13.066512141376734">
        <ele>1343.1099999999999</ele>
        <time>2019-06-16T09:41:56Z</time>
      </trkpt>
      <trkpt lat="42.89720831438899" lon="13.066525384783745">
        <ele>1343.79</ele>
        <time>2019-06-16T09:42:13Z</time>
      </trkpt>
      <trkpt lat="42.897218121215701" lon="13.066572742536664">
        <ele>1343.97</ele>
        <time>2019-06-16T09:42:17Z</time>
      </trkpt>
      <trkpt lat="42.897194903343916" lon="13.066792180761695">
        <ele>1345.3499999999999</ele>
        <time>2019-06-16T09:42:34Z</time>
      </trkpt>
      <trkpt lat="42.897178390994668" lon="13.067041793838143">
        <ele>1346.9400000000001</ele>
        <time>2019-06-16T09:42:53Z</time>
      </trkpt>
      <trkpt lat="42.897153496742249" lon="13.067279001697898">
        <ele>1348.48</ele>
        <time>2019-06-16T09:43:11Z</time>
      </trkpt>
      <trkpt lat="42.89712080731988" lon="13.067501876503229">
        <ele>1349.9000000000001</ele>
        <time>2019-06-16T09:43:28Z</time>
      </trkpt>
      <trkpt lat="42.897073784843087" lon="13.067715112119913">
        <ele>1351.6800000000001</ele>
        <time>2019-06-16T09:43:45Z</time>
      </trkpt>
      <trkpt lat="42.897024834528565" lon="13.067899597808719">
        <ele>1353.0699999999999</ele>
        <time>2019-06-16T09:44:00Z</time>
      </trkpt>
      <trkpt lat="42.896966161206365" lon="13.068101098760962">
        <ele>1354.6300000000001</ele>
        <time>2019-06-16T09:44:16Z</time>
      </trkpt>
      <trkpt lat="42.896931041032076" lon="13.068206207826734">
        <ele>1355.4100000000001</ele>
        <time>2019-06-16T09:44:28Z</time>
      </trkpt>
      <trkpt lat="42.896851915866137" lon="13.068374348804355">
        <ele>1356.76</ele>
        <time>2019-06-16T09:44:43Z</time>
      </trkpt>
      <trkpt lat="42.896747812628746" lon="13.068513488397002">
        <ele>1358.46</ele>
        <time>2019-06-16T09:44:58Z</time>
      </trkpt>
      <trkpt lat="42.896649073809385" lon="13.068649945780635">
        <ele>1359.9100000000001</ele>
        <time>2019-06-16T09:45:13Z</time>
      </trkpt>
      <trkpt lat="42.89653885178268" lon="13.068861505016685">
        <ele>1360.46</ele>
        <time>2019-06-16T09:45:32Z</time>
      </trkpt>
      <trkpt lat="42.896447153761983" lon="13.069050600752234">
        <ele>1360.6500000000001</ele>
        <time>2019-06-16T09:45:48Z</time>
      </trkpt>
      <trkpt lat="42.896371716633439" lon="13.069215221330523">
        <ele>1360.45</ele>
        <time>2019-06-16T09:46:03Z</time>
      </trkpt>
      <trkpt lat="42.896376997232437" lon="13.069265093654394">
        <ele>1360.75</ele>
        <time>2019-06-16T09:46:12Z</time>
      </trkpt>
      <trkpt lat="42.896367441862822" lon="13.069297363981605">
        <ele>1360.5999999999999</ele>
        <time>2019-06-16T09:46:15Z</time>
      </trkpt>
      <trkpt lat="42.896401723846793" lon="13.069562315940857">
        <ele>1361.4300000000001</ele>
        <time>2019-06-16T09:46:33Z</time>
      </trkpt>
      <trkpt lat="42.896476238965988" lon="13.069664072245359">
        <ele>1363.55</ele>
        <time>2019-06-16T09:46:47Z</time>
      </trkpt>
      <trkpt lat="42.896506665274501" lon="13.069660970941186">
        <ele>1364.9000000000001</ele>
        <time>2019-06-16T09:47:00Z</time>
      </trkpt>
      <trkpt lat="42.896563913673162" lon="13.069800613448024">
        <ele>1365.3</ele>
        <time>2019-06-16T09:47:14Z</time>
      </trkpt>
      <trkpt lat="42.896594423800707" lon="13.069845037534833">
        <ele>1365.22</ele>
        <time>2019-06-16T09:47:23Z</time>
      </trkpt>
      <trkpt lat="42.896588472649455" lon="13.069854509085417">
        <ele>1364.73</ele>
        <time>2019-06-16T09:47:41Z</time>
      </trkpt>
      <trkpt lat="42.896586377173662" lon="13.069850904867053">
        <ele>1365.3299999999999</ele>
        <time>2019-06-16T09:47:57Z</time>
      </trkpt>
      <trkpt lat="42.896591071039438" lon="13.069870015606284">
        <ele>1365.4400000000001</ele>
        <time>2019-06-16T09:48:02Z</time>
      </trkpt>
      <trkpt lat="42.896600794047117" lon="13.069970430806279">
        <ele>1365</ele>
        <time>2019-06-16T09:48:15Z</time>
      </trkpt>
      <trkpt lat="42.896602051332593" lon="13.069961629807949">
        <ele>1363.8699999999999</ele>
        <time>2019-06-16T09:48:25Z</time>
      </trkpt>
      <trkpt lat="42.896607583388686" lon="13.069978645071387">
        <ele>1364.52</ele>
        <time>2019-06-16T09:48:43Z</time>
      </trkpt>
      <trkpt lat="42.896607415750623" lon="13.069988451898098">
        <ele>1364.5899999999999</ele>
        <time>2019-06-16T09:49:04Z</time>
      </trkpt>
      <trkpt lat="42.896612193435431" lon="13.069977387785912">
        <ele>1364.23</ele>
        <time>2019-06-16T09:49:21Z</time>
      </trkpt>
      <trkpt lat="42.896610517054796" lon="13.069968754425645">
        <ele>1364.4200000000001</ele>
        <time>2019-06-16T09:49:41Z</time>
      </trkpt>
      <trkpt lat="42.896613785997033" lon="13.069959282875061">
        <ele>1365.23</ele>
        <time>2019-06-16T09:49:58Z</time>
      </trkpt>
      <trkpt lat="42.896613366901875" lon="13.069958863779902">
        <ele>1365.5999999999999</ele>
        <time>2019-06-16T09:50:17Z</time>
      </trkpt>
      <trkpt lat="42.896616049110889" lon="13.069962551817298">
        <ele>1365.25</ele>
        <time>2019-06-16T09:50:33Z</time>
      </trkpt>
      <trkpt lat="42.89661412127316" lon="13.069961378350854">
        <ele>1365.3499999999999</ele>
        <time>2019-06-16T09:50:51Z</time>
      </trkpt>
      <trkpt lat="42.896609762683511" lon="13.069959366694093">
        <ele>1365.24</ele>
        <time>2019-06-16T09:51:07Z</time>
      </trkpt>
      <trkpt lat="42.896609343588352" lon="13.069960540160537">
        <ele>1365.28</ele>
        <time>2019-06-16T09:51:31Z</time>
      </trkpt>
      <trkpt lat="42.896613283082843" lon="13.069959618151188">
        <ele>1368.3399999999999</ele>
        <time>2019-06-16T09:51:35Z</time>
      </trkpt>
      <trkpt lat="42.89661412127316" lon="13.069959115236998">
        <ele>1366.0999999999999</ele>
        <time>2019-06-16T09:51:36Z</time>
      </trkpt>
      <trkpt lat="42.896614205092192" lon="13.069959031417966">
        <ele>1362.6500000000001</ele>
        <time>2019-06-16T09:51:37Z</time>
      </trkpt>
      <trkpt lat="42.896612193435431" lon="13.069959366694093">
        <ele>1365.1400000000001</ele>
        <time>2019-06-16T09:51:38Z</time>
      </trkpt>
      <trkpt lat="42.896612025797367" lon="13.06996121071279">
        <ele>1366.24</ele>
        <time>2019-06-16T09:51:40Z</time>
      </trkpt>
      <trkpt lat="42.89661169052124" lon="13.069961126893759">
        <ele>1365.3900000000001</ele>
        <time>2019-06-16T09:51:42Z</time>
      </trkpt>
      <trkpt lat="42.896586880087852" lon="13.069973448291421">
        <ele>1365.6500000000001</ele>
        <time>2019-06-16T09:51:55Z</time>
      </trkpt>
      <trkpt lat="42.896583778783679" lon="13.069985434412956">
        <ele>1365.51</ele>
        <time>2019-06-16T09:52:11Z</time>
      </trkpt>
      <trkpt lat="42.896575815975666" lon="13.069984596222639">
        <ele>1365.5599999999999</ele>
        <time>2019-06-16T09:52:32Z</time>
      </trkpt>
      <trkpt lat="42.896570786833763" lon="13.069982081651688">
        <ele>1365.1300000000001</ele>
        <time>2019-06-16T09:52:47Z</time>
      </trkpt>
      <trkpt lat="42.896578665822744" lon="13.069979231804609">
        <ele>1365.8</ele>
        <time>2019-06-16T09:53:06Z</time>
      </trkpt>
      <trkpt lat="42.896576402708888" lon="13.069978058338165">
        <ele>1365.8800000000001</ele>
        <time>2019-06-16T09:53:23Z</time>
      </trkpt>
      <trkpt lat="42.896573133766651" lon="13.069983506575227">
        <ele>1365.8699999999999</ele>
        <time>2019-06-16T09:53:54Z</time>
      </trkpt>
      <trkpt lat="42.896557124331594" lon="13.070044694468379">
        <ele>1366.3</ele>
        <time>2019-06-16T09:54:07Z</time>
      </trkpt>
      <trkpt lat="42.896513035520911" lon="13.070242423564196">
        <ele>1365.53</ele>
        <time>2019-06-16T09:54:22Z</time>
      </trkpt>
      <trkpt lat="42.896446818485856" lon="13.070472422987223">
        <ele>1365.02</ele>
        <time>2019-06-16T09:54:39Z</time>
      </trkpt>
      <trkpt lat="42.89635562337935" lon="13.070685658603907">
        <ele>1366.27</ele>
        <time>2019-06-16T09:54:56Z</time>
      </trkpt>
      <trkpt lat="42.896259482949972" lon="13.070892188698053">
        <ele>1367.0799999999999</ele>
        <time>2019-06-16T09:55:14Z</time>
      </trkpt>
      <trkpt lat="42.896146662533283" lon="13.071058820933104">
        <ele>1368.8299999999999</ele>
        <time>2019-06-16T09:55:32Z</time>
      </trkpt>
      <trkpt lat="42.896075583994389" lon="13.071116823703051">
        <ele>1369.6099999999999</ele>
        <time>2019-06-16T09:55:41Z</time>
      </trkpt>
      <trkpt lat="42.895926218479872" lon="13.071132078766823">
        <ele>1371.0599999999999</ele>
        <time>2019-06-16T09:55:58Z</time>
      </trkpt>
      <trkpt lat="42.895778277888894" lon="13.071119338274002">
        <ele>1373.1900000000001</ele>
        <time>2019-06-16T09:56:15Z</time>
      </trkpt>
      <trkpt lat="42.895654058083892" lon="13.071068543940783">
        <ele>1374.8399999999999</ele>
        <time>2019-06-16T09:56:31Z</time>
      </trkpt>
      <trkpt lat="42.89556504227221" lon="13.071026634424925">
        <ele>1376.4100000000001</ele>
        <time>2019-06-16T09:56:43Z</time>
      </trkpt>
      <trkpt lat="42.895425818860531" lon="13.070959243923426">
        <ele>1378.53</ele>
        <time>2019-06-16T09:57:00Z</time>
      </trkpt>
      <trkpt lat="42.895299671217799" lon="13.070898056030273">
        <ele>1380.5599999999999</ele>
        <time>2019-06-16T09:57:16Z</time>
      </trkpt>
      <trkpt lat="42.895180732011795" lon="13.070838544517756">
        <ele>1383.0999999999999</ele>
        <time>2019-06-16T09:57:32Z</time>
      </trkpt>
      <trkpt lat="42.895065564662218" lon="13.070780457928777">
        <ele>1385.0899999999999</ele>
        <time>2019-06-16T09:57:49Z</time>
      </trkpt>
      <trkpt lat="42.894954169169068" lon="13.070722790434957">
        <ele>1387.0699999999999</ele>
        <time>2019-06-16T09:58:05Z</time>
      </trkpt>
      <trkpt lat="42.894863476976752" lon="13.070680713281035">
        <ele>1388.8099999999999</ele>
        <time>2019-06-16T09:58:18Z</time>
      </trkpt>
      <trkpt lat="42.894725007936358" lon="13.07060913182795">
        <ele>1391.6700000000001</ele>
        <time>2019-06-16T09:58:38Z</time>
      </trkpt>
      <trkpt lat="42.894623083993793" lon="13.070548865944147">
        <ele>1393.9200000000001</ele>
        <time>2019-06-16T09:58:54Z</time>
      </trkpt>
      <trkpt lat="42.894512861967087" lon="13.070487678050995">
        <ele>1395.8099999999999</ele>
        <time>2019-06-16T09:59:11Z</time>
      </trkpt>
      <trkpt lat="42.89439769461751" lon="13.070413582026958">
        <ele>1398.1400000000001</ele>
        <time>2019-06-16T09:59:30Z</time>
      </trkpt>
      <trkpt lat="42.894301721826196" lon="13.070346778258681">
        <ele>1400.0899999999999</ele>
        <time>2019-06-16T09:59:46Z</time>
      </trkpt>
      <trkpt lat="42.894183034077287" lon="13.070358764380217">
        <ele>1402.1700000000001</ele>
        <time>2019-06-16T10:00:04Z</time>
      </trkpt>
      <trkpt lat="42.894063172861934" lon="13.070432189851999">
        <ele>1403.5599999999999</ele>
        <time>2019-06-16T10:00:21Z</time>
      </trkpt>
      <trkpt lat="42.893951525911689" lon="13.070479799062014">
        <ele>1405.3399999999999</ele>
        <time>2019-06-16T10:00:37Z</time>
      </trkpt>
      <trkpt lat="42.893818505108356" lon="13.070526067167521">
        <ele>1406.99</ele>
        <time>2019-06-16T10:00:55Z</time>
      </trkpt>
      <trkpt lat="42.893755305558443" lon="13.070544004440308">
        <ele>1407.6800000000001</ele>
        <time>2019-06-16T10:01:05Z</time>
      </trkpt>
      <trkpt lat="42.893668469041586" lon="13.070580130442977">
        <ele>1409.25</ele>
        <time>2019-06-16T10:01:20Z</time>
      </trkpt>
      <trkpt lat="42.893556402996182" lon="13.070627572014928">
        <ele>1410.5899999999999</ele>
        <time>2019-06-16T10:01:35Z</time>
      </trkpt>
      <trkpt lat="42.893447438254952" lon="13.070686748251319">
        <ele>1411.72</ele>
        <time>2019-06-16T10:01:49Z</time>
      </trkpt>
      <trkpt lat="42.89339211769402" lon="13.070713737979531">
        <ele>1412.3399999999999</ele>
        <time>2019-06-16T10:01:56Z</time>
      </trkpt>
      <trkpt lat="42.893276950344443" lon="13.070717845112085">
        <ele>1413.48</ele>
        <time>2019-06-16T10:02:11Z</time>
      </trkpt>
      <trkpt lat="42.893166476860642" lon="13.070605779066682">
        <ele>1415.6900000000001</ele>
        <time>2019-06-16T10:02:28Z</time>
      </trkpt>
      <trkpt lat="42.893078969791532" lon="13.070485331118107">
        <ele>1417.0799999999999</ele>
        <time>2019-06-16T10:02:42Z</time>
      </trkpt>
      <trkpt lat="42.893003867939115" lon="13.070346442982554">
        <ele>1417.3199999999999</ele>
        <time>2019-06-16T10:02:56Z</time>
      </trkpt>
      <trkpt lat="42.89293278940022" lon="13.070167740806937">
        <ele>1418.4300000000001</ele>
        <time>2019-06-16T10:03:12Z</time>
      </trkpt>
      <trkpt lat="42.89288928732276" lon="13.070063469931483">
        <ele>1419.6300000000001</ele>
        <time>2019-06-16T10:03:22Z</time>
      </trkpt>
      <trkpt lat="42.892774287611246" lon="13.069929527118802">
        <ele>1420.4300000000001</ele>
        <time>2019-06-16T10:03:39Z</time>
      </trkpt>
      <trkpt lat="42.892661467194557" lon="13.069789130240679">
        <ele>1420.9100000000001</ele>
        <time>2019-06-16T10:03:56Z</time>
      </trkpt>
      <trkpt lat="42.892529033124447" lon="13.06967337615788">
        <ele>1420.26</ele>
        <time>2019-06-16T10:04:11Z</time>
      </trkpt>
      <trkpt lat="42.892473125830293" lon="13.069635070860386">
        <ele>1420.5599999999999</ele>
        <time>2019-06-16T10:04:22Z</time>
      </trkpt>
      <trkpt lat="42.892345720902085" lon="13.069569859653711">
        <ele>1421.1099999999999</ele>
        <time>2019-06-16T10:04:37Z</time>
      </trkpt>
      <trkpt lat="42.892337087541819" lon="13.069560891017318">
        <ele>1421.22</ele>
        <time>2019-06-16T10:04:53Z</time>
      </trkpt>
      <trkpt lat="42.892357539385557" lon="13.069543791934848">
        <ele>1420.6099999999999</ele>
        <time>2019-06-16T10:05:08Z</time>
      </trkpt>
      <trkpt lat="42.892353683710098" lon="13.06951261125505">
        <ele>1420.6300000000001</ele>
        <time>2019-06-16T10:05:20Z</time>
      </trkpt>
      <trkpt lat="42.892348151654005" lon="13.069517556577921">
        <ele>1420.26</ele>
        <time>2019-06-16T10:05:35Z</time>
      </trkpt>
      <trkpt lat="42.892344212159514" lon="13.069506576284766">
        <ele>1421.5899999999999</ele>
        <time>2019-06-16T10:05:52Z</time>
      </trkpt>
      <trkpt lat="42.892354018986225" lon="13.069500541314483">
        <ele>1421.23</ele>
        <time>2019-06-16T10:05:58Z</time>
      </trkpt>
      <trkpt lat="42.892412440851331" lon="13.069414459168911">
        <ele>1419.9200000000001</ele>
        <time>2019-06-16T10:06:09Z</time>
      </trkpt>
      <trkpt lat="42.892457451671362" lon="13.069339524954557">
        <ele>1420.54</ele>
        <time>2019-06-16T10:06:19Z</time>
      </trkpt>
      <trkpt lat="42.892490141093731" lon="13.06929275393486">
        <ele>1420.01</ele>
        <time>2019-06-16T10:06:24Z</time>
      </trkpt>
      <trkpt lat="42.892528027296066" lon="13.069236343726516">
        <ele>1420.01</ele>
        <time>2019-06-16T10:06:30Z</time>
      </trkpt>
      <trkpt lat="42.892623664811254" lon="13.069110028445721">
        <ele>1419.77</ele>
        <time>2019-06-16T10:06:45Z</time>
      </trkpt>
      <trkpt lat="42.892713602632284" lon="13.069015564396977">
        <ele>1419.0999999999999</ele>
        <time>2019-06-16T10:06:57Z</time>
      </trkpt>
      <trkpt lat="42.892787950113416" lon="13.068918753415346">
        <ele>1418.54</ele>
        <time>2019-06-16T10:07:10Z</time>
      </trkpt>
      <trkpt lat="42.892870176583529" lon="13.068824037909508">
        <ele>1418.1600000000001</ele>
        <time>2019-06-16T10:07:22Z</time>
      </trkpt>
      <trkpt lat="42.892977129667997" lon="13.068725969642401">
        <ele>1418.01</ele>
        <time>2019-06-16T10:07:35Z</time>
      </trkpt>
      <trkpt lat="42.893080478534102" lon="13.0685964692384">
        <ele>1417.52</ele>
        <time>2019-06-16T10:07:50Z</time>
      </trkpt>
      <trkpt lat="42.89319715462625" lon="13.068458419293165">
        <ele>1416.98</ele>
        <time>2019-06-16T10:08:06Z</time>
      </trkpt>
      <trkpt lat="42.893323469907045" lon="13.068271251395345">
        <ele>1416.6900000000001</ele>
        <time>2019-06-16T10:08:24Z</time>
      </trkpt>
      <trkpt lat="42.89341114461422" lon="13.068149043247104">
        <ele>1416.53</ele>
        <time>2019-06-16T10:08:37Z</time>
      </trkpt>
      <trkpt lat="42.893496053293347" lon="13.067994983866811">
        <ele>1416.6800000000001</ele>
        <time>2019-06-16T10:08:51Z</time>
      </trkpt>
      <trkpt lat="42.893568472936749" lon="13.067855508998036">
        <ele>1416.6400000000001</ele>
        <time>2019-06-16T10:09:05Z</time>
      </trkpt>
      <trkpt lat="42.893639216199517" lon="13.067721482366323">
        <ele>1416.6800000000001</ele>
        <time>2019-06-16T10:09:19Z</time>
      </trkpt>
      <trkpt lat="42.893669223412871" lon="13.067697174847126">
        <ele>1417.54</ele>
        <time>2019-06-16T10:09:27Z</time>
      </trkpt>
      <trkpt lat="42.893713228404522" lon="13.06759818457067">
        <ele>1417.46</ele>
        <time>2019-06-16T10:09:37Z</time>
      </trkpt>
      <trkpt lat="42.893804172053933" lon="13.067429205402732">
        <ele>1418.53</ele>
        <time>2019-06-16T10:09:54Z</time>
      </trkpt>
      <trkpt lat="42.893878687173128" lon="13.067295178771019">
        <ele>1419.1800000000001</ele>
        <time>2019-06-16T10:10:09Z</time>
      </trkpt>
      <trkpt lat="42.893906850367785" lon="13.067249832674861">
        <ele>1420.26</ele>
        <time>2019-06-16T10:10:21Z</time>
      </trkpt>
      <trkpt lat="42.89396770298481" lon="13.067151429131627">
        <ele>1421.05</ele>
        <time>2019-06-16T10:10:38Z</time>
      </trkpt>
      <trkpt lat="42.893978599458933" lon="13.067142628133297">
        <ele>1421.1900000000001</ele>
        <time>2019-06-16T10:10:57Z</time>
      </trkpt>
      <trkpt lat="42.89397700689733" lon="13.067146232351661">
        <ele>1419.99</ele>
        <time>2019-06-16T10:11:05Z</time>
      </trkpt>
      <trkpt lat="42.893980694934726" lon="13.067142041400075">
        <ele>1421.4200000000001</ele>
        <time>2019-06-16T10:11:20Z</time>
      </trkpt>
      <trkpt lat="42.893986226990819" lon="13.06714178994298">
        <ele>1421.78</ele>
        <time>2019-06-16T10:11:38Z</time>
      </trkpt>
      <trkpt lat="42.893987484276295" lon="13.067140113562346">
        <ele>1420.8299999999999</ele>
        <time>2019-06-16T10:11:53Z</time>
      </trkpt>
      <trkpt lat="42.893990920856595" lon="13.067143717780709">
        <ele>1420.3800000000001</ele>
        <time>2019-06-16T10:12:16Z</time>
      </trkpt>
      <trkpt lat="42.893983963876963" lon="13.067147405818105">
        <ele>1421.74</ele>
        <time>2019-06-16T10:12:36Z</time>
      </trkpt>
      <trkpt lat="42.893953621387482" lon="13.067164672538638">
        <ele>1420.8499999999999</ele>
        <time>2019-06-16T10:12:46Z</time>
      </trkpt>
      <trkpt lat="42.893943395465612" lon="13.067165343090892">
        <ele>1420.77</ele>
        <time>2019-06-16T10:12:47Z</time>
      </trkpt>
      <trkpt lat="42.893893187865615" lon="13.067164421081543">
        <ele>1420</ele>
        <time>2019-06-16T10:12:53Z</time>
      </trkpt>
      <trkpt lat="42.893875166773796" lon="13.067157296463847">
        <ele>1419.6700000000001</ele>
        <time>2019-06-16T10:12:55Z</time>
      </trkpt>
      <trkpt lat="42.893665786832571" lon="13.067128714174032">
        <ele>1416.95</ele>
        <time>2019-06-16T10:13:15Z</time>
      </trkpt>
      <trkpt lat="42.893628738820553" lon="13.067112453281879">
        <ele>1416.55</ele>
        <time>2019-06-16T10:13:19Z</time>
      </trkpt>
      <trkpt lat="42.893600072711706" lon="13.067113207653165">
        <ele>1416.3399999999999</ele>
        <time>2019-06-16T10:13:22Z</time>
      </trkpt>
      <trkpt lat="42.893542489036918" lon="13.067088397219777">
        <ele>1415.8800000000001</ele>
        <time>2019-06-16T10:13:34Z</time>
      </trkpt>
      <trkpt lat="42.893559420481324" lon="13.067097952589393">
        <ele>1414.9100000000001</ele>
        <time>2019-06-16T10:13:45Z</time>
      </trkpt>
      <trkpt lat="42.893548607826233" lon="13.067095521837473">
        <ele>1414.96</ele>
        <time>2019-06-16T10:14:07Z</time>
      </trkpt>
      <trkpt lat="42.893552044406533" lon="13.067094432190061">
        <ele>1415.1400000000001</ele>
        <time>2019-06-16T10:14:35Z</time>
      </trkpt>
      <trkpt lat="42.893544416874647" lon="13.06710759177804">
        <ele>1414.77</ele>
        <time>2019-06-16T10:15:02Z</time>
      </trkpt>
      <trkpt lat="42.893542908132076" lon="13.067111866548657">
        <ele>1415.4000000000001</ele>
        <time>2019-06-16T10:15:41Z</time>
      </trkpt>
      <trkpt lat="42.893544835969806" lon="13.067112118005753">
        <ele>1412.03</ele>
        <time>2019-06-16T10:15:48Z</time>
      </trkpt>
      <trkpt lat="42.893545003607869" lon="13.067111782729626">
        <ele>1417.2</ele>
        <time>2019-06-16T10:15:51Z</time>
      </trkpt>
      <trkpt lat="42.893547182902694" lon="13.067109938710928">
        <ele>1413.8699999999999</ele>
        <time>2019-06-16T10:16:08Z</time>
      </trkpt>
      <trkpt lat="42.893546177074313" lon="13.067110357806087">
        <ele>1417.4300000000001</ele>
        <time>2019-06-16T10:16:24Z</time>
      </trkpt>
      <trkpt lat="42.893545338883996" lon="13.067106502130628">
        <ele>1412.6700000000001</ele>
        <time>2019-06-16T10:16:31Z</time>
      </trkpt>
      <trkpt lat="42.893545171245933" lon="13.067106418311596">
        <ele>1413.3</ele>
        <time>2019-06-16T10:16:32Z</time>
      </trkpt>
      <trkpt lat="42.893545255064964" lon="13.067106166854501">
        <ele>1416.1700000000001</ele>
        <time>2019-06-16T10:16:34Z</time>
      </trkpt>
      <trkpt lat="42.893555480986834" lon="13.067104741930962">
        <ele>1415.52</ele>
        <time>2019-06-16T10:17:14Z</time>
      </trkpt>
      <trkpt lat="42.893559336662292" lon="13.067099880427122">
        <ele>1416.28</ele>
        <time>2019-06-16T10:18:06Z</time>
      </trkpt>
      <trkpt lat="42.893562940880656" lon="13.067101137712598">
        <ele>1415.5799999999999</ele>
        <time>2019-06-16T10:18:58Z</time>
      </trkpt>
      <trkpt lat="42.89356310851872" lon="13.067098623141646">
        <ele>1416.6900000000001</ele>
        <time>2019-06-16T10:19:03Z</time>
      </trkpt>
      <trkpt lat="42.893566461279988" lon="13.067089486867189">
        <ele>1415.77</ele>
        <time>2019-06-16T10:19:56Z</time>
      </trkpt>
      <trkpt lat="42.893562605604529" lon="13.067094348371029">
        <ele>1415.3499999999999</ele>
        <time>2019-06-16T10:20:41Z</time>
      </trkpt>
      <trkpt lat="42.893557492643595" lon="13.067099545150995">
        <ele>1415.6700000000001</ele>
        <time>2019-06-16T10:21:27Z</time>
      </trkpt>
      <trkpt lat="42.893554558977485" lon="13.06710172444582">
        <ele>1416</ele>
        <time>2019-06-16T10:22:22Z</time>
      </trkpt>
      <trkpt lat="42.893553888425231" lon="13.06710566394031">
        <ele>1416.1400000000001</ele>
        <time>2019-06-16T10:23:16Z</time>
      </trkpt>
      <trkpt lat="42.893551541492343" lon="13.067103317007422">
        <ele>1415.8800000000001</ele>
        <time>2019-06-16T10:24:06Z</time>
      </trkpt>
      <trkpt lat="42.893557911738753" lon="13.067101640626788">
        <ele>1416.05</ele>
        <time>2019-06-16T10:24:59Z</time>
      </trkpt>
      <trkpt lat="42.893557827919722" lon="13.067099377512932">
        <ele>1416.0999999999999</ele>
        <time>2019-06-16T10:25:51Z</time>
      </trkpt>
      <trkpt lat="42.893556319177151" lon="13.067098874598742">
        <ele>1415.8</ele>
        <time>2019-06-16T10:26:40Z</time>
      </trkpt>
      <trkpt lat="42.893552128225565" lon="13.067103149369359">
        <ele>1415.9100000000001</ele>
        <time>2019-06-16T10:27:26Z</time>
      </trkpt>
      <trkpt lat="42.893533017486334" lon="13.067118991166353">
        <ele>1415.98</ele>
        <time>2019-06-16T10:28:19Z</time>
      </trkpt>
      <trkpt lat="42.893523126840591" lon="13.067120248451829">
        <ele>1416.3</ele>
        <time>2019-06-16T10:29:01Z</time>
      </trkpt>
      <trkpt lat="42.893523294478655" lon="13.067124020308256">
        <ele>1416.5</ele>
        <time>2019-06-16T10:29:50Z</time>
      </trkpt>
      <trkpt lat="42.893525222316384" lon="13.06711982935667">
        <ele>1416.3800000000001</ele>
        <time>2019-06-16T10:30:39Z</time>
      </trkpt>
      <trkpt lat="42.893532766029239" lon="13.067111950367689">
        <ele>1416.75</ele>
        <time>2019-06-16T10:31:37Z</time>
      </trkpt>
      <trkpt lat="42.893541064113379" lon="13.067100299522281">
        <ele>1417.1199999999999</ele>
        <time>2019-06-16T10:32:32Z</time>
      </trkpt>
      <trkpt lat="42.893547099083662" lon="13.067091582342982">
        <ele>1416.54</ele>
        <time>2019-06-16T10:33:28Z</time>
      </trkpt>
      <trkpt lat="42.893555229529738" lon="13.067083284258842">
        <ele>1416.6400000000001</ele>
        <time>2019-06-16T10:34:21Z</time>
      </trkpt>
      <trkpt lat="42.893553050234914" lon="13.067072723060846">
        <ele>1416.3399999999999</ele>
        <time>2019-06-16T10:35:14Z</time>
      </trkpt>
      <trkpt lat="42.893554139882326" lon="13.067078338935971">
        <ele>1416.1500000000001</ele>
        <time>2019-06-16T10:36:09Z</time>
      </trkpt>
      <trkpt lat="42.89354894310236" lon="13.067077584564686">
        <ele>1416.3699999999999</ele>
        <time>2019-06-16T10:37:05Z</time>
      </trkpt>
      <trkpt lat="42.893549613654613" lon="13.067084373906255">
        <ele>1416.52</ele>
        <time>2019-06-16T10:38:12Z</time>
      </trkpt>
      <trkpt lat="42.893551960587502" lon="13.067091498523951">
        <ele>1416.25</ele>
        <time>2019-06-16T10:38:55Z</time>
      </trkpt>
      <trkpt lat="42.893551122397184" lon="13.067081021144986">
        <ele>1416.73</ele>
        <time>2019-06-16T10:39:40Z</time>
      </trkpt>
      <trkpt lat="42.893548356369138" lon="13.067089905962348">
        <ele>1416.8800000000001</ele>
        <time>2019-06-16T10:40:27Z</time>
      </trkpt>
      <trkpt lat="42.893543494865298" lon="13.067114297300577">
        <ele>1416.8499999999999</ele>
        <time>2019-06-16T10:41:03Z</time>
      </trkpt>
      <trkpt lat="42.893543159589171" lon="13.067113710567355">
        <ele>1417.47</ele>
        <time>2019-06-16T10:42:06Z</time>
      </trkpt>
      <trkpt lat="42.893541734665632" lon="13.067115722224116">
        <ele>1417.47</ele>
        <time>2019-06-16T10:43:05Z</time>
      </trkpt>
      <trkpt lat="42.893536202609539" lon="13.06711982935667">
        <ele>1417.6600000000001</ele>
        <time>2019-06-16T10:43:50Z</time>
      </trkpt>
      <trkpt lat="42.893533101305366" lon="13.067117901518941">
        <ele>1417.8299999999999</ele>
        <time>2019-06-16T10:44:50Z</time>
      </trkpt>
      <trkpt lat="42.893529580906034" lon="13.067120919004083">
        <ele>1418.03</ele>
        <time>2019-06-16T10:45:32Z</time>
      </trkpt>
      <trkpt lat="42.89353427477181" lon="13.06711588986218">
        <ele>1418.28</ele>
        <time>2019-06-16T10:46:33Z</time>
      </trkpt>
      <trkpt lat="42.893536873161793" lon="13.067113123834133">
        <ele>1418.4000000000001</ele>
        <time>2019-06-16T10:47:29Z</time>
      </trkpt>
      <trkpt lat="42.893535196781158" lon="13.067109184339643">
        <ele>1418.52</ele>
        <time>2019-06-16T10:48:21Z</time>
      </trkpt>
      <trkpt lat="42.893530754372478" lon="13.067112118005753">
        <ele>1418.76</ele>
        <time>2019-06-16T10:48:58Z</time>
      </trkpt>
      <trkpt lat="42.89352991618216" lon="13.067108765244484">
        <ele>1416.3199999999999</ele>
        <time>2019-06-16T10:49:20Z</time>
      </trkpt>
      <trkpt lat="42.893530000001192" lon="13.067109687253833">
        <ele>1418.6800000000001</ele>
        <time>2019-06-16T10:49:22Z</time>
      </trkpt>
      <trkpt lat="42.893530000001192" lon="13.067109854891896">
        <ele>1415.29</ele>
        <time>2019-06-16T10:49:24Z</time>
      </trkpt>
      <trkpt lat="42.893531173467636" lon="13.067109351977706">
        <ele>1420.8399999999999</ele>
        <time>2019-06-16T10:49:25Z</time>
      </trkpt>
      <trkpt lat="42.893533771857619" lon="13.067098874598742">
        <ele>1418.26</ele>
        <time>2019-06-16T10:49:44Z</time>
      </trkpt>
      <trkpt lat="42.893534107133746" lon="13.067120080813766">
        <ele>1417.73</ele>
        <time>2019-06-16T10:50:45Z</time>
      </trkpt>
      <trkpt lat="42.89352698251605" lon="13.067118655890226">
        <ele>1418.7</ele>
        <time>2019-06-16T10:51:39Z</time>
      </trkpt>
      <trkpt lat="42.893526814877987" lon="13.067109771072865">
        <ele>1417.49</ele>
        <time>2019-06-16T10:52:42Z</time>
      </trkpt>
      <trkpt lat="42.893530335277319" lon="13.067106921225786">
        <ele>1418.3499999999999</ele>
        <time>2019-06-16T10:53:53Z</time>
      </trkpt>
      <trkpt lat="42.893531760200858" lon="13.067102143540978">
        <ele>1417.8199999999999</ele>
        <time>2019-06-16T10:55:02Z</time>
      </trkpt>
      <trkpt lat="42.89352941326797" lon="13.067104406654835">
        <ele>1418.1600000000001</ele>
        <time>2019-06-16T10:56:05Z</time>
      </trkpt>
      <trkpt lat="42.893531508743763" lon="13.06710222736001">
        <ele>1417.8800000000001</ele>
        <time>2019-06-16T10:57:11Z</time>
      </trkpt>
      <trkpt lat="42.893531508743763" lon="13.067100467160344">
        <ele>1417.98</ele>
        <time>2019-06-16T10:58:18Z</time>
      </trkpt>
      <trkpt lat="42.893533185124397" lon="13.067100550979376">
        <ele>1418.29</ele>
        <time>2019-06-16T10:59:35Z</time>
      </trkpt>
      <trkpt lat="42.89352840743959" lon="13.067104406654835">
        <ele>1417.6199999999999</ele>
        <time>2019-06-16T11:00:42Z</time>
      </trkpt>
      <trkpt lat="42.893529497087002" lon="13.067106334492564">
        <ele>1417.6900000000001</ele>
        <time>2019-06-16T11:01:56Z</time>
      </trkpt>
      <trkpt lat="42.893531508743763" lon="13.06710415519774">
        <ele>1418.6500000000001</ele>
        <time>2019-06-16T11:03:05Z</time>
      </trkpt>
      <trkpt lat="42.893539639189839" lon="13.06709828786552">
        <ele>1419.21</ele>
        <time>2019-06-16T11:04:21Z</time>
      </trkpt>
      <trkpt lat="42.893541986122727" lon="13.067096611484885">
        <ele>1418.73</ele>
        <time>2019-06-16T11:05:26Z</time>
      </trkpt>
      <trkpt lat="42.893545338883996" lon="13.067094851285219">
        <ele>1418.47</ele>
        <time>2019-06-16T11:06:29Z</time>
      </trkpt>
      <trkpt lat="42.893550954759121" lon="13.067084038630128">
        <ele>1418.8399999999999</ele>
        <time>2019-06-16T11:07:29Z</time>
      </trkpt>
      <trkpt lat="42.893551709130406" lon="13.067078087478876">
        <ele>1419.0599999999999</ele>
        <time>2019-06-16T11:08:25Z</time>
      </trkpt>
      <trkpt lat="42.89355581626296" lon="13.067069537937641">
        <ele>1419.25</ele>
        <time>2019-06-16T11:09:11Z</time>
      </trkpt>
      <trkpt lat="42.89355874992907" lon="13.06707289069891">
        <ele>1418.9400000000001</ele>
        <time>2019-06-16T11:09:51Z</time>
      </trkpt>
      <trkpt lat="42.893547937273979" lon="13.067097617313266">
        <ele>1419.1900000000001</ele>
        <time>2019-06-16T11:10:30Z</time>
      </trkpt>
      <trkpt lat="42.893536286428571" lon="13.067103317007422">
        <ele>1420.71</ele>
        <time>2019-06-16T11:10:56Z</time>
      </trkpt>
      <trkpt lat="42.893524970859289" lon="13.06710172444582">
        <ele>1421</ele>
        <time>2019-06-16T11:11:15Z</time>
      </trkpt>
      <trkpt lat="42.893513571470976" lon="13.067089570686221">
        <ele>1420.8</ele>
        <time>2019-06-16T11:11:28Z</time>
      </trkpt>
      <trkpt lat="42.893527066335082" lon="13.067103484645486">
        <ele>1421.5799999999999</ele>
        <time>2019-06-16T11:11:42Z</time>
      </trkpt>
      <trkpt lat="42.893525138497353" lon="13.067103568464518">
        <ele>1421.3599999999999</ele>
        <time>2019-06-16T11:12:02Z</time>
      </trkpt>
      <trkpt lat="42.893522456288338" lon="13.06710516102612">
        <ele>1422.0999999999999</ele>
        <time>2019-06-16T11:12:22Z</time>
      </trkpt>
      <trkpt lat="42.893526144325733" lon="13.067104490473866">
        <ele>1420.8900000000001</ele>
        <time>2019-06-16T11:12:50Z</time>
      </trkpt>
      <trkpt lat="42.893526228144765" lon="13.067104239016771">
        <ele>1425.24</ele>
        <time>2019-06-16T11:12:52Z</time>
      </trkpt>
      <trkpt lat="42.893524803221226" lon="13.067099545150995">
        <ele>1422.23</ele>
        <time>2019-06-16T11:13:01Z</time>
      </trkpt>
      <trkpt lat="42.893522372469306" lon="13.067094767466187">
        <ele>1420.5799999999999</ele>
        <time>2019-06-16T11:13:10Z</time>
      </trkpt>
      <trkpt lat="42.893535364419222" lon="13.067084876820445">
        <ele>1420.8099999999999</ele>
        <time>2019-06-16T11:13:38Z</time>
      </trkpt>
      <trkpt lat="42.893542489036918" lon="13.067078590393066">
        <ele>1420.3</ele>
        <time>2019-06-16T11:14:10Z</time>
      </trkpt>
      <trkpt lat="42.893562773242593" lon="13.067079177126288">
        <ele>1424.2</ele>
        <time>2019-06-16T11:14:17Z</time>
      </trkpt>
      <trkpt lat="42.893566628918052" lon="13.06707926094532">
        <ele>1423.4300000000001</ele>
        <time>2019-06-16T11:14:18Z</time>
      </trkpt>
      <trkpt lat="42.893585320562124" lon="13.067079177126288">
        <ele>1422.0999999999999</ele>
        <time>2019-06-16T11:14:21Z</time>
      </trkpt>
      <trkpt lat="42.893677270039916" lon="13.067088564857841">
        <ele>1422.6500000000001</ele>
        <time>2019-06-16T11:14:35Z</time>
      </trkpt>
      <trkpt lat="42.893763436004519" lon="13.067093593999743">
        <ele>1423.27</ele>
        <time>2019-06-16T11:14:49Z</time>
      </trkpt>
      <trkpt lat="42.89385823532939" lon="13.067096443846822">
        <ele>1424.99</ele>
        <time>2019-06-16T11:15:04Z</time>
      </trkpt>
      <trkpt lat="42.893935684114695" lon="13.06708512827754">
        <ele>1427.1099999999999</ele>
        <time>2019-06-16T11:15:18Z</time>
      </trkpt>
      <trkpt lat="42.893944317474961" lon="13.06708269752562">
        <ele>1427.3</ele>
        <time>2019-06-16T11:15:28Z</time>
      </trkpt>
      <trkpt lat="42.893946412950754" lon="13.067084373906255">
        <ele>1422.0699999999999</ele>
        <time>2019-06-16T11:15:35Z</time>
      </trkpt>
      <trkpt lat="42.893946580588818" lon="13.067084290087223">
        <ele>1425.53</ele>
        <time>2019-06-16T11:15:36Z</time>
      </trkpt>
      <trkpt lat="42.893948592245579" lon="13.06708462536335">
        <ele>1430.71</ele>
        <time>2019-06-16T11:15:39Z</time>
      </trkpt>
      <trkpt lat="42.893949849531054" lon="13.06708219461143">
        <ele>1427.45</ele>
        <time>2019-06-16T11:15:42Z</time>
      </trkpt>
      <trkpt lat="42.893951609730721" lon="13.067081859335303">
        <ele>1426.8199999999999</ele>
        <time>2019-06-16T11:15:44Z</time>
      </trkpt>
      <trkpt lat="42.89395404048264" lon="13.067083703354001">
        <ele>1425.3299999999999</ele>
        <time>2019-06-16T11:15:49Z</time>
      </trkpt>
      <trkpt lat="42.893953202292323" lon="13.067078171297908">
        <ele>1429.5699999999999</ele>
        <time>2019-06-16T11:15:52Z</time>
      </trkpt>
      <trkpt lat="42.893955213949084" lon="13.067082026973367">
        <ele>1426.51</ele>
        <time>2019-06-16T11:15:55Z</time>
      </trkpt>
      <trkpt lat="42.893957477062941" lon="13.067080350592732">
        <ele>1426.74</ele>
        <time>2019-06-16T11:16:27Z</time>
      </trkpt>
      <trkpt lat="42.893929313868284" lon="13.067086972296238">
        <ele>1426.5899999999999</ele>
        <time>2019-06-16T11:16:42Z</time>
      </trkpt>
      <trkpt lat="42.893929230049253" lon="13.067086888477206">
        <ele>1426.5999999999999</ele>
        <time>2019-06-16T11:17:01Z</time>
      </trkpt>
      <trkpt lat="42.893926464021206" lon="13.067090325057507">
        <ele>1426.26</ele>
        <time>2019-06-16T11:17:23Z</time>
      </trkpt>
      <trkpt lat="42.893922021612525" lon="13.067142711952329">
        <ele>1425.48</ele>
        <time>2019-06-16T11:17:38Z</time>
      </trkpt>
      <trkpt lat="42.893921351060271" lon="13.067144304513931">
        <ele>1425.8299999999999</ele>
        <time>2019-06-16T11:17:55Z</time>
      </trkpt>
      <trkpt lat="42.89391397498548" lon="13.067139610648155">
        <ele>1425.9000000000001</ele>
        <time>2019-06-16T11:18:16Z</time>
      </trkpt>
      <trkpt lat="42.893910957500339" lon="13.067140448838472">
        <ele>1426.28</ele>
        <time>2019-06-16T11:18:32Z</time>
      </trkpt>
      <trkpt lat="42.893906850367785" lon="13.067140029743314">
        <ele>1426.52</ele>
        <time>2019-06-16T11:18:40Z</time>
      </trkpt>
      <trkpt lat="42.893890086561441" lon="13.067153776064515">
        <ele>1425.75</ele>
        <time>2019-06-16T11:18:55Z</time>
      </trkpt>
      <trkpt lat="42.893871227279305" lon="13.067230386659503">
        <ele>1425.27</ele>
        <time>2019-06-16T11:19:05Z</time>
      </trkpt>
      <trkpt lat="42.893861839547753" lon="13.06727615185082">
        <ele>1424.6099999999999</ele>
        <time>2019-06-16T11:19:09Z</time>
      </trkpt>
      <trkpt lat="42.893819846212864" lon="13.067438425496221">
        <ele>1423.6900000000001</ele>
        <time>2019-06-16T11:19:23Z</time>
      </trkpt>
      <trkpt lat="42.893758323043585" lon="13.067581169307232">
        <ele>1423.6500000000001</ele>
        <time>2019-06-16T11:19:36Z</time>
      </trkpt>
      <trkpt lat="42.893716832622886" lon="13.067751154303551">
        <ele>1424.4100000000001</ele>
        <time>2019-06-16T11:19:50Z</time>
      </trkpt>
      <trkpt lat="42.893674504011869" lon="13.067993223667145">
        <ele>1423.3099999999999</ele>
        <time>2019-06-16T11:20:07Z</time>
      </trkpt>
      <trkpt lat="42.89363544434309" lon="13.068260187283158">
        <ele>1422.8399999999999</ele>
        <time>2019-06-16T11:20:26Z</time>
      </trkpt>
      <trkpt lat="42.893617255613208" lon="13.068511141464114">
        <ele>1423.74</ele>
        <time>2019-06-16T11:20:44Z</time>
      </trkpt>
      <trkpt lat="42.893607364967465" lon="13.068746756762266">
        <ele>1423.4400000000001</ele>
        <time>2019-06-16T11:21:01Z</time>
      </trkpt>
      <trkpt lat="42.893599905073643" lon="13.068983713164926">
        <ele>1422.47</ele>
        <time>2019-06-16T11:21:18Z</time>
      </trkpt>
      <trkpt lat="42.893580794334412" lon="13.069216143339872">
        <ele>1422.3499999999999</ele>
        <time>2019-06-16T11:21:36Z</time>
      </trkpt>
      <trkpt lat="42.893574256449938" lon="13.06945544667542">
        <ele>1422.51</ele>
        <time>2019-06-16T11:21:54Z</time>
      </trkpt>
      <trkpt lat="42.893607029691339" lon="13.069714950397611">
        <ele>1421.6199999999999</ele>
        <time>2019-06-16T11:22:13Z</time>
      </trkpt>
      <trkpt lat="42.893632762134075" lon="13.069899939000607">
        <ele>1420.0999999999999</ele>
        <time>2019-06-16T11:22:27Z</time>
      </trkpt>
      <trkpt lat="42.89363007992506" lon="13.070123987272382">
        <ele>1417.03</ele>
        <time>2019-06-16T11:22:43Z</time>
      </trkpt>
      <trkpt lat="42.893630331382155" lon="13.070137230679393">
        <ele>1421.1900000000001</ele>
        <time>2019-06-16T11:22:44Z</time>
      </trkpt>
      <trkpt lat="42.893651453778148" lon="13.070320375263691">
        <ele>1419.6300000000001</ele>
        <time>2019-06-16T11:22:57Z</time>
      </trkpt>
      <trkpt lat="42.893695207312703" lon="13.07054216042161">
        <ele>1417.72</ele>
        <time>2019-06-16T11:23:14Z</time>
      </trkpt>
      <trkpt lat="42.893744660541415" lon="13.070742320269346">
        <ele>1415.55</ele>
        <time>2019-06-16T11:23:29Z</time>
      </trkpt>
      <trkpt lat="42.89375513792038" lon="13.070791605859995">
        <ele>1414.6500000000001</ele>
        <time>2019-06-16T11:23:34Z</time>
      </trkpt>
      <trkpt lat="42.893777014687657" lon="13.070881795138121">
        <ele>1414.01</ele>
        <time>2019-06-16T11:23:41Z</time>
      </trkpt>
      <trkpt lat="42.893800986930728" lon="13.070942731574178">
        <ele>1413.1700000000001</ele>
        <time>2019-06-16T11:23:46Z</time>
      </trkpt>
      <trkpt lat="42.893859408795834" lon="13.071089331060648">
        <ele>1411.0699999999999</ele>
        <time>2019-06-16T11:23:59Z</time>
      </trkpt>
      <trkpt lat="42.89395890198648" lon="13.071159236133099">
        <ele>1407.75</ele>
        <time>2019-06-16T11:24:11Z</time>
      </trkpt>
      <trkpt lat="42.894067699089646" lon="13.071239199489355">
        <ele>1404.27</ele>
        <time>2019-06-16T11:24:25Z</time>
      </trkpt>
      <trkpt lat="42.894138190895319" lon="13.071297453716397">
        <ele>1401.1500000000001</ele>
        <time>2019-06-16T11:24:34Z</time>
      </trkpt>
      <trkpt lat="42.894157050177455" lon="13.071305165067315">
        <ele>1400.54</ele>
        <time>2019-06-16T11:24:36Z</time>
      </trkpt>
      <trkpt lat="42.894274732097983" lon="13.071390744298697">
        <ele>1397.49</ele>
        <time>2019-06-16T11:24:50Z</time>
      </trkpt>
      <trkpt lat="42.894377494230866" lon="13.071466097608209">
        <ele>1394.29</ele>
        <time>2019-06-16T11:25:02Z</time>
      </trkpt>
      <trkpt lat="42.894491320475936" lon="13.071514293551445">
        <ele>1391.25</ele>
        <time>2019-06-16T11:25:14Z</time>
      </trkpt>
      <trkpt lat="42.894515544176102" lon="13.071531811729074">
        <ele>1391.0999999999999</ele>
        <time>2019-06-16T11:25:17Z</time>
      </trkpt>
      <trkpt lat="42.894646301865578" lon="13.071652678772807">
        <ele>1387.5699999999999</ele>
        <time>2019-06-16T11:25:33Z</time>
      </trkpt>
      <trkpt lat="42.894742442294955" lon="13.0717808380723">
        <ele>1384.1900000000001</ele>
        <time>2019-06-16T11:25:47Z</time>
      </trkpt>
      <trkpt lat="42.894790135324001" lon="13.071888042613864">
        <ele>1381.1800000000001</ele>
        <time>2019-06-16T11:25:58Z</time>
      </trkpt>
      <trkpt lat="42.894821399822831" lon="13.071937747299671">
        <ele>1379.1600000000001</ele>
        <time>2019-06-16T11:26:10Z</time>
      </trkpt>
      <trkpt lat="42.894831541925669" lon="13.07199583388865">
        <ele>1377.21</ele>
        <time>2019-06-16T11:26:16Z</time>
      </trkpt>
      <trkpt lat="42.894851323217154" lon="13.072107983753085">
        <ele>1375.1500000000001</ele>
        <time>2019-06-16T11:26:27Z</time>
      </trkpt>
      <trkpt lat="42.894868673756719" lon="13.072214685380459">
        <ele>1371.4100000000001</ele>
        <time>2019-06-16T11:26:35Z</time>
      </trkpt>
      <trkpt lat="42.89489708840847" lon="13.072347790002823">
        <ele>1368.1400000000001</ele>
        <time>2019-06-16T11:26:45Z</time>
      </trkpt>
      <trkpt lat="42.894918797537684" lon="13.072449797764421">
        <ele>1365.05</ele>
        <time>2019-06-16T11:26:53Z</time>
      </trkpt>
      <trkpt lat="42.894917204976082" lon="13.072543423622847">
        <ele>1362.8699999999999</ele>
        <time>2019-06-16T11:27:01Z</time>
      </trkpt>
      <trkpt lat="42.894873199984431" lon="13.072621878236532">
        <ele>1360.1500000000001</ele>
        <time>2019-06-16T11:27:14Z</time>
      </trkpt>
      <trkpt lat="42.894874960184097" lon="13.072644509375095">
        <ele>1359.6700000000001</ele>
        <time>2019-06-16T11:27:19Z</time>
      </trkpt>
      <trkpt lat="42.894876133650541" lon="13.072777111083269">
        <ele>1356.1600000000001</ele>
        <time>2019-06-16T11:27:29Z</time>
      </trkpt>
      <trkpt lat="42.894877223297954" lon="13.072898983955383">
        <ele>1352.99</ele>
        <time>2019-06-16T11:27:41Z</time>
      </trkpt>
      <trkpt lat="42.894884767010808" lon="13.072922201827168">
        <ele>1352.05</ele>
        <time>2019-06-16T11:27:51Z</time>
      </trkpt>
      <trkpt lat="42.894879402592778" lon="13.073039716109633">
        <ele>1348.77</ele>
        <time>2019-06-16T11:28:01Z</time>
      </trkpt>
      <trkpt lat="42.89487898349762" lon="13.073150189593434">
        <ele>1345.74</ele>
        <time>2019-06-16T11:28:10Z</time>
      </trkpt>
      <trkpt lat="42.894864985719323" lon="13.073268625885248">
        <ele>1342.6199999999999</ele>
        <time>2019-06-16T11:28:19Z</time>
      </trkpt>
      <trkpt lat="42.894858280196786" lon="13.073394019156694">
        <ele>1339.3499999999999</ele>
        <time>2019-06-16T11:28:29Z</time>
      </trkpt>
      <trkpt lat="42.894853921607137" lon="13.073515389114618">
        <ele>1335.9100000000001</ele>
        <time>2019-06-16T11:28:39Z</time>
      </trkpt>
      <trkpt lat="42.894841181114316" lon="13.073661485686898">
        <ele>1332.74</ele>
        <time>2019-06-16T11:28:51Z</time>
      </trkpt>
      <trkpt lat="42.89483648724854" lon="13.073748154565692">
        <ele>1331.1900000000001</ele>
        <time>2019-06-16T11:28:58Z</time>
      </trkpt>
      <trkpt lat="42.894825171679258" lon="13.073895676061511">
        <ele>1327.8499999999999</ele>
        <time>2019-06-16T11:29:10Z</time>
      </trkpt>
      <trkpt lat="42.894817544147372" lon="13.074034564197063">
        <ele>1324.6500000000001</ele>
        <time>2019-06-16T11:29:21Z</time>
      </trkpt>
      <trkpt lat="42.894800864160061" lon="13.074172614142299">
        <ele>1321.45</ele>
        <time>2019-06-16T11:29:32Z</time>
      </trkpt>
      <trkpt lat="42.894784267991781" lon="13.074170267209411">
        <ele>1319.6300000000001</ele>
        <time>2019-06-16T11:29:40Z</time>
      </trkpt>
      <trkpt lat="42.894779574126005" lon="13.074178146198392">
        <ele>1320.1199999999999</ele>
        <time>2019-06-16T11:29:46Z</time>
      </trkpt>
      <trkpt lat="42.894749399274588" lon="13.074263390153646">
        <ele>1318.0599999999999</ele>
        <time>2019-06-16T11:29:56Z</time>
      </trkpt>
      <trkpt lat="42.894732551649213" lon="13.074364643543959">
        <ele>1316.0699999999999</ele>
        <time>2019-06-16T11:30:04Z</time>
      </trkpt>
      <trkpt lat="42.894691228866577" lon="13.074549548327923">
        <ele>1312.8800000000001</ele>
        <time>2019-06-16T11:30:19Z</time>
      </trkpt>
      <trkpt lat="42.894638674333692" lon="13.074617944657803">
        <ele>1310.6500000000001</ele>
        <time>2019-06-16T11:30:31Z</time>
      </trkpt>
      <trkpt lat="42.894600788131356" lon="13.074573017656803">
        <ele>1309.8499999999999</ele>
        <time>2019-06-16T11:30:42Z</time>
      </trkpt>
      <trkpt lat="42.894407836720347" lon="13.074655747041106">
        <ele>1287.21</ele>
        <time>2019-06-16T11:32:17Z</time>
      </trkpt>
      <trkpt lat="42.894593328237534" lon="13.074522810056806">
        <ele>1287.97</ele>
        <time>2019-06-16T11:32:19Z</time>
      </trkpt>
      <trkpt lat="42.894524512812495" lon="13.074571592733264">
        <ele>1289.8599999999999</ele>
        <time>2019-06-16T11:32:29Z</time>
      </trkpt>
      <trkpt lat="42.894522417336702" lon="13.074567653238773">
        <ele>1290.0899999999999</ele>
        <time>2019-06-16T11:32:30Z</time>
      </trkpt>
      <trkpt lat="42.894527111202478" lon="13.074554074555635">
        <ele>1294.0699999999999</ele>
        <time>2019-06-16T11:32:40Z</time>
      </trkpt>
      <trkpt lat="42.894527027383447" lon="13.074562540277839">
        <ele>1295.27</ele>
        <time>2019-06-16T11:32:43Z</time>
      </trkpt>
      <trkpt lat="42.894515879452229" lon="13.074555583298206">
        <ele>1297.97</ele>
        <time>2019-06-16T11:32:51Z</time>
      </trkpt>
      <trkpt lat="42.894521076232195" lon="13.074552984908223">
        <ele>1301.1600000000001</ele>
        <time>2019-06-16T11:33:07Z</time>
      </trkpt>
      <trkpt lat="42.894524093717337" lon="13.074557175859809">
        <ele>1303.3099999999999</ele>
        <time>2019-06-16T11:33:22Z</time>
      </trkpt>
      <trkpt lat="42.894529877230525" lon="13.074551727622747">
        <ele>1304.1500000000001</ele>
        <time>2019-06-16T11:33:37Z</time>
      </trkpt>
      <trkpt lat="42.894503306597471" lon="13.074551308527589">
        <ele>1304.52</ele>
        <time>2019-06-16T11:33:54Z</time>
      </trkpt>
      <trkpt lat="42.894469108432531" lon="13.074551476165652">
        <ele>1303.8599999999999</ele>
        <time>2019-06-16T11:34:06Z</time>
      </trkpt>
      <trkpt lat="42.894487380981445" lon="13.074537813663483">
        <ele>1304.0599999999999</ele>
        <time>2019-06-16T11:34:20Z</time>
      </trkpt>
      <trkpt lat="42.894476065412164" lon="13.074554074555635">
        <ele>1304.04</ele>
        <time>2019-06-16T11:34:35Z</time>
      </trkpt>
      <trkpt lat="42.894459469243884" lon="13.074560360983014">
        <ele>1303.8399999999999</ele>
        <time>2019-06-16T11:34:44Z</time>
      </trkpt>
      <trkpt lat="42.894452260807157" lon="13.074558349326253">
        <ele>1303.5599999999999</ele>
        <time>2019-06-16T11:34:57Z</time>
      </trkpt>
      <trkpt lat="42.894451338797808" lon="13.074558600783348">
        <ele>1302.97</ele>
        <time>2019-06-16T11:35:17Z</time>
      </trkpt>
      <trkpt lat="42.894453182816505" lon="13.074557175859809">
        <ele>1304.8399999999999</ele>
        <time>2019-06-16T11:35:19Z</time>
      </trkpt>
      <trkpt lat="42.894453853368759" lon="13.074555499479175">
        <ele>1303.6700000000001</ele>
        <time>2019-06-16T11:35:42Z</time>
      </trkpt>
      <trkpt lat="42.894451087340713" lon="13.074545692652464">
        <ele>1303.9100000000001</ele>
        <time>2019-06-16T11:35:59Z</time>
      </trkpt>
      <trkpt lat="42.894445220008492" lon="13.074540914967656">
        <ele>1303.45</ele>
        <time>2019-06-16T11:36:21Z</time>
      </trkpt>
      <trkpt lat="42.894408842548728" lon="13.0745386518538">
        <ele>1303.6099999999999</ele>
        <time>2019-06-16T11:36:30Z</time>
      </trkpt>
      <trkpt lat="42.894233157858253" lon="13.074594391509891">
        <ele>1301.5999999999999</ele>
        <time>2019-06-16T11:36:47Z</time>
      </trkpt>
      <trkpt lat="42.894080020487309" lon="13.074712408706546">
        <ele>1300.6400000000001</ele>
        <time>2019-06-16T11:37:03Z</time>
      </trkpt>
      <trkpt lat="42.89394867606461" lon="13.074897229671478">
        <ele>1300.8199999999999</ele>
        <time>2019-06-16T11:37:20Z</time>
      </trkpt>
      <trkpt lat="42.893816325813532" lon="13.075070735067129">
        <ele>1299.6199999999999</ele>
        <time>2019-06-16T11:37:37Z</time>
      </trkpt>
      <trkpt lat="42.893667463213205" lon="13.075217669829726">
        <ele>1297.8399999999999</ele>
        <time>2019-06-16T11:37:54Z</time>
      </trkpt>
      <trkpt lat="42.893521953374147" lon="13.075380111113191">
        <ele>1296.27</ele>
        <time>2019-06-16T11:38:11Z</time>
      </trkpt>
      <trkpt lat="42.89338331669569" lon="13.07557063177228">
        <ele>1295.3699999999999</ele>
        <time>2019-06-16T11:38:29Z</time>
      </trkpt>
      <trkpt lat="42.893255827948451" lon="13.075722763314843">
        <ele>1293.99</ele>
        <time>2019-06-16T11:38:44Z</time>
      </trkpt>
      <trkpt lat="42.893077461048961" lon="13.075836589559913">
        <ele>1292.8699999999999</ele>
        <time>2019-06-16T11:39:01Z</time>
      </trkpt>
      <trkpt lat="42.892916612327099" lon="13.075903309509158">
        <ele>1291.97</ele>
        <time>2019-06-16T11:39:16Z</time>
      </trkpt>
      <trkpt lat="42.892718464136124" lon="13.075971705839038">
        <ele>1288.8900000000001</ele>
        <time>2019-06-16T11:39:34Z</time>
      </trkpt>
      <trkpt lat="42.892521154135466" lon="13.076001545414329">
        <ele>1287.8099999999999</ele>
        <time>2019-06-16T11:39:51Z</time>
      </trkpt>
      <trkpt lat="42.89235083386302" lon="13.076048316434026">
        <ele>1287.3199999999999</ele>
        <time>2019-06-16T11:40:06Z</time>
      </trkpt>
      <trkpt lat="42.892175987362862" lon="13.076176894828677">
        <ele>1287.9300000000001</ele>
        <time>2019-06-16T11:40:24Z</time>
      </trkpt>
      <trkpt lat="42.892059059813619" lon="13.07633338496089">
        <ele>1289.3199999999999</ele>
        <time>2019-06-16T11:40:41Z</time>
      </trkpt>
      <trkpt lat="42.891951100900769" lon="13.076511500403285">
        <ele>1290.8599999999999</ele>
        <time>2019-06-16T11:40:59Z</time>
      </trkpt>
      <trkpt lat="42.891826797276735" lon="13.076588278636336">
        <ele>1290.99</ele>
        <time>2019-06-16T11:41:15Z</time>
      </trkpt>
      <trkpt lat="42.891822271049023" lon="13.076597331091762">
        <ele>1290.6400000000001</ele>
        <time>2019-06-16T11:41:29Z</time>
      </trkpt>
      <trkpt lat="42.891814140602946" lon="13.076597331091762">
        <ele>1290.2</ele>
        <time>2019-06-16T11:41:44Z</time>
      </trkpt>
      <trkpt lat="42.891788659617305" lon="13.076600348576903">
        <ele>1290.8699999999999</ele>
        <time>2019-06-16T11:41:56Z</time>
      </trkpt>
      <trkpt lat="42.891779104247689" lon="13.076605210080743">
        <ele>1290.6199999999999</ele>
        <time>2019-06-16T11:42:09Z</time>
      </trkpt>
      <trkpt lat="42.891775080934167" lon="13.076584255322814">
        <ele>1290.6199999999999</ele>
        <time>2019-06-16T11:42:25Z</time>
      </trkpt>
      <trkpt lat="42.891704756766558" lon="13.076556092128158">
        <ele>1290.03</ele>
        <time>2019-06-16T11:42:36Z</time>
      </trkpt>
      <trkpt lat="42.891638623550534" lon="13.076516529545188">
        <ele>1290.1600000000001</ele>
        <time>2019-06-16T11:42:44Z</time>
      </trkpt>
      <trkpt lat="42.891425471752882" lon="13.076493144035339">
        <ele>1289.1099999999999</ele>
        <time>2019-06-16T11:43:05Z</time>
      </trkpt>
      <trkpt lat="42.891302090138197" lon="13.076676623895764">
        <ele>1289.5699999999999</ele>
        <time>2019-06-16T11:43:22Z</time>
      </trkpt>
      <trkpt lat="42.891229754313827" lon="13.076847027987242">
        <ele>1291</ele>
        <time>2019-06-16T11:43:36Z</time>
      </trkpt>
      <trkpt lat="42.891121208667755" lon="13.077009050175548">
        <ele>1290.0899999999999</ele>
        <time>2019-06-16T11:43:50Z</time>
      </trkpt>
      <trkpt lat="42.890992965549231" lon="13.077128911390901">
        <ele>1288.25</ele>
        <time>2019-06-16T11:44:03Z</time>
      </trkpt>
      <trkpt lat="42.890933370217681" lon="13.077181885018945">
        <ele>1287.4200000000001</ele>
        <time>2019-06-16T11:44:17Z</time>
      </trkpt>
      <trkpt lat="42.890915013849735" lon="13.077190350741148">
        <ele>1287.1099999999999</ele>
        <time>2019-06-16T11:44:32Z</time>
      </trkpt>
      <trkpt lat="42.890909146517515" lon="13.077194793149829">
        <ele>1287.53</ele>
        <time>2019-06-16T11:44:40Z</time>
      </trkpt>
      <trkpt lat="42.890862543135881" lon="13.077230835333467">
        <ele>1286.8599999999999</ele>
        <time>2019-06-16T11:44:45Z</time>
      </trkpt>
      <trkpt lat="42.890686187893152" lon="13.077360671013594">
        <ele>1284.6199999999999</ele>
        <time>2019-06-16T11:45:02Z</time>
      </trkpt>
      <trkpt lat="42.890527099370956" lon="13.077471312135458">
        <ele>1283.3299999999999</ele>
        <time>2019-06-16T11:45:17Z</time>
      </trkpt>
      <trkpt lat="42.890342194586992" lon="13.077586898580194">
        <ele>1282.5799999999999</ele>
        <time>2019-06-16T11:45:34Z</time>
      </trkpt>
      <trkpt lat="42.890155864879489" lon="13.077691923826933">
        <ele>1280.6600000000001</ele>
        <time>2019-06-16T11:45:51Z</time>
      </trkpt>
      <trkpt lat="42.88999954238534" lon="13.077823854982853">
        <ele>1279.6400000000001</ele>
        <time>2019-06-16T11:46:07Z</time>
      </trkpt>
      <trkpt lat="42.889835676178336" lon="13.077998450025916">
        <ele>1279.0899999999999</ele>
        <time>2019-06-16T11:46:25Z</time>
      </trkpt>
      <trkpt lat="42.889648424461484" lon="13.078143792226911">
        <ele>1278.6400000000001</ele>
        <time>2019-06-16T11:46:44Z</time>
      </trkpt>
      <trkpt lat="42.889487408101559" lon="13.0782082490623">
        <ele>1276.76</ele>
        <time>2019-06-16T11:46:59Z</time>
      </trkpt>
      <trkpt lat="42.889335779473186" lon="13.078258289024234">
        <ele>1276.5799999999999</ele>
        <time>2019-06-16T11:47:14Z</time>
      </trkpt>
      <trkpt lat="42.88931842893362" lon="13.078270023688674">
        <ele>1277.47</ele>
        <time>2019-06-16T11:47:17Z</time>
      </trkpt>
      <trkpt lat="42.889289343729615" lon="13.078281758353114">
        <ele>1276.5</ele>
        <time>2019-06-16T11:47:21Z</time>
      </trkpt>
      <trkpt lat="42.889274675399065" lon="13.078290475532413">
        <ele>1276.25</ele>
        <time>2019-06-16T11:47:23Z</time>
      </trkpt>
      <trkpt lat="42.889061188325286" lon="13.078359961509705">
        <ele>1275.24</ele>
        <time>2019-06-16T11:47:43Z</time>
      </trkpt>
      <trkpt lat="42.888841247186065" lon="13.078426430001855">
        <ele>1273.77</ele>
        <time>2019-06-16T11:48:01Z</time>
      </trkpt>
      <trkpt lat="42.88860990665853" lon="13.078485103324056">
        <ele>1272.46</ele>
        <time>2019-06-16T11:48:21Z</time>
      </trkpt>
      <trkpt lat="42.888387283310294" lon="13.07853908278048">
        <ele>1270.0799999999999</ele>
        <time>2019-06-16T11:48:40Z</time>
      </trkpt>
      <trkpt lat="42.888315366581082" lon="13.078557522967458">
        <ele>1269.55</ele>
        <time>2019-06-16T11:48:49Z</time>
      </trkpt>
      <trkpt lat="42.888109255582094" lon="13.078598426654935">
        <ele>1267.71</ele>
        <time>2019-06-16T11:49:07Z</time>
      </trkpt>
      <trkpt lat="42.887908425182104" lon="13.078701607882977">
        <ele>1266.1300000000001</ele>
        <time>2019-06-16T11:49:25Z</time>
      </trkpt>
      <trkpt lat="42.887716479599476" lon="13.078847201541066">
        <ele>1264.21</ele>
        <time>2019-06-16T11:49:43Z</time>
      </trkpt>
      <trkpt lat="42.887652022764087" lon="13.078964799642563">
        <ele>1263.1700000000001</ele>
        <time>2019-06-16T11:49:56Z</time>
      </trkpt>
      <trkpt lat="42.887654034420848" lon="13.078956250101328">
        <ele>1263.02</ele>
        <time>2019-06-16T11:50:13Z</time>
      </trkpt>
      <trkpt lat="42.887652944773436" lon="13.078957423567772">
        <ele>1262.97</ele>
        <time>2019-06-16T11:50:16Z</time>
      </trkpt>
      <trkpt lat="42.887619165703654" lon="13.078990867361426">
        <ele>1262.8099999999999</ele>
        <time>2019-06-16T11:50:20Z</time>
      </trkpt>
      <trkpt lat="42.887527132406831" lon="13.07912246324122">
        <ele>1260.6199999999999</ele>
        <time>2019-06-16T11:50:33Z</time>
      </trkpt>
      <trkpt lat="42.887506261467934" lon="13.079151213169098">
        <ele>1260.0599999999999</ele>
        <time>2019-06-16T11:50:41Z</time>
      </trkpt>
      <trkpt lat="42.887474242597818" lon="13.079192116856575">
        <ele>1260.0599999999999</ele>
        <time>2019-06-16T11:50:45Z</time>
      </trkpt>
      <trkpt lat="42.887318842113018" lon="13.079409543424845">
        <ele>1258.97</ele>
        <time>2019-06-16T11:51:03Z</time>
      </trkpt>
      <trkpt lat="42.887153634801507" lon="13.079558992758393">
        <ele>1258.46</ele>
        <time>2019-06-16T11:51:20Z</time>
      </trkpt>
      <trkpt lat="42.887085406109691" lon="13.07957399636507">
        <ele>1258.4000000000001</ele>
        <time>2019-06-16T11:51:26Z</time>
      </trkpt>
      <trkpt lat="42.887031342834234" lon="13.079567877575755">
        <ele>1258.1600000000001</ele>
        <time>2019-06-16T11:51:31Z</time>
      </trkpt>
      <trkpt lat="42.886829590424895" lon="13.079498643055558">
        <ele>1257.0699999999999</ele>
        <time>2019-06-16T11:51:49Z</time>
      </trkpt>
      <trkpt lat="42.886638902127743" lon="13.079433096572757">
        <ele>1254.72</ele>
        <time>2019-06-16T11:52:06Z</time>
      </trkpt>
      <trkpt lat="42.886477550491691" lon="13.07941029779613">
        <ele>1252.46</ele>
        <time>2019-06-16T11:52:21Z</time>
      </trkpt>
      <trkpt lat="42.88634117692709" lon="13.079371154308319">
        <ele>1250.04</ele>
        <time>2019-06-16T11:52:34Z</time>
      </trkpt>
      <trkpt lat="42.886159876361489" lon="13.079307451844215">
        <ele>1246.8299999999999</ele>
        <time>2019-06-16T11:52:51Z</time>
      </trkpt>
      <trkpt lat="42.885994417592883" lon="13.079231176525354">
        <ele>1243.9200000000001</ele>
        <time>2019-06-16T11:53:06Z</time>
      </trkpt>
      <trkpt lat="42.885843375697732" lon="13.079170910641551">
        <ele>1240.8299999999999</ele>
        <time>2019-06-16T11:53:21Z</time>
      </trkpt>
      <trkpt lat="42.885690741240978" lon="13.079117685556412">
        <ele>1237.99</ele>
        <time>2019-06-16T11:53:36Z</time>
      </trkpt>
      <trkpt lat="42.88553643040359" lon="13.079070746898651">
        <ele>1234.9400000000001</ele>
        <time>2019-06-16T11:53:50Z</time>
      </trkpt>
      <trkpt lat="42.88539863191545" lon="13.079006457701325">
        <ele>1231.8900000000001</ele>
        <time>2019-06-16T11:54:03Z</time>
      </trkpt>
      <trkpt lat="42.885352028533816" lon="13.078983658924699">
        <ele>1231.0699999999999</ele>
        <time>2019-06-16T11:54:14Z</time>
      </trkpt>
      <trkpt lat="42.885332917794585" lon="13.078995058313012">
        <ele>1230.5899999999999</ele>
        <time>2019-06-16T11:54:17Z</time>
      </trkpt>
      <trkpt lat="42.885314896702766" lon="13.079006709158421">
        <ele>1230.3099999999999</ele>
        <time>2019-06-16T11:54:19Z</time>
      </trkpt>
      <trkpt lat="42.885310705751181" lon="13.079108381643891">
        <ele>1229.6099999999999</ele>
        <time>2019-06-16T11:54:27Z</time>
      </trkpt>
      <trkpt lat="42.885392010211945" lon="13.079307787120342">
        <ele>1227.77</ele>
        <time>2019-06-16T11:54:43Z</time>
      </trkpt>
      <trkpt lat="42.885498544201255" lon="13.079562932252884">
        <ele>1227.02</ele>
        <time>2019-06-16T11:55:02Z</time>
      </trkpt>
      <trkpt lat="42.885541124269366" lon="13.079769378527999">
        <ele>1227.47</ele>
        <time>2019-06-16T11:55:17Z</time>
      </trkpt>
      <trkpt lat="42.88557012565434" lon="13.079949421808124">
        <ele>1227.3299999999999</ele>
        <time>2019-06-16T11:55:30Z</time>
      </trkpt>
      <trkpt lat="42.885560821741819" lon="13.079986721277237">
        <ele>1226.96</ele>
        <time>2019-06-16T11:55:33Z</time>
      </trkpt>
      <trkpt lat="42.88550172932446" lon="13.080008430406451">
        <ele>1225.75</ele>
        <time>2019-06-16T11:55:42Z</time>
      </trkpt>
      <trkpt lat="42.885464681312442" lon="13.079987391829491">
        <ele>1224.26</ele>
        <time>2019-06-16T11:55:46Z</time>
      </trkpt>
      <trkpt lat="42.885356638580561" lon="13.079808354377747">
        <ele>1222.8699999999999</ele>
        <time>2019-06-16T11:56:02Z</time>
      </trkpt>
      <trkpt lat="42.885257313027978" lon="13.079640632495284">
        <ele>1221.55</ele>
        <time>2019-06-16T11:56:17Z</time>
      </trkpt>
      <trkpt lat="42.885114569216967" lon="13.079450950026512">
        <ele>1218.8900000000001</ele>
        <time>2019-06-16T11:56:35Z</time>
      </trkpt>
      <trkpt lat="42.885017925873399" lon="13.079360174015164">
        <ele>1216.6600000000001</ele>
        <time>2019-06-16T11:56:47Z</time>
      </trkpt>
      <trkpt lat="42.884844252839684" lon="13.079218603670597">
        <ele>1215.6400000000001</ele>
        <time>2019-06-16T11:57:05Z</time>
      </trkpt>
      <trkpt lat="42.884678961709142" lon="13.079090612009168">
        <ele>1212.76</ele>
        <time>2019-06-16T11:57:22Z</time>
      </trkpt>
      <trkpt lat="42.88453814573586" lon="13.078977707773447">
        <ele>1210.95</ele>
        <time>2019-06-16T11:57:37Z</time>
      </trkpt>
      <trkpt lat="42.884371429681778" lon="13.078857930377126">
        <ele>1208.3399999999999</ele>
        <time>2019-06-16T11:57:54Z</time>
      </trkpt>
      <trkpt lat="42.884197756648064" lon="13.078715102747083">
        <ele>1205.3499999999999</ele>
        <time>2019-06-16T11:58:11Z</time>
      </trkpt>
      <trkpt lat="42.884039673954248" lon="13.078596331179142">
        <ele>1202.23</ele>
        <time>2019-06-16T11:58:26Z</time>
      </trkpt>
      <trkpt lat="42.883857116103172" lon="13.078468674793839">
        <ele>1199.3900000000001</ele>
        <time>2019-06-16T11:58:44Z</time>
      </trkpt>
      <trkpt lat="42.883683778345585" lon="13.078341605141759">
        <ele>1197.1400000000001</ele>
        <time>2019-06-16T11:59:01Z</time>
      </trkpt>
      <trkpt lat="42.883504740893841" lon="13.078216463327408">
        <ele>1194.6400000000001</ele>
        <time>2019-06-16T11:59:18Z</time>
      </trkpt>
      <trkpt lat="42.883300138637424" lon="13.078062068670988">
        <ele>1191.8699999999999</ele>
        <time>2019-06-16T11:59:38Z</time>
      </trkpt>
      <trkpt lat="42.883134093135595" lon="13.077907841652632">
        <ele>1189.71</ele>
        <time>2019-06-16T11:59:55Z</time>
      </trkpt>
      <trkpt lat="42.88297257386148" lon="13.077757805585861">
        <ele>1187.55</ele>
        <time>2019-06-16T12:00:11Z</time>
      </trkpt>
      <trkpt lat="42.882798733189702" lon="13.077593687921762">
        <ele>1185.3800000000001</ele>
        <time>2019-06-16T12:00:29Z</time>
      </trkpt>
      <trkpt lat="42.882642410695553" lon="13.077472150325775">
        <ele>1183.9200000000001</ele>
        <time>2019-06-16T12:00:44Z</time>
      </trkpt>
      <trkpt lat="42.882471168413758" lon="13.077348601073027">
        <ele>1180.98</ele>
        <time>2019-06-16T12:01:00Z</time>
      </trkpt>
      <trkpt lat="42.882262710481882" lon="13.077222369611263">
        <ele>1177.8399999999999</ele>
        <time>2019-06-16T12:01:19Z</time>
      </trkpt>
      <trkpt lat="42.88208476267755" lon="13.077149447053671">
        <ele>1175.28</ele>
        <time>2019-06-16T12:01:35Z</time>
      </trkpt>
      <trkpt lat="42.88192005828023" lon="13.077094126492739">
        <ele>1172.8699999999999</ele>
        <time>2019-06-16T12:01:50Z</time>
      </trkpt>
      <trkpt lat="42.881863228976727" lon="13.077081721276045">
        <ele>1172.1199999999999</ele>
        <time>2019-06-16T12:01:55Z</time>
      </trkpt>
      <trkpt lat="42.881692489609122" lon="13.077043080702424">
        <ele>1170.3699999999999</ele>
        <time>2019-06-16T12:02:10Z</time>
      </trkpt>
      <trkpt lat="42.881521414965391" lon="13.07694660499692">
        <ele>1167.3299999999999</ele>
        <time>2019-06-16T12:02:27Z</time>
      </trkpt>
      <trkpt lat="42.881362996995449" lon="13.07684694416821">
        <ele>1164.26</ele>
        <time>2019-06-16T12:02:42Z</time>
      </trkpt>
      <trkpt lat="42.88132150657475" lon="13.076819116249681">
        <ele>1161.21</ele>
        <time>2019-06-16T12:02:46Z</time>
      </trkpt>
      <trkpt lat="42.881310191005468" lon="13.076812913641334">
        <ele>1164.26</ele>
        <time>2019-06-16T12:02:47Z</time>
      </trkpt>
      <trkpt lat="42.881270041689277" lon="13.076784750446677">
        <ele>1162.4400000000001</ele>
        <time>2019-06-16T12:02:51Z</time>
      </trkpt>
      <trkpt lat="42.88108647800982" lon="13.07662365026772">
        <ele>1159.53</ele>
        <time>2019-06-16T12:03:12Z</time>
      </trkpt>
      <trkpt lat="42.881047669798136" lon="13.076579729095101">
        <ele>1158.55</ele>
        <time>2019-06-16T12:03:17Z</time>
      </trkpt>
      <trkpt lat="42.880905847996473" lon="13.076387448236346">
        <ele>1155.1700000000001</ele>
        <time>2019-06-16T12:03:35Z</time>
      </trkpt>
      <trkpt lat="42.880778275430202" lon="13.076191060245037">
        <ele>1151.99</ele>
        <time>2019-06-16T12:03:52Z</time>
      </trkpt>
      <trkpt lat="42.880686493590474" lon="13.076045215129852">
        <ele>1148.8900000000001</ele>
        <time>2019-06-16T12:04:05Z</time>
      </trkpt>
      <trkpt lat="42.880558837205172" lon="13.075827369466424">
        <ele>1146.0999999999999</ele>
        <time>2019-06-16T12:04:23Z</time>
      </trkpt>
      <trkpt lat="42.880523800849915" lon="13.07577489875257">
        <ele>1144.6900000000001</ele>
        <time>2019-06-16T12:04:36Z</time>
      </trkpt>
      <trkpt lat="42.880521956831217" lon="13.07575243525207">
        <ele>1144.21</ele>
        <time>2019-06-16T12:04:43Z</time>
      </trkpt>
      <trkpt lat="42.880505528301001" lon="13.075737850740552">
        <ele>1144.03</ele>
        <time>2019-06-16T12:04:45Z</time>
      </trkpt>
      <trkpt lat="42.880442580208182" lon="13.075528051704168">
        <ele>1141.8</ele>
        <time>2019-06-16T12:05:01Z</time>
      </trkpt>
      <trkpt lat="42.880440652370453" lon="13.075525034219027">
        <ele>1141.8900000000001</ele>
        <time>2019-06-16T12:05:02Z</time>
      </trkpt>
      <trkpt lat="42.880429504439235" lon="13.075482537969947">
        <ele>1141.74</ele>
        <time>2019-06-16T12:05:05Z</time>
      </trkpt>
      <trkpt lat="42.880414836108685" lon="13.075416320934892">
        <ele>1141.0599999999999</ele>
        <time>2019-06-16T12:05:09Z</time>
      </trkpt>
      <trkpt lat="42.880378039553761" lon="13.075162097811699">
        <ele>1140.4000000000001</ele>
        <time>2019-06-16T12:05:25Z</time>
      </trkpt>
      <trkpt lat="42.880376195535064" lon="13.075128234922886">
        <ele>1138.71</ele>
        <time>2019-06-16T12:05:27Z</time>
      </trkpt>
      <trkpt lat="42.880358006805182" lon="13.07493201456964">
        <ele>1137.5799999999999</ele>
        <time>2019-06-16T12:05:40Z</time>
      </trkpt>
      <trkpt lat="42.880364377051592" lon="13.074698578566313">
        <ele>1136.8800000000001</ele>
        <time>2019-06-16T12:05:54Z</time>
      </trkpt>
      <trkpt lat="42.880348451435566" lon="13.074442846700549">
        <ele>1136.49</ele>
        <time>2019-06-16T12:06:08Z</time>
      </trkpt>
      <trkpt lat="42.880284329876304" lon="13.074204297736287">
        <ele>1135.3099999999999</ele>
        <time>2019-06-16T12:06:23Z</time>
      </trkpt>
      <trkpt lat="42.880253065377474" lon="13.074149396270514">
        <ele>1135.29</ele>
        <time>2019-06-16T12:06:33Z</time>
      </trkpt>
      <trkpt lat="42.880258429795504" lon="13.074146378785372">
        <ele>1135.3900000000001</ele>
        <time>2019-06-16T12:06:42Z</time>
      </trkpt>
      <trkpt lat="42.88023428991437" lon="13.074010591953993">
        <ele>1134.1300000000001</ele>
        <time>2019-06-16T12:06:51Z</time>
      </trkpt>
      <trkpt lat="42.880161870270967" lon="13.073811270296574">
        <ele>1131.6400000000001</ele>
        <time>2019-06-16T12:07:05Z</time>
      </trkpt>
      <trkpt lat="42.88011459633708" lon="13.073769779875875">
        <ele>1130.8299999999999</ele>
        <time>2019-06-16T12:07:10Z</time>
      </trkpt>
      <trkpt lat="42.88008819334209" lon="13.073737006634474">
        <ele>1130.1900000000001</ele>
        <time>2019-06-16T12:07:13Z</time>
      </trkpt>
      <trkpt lat="42.880046116188169" lon="13.07366500608623">
        <ele>1128.9000000000001</ele>
        <time>2019-06-16T12:07:19Z</time>
      </trkpt>
      <trkpt lat="42.879891386255622" lon="13.073552688583732">
        <ele>1125.53</ele>
        <time>2019-06-16T12:07:34Z</time>
      </trkpt>
      <trkpt lat="42.879702625796199" lon="13.073417404666543">
        <ele>1122.51</ele>
        <time>2019-06-16T12:07:52Z</time>
      </trkpt>
      <trkpt lat="42.87956977263093" lon="13.073307685554028">
        <ele>1119.3599999999999</ele>
        <time>2019-06-16T12:08:05Z</time>
      </trkpt>
      <trkpt lat="42.879409762099385" lon="13.073118338361382">
        <ele>1116.72</ele>
        <time>2019-06-16T12:08:22Z</time>
      </trkpt>
      <trkpt lat="42.879312532022595" lon="13.072952795773745">
        <ele>1113.47</ele>
        <time>2019-06-16T12:08:35Z</time>
      </trkpt>
      <trkpt lat="42.879200130701065" lon="13.072799323126674">
        <ele>1110.46</ele>
        <time>2019-06-16T12:08:48Z</time>
      </trkpt>
      <trkpt lat="42.879046071320772" lon="13.072693375870585">
        <ele>1107.4400000000001</ele>
        <time>2019-06-16T12:09:02Z</time>
      </trkpt>
      <trkpt lat="42.878902489319444" lon="13.072636211290956">
        <ele>1105.05</ele>
        <time>2019-06-16T12:09:15Z</time>
      </trkpt>
      <trkpt lat="42.878859154880047" lon="13.072618776932359">
        <ele>1103.9100000000001</ele>
        <time>2019-06-16T12:09:19Z</time>
      </trkpt>
      <trkpt lat="42.878745831549168" lon="13.07251769118011">
        <ele>1100.3699999999999</ele>
        <time>2019-06-16T12:09:31Z</time>
      </trkpt>
      <trkpt lat="42.878613816574216" lon="13.072478882968426">
        <ele>1097.8800000000001</ele>
        <time>2019-06-16T12:09:44Z</time>
      </trkpt>
      <trkpt lat="42.87843813188374" lon="13.072473602369428">
        <ele>1094.8099999999999</ele>
        <time>2019-06-16T12:09:59Z</time>
      </trkpt>
      <trkpt lat="42.878289185464382" lon="13.072491623461246">
        <ele>1091.6099999999999</ele>
        <time>2019-06-16T12:10:13Z</time>
      </trkpt>
      <trkpt lat="42.878235122188926" lon="13.072505369782448">
        <ele>1090.51</ele>
        <time>2019-06-16T12:10:18Z</time>
      </trkpt>
      <trkpt lat="42.878134036436677" lon="13.072521463036537">
        <ele>1087.8499999999999</ele>
        <time>2019-06-16T12:10:28Z</time>
      </trkpt>
      <trkpt lat="42.877997243776917" lon="13.072508219629526">
        <ele>1084.45</ele>
        <time>2019-06-16T12:10:41Z</time>
      </trkpt>
      <trkpt lat="42.877865144982934" lon="13.072465471923351">
        <ele>1082.1500000000001</ele>
        <time>2019-06-16T12:10:53Z</time>
      </trkpt>
      <trkpt lat="42.877805968746543" lon="13.072434794157743">
        <ele>1080.79</ele>
        <time>2019-06-16T12:10:59Z</time>
      </trkpt>
      <trkpt lat="42.877780152484775" lon="13.072432447224855">
        <ele>1080.21</ele>
        <time>2019-06-16T12:11:01Z</time>
      </trkpt>
      <trkpt lat="42.877669259905815" lon="13.0723662301898">
        <ele>1077.6500000000001</ele>
        <time>2019-06-16T12:11:12Z</time>
      </trkpt>
      <trkpt lat="42.877649813890457" lon="13.072357093915343">
        <ele>1076.9300000000001</ele>
        <time>2019-06-16T12:11:14Z</time>
      </trkpt>
      <trkpt lat="42.877581836655736" lon="13.072343934327364">
        <ele>1075.3099999999999</ele>
        <time>2019-06-16T12:11:21Z</time>
      </trkpt>
      <trkpt lat="42.877521570771933" lon="13.072337061166763">
        <ele>1074.6600000000001</ele>
        <time>2019-06-16T12:11:26Z</time>
      </trkpt>
      <trkpt lat="42.877381006255746" lon="13.072359692305326">
        <ele>1071.5599999999999</ele>
        <time>2019-06-16T12:11:37Z</time>
      </trkpt>
      <trkpt lat="42.877189815044403" lon="13.07236572727561">
        <ele>1069.1099999999999</ele>
        <time>2019-06-16T12:11:52Z</time>
      </trkpt>
      <trkpt lat="42.877036090940237" lon="13.072302024811506">
        <ele>1066.0799999999999</ele>
        <time>2019-06-16T12:12:05Z</time>
      </trkpt>
      <trkpt lat="42.876900052651763" lon="13.072198005393147">
        <ele>1062.99</ele>
        <time>2019-06-16T12:12:18Z</time>
      </trkpt>
      <trkpt lat="42.876744065433741" lon="13.072043946012855">
        <ele>1060.52</ele>
        <time>2019-06-16T12:12:33Z</time>
      </trkpt>
      <trkpt lat="42.87657743319869" lon="13.071834146976471">
        <ele>1057.52</ele>
        <time>2019-06-16T12:12:51Z</time>
      </trkpt>
      <trkpt lat="42.876486657187343" lon="13.071616804227233">
        <ele>1054.5999999999999</ele>
        <time>2019-06-16T12:13:08Z</time>
      </trkpt>
      <trkpt lat="42.876437874510884" lon="13.071479676291347">
        <ele>1053.72</ele>
        <time>2019-06-16T12:13:22Z</time>
      </trkpt>
      <trkpt lat="42.876455141231418" lon="13.071397868916392">
        <ele>1052.8</ele>
        <time>2019-06-16T12:13:32Z</time>
      </trkpt>
      <trkpt lat="42.87645866163075" lon="13.071374148130417">
        <ele>1052.5899999999999</ele>
        <time>2019-06-16T12:13:48Z</time>
      </trkpt>
      <trkpt lat="42.876451117917895" lon="13.0713733099401">
        <ele>1053.1099999999999</ele>
        <time>2019-06-16T12:13:57Z</time>
      </trkpt>
      <trkpt lat="42.876450447365642" lon="13.071368029341102">
        <ele>1052.4400000000001</ele>
        <time>2019-06-16T12:14:09Z</time>
      </trkpt>
      <trkpt lat="42.876458913087845" lon="13.071363419294357">
        <ele>1052.8099999999999</ele>
        <time>2019-06-16T12:14:32Z</time>
      </trkpt>
      <trkpt lat="42.876475844532251" lon="13.071346487849951">
        <ele>1052.9000000000001</ele>
        <time>2019-06-16T12:14:43Z</time>
      </trkpt>
      <trkpt lat="42.876481376588345" lon="13.071322934702039">
        <ele>1052.6099999999999</ele>
        <time>2019-06-16T12:14:45Z</time>
      </trkpt>
      <trkpt lat="42.87651046179235" lon="13.07110508903861">
        <ele>1050.73</ele>
        <time>2019-06-16T12:15:00Z</time>
      </trkpt>
      <trkpt lat="42.87652756087482" lon="13.070998722687364">
        <ele>1049.78</ele>
        <time>2019-06-16T12:15:10Z</time>
      </trkpt>
      <trkpt lat="42.876536278054118" lon="13.071019593626261">
        <ele>1049.98</ele>
        <time>2019-06-16T12:15:31Z</time>
      </trkpt>
      <trkpt lat="42.876551365479827" lon="13.071017330512404">
        <ele>1049.52</ele>
        <time>2019-06-16T12:15:58Z</time>
      </trkpt>
      <trkpt lat="42.876551952213049" lon="13.071023030206561">
        <ele>1049.8</ele>
        <time>2019-06-16T12:16:12Z</time>
      </trkpt>
      <trkpt lat="42.87655882537365" lon="13.071000315248966">
        <ele>1050.03</ele>
        <time>2019-06-16T12:16:30Z</time>
      </trkpt>
      <trkpt lat="42.876552538946271" lon="13.070978103205562">
        <ele>1049.6600000000001</ele>
        <time>2019-06-16T12:16:48Z</time>
      </trkpt>
      <trkpt lat="42.876585563644767" lon="13.070816667750478">
        <ele>1047.9100000000001</ele>
        <time>2019-06-16T12:17:01Z</time>
      </trkpt>
      <trkpt lat="42.876620013266802" lon="13.070590104907751">
        <ele>1046.1800000000001</ele>
        <time>2019-06-16T12:17:16Z</time>
      </trkpt>
      <trkpt lat="42.876629652455449" lon="13.070367397740483">
        <ele>1044.6400000000001</ele>
        <time>2019-06-16T12:17:31Z</time>
      </trkpt>
      <trkpt lat="42.876575421541929" lon="13.070147791877389">
        <ele>1042.78</ele>
        <time>2019-06-16T12:17:46Z</time>
      </trkpt>
      <trkpt lat="42.876486154273152" lon="13.06989423930645">
        <ele>1040.0599999999999</ele>
        <time>2019-06-16T12:18:03Z</time>
      </trkpt>
      <trkpt lat="42.876402419060469" lon="13.069749232381582">
        <ele>1036.9200000000001</ele>
        <time>2019-06-16T12:18:15Z</time>
      </trkpt>
      <trkpt lat="42.87627543322742" lon="13.069563489407301">
        <ele>1033.78</ele>
        <time>2019-06-16T12:18:30Z</time>
      </trkpt>
      <trkpt lat="42.876136796548963" lon="13.069429295137525">
        <ele>1030.73</ele>
        <time>2019-06-16T12:18:45Z</time>
      </trkpt>
      <trkpt lat="42.876000003889203" lon="13.069311529397964">
        <ele>1027.72</ele>
        <time>2019-06-16T12:19:00Z</time>
      </trkpt>
      <trkpt lat="42.875863295048475" lon="13.06921455077827">
        <ele>1024.6700000000001</ele>
        <time>2019-06-16T12:19:15Z</time>
      </trkpt>
      <trkpt lat="42.875739661976695" lon="13.069155039265752">
        <ele>1021.58</ele>
        <time>2019-06-16T12:19:27Z</time>
      </trkpt>
      <trkpt lat="42.875612592324615" lon="13.069096701219678">
        <ele>1018.41</ele>
        <time>2019-06-16T12:19:39Z</time>
      </trkpt>
      <trkpt lat="42.875496670603752" lon="13.069002907723188">
        <ele>1015.28</ele>
        <time>2019-06-16T12:19:52Z</time>
      </trkpt>
      <trkpt lat="42.87538762204349" lon="13.068853793665767">
        <ele>1012.1900000000001</ele>
        <time>2019-06-16T12:20:06Z</time>
      </trkpt>
      <trkpt lat="42.875320063903928" lon="13.068715156987309">
        <ele>1008.86</ele>
        <time>2019-06-16T12:20:17Z</time>
      </trkpt>
      <trkpt lat="42.875233478844166" lon="13.068522457033396">
        <ele>1006.16</ele>
        <time>2019-06-16T12:20:32Z</time>
      </trkpt>
      <trkpt lat="42.875198358669877" lon="13.068340821191669">
        <ele>1003.0700000000001</ele>
        <time>2019-06-16T12:20:45Z</time>
      </trkpt>
      <trkpt lat="42.875123172998428" lon="13.06814493611455">
        <ele>999.92999999999995</ele>
        <time>2019-06-16T12:20:59Z</time>
      </trkpt>
      <trkpt lat="42.87500062957406" lon="13.067989870905876">
        <ele>997.13999999999999</ele>
        <time>2019-06-16T12:21:14Z</time>
      </trkpt>
      <trkpt lat="42.874882947653532" lon="13.067848384380341">
        <ele>993.91999999999996</ele>
        <time>2019-06-16T12:21:29Z</time>
      </trkpt>
      <trkpt lat="42.874828884378076" lon="13.067737324163318">
        <ele>991.45000000000005</ele>
        <time>2019-06-16T12:21:40Z</time>
      </trkpt>
      <trkpt lat="42.874793680384755" lon="13.067545378580689">
        <ele>988.22000000000003</ele>
        <time>2019-06-16T12:21:54Z</time>
      </trkpt>
      <trkpt lat="42.874786220490932" lon="13.067312110215425">
        <ele>985.10000000000002</ele>
        <time>2019-06-16T12:22:10Z</time>
      </trkpt>
      <trkpt lat="42.874758141115308" lon="13.067141873762012">
        <ele>982.20000000000005</ele>
        <time>2019-06-16T12:22:25Z</time>
      </trkpt>
      <trkpt lat="42.874749004840851" lon="13.06713005527854">
        <ele>981.35000000000002</ele>
        <time>2019-06-16T12:22:36Z</time>
      </trkpt>
      <trkpt lat="42.874749172478914" lon="13.067105999216437">
        <ele>981.69000000000005</ele>
        <time>2019-06-16T12:22:50Z</time>
      </trkpt>
      <trkpt lat="42.874755291268229" lon="13.067087810486555">
        <ele>981.49000000000001</ele>
        <time>2019-06-16T12:23:04Z</time>
      </trkpt>
      <trkpt lat="42.874737689271569" lon="13.067073225975037">
        <ele>981.00999999999999</ele>
        <time>2019-06-16T12:23:15Z</time>
      </trkpt>
      <trkpt lat="42.874732995405793" lon="13.067037770524621">
        <ele>979.75</ele>
        <time>2019-06-16T12:23:26Z</time>
      </trkpt>
      <trkpt lat="42.874710783362389" lon="13.066940540447831">
        <ele>978.61000000000001</ele>
        <time>2019-06-16T12:23:38Z</time>
      </trkpt>
      <trkpt lat="42.874671388417482" lon="13.06677189655602">
        <ele>975.28999999999996</ele>
        <time>2019-06-16T12:23:51Z</time>
      </trkpt>
      <trkpt lat="42.874647164717317" lon="13.066602749750018">
        <ele>971.94000000000005</ele>
        <time>2019-06-16T12:24:04Z</time>
      </trkpt>
      <trkpt lat="42.874592514708638" lon="13.066449193283916">
        <ele>968.66999999999996</ele>
        <time>2019-06-16T12:24:18Z</time>
      </trkpt>
      <trkpt lat="42.874554125592113" lon="13.066399320960045">
        <ele>967.34000000000003</ele>
        <time>2019-06-16T12:24:25Z</time>
      </trkpt>
      <trkpt lat="42.874532751739025" lon="13.066322291269898">
        <ele>966.08000000000004</ele>
        <time>2019-06-16T12:24:36Z</time>
      </trkpt>
      <trkpt lat="42.874509785324335" lon="13.066279040649533">
        <ele>965.10000000000002</ele>
        <time>2019-06-16T12:24:49Z</time>
      </trkpt>
      <trkpt lat="42.874523028731346" lon="13.066232604905963">
        <ele>964.72000000000003</ele>
        <time>2019-06-16T12:25:04Z</time>
      </trkpt>
      <trkpt lat="42.874507438391447" lon="13.066226150840521">
        <ele>961.92999999999995</ele>
        <time>2019-06-16T12:25:16Z</time>
      </trkpt>
      <trkpt lat="42.874515820294619" lon="13.066249452531338">
        <ele>962.27999999999997</ele>
        <time>2019-06-16T12:25:26Z</time>
      </trkpt>
      <trkpt lat="42.8745236992836" lon="13.066246099770069">
        <ele>960.63</ele>
        <time>2019-06-16T12:25:40Z</time>
      </trkpt>
      <trkpt lat="42.874510623514652" lon="13.066259091719985">
        <ele>960.48000000000002</ele>
        <time>2019-06-16T12:26:03Z</time>
      </trkpt>
      <trkpt lat="42.874496374279261" lon="13.06623637676239">
        <ele>960.24000000000001</ele>
        <time>2019-06-16T12:26:22Z</time>
      </trkpt>
      <trkpt lat="42.87449000403285" lon="13.066231263801455">
        <ele>960.41999999999996</ele>
        <time>2019-06-16T12:26:43Z</time>
      </trkpt>
      <trkpt lat="42.87448120303452" lon="13.06621584109962">
        <ele>960.36000000000001</ele>
        <time>2019-06-16T12:27:04Z</time>
      </trkpt>
      <trkpt lat="42.874487154185772" lon="13.066221540793777">
        <ele>960.30999999999995</ele>
        <time>2019-06-16T12:27:25Z</time>
      </trkpt>
      <trkpt lat="42.874475168064237" lon="13.066236041486263">
        <ele>960.14999999999998</ele>
        <time>2019-06-16T12:27:50Z</time>
      </trkpt>
      <trkpt lat="42.874474329873919" lon="13.066250374540687">
        <ele>960.12</ele>
        <time>2019-06-16T12:28:13Z</time>
      </trkpt>
      <trkpt lat="42.874474162235856" lon="13.066253056749701">
        <ele>960.04999999999995</ele>
        <time>2019-06-16T12:28:36Z</time>
      </trkpt>
      <trkpt lat="42.874468881636858" lon="13.06624123826623">
        <ele>959.94000000000005</ele>
        <time>2019-06-16T12:28:59Z</time>
      </trkpt>
      <trkpt lat="42.874471396207809" lon="13.066226486116648">
        <ele>960.25999999999999</ele>
        <time>2019-06-16T12:29:21Z</time>
      </trkpt>
      <trkpt lat="42.874458152800798" lon="13.066206537187099">
        <ele>959.73000000000002</ele>
        <time>2019-06-16T12:29:42Z</time>
      </trkpt>
      <trkpt lat="42.874453207477927" lon="13.066230090335011">
        <ele>959.88999999999999</ele>
        <time>2019-06-16T12:30:05Z</time>
      </trkpt>
      <trkpt lat="42.874450944364071" lon="13.066231599077582">
        <ele>959.96000000000004</ele>
        <time>2019-06-16T12:30:26Z</time>
      </trkpt>
      <trkpt lat="42.874449854716659" lon="13.066207207739353">
        <ele>959.87</ele>
        <time>2019-06-16T12:30:50Z</time>
      </trkpt>
      <trkpt lat="42.874454716220498" lon="13.066197987645864">
        <ele>961.09000000000003</ele>
        <time>2019-06-16T12:30:59Z</time>
      </trkpt>
      <trkpt lat="42.87448463961482" lon="13.066139984875917">
        <ele>961.45000000000005</ele>
        <time>2019-06-16T12:31:08Z</time>
      </trkpt>
      <trkpt lat="42.874526968225837" lon="13.066054070368409">
        <ele>960.95000000000005</ele>
        <time>2019-06-16T12:31:17Z</time>
      </trkpt>
      <trkpt lat="42.874576086178422" lon="13.065915936604142">
        <ele>959.51999999999998</ele>
        <time>2019-06-16T12:31:32Z</time>
      </trkpt>
      <trkpt lat="42.874584384262562" lon="13.065908728167415">
        <ele>959.42999999999995</ele>
        <time>2019-06-16T12:31:47Z</time>
      </trkpt>
      <trkpt lat="42.87459846585989" lon="13.065900010988116">
        <ele>959.38</ele>
        <time>2019-06-16T12:32:12Z</time>
      </trkpt>
      <trkpt lat="42.874614642933011" lon="13.065905794501305">
        <ele>959.40999999999997</ele>
        <time>2019-06-16T12:32:32Z</time>
      </trkpt>
      <trkpt lat="42.874612882733345" lon="13.065913422033191">
        <ele>959.32000000000005</ele>
        <time>2019-06-16T12:32:49Z</time>
      </trkpt>
      <trkpt lat="42.874610787257552" lon="13.065902609378099">
        <ele>959.69000000000005</ele>
        <time>2019-06-16T12:33:11Z</time>
      </trkpt>
      <trkpt lat="42.874627048149705" lon="13.065917696803808">
        <ele>959.39999999999998</ele>
        <time>2019-06-16T12:33:33Z</time>
      </trkpt>
      <trkpt lat="42.874622354283929" lon="13.065914260223508">
        <ele>959.19000000000005</ele>
        <time>2019-06-16T12:33:52Z</time>
      </trkpt>
      <trkpt lat="42.874614475294948" lon="13.065926330164075">
        <ele>959.25999999999999</ele>
        <time>2019-06-16T12:34:09Z</time>
      </trkpt>
      <trkpt lat="42.874598214402795" lon="13.065920965746045">
        <ele>959.26999999999998</ele>
        <time>2019-06-16T12:34:30Z</time>
      </trkpt>
      <trkpt lat="42.874600142240524" lon="13.065919457003474">
        <ele>959.16999999999996</ele>
        <time>2019-06-16T12:34:44Z</time>
      </trkpt>
      <trkpt lat="42.874601818621159" lon="13.065916020423174">
        <ele>957.63999999999999</ele>
        <time>2019-06-16T12:34:57Z</time>
      </trkpt>
      <trkpt lat="42.874602153897285" lon="13.065916355699301">
        <ele>961.13</ele>
        <time>2019-06-16T12:34:59Z</time>
      </trkpt>
      <trkpt lat="42.874602992087603" lon="13.065916355699301">
        <ele>960.16999999999996</ele>
        <time>2019-06-16T12:35:00Z</time>
      </trkpt>
      <trkpt lat="42.874604752287269" lon="13.065917529165745">
        <ele>959.14999999999998</ele>
        <time>2019-06-16T12:35:02Z</time>
      </trkpt>
      <trkpt lat="42.874607183039188" lon="13.065918702632189">
        <ele>959.09000000000003</ele>
        <time>2019-06-16T12:35:22Z</time>
      </trkpt>
      <trkpt lat="42.874611122533679" lon="13.065921133384109">
        <ele>959.26999999999998</ele>
        <time>2019-06-16T12:35:41Z</time>
      </trkpt>
      <trkpt lat="42.87461212836206" lon="13.065923731774092">
        <ele>959.35000000000002</ele>
        <time>2019-06-16T12:36:03Z</time>
      </trkpt>
      <trkpt lat="42.874632496386766" lon="13.065906129777431">
        <ele>958.79999999999995</ele>
        <time>2019-06-16T12:36:10Z</time>
      </trkpt>
      <trkpt lat="42.874707346782088" lon="13.065716363489628">
        <ele>958.82000000000005</ele>
        <time>2019-06-16T12:36:27Z</time>
      </trkpt>
      <trkpt lat="42.874712208285928" lon="13.065706137567759">
        <ele>958.69000000000005</ele>
        <time>2019-06-16T12:36:28Z</time>
      </trkpt>
      <trkpt lat="42.874776748940349" lon="13.065615864470601">
        <ele>958.39999999999998</ele>
        <time>2019-06-16T12:36:41Z</time>
      </trkpt>
      <trkpt lat="42.874843385070562" lon="13.065524250268936">
        <ele>957.90999999999997</ele>
        <time>2019-06-16T12:36:54Z</time>
      </trkpt>
      <trkpt lat="42.874899795278907" lon="13.065414363518357">
        <ele>954.92999999999995</ele>
        <time>2019-06-16T12:37:08Z</time>
      </trkpt>
      <trkpt lat="42.874952265992761" lon="13.065334986895323">
        <ele>954.07000000000005</ele>
        <time>2019-06-16T12:37:21Z</time>
      </trkpt>
      <trkpt lat="42.875006161630154" lon="13.06514723226428">
        <ele>951.94000000000005</ele>
        <time>2019-06-16T12:37:37Z</time>
      </trkpt>
      <trkpt lat="42.875033402815461" lon="13.065085289999843">
        <ele>951.15999999999997</ele>
        <time>2019-06-16T12:37:44Z</time>
      </trkpt>
      <trkpt lat="42.875091908499599" lon="13.064903737977147">
        <ele>949.30999999999995</ele>
        <time>2019-06-16T12:37:58Z</time>
      </trkpt>
      <trkpt lat="42.875100374221802" lon="13.064795946702361">
        <ele>948.11000000000001</ele>
        <time>2019-06-16T12:38:10Z</time>
      </trkpt>
      <trkpt lat="42.875103056430817" lon="13.064767029136419">
        <ele>947.78999999999996</ele>
        <time>2019-06-16T12:38:22Z</time>
      </trkpt>
      <trkpt lat="42.875108923763037" lon="13.064675917848945">
        <ele>947.20000000000005</ele>
        <time>2019-06-16T12:38:32Z</time>
      </trkpt>
      <trkpt lat="42.875112611800432" lon="13.064658734947443">
        <ele>946.17999999999995</ele>
        <time>2019-06-16T12:38:46Z</time>
      </trkpt>
      <trkpt lat="42.875121748074889" lon="13.064646497368813">
        <ele>947.54999999999995</ele>
        <time>2019-06-16T12:38:48Z</time>
      </trkpt>
      <trkpt lat="42.875153683125973" lon="13.064632415771484">
        <ele>946.89999999999998</ele>
        <time>2019-06-16T12:39:03Z</time>
      </trkpt>
      <trkpt lat="42.875150749459863" lon="13.064633002504706">
        <ele>947.28999999999996</ele>
        <time>2019-06-16T12:39:27Z</time>
      </trkpt>
      <trkpt lat="42.87514622323215" lon="13.064617160707712">
        <ele>947.46000000000004</ele>
        <time>2019-06-16T12:39:47Z</time>
      </trkpt>
      <trkpt lat="42.875193497166038" lon="13.064527222886682">
        <ele>946.87</ele>
        <time>2019-06-16T12:40:01Z</time>
      </trkpt>
      <trkpt lat="42.875215793028474" lon="13.064494114369154">
        <ele>946.59000000000003</ele>
        <time>2019-06-16T12:40:07Z</time>
      </trkpt>
      <trkpt lat="42.875255355611444" lon="13.064379533752799">
        <ele>944.13</ele>
        <time>2019-06-16T12:40:19Z</time>
      </trkpt>
      <trkpt lat="42.875292152166367" lon="13.064221534878016">
        <ele>941.11000000000001</ele>
        <time>2019-06-16T12:40:34Z</time>
      </trkpt>
      <trkpt lat="42.875334564596415" lon="13.064043251797557">
        <ele>937.91999999999996</ele>
        <time>2019-06-16T12:40:51Z</time>
      </trkpt>
      <trkpt lat="42.875358117744327" lon="13.063943339511752">
        <ele>935.38999999999999</ele>
        <time>2019-06-16T12:41:03Z</time>
      </trkpt>
      <trkpt lat="42.875372199341655" lon="13.063894473016262">
        <ele>934.71000000000004</ele>
        <time>2019-06-16T12:41:13Z</time>
      </trkpt>
      <trkpt lat="42.875372869893909" lon="13.063809731975198">
        <ele>934.16999999999996</ele>
        <time>2019-06-16T12:41:26Z</time>
      </trkpt>
      <trkpt lat="42.875401871278882" lon="13.063762038946152">
        <ele>933.36000000000001</ele>
        <time>2019-06-16T12:41:33Z</time>
      </trkpt>
      <trkpt lat="42.875430453568697" lon="13.063682159408927">
        <ele>931.88999999999999</ele>
        <time>2019-06-16T12:41:48Z</time>
      </trkpt>
      <trkpt lat="42.875447049736977" lon="13.063662126660347">
        <ele>931.39999999999998</ele>
        <time>2019-06-16T12:42:07Z</time>
      </trkpt>
      <trkpt lat="42.875451575964689" lon="13.06365005671978">
        <ele>931.49000000000001</ele>
        <time>2019-06-16T12:42:21Z</time>
      </trkpt>
      <trkpt lat="42.875493401661515" lon="13.063572607934475">
        <ele>929.91999999999996</ele>
        <time>2019-06-16T12:42:32Z</time>
      </trkpt>
      <trkpt lat="42.875542854890227" lon="13.063435815274715">
        <ele>927.71000000000004</ele>
        <time>2019-06-16T12:42:45Z</time>
      </trkpt>
      <trkpt lat="42.875586356967688" lon="13.063342357054353">
        <ele>925.88</ele>
        <time>2019-06-16T12:42:58Z</time>
      </trkpt>
      <trkpt lat="42.875619633123279" lon="13.063257280737162">
        <ele>923.71000000000004</ele>
        <time>2019-06-16T12:43:08Z</time>
      </trkpt>
      <trkpt lat="42.875646958127618" lon="13.063172874972224">
        <ele>923.92999999999995</ele>
        <time>2019-06-16T12:43:17Z</time>
      </trkpt>
      <trkpt lat="42.87573304027319" lon="13.063018396496773">
        <ele>920.37</ele>
        <time>2019-06-16T12:43:32Z</time>
      </trkpt>
      <trkpt lat="42.87577654235065" lon="13.062808932736516">
        <ele>918.35000000000002</ele>
        <time>2019-06-16T12:43:46Z</time>
      </trkpt>
      <trkpt lat="42.875768076628447" lon="13.062754366546869">
        <ele>917.88999999999999</ele>
        <time>2019-06-16T12:44:00Z</time>
      </trkpt>
      <trkpt lat="42.875763801857829" lon="13.062760401517153">
        <ele>917.95000000000005</ele>
        <time>2019-06-16T12:44:15Z</time>
      </trkpt>
      <trkpt lat="42.875797916203737" lon="13.062822762876749">
        <ele>918.24000000000001</ele>
        <time>2019-06-16T12:44:27Z</time>
      </trkpt>
      <trkpt lat="42.875821050256491" lon="13.06280423887074">
        <ele>918.03999999999996</ele>
        <time>2019-06-16T12:44:42Z</time>
      </trkpt>
      <trkpt lat="42.875842843204737" lon="13.06276123970747">
        <ele>916.94000000000005</ele>
        <time>2019-06-16T12:44:53Z</time>
      </trkpt>
      <trkpt lat="42.875858182087541" lon="13.062736596912146">
        <ele>916.25</ele>
        <time>2019-06-16T12:44:57Z</time>
      </trkpt>
      <trkpt lat="42.87591191008687" lon="13.0626405403018">
        <ele>914.90999999999997</ele>
        <time>2019-06-16T12:45:10Z</time>
      </trkpt>
      <trkpt lat="42.875941330567002" lon="13.062548004090786">
        <ele>911.88</ele>
        <time>2019-06-16T12:45:19Z</time>
      </trkpt>
      <trkpt lat="42.875987766310573" lon="13.062450438737869">
        <ele>909.99000000000001</ele>
        <time>2019-06-16T12:45:32Z</time>
      </trkpt>
      <trkpt lat="42.87602330558002" lon="13.062361842021346">
        <ele>908.40999999999997</ele>
        <time>2019-06-16T12:45:45Z</time>
      </trkpt>
      <trkpt lat="42.876070328056812" lon="13.062283555045724">
        <ele>907.27999999999997</ele>
        <time>2019-06-16T12:45:56Z</time>
      </trkpt>
      <trkpt lat="42.876088013872504" lon="13.062257403507829">
        <ele>905.88999999999999</ele>
        <time>2019-06-16T12:45:59Z</time>
      </trkpt>
      <trkpt lat="42.876147609204054" lon="13.062156904488802">
        <ele>903.77999999999997</ele>
        <time>2019-06-16T12:46:11Z</time>
      </trkpt>
      <trkpt lat="42.876155069097877" lon="13.062089430168271">
        <ele>902.91999999999996</ele>
        <time>2019-06-16T12:46:23Z</time>
      </trkpt>
      <trkpt lat="42.876105280593038" lon="13.062075180932879">
        <ele>901.27999999999997</ele>
        <time>2019-06-16T12:46:35Z</time>
      </trkpt>
      <trkpt lat="42.876085499301553" lon="13.062056908383965">
        <ele>900.42999999999995</ele>
        <time>2019-06-16T12:46:47Z</time>
      </trkpt>
      <trkpt lat="42.876041494309902" lon="13.062065960839391">
        <ele>899.23000000000002</ele>
        <time>2019-06-16T12:47:02Z</time>
      </trkpt>
      <trkpt lat="42.875948119908571" lon="13.0620326846838">
        <ele>896.74000000000001</ele>
        <time>2019-06-16T12:47:15Z</time>
      </trkpt>
      <trkpt lat="42.875936888158321" lon="13.062031008303165">
        <ele>896.32000000000005</ele>
        <time>2019-06-16T12:47:17Z</time>
      </trkpt>
      <trkpt lat="42.875849045813084" lon="13.062017345800996">
        <ele>894.61000000000001</ele>
        <time>2019-06-16T12:47:27Z</time>
      </trkpt>
      <trkpt lat="42.875756761059165" lon="13.061999576166272">
        <ele>892.30999999999995</ele>
        <time>2019-06-16T12:47:40Z</time>
      </trkpt>
      <trkpt lat="42.875676797702909" lon="13.061969401314855">
        <ele>889.03999999999996</ele>
        <time>2019-06-16T12:47:53Z</time>
      </trkpt>
      <trkpt lat="42.875660117715597" lon="13.061939394101501">
        <ele>887.94000000000005</ele>
        <time>2019-06-16T12:48:06Z</time>
      </trkpt>
      <trkpt lat="42.875644192099571" lon="13.061870997771621">
        <ele>887.14999999999998</ele>
        <time>2019-06-16T12:48:19Z</time>
      </trkpt>
      <trkpt lat="42.875636396929622" lon="13.061728840693831">
        <ele>884.09000000000003</ele>
        <time>2019-06-16T12:48:32Z</time>
      </trkpt>
      <trkpt lat="42.875666487962008" lon="13.061620714142919">
        <ele>881.46000000000004</ele>
        <time>2019-06-16T12:48:44Z</time>
      </trkpt>
      <trkpt lat="42.875615861266851" lon="13.061515521258116">
        <ele>878.88</ele>
        <time>2019-06-16T12:48:57Z</time>
      </trkpt>
      <trkpt lat="42.875544698908925" lon="13.061424661427736">
        <ele>875.96000000000004</ele>
        <time>2019-06-16T12:49:11Z</time>
      </trkpt>
      <trkpt lat="42.875531958416104" lon="13.06131100282073">
        <ele>873.25</ele>
        <time>2019-06-16T12:49:24Z</time>
      </trkpt>
      <trkpt lat="42.875494910404086" lon="13.06121519766748">
        <ele>871.16999999999996</ele>
        <time>2019-06-16T12:49:37Z</time>
      </trkpt>
      <trkpt lat="42.875488623976707" lon="13.061220981180668">
        <ele>870.97000000000003</ele>
        <time>2019-06-16T12:49:38Z</time>
      </trkpt>
      <trkpt lat="42.875444535166025" lon="13.061201199889183">
        <ele>870.25</ele>
        <time>2019-06-16T12:49:43Z</time>
      </trkpt>
      <trkpt lat="42.875432297587395" lon="13.061146298423409">
        <ele>869.86000000000001</ele>
        <time>2019-06-16T12:49:55Z</time>
      </trkpt>
      <trkpt lat="42.875440511852503" lon="13.061110926792026">
        <ele>870.12</ele>
        <time>2019-06-16T12:50:07Z</time>
      </trkpt>
      <trkpt lat="42.875445373356342" lon="13.061040183529258">
        <ele>869.00999999999999</ele>
        <time>2019-06-16T12:50:20Z</time>
      </trkpt>
      <trkpt lat="42.875420730561018" lon="13.061016630381346">
        <ele>868.75</ele>
        <time>2019-06-16T12:50:35Z</time>
      </trkpt>
      <trkpt lat="42.87544185295701" lon="13.061036244034767">
        <ele>868.41999999999996</ele>
        <time>2019-06-16T12:50:44Z</time>
      </trkpt>
      <trkpt lat="42.875491054728627" lon="13.061023922637105">
        <ele>868.67999999999995</ele>
        <time>2019-06-16T12:50:50Z</time>
      </trkpt>
      <trkpt lat="42.87556255236268" lon="13.060923591256142">
        <ele>867.13999999999999</ele>
        <time>2019-06-16T12:51:05Z</time>
      </trkpt>
      <trkpt lat="42.87551854737103" lon="13.06100070476532">
        <ele>867.70000000000005</ele>
        <time>2019-06-16T12:51:17Z</time>
      </trkpt>
      <trkpt lat="42.875459874048829" lon="13.06104370392859">
        <ele>868.54999999999995</ele>
        <time>2019-06-16T12:51:30Z</time>
      </trkpt>
      <trkpt lat="42.875450737774372" lon="13.061046050861478">
        <ele>868.47000000000003</ele>
        <time>2019-06-16T12:51:48Z</time>
      </trkpt>
      <trkpt lat="42.875451408326626" lon="13.061040267348289">
        <ele>868.53999999999996</ele>
        <time>2019-06-16T12:52:08Z</time>
      </trkpt>
      <trkpt lat="42.875434644520283" lon="13.061031214892864">
        <ele>868.21000000000004</ele>
        <time>2019-06-16T12:52:23Z</time>
      </trkpt>
      <trkpt lat="42.875426933169365" lon="13.061025431379676">
        <ele>868.20000000000005</ele>
        <time>2019-06-16T12:52:39Z</time>
      </trkpt>
      <trkpt lat="42.875374378636479" lon="13.061028029769659">
        <ele>866.76999999999998</ele>
        <time>2019-06-16T12:52:52Z</time>
      </trkpt>
      <trkpt lat="42.87534068338573" lon="13.06102367118001">
        <ele>865.22000000000003</ele>
        <time>2019-06-16T12:53:04Z</time>
      </trkpt>
      <trkpt lat="42.875337833538651" lon="13.061029119417071">
        <ele>865.21000000000004</ele>
        <time>2019-06-16T12:53:19Z</time>
      </trkpt>
      <trkpt lat="42.875287542119622" lon="13.06099584326148">
        <ele>864.33000000000004</ele>
        <time>2019-06-16T12:53:31Z</time>
      </trkpt>
      <trkpt lat="42.875206572934985" lon="13.060918981209397">
        <ele>861.67999999999995</ele>
        <time>2019-06-16T12:53:45Z</time>
      </trkpt>
      <trkpt lat="42.875166339799762" lon="13.060878328979015">
        <ele>860.26999999999998</ele>
        <time>2019-06-16T12:53:58Z</time>
      </trkpt>
      <trkpt lat="42.875127196311951" lon="13.060842622071505">
        <ele>859.20000000000005</ele>
        <time>2019-06-16T12:54:08Z</time>
      </trkpt>
      <trkpt lat="42.875070869922638" lon="13.060771627351642">
        <ele>857.13999999999999</ele>
        <time>2019-06-16T12:54:20Z</time>
      </trkpt>
      <trkpt lat="42.874973053112626" lon="13.060664925724268">
        <ele>854.26999999999998</ele>
        <time>2019-06-16T12:54:37Z</time>
      </trkpt>
      <trkpt lat="42.874979339540005" lon="13.06065478362143">
        <ele>854</ele>
        <time>2019-06-16T12:54:51Z</time>
      </trkpt>
      <trkpt lat="42.874951679259539" lon="13.060618070885539">
        <ele>853.32000000000005</ele>
        <time>2019-06-16T12:55:15Z</time>
      </trkpt>
      <trkpt lat="42.874937262386084" lon="13.060606587678194">
        <ele>852.50999999999999</ele>
        <time>2019-06-16T12:55:30Z</time>
      </trkpt>
      <trkpt lat="42.874901136383414" lon="13.060561157763004">
        <ele>851.79999999999995</ele>
        <time>2019-06-16T12:55:43Z</time>
      </trkpt>
      <trkpt lat="42.87488479167223" lon="13.060528049245477">
        <ele>850.71000000000004</ele>
        <time>2019-06-16T12:55:48Z</time>
      </trkpt>
      <trkpt lat="42.874876074492931" lon="13.06050131097436">
        <ele>849.85000000000002</ele>
        <time>2019-06-16T12:55:50Z</time>
      </trkpt>
      <trkpt lat="42.874837350100279" lon="13.06028924882412">
        <ele>848.75</ele>
        <time>2019-06-16T12:56:05Z</time>
      </trkpt>
      <trkpt lat="42.874824777245522" lon="13.060254128649831">
        <ele>847.5</ele>
        <time>2019-06-16T12:56:17Z</time>
      </trkpt>
      <trkpt lat="42.874787310138345" lon="13.060227055102587">
        <ele>846.25</ele>
        <time>2019-06-16T12:56:24Z</time>
      </trkpt>
      <trkpt lat="42.874731486663222" lon="13.060181876644492">
        <ele>844.73000000000002</ele>
        <time>2019-06-16T12:56:31Z</time>
      </trkpt>
      <trkpt lat="42.874613385647535" lon="13.060158407315612">
        <ele>841.26999999999998</ele>
        <time>2019-06-16T12:56:44Z</time>
      </trkpt>
      <trkpt lat="42.874564435333014" lon="13.060165112838149">
        <ele>840.13999999999999</ele>
        <time>2019-06-16T12:56:52Z</time>
      </trkpt>
      <trkpt lat="42.874555885791779" lon="13.060160502791405">
        <ele>839.92999999999995</ele>
        <time>2019-06-16T12:56:53Z</time>
      </trkpt>
      <trkpt lat="42.874520178884268" lon="13.06014021858573">
        <ele>839.28999999999996</ele>
        <time>2019-06-16T12:56:57Z</time>
      </trkpt>
      <trkpt lat="42.874398892745376" lon="13.060096548870206">
        <ele>835.91999999999996</ele>
        <time>2019-06-16T12:57:10Z</time>
      </trkpt>
      <trkpt lat="42.874303255230188" lon="13.060084227472544">
        <ele>832.77999999999997</ele>
        <time>2019-06-16T12:57:20Z</time>
      </trkpt>
      <trkpt lat="42.874176101759076" lon="13.060051873326302">
        <ele>829.69000000000005</ele>
        <time>2019-06-16T12:57:33Z</time>
      </trkpt>
      <trkpt lat="42.874016594141722" lon="13.059937711805105">
        <ele>826.50999999999999</ele>
        <time>2019-06-16T12:57:51Z</time>
      </trkpt>
      <trkpt lat="42.873883573338389" lon="13.05990083143115">
        <ele>823.79999999999995</ele>
        <time>2019-06-16T12:58:05Z</time>
      </trkpt>
      <trkpt lat="42.873840238898993" lon="13.059923378750682">
        <ele>822.80999999999995</ele>
        <time>2019-06-16T12:58:10Z</time>
      </trkpt>
      <trkpt lat="42.873781817033887" lon="13.059946931898594">
        <ele>822.09000000000003</ele>
        <time>2019-06-16T12:58:16Z</time>
      </trkpt>
      <trkpt lat="42.873698165640235" lon="13.060103673487902">
        <ele>819.75999999999999</ele>
        <time>2019-06-16T12:58:31Z</time>
      </trkpt>
      <trkpt lat="42.873676540330052" lon="13.060148935765028">
        <ele>818.82000000000005</ele>
        <time>2019-06-16T12:58:35Z</time>
      </trkpt>
      <trkpt lat="42.873577466234565" lon="13.060336355119944">
        <ele>817.72000000000003</ele>
        <time>2019-06-16T12:58:52Z</time>
      </trkpt>
      <trkpt lat="42.873536059632897" lon="13.060462167486548">
        <ele>817.37</ele>
        <time>2019-06-16T12:59:00Z</time>
      </trkpt>
      <trkpt lat="42.873472021892667" lon="13.06063667871058">
        <ele>817.57000000000005</ele>
        <time>2019-06-16T12:59:13Z</time>
      </trkpt>
      <trkpt lat="42.873403374105692" lon="13.060853350907564">
        <ele>817.15999999999997</ele>
        <time>2019-06-16T12:59:29Z</time>
      </trkpt>
      <trkpt lat="42.873353082686663" lon="13.06103247217834">
        <ele>817.38999999999999</ele>
        <time>2019-06-16T12:59:43Z</time>
      </trkpt>
      <trkpt lat="42.873281333595514" lon="13.061213102191687">
        <ele>817.37</ele>
        <time>2019-06-16T12:59:59Z</time>
      </trkpt>
      <trkpt lat="42.873169183731079" lon="13.061274122446775">
        <ele>814.09000000000003</ele>
        <time>2019-06-16T13:00:12Z</time>
      </trkpt>
      <trkpt lat="42.873052842915058" lon="13.061266411095858">
        <ele>811.02999999999997</ele>
        <time>2019-06-16T13:00:25Z</time>
      </trkpt>
      <trkpt lat="42.872980255633593" lon="13.06122207082808">
        <ele>808.21000000000004</ele>
        <time>2019-06-16T13:00:38Z</time>
      </trkpt>
      <trkpt lat="42.872968437150121" lon="13.061200529336929">
        <ele>808.19000000000005</ele>
        <time>2019-06-16T13:00:40Z</time>
      </trkpt>
      <trkpt lat="42.872875481843948" lon="13.061081506311893">
        <ele>805.74000000000001</ele>
        <time>2019-06-16T13:00:54Z</time>
      </trkpt>
      <trkpt lat="42.872802307829261" lon="13.061041608452797">
        <ele>803.70000000000005</ele>
        <time>2019-06-16T13:01:05Z</time>
      </trkpt>
      <trkpt lat="42.872728379443288" lon="13.061070442199707">
        <ele>801.21000000000004</ele>
        <time>2019-06-16T13:01:15Z</time>
      </trkpt>
      <trkpt lat="42.872625617310405" lon="13.06113263592124">
        <ele>798.00999999999999</ele>
        <time>2019-06-16T13:01:30Z</time>
      </trkpt>
      <trkpt lat="42.872556215152144" lon="13.061148310080171">
        <ele>796.00999999999999</ele>
        <time>2019-06-16T13:01:41Z</time>
      </trkpt>
      <trkpt lat="42.872546911239624" lon="13.06114780716598">
        <ele>795.82000000000005</ele>
        <time>2019-06-16T13:01:42Z</time>
      </trkpt>
      <trkpt lat="42.872463930398226" lon="13.061119560152292">
        <ele>793.41999999999996</ele>
        <time>2019-06-16T13:01:51Z</time>
      </trkpt>
      <trkpt lat="42.872430235147476" lon="13.061092486605048">
        <ele>792.55999999999995</ele>
        <time>2019-06-16T13:01:55Z</time>
      </trkpt>
      <trkpt lat="42.872316157445312" lon="13.060985868796706">
        <ele>790</ele>
        <time>2019-06-16T13:02:10Z</time>
      </trkpt>
      <trkpt lat="42.872256394475698" lon="13.060927027836442">
        <ele>789.99000000000001</ele>
        <time>2019-06-16T13:02:21Z</time>
      </trkpt>
      <trkpt lat="42.872242983430624" lon="13.060813201591372">
        <ele>790.92999999999995</ele>
        <time>2019-06-16T13:02:33Z</time>
      </trkpt>
      <trkpt lat="42.872172826901078" lon="13.060714295133948">
        <ele>791.71000000000004</ele>
        <time>2019-06-16T13:02:45Z</time>
      </trkpt>
      <trkpt lat="42.872068053111434" lon="13.060621339827776">
        <ele>793.55999999999995</ele>
        <time>2019-06-16T13:02:59Z</time>
      </trkpt>
      <trkpt lat="42.872003009542823" lon="13.060519499704242">
        <ele>795.37</ele>
        <time>2019-06-16T13:03:12Z</time>
      </trkpt>
      <trkpt lat="42.871927656233311" lon="13.060489241033792">
        <ele>796.33000000000004</ele>
        <time>2019-06-16T13:03:24Z</time>
      </trkpt>
      <trkpt lat="42.871896391734481" lon="13.060506591573358">
        <ele>797.16999999999996</ele>
        <time>2019-06-16T13:03:35Z</time>
      </trkpt>
      <trkpt lat="42.87181718274951" lon="13.060521259903908">
        <ele>798.12</ele>
        <time>2019-06-16T13:03:46Z</time>
      </trkpt>
      <trkpt lat="42.871797820553184" lon="13.060488319024444">
        <ele>797.79999999999995</ele>
        <time>2019-06-16T13:03:59Z</time>
      </trkpt>
      <trkpt lat="42.871813494712114" lon="13.06049108505249">
        <ele>797.95000000000005</ele>
        <time>2019-06-16T13:04:13Z</time>
      </trkpt>
      <trkpt lat="42.871789019554853" lon="13.060469878837466">
        <ele>797.5</ele>
        <time>2019-06-16T13:04:29Z</time>
      </trkpt>
      <trkpt lat="42.871741829439998" lon="13.06054774671793">
        <ele>796.36000000000001</ele>
        <time>2019-06-16T13:04:45Z</time>
      </trkpt>
      <trkpt lat="42.871659267693758" lon="13.060615472495556">
        <ele>794.14999999999998</ele>
        <time>2019-06-16T13:04:59Z</time>
      </trkpt>
      <trkpt lat="42.871549967676401" lon="13.060664422810078">
        <ele>792.09000000000003</ele>
        <time>2019-06-16T13:05:13Z</time>
      </trkpt>
      <trkpt lat="42.871553571894765" lon="13.060685126110911">
        <ele>791.30999999999995</ele>
        <time>2019-06-16T13:05:22Z</time>
      </trkpt>
      <trkpt lat="42.871564803645015" lon="13.060728628188372">
        <ele>789.98000000000002</ele>
        <time>2019-06-16T13:05:32Z</time>
      </trkpt>
      <trkpt lat="42.871570335701108" lon="13.060776488855481">
        <ele>788.73000000000002</ele>
        <time>2019-06-16T13:05:45Z</time>
      </trkpt>
      <trkpt lat="42.871571760624647" lon="13.060859134420753">
        <ele>785.70000000000005</ele>
        <time>2019-06-16T13:05:55Z</time>
      </trkpt>
      <trkpt lat="42.87160268984735" lon="13.06091764010489">
        <ele>783.02999999999997</ele>
        <time>2019-06-16T13:06:02Z</time>
      </trkpt>
      <trkpt lat="42.871618615463376" lon="13.061002297326922">
        <ele>780.22000000000003</ele>
        <time>2019-06-16T13:06:10Z</time>
      </trkpt>
      <trkpt lat="42.871577711775899" lon="13.061088295653462">
        <ele>777.63999999999999</ele>
        <time>2019-06-16T13:06:25Z</time>
      </trkpt>
      <trkpt lat="42.871546363458037" lon="13.061154345050454">
        <ele>776.22000000000003</ele>
        <time>2019-06-16T13:06:37Z</time>
      </trkpt>
      <trkpt lat="42.871532449498773" lon="13.061185022816062">
        <ele>775.74000000000001</ele>
        <time>2019-06-16T13:06:40Z</time>
      </trkpt>
      <trkpt lat="42.871502861380577" lon="13.06128267198801">
        <ele>772.26999999999998</ele>
        <time>2019-06-16T13:06:49Z</time>
      </trkpt>
      <trkpt lat="42.871493808925152" lon="13.061394905671477">
        <ele>769.17999999999995</ele>
        <time>2019-06-16T13:07:01Z</time>
      </trkpt>
      <trkpt lat="42.871480146422982" lon="13.061518119648099">
        <ele>766.74000000000001</ele>
        <time>2019-06-16T13:07:13Z</time>
      </trkpt>
      <trkpt lat="42.871451983228326" lon="13.061609733849764">
        <ele>763.51999999999998</ele>
        <time>2019-06-16T13:07:24Z</time>
      </trkpt>
      <trkpt lat="42.871433459222317" lon="13.061650553718209">
        <ele>762.01999999999998</ele>
        <time>2019-06-16T13:07:31Z</time>
      </trkpt>
      <trkpt lat="42.87143362686038" lon="13.061762368306518">
        <ele>760.60000000000002</ele>
        <time>2019-06-16T13:07:41Z</time>
      </trkpt>
      <trkpt lat="42.871469920501113" lon="13.061858341097832">
        <ele>759.39999999999998</ele>
        <time>2019-06-16T13:07:53Z</time>
      </trkpt>
      <trkpt lat="42.871530437842011" lon="13.061963198706508">
        <ele>759.01999999999998</ele>
        <time>2019-06-16T13:08:07Z</time>
      </trkpt>
      <trkpt lat="42.871544854715466" lon="13.062005862593651">
        <ele>758.63999999999999</ele>
        <time>2019-06-16T13:08:20Z</time>
      </trkpt>
      <trkpt lat="42.871540496125817" lon="13.062017681077123">
        <ele>757.64999999999998</ele>
        <time>2019-06-16T13:08:35Z</time>
      </trkpt>
      <trkpt lat="42.871537478640676" lon="13.062005694955587">
        <ele>759.12</ele>
        <time>2019-06-16T13:08:50Z</time>
      </trkpt>
      <trkpt lat="42.871517026796937" lon="13.062012149021029">
        <ele>759.25</ele>
        <time>2019-06-16T13:09:13Z</time>
      </trkpt>
      <trkpt lat="42.871478386223316" lon="13.062013238668442">
        <ele>758.97000000000003</ele>
        <time>2019-06-16T13:09:31Z</time>
      </trkpt>
      <trkpt lat="42.871499340981245" lon="13.062007119879127">
        <ele>758.73000000000002</ele>
        <time>2019-06-16T13:09:50Z</time>
      </trkpt>
      <trkpt lat="42.871501101180911" lon="13.062036959454417">
        <ele>758.08000000000004</ele>
        <time>2019-06-16T13:10:03Z</time>
      </trkpt>
      <trkpt lat="42.871519373729825" lon="13.062119018286467">
        <ele>757.57000000000005</ele>
        <time>2019-06-16T13:10:17Z</time>
      </trkpt>
      <trkpt lat="42.871534712612629" lon="13.062170315533876">
        <ele>757.38</ele>
        <time>2019-06-16T13:10:33Z</time>
      </trkpt>
      <trkpt lat="42.871539993211627" lon="13.062307611107826">
        <ele>756.96000000000004</ele>
        <time>2019-06-16T13:10:46Z</time>
      </trkpt>
      <trkpt lat="42.871543597429991" lon="13.062364608049393">
        <ele>756.47000000000003</ele>
        <time>2019-06-16T13:10:51Z</time>
      </trkpt>
      <trkpt lat="42.871548039838672" lon="13.062476003542542">
        <ele>756.00999999999999</ele>
        <time>2019-06-16T13:11:00Z</time>
      </trkpt>
      <trkpt lat="42.871551811695099" lon="13.062695944681764">
        <ele>754.75</ele>
        <time>2019-06-16T13:11:14Z</time>
      </trkpt>
      <trkpt lat="42.87156312726438" lon="13.06291270069778">
        <ele>753.24000000000001</ele>
        <time>2019-06-16T13:11:31Z</time>
      </trkpt>
      <trkpt lat="42.871615849435329" lon="13.063186286017299">
        <ele>751.67999999999995</ele>
        <time>2019-06-16T13:11:49Z</time>
      </trkpt>
      <trkpt lat="42.871615681797266" lon="13.063446041196585">
        <ele>749.71000000000004</ele>
        <time>2019-06-16T13:12:05Z</time>
      </trkpt>
      <trkpt lat="42.871561869978905" lon="13.063652152195573">
        <ele>748.38</ele>
        <time>2019-06-16T13:12:20Z</time>
      </trkpt>
      <trkpt lat="42.871487522497773" lon="13.063845438882709">
        <ele>747.33000000000004</ele>
        <time>2019-06-16T13:12:35Z</time>
      </trkpt>
      <trkpt lat="42.871420215815306" lon="13.064032103866339">
        <ele>746.62</ele>
        <time>2019-06-16T13:12:49Z</time>
      </trkpt>
      <trkpt lat="42.871338408440351" lon="13.064258499071002">
        <ele>745.45000000000005</ele>
        <time>2019-06-16T13:13:07Z</time>
      </trkpt>
      <trkpt lat="42.871293816715479" lon="13.064455222338438">
        <ele>744.37</ele>
        <time>2019-06-16T13:13:23Z</time>
      </trkpt>
      <trkpt lat="42.871270515024662" lon="13.064638702198863">
        <ele>743.42999999999995</ele>
        <time>2019-06-16T13:13:37Z</time>
      </trkpt>
      <trkpt lat="42.871245620772243" lon="13.064847830682993">
        <ele>741.83000000000004</ele>
        <time>2019-06-16T13:13:53Z</time>
      </trkpt>
      <trkpt lat="42.871221229434013" lon="13.065022425726056">
        <ele>740.88999999999999</ele>
        <time>2019-06-16T13:14:06Z</time>
      </trkpt>
      <trkpt lat="42.871218379586935" lon="13.065035836771131">
        <ele>740.59000000000003</ele>
        <time>2019-06-16T13:14:07Z</time>
      </trkpt>
      <trkpt lat="42.871195413172245" lon="13.065201798453927">
        <ele>739.38999999999999</ele>
        <time>2019-06-16T13:14:22Z</time>
      </trkpt>
      <trkpt lat="42.871154677122831" lon="13.065202469006181">
        <ele>739.63</ele>
        <time>2019-06-16T13:14:31Z</time>
      </trkpt>
      <trkpt lat="42.871143193915486" lon="13.06515846401453">
        <ele>739.96000000000004</ele>
        <time>2019-06-16T13:14:40Z</time>
      </trkpt>
      <trkpt lat="42.871136823669076" lon="13.065099706873298">
        <ele>739.12</ele>
        <time>2019-06-16T13:14:46Z</time>
      </trkpt>
      <trkpt lat="42.871137242764235" lon="13.065074644982815">
        <ele>738.73000000000002</ele>
        <time>2019-06-16T13:14:48Z</time>
      </trkpt>
      <trkpt lat="42.871129950508475" lon="13.064868450164795">
        <ele>736.96000000000004</ele>
        <time>2019-06-16T13:15:03Z</time>
      </trkpt>
      <trkpt lat="42.871132716536522" lon="13.064667284488678">
        <ele>736.04999999999995</ele>
        <time>2019-06-16T13:15:18Z</time>
      </trkpt>
      <trkpt lat="42.871122909709811" lon="13.064433597028255">
        <ele>734.92999999999995</ele>
        <time>2019-06-16T13:15:34Z</time>
      </trkpt>
      <trkpt lat="42.871117293834686" lon="13.064270904287696">
        <ele>733.89999999999998</ele>
        <time>2019-06-16T13:15:46Z</time>
      </trkpt>
      <trkpt lat="42.871105810627341" lon="13.064084909856319">
        <ele>732.09000000000003</ele>
        <time>2019-06-16T13:15:58Z</time>
      </trkpt>
      <trkpt lat="42.871077144518495" lon="13.063924815505743">
        <ele>730.29999999999995</ele>
        <time>2019-06-16T13:16:09Z</time>
      </trkpt>
      <trkpt lat="42.87091369740665" lon="13.063932023942471">
        <ele>727.00999999999999</ele>
        <time>2019-06-16T13:16:24Z</time>
      </trkpt>
      <trkpt lat="42.870894083753228" lon="13.063985584303737">
        <ele>726.76999999999998</ele>
        <time>2019-06-16T13:16:33Z</time>
      </trkpt>
      <trkpt lat="42.870900118723512" lon="13.063990194350481">
        <ele>726.14999999999998</ele>
        <time>2019-06-16T13:16:47Z</time>
      </trkpt>
      <trkpt lat="42.870913194492459" lon="13.063969826325774">
        <ele>726.63</ele>
        <time>2019-06-16T13:17:01Z</time>
      </trkpt>
      <trkpt lat="42.870893580839038" lon="13.064013915136456">
        <ele>725.82000000000005</ele>
        <time>2019-06-16T13:17:12Z</time>
      </trkpt>
      <trkpt lat="42.870887545868754" lon="13.064029505476356">
        <ele>725.74000000000001</ele>
        <time>2019-06-16T13:17:23Z</time>
      </trkpt>
      <trkpt lat="42.870925767347217" lon="13.064045011997223">
        <ele>724.46000000000004</ele>
        <time>2019-06-16T13:17:40Z</time>
      </trkpt>
      <trkpt lat="42.870937921106815" lon="13.064101506024599">
        <ele>722.69000000000005</ele>
        <time>2019-06-16T13:17:53Z</time>
      </trkpt>
      <trkpt lat="42.87093473598361" lon="13.064113156870008">
        <ele>719.75999999999999</ele>
        <time>2019-06-16T13:17:55Z</time>
      </trkpt>
      <trkpt lat="42.870932053774595" lon="13.064119862392545">
        <ele>724.33000000000004</ele>
        <time>2019-06-16T13:17:56Z</time>
      </trkpt>
      <trkpt lat="42.870928952470422" lon="13.064124891534448">
        <ele>723.24000000000001</ele>
        <time>2019-06-16T13:17:57Z</time>
      </trkpt>
      <trkpt lat="42.870926689356565" lon="13.064146433025599">
        <ele>722.55999999999995</ele>
        <time>2019-06-16T13:17:59Z</time>
      </trkpt>
      <trkpt lat="42.870894502848387" lon="13.064259504899383">
        <ele>719.46000000000004</ele>
        <time>2019-06-16T13:18:11Z</time>
      </trkpt>
      <trkpt lat="42.870871787890792" lon="13.064405685290694">
        <ele>716.86000000000001</ele>
        <time>2019-06-16T13:18:25Z</time>
      </trkpt>
      <trkpt lat="42.870846977457404" lon="13.064569383859634">
        <ele>713.79999999999995</ele>
        <time>2019-06-16T13:18:40Z</time>
      </trkpt>
      <trkpt lat="42.870824933052063" lon="13.06471380405128">
        <ele>711.20000000000005</ele>
        <time>2019-06-16T13:18:55Z</time>
      </trkpt>
      <trkpt lat="42.870824011042714" lon="13.064765268936753">
        <ele>711.15999999999997</ele>
        <time>2019-06-16T13:19:08Z</time>
      </trkpt>
      <trkpt lat="42.870819987729192" lon="13.064938774332404">
        <ele>709.30999999999995</ele>
        <time>2019-06-16T13:19:24Z</time>
      </trkpt>
      <trkpt lat="42.870808588340878" lon="13.065089648589492">
        <ele>707.17999999999995</ele>
        <time>2019-06-16T13:19:36Z</time>
      </trkpt>
      <trkpt lat="42.870823005214334" lon="13.065232308581471">
        <ele>705.49000000000001</ele>
        <time>2019-06-16T13:19:48Z</time>
      </trkpt>
      <trkpt lat="42.870816383510828" lon="13.065360216423869">
        <ele>704.39999999999998</ele>
        <time>2019-06-16T13:20:04Z</time>
      </trkpt>
      <trkpt lat="42.870766846463084" lon="13.065408747643232">
        <ele>703.34000000000003</ele>
        <time>2019-06-16T13:20:17Z</time>
      </trkpt>
      <trkpt lat="42.870735162869096" lon="13.06540128774941">
        <ele>702.25999999999999</ele>
        <time>2019-06-16T13:20:29Z</time>
      </trkpt>
      <trkpt lat="42.870711190626025" lon="13.065388547256589">
        <ele>702.20000000000005</ele>
        <time>2019-06-16T13:20:48Z</time>
      </trkpt>
      <trkpt lat="42.870709178969264" lon="13.065383015200496">
        <ele>702.55999999999995</ele>
        <time>2019-06-16T13:21:04Z</time>
      </trkpt>
      <trkpt lat="42.870713034644723" lon="13.065331717953086">
        <ele>702.38</ele>
        <time>2019-06-16T13:21:16Z</time>
      </trkpt>
      <trkpt lat="42.870704233646393" lon="13.065307913348079">
        <ele>702.03999999999996</ele>
        <time>2019-06-16T13:21:19Z</time>
      </trkpt>
      <trkpt lat="42.870713034644723" lon="13.065244210883975">
        <ele>702.38</ele>
        <time>2019-06-16T13:21:24Z</time>
      </trkpt>
      <trkpt lat="42.870704485103488" lon="13.065112782642245">
        <ele>702.59000000000003</ele>
        <time>2019-06-16T13:21:34Z</time>
      </trkpt>
      <trkpt lat="42.870665341615677" lon="13.064993759617209">
        <ele>702.92999999999995</ele>
        <time>2019-06-16T13:21:44Z</time>
      </trkpt>
      <trkpt lat="42.8706313110888" lon="13.064929051324725">
        <ele>703.10000000000002</ele>
        <time>2019-06-16T13:21:50Z</time>
      </trkpt>
      <trkpt lat="42.87063566967845" lon="13.064899798482656">
        <ele>703.48000000000002</ele>
        <time>2019-06-16T13:22:01Z</time>
      </trkpt>
      <trkpt lat="42.87063860334456" lon="13.064939947798848">
        <ele>703.13</ele>
        <time>2019-06-16T13:22:04Z</time>
      </trkpt>
      <trkpt lat="42.870635250583291" lon="13.064913796260953">
        <ele>703.33000000000004</ele>
        <time>2019-06-16T13:22:13Z</time>
      </trkpt>
      <trkpt lat="42.870623515918851" lon="13.064860487356782">
        <ele>703.80999999999995</ele>
        <time>2019-06-16T13:22:24Z</time>
      </trkpt>
      <trkpt lat="42.870642375200987" lon="13.064906755462289">
        <ele>703.60000000000002</ele>
        <time>2019-06-16T13:22:28Z</time>
      </trkpt>
      <trkpt lat="42.870695097371936" lon="13.065122002735734">
        <ele>702.03999999999996</ele>
        <time>2019-06-16T13:22:47Z</time>
      </trkpt>
      <trkpt lat="42.870699875056744" lon="13.065145639702678">
        <ele>702.37</ele>
        <time>2019-06-16T13:22:55Z</time>
      </trkpt>
      <trkpt lat="42.870722925290465" lon="13.065353510901332">
        <ele>701.50999999999999</ele>
        <time>2019-06-16T13:23:11Z</time>
      </trkpt>
      <trkpt lat="42.870714040473104" lon="13.065481083467603">
        <ele>701.13</ele>
        <time>2019-06-16T13:23:26Z</time>
      </trkpt>
      <trkpt lat="42.870691157877445" lon="13.065510168671608">
        <ele>700.66999999999996</ele>
        <time>2019-06-16T13:23:31Z</time>
      </trkpt>
      <trkpt lat="42.870667604729533" lon="13.065528608858585">
        <ele>700.40999999999997</ele>
        <time>2019-06-16T13:23:35Z</time>
      </trkpt>
      <trkpt lat="42.870576409623027" lon="13.065530871972442">
        <ele>699.60000000000002</ele>
        <time>2019-06-16T13:23:47Z</time>
      </trkpt>
      <trkpt lat="42.870574733242393" lon="13.065523747354746">
        <ele>699.49000000000001</ele>
        <time>2019-06-16T13:23:48Z</time>
      </trkpt>
      <trkpt lat="42.870544977486134" lon="13.065456273034215">
        <ele>698.53999999999996</ele>
        <time>2019-06-16T13:23:54Z</time>
      </trkpt>
      <trkpt lat="42.870462331920862" lon="13.065308751538396">
        <ele>696.66999999999996</ele>
        <time>2019-06-16T13:24:07Z</time>
      </trkpt>
      <trkpt lat="42.870384464040399" lon="13.065180005505681">
        <ele>694.90999999999997</ele>
        <time>2019-06-16T13:24:21Z</time>
      </trkpt>
      <trkpt lat="42.870432576164603" lon="13.065236583352089">
        <ele>695.40999999999997</ele>
        <time>2019-06-16T13:24:33Z</time>
      </trkpt>
      <trkpt lat="42.870513712987304" lon="13.065403467044234">
        <ele>697.42999999999995</ele>
        <time>2019-06-16T13:24:49Z</time>
      </trkpt>
      <trkpt lat="42.870580516755581" lon="13.065527603030205">
        <ele>699.11000000000001</ele>
        <time>2019-06-16T13:25:02Z</time>
      </trkpt>
      <trkpt lat="42.870582193136215" lon="13.065574122592807">
        <ele>699.82000000000005</ele>
        <time>2019-06-16T13:25:13Z</time>
      </trkpt>
      <trkpt lat="42.870580432936549" lon="13.065568171441555">
        <ele>699.75</ele>
        <time>2019-06-16T13:25:28Z</time>
      </trkpt>
      <trkpt lat="42.870591916143894" lon="13.065576888620853">
        <ele>699.73000000000002</ele>
        <time>2019-06-16T13:25:46Z</time>
      </trkpt>
      <trkpt lat="42.870626449584961" lon="13.065576804801822">
        <ele>700.01999999999998</ele>
        <time>2019-06-16T13:25:57Z</time>
      </trkpt>
      <trkpt lat="42.870703730732203" lon="13.065534979104996">
        <ele>700.15999999999997</ele>
        <time>2019-06-16T13:26:09Z</time>
      </trkpt>
      <trkpt lat="42.870732732117176" lon="13.065494243055582">
        <ele>700.61000000000001</ele>
        <time>2019-06-16T13:26:24Z</time>
      </trkpt>
      <trkpt lat="42.87072217091918" lon="13.065493823960423">
        <ele>700.95000000000005</ele>
        <time>2019-06-16T13:26:36Z</time>
      </trkpt>
      <trkpt lat="42.87071144208312" lon="13.065475719049573">
        <ele>700.71000000000004</ele>
        <time>2019-06-16T13:26:48Z</time>
      </trkpt>
      <trkpt lat="42.870712531730533" lon="13.06549122557044">
        <ele>700.94000000000005</ele>
        <time>2019-06-16T13:27:01Z</time>
      </trkpt>
      <trkpt lat="42.870712783187628" lon="13.065504636615515">
        <ele>700.70000000000005</ele>
        <time>2019-06-16T13:27:17Z</time>
      </trkpt>
      <trkpt lat="42.870700042694807" lon="13.065516036003828">
        <ele>700.61000000000001</ele>
        <time>2019-06-16T13:27:19Z</time>
      </trkpt>
      <trkpt lat="42.870573895052075" lon="13.065723655745387">
        <ele>701.23000000000002</ele>
        <time>2019-06-16T13:27:37Z</time>
      </trkpt>
      <trkpt lat="42.870559561997652" lon="13.065744442865252">
        <ele>701.80999999999995</ele>
        <time>2019-06-16T13:27:42Z</time>
      </trkpt>
      <trkpt lat="42.870624773204327" lon="13.065944937989116">
        <ele>703.16999999999996</ele>
        <time>2019-06-16T13:27:57Z</time>
      </trkpt>
      <trkpt lat="42.87062980234623" lon="13.066121460869908">
        <ele>704.5</ele>
        <time>2019-06-16T13:28:10Z</time>
      </trkpt>
      <trkpt lat="42.870515724644065" lon="13.066184408962727">
        <ele>703.04999999999995</ele>
        <time>2019-06-16T13:28:22Z</time>
      </trkpt>
      <trkpt lat="42.870486471801996" lon="13.066140906885266">
        <ele>702.17999999999995</ele>
        <time>2019-06-16T13:28:26Z</time>
      </trkpt>
      <trkpt lat="42.870450932532549" lon="13.066022805869579">
        <ele>701.15999999999997</ele>
        <time>2019-06-16T13:28:34Z</time>
      </trkpt>
      <trkpt lat="42.870474653318524" lon="13.065957678481936">
        <ele>700.73000000000002</ele>
        <time>2019-06-16T13:28:39Z</time>
      </trkpt>
      <trkpt lat="42.870450681075454" lon="13.065892718732357">
        <ele>699.97000000000003</ele>
        <time>2019-06-16T13:28:50Z</time>
      </trkpt>
      <trkpt lat="42.870411202311516" lon="13.065908811986446">
        <ele>700.15999999999997</ele>
        <time>2019-06-16T13:29:07Z</time>
      </trkpt>
      <trkpt lat="42.870407346636057" lon="13.065900932997465">
        <ele>700.23000000000002</ele>
        <time>2019-06-16T13:29:27Z</time>
      </trkpt>
      <trkpt lat="42.870562495663762" lon="13.065888611599803">
        <ele>700.22000000000003</ele>
        <time>2019-06-16T13:29:51Z</time>
      </trkpt>
      <trkpt lat="42.870492003858089" lon="13.065925072878599">
        <ele>700.04999999999995</ele>
        <time>2019-06-16T13:30:01Z</time>
      </trkpt>
      <trkpt lat="42.870449423789978" lon="13.065978717058897">
        <ele>700.63999999999999</ele>
        <time>2019-06-16T13:30:13Z</time>
      </trkpt>
      <trkpt lat="42.870420003309846" lon="13.065956337377429">
        <ele>700.10000000000002</ele>
        <time>2019-06-16T13:30:24Z</time>
      </trkpt>
      <trkpt lat="42.870415057986975" lon="13.06595298461616">
        <ele>699.32000000000005</ele>
        <time>2019-06-16T13:30:41Z</time>
      </trkpt>
      <trkpt lat="42.870417404919863" lon="13.065983578562737">
        <ele>699.17999999999995</ele>
        <time>2019-06-16T13:30:59Z</time>
      </trkpt>
      <trkpt lat="42.870417824015021" lon="13.065990619361401">
        <ele>699.00999999999999</ele>
        <time>2019-06-16T13:31:18Z</time>
      </trkpt>
      <trkpt lat="42.870413130149245" lon="13.065991038456559">
        <ele>698.94000000000005</ele>
        <time>2019-06-16T13:31:42Z</time>
      </trkpt>
      <trkpt lat="42.870399383828044" lon="13.066001432016492">
        <ele>698.89999999999998</ele>
        <time>2019-06-16T13:32:01Z</time>
      </trkpt>
      <trkpt lat="42.870395528152585" lon="13.065987685695291">
        <ele>698.85000000000002</ele>
        <time>2019-06-16T13:32:22Z</time>
      </trkpt>
      <trkpt lat="42.870401898398995" lon="13.066017357632518">
        <ele>698.91999999999996</ele>
        <time>2019-06-16T13:32:46Z</time>
      </trkpt>
      <trkpt lat="42.870400138199329" lon="13.066027751192451">
        <ele>699.13</ele>
        <time>2019-06-16T13:33:08Z</time>
      </trkpt>
      <trkpt lat="42.87038991227746" lon="13.066051974892616">
        <ele>698.87</ele>
        <time>2019-06-16T13:33:31Z</time>
      </trkpt>
      <trkpt lat="42.870387816801667" lon="13.066053064540029">
        <ele>698.89999999999998</ele>
        <time>2019-06-16T13:33:51Z</time>
      </trkpt>
      <trkpt lat="42.870387062430382" lon="13.066115761175752">
        <ele>698.79999999999995</ele>
        <time>2019-06-16T13:34:13Z</time>
      </trkpt>
      <trkpt lat="42.870374657213688" lon="13.066094974055886">
        <ele>698.88</ele>
        <time>2019-06-16T13:34:37Z</time>
      </trkpt>
      <trkpt lat="42.8703982103616" lon="13.066010233014822">
        <ele>698.38999999999999</ele>
        <time>2019-06-16T13:34:56Z</time>
      </trkpt>
      <trkpt lat="42.870415141806006" lon="13.066014088690281">
        <ele>698.87</ele>
        <time>2019-06-16T13:35:19Z</time>
      </trkpt>
      <trkpt lat="42.870396198704839" lon="13.066029930487275">
        <ele>699.19000000000005</ele>
        <time>2019-06-16T13:35:41Z</time>
      </trkpt>
      <trkpt lat="42.870406676083803" lon="13.066030684858561">
        <ele>699.25999999999999</ele>
        <time>2019-06-16T13:36:03Z</time>
      </trkpt>
      <trkpt lat="42.870399551466107" lon="13.066043509170413">
        <ele>699.22000000000003</ele>
        <time>2019-06-16T13:36:25Z</time>
      </trkpt>
      <trkpt lat="42.870371052995324" lon="13.066048705950379">
        <ele>699.34000000000003</ele>
        <time>2019-06-16T13:36:46Z</time>
      </trkpt>
      <trkpt lat="42.870376165956259" lon="13.066009478643537">
        <ele>698.99000000000001</ele>
        <time>2019-06-16T13:37:10Z</time>
      </trkpt>
      <trkpt lat="42.870388822630048" lon="13.066030601039529">
        <ele>699.04999999999995</ele>
        <time>2019-06-16T13:37:33Z</time>
      </trkpt>
      <trkpt lat="42.87041237577796" lon="13.066063625738025">
        <ele>699.20000000000005</ele>
        <time>2019-06-16T13:37:57Z</time>
      </trkpt>
      <trkpt lat="42.870413968339562" lon="13.066044514998794">
        <ele>698.53999999999996</ele>
        <time>2019-06-16T13:38:19Z</time>
      </trkpt>
      <trkpt lat="42.870380524545908" lon="13.066017022356391">
        <ele>698.40999999999997</ele>
        <time>2019-06-16T13:38:43Z</time>
      </trkpt>
      <trkpt lat="42.87038647569716" lon="13.066043006256223">
        <ele>698.54999999999995</ele>
        <time>2019-06-16T13:39:08Z</time>
      </trkpt>
      <trkpt lat="42.870421931147575" lon="13.066017609089613">
        <ele>698.49000000000001</ele>
        <time>2019-06-16T13:39:34Z</time>
      </trkpt>
      <trkpt lat="42.870431821793318" lon="13.066015429794788">
        <ele>698.59000000000003</ele>
        <time>2019-06-16T13:40:04Z</time>
      </trkpt>
      <trkpt lat="42.870380356907845" lon="13.066092627122998">
        <ele>698.66999999999996</ele>
        <time>2019-06-16T13:40:25Z</time>
      </trkpt>
      <trkpt lat="42.870357306674123" lon="13.066121209412813">
        <ele>698.74000000000001</ele>
        <time>2019-06-16T13:40:46Z</time>
      </trkpt>
      <trkpt lat="42.870325036346912" lon="13.066055327653885">
        <ele>698.71000000000004</ele>
        <time>2019-06-16T13:41:15Z</time>
      </trkpt>
      <trkpt lat="42.870348254218698" lon="13.06601844727993">
        <ele>698.33000000000004</ele>
        <time>2019-06-16T13:41:32Z</time>
      </trkpt>
      <trkpt lat="42.870392007753253" lon="13.066048622131348">
        <ele>698.28999999999996</ele>
        <time>2019-06-16T13:41:56Z</time>
      </trkpt>
      <trkpt lat="42.870396450161934" lon="13.066044095903635">
        <ele>698.41999999999996</ele>
        <time>2019-06-16T13:42:18Z</time>
      </trkpt>
      <trkpt lat="42.870405251160264" lon="13.06602624244988">
        <ele>698.76999999999998</ele>
        <time>2019-06-16T13:42:39Z</time>
      </trkpt>
      <trkpt lat="42.870382787659764" lon="13.066049376502633">
        <ele>698.76999999999998</ele>
        <time>2019-06-16T13:43:03Z</time>
      </trkpt>
      <trkpt lat="42.870379518717527" lon="13.066082904115319">
        <ele>699.10000000000002</ele>
        <time>2019-06-16T13:43:27Z</time>
      </trkpt>
      <trkpt lat="42.870389241725206" lon="13.066104277968407">
        <ele>698.98000000000002</ele>
        <time>2019-06-16T13:43:51Z</time>
      </trkpt>
      <trkpt lat="42.870391504839063" lon="13.066137973219156">
        <ele>699.13999999999999</ele>
        <time>2019-06-16T13:44:12Z</time>
      </trkpt>
      <trkpt lat="42.870389241725206" lon="13.066133530810475">
        <ele>698.72000000000003</ele>
        <time>2019-06-16T13:44:34Z</time>
      </trkpt>
      <trkpt lat="42.870403993874788" lon="13.066098159179091">
        <ele>698.86000000000001</ele>
        <time>2019-06-16T13:45:00Z</time>
      </trkpt>
      <trkpt lat="42.870395611971617" lon="13.066101260483265">
        <ele>698.05999999999995</ele>
        <time>2019-06-16T13:45:25Z</time>
      </trkpt>
      <trkpt lat="42.870388822630048" lon="13.066068151965737">
        <ele>698.39999999999998</ele>
        <time>2019-06-16T13:45:47Z</time>
      </trkpt>
      <trkpt lat="42.870375579223037" lon="13.066060272976756">
        <ele>699.03999999999996</ele>
        <time>2019-06-16T13:46:13Z</time>
      </trkpt>
      <trkpt lat="42.8703757468611" lon="13.066087681800127">
        <ele>698.94000000000005</ele>
        <time>2019-06-16T13:46:33Z</time>
      </trkpt>
      <trkpt lat="42.870394941419363" lon="13.066093968227506">
        <ele>698.48000000000002</ele>
        <time>2019-06-16T13:46:55Z</time>
      </trkpt>
      <trkpt lat="42.87039628252387" lon="13.066083993762732">
        <ele>698.21000000000004</ele>
        <time>2019-06-16T13:47:16Z</time>
      </trkpt>
      <trkpt lat="42.87041631527245" lon="13.066036636009812">
        <ele>698.37</ele>
        <time>2019-06-16T13:47:40Z</time>
      </trkpt>
      <trkpt lat="42.870420170947909" lon="13.06604141369462">
        <ele>698.12</ele>
        <time>2019-06-16T13:47:59Z</time>
      </trkpt>
      <trkpt lat="42.87039184011519" lon="13.066046023741364">
        <ele>697.97000000000003</ele>
        <time>2019-06-16T13:48:23Z</time>
      </trkpt>
      <trkpt lat="42.870384128764272" lon="13.066026829183102">
        <ele>697.88999999999999</ele>
        <time>2019-06-16T13:48:38Z</time>
      </trkpt>
      <trkpt lat="42.870394606143236" lon="13.065990870818496">
        <ele>697.54999999999995</ele>
        <time>2019-06-16T13:49:02Z</time>
      </trkpt>
      <trkpt lat="42.870353870093822" lon="13.066031858325005">
        <ele>697.24000000000001</ele>
        <time>2019-06-16T13:49:24Z</time>
      </trkpt>
      <trkpt lat="42.870376836508512" lon="13.066031187772751">
        <ele>696.94000000000005</ele>
        <time>2019-06-16T13:49:47Z</time>
      </trkpt>
      <trkpt lat="42.870394270867109" lon="13.065969748422503">
        <ele>696.87</ele>
        <time>2019-06-16T13:50:07Z</time>
      </trkpt>
      <trkpt lat="42.870398377999663" lon="13.065964384004474">
        <ele>696.88999999999999</ele>
        <time>2019-06-16T13:50:25Z</time>
      </trkpt>
      <trkpt lat="42.870406843721867" lon="13.065949967131019">
        <ele>696.65999999999997</ele>
        <time>2019-06-16T13:50:48Z</time>
      </trkpt>
      <trkpt lat="42.870407430455089" lon="13.065991541370749">
        <ele>696.72000000000003</ele>
        <time>2019-06-16T13:51:11Z</time>
      </trkpt>
      <trkpt lat="42.870399551466107" lon="13.065993385389447">
        <ele>696.32000000000005</ele>
        <time>2019-06-16T13:51:38Z</time>
      </trkpt>
      <trkpt lat="42.870388990268111" lon="13.065951894968748">
        <ele>696.02999999999997</ele>
        <time>2019-06-16T13:52:02Z</time>
      </trkpt>
      <trkpt lat="42.870346158742905" lon="13.066061194986105">
        <ele>696.36000000000001</ele>
        <time>2019-06-16T13:52:25Z</time>
      </trkpt>
      <trkpt lat="42.870343308895826" lon="13.066049460321665">
        <ele>696.38</ele>
        <time>2019-06-16T13:52:49Z</time>
      </trkpt>
      <trkpt lat="42.870330400764942" lon="13.066092794761062">
        <ele>696.28999999999996</ele>
        <time>2019-06-16T13:53:11Z</time>
      </trkpt>
      <trkpt lat="42.870367951691151" lon="13.066071923822165">
        <ele>695.72000000000003</ele>
        <time>2019-06-16T13:53:36Z</time>
      </trkpt>
      <trkpt lat="42.870382452383637" lon="13.066057674586773">
        <ele>695.99000000000001</ele>
        <time>2019-06-16T13:53:56Z</time>
      </trkpt>
      <trkpt lat="42.870407765731215" lon="13.066107463091612">
        <ele>696.22000000000003</ele>
        <time>2019-06-16T13:54:21Z</time>
      </trkpt>
      <trkpt lat="42.870411621406674" lon="13.066052813082933">
        <ele>696.03999999999996</ele>
        <time>2019-06-16T13:54:48Z</time>
      </trkpt>
      <trkpt lat="42.8703947737813" lon="13.066068822517991">
        <ele>695.52999999999997</ele>
        <time>2019-06-16T13:55:12Z</time>
      </trkpt>
      <trkpt lat="42.870387649163604" lon="13.066083071753383">
        <ele>695.62</ele>
        <time>2019-06-16T13:55:36Z</time>
      </trkpt>
      <trkpt lat="42.870372394099832" lon="13.066105199977756">
        <ele>695.13999999999999</ele>
        <time>2019-06-16T13:55:59Z</time>
      </trkpt>
      <trkpt lat="42.870388068258762" lon="13.065983662381768">
        <ele>695.35000000000002</ele>
        <time>2019-06-16T13:56:23Z</time>
      </trkpt>
      <trkpt lat="42.87038161419332" lon="13.065958432853222">
        <ele>695.35000000000002</ele>
        <time>2019-06-16T13:56:45Z</time>
      </trkpt>
      <trkpt lat="42.870344650000334" lon="13.065973352640867">
        <ele>695.27999999999997</ele>
        <time>2019-06-16T13:57:07Z</time>
      </trkpt>
      <trkpt lat="42.870353534817696" lon="13.066011574119329">
        <ele>695.17999999999995</ele>
        <time>2019-06-16T13:57:30Z</time>
      </trkpt>
      <trkpt lat="42.870357558131218" lon="13.06601501069963">
        <ele>695.47000000000003</ele>
        <time>2019-06-16T13:57:51Z</time>
      </trkpt>
      <trkpt lat="42.870375579223037" lon="13.066002940759063">
        <ele>695.64999999999998</ele>
        <time>2019-06-16T13:58:15Z</time>
      </trkpt>
      <trkpt lat="42.870375998318195" lon="13.066082485020161">
        <ele>695.46000000000004</ele>
        <time>2019-06-16T13:58:42Z</time>
      </trkpt>
      <trkpt lat="42.870392678305507" lon="13.066021297127008">
        <ele>695.37</ele>
        <time>2019-06-16T13:59:06Z</time>
      </trkpt>
      <trkpt lat="42.870384296402335" lon="13.066050382331014">
        <ele>695.66999999999996</ele>
        <time>2019-06-16T13:59:30Z</time>
      </trkpt>
      <trkpt lat="42.870382620021701" lon="13.066050801426172">
        <ele>695.45000000000005</ele>
        <time>2019-06-16T13:59:53Z</time>
      </trkpt>
      <trkpt lat="42.870398126542568" lon="13.066076030954719">
        <ele>695.97000000000003</ele>
        <time>2019-06-16T14:00:15Z</time>
      </trkpt>
      <trkpt lat="42.870407095178962" lon="13.066026577726007">
        <ele>695.70000000000005</ele>
        <time>2019-06-16T14:00:40Z</time>
      </trkpt>
      <trkpt lat="42.870371723547578" lon="13.066076785326004">
        <ele>695.65999999999997</ele>
        <time>2019-06-16T14:01:00Z</time>
      </trkpt>
      <trkpt lat="42.870387984439731" lon="13.066009897738695">
        <ele>695.78999999999996</ele>
        <time>2019-06-16T14:01:25Z</time>
      </trkpt>
      <trkpt lat="42.87039770744741" lon="13.065986093133688">
        <ele>696.07000000000005</ele>
        <time>2019-06-16T14:01:48Z</time>
      </trkpt>
      <trkpt lat="42.87040994502604" lon="13.066051807254553">
        <ele>696.21000000000004</ele>
        <time>2019-06-16T14:02:11Z</time>
      </trkpt>
      <trkpt lat="42.870431737974286" lon="13.066015178337693">
        <ele>696.28999999999996</ele>
        <time>2019-06-16T14:02:33Z</time>
      </trkpt>
      <trkpt lat="42.870402233675122" lon="13.065983410924673">
        <ele>696.98000000000002</ele>
        <time>2019-06-16T14:02:54Z</time>
      </trkpt>
      <trkpt lat="42.870385553687811" lon="13.065940579399467">
        <ele>697.10000000000002</ele>
        <time>2019-06-16T14:03:16Z</time>
      </trkpt>
      <trkpt lat="42.870376920327544" lon="13.065988188609481">
        <ele>697.25999999999999</ele>
        <time>2019-06-16T14:03:34Z</time>
      </trkpt>
      <trkpt lat="42.870379770174623" lon="13.066000007092953">
        <ele>696.92999999999995</ele>
        <time>2019-06-16T14:03:55Z</time>
      </trkpt>
      <trkpt lat="42.87037524394691" lon="13.065983913838863">
        <ele>697.99000000000001</ele>
        <time>2019-06-16T14:04:05Z</time>
      </trkpt>
      <trkpt lat="42.870401563122869" lon="13.065992463380098">
        <ele>697.33000000000004</ele>
        <time>2019-06-16T14:04:18Z</time>
      </trkpt>
      <trkpt lat="42.870398377999663" lon="13.065986428409815">
        <ele>697.26999999999998</ele>
        <time>2019-06-16T14:04:42Z</time>
      </trkpt>
      <trkpt lat="42.870405502617359" lon="13.065956421196461">
        <ele>697.30999999999995</ele>
        <time>2019-06-16T14:05:11Z</time>
      </trkpt>
      <trkpt lat="42.870400976389647" lon="13.065941166132689">
        <ele>697.45000000000005</ele>
        <time>2019-06-16T14:05:46Z</time>
      </trkpt>
      <trkpt lat="42.870392259210348" lon="13.065970335155725">
        <ele>697.98000000000002</ele>
        <time>2019-06-16T14:06:29Z</time>
      </trkpt>
      <trkpt lat="42.870395360514522" lon="13.065929682925344">
        <ele>697.65999999999997</ele>
        <time>2019-06-16T14:07:04Z</time>
      </trkpt>
      <trkpt lat="42.870391504839063" lon="13.065953236073256">
        <ele>698.13999999999999</ele>
        <time>2019-06-16T14:07:35Z</time>
      </trkpt>
      <trkpt lat="42.870393181219697" lon="13.065962959080935">
        <ele>698.24000000000001</ele>
        <time>2019-06-16T14:08:15Z</time>
      </trkpt>
      <trkpt lat="42.870404832065105" lon="13.065941752865911">
        <ele>698.94000000000005</ele>
        <time>2019-06-16T14:08:45Z</time>
      </trkpt>
      <trkpt lat="42.870393181219697" lon="13.065939825028181">
        <ele>698.95000000000005</ele>
        <time>2019-06-16T14:09:06Z</time>
      </trkpt>
      <trkpt lat="42.87038890644908" lon="13.06595784612">
        <ele>698.03999999999996</ele>
        <time>2019-06-16T14:09:24Z</time>
      </trkpt>
      <trkpt lat="42.870391672477126" lon="13.065962791442871">
        <ele>700.74000000000001</ele>
        <time>2019-06-16T14:09:26Z</time>
      </trkpt>
      <trkpt lat="42.870401227846742" lon="13.065986428409815">
        <ele>698.53999999999996</ele>
        <time>2019-06-16T14:09:36Z</time>
      </trkpt>
      <trkpt lat="42.870388403534889" lon="13.065973520278931">
        <ele>698.84000000000003</ele>
        <time>2019-06-16T14:09:57Z</time>
      </trkpt>
      <trkpt lat="42.87038111127913" lon="13.065993217751384">
        <ele>699.32000000000005</ele>
        <time>2019-06-16T14:10:16Z</time>
      </trkpt>
      <trkpt lat="42.870374154299498" lon="13.065986763685942">
        <ele>699.55999999999995</ele>
        <time>2019-06-16T14:10:37Z</time>
      </trkpt>
      <trkpt lat="42.870369795709848" lon="13.065995229408145">
        <ele>699.02999999999997</ele>
        <time>2019-06-16T14:11:02Z</time>
      </trkpt>
      <trkpt lat="42.870359234511852" lon="13.065985590219498">
        <ele>699.86000000000001</ele>
        <time>2019-06-16T14:11:24Z</time>
      </trkpt>
      <trkpt lat="42.870390499010682" lon="13.066002689301968">
        <ele>699.41999999999996</ele>
        <time>2019-06-16T14:11:44Z</time>
      </trkpt>
      <trkpt lat="42.870382200926542" lon="13.065999755635858">
        <ele>699.83000000000004</ele>
        <time>2019-06-16T14:12:07Z</time>
      </trkpt>
      <trkpt lat="42.870394019410014" lon="13.065979136154056">
        <ele>700.13999999999999</ele>
        <time>2019-06-16T14:12:32Z</time>
      </trkpt>
      <trkpt lat="42.870382871478796" lon="13.065986428409815">
        <ele>699.61000000000001</ele>
        <time>2019-06-16T14:13:02Z</time>
      </trkpt>
      <trkpt lat="42.870381362736225" lon="13.065987769514322">
        <ele>698.75999999999999</ele>
        <time>2019-06-16T14:13:04Z</time>
      </trkpt>
      <trkpt lat="42.87038404494524" lon="13.065985506400466">
        <ele>702.21000000000004</ele>
        <time>2019-06-16T14:13:11Z</time>
      </trkpt>
      <trkpt lat="42.870383877307177" lon="13.065989445894957">
        <ele>700.25999999999999</ele>
        <time>2019-06-16T14:13:14Z</time>
      </trkpt>
      <trkpt lat="42.87039041519165" lon="13.066003024578094">
        <ele>701.54999999999995</ele>
        <time>2019-06-16T14:13:17Z</time>
      </trkpt>
      <trkpt lat="42.870428133755922" lon="13.065989445894957">
        <ele>701.70000000000005</ele>
        <time>2019-06-16T14:13:24Z</time>
      </trkpt>
      <trkpt lat="42.87045830860734" lon="13.065939405933022">
        <ele>701.10000000000002</ele>
        <time>2019-06-16T14:13:28Z</time>
      </trkpt>
      <trkpt lat="42.870448166504502" lon="13.06587721221149">
        <ele>700.67999999999995</ele>
        <time>2019-06-16T14:13:32Z</time>
      </trkpt>
      <trkpt lat="42.87043048068881" lon="13.065864639356732">
        <ele>700.74000000000001</ele>
        <time>2019-06-16T14:13:39Z</time>
      </trkpt>
      <trkpt lat="42.870466774329543" lon="13.065960947424173">
        <ele>701.28999999999996</ele>
        <time>2019-06-16T14:13:50Z</time>
      </trkpt>
      <trkpt lat="42.870451770722866" lon="13.066051136702299">
        <ele>701.85000000000002</ele>
        <time>2019-06-16T14:14:01Z</time>
      </trkpt>
      <trkpt lat="42.87048228085041" lon="13.066141996532679">
        <ele>702.71000000000004</ele>
        <time>2019-06-16T14:14:12Z</time>
      </trkpt>
      <trkpt lat="42.870499715209007" lon="13.066182984039187">
        <ele>702.95000000000005</ele>
        <time>2019-06-16T14:14:19Z</time>
      </trkpt>
      <trkpt lat="42.870543720200658" lon="13.066175524145365">
        <ele>703.37</ele>
        <time>2019-06-16T14:14:25Z</time>
      </trkpt>
      <trkpt lat="42.870633993297815" lon="13.066081311553717">
        <ele>704.37</ele>
        <time>2019-06-16T14:14:38Z</time>
      </trkpt>
      <trkpt lat="42.870681015774608" lon="13.065981231629848">
        <ele>704.05999999999995</ele>
        <time>2019-06-16T14:14:47Z</time>
      </trkpt>
      <trkpt lat="42.870626952499151" lon="13.065807223320007">
        <ele>702.5</ele>
        <time>2019-06-16T14:15:02Z</time>
      </trkpt>
      <trkpt lat="42.870602980256081" lon="13.065737821161747">
        <ele>701.86000000000001</ele>
        <time>2019-06-16T14:15:12Z</time>
      </trkpt>
      <trkpt lat="42.870602225884795" lon="13.06568618863821">
        <ele>701.12</ele>
        <time>2019-06-16T14:15:24Z</time>
      </trkpt>
      <trkpt lat="42.870576493442059" lon="13.065550066530704">
        <ele>699.90999999999997</ele>
        <time>2019-06-16T14:15:36Z</time>
      </trkpt>
      <trkpt lat="42.870534919202328" lon="13.065425846725702">
        <ele>699.96000000000004</ele>
        <time>2019-06-16T14:15:51Z</time>
      </trkpt>
      <trkpt lat="42.870522094890475" lon="13.065388631075621">
        <ele>697.57000000000005</ele>
        <time>2019-06-16T14:15:54Z</time>
      </trkpt>
      <trkpt lat="42.87046467885375" lon="13.065288886427879">
        <ele>695.91999999999996</ele>
        <time>2019-06-16T14:16:05Z</time>
      </trkpt>
      <trkpt lat="42.87040944211185" lon="13.065177239477634">
        <ele>695.63999999999999</ele>
        <time>2019-06-16T14:16:13Z</time>
      </trkpt>
      <trkpt lat="42.870356552302837" lon="13.065000968053937">
        <ele>693.38999999999999</ele>
        <time>2019-06-16T14:16:28Z</time>
      </trkpt>
      <trkpt lat="42.870300309732556" lon="13.064786558970809">
        <ele>691.29999999999995</ele>
        <time>2019-06-16T14:16:45Z</time>
      </trkpt>
      <trkpt lat="42.870293939486146" lon="13.064767951145768">
        <ele>691</ele>
        <time>2019-06-16T14:16:47Z</time>
      </trkpt>
      <trkpt lat="42.870271392166615" lon="13.064680360257626">
        <ele>689.73000000000002</ele>
        <time>2019-06-16T14:16:54Z</time>
      </trkpt>
      <trkpt lat="42.87023451179266" lon="13.064494533464313">
        <ele>688.25999999999999</ele>
        <time>2019-06-16T14:17:09Z</time>
      </trkpt>
      <trkpt lat="42.870181035250425" lon="13.064274759963155">
        <ele>686.60000000000002</ele>
        <time>2019-06-16T14:17:26Z</time>
      </trkpt>
      <trkpt lat="42.870120098814368" lon="13.064024560153484">
        <ele>684.35000000000002</ele>
        <time>2019-06-16T14:17:44Z</time>
      </trkpt>
      <trkpt lat="42.870093612000346" lon="13.063987260684371">
        <ele>683.66999999999996</ele>
        <time>2019-06-16T14:17:55Z</time>
      </trkpt>
      <trkpt lat="42.870098222047091" lon="13.063978040590882">
        <ele>683.91999999999996</ele>
        <time>2019-06-16T14:18:12Z</time>
      </trkpt>
      <trkpt lat="42.870107525959611" lon="13.06397351436317">
        <ele>683.78999999999996</ele>
        <time>2019-06-16T14:18:26Z</time>
      </trkpt>
      <trkpt lat="42.87011188454926" lon="13.063977621495724">
        <ele>683.78999999999996</ele>
        <time>2019-06-16T14:18:41Z</time>
      </trkpt>
      <trkpt lat="42.870110291987658" lon="13.063900424167514">
        <ele>683.72000000000003</ele>
        <time>2019-06-16T14:18:53Z</time>
      </trkpt>
      <trkpt lat="42.870059749111533" lon="13.063733875751495">
        <ele>681.48000000000002</ele>
        <time>2019-06-16T14:19:09Z</time>
      </trkpt>
      <trkpt lat="42.870054636150599" lon="13.063716273754835">
        <ele>681.42999999999995</ele>
        <time>2019-06-16T14:19:15Z</time>
      </trkpt>
      <trkpt lat="42.870041308924556" lon="13.06366078555584">
        <ele>680.95000000000005</ele>
        <time>2019-06-16T14:19:19Z</time>
      </trkpt>
      <trkpt lat="42.86999898031354" lon="13.063516030088067">
        <ele>679.41999999999996</ele>
        <time>2019-06-16T14:19:30Z</time>
      </trkpt>
      <trkpt lat="42.869912395253778" lon="13.063277062028646">
        <ele>677.83000000000004</ele>
        <time>2019-06-16T14:19:47Z</time>
      </trkpt>
      <trkpt lat="42.869858583435416" lon="13.063231213018298">
        <ele>677.00999999999999</ele>
        <time>2019-06-16T14:19:52Z</time>
      </trkpt>
      <trkpt lat="42.869781889021397" lon="13.06321713142097">
        <ele>676.00999999999999</ele>
        <time>2019-06-16T14:20:02Z</time>
      </trkpt>
      <trkpt lat="42.869745176285505" lon="13.063207240775228">
        <ele>675.30999999999995</ele>
        <time>2019-06-16T14:20:06Z</time>
      </trkpt>
      <trkpt lat="42.869569072499871" lon="13.063274463638663">
        <ele>673.61000000000001</ele>
        <time>2019-06-16T14:20:23Z</time>
      </trkpt>
      <trkpt lat="42.86941995844245" lon="13.063338585197926">
        <ele>671.51999999999998</ele>
        <time>2019-06-16T14:20:37Z</time>
      </trkpt>
      <trkpt lat="42.869277382269502" lon="13.063333723694086">
        <ele>671.12</ele>
        <time>2019-06-16T14:20:50Z</time>
      </trkpt>
      <trkpt lat="42.86920789629221" lon="13.063329197466373">
        <ele>668.35000000000002</ele>
        <time>2019-06-16T14:20:56Z</time>
      </trkpt>
      <trkpt lat="42.869108403101563" lon="13.063267758116126">
        <ele>667.60000000000002</ele>
        <time>2019-06-16T14:21:07Z</time>
      </trkpt>
      <trkpt lat="42.869027433916926" lon="13.063215203583241">
        <ele>665.86000000000001</ele>
        <time>2019-06-16T14:21:18Z</time>
      </trkpt>
      <trkpt lat="42.868982004001737" lon="13.063167845830321">
        <ele>664.64999999999998</ele>
        <time>2019-06-16T14:21:24Z</time>
      </trkpt>
      <trkpt lat="42.86896800622344" lon="13.063147393986583">
        <ele>663.14999999999998</ele>
        <time>2019-06-16T14:21:26Z</time>
      </trkpt>
      <trkpt lat="42.868915786966681" lon="13.063067849725485">
        <ele>665.13</ele>
        <time>2019-06-16T14:21:34Z</time>
      </trkpt>
      <trkpt lat="42.86888787522912" lon="13.063014457002282">
        <ele>662.02999999999997</ele>
        <time>2019-06-16T14:21:39Z</time>
      </trkpt>
      <trkpt lat="42.868824759498239" lon="13.062904737889767">
        <ele>662</ele>
        <time>2019-06-16T14:21:50Z</time>
      </trkpt>
      <trkpt lat="42.86880673840642" lon="13.06286777369678">
        <ele>660.66999999999996</ele>
        <time>2019-06-16T14:21:53Z</time>
      </trkpt>
      <trkpt lat="42.868727026507258" lon="13.062708601355553">
        <ele>658.79999999999995</ele>
        <time>2019-06-16T14:22:06Z</time>
      </trkpt>
      <trkpt lat="42.868652595207095" lon="13.062583459541202">
        <ele>657.54999999999995</ele>
        <time>2019-06-16T14:22:17Z</time>
      </trkpt>
      <trkpt lat="42.868576068431139" lon="13.062384808436036">
        <ele>655.02999999999997</ele>
        <time>2019-06-16T14:22:32Z</time>
      </trkpt>
      <trkpt lat="42.868568608537316" lon="13.062086496502161">
        <ele>652.90999999999997</ele>
        <time>2019-06-16T14:22:52Z</time>
      </trkpt>
      <trkpt lat="42.868556035682559" lon="13.061883989721537">
        <ele>651.46000000000004</ele>
        <time>2019-06-16T14:23:06Z</time>
      </trkpt>
      <trkpt lat="42.868470959365368" lon="13.061782568693161">
        <ele>649.98000000000002</ele>
        <time>2019-06-16T14:23:18Z</time>
      </trkpt>
      <trkpt lat="42.86843441426754" lon="13.061765301972628">
        <ele>649.14999999999998</ele>
        <time>2019-06-16T14:23:22Z</time>
      </trkpt>
      <trkpt lat="42.868384961038828" lon="13.061747699975967">
        <ele>648.42999999999995</ele>
        <time>2019-06-16T14:23:28Z</time>
      </trkpt>
      <trkpt lat="42.86823702044785" lon="13.061687937006354">
        <ele>646.27999999999997</ele>
        <time>2019-06-16T14:23:43Z</time>
      </trkpt>
      <trkpt lat="42.868185974657536" lon="13.061662120744586">
        <ele>645.45000000000005</ele>
        <time>2019-06-16T14:23:53Z</time>
      </trkpt>
      <trkpt lat="42.868141299113631" lon="13.061655163764954">
        <ele>645.04999999999995</ele>
        <time>2019-06-16T14:24:03Z</time>
      </trkpt>
      <trkpt lat="42.868132749572396" lon="13.061650469899178">
        <ele>644.83000000000004</ele>
        <time>2019-06-16T14:24:09Z</time>
      </trkpt>
      <trkpt lat="42.868033172562718" lon="13.061543684452772">
        <ele>642.88999999999999</ele>
        <time>2019-06-16T14:24:23Z</time>
      </trkpt>
      <trkpt lat="42.868021270260215" lon="13.061518203467131">
        <ele>642.59000000000003</ele>
        <time>2019-06-16T14:24:26Z</time>
      </trkpt>
      <trkpt lat="42.868003332987428" lon="13.061489621177316">
        <ele>642.39999999999998</ele>
        <time>2019-06-16T14:24:29Z</time>
      </trkpt>
      <trkpt lat="42.867891350761056" lon="13.061280995607376">
        <ele>639.63999999999999</ele>
        <time>2019-06-16T14:24:48Z</time>
      </trkpt>
      <trkpt lat="42.867807783186436" lon="13.061096509918571">
        <ele>637.45000000000005</ele>
        <time>2019-06-16T14:25:02Z</time>
      </trkpt>
      <trkpt lat="42.86770879290998" lon="13.060919735580683">
        <ele>635.20000000000005</ele>
        <time>2019-06-16T14:25:16Z</time>
      </trkpt>
      <trkpt lat="42.867627320811152" lon="13.060767268761992">
        <ele>633.51999999999998</ele>
        <time>2019-06-16T14:25:29Z</time>
      </trkpt>
      <trkpt lat="42.867531683295965" lon="13.06058001704514">
        <ele>631.83000000000004</ele>
        <time>2019-06-16T14:25:45Z</time>
      </trkpt>
      <trkpt lat="42.867481391876936" lon="13.060468453913927">
        <ele>630.82000000000005</ele>
        <time>2019-06-16T14:25:57Z</time>
      </trkpt>
      <trkpt lat="42.867460604757071" lon="13.060427466407418">
        <ele>630.35000000000002</ele>
        <time>2019-06-16T14:26:01Z</time>
      </trkpt>
      <trkpt lat="42.867346275597811" lon="13.060259409248829">
        <ele>628.50999999999999</ele>
        <time>2019-06-16T14:26:17Z</time>
      </trkpt>
      <trkpt lat="42.867259941995144" lon="13.060102248564363">
        <ele>627.02999999999997</ele>
        <time>2019-06-16T14:26:30Z</time>
      </trkpt>
      <trkpt lat="42.867168914526701" lon="13.059924552217126">
        <ele>625.71000000000004</ele>
        <time>2019-06-16T14:26:45Z</time>
      </trkpt>
      <trkpt lat="42.867089286446571" lon="13.059742581099272">
        <ele>624.76999999999998</ele>
        <time>2019-06-16T14:27:00Z</time>
      </trkpt>
      <trkpt lat="42.867006305605173" lon="13.059558179229498">
        <ele>623.87</ele>
        <time>2019-06-16T14:27:15Z</time>
      </trkpt>
      <trkpt lat="42.866938663646579" lon="13.059410993009806">
        <ele>622.80999999999995</ele>
        <time>2019-06-16T14:27:29Z</time>
      </trkpt>
      <trkpt lat="42.866902034729719" lon="13.0592973344028">
        <ele>622.15999999999997</ele>
        <time>2019-06-16T14:27:39Z</time>
      </trkpt>
      <trkpt lat="42.866868171840906" lon="13.059143107384443">
        <ele>621.37</ele>
        <time>2019-06-16T14:27:50Z</time>
      </trkpt>
      <trkpt lat="42.866837158799171" lon="13.058889470994473">
        <ele>620.74000000000001</ele>
        <time>2019-06-16T14:28:08Z</time>
      </trkpt>
      <trkpt lat="42.866832967847586" lon="13.058872958645225">
        <ele>620.71000000000004</ele>
        <time>2019-06-16T14:28:10Z</time>
      </trkpt>
      <trkpt lat="42.866838416084647" lon="13.058639857918024">
        <ele>620</ele>
        <time>2019-06-16T14:28:26Z</time>
      </trkpt>
      <trkpt lat="42.866851072758436" lon="13.058447828516364">
        <ele>619.02999999999997</ele>
        <time>2019-06-16T14:28:39Z</time>
      </trkpt>
      <trkpt lat="42.866856437176466" lon="13.0582335870713">
        <ele>618.00999999999999</ele>
        <time>2019-06-16T14:28:53Z</time>
      </trkpt>
      <trkpt lat="42.866939418017864" lon="13.057986153289676">
        <ele>616.63</ele>
        <time>2019-06-16T14:29:10Z</time>
      </trkpt>
      <trkpt lat="42.867098422721028" lon="13.05785246193409">
        <ele>615.13999999999999</ele>
        <time>2019-06-16T14:29:26Z</time>
      </trkpt>
      <trkpt lat="42.867239573970437" lon="13.057735869660974">
        <ele>613.84000000000003</ele>
        <time>2019-06-16T14:29:41Z</time>
      </trkpt>
      <trkpt lat="42.86736823618412" lon="13.057627491652966">
        <ele>613.34000000000003</ele>
        <time>2019-06-16T14:29:55Z</time>
      </trkpt>
      <trkpt lat="42.867512740194798" lon="13.05750017054379">
        <ele>612.47000000000003</ele>
        <time>2019-06-16T14:30:11Z</time>
      </trkpt>
      <trkpt lat="42.86755682900548" lon="13.057462284341455">
        <ele>611.84000000000003</ele>
        <time>2019-06-16T14:30:18Z</time>
      </trkpt>
      <trkpt lat="42.867581639438868" lon="13.057438395917416">
        <ele>612.05999999999995</ele>
        <time>2019-06-16T14:30:21Z</time>
      </trkpt>
      <trkpt lat="42.867624387145042" lon="13.057393804192543">
        <ele>611.38999999999999</ele>
        <time>2019-06-16T14:30:26Z</time>
      </trkpt>
      <trkpt lat="42.867789762094617" lon="13.057211078703403">
        <ele>609.80999999999995</ele>
        <time>2019-06-16T14:30:45Z</time>
      </trkpt>
      <trkpt lat="42.867918089032173" lon="13.057040590792894">
        <ele>608.42999999999995</ele>
        <time>2019-06-16T14:31:01Z</time>
      </trkpt>
      <trkpt lat="42.868029233068228" lon="13.056837329640985">
        <ele>607.51999999999998</ele>
        <time>2019-06-16T14:31:17Z</time>
      </trkpt>
      <trkpt lat="42.868137275800109" lon="13.056591991335154">
        <ele>605.92999999999995</ele>
        <time>2019-06-16T14:31:35Z</time>
      </trkpt>
      <trkpt lat="42.868200726807117" lon="13.056288566440344">
        <ele>604.91999999999996</ele>
        <time>2019-06-16T14:31:55Z</time>
      </trkpt>
      <trkpt lat="42.868210533633828" lon="13.056075163185596">
        <ele>603.49000000000001</ele>
        <time>2019-06-16T14:32:09Z</time>
      </trkpt>
      <trkpt lat="42.868205169215798" lon="13.055873578414321">
        <ele>602.40999999999997</ele>
        <time>2019-06-16T14:32:22Z</time>
      </trkpt>
      <trkpt lat="42.868200140073895" lon="13.055663108825684">
        <ele>601.80999999999995</ele>
        <time>2019-06-16T14:32:36Z</time>
      </trkpt>
      <trkpt lat="42.86815395578742" lon="13.055475102737546">
        <ele>601.37</ele>
        <time>2019-06-16T14:32:49Z</time>
      </trkpt>
      <trkpt lat="42.868078267201781" lon="13.055245690047741">
        <ele>600.69000000000005</ele>
        <time>2019-06-16T14:33:05Z</time>
      </trkpt>
      <trkpt lat="42.868013307452202" lon="13.05497981607914">
        <ele>600.04999999999995</ele>
        <time>2019-06-16T14:33:23Z</time>
      </trkpt>
      <trkpt lat="42.868073657155037" lon="13.054729616269469">
        <ele>598.48000000000002</ele>
        <time>2019-06-16T14:33:40Z</time>
      </trkpt>
      <trkpt lat="42.868183711543679" lon="13.054527193307877">
        <ele>597.15999999999997</ele>
        <time>2019-06-16T14:33:56Z</time>
      </trkpt>
      <trkpt lat="42.868303069844842" lon="13.054332565516233">
        <ele>595.60000000000002</ele>
        <time>2019-06-16T14:34:12Z</time>
      </trkpt>
      <trkpt lat="42.868410442024469" lon="13.054071301594377">
        <ele>594.58000000000004</ele>
        <time>2019-06-16T14:34:30Z</time>
      </trkpt>
      <trkpt lat="42.868504319339991" lon="13.053770055994391">
        <ele>592.59000000000003</ele>
        <time>2019-06-16T14:34:50Z</time>
      </trkpt>
      <trkpt lat="42.868538433685899" lon="13.053631754592061">
        <ele>592.01999999999998</ele>
        <time>2019-06-16T14:35:00Z</time>
      </trkpt>
      <trkpt lat="42.868581181392074" lon="13.053398989140987">
        <ele>591.21000000000004</ele>
        <time>2019-06-16T14:35:15Z</time>
      </trkpt>
      <trkpt lat="42.86862107925117" lon="13.05310545489192">
        <ele>589.90999999999997</ele>
        <time>2019-06-16T14:35:34Z</time>
      </trkpt>
      <trkpt lat="42.868716549128294" lon="13.052857266739011">
        <ele>588.95000000000005</ele>
        <time>2019-06-16T14:35:51Z</time>
      </trkpt>
      <trkpt lat="42.868844205513597" lon="13.052652245387435">
        <ele>587.70000000000005</ele>
        <time>2019-06-16T14:36:08Z</time>
      </trkpt>
      <trkpt lat="42.868976220488548" lon="13.05244873277843">
        <ele>587.07000000000005</ele>
        <time>2019-06-16T14:36:25Z</time>
      </trkpt>
      <trkpt lat="42.869107145816088" lon="13.05225427262485">
        <ele>586.23000000000002</ele>
        <time>2019-06-16T14:36:42Z</time>
      </trkpt>
      <trkpt lat="42.869222816079855" lon="13.052065595984459">
        <ele>585.04999999999995</ele>
        <time>2019-06-16T14:36:57Z</time>
      </trkpt>
      <trkpt lat="42.869337648153305" lon="13.051853617653251">
        <ele>583.88</ele>
        <time>2019-06-16T14:37:14Z</time>
      </trkpt>
      <trkpt lat="42.86941266618669" lon="13.051640968769789">
        <ele>583.28999999999996</ele>
        <time>2019-06-16T14:37:28Z</time>
      </trkpt>
      <trkpt lat="42.869498077780008" lon="13.05140845477581">
        <ele>582.37</ele>
        <time>2019-06-16T14:37:44Z</time>
      </trkpt>
      <trkpt lat="42.869610311463475" lon="13.051222460344434">
        <ele>581.69000000000005</ele>
        <time>2019-06-16T14:37:59Z</time>
      </trkpt>
      <trkpt lat="42.869743332266808" lon="13.051140233874321">
        <ele>580.82000000000005</ele>
        <time>2019-06-16T14:38:13Z</time>
      </trkpt>
      <trkpt lat="42.869902588427067" lon="13.051081225275993">
        <ele>579.95000000000005</ele>
        <time>2019-06-16T14:38:26Z</time>
      </trkpt>
      <trkpt lat="42.87005765363574" lon="13.05101458914578">
        <ele>579.11000000000001</ele>
        <time>2019-06-16T14:38:39Z</time>
      </trkpt>
      <trkpt lat="42.870202325284481" lon="13.050906043499708">
        <ele>578.25</ele>
        <time>2019-06-16T14:38:53Z</time>
      </trkpt>
      <trkpt lat="42.87038647569716" lon="13.050740668550134">
        <ele>577.23000000000002</ele>
        <time>2019-06-16T14:39:11Z</time>
      </trkpt>
      <trkpt lat="42.870549922809005" lon="13.050593230873346">
        <ele>576.52999999999997</ele>
        <time>2019-06-16T14:39:27Z</time>
      </trkpt>
      <trkpt lat="42.870739018544555" lon="13.050500862300396">
        <ele>575.52999999999997</ele>
        <time>2019-06-16T14:39:44Z</time>
      </trkpt>
      <trkpt lat="42.870914032682776" lon="13.050435483455658">
        <ele>574.41999999999996</ele>
        <time>2019-06-16T14:39:59Z</time>
      </trkpt>
      <trkpt lat="42.871070271357894" lon="13.050308749079704">
        <ele>573.88</ele>
        <time>2019-06-16T14:40:15Z</time>
      </trkpt>
      <trkpt lat="42.871215278282762" lon="13.050165921449661">
        <ele>573.17999999999995</ele>
        <time>2019-06-16T14:40:30Z</time>
      </trkpt>
      <trkpt lat="42.871377132833004" lon="13.049999456852674">
        <ele>572.57000000000005</ele>
        <time>2019-06-16T14:40:47Z</time>
      </trkpt>
      <trkpt lat="42.871545106172562" lon="13.049853863194585">
        <ele>571.77999999999997</ele>
        <time>2019-06-16T14:41:03Z</time>
      </trkpt>
      <trkpt lat="42.871690196916461" lon="13.049685135483742">
        <ele>571.63999999999999</ele>
        <time>2019-06-16T14:41:18Z</time>
      </trkpt>
      <trkpt lat="42.871840065345168" lon="13.049547420814633">
        <ele>570.86000000000001</ele>
        <time>2019-06-16T14:41:34Z</time>
      </trkpt>
      <trkpt lat="42.87203167565167" lon="13.049349607899785">
        <ele>570.40999999999997</ele>
        <time>2019-06-16T14:41:54Z</time>
      </trkpt>
      <trkpt lat="42.872197134420276" lon="13.049188423901796">
        <ele>569.90999999999997</ele>
        <time>2019-06-16T14:42:12Z</time>
      </trkpt>
      <trkpt lat="42.872360162436962" lon="13.049003100022674">
        <ele>569.50999999999999</ele>
        <time>2019-06-16T14:42:29Z</time>
      </trkpt>
      <trkpt lat="42.872537104412913" lon="13.04877620190382">
        <ele>568.53999999999996</ele>
        <time>2019-06-16T14:42:49Z</time>
      </trkpt>
      <trkpt lat="42.872624024748802" lon="13.048620047047734">
        <ele>568.09000000000003</ele>
        <time>2019-06-16T14:43:01Z</time>
      </trkpt>
      <trkpt lat="42.872715471312404" lon="13.048427766188979">
        <ele>567.72000000000003</ele>
        <time>2019-06-16T14:43:15Z</time>
      </trkpt>
      <trkpt lat="42.87284673191607" lon="13.048201873898506">
        <ele>567.09000000000003</ele>
        <time>2019-06-16T14:43:32Z</time>
      </trkpt>
      <trkpt lat="42.872998109087348" lon="13.047981262207031">
        <ele>566.42999999999995</ele>
        <time>2019-06-16T14:43:50Z</time>
      </trkpt>
      <trkpt lat="42.873142277821898" lon="13.047838434576988">
        <ele>564.80999999999995</ele>
        <time>2019-06-16T14:44:05Z</time>
      </trkpt>
      <trkpt lat="42.873244117945433" lon="13.047721507027745">
        <ele>562.5</ele>
        <time>2019-06-16T14:44:17Z</time>
      </trkpt>
      <trkpt lat="42.873260462656617" lon="13.047687225043774">
        <ele>565.52999999999997</ele>
        <time>2019-06-16T14:44:21Z</time>
      </trkpt>
      <trkpt lat="42.873274125158787" lon="13.047660822048783">
        <ele>564.41999999999996</ele>
        <time>2019-06-16T14:44:31Z</time>
      </trkpt>
      <trkpt lat="42.873314190655947" lon="13.04764011874795">
        <ele>564.21000000000004</ele>
        <time>2019-06-16T14:44:42Z</time>
      </trkpt>
      <trkpt lat="42.873343108221889" lon="13.047622181475163">
        <ele>564.37</ele>
        <time>2019-06-16T14:44:54Z</time>
      </trkpt>
      <trkpt lat="42.873511081561446" lon="13.047478683292866">
        <ele>563.27999999999997</ele>
        <time>2019-06-16T14:45:12Z</time>
      </trkpt>
      <trkpt lat="42.873608898371458" lon="13.047393104061484">
        <ele>562.88</ele>
        <time>2019-06-16T14:45:23Z</time>
      </trkpt>
      <trkpt lat="42.873730435967445" lon="13.047276679426432">
        <ele>562.01999999999998</ele>
        <time>2019-06-16T14:45:37Z</time>
      </trkpt>
      <trkpt lat="42.873754659667611" lon="13.047250611707568">
        <ele>561.62</ele>
        <time>2019-06-16T14:45:41Z</time>
      </trkpt>
      <trkpt lat="42.873800089582801" lon="13.047213731333613">
        <ele>562.24000000000001</ele>
        <time>2019-06-16T14:45:46Z</time>
      </trkpt>
      <trkpt lat="42.873953729867935" lon="13.047041147947311">
        <ele>561.75</ele>
        <time>2019-06-16T14:46:04Z</time>
      </trkpt>
      <trkpt lat="42.874061353504658" lon="13.046925896778703">
        <ele>561.41999999999996</ele>
        <time>2019-06-16T14:46:18Z</time>
      </trkpt>
      <trkpt lat="42.874071495607495" lon="13.046916173771024">
        <ele>561.33000000000004</ele>
        <time>2019-06-16T14:46:19Z</time>
      </trkpt>
      <trkpt lat="42.874091947451234" lon="13.046883819624782">
        <ele>561.36000000000001</ele>
        <time>2019-06-16T14:46:22Z</time>
      </trkpt>
      <trkpt lat="42.874203845858574" lon="13.046732610091567">
        <ele>560.96000000000004</ele>
        <time>2019-06-16T14:46:36Z</time>
      </trkpt>
      <trkpt lat="42.874379614368081" lon="13.046515434980392">
        <ele>560.01999999999998</ele>
        <time>2019-06-16T14:46:54Z</time>
      </trkpt>
      <trkpt lat="42.874543648213148" lon="13.046333715319633">
        <ele>559.88</ele>
        <time>2019-06-16T14:47:11Z</time>
      </trkpt>
      <trkpt lat="42.874786555767059" lon="13.046185439452529">
        <ele>558.57000000000005</ele>
        <time>2019-06-16T14:47:32Z</time>
      </trkpt>
      <trkpt lat="42.874962659552693" lon="13.046065829694271">
        <ele>558.15999999999997</ele>
        <time>2019-06-16T14:47:49Z</time>
      </trkpt>
      <trkpt lat="42.875121412798762" lon="13.045967426151037">
        <ele>557.41999999999996</ele>
        <time>2019-06-16T14:48:03Z</time>
      </trkpt>
      <trkpt lat="42.875294666737318" lon="13.045834824442863">
        <ele>556.38999999999999</ele>
        <time>2019-06-16T14:48:20Z</time>
      </trkpt>
      <trkpt lat="42.875469513237476" lon="13.045653607696295">
        <ele>555.17999999999995</ele>
        <time>2019-06-16T14:48:38Z</time>
      </trkpt>
      <trkpt lat="42.875578729435802" lon="13.045486221089959">
        <ele>554.67999999999995</ele>
        <time>2019-06-16T14:48:52Z</time>
      </trkpt>
      <trkpt lat="42.875695740804076" lon="13.045301986858249">
        <ele>553.86000000000001</ele>
        <time>2019-06-16T14:49:07Z</time>
      </trkpt>
      <trkpt lat="42.875795066356659" lon="13.045148430392146">
        <ele>553.40999999999997</ele>
        <time>2019-06-16T14:49:20Z</time>
      </trkpt>
      <trkpt lat="42.875916603952646" lon="13.044989258050919">
        <ele>552.77999999999997</ele>
        <time>2019-06-16T14:49:34Z</time>
      </trkpt>
      <trkpt lat="42.87605850957334" lon="13.044779123738408">
        <ele>552.90999999999997</ele>
        <time>2019-06-16T14:49:51Z</time>
      </trkpt>
      <trkpt lat="42.876192787662148" lon="13.044616430997849">
        <ele>551.59000000000003</ele>
        <time>2019-06-16T14:50:06Z</time>
      </trkpt>
      <trkpt lat="42.876316588371992" lon="13.044471424072981">
        <ele>551.46000000000004</ele>
        <time>2019-06-16T14:50:20Z</time>
      </trkpt>
      <trkpt lat="42.876470983028412" lon="13.044313341379166">
        <ele>551.80999999999995</ele>
        <time>2019-06-16T14:50:36Z</time>
      </trkpt>
      <trkpt lat="42.876623114570975" lon="13.044200520962477">
        <ele>551.13</ele>
        <time>2019-06-16T14:50:51Z</time>
      </trkpt>
      <trkpt lat="42.876799972727895" lon="13.044112427160144">
        <ele>550.63999999999999</ele>
        <time>2019-06-16T14:51:07Z</time>
      </trkpt>
      <trkpt lat="42.876997869461775" lon="13.044036151841283">
        <ele>550.38</ele>
        <time>2019-06-16T14:51:24Z</time>
      </trkpt>
      <trkpt lat="42.877203058451414" lon="13.043946968391538">
        <ele>549.54999999999995</ele>
        <time>2019-06-16T14:51:41Z</time>
      </trkpt>
      <trkpt lat="42.877429956570268" lon="13.043790645897388">
        <ele>548.42999999999995</ele>
        <time>2019-06-16T14:52:01Z</time>
      </trkpt>
      <trkpt lat="42.877562223002315" lon="13.043676903471351">
        <ele>548.10000000000002</ele>
        <time>2019-06-16T14:52:13Z</time>
      </trkpt>
      <trkpt lat="42.87772131152451" lon="13.043452436104417">
        <ele>546.99000000000001</ele>
        <time>2019-06-16T14:52:30Z</time>
      </trkpt>
      <trkpt lat="42.877834886312485" lon="13.04325076751411">
        <ele>546.26999999999998</ele>
        <time>2019-06-16T14:52:44Z</time>
      </trkpt>
      <trkpt lat="42.877939660102129" lon="13.043042393401265">
        <ele>546.50999999999999</ele>
        <time>2019-06-16T14:52:58Z</time>
      </trkpt>
      <trkpt lat="42.878041667863727" lon="13.042831588536501">
        <ele>546.25</ele>
        <time>2019-06-16T14:53:13Z</time>
      </trkpt>
      <trkpt lat="42.878192709758878" lon="13.04261801764369">
        <ele>546.28999999999996</ele>
        <time>2019-06-16T14:53:31Z</time>
      </trkpt>
      <trkpt lat="42.878346936777234" lon="13.042444093152881">
        <ele>545.66999999999996</ele>
        <time>2019-06-16T14:53:47Z</time>
      </trkpt>
      <trkpt lat="42.878489596769214" lon="13.042306294664741">
        <ele>544.96000000000004</ele>
        <time>2019-06-16T14:54:02Z</time>
      </trkpt>
      <trkpt lat="42.878635106608272" lon="13.04217042401433">
        <ele>545.38</ele>
        <time>2019-06-16T14:54:17Z</time>
      </trkpt>
      <trkpt lat="42.878772905096412" lon="13.042052490636706">
        <ele>545.27999999999997</ele>
        <time>2019-06-16T14:54:31Z</time>
      </trkpt>
      <trkpt lat="42.878905422985554" lon="13.041946291923523">
        <ele>545</ele>
        <time>2019-06-16T14:54:44Z</time>
      </trkpt>
      <trkpt lat="42.879045316949487" lon="13.041843110695481">
        <ele>544.41999999999996</ele>
        <time>2019-06-16T14:54:57Z</time>
      </trkpt>
      <trkpt lat="42.879194431006908" lon="13.041723584756255">
        <ele>543.42999999999995</ele>
        <time>2019-06-16T14:55:11Z</time>
      </trkpt>
      <trkpt lat="42.87933524698019" lon="13.041611853986979">
        <ele>542.30999999999995</ele>
        <time>2019-06-16T14:55:25Z</time>
      </trkpt>
      <trkpt lat="42.879399368539453" lon="13.041563825681806">
        <ele>541.55999999999995</ele>
        <time>2019-06-16T14:55:33Z</time>
      </trkpt>
      <trkpt lat="42.879415042698383" lon="13.041490567848086">
        <ele>540.14999999999998</ele>
        <time>2019-06-16T14:55:45Z</time>
      </trkpt>
      <trkpt lat="42.879413031041622" lon="13.041488556191325">
        <ele>539.39999999999998</ele>
        <time>2019-06-16T14:56:05Z</time>
      </trkpt>
      <trkpt lat="42.879413031041622" lon="13.041484784334898">
        <ele>540.76999999999998</ele>
        <time>2019-06-16T14:56:20Z</time>
      </trkpt>
      <trkpt lat="42.87941831164062" lon="13.041484951972961">
        <ele>540.65999999999997</ele>
        <time>2019-06-16T14:56:41Z</time>
      </trkpt>
      <trkpt lat="42.879403978586197" lon="13.041483191773295">
        <ele>539.76999999999998</ele>
        <time>2019-06-16T14:57:01Z</time>
      </trkpt>
    </trkseg>
  </trk>

</gpx>